Cuivre River (Missouri), Troy (05514500)

StateMissouriLatestHigh (1650 cfs)
RiverCuivre RiverRatingObservedEstimated
Updated2026-05-06 2:30 (34 minutes ago)Flood - The river is flooding. Obstacles can be treacherous or deadly. The river should be avoided at this stage for casual trips and definitely for the inexperienced. Trips should be attempted only with protective gear and equipment.Flood(none)2680
Discharge1650 cfs (median: 245 cfs)High - The river is high and potentially dangerous, especially for the young and / or inexperienced. Normal stream obstacles are sometimes difficult to navigate. Extended distances can be attempted, but canoe travel may not be advisable.High(none)718
Height8.81 feetGood - Conditions are ideal for a canoe or kayak. Boats typically will drag on fewer than one-quarter of riffles, if at all, and portages are unnecessary or rare. Normal float lengths can be attempted without a problem.Good(none)216
TrendRising (rising over 24 hours)Low - River is low but can still be floated. Some riffles are okay but most come with significant dragging and might need a portage. Float lengths should be reduced to accommodate low flow, dragging, and portages.Low(none)132
USGSExternal icon USGS Site (External icon Duck Duck Go Maps)Poor - River is too low to float comfortably. Most or all riffles will drag or must be portaged and some obstacles (such as slick shelf rock) cause undue problems. Avoid the river at this stage for casual paddling trips.Poor(none)34

Trending Data

Plot Image

Trips for Cuivre River (Missouri), Troy (05514500)

DateStartEndDistanceConditionDischargeHeightFishingDetails

A total of 0 rows are displayed.

Condition Descriptions

Fishing Conditions

Fish Species

Notes

Classic Trip List

The classic River Trips application is still available for use. It is updated with the new system using a data retrofit. It is no longer maintained. The original River Trips application is no longer updated (as of 1 Dec 2016) but can be checked for errors or for the condition of the data before it was converted to the new system.

Gauge Data Table

ObservationHeightDischargeMaximum
Discharge
Minimum
Discharge
Mean
Discharge
P05P10P20P25P50
(Median)
P75P80P90P95
2026-05-06 02:30 8.81 1650 16600 (2022) 13 (2000) 1110 42 57 77 94 245 746 1180 2790 4870
2026-05-06 02:00 8.70 1550 16600 (2022) 13 (2000) 1110 42 57 77 94 245 746 1180 2790 4870
2026-05-06 01:30 8.56 1430 16600 (2022) 13 (2000) 1110 42 57 77 94 245 746 1180 2790 4870
2026-05-06 01:00 8.38 1290 16600 (2022) 13 (2000) 1110 42 57 77 94 245 746 1180 2790 4870
2026-05-06 00:30 8.21 1160 16600 (2022) 13 (2000) 1110 42 57 77 94 245 746 1180 2790 4870
2026-05-06 00:00 8.01 1020 16600 (2022) 13 (2000) 1110 42 57 77 94 245 746 1180 2790 4870
2026-05-05 23:30 7.83 900 16600 (2022) 13 (2000) 1110 42 57 77 94 245 746 1180 2790 4870
2026-05-05 23:00 7.68 809 16600 (2022) 13 (2000) 1110 42 57 77 94 245 746 1180 2790 4870
2026-05-05 22:30 7.55 734 12800 (2022) 14 (2000) 1100 41 58 84 99 230 908 1230 3680 5820
2026-05-05 22:00 7.42 664 12800 (2022) 14 (2000) 1100 41 58 84 99 230 908 1230 3680 5820
2026-05-05 21:30 7.30 602 12800 (2022) 14 (2000) 1100 41 58 84 99 230 908 1230 3680 5820
2026-05-05 21:00 7.17 540 12800 (2022) 14 (2000) 1100 41 58 84 99 230 908 1230 3680 5820
2026-05-05 20:30 7.07 494 12800 (2022) 14 (2000) 1100 41 58 84 99 230 908 1230 3680 5820
2026-05-05 20:00 7.04 481 12800 (2022) 14 (2000) 1100 41 58 84 99 230 908 1230 3680 5820
2026-05-05 19:30 7.00 464 12800 (2022) 14 (2000) 1100 41 58 84 99 230 908 1230 3680 5820
2026-05-05 19:00 6.96 447 12800 (2022) 14 (2000) 1100 41 58 84 99 230 908 1230 3680 5820
2026-05-05 18:30 6.92 431 12800 (2022) 14 (2000) 1100 41 58 84 99 230 908 1230 3680 5820
2026-05-05 18:00 6.90 423 12800 (2022) 14 (2000) 1100 41 58 84 99 230 908 1230 3680 5820
2026-05-05 17:30 6.87 411 12800 (2022) 14 (2000) 1100 41 58 84 99 230 908 1230 3680 5820
2026-05-05 17:00 6.84 399 12800 (2022) 14 (2000) 1100 41 58 84 99 230 908 1230 3680 5820
2026-05-05 16:30 6.82 391 12800 (2022) 14 (2000) 1100 41 58 84 99 230 908 1230 3680 5820
2026-05-05 16:00 6.84 399 12800 (2022) 14 (2000) 1100 41 58 84 99 230 908 1230 3680 5820
2026-05-05 15:30 6.81 387 12800 (2022) 14 (2000) 1100 41 58 84 99 230 908 1230 3680 5820
2026-05-05 15:00 6.83 395 12800 (2022) 14 (2000) 1100 41 58 84 99 230 908 1230 3680 5820
2026-05-05 14:30 6.82 391 12800 (2022) 14 (2000) 1100 41 58 84 99 230 908 1230 3680 5820
2026-05-05 14:00 6.80 384 12800 (2022) 14 (2000) 1100 41 58 84 99 230 908 1230 3680 5820
2026-05-05 13:30 6.80 384 12800 (2022) 14 (2000) 1100 41 58 84 99 230 908 1230 3680 5820
2026-05-05 13:00 6.79 380 12800 (2022) 14 (2000) 1100 41 58 84 99 230 908 1230 3680 5820
2026-05-05 12:30 6.79 380 12800 (2022) 14 (2000) 1100 41 58 84 99 230 908 1230 3680 5820
2026-05-05 12:00 6.79 380 12800 (2022) 14 (2000) 1100 41 58 84 99 230 908 1230 3680 5820
2026-05-05 11:30 6.79 380 12800 (2022) 14 (2000) 1100 41 58 84 99 230 908 1230 3680 5820
2026-05-05 11:00 6.79 380 12800 (2022) 14 (2000) 1100 41 58 84 99 230 908 1230 3680 5820
2026-05-05 10:30 6.78 376 12800 (2022) 14 (2000) 1100 41 58 84 99 230 908 1230 3680 5820
2026-05-05 10:00 6.77 372 12800 (2022) 14 (2000) 1100 41 58 84 99 230 908 1230 3680 5820
2026-05-05 09:30 6.78 376 12800 (2022) 14 (2000) 1100 41 58 84 99 230 908 1230 3680 5820
2026-05-05 09:00 6.75 365 12800 (2022) 14 (2000) 1100 41 58 84 99 230 908 1230 3680 5820
2026-05-05 08:30 6.77 372 12800 (2022) 14 (2000) 1100 41 58 84 99 230 908 1230 3680 5820
2026-05-05 08:00 6.75 365 12800 (2022) 14 (2000) 1100 41 58 84 99 230 908 1230 3680 5820
2026-05-05 07:30 6.70 347 12800 (2022) 14 (2000) 1100 41 58 84 99 230 908 1230 3680 5820
2026-05-05 07:00 6.73 358 12800 (2022) 14 (2000) 1100 41 58 84 99 230 908 1230 3680 5820
2026-05-05 06:30 6.72 354 12800 (2022) 14 (2000) 1100 41 58 84 99 230 908 1230 3680 5820
2026-05-05 06:00 6.73 358 12800 (2022) 14 (2000) 1100 41 58 84 99 230 908 1230 3680 5820
2026-05-05 05:30 6.71 350 12800 (2022) 14 (2000) 1100 41 58 84 99 230 908 1230 3680 5820
2026-05-05 05:00 6.69 343 12800 (2022) 14 (2000) 1100 41 58 84 99 230 908 1230 3680 5820
2026-05-05 04:30 6.69 343 12800 (2022) 14 (2000) 1100 41 58 84 99 230 908 1230 3680 5820
2026-05-05 04:00 6.67 336 12800 (2022) 14 (2000) 1100 41 58 84 99 230 908 1230 3680 5820
2026-05-05 03:30 6.62 319 12800 (2022) 14 (2000) 1100 41 58 84 99 230 908 1230 3680 5820
2026-05-05 03:00 6.62 319 12800 (2022) 14 (2000) 1100 41 58 84 99 230 908 1230 3680 5820
2026-05-05 02:30 6.64 326 12800 (2022) 14 (2000) 1100 41 58 84 99 230 908 1230 3680 5820
2026-05-05 02:00 6.60 312 12800 (2022) 14 (2000) 1100 41 58 84 99 230 908 1230 3680 5820
2026-05-05 01:30 6.61 315 12800 (2022) 14 (2000) 1100 41 58 84 99 230 908 1230 3680 5820
2026-05-05 01:00 6.58 305 12800 (2022) 14 (2000) 1100 41 58 84 99 230 908 1230 3680 5820
2026-05-05 00:30 6.63 322 12800 (2022) 14 (2000) 1100 41 58 84 99 230 908 1230 3680 5820
2026-05-05 00:00 6.62 319 12800 (2022) 14 (2000) 1100 41 58 84 99 230 908 1230 3680 5820
2026-05-04 23:30 6.64 326 12800 (2022) 14 (2000) 1100 41 58 84 99 230 908 1230 3680 5820
2026-05-04 23:00 6.64 326 12800 (2022) 14 (2000) 1100 41 58 84 99 230 908 1230 3680 5820
2026-05-04 22:30 6.64 326 25700 (2013) 15 (2000) 1260 43 61 91 113 255 760 1000 2380 6500
2026-05-04 22:00 6.64 326 25700 (2013) 15 (2000) 1260 43 61 91 113 255 760 1000 2380 6500
2026-05-04 21:30 6.64 326 25700 (2013) 15 (2000) 1260 43 61 91 113 255 760 1000 2380 6500
2026-05-04 21:00 6.65 329 25700 (2013) 15 (2000) 1260 43 61 91 113 255 760 1000 2380 6500
2026-05-04 20:30 6.65 329 25700 (2013) 15 (2000) 1260 43 61 91 113 255 760 1000 2380 6500
2026-05-04 20:00 6.65 329 25700 (2013) 15 (2000) 1260 43 61 91 113 255 760 1000 2380 6500
2026-05-04 19:30 6.65 329 25700 (2013) 15 (2000) 1260 43 61 91 113 255 760 1000 2380 6500
2026-05-04 19:00 6.66 333 25700 (2013) 15 (2000) 1260 43 61 91 113 255 760 1000 2380 6500
2026-05-04 18:30 6.66 333 25700 (2013) 15 (2000) 1260 43 61 91 113 255 760 1000 2380 6500
2026-05-04 18:00 6.65 329 25700 (2013) 15 (2000) 1260 43 61 91 113 255 760 1000 2380 6500
2026-05-04 17:30 6.63 322 25700 (2013) 15 (2000) 1260 43 61 91 113 255 760 1000 2380 6500
2026-05-04 17:00 6.62 319 25700 (2013) 15 (2000) 1260 43 61 91 113 255 760 1000 2380 6500
2026-05-04 16:30 6.64 326 25700 (2013) 15 (2000) 1260 43 61 91 113 255 760 1000 2380 6500
2026-05-04 16:00 6.61 315 25700 (2013) 15 (2000) 1260 43 61 91 113 255 760 1000 2380 6500
2026-05-04 15:30 6.65 329 25700 (2013) 15 (2000) 1260 43 61 91 113 255 760 1000 2380 6500
2026-05-04 15:00 6.68 340 25700 (2013) 15 (2000) 1260 43 61 91 113 255 760 1000 2380 6500
2026-05-04 14:30 6.69 343 25700 (2013) 15 (2000) 1260 43 61 91 113 255 760 1000 2380 6500
2026-05-04 14:00 6.69 343 25700 (2013) 15 (2000) 1260 43 61 91 113 255 760 1000 2380 6500
2026-05-04 13:30 6.69 343 25700 (2013) 15 (2000) 1260 43 61 91 113 255 760 1000 2380 6500
2026-05-04 13:00 6.69 343 25700 (2013) 15 (2000) 1260 43 61 91 113 255 760 1000 2380 6500
2026-05-04 12:30 6.70 347 25700 (2013) 15 (2000) 1260 43 61 91 113 255 760 1000 2380 6500
2026-05-04 12:00 6.69 343 25700 (2013) 15 (2000) 1260 43 61 91 113 255 760 1000 2380 6500
2026-05-04 11:30 6.70 347 25700 (2013) 15 (2000) 1260 43 61 91 113 255 760 1000 2380 6500
2026-05-04 11:00 6.71 350 25700 (2013) 15 (2000) 1260 43 61 91 113 255 760 1000 2380 6500
2026-05-04 10:30 6.71 350 25700 (2013) 15 (2000) 1260 43 61 91 113 255 760 1000 2380 6500
2026-05-04 10:00 6.72 354 25700 (2013) 15 (2000) 1260 43 61 91 113 255 760 1000 2380 6500
2026-05-04 09:30 6.71 350 25700 (2013) 15 (2000) 1260 43 61 91 113 255 760 1000 2380 6500
2026-05-04 09:00 6.72 354 25700 (2013) 15 (2000) 1260 43 61 91 113 255 760 1000 2380 6500
2026-05-04 08:30 6.72 354 25700 (2013) 15 (2000) 1260 43 61 91 113 255 760 1000 2380 6500
2026-05-04 08:00 6.72 354 25700 (2013) 15 (2000) 1260 43 61 91 113 255 760 1000 2380 6500
2026-05-04 07:30 6.73 358 25700 (2013) 15 (2000) 1260 43 61 91 113 255 760 1000 2380 6500
2026-05-04 07:00 6.73 358 25700 (2013) 15 (2000) 1260 43 61 91 113 255 760 1000 2380 6500
2026-05-04 06:30 6.73 358 25700 (2013) 15 (2000) 1260 43 61 91 113 255 760 1000 2380 6500
2026-05-04 06:00 6.74 361 25700 (2013) 15 (2000) 1260 43 61 91 113 255 760 1000 2380 6500
2026-05-04 05:30 6.74 361 25700 (2013) 15 (2000) 1260 43 61 91 113 255 760 1000 2380 6500
2026-05-04 05:00 6.75 365 25700 (2013) 15 (2000) 1260 43 61 91 113 255 760 1000 2380 6500
2026-05-04 04:30 6.75 365 25700 (2013) 15 (2000) 1260 43 61 91 113 255 760 1000 2380 6500
2026-05-04 04:00 6.75 365 25700 (2013) 15 (2000) 1260 43 61 91 113 255 760 1000 2380 6500
2026-05-04 03:30 6.75 365 25700 (2013) 15 (2000) 1260 43 61 91 113 255 760 1000 2380 6500
2026-05-04 03:00 6.75 365 25700 (2013) 15 (2000) 1260 43 61 91 113 255 760 1000 2380 6500
2026-05-04 02:30 6.76 369 25700 (2013) 15 (2000) 1260 43 61 91 113 255 760 1000 2380 6500
2026-05-04 02:00 6.76 369 25700 (2013) 15 (2000) 1260 43 61 91 113 255 760 1000 2380 6500
2026-05-04 01:30 6.76 369 25700 (2013) 15 (2000) 1260 43 61 91 113 255 760 1000 2380 6500
2026-05-04 01:00 6.77 372 25700 (2013) 15 (2000) 1260 43 61 91 113 255 760 1000 2380 6500
2026-05-04 00:30 6.77 372 25700 (2013) 15 (2000) 1260 43 61 91 113 255 760 1000 2380 6500
2026-05-04 00:00 6.77 372 25700 (2013) 15 (2000) 1260 43 61 91 113 255 760 1000 2380 6500
2026-05-03 23:30 6.78 376 25700 (2013) 15 (2000) 1260 43 61 91 113 255 760 1000 2380 6500
2026-05-03 23:00 6.78 376 25700 (2013) 15 (2000) 1260 43 61 91 113 255 760 1000 2380 6500
2026-05-03 22:30 6.78 376 13000 (1935) 15 (2000) 1170 41 63 102 121 291 775 1120 3020 7340
2026-05-03 22:00 6.78 376 13000 (1935) 15 (2000) 1170 41 63 102 121 291 775 1120 3020 7340
2026-05-03 21:30 6.79 380 13000 (1935) 15 (2000) 1170 41 63 102 121 291 775 1120 3020 7340
2026-05-03 21:00 6.79 380 13000 (1935) 15 (2000) 1170 41 63 102 121 291 775 1120 3020 7340
2026-05-03 20:30 6.80 384 13000 (1935) 15 (2000) 1170 41 63 102 121 291 775 1120 3020 7340
2026-05-03 20:00 6.79 380 13000 (1935) 15 (2000) 1170 41 63 102 121 291 775 1120 3020 7340
2026-05-03 19:30 6.80 384 13000 (1935) 15 (2000) 1170 41 63 102 121 291 775 1120 3020 7340
2026-05-03 19:00 6.80 384 13000 (1935) 15 (2000) 1170 41 63 102 121 291 775 1120 3020 7340
2026-05-03 18:30 6.81 387 13000 (1935) 15 (2000) 1170 41 63 102 121 291 775 1120 3020 7340
2026-05-03 18:00 6.81 387 13000 (1935) 15 (2000) 1170 41 63 102 121 291 775 1120 3020 7340
2026-05-03 17:30 6.81 387 13000 (1935) 15 (2000) 1170 41 63 102 121 291 775 1120 3020 7340
2026-05-03 17:00 6.76 369 13000 (1935) 15 (2000) 1170 41 63 102 121 291 775 1120 3020 7340
2026-05-03 16:30 6.78 376 13000 (1935) 15 (2000) 1170 41 63 102 121 291 775 1120 3020 7340
2026-05-03 16:00 6.83 395 13000 (1935) 15 (2000) 1170 41 63 102 121 291 775 1120 3020 7340
2026-05-03 15:30 6.81 387 13000 (1935) 15 (2000) 1170 41 63 102 121 291 775 1120 3020 7340
2026-05-03 15:00 6.81 387 13000 (1935) 15 (2000) 1170 41 63 102 121 291 775 1120 3020 7340
2026-05-03 14:30 6.83 395 13000 (1935) 15 (2000) 1170 41 63 102 121 291 775 1120 3020 7340
2026-05-03 14:00 6.83 395 13000 (1935) 15 (2000) 1170 41 63 102 121 291 775 1120 3020 7340
2026-05-03 13:30 6.85 403 13000 (1935) 15 (2000) 1170 41 63 102 121 291 775 1120 3020 7340
2026-05-03 13:00 6.82 391 13000 (1935) 15 (2000) 1170 41 63 102 121 291 775 1120 3020 7340
2026-05-03 12:30 6.86 407 13000 (1935) 15 (2000) 1170 41 63 102 121 291 775 1120 3020 7340
2026-05-03 12:00 6.86 407 13000 (1935) 15 (2000) 1170 41 63 102 121 291 775 1120 3020 7340
2026-05-03 11:30 6.87 411 13000 (1935) 15 (2000) 1170 41 63 102 121 291 775 1120 3020 7340
2026-05-03 11:00 6.87 411 13000 (1935) 15 (2000) 1170 41 63 102 121 291 775 1120 3020 7340
2026-05-03 10:30 6.86 407 13000 (1935) 15 (2000) 1170 41 63 102 121 291 775 1120 3020 7340
2026-05-03 10:00 6.88 415 13000 (1935) 15 (2000) 1170 41 63 102 121 291 775 1120 3020 7340
2026-05-03 09:30 6.89 419 13000 (1935) 15 (2000) 1170 41 63 102 121 291 775 1120 3020 7340
2026-05-03 09:00 6.89 419 13000 (1935) 15 (2000) 1170 41 63 102 121 291 775 1120 3020 7340
2026-05-03 08:30 6.90 423 13000 (1935) 15 (2000) 1170 41 63 102 121 291 775 1120 3020 7340
2026-05-03 08:00 6.90 423 13000 (1935) 15 (2000) 1170 41 63 102 121 291 775 1120 3020 7340
2026-05-03 07:30 6.91 427 13000 (1935) 15 (2000) 1170 41 63 102 121 291 775 1120 3020 7340
2026-05-03 07:00 6.92 431 13000 (1935) 15 (2000) 1170 41 63 102 121 291 775 1120 3020 7340
2026-05-03 06:30 6.92 431 13000 (1935) 15 (2000) 1170 41 63 102 121 291 775 1120 3020 7340
2026-05-03 06:00 6.93 435 13000 (1935) 15 (2000) 1170 41 63 102 121 291 775 1120 3020 7340
2026-05-03 05:30 6.94 439 13000 (1935) 15 (2000) 1170 41 63 102 121 291 775 1120 3020 7340
2026-05-03 05:00 6.94 439 13000 (1935) 15 (2000) 1170 41 63 102 121 291 775 1120 3020 7340
2026-05-03 04:30 6.95 443 13000 (1935) 15 (2000) 1170 41 63 102 121 291 775 1120 3020 7340
2026-05-03 04:00 6.95 443 13000 (1935) 15 (2000) 1170 41 63 102 121 291 775 1120 3020 7340
2026-05-03 03:30 6.95 443 13000 (1935) 15 (2000) 1170 41 63 102 121 291 775 1120 3020 7340
2026-05-03 03:00 6.96 447 13000 (1935) 15 (2000) 1170 41 63 102 121 291 775 1120 3020 7340
2026-05-03 02:30 6.96 447 13000 (1935) 15 (2000) 1170 41 63 102 121 291 775 1120 3020 7340
2026-05-03 02:00 6.97 451 13000 (1935) 15 (2000) 1170 41 63 102 121 291 775 1120 3020 7340
2026-05-03 01:30 6.97 451 13000 (1935) 15 (2000) 1170 41 63 102 121 291 775 1120 3020 7340
2026-05-03 01:00 6.97 451 13000 (1935) 15 (2000) 1170 41 63 102 121 291 775 1120 3020 7340
2026-05-03 00:30 6.98 456 13000 (1935) 15 (2000) 1170 41 63 102 121 291 775 1120 3020 7340
2026-05-03 00:00 6.98 456 13000 (1935) 15 (2000) 1170 41 63 102 121 291 775 1120 3020 7340
2026-05-02 23:30 6.99 460 13000 (1935) 15 (2000) 1170 41 63 102 121 291 775 1120 3020 7340
2026-05-02 23:00 6.99 460 13000 (1935) 15 (2000) 1170 41 63 102 121 291 775 1120 3020 7340
2026-05-02 22:30 7.00 464 41300 (1983) 17 (2000) 1660 44 66 112 125 290 905 1130 4380 10100
2026-05-02 22:00 7.00 464 41300 (1983) 17 (2000) 1660 44 66 112 125 290 905 1130 4380 10100
2026-05-02 21:30 7.00 464 41300 (1983) 17 (2000) 1660 44 66 112 125 290 905 1130 4380 10100
2026-05-02 21:00 7.00 464 41300 (1983) 17 (2000) 1660 44 66 112 125 290 905 1130 4380 10100
2026-05-02 20:30 7.01 468 41300 (1983) 17 (2000) 1660 44 66 112 125 290 905 1130 4380 10100
2026-05-02 20:00 7.02 473 41300 (1983) 17 (2000) 1660 44 66 112 125 290 905 1130 4380 10100
2026-05-02 19:30 7.02 473 41300 (1983) 17 (2000) 1660 44 66 112 125 290 905 1130 4380 10100
2026-05-02 19:00 7.03 477 41300 (1983) 17 (2000) 1660 44 66 112 125 290 905 1130 4380 10100
2026-05-02 18:30 7.04 481 41300 (1983) 17 (2000) 1660 44 66 112 125 290 905 1130 4380 10100
2026-05-02 18:00 7.04 481 41300 (1983) 17 (2000) 1660 44 66 112 125 290 905 1130 4380 10100
2026-05-02 17:30 7.05 486 41300 (1983) 17 (2000) 1660 44 66 112 125 290 905 1130 4380 10100
2026-05-02 17:00 7.05 486 41300 (1983) 17 (2000) 1660 44 66 112 125 290 905 1130 4380 10100
2026-05-02 16:30 7.06 490 41300 (1983) 17 (2000) 1660 44 66 112 125 290 905 1130 4380 10100
2026-05-02 16:00 7.07 494 41300 (1983) 17 (2000) 1660 44 66 112 125 290 905 1130 4380 10100
2026-05-02 15:30 7.07 494 41300 (1983) 17 (2000) 1660 44 66 112 125 290 905 1130 4380 10100
2026-05-02 15:00 7.07 494 41300 (1983) 17 (2000) 1660 44 66 112 125 290 905 1130 4380 10100
2026-05-02 14:30 7.08 499 41300 (1983) 17 (2000) 1660 44 66 112 125 290 905 1130 4380 10100
2026-05-02 14:00 7.09 503 41300 (1983) 17 (2000) 1660 44 66 112 125 290 905 1130 4380 10100
2026-05-02 13:30 7.10 508 41300 (1983) 17 (2000) 1660 44 66 112 125 290 905 1130 4380 10100
2026-05-02 13:00 7.11 512 41300 (1983) 17 (2000) 1660 44 66 112 125 290 905 1130 4380 10100
2026-05-02 12:30 7.11 512 41300 (1983) 17 (2000) 1660 44 66 112 125 290 905 1130 4380 10100
2026-05-02 12:00 7.12 517 41300 (1983) 17 (2000) 1660 44 66 112 125 290 905 1130 4380 10100
2026-05-02 11:30 7.12 517 41300 (1983) 17 (2000) 1660 44 66 112 125 290 905 1130 4380 10100
2026-05-02 11:00 7.13 521 41300 (1983) 17 (2000) 1660 44 66 112 125 290 905 1130 4380 10100
2026-05-02 10:30 7.13 521 41300 (1983) 17 (2000) 1660 44 66 112 125 290 905 1130 4380 10100
2026-05-02 10:00 7.14 526 41300 (1983) 17 (2000) 1660 44 66 112 125 290 905 1130 4380 10100
2026-05-02 09:30 7.14 526 41300 (1983) 17 (2000) 1660 44 66 112 125 290 905 1130 4380 10100
2026-05-02 09:00 7.15 531 41300 (1983) 17 (2000) 1660 44 66 112 125 290 905 1130 4380 10100
2026-05-02 08:30 7.16 535 41300 (1983) 17 (2000) 1660 44 66 112 125 290 905 1130 4380 10100
2026-05-02 08:00 7.17 540 41300 (1983) 17 (2000) 1660 44 66 112 125 290 905 1130 4380 10100
2026-05-02 07:30 7.17 540 41300 (1983) 17 (2000) 1660 44 66 112 125 290 905 1130 4380 10100
2026-05-02 07:00 7.18 544 41300 (1983) 17 (2000) 1660 44 66 112 125 290 905 1130 4380 10100
2026-05-02 06:30 7.19 549 41300 (1983) 17 (2000) 1660 44 66 112 125 290 905 1130 4380 10100
2026-05-02 06:00 7.20 554 41300 (1983) 17 (2000) 1660 44 66 112 125 290 905 1130 4380 10100
2026-05-02 05:30 7.20 554 41300 (1983) 17 (2000) 1660 44 66 112 125 290 905 1130 4380 10100
2026-05-02 05:00 7.21 559 41300 (1983) 17 (2000) 1660 44 66 112 125 290 905 1130 4380 10100
2026-05-02 04:30 7.22 563 41300 (1983) 17 (2000) 1660 44 66 112 125 290 905 1130 4380 10100
2026-05-02 04:00 7.23 568 41300 (1983) 17 (2000) 1660 44 66 112 125 290 905 1130 4380 10100
2026-05-02 03:30 7.23 568 41300 (1983) 17 (2000) 1660 44 66 112 125 290 905 1130 4380 10100
2026-05-02 03:00 7.24 573 41300 (1983) 17 (2000) 1660 44 66 112 125 290 905 1130 4380 10100
2026-05-02 02:30 7.24 573 41300 (1983) 17 (2000) 1660 44 66 112 125 290 905 1130 4380 10100
2026-05-02 02:00 7.25 578 41300 (1983) 17 (2000) 1660 44 66 112 125 290 905 1130 4380 10100
2026-05-02 01:30 7.26 583 41300 (1983) 17 (2000) 1660 44 66 112 125 290 905 1130 4380 10100
2026-05-02 01:00 7.27 588 41300 (1983) 17 (2000) 1660 44 66 112 125 290 905 1130 4380 10100
2026-05-02 00:30 7.28 592 41300 (1983) 17 (2000) 1660 44 66 112 125 290 905 1130 4380 10100
2026-05-02 00:00 7.28 592 41300 (1983) 17 (2000) 1660 44 66 112 125 290 905 1130 4380 10100
2026-05-01 23:30 7.29 597 41300 (1983) 17 (2000) 1660 44 66 112 125 290 905 1130 4380 10100
2026-05-01 23:00 7.30 602 41300 (1983) 17 (2000) 1660 44 66 112 125 290 905 1130 4380 10100
2026-05-01 22:30 7.30 602 30300 (2019) 19 (2000) 1800 49 64 113 129 265 1060 1650 2660 9740
2026-05-01 22:00 7.31 607 30300 (2019) 19 (2000) 1800 49 64 113 129 265 1060 1650 2660 9740
2026-05-01 21:30 7.32 612 30300 (2019) 19 (2000) 1800 49 64 113 129 265 1060 1650 2660 9740
2026-05-01 21:00 7.33 617 30300 (2019) 19 (2000) 1800 49 64 113 129 265 1060 1650 2660 9740
2026-05-01 20:30 7.33 617 30300 (2019) 19 (2000) 1800 49 64 113 129 265 1060 1650 2660 9740
2026-05-01 20:00 7.34 622 30300 (2019) 19 (2000) 1800 49 64 113 129 265 1060 1650 2660 9740
2026-05-01 19:30 7.35 627 30300 (2019) 19 (2000) 1800 49 64 113 129 265 1060 1650 2660 9740
2026-05-01 19:00 7.36 633 30300 (2019) 19 (2000) 1800 49 64 113 129 265 1060 1650 2660 9740
2026-05-01 18:30 7.36 633 30300 (2019) 19 (2000) 1800 49 64 113 129 265 1060 1650 2660 9740
2026-05-01 18:00 7.38 643 30300 (2019) 19 (2000) 1800 49 64 113 129 265 1060 1650 2660 9740
2026-05-01 17:30 7.39 648 30300 (2019) 19 (2000) 1800 49 64 113 129 265 1060 1650 2660 9740
2026-05-01 17:00 7.39 648 30300 (2019) 19 (2000) 1800 49 64 113 129 265 1060 1650 2660 9740
2026-05-01 16:30 7.39 648 30300 (2019) 19 (2000) 1800 49 64 113 129 265 1060 1650 2660 9740
2026-05-01 16:00 7.41 658 30300 (2019) 19 (2000) 1800 49 64 113 129 265 1060 1650 2660 9740
2026-05-01 15:30 7.42 664 30300 (2019) 19 (2000) 1800 49 64 113 129 265 1060 1650 2660 9740
2026-05-01 15:00 7.44 674 30300 (2019) 19 (2000) 1800 49 64 113 129 265 1060 1650 2660 9740
2026-05-01 14:30 7.41 658 30300 (2019) 19 (2000) 1800 49 64 113 129 265 1060 1650 2660 9740
2026-05-01 14:00 7.45 680 30300 (2019) 19 (2000) 1800 49 64 113 129 265 1060 1650 2660 9740
2026-05-01 13:30 7.47 690 30300 (2019) 19 (2000) 1800 49 64 113 129 265 1060 1650 2660 9740
2026-05-01 13:00 7.47 690 30300 (2019) 19 (2000) 1800 49 64 113 129 265 1060 1650 2660 9740
2026-05-01 12:30 7.48 696 30300 (2019) 19 (2000) 1800 49 64 113 129 265 1060 1650 2660 9740
2026-05-01 12:00 7.50 706 30300 (2019) 19 (2000) 1800 49 64 113 129 265 1060 1650 2660 9740
2026-05-01 11:30 7.50 706 30300 (2019) 19 (2000) 1800 49 64 113 129 265 1060 1650 2660 9740
2026-05-01 11:00 7.52 717 30300 (2019) 19 (2000) 1800 49 64 113 129 265 1060 1650 2660 9740
2026-05-01 10:30 7.52 717 30300 (2019) 19 (2000) 1800 49 64 113 129 265 1060 1650 2660 9740
2026-05-01 10:00 7.54 729 30300 (2019) 19 (2000) 1800 49 64 113 129 265 1060 1650 2660 9740
2026-05-01 09:30 7.54 729 30300 (2019) 19 (2000) 1800 49 64 113 129 265 1060 1650 2660 9740
2026-05-01 09:00 7.56 740 30300 (2019) 19 (2000) 1800 49 64 113 129 265 1060 1650 2660 9740
2026-05-01 08:30 7.57 745 30300 (2019) 19 (2000) 1800 49 64 113 129 265 1060 1650 2660 9740
2026-05-01 08:00 7.58 751 30300 (2019) 19 (2000) 1800 49 64 113 129 265 1060 1650 2660 9740
2026-05-01 07:30 7.59 757 30300 (2019) 19 (2000) 1800 49 64 113 129 265 1060 1650 2660 9740
2026-05-01 07:00 7.60 762 30300 (2019) 19 (2000) 1800 49 64 113 129 265 1060 1650 2660 9740
2026-05-01 06:30 7.62 774 30300 (2019) 19 (2000) 1800 49 64 113 129 265 1060 1650 2660 9740
2026-05-01 06:00 7.63 780 30300 (2019) 19 (2000) 1800 49 64 113 129 265 1060 1650 2660 9740
2026-05-01 05:30 7.64 785 30300 (2019) 19 (2000) 1800 49 64 113 129 265 1060 1650 2660 9740
2026-05-01 05:00 7.65 791 30300 (2019) 19 (2000) 1800 49 64 113 129 265 1060 1650 2660 9740
2026-05-01 04:30 7.66 797 30300 (2019) 19 (2000) 1800 49 64 113 129 265 1060 1650 2660 9740
2026-05-01 04:00 7.68 809 30300 (2019) 19 (2000) 1800 49 64 113 129 265 1060 1650 2660 9740
2026-05-01 03:30 7.69 815 30300 (2019) 19 (2000) 1800 49 64 113 129 265 1060 1650 2660 9740
2026-05-01 03:00 7.70 821 30300 (2019) 19 (2000) 1800 49 64 113 129 265 1060 1650 2660 9740
2026-05-01 02:30 7.71 827 30300 (2019) 19 (2000) 1800 49 64 113 129 265 1060 1650 2660 9740
2026-05-01 02:00 7.72 833 30300 (2019) 19 (2000) 1800 49 64 113 129 265 1060 1650 2660 9740
2026-05-01 01:30 7.74 845 30300 (2019) 19 (2000) 1800 49 64 113 129 265 1060 1650 2660 9740
2026-05-01 01:00 7.74 845 30300 (2019) 19 (2000) 1800 49 64 113 129 265 1060 1650 2660 9740
2026-05-01 00:30 7.76 857 30300 (2019) 19 (2000) 1800 49 64 113 129 265 1060 1650 2660 9740
2026-05-01 00:00 7.77 863 30300 (2019) 19 (2000) 1800 49 64 113 129 265 1060 1650 2660 9740
2026-04-30 23:30 7.78 869 30300 (2019) 19 (2000) 1800 49 64 113 129 265 1060 1650 2660 9740
2026-04-30 23:00 7.80 882 30300 (2019) 19 (2000) 1800 49 64 113 129 265 1060 1650 2660 9740
2026-04-30 22:30 7.82 894 48200 (2017) 20 (2000) 1550 50 61 106 126 267 1000 1560 4360 5920
2026-04-30 22:00 7.83 900 48200 (2017) 20 (2000) 1550 50 61 106 126 267 1000 1560 4360 5920
2026-04-30 21:30 7.85 913 48200 (2017) 20 (2000) 1550 50 61 106 126 267 1000 1560 4360 5920
2026-04-30 21:00 7.86 919 48200 (2017) 20 (2000) 1550 50 61 106 126 267 1000 1560 4360 5920
2026-04-30 20:30 7.88 932 48200 (2017) 20 (2000) 1550 50 61 106 126 267 1000 1560 4360 5920
2026-04-30 20:00 7.89 939 48200 (2017) 20 (2000) 1550 50 61 106 126 267 1000 1560 4360 5920
2026-04-30 19:30 7.91 952 48200 (2017) 20 (2000) 1550 50 61 106 126 267 1000 1560 4360 5920
2026-04-30 19:00 7.93 965 48200 (2017) 20 (2000) 1550 50 61 106 126 267 1000 1560 4360 5920
2026-04-30 18:30 7.95 978 48200 (2017) 20 (2000) 1550 50 61 106 126 267 1000 1560 4360 5920
2026-04-30 18:00 7.97 991 48200 (2017) 20 (2000) 1550 50 61 106 126 267 1000 1560 4360 5920
2026-04-30 17:30 7.98 998 48200 (2017) 20 (2000) 1550 50 61 106 126 267 1000 1560 4360 5920
2026-04-30 17:00 8.01 1020 48200 (2017) 20 (2000) 1550 50 61 106 126 267 1000 1560 4360 5920
2026-04-30 16:30 8.03 1030 48200 (2017) 20 (2000) 1550 50 61 106 126 267 1000 1560 4360 5920
2026-04-30 16:00 8.06 1050 48200 (2017) 20 (2000) 1550 50 61 106 126 267 1000 1560 4360 5920
2026-04-30 15:30 8.07 1060 48200 (2017) 20 (2000) 1550 50 61 106 126 267 1000 1560 4360 5920
2026-04-30 15:00 8.09 1070 48200 (2017) 20 (2000) 1550 50 61 106 126 267 1000 1560 4360 5920
2026-04-30 14:30 8.11 1090 48200 (2017) 20 (2000) 1550 50 61 106 126 267 1000 1560 4360 5920
2026-04-30 14:00 8.14 1110 48200 (2017) 20 (2000) 1550 50 61 106 126 267 1000 1560 4360 5920
2026-04-30 13:30 8.16 1120 48200 (2017) 20 (2000) 1550 50 61 106 126 267 1000 1560 4360 5920
2026-04-30 13:00 8.19 1140 48200 (2017) 20 (2000) 1550 50 61 106 126 267 1000 1560 4360 5920
2026-04-30 12:30 8.21 1160 48200 (2017) 20 (2000) 1550 50 61 106 126 267 1000 1560 4360 5920
2026-04-30 12:00 8.24 1180 48200 (2017) 20 (2000) 1550 50 61 106 126 267 1000 1560 4360 5920
2026-04-30 11:30 8.25 1190 48200 (2017) 20 (2000) 1550 50 61 106 126 267 1000 1560 4360 5920
2026-04-30 11:00 8.29 1220 48200 (2017) 20 (2000) 1550 50 61 106 126 267 1000 1560 4360 5920
2026-04-30 10:30 8.31 1230 48200 (2017) 20 (2000) 1550 50 61 106 126 267 1000 1560 4360 5920
2026-04-30 10:00 8.35 1260 48200 (2017) 20 (2000) 1550 50 61 106 126 267 1000 1560 4360 5920
2026-04-30 09:30 8.37 1280 48200 (2017) 20 (2000) 1550 50 61 106 126 267 1000 1560 4360 5920
2026-04-30 09:00 8.41 1310 48200 (2017) 20 (2000) 1550 50 61 106 126 267 1000 1560 4360 5920
2026-04-30 08:30 8.45 1340 48200 (2017) 20 (2000) 1550 50 61 106 126 267 1000 1560 4360 5920
2026-04-30 08:00 8.49 1370 48200 (2017) 20 (2000) 1550 50 61 106 126 267 1000 1560 4360 5920
2026-04-30 07:30 8.51 1390 48200 (2017) 20 (2000) 1550 50 61 106 126 267 1000 1560 4360 5920
2026-04-30 07:00 8.55 1420 48200 (2017) 20 (2000) 1550 50 61 106 126 267 1000 1560 4360 5920
2026-04-30 06:30 8.59 1460 48200 (2017) 20 (2000) 1550 50 61 106 126 267 1000 1560 4360 5920
2026-04-30 06:00 8.62 1480 48200 (2017) 20 (2000) 1550 50 61 106 126 267 1000 1560 4360 5920
2026-04-30 05:30 8.67 1530 48200 (2017) 20 (2000) 1550 50 61 106 126 267 1000 1560 4360 5920
2026-04-30 05:00 8.71 1560 48200 (2017) 20 (2000) 1550 50 61 106 126 267 1000 1560 4360 5920
2026-04-30 04:30 8.76 1600 48200 (2017) 20 (2000) 1550 50 61 106 126 267 1000 1560 4360 5920
2026-04-30 04:00 8.81 1650 48200 (2017) 20 (2000) 1550 50 61 106 126 267 1000 1560 4360 5920
2026-04-30 03:30 8.84 1680 48200 (2017) 20 (2000) 1550 50 61 106 126 267 1000 1560 4360 5920
2026-04-30 03:00 8.91 1740 48200 (2017) 20 (2000) 1550 50 61 106 126 267 1000 1560 4360 5920
2026-04-30 02:30 8.94 1770 48200 (2017) 20 (2000) 1550 50 61 106 126 267 1000 1560 4360 5920
2026-04-30 02:00 9.00 1820 48200 (2017) 20 (2000) 1550 50 61 106 126 267 1000 1560 4360 5920
2026-04-30 01:30 9.06 1880 48200 (2017) 20 (2000) 1550 50 61 106 126 267 1000 1560 4360 5920
2026-04-30 01:00 9.11 1930 48200 (2017) 20 (2000) 1550 50 61 106 126 267 1000 1560 4360 5920
2026-04-30 00:30 9.17 1990 48200 (2017) 20 (2000) 1550 50 61 106 126 267 1000 1560 4360 5920
2026-04-30 00:00 9.23 2050 48200 (2017) 20 (2000) 1550 50 61 106 126 267 1000 1560 4360 5920
2026-04-29 23:30 9.30 2100 48200 (2017) 20 (2000) 1550 50 61 106 126 267 1000 1560 4360 5920
2026-04-29 23:00 9.35 2130 48200 (2017) 20 (2000) 1550 50 61 106 126 267 1000 1560 4360 5920
2026-04-29 22:30 9.43 2180 21300 (1996) 23 (2000) 1270 52 60 109 138 287 820 1340 4320 6320
2026-04-29 22:00 9.50 2220 21300 (1996) 23 (2000) 1270 52 60 109 138 287 820 1340 4320 6320
2026-04-29 21:30 9.56 2260 21300 (1996) 23 (2000) 1270 52 60 109 138 287 820 1340 4320 6320
2026-04-29 21:00 9.65 2310 21300 (1996) 23 (2000) 1270 52 60 109 138 287 820 1340 4320 6320
2026-04-29 20:30 9.72 2360 21300 (1996) 23 (2000) 1270 52 60 109 138 287 820 1340 4320 6320
2026-04-29 20:00 9.79 2400 21300 (1996) 23 (2000) 1270 52 60 109 138 287 820 1340 4320 6320
2026-04-29 19:30 9.88 2460 21300 (1996) 23 (2000) 1270 52 60 109 138 287 820 1340 4320 6320
2026-04-29 19:00 9.94 2500 21300 (1996) 23 (2000) 1270 52 60 109 138 287 820 1340 4320 6320
2026-04-29 18:30 10.02 2550 21300 (1996) 23 (2000) 1270 52 60 109 138 287 820 1340 4320 6320
2026-04-29 18:00 10.08 2590 21300 (1996) 23 (2000) 1270 52 60 109 138 287 820 1340 4320 6320
2026-04-29 17:30 10.15 2640 21300 (1996) 23 (2000) 1270 52 60 109 138 287 820 1340 4320 6320
2026-04-29 17:00 10.21 2680 21300 (1996) 23 (2000) 1270 52 60 109 138 287 820 1340 4320 6320
2026-04-29 16:30 10.28 2730 21300 (1996) 23 (2000) 1270 52 60 109 138 287 820 1340 4320 6320
2026-04-29 16:00 10.35 2770 21300 (1996) 23 (2000) 1270 52 60 109 138 287 820 1340 4320 6320
2026-04-29 15:30 10.40 2810 21300 (1996) 23 (2000) 1270 52 60 109 138 287 820 1340 4320 6320
2026-04-29 15:00 10.45 2840 21300 (1996) 23 (2000) 1270 52 60 109 138 287 820 1340 4320 6320
2026-04-29 14:30 10.50 2870 21300 (1996) 23 (2000) 1270 52 60 109 138 287 820 1340 4320 6320
2026-04-29 14:00 10.56 2910 21300 (1996) 23 (2000) 1270 52 60 109 138 287 820 1340 4320 6320
2026-04-29 13:30 10.59 2930 21300 (1996) 23 (2000) 1270 52 60 109 138 287 820 1340 4320 6320
2026-04-29 13:00 10.63 2960 21300 (1996) 23 (2000) 1270 52 60 109 138 287 820 1340 4320 6320
2026-04-29 12:30 10.67 2990 21300 (1996) 23 (2000) 1270 52 60 109 138 287 820 1340 4320 6320
2026-04-29 12:00 10.71 3020 21300 (1996) 23 (2000) 1270 52 60 109 138 287 820 1340 4320 6320
2026-04-29 11:30 10.74 3040 21300 (1996) 23 (2000) 1270 52 60 109 138 287 820 1340 4320 6320
2026-04-29 11:00 10.78 3070 21300 (1996) 23 (2000) 1270 52 60 109 138 287 820 1340 4320 6320
2026-04-29 10:30 10.80 3080 21300 (1996) 23 (2000) 1270 52 60 109 138 287 820 1340 4320 6320
2026-04-29 10:00 10.85 3110 21300 (1996) 23 (2000) 1270 52 60 109 138 287 820 1340 4320 6320
2026-04-29 09:30 10.88 3130 21300 (1996) 23 (2000) 1270 52 60 109 138 287 820 1340 4320 6320
2026-04-29 09:00 10.92 3160 21300 (1996) 23 (2000) 1270 52 60 109 138 287 820 1340 4320 6320
2026-04-29 08:30 10.96 3190 21300 (1996) 23 (2000) 1270 52 60 109 138 287 820 1340 4320 6320
2026-04-29 08:00 11.01 3230 21300 (1996) 23 (2000) 1270 52 60 109 138 287 820 1340 4320 6320
2026-04-29 07:30 11.05 3250 21300 (1996) 23 (2000) 1270 52 60 109 138 287 820 1340 4320 6320
2026-04-29 07:00 11.11 3300 21300 (1996) 23 (2000) 1270 52 60 109 138 287 820 1340 4320 6320
2026-04-29 06:30 11.14 3320 21300 (1996) 23 (2000) 1270 52 60 109 138 287 820 1340 4320 6320
2026-04-29 06:00 11.18 3350 21300 (1996) 23 (2000) 1270 52 60 109 138 287 820 1340 4320 6320
2026-04-29 05:30 11.22 3370 21300 (1996) 23 (2000) 1270 52 60 109 138 287 820 1340 4320 6320
2026-04-29 05:00 11.29 3430 21300 (1996) 23 (2000) 1270 52 60 109 138 287 820 1340 4320 6320
2026-04-29 04:30 11.34 3460 21300 (1996) 23 (2000) 1270 52 60 109 138 287 820 1340 4320 6320
2026-04-29 04:00 11.40 3500 21300 (1996) 23 (2000) 1270 52 60 109 138 287 820 1340 4320 6320
2026-04-29 03:30 11.46 3550 21300 (1996) 23 (2000) 1270 52 60 109 138 287 820 1340 4320 6320
2026-04-29 03:00 11.54 3610 21300 (1996) 23 (2000) 1270 52 60 109 138 287 820 1340 4320 6320
2026-04-29 02:30 11.62 3660 21300 (1996) 23 (2000) 1270 52 60 109 138 287 820 1340 4320 6320
2026-04-29 02:00 11.72 3740 21300 (1996) 23 (2000) 1270 52 60 109 138 287 820 1340 4320 6320
2026-04-29 01:30 11.82 3810 21300 (1996) 23 (2000) 1270 52 60 109 138 287 820 1340 4320 6320
2026-04-29 01:00 11.94 3900 21300 (1996) 23 (2000) 1270 52 60 109 138 287 820 1340 4320 6320
2026-04-29 00:30 12.06 3990 21300 (1996) 23 (2000) 1270 52 60 109 138 287 820 1340 4320 6320
2026-04-29 00:00 12.20 4100 21300 (1996) 23 (2000) 1270 52 60 109 138 287 820 1340 4320 6320
2026-04-28 23:30 12.35 4210 21300 (1996) 23 (2000) 1270 52 60 109 138 287 820 1340 4320 6320
2026-04-28 23:00 12.55 4370 21300 (1996) 23 (2000) 1270 52 60 109 138 287 820 1340 4320 6320
2026-04-28 22:30 12.76 4530 16600 (2002) 24 (1963) 911 46 66 94 128 250 564 748 1630 6620
2026-04-28 22:00 12.99 4710 16600 (2002) 24 (1963) 911 46 66 94 128 250 564 748 1630 6620
2026-04-28 21:30 13.27 4930 16600 (2002) 24 (1963) 911 46 66 94 128 250 564 748 1630 6620
2026-04-28 21:00 13.56 5170 16600 (2002) 24 (1963) 911 46 66 94 128 250 564 748 1630 6620
2026-04-28 20:30 13.91 5460 16600 (2002) 24 (1963) 911 46 66 94 128 250 564 748 1630 6620
2026-04-28 20:00 14.29 5780 16600 (2002) 24 (1963) 911 46 66 94 128 250 564 748 1630 6620
2026-04-28 19:30 14.72 6140 16600 (2002) 24 (1963) 911 46 66 94 128 250 564 748 1630 6620
2026-04-28 19:00 15.19 6550 16600 (2002) 24 (1963) 911 46 66 94 128 250 564 748 1630 6620
2026-04-28 18:30 15.69 7000 16600 (2002) 24 (1963) 911 46 66 94 128 250 564 748 1630 6620
2026-04-28 18:00 16.22 7480 16600 (2002) 24 (1963) 911 46 66 94 128 250 564 748 1630 6620
2026-04-28 17:30 16.75 7970 16600 (2002) 24 (1963) 911 46 66 94 128 250 564 748 1630 6620
2026-04-28 17:00 17.30 8490 16600 (2002) 24 (1963) 911 46 66 94 128 250 564 748 1630 6620
2026-04-28 16:30 17.88 9050 16600 (2002) 24 (1963) 911 46 66 94 128 250 564 748 1630 6620
2026-04-28 16:00 18.43 9590 16600 (2002) 24 (1963) 911 46 66 94 128 250 564 748 1630 6620
2026-04-28 15:30 18.99 10200 16600 (2002) 24 (1963) 911 46 66 94 128 250 564 748 1630 6620
2026-04-28 15:00 19.52 10800 16600 (2002) 24 (1963) 911 46 66 94 128 250 564 748 1630 6620
2026-04-28 14:30 20.01 11600 16600 (2002) 24 (1963) 911 46 66 94 128 250 564 748 1630 6620
2026-04-28 14:00 20.45 12300 16600 (2002) 24 (1963) 911 46 66 94 128 250 564 748 1630 6620
2026-04-28 13:30 20.86 12900 16600 (2002) 24 (1963) 911 46 66 94 128 250 564 748 1630 6620
2026-04-28 13:00 21.23 13500 16600 (2002) 24 (1963) 911 46 66 94 128 250 564 748 1630 6620
2026-04-28 12:30 21.53 14000 16600 (2002) 24 (1963) 911 46 66 94 128 250 564 748 1630 6620
2026-04-28 12:00 21.79 14600 16600 (2002) 24 (1963) 911 46 66 94 128 250 564 748 1630 6620
2026-04-28 11:30 22.00 15200 16600 (2002) 24 (1963) 911 46 66 94 128 250 564 748 1630 6620
2026-04-28 11:00 22.16 15700 16600 (2002) 24 (1963) 911 46 66 94 128 250 564 748 1630 6620
2026-04-28 10:30 22.28 16100 16600 (2002) 24 (1963) 911 46 66 94 128 250 564 748 1630 6620
2026-04-28 10:00 22.40 16500 16600 (2002) 24 (1963) 911 46 66 94 128 250 564 748 1630 6620
2026-04-28 09:30 22.48 16800 16600 (2002) 24 (1963) 911 46 66 94 128 250 564 748 1630 6620
2026-04-28 09:00 22.57 17100 16600 (2002) 24 (1963) 911 46 66 94 128 250 564 748 1630 6620
2026-04-28 08:30 22.63 17400 16600 (2002) 24 (1963) 911 46 66 94 128 250 564 748 1630 6620
2026-04-28 08:00 22.66 17500 16600 (2002) 24 (1963) 911 46 66 94 128 250 564 748 1630 6620
2026-04-28 07:30 22.68 17500 16600 (2002) 24 (1963) 911 46 66 94 128 250 564 748 1630 6620
2026-04-28 07:00 22.69 17600 16600 (2002) 24 (1963) 911 46 66 94 128 250 564 748 1630 6620
2026-04-28 06:30 22.69 17600 16600 (2002) 24 (1963) 911 46 66 94 128 250 564 748 1630 6620
2026-04-28 06:00 22.66 17500 16600 (2002) 24 (1963) 911 46 66 94 128 250 564 748 1630 6620
2026-04-28 05:30 22.65 17400 16600 (2002) 24 (1963) 911 46 66 94 128 250 564 748 1630 6620
2026-04-28 05:00 22.61 17300 16600 (2002) 24 (1963) 911 46 66 94 128 250 564 748 1630 6620
2026-04-28 04:30 22.56 17100 16600 (2002) 24 (1963) 911 46 66 94 128 250 564 748 1630 6620
2026-04-28 04:00 22.51 16900 16600 (2002) 24 (1963) 911 46 66 94 128 250 564 748 1630 6620
2026-04-28 03:30 22.43 16600 16600 (2002) 24 (1963) 911 46 66 94 128 250 564 748 1630 6620
2026-04-28 03:00 22.34 16300 16600 (2002) 24 (1963) 911 46 66 94 128 250 564 748 1630 6620
2026-04-28 02:30 22.21 15900 16600 (2002) 24 (1963) 911 46 66 94 128 250 564 748 1630 6620
2026-04-28 02:00 22.03 15300 16600 (2002) 24 (1963) 911 46 66 94 128 250 564 748 1630 6620
2026-04-28 01:30 21.96 15100 16600 (2002) 24 (1963) 911 46 66 94 128 250 564 748 1630 6620
2026-04-28 01:00 21.74 14500 16600 (2002) 24 (1963) 911 46 66 94 128 250 564 748 1630 6620
2026-04-28 00:30 21.56 14100 16600 (2002) 24 (1963) 911 46 66 94 128 250 564 748 1630 6620
2026-04-28 00:00 21.34 13700 16600 (2002) 24 (1963) 911 46 66 94 128 250 564 748 1630 6620
2026-04-27 23:30 21.09 13300 16600 (2002) 24 (1963) 911 46 66 94 128 250 564 748 1630 6620
2026-04-27 23:00 20.78 12800 16600 (2002) 24 (1963) 911 46 66 94 128 250 564 748 1630 6620
2026-04-27 22:30 20.48 12300 4690 (2002) 19 (1963) 567 48 68 99 118 250 560 640 1590 2690
2026-04-27 22:00 20.11 11700 4690 (2002) 19 (1963) 567 48 68 99 118 250 560 640 1590 2690
2026-04-27 21:30 19.70 11100 4690 (2002) 19 (1963) 567 48 68 99 118 250 560 640 1590 2690
2026-04-27 21:00 19.22 10400 4690 (2002) 19 (1963) 567 48 68 99 118 250 560 640 1590 2690
2026-04-27 20:30 18.68 9840 4690 (2002) 19 (1963) 567 48 68 99 118 250 560 640 1590 2690
2026-04-27 20:00 18.10 9270 4690 (2002) 19 (1963) 567 48 68 99 118 250 560 640 1590 2690
2026-04-27 19:30 17.40 8590 4690 (2002) 19 (1963) 567 48 68 99 118 250 560 640 1590 2690
2026-04-27 19:00 16.67 7900 4690 (2002) 19 (1963) 567 48 68 99 118 250 560 640 1590 2690
2026-04-27 18:30 15.88 7170 4690 (2002) 19 (1963) 567 48 68 99 118 250 560 640 1590 2690
2026-04-27 18:00 15.10 6470 4690 (2002) 19 (1963) 567 48 68 99 118 250 560 640 1590 2690
2026-04-27 17:30 14.43 5900 4690 (2002) 19 (1963) 567 48 68 99 118 250 560 640 1590 2690
2026-04-27 17:00 13.96 5500 4690 (2002) 19 (1963) 567 48 68 99 118 250 560 640 1590 2690
2026-04-27 16:30 13.62 5220 4690 (2002) 19 (1963) 567 48 68 99 118 250 560 640 1590 2690
2026-04-27 16:00 13.25 4920 4690 (2002) 19 (1963) 567 48 68 99 118 250 560 640 1590 2690
2026-04-27 15:30 12.67 4460 4690 (2002) 19 (1963) 567 48 68 99 118 250 560 640 1590 2690
2026-04-27 15:00 11.83 3820 4690 (2002) 19 (1963) 567 48 68 99 118 250 560 640 1590 2690
2026-04-27 14:30 10.81 3090 4690 (2002) 19 (1963) 567 48 68 99 118 250 560 640 1590 2690
2026-04-27 14:00 9.77 2390 4690 (2002) 19 (1963) 567 48 68 99 118 250 560 640 1590 2690
2026-04-27 13:30 8.85 1680 4690 (2002) 19 (1963) 567 48 68 99 118 250 560 640 1590 2690
2026-04-27 13:00 7.68 809 4690 (2002) 19 (1963) 567 48 68 99 118 250 560 640 1590 2690
2026-04-27 12:30 6.80 384 4690 (2002) 19 (1963) 567 48 68 99 118 250 560 640 1590 2690
2026-04-27 12:00 6.46 267 4690 (2002) 19 (1963) 567 48 68 99 118 250 560 640 1590 2690
2026-04-27 11:30 6.34 222 4690 (2002) 19 (1963) 567 48 68 99 118 250 560 640 1590 2690
2026-04-27 11:00 6.27 199 4690 (2002) 19 (1963) 567 48 68 99 118 250 560 640 1590 2690
2026-04-27 10:30 6.20 177 4690 (2002) 19 (1963) 567 48 68 99 118 250 560 640 1590 2690
2026-04-27 10:00 6.19 174 4690 (2002) 19 (1963) 567 48 68 99 118 250 560 640 1590 2690
2026-04-27 09:30 6.25 192 4690 (2002) 19 (1963) 567 48 68 99 118 250 560 640 1590 2690
2026-04-27 09:00 6.25 192 4690 (2002) 19 (1963) 567 48 68 99 118 250 560 640 1590 2690
2026-04-27 08:30 6.26 195 4690 (2002) 19 (1963) 567 48 68 99 118 250 560 640 1590 2690
2026-04-27 08:00 6.17 168 4690 (2002) 19 (1963) 567 48 68 99 118 250 560 640 1590 2690
2026-04-27 07:30 6.20 177 4690 (2002) 19 (1963) 567 48 68 99 118 250 560 640 1590 2690
2026-04-27 07:00 6.21 180 4690 (2002) 19 (1963) 567 48 68 99 118 250 560 640 1590 2690
2026-04-27 06:30 6.24 189 4690 (2002) 19 (1963) 567 48 68 99 118 250 560 640 1590 2690
2026-04-27 06:00 6.26 195 4690 (2002) 19 (1963) 567 48 68 99 118 250 560 640 1590 2690
2026-04-27 05:30 6.20 177 4690 (2002) 19 (1963) 567 48 68 99 118 250 560 640 1590 2690
2026-04-27 05:00 6.18 171 4690 (2002) 19 (1963) 567 48 68 99 118 250 560 640 1590 2690
2026-04-27 04:30 6.18 171 4690 (2002) 19 (1963) 567 48 68 99 118 250 560 640 1590 2690
2026-04-27 04:00 6.26 195 4690 (2002) 19 (1963) 567 48 68 99 118 250 560 640 1590 2690
2026-04-27 03:30 6.18 171 4690 (2002) 19 (1963) 567 48 68 99 118 250 560 640 1590 2690
2026-04-27 03:00 6.18 171 4690 (2002) 19 (1963) 567 48 68 99 118 250 560 640 1590 2690
2026-04-27 02:30 6.20 177 4690 (2002) 19 (1963) 567 48 68 99 118 250 560 640 1590 2690
2026-04-27 02:00 6.19 174 4690 (2002) 19 (1963) 567 48 68 99 118 250 560 640 1590 2690
2026-04-27 01:30 6.22 183 4690 (2002) 19 (1963) 567 48 68 99 118 250 560 640 1590 2690
2026-04-27 01:00 6.23 186 4690 (2002) 19 (1963) 567 48 68 99 118 250 560 640 1590 2690
2026-04-27 00:30 6.23 186 4690 (2002) 19 (1963) 567 48 68 99 118 250 560 640 1590 2690
2026-04-27 00:00 6.23 186 4690 (2002) 19 (1963) 567 48 68 99 118 250 560 640 1590 2690
2026-04-26 23:30 6.21 180 4690 (2002) 19 (1963) 567 48 68 99 118 250 560 640 1590 2690
2026-04-26 23:00 6.22 183 4690 (2002) 19 (1963) 567 48 68 99 118 250 560 640 1590 2690
2026-04-26 22:30 6.22 183 13900 (1947) 20 (1963) 845 46 71 98 126 283 676 864 1470 3540
2026-04-26 22:00 6.22 183 13900 (1947) 20 (1963) 845 46 71 98 126 283 676 864 1470 3540
2026-04-26 21:30 6.22 183 13900 (1947) 20 (1963) 845 46 71 98 126 283 676 864 1470 3540
2026-04-26 21:00 6.22 183 13900 (1947) 20 (1963) 845 46 71 98 126 283 676 864 1470 3540
2026-04-26 20:30 6.23 186 13900 (1947) 20 (1963) 845 46 71 98 126 283 676 864 1470 3540
2026-04-26 20:00 6.23 186 13900 (1947) 20 (1963) 845 46 71 98 126 283 676 864 1470 3540
2026-04-26 19:30 6.23 186 13900 (1947) 20 (1963) 845 46 71 98 126 283 676 864 1470 3540
2026-04-26 19:00 6.23 186 13900 (1947) 20 (1963) 845 46 71 98 126 283 676 864 1470 3540
2026-04-26 18:30 6.17 168 13900 (1947) 20 (1963) 845 46 71 98 126 283 676 864 1470 3540
2026-04-26 18:00 6.17 168 13900 (1947) 20 (1963) 845 46 71 98 126 283 676 864 1470 3540
2026-04-26 17:30 6.18 171 13900 (1947) 20 (1963) 845 46 71 98 126 283 676 864 1470 3540
2026-04-26 17:00 6.16 165 13900 (1947) 20 (1963) 845 46 71 98 126 283 676 864 1470 3540
2026-04-26 16:30 6.18 171 13900 (1947) 20 (1963) 845 46 71 98 126 283 676 864 1470 3540
2026-04-26 16:00 6.17 168 13900 (1947) 20 (1963) 845 46 71 98 126 283 676 864 1470 3540
2026-04-26 15:30 6.17 168 13900 (1947) 20 (1963) 845 46 71 98 126 283 676 864 1470 3540
2026-04-26 15:00 6.23 186 13900 (1947) 20 (1963) 845 46 71 98 126 283 676 864 1470 3540
2026-04-26 14:30 6.17 168 13900 (1947) 20 (1963) 845 46 71 98 126 283 676 864 1470 3540
2026-04-26 14:00 6.21 180 13900 (1947) 20 (1963) 845 46 71 98 126 283 676 864 1470 3540
2026-04-26 13:30 6.22 183 13900 (1947) 20 (1963) 845 46 71 98 126 283 676 864 1470 3540
2026-04-26 13:00 6.20 177 13900 (1947) 20 (1963) 845 46 71 98 126 283 676 864 1470 3540
2026-04-26 12:30 6.25 192 13900 (1947) 20 (1963) 845 46 71 98 126 283 676 864 1470 3540
2026-04-26 12:00 6.20 177 13900 (1947) 20 (1963) 845 46 71 98 126 283 676 864 1470 3540
2026-04-26 11:30 6.19 174 13900 (1947) 20 (1963) 845 46 71 98 126 283 676 864 1470 3540
2026-04-26 11:00 6.19 174 13900 (1947) 20 (1963) 845 46 71 98 126 283 676 864 1470 3540
2026-04-26 10:30 6.18 171 13900 (1947) 20 (1963) 845 46 71 98 126 283 676 864 1470 3540
2026-04-26 10:00 6.19 174 13900 (1947) 20 (1963) 845 46 71 98 126 283 676 864 1470 3540
2026-04-26 09:30 6.21 180 13900 (1947) 20 (1963) 845 46 71 98 126 283 676 864 1470 3540
2026-04-26 09:00 6.26 195 13900 (1947) 20 (1963) 845 46 71 98 126 283 676 864 1470 3540
2026-04-26 08:30 6.25 192 13900 (1947) 20 (1963) 845 46 71 98 126 283 676 864 1470 3540
2026-04-26 08:00 6.27 199 13900 (1947) 20 (1963) 845 46 71 98 126 283 676 864 1470 3540
2026-04-26 07:30 6.28 202 13900 (1947) 20 (1963) 845 46 71 98 126 283 676 864 1470 3540
2026-04-26 07:00 6.28 202 13900 (1947) 20 (1963) 845 46 71 98 126 283 676 864 1470 3540
2026-04-26 06:30 6.29 205 13900 (1947) 20 (1963) 845 46 71 98 126 283 676 864 1470 3540
2026-04-26 06:00 6.29 205 13900 (1947) 20 (1963) 845 46 71 98 126 283 676 864 1470 3540
2026-04-26 05:30 6.29 205 13900 (1947) 20 (1963) 845 46 71 98 126 283 676 864 1470 3540
2026-04-26 05:00 6.29 205 13900 (1947) 20 (1963) 845 46 71 98 126 283 676 864 1470 3540
2026-04-26 04:30 6.29 205 13900 (1947) 20 (1963) 845 46 71 98 126 283 676 864 1470 3540
2026-04-26 04:00 6.29 205 13900 (1947) 20 (1963) 845 46 71 98 126 283 676 864 1470 3540
2026-04-26 03:30 6.29 205 13900 (1947) 20 (1963) 845 46 71 98 126 283 676 864 1470 3540
2026-04-26 03:00 6.30 208 13900 (1947) 20 (1963) 845 46 71 98 126 283 676 864 1470 3540
2026-04-26 02:30 6.30 208 13900 (1947) 20 (1963) 845 46 71 98 126 283 676 864 1470 3540
2026-04-26 02:00 6.30 208 13900 (1947) 20 (1963) 845 46 71 98 126 283 676 864 1470 3540
2026-04-26 01:30 6.30 208 13900 (1947) 20 (1963) 845 46 71 98 126 283 676 864 1470 3540
2026-04-26 01:00 6.30 208 13900 (1947) 20 (1963) 845 46 71 98 126 283 676 864 1470 3540
2026-04-26 00:30 6.31 212 13900 (1947) 20 (1963) 845 46 71 98 126 283 676 864 1470 3540
2026-04-26 00:00 6.31 212 13900 (1947) 20 (1963) 845 46 71 98 126 283 676 864 1470 3540
2026-04-25 23:30 6.31 212 13900 (1947) 20 (1963) 845 46 71 98 126 283 676 864 1470 3540
2026-04-25 23:00 6.31 212 13900 (1947) 20 (1963) 845 46 71 98 126 283 676 864 1470 3540
2026-04-25 22:30 6.32 215 29900 (1947) 10 (1956) 1280 45 70 107 131 296 787 1120 2710 6150
2026-04-25 22:00 6.32 215 29900 (1947) 10 (1956) 1280 45 70 107 131 296 787 1120 2710 6150
2026-04-25 21:30 6.32 215 29900 (1947) 10 (1956) 1280 45 70 107 131 296 787 1120 2710 6150
2026-04-25 21:00 6.32 215 29900 (1947) 10 (1956) 1280 45 70 107 131 296 787 1120 2710 6150
2026-04-25 20:30 6.32 215 29900 (1947) 10 (1956) 1280 45 70 107 131 296 787 1120 2710 6150
2026-04-25 20:00 6.32 215 29900 (1947) 10 (1956) 1280 45 70 107 131 296 787 1120 2710 6150
2026-04-25 19:30 6.33 219 29900 (1947) 10 (1956) 1280 45 70 107 131 296 787 1120 2710 6150
2026-04-25 19:00 6.33 219 29900 (1947) 10 (1956) 1280 45 70 107 131 296 787 1120 2710 6150
2026-04-25 18:30 6.33 219 29900 (1947) 10 (1956) 1280 45 70 107 131 296 787 1120 2710 6150
2026-04-25 18:00 6.31 212 29900 (1947) 10 (1956) 1280 45 70 107 131 296 787 1120 2710 6150
2026-04-25 17:30 6.29 205 29900 (1947) 10 (1956) 1280 45 70 107 131 296 787 1120 2710 6150
2026-04-25 17:00 6.34 222 29900 (1947) 10 (1956) 1280 45 70 107 131 296 787 1120 2710 6150
2026-04-25 16:30 6.32 215 29900 (1947) 10 (1956) 1280 45 70 107 131 296 787 1120 2710 6150
2026-04-25 16:00 6.34 222 29900 (1947) 10 (1956) 1280 45 70 107 131 296 787 1120 2710 6150
2026-04-25 15:30 6.35 226 29900 (1947) 10 (1956) 1280 45 70 107 131 296 787 1120 2710 6150
2026-04-25 15:00 6.36 229 29900 (1947) 10 (1956) 1280 45 70 107 131 296 787 1120 2710 6150
2026-04-25 14:30 6.34 222 29900 (1947) 10 (1956) 1280 45 70 107 131 296 787 1120 2710 6150
2026-04-25 14:00 6.32 215 29900 (1947) 10 (1956) 1280 45 70 107 131 296 787 1120 2710 6150
2026-04-25 13:30 6.35 226 29900 (1947) 10 (1956) 1280 45 70 107 131 296 787 1120 2710 6150
2026-04-25 13:00 6.36 229 29900 (1947) 10 (1956) 1280 45 70 107 131 296 787 1120 2710 6150
2026-04-25 12:30 6.36 229 29900 (1947) 10 (1956) 1280 45 70 107 131 296 787 1120 2710 6150
2026-04-25 12:00 6.37 233 29900 (1947) 10 (1956) 1280 45 70 107 131 296 787 1120 2710 6150
2026-04-25 11:30 6.37 233 29900 (1947) 10 (1956) 1280 45 70 107 131 296 787 1120 2710 6150
2026-04-25 11:00 6.37 233 29900 (1947) 10 (1956) 1280 45 70 107 131 296 787 1120 2710 6150
2026-04-25 10:30 6.37 233 29900 (1947) 10 (1956) 1280 45 70 107 131 296 787 1120 2710 6150
2026-04-25 10:00 6.37 233 29900 (1947) 10 (1956) 1280 45 70 107 131 296 787 1120 2710 6150
2026-04-25 09:30 6.37 233 29900 (1947) 10 (1956) 1280 45 70 107 131 296 787 1120 2710 6150
2026-04-25 09:00 6.38 237 29900 (1947) 10 (1956) 1280 45 70 107 131 296 787 1120 2710 6150
2026-04-25 08:30 6.38 237 29900 (1947) 10 (1956) 1280 45 70 107 131 296 787 1120 2710 6150
2026-04-25 08:00 6.39 240 29900 (1947) 10 (1956) 1280 45 70 107 131 296 787 1120 2710 6150
2026-04-25 07:30 6.39 240 29900 (1947) 10 (1956) 1280 45 70 107 131 296 787 1120 2710 6150
2026-04-25 07:00 6.39 240 29900 (1947) 10 (1956) 1280 45 70 107 131 296 787 1120 2710 6150
2026-04-25 06:30 6.40 244 29900 (1947) 10 (1956) 1280 45 70 107 131 296 787 1120 2710 6150
2026-04-25 06:00 6.40 244 29900 (1947) 10 (1956) 1280 45 70 107 131 296 787 1120 2710 6150
2026-04-25 05:30 6.40 244 29900 (1947) 10 (1956) 1280 45 70 107 131 296 787 1120 2710 6150
2026-04-25 05:00 6.41 248 29900 (1947) 10 (1956) 1280 45 70 107 131 296 787 1120 2710 6150
2026-04-25 04:30 6.41 248 29900 (1947) 10 (1956) 1280 45 70 107 131 296 787 1120 2710 6150
2026-04-25 04:00 6.41 248 29900 (1947) 10 (1956) 1280 45 70 107 131 296 787 1120 2710 6150
2026-04-25 03:30 6.41 248 29900 (1947) 10 (1956) 1280 45 70 107 131 296 787 1120 2710 6150
2026-04-25 03:00 6.41 248 29900 (1947) 10 (1956) 1280 45 70 107 131 296 787 1120 2710 6150
2026-04-25 02:30 6.42 251 29900 (1947) 10 (1956) 1280 45 70 107 131 296 787 1120 2710 6150
2026-04-25 02:00 6.42 251 29900 (1947) 10 (1956) 1280 45 70 107 131 296 787 1120 2710 6150
2026-04-25 01:30 6.42 251 29900 (1947) 10 (1956) 1280 45 70 107 131 296 787 1120 2710 6150
2026-04-25 01:00 6.43 255 29900 (1947) 10 (1956) 1280 45 70 107 131 296 787 1120 2710 6150
2026-04-25 00:30 6.42 251 29900 (1947) 10 (1956) 1280 45 70 107 131 296 787 1120 2710 6150
2026-04-25 00:00 6.43 255 29900 (1947) 10 (1956) 1280 45 70 107 131 296 787 1120 2710 6150
2026-04-24 23:30 6.43 255 29900 (1947) 10 (1956) 1280 45 70 107 131 296 787 1120 2710 6150
2026-04-24 23:00 6.43 255 29900 (1947) 10 (1956) 1280 45 70 107 131 296 787 1120 2710 6150
2026-04-24 22:30 6.43 255 8190 (1944) 4 (1956) 752 51 76 120 141 265 695 859 1530 3250
2026-04-24 22:00 6.44 259 8190 (1944) 4 (1956) 752 51 76 120 141 265 695 859 1530 3250
2026-04-24 21:30 6.44 259 8190 (1944) 4 (1956) 752 51 76 120 141 265 695 859 1530 3250
2026-04-24 21:00 6.44 259 8190 (1944) 4 (1956) 752 51 76 120 141 265 695 859 1530 3250
2026-04-24 20:30 6.44 259 8190 (1944) 4 (1956) 752 51 76 120 141 265 695 859 1530 3250
2026-04-24 20:00 6.45 263 8190 (1944) 4 (1956) 752 51 76 120 141 265 695 859 1530 3250
2026-04-24 19:30 6.45 263 8190 (1944) 4 (1956) 752 51 76 120 141 265 695 859 1530 3250
2026-04-24 19:00 6.45 263 8190 (1944) 4 (1956) 752 51 76 120 141 265 695 859 1530 3250
2026-04-24 18:30 6.45 263 8190 (1944) 4 (1956) 752 51 76 120 141 265 695 859 1530 3250
2026-04-24 18:00 6.45 263 8190 (1944) 4 (1956) 752 51 76 120 141 265 695 859 1530 3250
2026-04-24 17:30 6.46 267 8190 (1944) 4 (1956) 752 51 76 120 141 265 695 859 1530 3250
2026-04-24 17:00 6.46 267 8190 (1944) 4 (1956) 752 51 76 120 141 265 695 859 1530 3250
2026-04-24 16:30 6.46 267 8190 (1944) 4 (1956) 752 51 76 120 141 265 695 859 1530 3250
2026-04-24 16:00 6.47 270 8190 (1944) 4 (1956) 752 51 76 120 141 265 695 859 1530 3250
2026-04-24 15:30 6.47 270 8190 (1944) 4 (1956) 752 51 76 120 141 265 695 859 1530 3250
2026-04-24 15:00 6.47 270 8190 (1944) 4 (1956) 752 51 76 120 141 265 695 859 1530 3250
2026-04-24 14:30 6.47 270 8190 (1944) 4 (1956) 752 51 76 120 141 265 695 859 1530 3250
2026-04-24 14:00 6.48 273 8190 (1944) 4 (1956) 752 51 76 120 141 265 695 859 1530 3250
2026-04-24 13:30 6.48 273 8190 (1944) 4 (1956) 752 51 76 120 141 265 695 859 1530 3250
2026-04-24 13:00 6.48 273 8190 (1944) 4 (1956) 752 51 76 120 141 265 695 859 1530 3250
2026-04-24 12:30 6.48 273 8190 (1944) 4 (1956) 752 51 76 120 141 265 695 859 1530 3250
2026-04-24 12:00 6.43 255 8190 (1944) 4 (1956) 752 51 76 120 141 265 695 859 1530 3250
2026-04-24 11:30 6.49 276 8190 (1944) 4 (1956) 752 51 76 120 141 265 695 859 1530 3250
2026-04-24 11:00 6.50 280 8190 (1944) 4 (1956) 752 51 76 120 141 265 695 859 1530 3250
2026-04-24 10:30 6.50 280 8190 (1944) 4 (1956) 752 51 76 120 141 265 695 859 1530 3250
2026-04-24 10:00 6.50 280 8190 (1944) 4 (1956) 752 51 76 120 141 265 695 859 1530 3250
2026-04-24 09:30 6.50 280 8190 (1944) 4 (1956) 752 51 76 120 141 265 695 859 1530 3250
2026-04-24 09:00 6.51 283 8190 (1944) 4 (1956) 752 51 76 120 141 265 695 859 1530 3250
2026-04-24 08:30 6.51 283 8190 (1944) 4 (1956) 752 51 76 120 141 265 695 859 1530 3250
2026-04-24 08:00 6.51 283 8190 (1944) 4 (1956) 752 51 76 120 141 265 695 859 1530 3250
2026-04-24 07:30 6.51 283 8190 (1944) 4 (1956) 752 51 76 120 141 265 695 859 1530 3250
2026-04-24 07:00 6.46 267 8190 (1944) 4 (1956) 752 51 76 120 141 265 695 859 1530 3250
2026-04-24 06:30 6.44 259 8190 (1944) 4 (1956) 752 51 76 120 141 265 695 859 1530 3250
2026-04-24 06:00 6.50 280 8190 (1944) 4 (1956) 752 51 76 120 141 265 695 859 1530 3250
2026-04-24 05:30 6.50 280 8190 (1944) 4 (1956) 752 51 76 120 141 265 695 859 1530 3250
2026-04-24 05:00 6.51 283 8190 (1944) 4 (1956) 752 51 76 120 141 265 695 859 1530 3250
2026-04-24 04:30 6.49 276 8190 (1944) 4 (1956) 752 51 76 120 141 265 695 859 1530 3250
2026-04-24 04:00 6.52 286 8190 (1944) 4 (1956) 752 51 76 120 141 265 695 859 1530 3250
2026-04-24 03:30 6.52 286 8190 (1944) 4 (1956) 752 51 76 120 141 265 695 859 1530 3250
2026-04-24 03:00 6.52 286 8190 (1944) 4 (1956) 752 51 76 120 141 265 695 859 1530 3250
2026-04-24 02:30 6.50 280 8190 (1944) 4 (1956) 752 51 76 120 141 265 695 859 1530 3250
2026-04-24 02:00 6.48 273 8190 (1944) 4 (1956) 752 51 76 120 141 265 695 859 1530 3250
2026-04-24 01:30 6.52 286 8190 (1944) 4 (1956) 752 51 76 120 141 265 695 859 1530 3250
2026-04-24 01:00 6.52 286 8190 (1944) 4 (1956) 752 51 76 120 141 265 695 859 1530 3250
2026-04-24 00:30 6.52 286 8190 (1944) 4 (1956) 752 51 76 120 141 265 695 859 1530 3250
2026-04-24 00:00 6.52 286 8190 (1944) 4 (1956) 752 51 76 120 141 265 695 859 1530 3250
2026-04-23 23:30 6.53 289 8190 (1944) 4 (1956) 752 51 76 120 141 265 695 859 1530 3250
2026-04-23 23:00 6.53 289 8190 (1944) 4 (1956) 752 51 76 120 141 265 695 859 1530 3250
2026-04-23 22:30 6.53 289 24300 (1944) 4 (1956) 930 53 77 113 147 260 658 822 1490 4470
2026-04-23 22:00 6.54 292 24300 (1944) 4 (1956) 930 53 77 113 147 260 658 822 1490 4470
2026-04-23 21:30 6.54 292 24300 (1944) 4 (1956) 930 53 77 113 147 260 658 822 1490 4470
2026-04-23 21:00 6.54 292 24300 (1944) 4 (1956) 930 53 77 113 147 260 658 822 1490 4470
2026-04-23 20:30 6.54 292 24300 (1944) 4 (1956) 930 53 77 113 147 260 658 822 1490 4470
2026-04-23 20:00 6.55 296 24300 (1944) 4 (1956) 930 53 77 113 147 260 658 822 1490 4470
2026-04-23 19:30 6.49 276 24300 (1944) 4 (1956) 930 53 77 113 147 260 658 822 1490 4470
2026-04-23 19:00 6.51 283 24300 (1944) 4 (1956) 930 53 77 113 147 260 658 822 1490 4470
2026-04-23 18:30 6.50 280 24300 (1944) 4 (1956) 930 53 77 113 147 260 658 822 1490 4470
2026-04-23 18:00 6.50 280 24300 (1944) 4 (1956) 930 53 77 113 147 260 658 822 1490 4470
2026-04-23 17:30 6.54 292 24300 (1944) 4 (1956) 930 53 77 113 147 260 658 822 1490 4470
2026-04-23 17:00 6.52 286 24300 (1944) 4 (1956) 930 53 77 113 147 260 658 822 1490 4470
2026-04-23 16:30 6.56 299 24300 (1944) 4 (1956) 930 53 77 113 147 260 658 822 1490 4470
2026-04-23 16:00 6.58 305 24300 (1944) 4 (1956) 930 53 77 113 147 260 658 822 1490 4470
2026-04-23 15:30 6.58 305 24300 (1944) 4 (1956) 930 53 77 113 147 260 658 822 1490 4470
2026-04-23 15:00 6.54 292 24300 (1944) 4 (1956) 930 53 77 113 147 260 658 822 1490 4470
2026-04-23 14:30 6.59 309 24300 (1944) 4 (1956) 930 53 77 113 147 260 658 822 1490 4470
2026-04-23 14:00 6.59 309 24300 (1944) 4 (1956) 930 53 77 113 147 260 658 822 1490 4470
2026-04-23 13:30 6.54 292 24300 (1944) 4 (1956) 930 53 77 113 147 260 658 822 1490 4470
2026-04-23 13:00 6.52 286 24300 (1944) 4 (1956) 930 53 77 113 147 260 658 822 1490 4470
2026-04-23 12:30 6.55 296 24300 (1944) 4 (1956) 930 53 77 113 147 260 658 822 1490 4470
2026-04-23 12:00 6.60 312 24300 (1944) 4 (1956) 930 53 77 113 147 260 658 822 1490 4470
2026-04-23 11:30 6.61 315 24300 (1944) 4 (1956) 930 53 77 113 147 260 658 822 1490 4470
2026-04-23 11:00 6.61 315 24300 (1944) 4 (1956) 930 53 77 113 147 260 658 822 1490 4470
2026-04-23 10:30 6.61 315 24300 (1944) 4 (1956) 930 53 77 113 147 260 658 822 1490 4470
2026-04-23 10:00 6.61 315 24300 (1944) 4 (1956) 930 53 77 113 147 260 658 822 1490 4470
2026-04-23 09:30 6.62 319 24300 (1944) 4 (1956) 930 53 77 113 147 260 658 822 1490 4470
2026-04-23 09:00 6.62 319 24300 (1944) 4 (1956) 930 53 77 113 147 260 658 822 1490 4470
2026-04-23 08:30 6.62 319 24300 (1944) 4 (1956) 930 53 77 113 147 260 658 822 1490 4470
2026-04-23 08:00 6.63 322 24300 (1944) 4 (1956) 930 53 77 113 147 260 658 822 1490 4470
2026-04-23 07:30 6.64 326 24300 (1944) 4 (1956) 930 53 77 113 147 260 658 822 1490 4470
2026-04-23 07:00 6.65 329 24300 (1944) 4 (1956) 930 53 77 113 147 260 658 822 1490 4470
2026-04-23 06:30 6.65 329 24300 (1944) 4 (1956) 930 53 77 113 147 260 658 822 1490 4470
2026-04-23 06:00 6.65 329 24300 (1944) 4 (1956) 930 53 77 113 147 260 658 822 1490 4470
2026-04-23 05:30 6.66 333 24300 (1944) 4 (1956) 930 53 77 113 147 260 658 822 1490 4470
2026-04-23 05:00 6.66 333 24300 (1944) 4 (1956) 930 53 77 113 147 260 658 822 1490 4470
2026-04-23 04:30 6.66 333 24300 (1944) 4 (1956) 930 53 77 113 147 260 658 822 1490 4470
2026-04-23 04:00 6.67 336 24300 (1944) 4 (1956) 930 53 77 113 147 260 658 822 1490 4470
2026-04-23 03:30 6.67 336 24300 (1944) 4 (1956) 930 53 77 113 147 260 658 822 1490 4470
2026-04-23 03:00 6.67 336 24300 (1944) 4 (1956) 930 53 77 113 147 260 658 822 1490 4470
2026-04-23 02:30 6.68 340 24300 (1944) 4 (1956) 930 53 77 113 147 260 658 822 1490 4470
2026-04-23 02:00 6.68 340 24300 (1944) 4 (1956) 930 53 77 113 147 260 658 822 1490 4470
2026-04-23 01:30 6.68 340 24300 (1944) 4 (1956) 930 53 77 113 147 260 658 822 1490 4470
2026-04-23 01:00 6.69 343 24300 (1944) 4 (1956) 930 53 77 113 147 260 658 822 1490 4470
2026-04-23 00:30 6.69 343 24300 (1944) 4 (1956) 930 53 77 113 147 260 658 822 1490 4470
2026-04-23 00:00 6.69 343 24300 (1944) 4 (1956) 930 53 77 113 147 260 658 822 1490 4470
2026-04-22 23:30 6.70 347 24300 (1944) 4 (1956) 930 53 77 113 147 260 658 822 1490 4470
2026-04-22 23:00 6.70 347 24300 (1944) 4 (1956) 930 53 77 113 147 260 658 822 1490 4470
2026-04-22 22:30 6.71 350 18300 (1944) 7 (1956) 1170 53 64 116 141 286 835 1020 2750 5560
2026-04-22 22:00 6.71 350 18300 (1944) 7 (1956) 1170 53 64 116 141 286 835 1020 2750 5560
2026-04-22 21:30 6.72 354 18300 (1944) 7 (1956) 1170 53 64 116 141 286 835 1020 2750 5560
2026-04-22 21:00 6.72 354 18300 (1944) 7 (1956) 1170 53 64 116 141 286 835 1020 2750 5560
2026-04-22 20:30 6.72 354 18300 (1944) 7 (1956) 1170 53 64 116 141 286 835 1020 2750 5560
2026-04-22 20:00 6.73 358 18300 (1944) 7 (1956) 1170 53 64 116 141 286 835 1020 2750 5560
2026-04-22 19:30 6.73 358 18300 (1944) 7 (1956) 1170 53 64 116 141 286 835 1020 2750 5560
2026-04-22 19:00 6.74 361 18300 (1944) 7 (1956) 1170 53 64 116 141 286 835 1020 2750 5560
2026-04-22 18:30 6.74 361 18300 (1944) 7 (1956) 1170 53 64 116 141 286 835 1020 2750 5560
2026-04-22 18:00 6.75 365 18300 (1944) 7 (1956) 1170 53 64 116 141 286 835 1020 2750 5560
2026-04-22 17:30 6.76 369 18300 (1944) 7 (1956) 1170 53 64 116 141 286 835 1020 2750 5560
2026-04-22 17:00 6.76 369 18300 (1944) 7 (1956) 1170 53 64 116 141 286 835 1020 2750 5560
2026-04-22 16:30 6.70 347 18300 (1944) 7 (1956) 1170 53 64 116 141 286 835 1020 2750 5560
2026-04-22 16:00 6.75 365 18300 (1944) 7 (1956) 1170 53 64 116 141 286 835 1020 2750 5560
2026-04-22 15:30 6.72 354 18300 (1944) 7 (1956) 1170 53 64 116 141 286 835 1020 2750 5560
2026-04-22 15:00 6.75 365 18300 (1944) 7 (1956) 1170 53 64 116 141 286 835 1020 2750 5560
2026-04-22 14:30 6.78 376 18300 (1944) 7 (1956) 1170 53 64 116 141 286 835 1020 2750 5560
2026-04-22 14:00 6.73 358 18300 (1944) 7 (1956) 1170 53 64 116 141 286 835 1020 2750 5560
2026-04-22 13:30 6.79 380 18300 (1944) 7 (1956) 1170 53 64 116 141 286 835 1020 2750 5560
2026-04-22 13:00 6.79 380 18300 (1944) 7 (1956) 1170 53 64 116 141 286 835 1020 2750 5560
2026-04-22 12:30 6.79 380 18300 (1944) 7 (1956) 1170 53 64 116 141 286 835 1020 2750 5560
2026-04-22 12:00 6.78 376 18300 (1944) 7 (1956) 1170 53 64 116 141 286 835 1020 2750 5560
2026-04-22 11:30 6.78 376 18300 (1944) 7 (1956) 1170 53 64 116 141 286 835 1020 2750 5560
2026-04-22 11:00 6.76 369 18300 (1944) 7 (1956) 1170 53 64 116 141 286 835 1020 2750 5560
2026-04-22 10:30 6.80 384 18300 (1944) 7 (1956) 1170 53 64 116 141 286 835 1020 2750 5560
2026-04-22 10:00 6.83 395 18300 (1944) 7 (1956) 1170 53 64 116 141 286 835 1020 2750 5560
2026-04-22 09:30 6.83 395 18300 (1944) 7 (1956) 1170 53 64 116 141 286 835 1020 2750 5560
2026-04-22 09:00 6.82 391 18300 (1944) 7 (1956) 1170 53 64 116 141 286 835 1020 2750 5560
2026-04-22 08:30 6.84 399 18300 (1944) 7 (1956) 1170 53 64 116 141 286 835 1020 2750 5560
2026-04-22 08:00 6.85 403 18300 (1944) 7 (1956) 1170 53 64 116 141 286 835 1020 2750 5560
2026-04-22 07:30 6.86 407 18300 (1944) 7 (1956) 1170 53 64 116 141 286 835 1020 2750 5560
2026-04-22 07:00 6.87 411 18300 (1944) 7 (1956) 1170 53 64 116 141 286 835 1020 2750 5560
2026-04-22 06:30 6.88 415 18300 (1944) 7 (1956) 1170 53 64 116 141 286 835 1020 2750 5560
2026-04-22 06:00 6.88 415 18300 (1944) 7 (1956) 1170 53 64 116 141 286 835 1020 2750 5560
2026-04-22 05:30 6.88 415 18300 (1944) 7 (1956) 1170 53 64 116 141 286 835 1020 2750 5560
2026-04-22 05:00 6.88 415 18300 (1944) 7 (1956) 1170 53 64 116 141 286 835 1020 2750 5560
2026-04-22 04:30 6.89 419 18300 (1944) 7 (1956) 1170 53 64 116 141 286 835 1020 2750 5560
2026-04-22 04:00 6.90 423 18300 (1944) 7 (1956) 1170 53 64 116 141 286 835 1020 2750 5560
2026-04-22 03:30 6.91 427 18300 (1944) 7 (1956) 1170 53 64 116 141 286 835 1020 2750 5560
2026-04-22 03:00 6.91 427 18300 (1944) 7 (1956) 1170 53 64 116 141 286 835 1020 2750 5560
2026-04-22 02:30 6.92 431 18300 (1944) 7 (1956) 1170 53 64 116 141 286 835 1020 2750 5560
2026-04-22 02:00 6.93 435 18300 (1944) 7 (1956) 1170 53 64 116 141 286 835 1020 2750 5560
2026-04-22 01:30 6.93 435 18300 (1944) 7 (1956) 1170 53 64 116 141 286 835 1020 2750 5560
2026-04-22 01:00 6.93 435 18300 (1944) 7 (1956) 1170 53 64 116 141 286 835 1020 2750 5560
2026-04-22 00:30 6.93 435 18300 (1944) 7 (1956) 1170 53 64 116 141 286 835 1020 2750 5560
2026-04-22 00:00 6.95 443 18300 (1944) 7 (1956) 1170 53 64 116 141 286 835 1020 2750 5560
2026-04-21 23:30 6.95 443 18300 (1944) 7 (1956) 1170 53 64 116 141 286 835 1020 2750 5560
2026-04-21 23:00 6.95 443 18300 (1944) 7 (1956) 1170 53 64 116 141 286 835 1020 2750 5560
2026-04-21 22:30 6.96 380 18500 (1966) 6 (1956) 1420 45 69 119 134 275 950 1630 3190 9080
2026-04-21 22:00 6.97 384 18500 (1966) 6 (1956) 1420 45 69 119 134 275 950 1630 3190 9080
2026-04-21 21:30 6.98 387 18500 (1966) 6 (1956) 1420 45 69 119 134 275 950 1630 3190 9080
2026-04-21 21:00 6.98 387 18500 (1966) 6 (1956) 1420 45 69 119 134 275 950 1630 3190 9080
2026-04-21 20:30 6.99 391 18500 (1966) 6 (1956) 1420 45 69 119 134 275 950 1630 3190 9080
2026-04-21 20:00 7.00 395 18500 (1966) 6 (1956) 1420 45 69 119 134 275 950 1630 3190 9080
2026-04-21 19:30 7.01 399 18500 (1966) 6 (1956) 1420 45 69 119 134 275 950 1630 3190 9080
2026-04-21 19:00 6.96 380 18500 (1966) 6 (1956) 1420 45 69 119 134 275 950 1630 3190 9080
2026-04-21 18:30 7.00 395 18500 (1966) 6 (1956) 1420 45 69 119 134 275 950 1630 3190 9080
2026-04-21 18:00 7.04 411 18500 (1966) 6 (1956) 1420 45 69 119 134 275 950 1630 3190 9080
2026-04-21 17:30 6.97 384 18500 (1966) 6 (1956) 1420 45 69 119 134 275 950 1630 3190 9080
2026-04-21 17:00 7.06 419 18500 (1966) 6 (1956) 1420 45 69 119 134 275 950 1630 3190 9080
2026-04-21 16:30 7.03 407 18500 (1966) 6 (1956) 1420 45 69 119 134 275 950 1630 3190 9080
2026-04-21 16:00 7.06 419 18500 (1966) 6 (1956) 1420 45 69 119 134 275 950 1630 3190 9080
2026-04-21 15:30 7.08 427 18500 (1966) 6 (1956) 1420 45 69 119 134 275 950 1630 3190 9080
2026-04-21 15:00 7.03 407 18500 (1966) 6 (1956) 1420 45 69 119 134 275 950 1630 3190 9080
2026-04-21 14:30 7.09 431 18500 (1966) 6 (1956) 1420 45 69 119 134 275 950 1630 3190 9080
2026-04-21 14:00 7.09 431 18500 (1966) 6 (1956) 1420 45 69 119 134 275 950 1630 3190 9080
2026-04-21 13:30 7.10 435 18500 (1966) 6 (1956) 1420 45 69 119 134 275 950 1630 3190 9080
2026-04-21 13:00 7.12 443 18500 (1966) 6 (1956) 1420 45 69 119 134 275 950 1630 3190 9080
2026-04-21 12:30 7.14 451 18500 (1966) 6 (1956) 1420 45 69 119 134 275 950 1630 3190 9080
2026-04-21 12:00 7.14 451 18500 (1966) 6 (1956) 1420 45 69 119 134 275 950 1630 3190 9080
2026-04-21 11:30 7.15 456 18500 (1966) 6 (1956) 1420 45 69 119 134 275 950 1630 3190 9080
2026-04-21 11:00 7.13 447 18500 (1966) 6 (1956) 1420 45 69 119 134 275 950 1630 3190 9080
2026-04-21 10:30 7.14 451 18500 (1966) 6 (1956) 1420 45 69 119 134 275 950 1630 3190 9080
2026-04-21 10:00 7.16 460 18500 (1966) 6 (1956) 1420 45 69 119 134 275 950 1630 3190 9080
2026-04-21 09:30 7.16 460 18500 (1966) 6 (1956) 1420 45 69 119 134 275 950 1630 3190 9080
2026-04-21 09:00 7.17 464 18500 (1966) 6 (1956) 1420 45 69 119 134 275 950 1630 3190 9080
2026-04-21 08:30 7.21 481 18500 (1966) 6 (1956) 1420 45 69 119 134 275 950 1630 3190 9080
2026-04-21 08:00 7.21 481 18500 (1966) 6 (1956) 1420 45 69 119 134 275 950 1630 3190 9080
2026-04-21 07:30 7.23 490 18500 (1966) 6 (1956) 1420 45 69 119 134 275 950 1630 3190 9080
2026-04-21 07:00 7.24 494 18500 (1966) 6 (1956) 1420 45 69 119 134 275 950 1630 3190 9080
2026-04-21 06:30 7.25 499 18500 (1966) 6 (1956) 1420 45 69 119 134 275 950 1630 3190 9080
2026-04-21 06:00 7.26 503 18500 (1966) 6 (1956) 1420 45 69 119 134 275 950 1630 3190 9080
2026-04-21 05:30 7.27 508 18500 (1966) 6 (1956) 1420 45 69 119 134 275 950 1630 3190 9080
2026-04-21 05:00 7.29 517 18500 (1966) 6 (1956) 1420 45 69 119 134 275 950 1630 3190 9080
2026-04-21 04:30 7.30 521 18500 (1966) 6 (1956) 1420 45 69 119 134 275 950 1630 3190 9080
2026-04-21 04:00 7.31 526 18500 (1966) 6 (1956) 1420 45 69 119 134 275 950 1630 3190 9080
2026-04-21 03:30 7.32 531 18500 (1966) 6 (1956) 1420 45 69 119 134 275 950 1630 3190 9080
2026-04-21 03:00 7.34 540 18500 (1966) 6 (1956) 1420 45 69 119 134 275 950 1630 3190 9080
2026-04-21 02:30 7.35 544 18500 (1966) 6 (1956) 1420 45 69 119 134 275 950 1630 3190 9080
2026-04-21 02:00 7.36 549 18500 (1966) 6 (1956) 1420 45 69 119 134 275 950 1630 3190 9080
2026-04-21 01:30 7.37 554 18500 (1966) 6 (1956) 1420 45 69 119 134 275 950 1630 3190 9080
2026-04-21 01:00 7.39 563 18500 (1966) 6 (1956) 1420 45 69 119 134 275 950 1630 3190 9080
2026-04-21 00:30 7.39 563 18500 (1966) 6 (1956) 1420 45 69 119 134 275 950 1630 3190 9080
2026-04-21 00:00 7.41 573 18500 (1966) 6 (1956) 1420 45 69 119 134 275 950 1630 3190 9080
2026-04-20 23:30 7.42 578 18500 (1966) 6 (1956) 1420 45 69 119 134 275 950 1630 3190 9080
2026-04-20 23:00 7.44 588 18500 (1966) 6 (1956) 1420 45 69 119 134 275 950 1630 3190 9080
2026-04-20 22:30 7.45 592 32300 (1941) 5 (1956) 1390 30 71 116 131 282 617 881 3770 6410
2026-04-20 22:00 7.46 597 32300 (1941) 5 (1956) 1390 30 71 116 131 282 617 881 3770 6410
2026-04-20 21:30 7.47 602 32300 (1941) 5 (1956) 1390 30 71 116 131 282 617 881 3770 6410
2026-04-20 21:00 7.50 617 32300 (1941) 5 (1956) 1390 30 71 116 131 282 617 881 3770 6410
2026-04-20 20:30 7.50 617 32300 (1941) 5 (1956) 1390 30 71 116 131 282 617 881 3770 6410
2026-04-20 20:00 7.52 627 32300 (1941) 5 (1956) 1390 30 71 116 131 282 617 881 3770 6410
2026-04-20 19:30 7.54 638 32300 (1941) 5 (1956) 1390 30 71 116 131 282 617 881 3770 6410
2026-04-20 19:00 7.55 643 32300 (1941) 5 (1956) 1390 30 71 116 131 282 617 881 3770 6410
2026-04-20 18:30 7.57 653 32300 (1941) 5 (1956) 1390 30 71 116 131 282 617 881 3770 6410
2026-04-20 18:00 7.55 643 32300 (1941) 5 (1956) 1390 30 71 116 131 282 617 881 3770 6410
2026-04-20 17:30 7.59 664 32300 (1941) 5 (1956) 1390 30 71 116 131 282 617 881 3770 6410
2026-04-20 17:00 7.55 643 32300 (1941) 5 (1956) 1390 30 71 116 131 282 617 881 3770 6410
2026-04-20 16:30 7.62 680 32300 (1941) 5 (1956) 1390 30 71 116 131 282 617 881 3770 6410
2026-04-20 16:00 7.66 701 32300 (1941) 5 (1956) 1390 30 71 116 131 282 617 881 3770 6410
2026-04-20 15:30 7.65 696 32300 (1941) 5 (1956) 1390 30 71 116 131 282 617 881 3770 6410
2026-04-20 15:00 7.70 723 32300 (1941) 5 (1956) 1390 30 71 116 131 282 617 881 3770 6410
2026-04-20 14:30 7.73 740 32300 (1941) 5 (1956) 1390 30 71 116 131 282 617 881 3770 6410
2026-04-20 14:00 7.74 745 32300 (1941) 5 (1956) 1390 30 71 116 131 282 617 881 3770 6410
2026-04-20 13:30 7.73 740 32300 (1941) 5 (1956) 1390 30 71 116 131 282 617 881 3770 6410
2026-04-20 13:00 7.78 768 32300 (1941) 5 (1956) 1390 30 71 116 131 282 617 881 3770 6410
2026-04-20 12:30 7.81 785 32300 (1941) 5 (1956) 1390 30 71 116 131 282 617 881 3770 6410
2026-04-20 12:00 7.82 791 32300 (1941) 5 (1956) 1390 30 71 116 131 282 617 881 3770 6410
2026-04-20 11:30 7.85 809 32300 (1941) 5 (1956) 1390 30 71 116 131 282 617 881 3770 6410
2026-04-20 11:00 7.87 821 32300 (1941) 5 (1956) 1390 30 71 116 131 282 617 881 3770 6410
2026-04-20 10:30 7.90 839 32300 (1941) 5 (1956) 1390 30 71 116 131 282 617 881 3770 6410
2026-04-20 10:00 7.91 845 32300 (1941) 5 (1956) 1390 30 71 116 131 282 617 881 3770 6410
2026-04-20 09:30 7.94 863 32300 (1941) 5 (1956) 1390 30 71 116 131 282 617 881 3770 6410
2026-04-20 09:00 7.96 875 32300 (1941) 5 (1956) 1390 30 71 116 131 282 617 881 3770 6410
2026-04-20 08:30 7.98 888 32300 (1941) 5 (1956) 1390 30 71 116 131 282 617 881 3770 6410
2026-04-20 08:00 8.01 907 32300 (1941) 5 (1956) 1390 30 71 116 131 282 617 881 3770 6410
2026-04-20 07:30 8.04 926 32300 (1941) 5 (1956) 1390 30 71 116 131 282 617 881 3770 6410
2026-04-20 07:00 8.07 945 32300 (1941) 5 (1956) 1390 30 71 116 131 282 617 881 3770 6410
2026-04-20 06:30 8.09 958 32300 (1941) 5 (1956) 1390 30 71 116 131 282 617 881 3770 6410
2026-04-20 06:00 8.11 971 32300 (1941) 5 (1956) 1390 30 71 116 131 282 617 881 3770 6410
2026-04-20 05:30 8.15 998 32300 (1941) 5 (1956) 1390 30 71 116 131 282 617 881 3770 6410
2026-04-20 05:00 8.17 1010 32300 (1941) 5 (1956) 1390 30 71 116 131 282 617 881 3770 6410
2026-04-20 04:30 8.20 1030 32300 (1941) 5 (1956) 1390 30 71 116 131 282 617 881 3770 6410
2026-04-20 04:00 8.23 1050 32300 (1941) 5 (1956) 1390 30 71 116 131 282 617 881 3770 6410
2026-04-20 03:30 8.25 1070 32300 (1941) 5 (1956) 1390 30 71 116 131 282 617 881 3770 6410
2026-04-20 03:00 8.29 1090 32300 (1941) 5 (1956) 1390 30 71 116 131 282 617 881 3770 6410
2026-04-20 02:30 8.31 1110 32300 (1941) 5 (1956) 1390 30 71 116 131 282 617 881 3770 6410
2026-04-20 02:00 8.35 1140 32300 (1941) 5 (1956) 1390 30 71 116 131 282 617 881 3770 6410
2026-04-20 01:30 8.37 1150 32300 (1941) 5 (1956) 1390 30 71 116 131 282 617 881 3770 6410
2026-04-20 01:00 8.40 1170 32300 (1941) 5 (1956) 1390 30 71 116 131 282 617 881 3770 6410
2026-04-20 00:30 8.44 1200 32300 (1941) 5 (1956) 1390 30 71 116 131 282 617 881 3770 6410
2026-04-20 00:00 8.47 1230 32300 (1941) 5 (1956) 1390 30 71 116 131 282 617 881 3770 6410
2026-04-19 23:30 8.50 1250 32300 (1941) 5 (1956) 1390 30 71 116 131 282 617 881 3770 6410
2026-04-19 23:00 8.53 1270 32300 (1941) 5 (1956) 1390 30 71 116 131 282 617 881 3770 6410
2026-04-19 22:30 8.56 1300 17800 (2013) 7 (1956) 1080 28 74 115 136 293 527 728 2170 4990
2026-04-19 22:00 8.60 1330 17800 (2013) 7 (1956) 1080 28 74 115 136 293 527 728 2170 4990
2026-04-19 21:30 8.63 1350 17800 (2013) 7 (1956) 1080 28 74 115 136 293 527 728 2170 4990
2026-04-19 21:00 8.65 1370 17800 (2013) 7 (1956) 1080 28 74 115 136 293 527 728 2170 4990
2026-04-19 20:30 8.69 1400 17800 (2013) 7 (1956) 1080 28 74 115 136 293 527 728 2170 4990
2026-04-19 20:00 8.73 1430 17800 (2013) 7 (1956) 1080 28 74 115 136 293 527 728 2170 4990
2026-04-19 19:30 8.75 1450 17800 (2013) 7 (1956) 1080 28 74 115 136 293 527 728 2170 4990
2026-04-19 19:00 8.78 1470 17800 (2013) 7 (1956) 1080 28 74 115 136 293 527 728 2170 4990
2026-04-19 18:30 8.83 1520 17800 (2013) 7 (1956) 1080 28 74 115 136 293 527 728 2170 4990
2026-04-19 18:00 8.86 1540 17800 (2013) 7 (1956) 1080 28 74 115 136 293 527 728 2170 4990
2026-04-19 17:30 8.91 1590 17800 (2013) 7 (1956) 1080 28 74 115 136 293 527 728 2170 4990
2026-04-19 17:00 8.94 1610 17800 (2013) 7 (1956) 1080 28 74 115 136 293 527 728 2170 4990
2026-04-19 16:30 8.98 1650 17800 (2013) 7 (1956) 1080 28 74 115 136 293 527 728 2170 4990
2026-04-19 16:00 9.02 1680 17800 (2013) 7 (1956) 1080 28 74 115 136 293 527 728 2170 4990
2026-04-19 15:30 9.04 1700 17800 (2013) 7 (1956) 1080 28 74 115 136 293 527 728 2170 4990
2026-04-19 15:00 9.08 1740 17800 (2013) 7 (1956) 1080 28 74 115 136 293 527 728 2170 4990
2026-04-19 14:30 9.14 1800 17800 (2013) 7 (1956) 1080 28 74 115 136 293 527 728 2170 4990
2026-04-19 14:00 9.16 1810 17800 (2013) 7 (1956) 1080 28 74 115 136 293 527 728 2170 4990
2026-04-19 13:30 9.20 1850 17800 (2013) 7 (1956) 1080 28 74 115 136 293 527 728 2170 4990
2026-04-19 13:00 9.27 1920 17800 (2013) 7 (1956) 1080 28 74 115 136 293 527 728 2170 4990
2026-04-19 12:30 9.30 1950 17800 (2013) 7 (1956) 1080 28 74 115 136 293 527 728 2170 4990
2026-04-19 12:00 9.35 2000 17800 (2013) 7 (1956) 1080 28 74 115 136 293 527 728 2170 4990
2026-04-19 11:30 9.40 2050 17800 (2013) 7 (1956) 1080 28 74 115 136 293 527 728 2170 4990
2026-04-19 11:00 9.45 2090 17800 (2013) 7 (1956) 1080 28 74 115 136 293 527 728 2170 4990
2026-04-19 10:30 9.52 2130 17800 (2013) 7 (1956) 1080 28 74 115 136 293 527 728 2170 4990
2026-04-19 10:00 9.56 2150 17800 (2013) 7 (1956) 1080 28 74 115 136 293 527 728 2170 4990
2026-04-19 09:30 9.66 2220 17800 (2013) 7 (1956) 1080 28 74 115 136 293 527 728 2170 4990
2026-04-19 09:00 9.73 2260 17800 (2013) 7 (1956) 1080 28 74 115 136 293 527 728 2170 4990
2026-04-19 08:30 9.80 2310 17800 (2013) 7 (1956) 1080 28 74 115 136 293 527 728 2170 4990
2026-04-19 08:00 9.90 2370 17800 (2013) 7 (1956) 1080 28 74 115 136 293 527 728 2170 4990
2026-04-19 07:30 9.99 2430 17800 (2013) 7 (1956) 1080 28 74 115 136 293 527 728 2170 4990
2026-04-19 07:00 10.12 2520 17800 (2013) 7 (1956) 1080 28 74 115 136 293 527 728 2170 4990
2026-04-19 06:30 10.22 2580 17800 (2013) 7 (1956) 1080 28 74 115 136 293 527 728 2170 4990
2026-04-19 06:00 10.34 2660 17800 (2013) 7 (1956) 1080 28 74 115 136 293 527 728 2170 4990
2026-04-19 05:30 10.46 2740 17800 (2013) 7 (1956) 1080 28 74 115 136 293 527 728 2170 4990
2026-04-19 05:00 10.61 2850 17800 (2013) 7 (1956) 1080 28 74 115 136 293 527 728 2170 4990
2026-04-19 04:30 10.76 2950 17800 (2013) 7 (1956) 1080 28 74 115 136 293 527 728 2170 4990
2026-04-19 04:00 10.91 3050 17800 (2013) 7 (1956) 1080 28 74 115 136 293 527 728 2170 4990
2026-04-19 03:30 11.07 3170 17800 (2013) 7 (1956) 1080 28 74 115 136 293 527 728 2170 4990
2026-04-19 03:00 11.26 3300 17800 (2013) 7 (1956) 1080 28 74 115 136 293 527 728 2170 4990
2026-04-19 02:30 11.44 3430 17800 (2013) 7 (1956) 1080 28 74 115 136 293 527 728 2170 4990
2026-04-19 02:00 11.66 3590 17800 (2013) 7 (1956) 1080 28 74 115 136 293 527 728 2170 4990
2026-04-19 01:30 11.86 3740 17800 (2013) 7 (1956) 1080 28 74 115 136 293 527 728 2170 4990
2026-04-19 01:00 12.10 3920 17800 (2013) 7 (1956) 1080 28 74 115 136 293 527 728 2170 4990
2026-04-19 00:30 12.34 4110 17800 (2013) 7 (1956) 1080 28 74 115 136 293 527 728 2170 4990
2026-04-19 00:00 12.57 4290 17800 (2013) 7 (1956) 1080 28 74 115 136 293 527 728 2170 4990
2026-04-18 23:30 12.81 4470 17800 (2013) 7 (1956) 1080 28 74 115 136 293 527 728 2170 4990
2026-04-18 23:00 13.07 4680 17800 (2013) 7 (1956) 1080 28 74 115 136 293 527 728 2170 4990
2026-04-18 22:30 13.32 4880 13000 (2013) 8 (1956) 931 24 71 124 147 305 713 857 1650 5020
2026-04-18 22:00 13.56 5080 13000 (2013) 8 (1956) 931 24 71 124 147 305 713 857 1650 5020
2026-04-18 21:30 13.79 5270 13000 (2013) 8 (1956) 931 24 71 124 147 305 713 857 1650 5020
2026-04-18 21:00 14.02 5460 13000 (2013) 8 (1956) 931 24 71 124 147 305 713 857 1650 5020
2026-04-18 20:30 14.23 5640 13000 (2013) 8 (1956) 931 24 71 124 147 305 713 857 1650 5020
2026-04-18 20:00 14.46 5840 13000 (2013) 8 (1956) 931 24 71 124 147 305 713 857 1650 5020
2026-04-18 19:30 14.65 6000 13000 (2013) 8 (1956) 931 24 71 124 147 305 713 857 1650 5020
2026-04-18 19:00 14.83 6160 13000 (2013) 8 (1956) 931 24 71 124 147 305 713 857 1650 5020
2026-04-18 18:30 15.00 6310 13000 (2013) 8 (1956) 931 24 71 124 147 305 713 857 1650 5020
2026-04-18 18:00 15.12 6410 13000 (2013) 8 (1956) 931 24 71 124 147 305 713 857 1650 5020
2026-04-18 17:30 15.19 6480 13000 (2013) 8 (1956) 931 24 71 124 147 305 713 857 1650 5020
2026-04-18 17:00 15.25 6530 13000 (2013) 8 (1956) 931 24 71 124 147 305 713 857 1650 5020
2026-04-18 16:30 15.23 6510 13000 (2013) 8 (1956) 931 24 71 124 147 305 713 857 1650 5020
2026-04-18 16:00 15.15 6440 13000 (2013) 8 (1956) 931 24 71 124 147 305 713 857 1650 5020
2026-04-18 15:30 15.03 6340 13000 (2013) 8 (1956) 931 24 71 124 147 305 713 857 1650 5020
2026-04-18 15:00 14.81 6140 13000 (2013) 8 (1956) 931 24 71 124 147 305 713 857 1650 5020
2026-04-18 14:30 14.49 5860 13000 (2013) 8 (1956) 931 24 71 124 147 305 713 857 1650 5020
2026-04-18 14:00 14.10 5530 13000 (2013) 8 (1956) 931 24 71 124 147 305 713 857 1650 5020
2026-04-18 13:30 13.55 5070 13000 (2013) 8 (1956) 931 24 71 124 147 305 713 857 1650 5020
2026-04-18 13:00 12.84 4500 13000 (2013) 8 (1956) 931 24 71 124 147 305 713 857 1650 5020
2026-04-18 12:30 11.97 3830 13000 (2013) 8 (1956) 931 24 71 124 147 305 713 857 1650 5020
2026-04-18 12:00 10.96 3090 13000 (2013) 8 (1956) 931 24 71 124 147 305 713 857 1650 5020
2026-04-18 11:30 9.77 2290 13000 (2013) 8 (1956) 931 24 71 124 147 305 713 857 1650 5020
2026-04-18 11:00 8.90 1580 13000 (2013) 8 (1956) 931 24 71 124 147 305 713 857 1650 5020
2026-04-18 10:30 8.74 1440 13000 (2013) 8 (1956) 931 24 71 124 147 305 713 857 1650 5020
2026-04-18 10:00 8.66 1370 13000 (2013) 8 (1956) 931 24 71 124 147 305 713 857 1650 5020
2026-04-18 09:30 8.50 1250 13000 (2013) 8 (1956) 931 24 71 124 147 305 713 857 1650 5020
2026-04-18 09:00 8.24 1060 13000 (2013) 8 (1956) 931 24 71 124 147 305 713 857 1650 5020
2026-04-18 08:30 7.83 797 13000 (2013) 8 (1956) 931 24 71 124 147 305 713 857 1650 5020
2026-04-18 08:00 7.39 563 13000 (2013) 8 (1956) 931 24 71 124 147 305 713 857 1650 5020
2026-04-18 07:30 7.16 460 13000 (2013) 8 (1956) 931 24 71 124 147 305 713 857 1650 5020
2026-04-18 07:00 7.06 419 13000 (2013) 8 (1956) 931 24 71 124 147 305 713 857 1650 5020
2026-04-18 06:30 6.97 384 13000 (2013) 8 (1956) 931 24 71 124 147 305 713 857 1650 5020
2026-04-18 06:00 6.85 340 13000 (2013) 8 (1956) 931 24 71 124 147 305 713 857 1650 5020
2026-04-18 05:30 6.66 276 13000 (2013) 8 (1956) 931 24 71 124 147 305 713 857 1650 5020
2026-04-18 05:00 6.57 244 13000 (2013) 8 (1956) 931 24 71 124 147 305 713 857 1650 5020
2026-04-18 04:30 6.47 208 13000 (2013) 8 (1956) 931 24 71 124 147 305 713 857 1650 5020
2026-04-18 04:00 6.44 199 13000 (2013) 8 (1956) 931 24 71 124 147 305 713 857 1650 5020
2026-04-18 03:30 6.38 180 13000 (2013) 8 (1956) 931 24 71 124 147 305 713 857 1650 5020
2026-04-18 03:00 6.37 177 13000 (2013) 8 (1956) 931 24 71 124 147 305 713 857 1650 5020
2026-04-18 02:30 6.28 151 13000 (2013) 8 (1956) 931 24 71 124 147 305 713 857 1650 5020
2026-04-18 02:00 6.25 143 13000 (2013) 8 (1956) 931 24 71 124 147 305 713 857 1650 5020
2026-04-18 01:30 6.24 141 13000 (2013) 8 (1956) 931 24 71 124 147 305 713 857 1650 5020
2026-04-18 01:00 6.24 141 13000 (2013) 8 (1956) 931 24 71 124 147 305 713 857 1650 5020
2026-04-18 00:30 6.25 143 13000 (2013) 8 (1956) 931 24 71 124 147 305 713 857 1650 5020
2026-04-18 00:00 6.25 143 13000 (2013) 8 (1956) 931 24 71 124 147 305 713 857 1650 5020
2026-04-17 23:30 6.23 138 13000 (2013) 8 (1956) 931 24 71 124 147 305 713 857 1650 5020
2026-04-17 23:00 6.23 138 13000 (2013) 8 (1956) 931 24 71 124 147 305 713 857 1650 5020
2026-04-17 22:30 6.23 138 22500 (1939) 10 (1956) 1230 39 78 127 148 306 707 947 2650 7300
2026-04-17 22:00 6.16 121 22500 (1939) 10 (1956) 1230 39 78 127 148 306 707 947 2650 7300
2026-04-17 21:30 6.18 126 22500 (1939) 10 (1956) 1230 39 78 127 148 306 707 947 2650 7300
2026-04-17 21:00 6.17 123 22500 (1939) 10 (1956) 1230 39 78 127 148 306 707 947 2650 7300
2026-04-17 20:30 6.18 126 22500 (1939) 10 (1956) 1230 39 78 127 148 306 707 947 2650 7300
2026-04-17 20:00 6.18 126 22500 (1939) 10 (1956) 1230 39 78 127 148 306 707 947 2650 7300
2026-04-17 19:30 6.15 119 22500 (1939) 10 (1956) 1230 39 78 127 148 306 707 947 2650 7300
2026-04-17 19:00 6.13 114 22500 (1939) 10 (1956) 1230 39 78 127 148 306 707 947 2650 7300
2026-04-17 18:30 6.18 126 22500 (1939) 10 (1956) 1230 39 78 127 148 306 707 947 2650 7300
2026-04-17 18:00 6.18 126 22500 (1939) 10 (1956) 1230 39 78 127 148 306 707 947 2650 7300
2026-04-17 17:30 6.18 126 22500 (1939) 10 (1956) 1230 39 78 127 148 306 707 947 2650 7300
2026-04-17 17:00 6.15 119 22500 (1939) 10 (1956) 1230 39 78 127 148 306 707 947 2650 7300
2026-04-17 16:30 6.14 117 22500 (1939) 10 (1956) 1230 39 78 127 148 306 707 947 2650 7300
2026-04-17 16:00 6.17 123 22500 (1939) 10 (1956) 1230 39 78 127 148 306 707 947 2650 7300
2026-04-17 15:30 6.18 126 22500 (1939) 10 (1956) 1230 39 78 127 148 306 707 947 2650 7300
2026-04-17 15:00 6.15 119 22500 (1939) 10 (1956) 1230 39 78 127 148 306 707 947 2650 7300
2026-04-17 14:30 6.18 126 22500 (1939) 10 (1956) 1230 39 78 127 148 306 707 947 2650 7300
2026-04-17 14:00 6.18 126 22500 (1939) 10 (1956) 1230 39 78 127 148 306 707 947 2650 7300
2026-04-17 13:30 6.14 117 22500 (1939) 10 (1956) 1230 39 78 127 148 306 707 947 2650 7300
2026-04-17 13:00 6.19 128 22500 (1939) 10 (1956) 1230 39 78 127 148 306 707 947 2650 7300
2026-04-17 12:30 6.18 126 22500 (1939) 10 (1956) 1230 39 78 127 148 306 707 947 2650 7300
2026-04-17 12:00 6.15 119 22500 (1939) 10 (1956) 1230 39 78 127 148 306 707 947 2650 7300
2026-04-17 11:30 6.15 119 22500 (1939) 10 (1956) 1230 39 78 127 148 306 707 947 2650 7300
2026-04-17 11:00 6.14 117 22500 (1939) 10 (1956) 1230 39 78 127 148 306 707 947 2650 7300
2026-04-17 10:30 6.18 126 22500 (1939) 10 (1956) 1230 39 78 127 148 306 707 947 2650 7300
2026-04-17 10:00 6.19 128 22500 (1939) 10 (1956) 1230 39 78 127 148 306 707 947 2650 7300
2026-04-17 09:30 6.19 128 22500 (1939) 10 (1956) 1230 39 78 127 148 306 707 947 2650 7300
2026-04-17 09:00 6.19 128 22500 (1939) 10 (1956) 1230 39 78 127 148 306 707 947 2650 7300
2026-04-17 08:30 6.20 131 22500 (1939) 10 (1956) 1230 39 78 127 148 306 707 947 2650 7300
2026-04-17 08:00 6.20 131 22500 (1939) 10 (1956) 1230 39 78 127 148 306 707 947 2650 7300
2026-04-17 07:30 6.20 131 22500 (1939) 10 (1956) 1230 39 78 127 148 306 707 947 2650 7300
2026-04-17 07:00 6.21 133 22500 (1939) 10 (1956) 1230 39 78 127 148 306 707 947 2650 7300
2026-04-17 06:30 6.20 131 22500 (1939) 10 (1956) 1230 39 78 127 148 306 707 947 2650 7300
2026-04-17 06:00 6.20 131 22500 (1939) 10 (1956) 1230 39 78 127 148 306 707 947 2650 7300
2026-04-17 05:30 6.21 133 22500 (1939) 10 (1956) 1230 39 78 127 148 306 707 947 2650 7300
2026-04-17 05:00 6.21 133 22500 (1939) 10 (1956) 1230 39 78 127 148 306 707 947 2650 7300
2026-04-17 04:30 6.21 133 22500 (1939) 10 (1956) 1230 39 78 127 148 306 707 947 2650 7300
2026-04-17 04:00 6.21 133 22500 (1939) 10 (1956) 1230 39 78 127 148 306 707 947 2650 7300
2026-04-17 03:30 6.21 133 22500 (1939) 10 (1956) 1230 39 78 127 148 306 707 947 2650 7300
2026-04-17 03:00 6.21 133 22500 (1939) 10 (1956) 1230 39 78 127 148 306 707 947 2650 7300
2026-04-17 02:30 6.21 133 22500 (1939) 10 (1956) 1230 39 78 127 148 306 707 947 2650 7300
2026-04-17 02:00 6.21 133 22500 (1939) 10 (1956) 1230 39 78 127 148 306 707 947 2650 7300
2026-04-17 01:30 6.21 133 22500 (1939) 10 (1956) 1230 39 78 127 148 306 707 947 2650 7300
2026-04-17 01:00 6.21 133 22500 (1939) 10 (1956) 1230 39 78 127 148 306 707 947 2650 7300
2026-04-17 00:30 6.21 133 22500 (1939) 10 (1956) 1230 39 78 127 148 306 707 947 2650 7300
2026-04-17 00:00 6.21 133 22500 (1939) 10 (1956) 1230 39 78 127 148 306 707 947 2650 7300
2026-04-16 23:30 6.21 133 22500 (1939) 10 (1956) 1230 39 78 127 148 306 707 947 2650 7300
2026-04-16 23:00 6.21 133 22500 (1939) 10 (1956) 1230 39 78 127 148 306 707 947 2650 7300
2026-04-16 22:30 6.21 133 28500 (1939) 10 (1956) 1380 47 74 121 154 276 855 965 3370 8330
2026-04-16 22:00 6.21 133 28500 (1939) 10 (1956) 1380 47 74 121 154 276 855 965 3370 8330
2026-04-16 21:30 6.21 133 28500 (1939) 10 (1956) 1380 47 74 121 154 276 855 965 3370 8330
2026-04-16 21:00 6.21 133 28500 (1939) 10 (1956) 1380 47 74 121 154 276 855 965 3370 8330
2026-04-16 20:30 6.21 133 28500 (1939) 10 (1956) 1380 47 74 121 154 276 855 965 3370 8330
2026-04-16 20:00 6.22 136 28500 (1939) 10 (1956) 1380 47 74 121 154 276 855 965 3370 8330
2026-04-16 19:30 6.21 133 28500 (1939) 10 (1956) 1380 47 74 121 154 276 855 965 3370 8330
2026-04-16 19:00 6.22 136 28500 (1939) 10 (1956) 1380 47 74 121 154 276 855 965 3370 8330
2026-04-16 18:30 6.20 131 28500 (1939) 10 (1956) 1380 47 74 121 154 276 855 965 3370 8330
2026-04-16 18:00 6.22 136 28500 (1939) 10 (1956) 1380 47 74 121 154 276 855 965 3370 8330
2026-04-16 17:30 6.22 136 28500 (1939) 10 (1956) 1380 47 74 121 154 276 855 965 3370 8330
2026-04-16 17:00 6.22 136 28500 (1939) 10 (1956) 1380 47 74 121 154 276 855 965 3370 8330
2026-04-16 16:30 6.23 138 28500 (1939) 10 (1956) 1380 47 74 121 154 276 855 965 3370 8330
2026-04-16 16:00 6.23 138 28500 (1939) 10 (1956) 1380 47 74 121 154 276 855 965 3370 8330
2026-04-16 15:30 6.23 138 28500 (1939) 10 (1956) 1380 47 74 121 154 276 855 965 3370 8330
2026-04-16 15:00 6.17 123 28500 (1939) 10 (1956) 1380 47 74 121 154 276 855 965 3370 8330
2026-04-16 14:30 6.23 138 28500 (1939) 10 (1956) 1380 47 74 121 154 276 855 965 3370 8330
2026-04-16 14:00 6.20 131 28500 (1939) 10 (1956) 1380 47 74 121 154 276 855 965 3370 8330
2026-04-16 13:30 6.23 138 28500 (1939) 10 (1956) 1380 47 74 121 154 276 855 965 3370 8330
2026-04-16 13:00 6.19 128 28500 (1939) 10 (1956) 1380 47 74 121 154 276 855 965 3370 8330
2026-04-16 12:30 6.18 126 28500 (1939) 10 (1956) 1380 47 74 121 154 276 855 965 3370 8330
2026-04-16 12:00 6.17 123 28500 (1939) 10 (1956) 1380 47 74 121 154 276 855 965 3370 8330
2026-04-16 11:30 6.21 133 28500 (1939) 10 (1956) 1380 47 74 121 154 276 855 965 3370 8330
2026-04-16 11:00 6.19 128 28500 (1939) 10 (1956) 1380 47 74 121 154 276 855 965 3370 8330
2026-04-16 10:30 6.18 126 28500 (1939) 10 (1956) 1380 47 74 121 154 276 855 965 3370 8330
2026-04-16 10:00 6.21 133 28500 (1939) 10 (1956) 1380 47 74 121 154 276 855 965 3370 8330
2026-04-16 09:30 6.18 126 28500 (1939) 10 (1956) 1380 47 74 121 154 276 855 965 3370 8330
2026-04-16 09:00 6.18 126 28500 (1939) 10 (1956) 1380 47 74 121 154 276 855 965 3370 8330
2026-04-16 08:30 6.24 141 28500 (1939) 10 (1956) 1380 47 74 121 154 276 855 965 3370 8330
2026-04-16 08:00 6.24 141 28500 (1939) 10 (1956) 1380 47 74 121 154 276 855 965 3370 8330
2026-04-16 07:30 6.24 141 28500 (1939) 10 (1956) 1380 47 74 121 154 276 855 965 3370 8330
2026-04-16 07:00 6.24 141 28500 (1939) 10 (1956) 1380 47 74 121 154 276 855 965 3370 8330
2026-04-16 06:30 6.24 141 28500 (1939) 10 (1956) 1380 47 74 121 154 276 855 965 3370 8330
2026-04-16 06:00 6.24 141 28500 (1939) 10 (1956) 1380 47 74 121 154 276 855 965 3370 8330
2026-04-16 05:30 6.24 141 28500 (1939) 10 (1956) 1380 47 74 121 154 276 855 965 3370 8330
2026-04-16 05:00 6.24 141 28500 (1939) 10 (1956) 1380 47 74 121 154 276 855 965 3370 8330
2026-04-16 04:30 6.24 141 28500 (1939) 10 (1956) 1380 47 74 121 154 276 855 965 3370 8330
2026-04-16 04:00 6.24 141 28500 (1939) 10 (1956) 1380 47 74 121 154 276 855 965 3370 8330
2026-04-16 03:30 6.24 141 28500 (1939) 10 (1956) 1380 47 74 121 154 276 855 965 3370 8330
2026-04-16 03:00 6.24 141 28500 (1939) 10 (1956) 1380 47 74 121 154 276 855 965 3370 8330
2026-04-16 02:30 6.23 138 28500 (1939) 10 (1956) 1380 47 74 121 154 276 855 965 3370 8330
2026-04-16 02:00 6.20 131 28500 (1939) 10 (1956) 1380 47 74 121 154 276 855 965 3370 8330
2026-04-16 01:30 6.23 138 28500 (1939) 10 (1956) 1380 47 74 121 154 276 855 965 3370 8330
2026-04-16 01:00 6.21 133 28500 (1939) 10 (1956) 1380 47 74 121 154 276 855 965 3370 8330
2026-04-16 00:30 6.16 121 28500 (1939) 10 (1956) 1380 47 74 121 154 276 855 965 3370 8330
2026-04-16 00:00 6.17 123 28500 (1939) 10 (1956) 1380 47 74 121 154 276 855 965 3370 8330
2026-04-15 23:30 6.23 138 28500 (1939) 10 (1956) 1380 47 74 121 154 276 855 965 3370 8330
2026-04-15 23:00 6.22 136 28500 (1939) 10 (1956) 1380 47 74 121 154 276 855 965 3370 8330
2026-04-15 22:30 6.20 131 20400 (1993) 8 (1956) 1350 45 74 119 140 316 886 1310 4330 6840
2026-04-15 22:00 6.19 128 20400 (1993) 8 (1956) 1350 45 74 119 140 316 886 1310 4330 6840
2026-04-15 21:30 6.14 117 20400 (1993) 8 (1956) 1350 45 74 119 140 316 886 1310 4330 6840
2026-04-15 21:00 6.14 117 20400 (1993) 8 (1956) 1350 45 74 119 140 316 886 1310 4330 6840
2026-04-15 20:30 6.19 128 20400 (1993) 8 (1956) 1350 45 74 119 140 316 886 1310 4330 6840
2026-04-15 20:00 6.19 128 20400 (1993) 8 (1956) 1350 45 74 119 140 316 886 1310 4330 6840
2026-04-15 19:30 6.19 128 20400 (1993) 8 (1956) 1350 45 74 119 140 316 886 1310 4330 6840
2026-04-15 19:00 6.19 128 20400 (1993) 8 (1956) 1350 45 74 119 140 316 886 1310 4330 6840
2026-04-15 18:30 6.19 128 20400 (1993) 8 (1956) 1350 45 74 119 140 316 886 1310 4330 6840
2026-04-15 18:00 6.18 126 20400 (1993) 8 (1956) 1350 45 74 119 140 316 886 1310 4330 6840
2026-04-15 17:30 6.15 119 20400 (1993) 8 (1956) 1350 45 74 119 140 316 886 1310 4330 6840
2026-04-15 17:00 6.20 131 20400 (1993) 8 (1956) 1350 45 74 119 140 316 886 1310 4330 6840
2026-04-15 16:30 6.20 131 20400 (1993) 8 (1956) 1350 45 74 119 140 316 886 1310 4330 6840
2026-04-15 16:00 6.20 131 20400 (1993) 8 (1956) 1350 45 74 119 140 316 886 1310 4330 6840
2026-04-15 15:30 6.20 131 20400 (1993) 8 (1956) 1350 45 74 119 140 316 886 1310 4330 6840
2026-04-15 15:00 6.18 126 20400 (1993) 8 (1956) 1350 45 74 119 140 316 886 1310 4330 6840
2026-04-15 14:30 6.20 131 20400 (1993) 8 (1956) 1350 45 74 119 140 316 886 1310 4330 6840
2026-04-15 14:00 6.18 126 20400 (1993) 8 (1956) 1350 45 74 119 140 316 886 1310 4330 6840
2026-04-15 13:30 6.20 131 20400 (1993) 8 (1956) 1350 45 74 119 140 316 886 1310 4330 6840
2026-04-15 13:00 6.18 126 20400 (1993) 8 (1956) 1350 45 74 119 140 316 886 1310 4330 6840
2026-04-15 12:30 6.19 128 20400 (1993) 8 (1956) 1350 45 74 119 140 316 886 1310 4330 6840
2026-04-15 12:00 6.21 133 20400 (1993) 8 (1956) 1350 45 74 119 140 316 886 1310 4330 6840
2026-04-15 11:30 6.20 131 20400 (1993) 8 (1956) 1350 45 74 119 140 316 886 1310 4330 6840
2026-04-15 11:00 6.22 136 20400 (1993) 8 (1956) 1350 45 74 119 140 316 886 1310 4330 6840
2026-04-15 10:30 6.21 133 20400 (1993) 8 (1956) 1350 45 74 119 140 316 886 1310 4330 6840
2026-04-15 10:00 6.22 136 20400 (1993) 8 (1956) 1350 45 74 119 140 316 886 1310 4330 6840
2026-04-15 09:30 6.16 121 20400 (1993) 8 (1956) 1350 45 74 119 140 316 886 1310 4330 6840
2026-04-15 09:00 6.15 119 20400 (1993) 8 (1956) 1350 45 74 119 140 316 886 1310 4330 6840
2026-04-15 08:30 6.22 136 20400 (1993) 8 (1956) 1350 45 74 119 140 316 886 1310 4330 6840
2026-04-15 08:00 6.22 136 20400 (1993) 8 (1956) 1350 45 74 119 140 316 886 1310 4330 6840
2026-04-15 07:30 6.22 136 20400 (1993) 8 (1956) 1350 45 74 119 140 316 886 1310 4330 6840
2026-04-15 07:00 6.22 136 20400 (1993) 8 (1956) 1350 45 74 119 140 316 886 1310 4330 6840
2026-04-15 06:30 6.22 136 20400 (1993) 8 (1956) 1350 45 74 119 140 316 886 1310 4330 6840
2026-04-15 06:00 6.23 138 20400 (1993) 8 (1956) 1350 45 74 119 140 316 886 1310 4330 6840
2026-04-15 05:30 6.23 138 20400 (1993) 8 (1956) 1350 45 74 119 140 316 886 1310 4330 6840
2026-04-15 05:00 6.23 138 20400 (1993) 8 (1956) 1350 45 74 119 140 316 886 1310 4330 6840
2026-04-15 04:30 6.20 131 20400 (1993) 8 (1956) 1350 45 74 119 140 316 886 1310 4330 6840
2026-04-15 04:00 6.16 121 20400 (1993) 8 (1956) 1350 45 74 119 140 316 886 1310 4330 6840
2026-04-15 03:30 6.17 123 20400 (1993) 8 (1956) 1350 45 74 119 140 316 886 1310 4330 6840
2026-04-15 03:00 6.18 126 20400 (1993) 8 (1956) 1350 45 74 119 140 316 886 1310 4330 6840
2026-04-15 02:30 6.18 126 20400 (1993) 8 (1956) 1350 45 74 119 140 316 886 1310 4330 6840
2026-04-15 02:00 6.20 131 20400 (1993) 8 (1956) 1350 45 74 119 140 316 886 1310 4330 6840
2026-04-15 01:30 6.23 138 20400 (1993) 8 (1956) 1350 45 74 119 140 316 886 1310 4330 6840
2026-04-15 01:00 6.22 136 20400 (1993) 8 (1956) 1350 45 74 119 140 316 886 1310 4330 6840
2026-04-15 00:30 6.24 141 20400 (1993) 8 (1956) 1350 45 74 119 140 316 886 1310 4330 6840
2026-04-15 00:00 6.20 131 20400 (1993) 8 (1956) 1350 45 74 119 140 316 886 1310 4330 6840
2026-04-14 23:30 6.22 136 20400 (1993) 8 (1956) 1350 45 74 119 140 316 886 1310 4330 6840
2026-04-14 23:00 6.17 123 20400 (1993) 8 (1956) 1350 45 74 119 140 316 886 1310 4330 6840
2026-04-14 22:30 6.20 131 14700 (1922) 8 (1956) 1320 50 78 133 149 295 932 1420 3530 6270
2026-04-14 22:00 6.21 133 14700 (1922) 8 (1956) 1320 50 78 133 149 295 932 1420 3530 6270
2026-04-14 21:30 6.19 128 14700 (1922) 8 (1956) 1320 50 78 133 149 295 932 1420 3530 6270
2026-04-14 21:00 6.22 136 14700 (1922) 8 (1956) 1320 50 78 133 149 295 932 1420 3530 6270
2026-04-14 20:30 6.24 141 14700 (1922) 8 (1956) 1320 50 78 133 149 295 932 1420 3530 6270
2026-04-14 20:00 6.24 141 14700 (1922) 8 (1956) 1320 50 78 133 149 295 932 1420 3530 6270
2026-04-14 19:30 6.21 133 14700 (1922) 8 (1956) 1320 50 78 133 149 295 932 1420 3530 6270
2026-04-14 19:00 6.24 141 14700 (1922) 8 (1956) 1320 50 78 133 149 295 932 1420 3530 6270
2026-04-14 18:30 6.25 143 14700 (1922) 8 (1956) 1320 50 78 133 149 295 932 1420 3530 6270
2026-04-14 18:00 6.19 128 14700 (1922) 8 (1956) 1320 50 78 133 149 295 932 1420 3530 6270
2026-04-14 17:30 6.21 133 14700 (1922) 8 (1956) 1320 50 78 133 149 295 932 1420 3530 6270
2026-04-14 17:00 6.25 143 14700 (1922) 8 (1956) 1320 50 78 133 149 295 932 1420 3530 6270
2026-04-14 16:30 6.26 146 14700 (1922) 8 (1956) 1320 50 78 133 149 295 932 1420 3530 6270
2026-04-14 16:00 6.21 133 14700 (1922) 8 (1956) 1320 50 78 133 149 295 932 1420 3530 6270
2026-04-14 15:30 6.26 146 14700 (1922) 8 (1956) 1320 50 78 133 149 295 932 1420 3530 6270
2026-04-14 15:00 6.24 141 14700 (1922) 8 (1956) 1320 50 78 133 149 295 932 1420 3530 6270
2026-04-14 14:30 6.23 138 14700 (1922) 8 (1956) 1320 50 78 133 149 295 932 1420 3530 6270
2026-04-14 14:00 6.21 133 14700 (1922) 8 (1956) 1320 50 78 133 149 295 932 1420 3530 6270
2026-04-14 13:30 6.25 143 14700 (1922) 8 (1956) 1320 50 78 133 149 295 932 1420 3530 6270
2026-04-14 13:00 6.26 146 14700 (1922) 8 (1956) 1320 50 78 133 149 295 932 1420 3530 6270
2026-04-14 12:30 6.25 143 14700 (1922) 8 (1956) 1320 50 78 133 149 295 932 1420 3530 6270
2026-04-14 12:00 6.24 141 14700 (1922) 8 (1956) 1320 50 78 133 149 295 932 1420 3530 6270
2026-04-14 10:00 6.26 146 14700 (1922) 8 (1956) 1320 50 78 133 149 295 932 1420 3530 6270
2026-04-14 09:00 6.28 151 14700 (1922) 8 (1956) 1320 50 78 133 149 295 932 1420 3530 6270
2026-04-14 08:30 6.28 151 14700 (1922) 8 (1956) 1320 50 78 133 149 295 932 1420 3530 6270
2026-04-14 08:00 6.28 151 14700 (1922) 8 (1956) 1320 50 78 133 149 295 932 1420 3530 6270
2026-04-14 07:30 6.28 151 14700 (1922) 8 (1956) 1320 50 78 133 149 295 932 1420 3530 6270
2026-04-14 07:00 6.28 151 14700 (1922) 8 (1956) 1320 50 78 133 149 295 932 1420 3530 6270
2026-04-14 06:30 6.28 151 14700 (1922) 8 (1956) 1320 50 78 133 149 295 932 1420 3530 6270
2026-04-14 06:00 6.29 154 14700 (1922) 8 (1956) 1320 50 78 133 149 295 932 1420 3530 6270
2026-04-14 05:30 6.29 154 14700 (1922) 8 (1956) 1320 50 78 133 149 295 932 1420 3530 6270
2026-04-14 05:00 6.29 154 14700 (1922) 8 (1956) 1320 50 78 133 149 295 932 1420 3530 6270
2026-04-14 04:30 6.29 154 14700 (1922) 8 (1956) 1320 50 78 133 149 295 932 1420 3530 6270
2026-04-14 04:00 6.29 154 14700 (1922) 8 (1956) 1320 50 78 133 149 295 932 1420 3530 6270
2026-04-14 03:30 6.29 154 14700 (1922) 8 (1956) 1320 50 78 133 149 295 932 1420 3530 6270
2026-04-14 03:00 6.29 154 14700 (1922) 8 (1956) 1320 50 78 133 149 295 932 1420 3530 6270
2026-04-14 02:30 6.28 151 14700 (1922) 8 (1956) 1320 50 78 133 149 295 932 1420 3530 6270
2026-04-14 02:00 6.23 138 14700 (1922) 8 (1956) 1320 50 78 133 149 295 932 1420 3530 6270
2026-04-14 01:30 6.25 143 14700 (1922) 8 (1956) 1320 50 78 133 149 295 932 1420 3530 6270
2026-04-14 01:00 6.25 143 14700 (1922) 8 (1956) 1320 50 78 133 149 295 932 1420 3530 6270
2026-04-14 00:30 6.24 141 14700 (1922) 8 (1956) 1320 50 78 133 149 295 932 1420 3530 6270
2026-04-14 00:00 6.26 146 14700 (1922) 8 (1956) 1320 50 78 133 149 295 932 1420 3530 6270
2026-04-13 23:30 6.25 143 14700 (1922) 8 (1956) 1320 50 78 133 149 295 932 1420 3530 6270
2026-04-13 23:00 6.28 151 14700 (1922) 8 (1956) 1320 50 78 133 149 295 932 1420 3530 6270
2026-04-13 22:30 6.27 148 36100 (1927) 8 (1956) 1440 52 83 114 152 294 944 1280 2770 5700
2026-04-13 22:00 6.28 151 36100 (1927) 8 (1956) 1440 52 83 114 152 294 944 1280 2770 5700
2026-04-13 21:30 6.29 154 36100 (1927) 8 (1956) 1440 52 83 114 152 294 944 1280 2770 5700
2026-04-13 20:30 6.29 154 36100 (1927) 8 (1956) 1440 52 83 114 152 294 944 1280 2770 5700
2026-04-13 20:00 6.29 154 36100 (1927) 8 (1956) 1440 52 83 114 152 294 944 1280 2770 5700
2026-04-13 19:30 6.29 154 36100 (1927) 8 (1956) 1440 52 83 114 152 294 944 1280 2770 5700
2026-04-13 19:00 6.30 157 36100 (1927) 8 (1956) 1440 52 83 114 152 294 944 1280 2770 5700
2026-04-13 18:30 6.21 133 36100 (1927) 8 (1956) 1440 52 83 114 152 294 944 1280 2770 5700
2026-04-13 18:00 6.28 151 36100 (1927) 8 (1956) 1440 52 83 114 152 294 944 1280 2770 5700
2026-04-13 17:30 6.25 143 36100 (1927) 8 (1956) 1440 52 83 114 152 294 944 1280 2770 5700
2026-04-13 17:00 6.30 157 36100 (1927) 8 (1956) 1440 52 83 114 152 294 944 1280 2770 5700
2026-04-13 16:30 6.30 157 36100 (1927) 8 (1956) 1440 52 83 114 152 294 944 1280 2770 5700
2026-04-13 16:00 6.30 157 36100 (1927) 8 (1956) 1440 52 83 114 152 294 944 1280 2770 5700
2026-04-13 15:30 6.30 157 36100 (1927) 8 (1956) 1440 52 83 114 152 294 944 1280 2770 5700
2026-04-13 15:00 6.29 154 36100 (1927) 8 (1956) 1440 52 83 114 152 294 944 1280 2770 5700
2026-04-13 14:30 6.30 157 36100 (1927) 8 (1956) 1440 52 83 114 152 294 944 1280 2770 5700
2026-04-13 14:00 6.25 143 36100 (1927) 8 (1956) 1440 52 83 114 152 294 944 1280 2770 5700
2026-04-13 13:30 6.29 154 36100 (1927) 8 (1956) 1440 52 83 114 152 294 944 1280 2770 5700
2026-04-13 13:00 6.31 159 36100 (1927) 8 (1956) 1440 52 83 114 152 294 944 1280 2770 5700
2026-04-13 12:30 6.31 159 36100 (1927) 8 (1956) 1440 52 83 114 152 294 944 1280 2770 5700
2026-04-13 12:00 6.31 159 36100 (1927) 8 (1956) 1440 52 83 114 152 294 944 1280 2770 5700
2026-04-13 11:30 6.28 151 36100 (1927) 8 (1956) 1440 52 83 114 152 294 944 1280 2770 5700
2026-04-13 11:00 6.31 159 36100 (1927) 8 (1956) 1440 52 83 114 152 294 944 1280 2770 5700
2026-04-13 10:30 6.31 159 36100 (1927) 8 (1956) 1440 52 83 114 152 294 944 1280 2770 5700
2026-04-13 10:00 6.31 159 36100 (1927) 8 (1956) 1440 52 83 114 152 294 944 1280 2770 5700
2026-04-13 09:30 6.32 162 36100 (1927) 8 (1956) 1440 52 83 114 152 294 944 1280 2770 5700
2026-04-13 09:00 6.32 162 36100 (1927) 8 (1956) 1440 52 83 114 152 294 944 1280 2770 5700
2026-04-13 08:30 6.32 162 36100 (1927) 8 (1956) 1440 52 83 114 152 294 944 1280 2770 5700
2026-04-13 08:00 6.33 165 36100 (1927) 8 (1956) 1440 52 83 114 152 294 944 1280 2770 5700
2026-04-13 07:30 6.33 165 36100 (1927) 8 (1956) 1440 52 83 114 152 294 944 1280 2770 5700
2026-04-13 07:00 6.33 165 36100 (1927) 8 (1956) 1440 52 83 114 152 294 944 1280 2770 5700
2026-04-13 06:30 6.33 165 36100 (1927) 8 (1956) 1440 52 83 114 152 294 944 1280 2770 5700
2026-04-13 06:00 6.33 165 36100 (1927) 8 (1956) 1440 52 83 114 152 294 944 1280 2770 5700
2026-04-13 05:30 6.33 165 36100 (1927) 8 (1956) 1440 52 83 114 152 294 944 1280 2770 5700
2026-04-13 05:00 6.33 165 36100 (1927) 8 (1956) 1440 52 83 114 152 294 944 1280 2770 5700
2026-04-13 04:30 6.34 168 36100 (1927) 8 (1956) 1440 52 83 114 152 294 944 1280 2770 5700
2026-04-13 04:00 6.33 165 36100 (1927) 8 (1956) 1440 52 83 114 152 294 944 1280 2770 5700
2026-04-13 03:30 6.34 168 36100 (1927) 8 (1956) 1440 52 83 114 152 294 944 1280 2770 5700
2026-04-13 03:00 6.34 168 36100 (1927) 8 (1956) 1440 52 83 114 152 294 944 1280 2770 5700
2026-04-13 02:30 6.34 168 36100 (1927) 8 (1956) 1440 52 83 114 152 294 944 1280 2770 5700
2026-04-13 02:00 6.34 168 36100 (1927) 8 (1956) 1440 52 83 114 152 294 944 1280 2770 5700
2026-04-13 01:30 6.34 168 36100 (1927) 8 (1956) 1440 52 83 114 152 294 944 1280 2770 5700
2026-04-13 01:00 6.34 168 36100 (1927) 8 (1956) 1440 52 83 114 152 294 944 1280 2770 5700
2026-04-13 00:30 6.34 168 36100 (1927) 8 (1956) 1440 52 83 114 152 294 944 1280 2770 5700
2026-04-13 00:00 6.34 168 36100 (1927) 8 (1956) 1440 52 83 114 152 294 944 1280 2770 5700
2026-04-12 23:30 6.35 171 36100 (1927) 8 (1956) 1440 52 83 114 152 294 944 1280 2770 5700
2026-04-12 23:00 6.35 171 36100 (1927) 8 (1956) 1440 52 83 114 152 294 944 1280 2770 5700
2026-04-12 22:30 6.35 171 72000 (1994) 8 (1956) 1850 45 83 115 151 318 1030 1130 3110 5920
2026-04-12 22:00 6.35 171 72000 (1994) 8 (1956) 1850 45 83 115 151 318 1030 1130 3110 5920
2026-04-12 21:30 6.35 171 72000 (1994) 8 (1956) 1850 45 83 115 151 318 1030 1130 3110 5920
2026-04-12 21:00 6.35 171 72000 (1994) 8 (1956) 1850 45 83 115 151 318 1030 1130 3110 5920
2026-04-12 20:30 6.36 174 72000 (1994) 8 (1956) 1850 45 83 115 151 318 1030 1130 3110 5920
2026-04-12 20:00 6.36 174 72000 (1994) 8 (1956) 1850 45 83 115 151 318 1030 1130 3110 5920
2026-04-12 19:30 6.36 174 72000 (1994) 8 (1956) 1850 45 83 115 151 318 1030 1130 3110 5920
2026-04-12 19:00 6.30 157 72000 (1994) 8 (1956) 1850 45 83 115 151 318 1030 1130 3110 5920
2026-04-12 18:30 6.28 151 72000 (1994) 8 (1956) 1850 45 83 115 151 318 1030 1130 3110 5920
2026-04-12 18:00 6.33 165 72000 (1994) 8 (1956) 1850 45 83 115 151 318 1030 1130 3110 5920
2026-04-12 17:30 6.35 171 72000 (1994) 8 (1956) 1850 45 83 115 151 318 1030 1130 3110 5920
2026-04-12 17:00 6.37 177 72000 (1994) 8 (1956) 1850 45 83 115 151 318 1030 1130 3110 5920
2026-04-12 16:30 6.37 177 72000 (1994) 8 (1956) 1850 45 83 115 151 318 1030 1130 3110 5920
2026-04-12 16:00 6.37 177 72000 (1994) 8 (1956) 1850 45 83 115 151 318 1030 1130 3110 5920
2026-04-12 15:30 6.34 168 72000 (1994) 8 (1956) 1850 45 83 115 151 318 1030 1130 3110 5920
2026-04-12 15:00 6.37 177 72000 (1994) 8 (1956) 1850 45 83 115 151 318 1030 1130 3110 5920
2026-04-12 14:30 6.34 168 72000 (1994) 8 (1956) 1850 45 83 115 151 318 1030 1130 3110 5920
2026-04-12 14:00 6.31 159 72000 (1994) 8 (1956) 1850 45 83 115 151 318 1030 1130 3110 5920
2026-04-12 13:30 6.30 157 72000 (1994) 8 (1956) 1850 45 83 115 151 318 1030 1130 3110 5920
2026-04-12 13:00 6.34 168 72000 (1994) 8 (1956) 1850 45 83 115 151 318 1030 1130 3110 5920
2026-04-12 12:30 6.32 162 72000 (1994) 8 (1956) 1850 45 83 115 151 318 1030 1130 3110 5920
2026-04-12 12:00 6.37 177 72000 (1994) 8 (1956) 1850 45 83 115 151 318 1030 1130 3110 5920
2026-04-12 11:30 6.38 180 72000 (1994) 8 (1956) 1850 45 83 115 151 318 1030 1130 3110 5920
2026-04-12 11:00 6.38 180 72000 (1994) 8 (1956) 1850 45 83 115 151 318 1030 1130 3110 5920
2026-04-12 10:30 6.38 180 72000 (1994) 8 (1956) 1850 45 83 115 151 318 1030 1130 3110 5920
2026-04-12 10:00 6.34 168 72000 (1994) 8 (1956) 1850 45 83 115 151 318 1030 1130 3110 5920
2026-04-12 09:30 6.37 177 72000 (1994) 8 (1956) 1850 45 83 115 151 318 1030 1130 3110 5920
2026-04-12 09:00 6.39 183 72000 (1994) 8 (1956) 1850 45 83 115 151 318 1030 1130 3110 5920
2026-04-12 08:30 6.40 186 72000 (1994) 8 (1956) 1850 45 83 115 151 318 1030 1130 3110 5920
2026-04-12 08:00 6.40 186 72000 (1994) 8 (1956) 1850 45 83 115 151 318 1030 1130 3110 5920
2026-04-12 07:30 6.40 186 72000 (1994) 8 (1956) 1850 45 83 115 151 318 1030 1130 3110 5920
2026-04-12 07:00 6.41 189 72000 (1994) 8 (1956) 1850 45 83 115 151 318 1030 1130 3110 5920
2026-04-12 06:30 6.41 189 72000 (1994) 8 (1956) 1850 45 83 115 151 318 1030 1130 3110 5920
2026-04-12 06:00 6.41 189 72000 (1994) 8 (1956) 1850 45 83 115 151 318 1030 1130 3110 5920
2026-04-12 05:30 6.41 189 72000 (1994) 8 (1956) 1850 45 83 115 151 318 1030 1130 3110 5920
2026-04-12 05:00 6.41 189 72000 (1994) 8 (1956) 1850 45 83 115 151 318 1030 1130 3110 5920
2026-04-12 04:30 6.41 189 72000 (1994) 8 (1956) 1850 45 83 115 151 318 1030 1130 3110 5920
2026-04-12 04:00 6.41 189 72000 (1994) 8 (1956) 1850 45 83 115 151 318 1030 1130 3110 5920
2026-04-12 03:30 6.41 189 72000 (1994) 8 (1956) 1850 45 83 115 151 318 1030 1130 3110 5920
2026-04-12 03:00 6.42 192 72000 (1994) 8 (1956) 1850 45 83 115 151 318 1030 1130 3110 5920
2026-04-12 02:30 6.42 192 72000 (1994) 8 (1956) 1850 45 83 115 151 318 1030 1130 3110 5920
2026-04-12 02:00 6.42 192 72000 (1994) 8 (1956) 1850 45 83 115 151 318 1030 1130 3110 5920
2026-04-12 01:30 6.42 192 72000 (1994) 8 (1956) 1850 45 83 115 151 318 1030 1130 3110 5920
2026-04-12 01:00 6.42 192 72000 (1994) 8 (1956) 1850 45 83 115 151 318 1030 1130 3110 5920
2026-04-12 00:30 6.42 192 72000 (1994) 8 (1956) 1850 45 83 115 151 318 1030 1130 3110 5920
2026-04-12 00:00 6.42 192 72000 (1994) 8 (1956) 1850 45 83 115 151 318 1030 1130 3110 5920
2026-04-11 23:30 6.42 192 72000 (1994) 8 (1956) 1850 45 83 115 151 318 1030 1130 3110 5920
2026-04-11 23:00 6.43 195 72000 (1994) 8 (1956) 1850 45 83 115 151 318 1030 1130 3110 5920
2026-04-11 22:30 6.43 195 29900 (1994) 9 (1956) 1930 42 86 120 134 284 928 1330 4580 12900
2026-04-11 22:00 6.43 195 29900 (1994) 9 (1956) 1930 42 86 120 134 284 928 1330 4580 12900
2026-04-11 21:30 6.43 195 29900 (1994) 9 (1956) 1930 42 86 120 134 284 928 1330 4580 12900
2026-04-11 21:00 6.43 195 29900 (1994) 9 (1956) 1930 42 86 120 134 284 928 1330 4580 12900
2026-04-11 20:30 6.43 195 29900 (1994) 9 (1956) 1930 42 86 120 134 284 928 1330 4580 12900
2026-04-11 20:00 6.44 199 29900 (1994) 9 (1956) 1930 42 86 120 134 284 928 1330 4580 12900
2026-04-11 19:30 6.44 199 29900 (1994) 9 (1956) 1930 42 86 120 134 284 928 1330 4580 12900
2026-04-11 19:00 6.44 199 29900 (1994) 9 (1956) 1930 42 86 120 134 284 928 1330 4580 12900
2026-04-11 18:30 6.44 199 29900 (1994) 9 (1956) 1930 42 86 120 134 284 928 1330 4580 12900
2026-04-11 18:00 6.44 199 29900 (1994) 9 (1956) 1930 42 86 120 134 284 928 1330 4580 12900
2026-04-11 17:30 6.44 199 29900 (1994) 9 (1956) 1930 42 86 120 134 284 928 1330 4580 12900
2026-04-11 17:00 6.45 202 29900 (1994) 9 (1956) 1930 42 86 120 134 284 928 1330 4580 12900
2026-04-11 16:30 6.45 202 29900 (1994) 9 (1956) 1930 42 86 120 134 284 928 1330 4580 12900
2026-04-11 16:00 6.41 189 29900 (1994) 9 (1956) 1930 42 86 120 134 284 928 1330 4580 12900
2026-04-11 15:30 6.44 199 29900 (1994) 9 (1956) 1930 42 86 120 134 284 928 1330 4580 12900
2026-04-11 15:00 6.46 205 29900 (1994) 9 (1956) 1930 42 86 120 134 284 928 1330 4580 12900
2026-04-11 14:30 6.46 205 29900 (1994) 9 (1956) 1930 42 86 120 134 284 928 1330 4580 12900
2026-04-11 14:00 6.43 195 29900 (1994) 9 (1956) 1930 42 86 120 134 284 928 1330 4580 12900
2026-04-11 13:30 6.44 199 29900 (1994) 9 (1956) 1930 42 86 120 134 284 928 1330 4580 12900
2026-04-11 13:00 6.45 202 29900 (1994) 9 (1956) 1930 42 86 120 134 284 928 1330 4580 12900
2026-04-11 12:30 6.43 195 29900 (1994) 9 (1956) 1930 42 86 120 134 284 928 1330 4580 12900
2026-04-11 12:00 6.43 195 29900 (1994) 9 (1956) 1930 42 86 120 134 284 928 1330 4580 12900
2026-04-11 11:30 6.39 183 29900 (1994) 9 (1956) 1930 42 86 120 134 284 928 1330 4580 12900
2026-04-11 11:00 6.47 208 29900 (1994) 9 (1956) 1930 42 86 120 134 284 928 1330 4580 12900
2026-04-11 10:30 6.43 195 29900 (1994) 9 (1956) 1930 42 86 120 134 284 928 1330 4580 12900
2026-04-11 10:00 6.46 205 29900 (1994) 9 (1956) 1930 42 86 120 134 284 928 1330 4580 12900
2026-04-11 09:30 6.48 212 29900 (1994) 9 (1956) 1930 42 86 120 134 284 928 1330 4580 12900
2026-04-11 09:00 6.45 202 29900 (1994) 9 (1956) 1930 42 86 120 134 284 928 1330 4580 12900
2026-04-11 08:30 6.42 192 29900 (1994) 9 (1956) 1930 42 86 120 134 284 928 1330 4580 12900
2026-04-11 08:00 6.49 215 29900 (1994) 9 (1956) 1930 42 86 120 134 284 928 1330 4580 12900
2026-04-11 07:30 6.48 212 29900 (1994) 9 (1956) 1930 42 86 120 134 284 928 1330 4580 12900
2026-04-11 07:00 6.50 219 29900 (1994) 9 (1956) 1930 42 86 120 134 284 928 1330 4580 12900
2026-04-11 06:30 6.50 219 29900 (1994) 9 (1956) 1930 42 86 120 134 284 928 1330 4580 12900
2026-04-11 06:00 6.50 219 29900 (1994) 9 (1956) 1930 42 86 120 134 284 928 1330 4580 12900
2026-04-11 05:30 6.50 219 29900 (1994) 9 (1956) 1930 42 86 120 134 284 928 1330 4580 12900
2026-04-11 05:00 6.50 219 29900 (1994) 9 (1956) 1930 42 86 120 134 284 928 1330 4580 12900
2026-04-11 04:30 6.51 222 29900 (1994) 9 (1956) 1930 42 86 120 134 284 928 1330 4580 12900
2026-04-11 04:00 6.51 222 29900 (1994) 9 (1956) 1930 42 86 120 134 284 928 1330 4580 12900
2026-04-11 03:30 6.51 222 29900 (1994) 9 (1956) 1930 42 86 120 134 284 928 1330 4580 12900
2026-04-11 03:00 6.51 222 29900 (1994) 9 (1956) 1930 42 86 120 134 284 928 1330 4580 12900
2026-04-11 02:30 6.51 222 29900 (1994) 9 (1956) 1930 42 86 120 134 284 928 1330 4580 12900
2026-04-11 02:00 6.51 222 29900 (1994) 9 (1956) 1930 42 86 120 134 284 928 1330 4580 12900
2026-04-11 01:30 6.52 226 29900 (1994) 9 (1956) 1930 42 86 120 134 284 928 1330 4580 12900
2026-04-11 01:00 6.52 226 29900 (1994) 9 (1956) 1930 42 86 120 134 284 928 1330 4580 12900
2026-04-11 00:30 6.52 226 29900 (1994) 9 (1956) 1930 42 86 120 134 284 928 1330 4580 12900
2026-04-11 00:00 6.52 226 29900 (1994) 9 (1956) 1930 42 86 120 134 284 928 1330 4580 12900
2026-04-10 23:30 6.53 229 29900 (1994) 9 (1956) 1930 42 86 120 134 284 928 1330 4580 12900
2026-04-10 23:00 6.53 229 29900 (1994) 9 (1956) 1930 42 86 120 134 284 928 1330 4580 12900
2026-04-10 22:30 6.53 229 10000 (1994) 5 (1954) 1110 41 80 126 152 293 694 821 3180 7520
2026-04-10 22:00 6.53 229 10000 (1994) 5 (1954) 1110 41 80 126 152 293 694 821 3180 7520
2026-04-10 21:30 6.54 233 10000 (1994) 5 (1954) 1110 41 80 126 152 293 694 821 3180 7520
2026-04-10 21:00 6.54 233 10000 (1994) 5 (1954) 1110 41 80 126 152 293 694 821 3180 7520
2026-04-10 20:30 6.54 233 10000 (1994) 5 (1954) 1110 41 80 126 152 293 694 821 3180 7520
2026-04-10 20:00 6.54 233 10000 (1994) 5 (1954) 1110 41 80 126 152 293 694 821 3180 7520
2026-04-10 19:30 6.54 233 10000 (1994) 5 (1954) 1110 41 80 126 152 293 694 821 3180 7520
2026-04-10 19:00 6.55 237 10000 (1994) 5 (1954) 1110 41 80 126 152 293 694 821 3180 7520
2026-04-10 18:30 6.55 237 10000 (1994) 5 (1954) 1110 41 80 126 152 293 694 821 3180 7520
2026-04-10 18:00 6.55 237 10000 (1994) 5 (1954) 1110 41 80 126 152 293 694 821 3180 7520
2026-04-10 17:30 6.56 240 10000 (1994) 5 (1954) 1110 41 80 126 152 293 694 821 3180 7520
2026-04-10 17:00 6.56 240 10000 (1994) 5 (1954) 1110 41 80 126 152 293 694 821 3180 7520
2026-04-10 16:30 6.56 240 10000 (1994) 5 (1954) 1110 41 80 126 152 293 694 821 3180 7520
2026-04-10 16:00 6.56 240 10000 (1994) 5 (1954) 1110 41 80 126 152 293 694 821 3180 7520
2026-04-10 15:30 6.57 244 10000 (1994) 5 (1954) 1110 41 80 126 152 293 694 821 3180 7520
2026-04-10 15:00 6.57 244 10000 (1994) 5 (1954) 1110 41 80 126 152 293 694 821 3180 7520
2026-04-10 14:30 6.57 244 10000 (1994) 5 (1954) 1110 41 80 126 152 293 694 821 3180 7520
2026-04-10 14:00 6.57 244 10000 (1994) 5 (1954) 1110 41 80 126 152 293 694 821 3180 7520
2026-04-10 13:30 6.58 248 10000 (1994) 5 (1954) 1110 41 80 126 152 293 694 821 3180 7520
2026-04-10 13:00 6.58 248 10000 (1994) 5 (1954) 1110 41 80 126 152 293 694 821 3180 7520
2026-04-10 12:30 6.58 248 10000 (1994) 5 (1954) 1110 41 80 126 152 293 694 821 3180 7520
2026-04-10 12:00 6.58 248 10000 (1994) 5 (1954) 1110 41 80 126 152 293 694 821 3180 7520
2026-04-10 11:30 6.59 251 10000 (1994) 5 (1954) 1110 41 80 126 152 293 694 821 3180 7520
2026-04-10 11:00 6.59 251 10000 (1994) 5 (1954) 1110 41 80 126 152 293 694 821 3180 7520
2026-04-10 10:30 6.59 251 10000 (1994) 5 (1954) 1110 41 80 126 152 293 694 821 3180 7520
2026-04-10 10:00 6.59 251 10000 (1994) 5 (1954) 1110 41 80 126 152 293 694 821 3180 7520
2026-04-10 09:30 6.59 251 10000 (1994) 5 (1954) 1110 41 80 126 152 293 694 821 3180 7520
2026-04-10 09:00 6.60 255 10000 (1994) 5 (1954) 1110 41 80 126 152 293 694 821 3180 7520
2026-04-10 08:30 6.60 255 10000 (1994) 5 (1954) 1110 41 80 126 152 293 694 821 3180 7520
2026-04-10 08:00 6.60 255 10000 (1994) 5 (1954) 1110 41 80 126 152 293 694 821 3180 7520
2026-04-10 07:30 6.61 259 10000 (1994) 5 (1954) 1110 41 80 126 152 293 694 821 3180 7520
2026-04-10 07:00 6.61 259 10000 (1994) 5 (1954) 1110 41 80 126 152 293 694 821 3180 7520
2026-04-10 06:30 6.61 259 10000 (1994) 5 (1954) 1110 41 80 126 152 293 694 821 3180 7520
2026-04-10 06:00 6.61 259 10000 (1994) 5 (1954) 1110 41 80 126 152 293 694 821 3180 7520
2026-04-10 05:30 6.62 263 10000 (1994) 5 (1954) 1110 41 80 126 152 293 694 821 3180 7520
2026-04-10 05:00 6.62 263 10000 (1994) 5 (1954) 1110 41 80 126 152 293 694 821 3180 7520
2026-04-10 04:30 6.62 263 10000 (1994) 5 (1954) 1110 41 80 126 152 293 694 821 3180 7520
2026-04-10 04:00 6.63 267 10000 (1994) 5 (1954) 1110 41 80 126 152 293 694 821 3180 7520
2026-04-10 03:30 6.63 267 10000 (1994) 5 (1954) 1110 41 80 126 152 293 694 821 3180 7520
2026-04-10 03:00 6.63 267 10000 (1994) 5 (1954) 1110 41 80 126 152 293 694 821 3180 7520
2026-04-10 02:30 6.63 267 10000 (1994) 5 (1954) 1110 41 80 126 152 293 694 821 3180 7520
2026-04-10 02:00 6.64 270 10000 (1994) 5 (1954) 1110 41 80 126 152 293 694 821 3180 7520
2026-04-10 01:30 6.64 270 10000 (1994) 5 (1954) 1110 41 80 126 152 293 694 821 3180 7520
2026-04-10 01:00 6.65 273 10000 (1994) 5 (1954) 1110 41 80 126 152 293 694 821 3180 7520
2026-04-10 00:30 6.65 273 10000 (1994) 5 (1954) 1110 41 80 126 152 293 694 821 3180 7520
2026-04-10 00:00 6.65 273 10000 (1994) 5 (1954) 1110 41 80 126 152 293 694 821 3180 7520
2026-04-09 23:30 6.66 276 10000 (1994) 5 (1954) 1110 41 80 126 152 293 694 821 3180 7520
2026-04-09 23:00 6.66 276 10000 (1994) 5 (1954) 1110 41 80 126 152 293 694 821 3180 7520
2026-04-09 22:30 6.66 276 17600 (1922) 3 (1954) 1010 42 77 131 149 291 614 740 1720 5760
2026-04-09 22:00 6.66 276 17600 (1922) 3 (1954) 1010 42 77 131 149 291 614 740 1720 5760
2026-04-09 21:30 6.67 280 17600 (1922) 3 (1954) 1010 42 77 131 149 291 614 740 1720 5760
2026-04-09 21:00 6.67 280 17600 (1922) 3 (1954) 1010 42 77 131 149 291 614 740 1720 5760
2026-04-09 20:30 6.67 280 17600 (1922) 3 (1954) 1010 42 77 131 149 291 614 740 1720 5760
2026-04-09 20:00 6.68 283 17600 (1922) 3 (1954) 1010 42 77 131 149 291 614 740 1720 5760
2026-04-09 19:30 6.68 283 17600 (1922) 3 (1954) 1010 42 77 131 149 291 614 740 1720 5760
2026-04-09 19:00 6.69 286 17600 (1922) 3 (1954) 1010 42 77 131 149 291 614 740 1720 5760
2026-04-09 18:30 6.69 286 17600 (1922) 3 (1954) 1010 42 77 131 149 291 614 740 1720 5760
2026-04-09 18:00 6.69 286 17600 (1922) 3 (1954) 1010 42 77 131 149 291 614 740 1720 5760
2026-04-09 17:30 6.69 286 17600 (1922) 3 (1954) 1010 42 77 131 149 291 614 740 1720 5760
2026-04-09 17:00 6.70 289 17600 (1922) 3 (1954) 1010 42 77 131 149 291 614 740 1720 5760
2026-04-09 16:30 6.69 286 17600 (1922) 3 (1954) 1010 42 77 131 149 291 614 740 1720 5760
2026-04-09 16:00 6.71 292 17600 (1922) 3 (1954) 1010 42 77 131 149 291 614 740 1720 5760
2026-04-09 15:30 6.71 292 17600 (1922) 3 (1954) 1010 42 77 131 149 291 614 740 1720 5760
2026-04-09 15:00 6.71 292 17600 (1922) 3 (1954) 1010 42 77 131 149 291 614 740 1720 5760
2026-04-09 14:30 6.72 296 17600 (1922) 3 (1954) 1010 42 77 131 149 291 614 740 1720 5760
2026-04-09 14:00 6.73 299 17600 (1922) 3 (1954) 1010 42 77 131 149 291 614 740 1720 5760
2026-04-09 13:30 6.70 289 17600 (1922) 3 (1954) 1010 42 77 131 149 291 614 740 1720 5760
2026-04-09 13:00 6.66 276 17600 (1922) 3 (1954) 1010 42 77 131 149 291 614 740 1720 5760
2026-04-09 12:30 6.67 280 17600 (1922) 3 (1954) 1010 42 77 131 149 291 614 740 1720 5760
2026-04-09 12:00 6.73 299 17600 (1922) 3 (1954) 1010 42 77 131 149 291 614 740 1720 5760
2026-04-09 11:30 6.70 289 17600 (1922) 3 (1954) 1010 42 77 131 149 291 614 740 1720 5760
2026-04-09 11:00 6.74 302 17600 (1922) 3 (1954) 1010 42 77 131 149 291 614 740 1720 5760
2026-04-09 10:30 6.75 305 17600 (1922) 3 (1954) 1010 42 77 131 149 291 614 740 1720 5760
2026-04-09 10:00 6.75 305 17600 (1922) 3 (1954) 1010 42 77 131 149 291 614 740 1720 5760
2026-04-09 09:30 6.75 305 17600 (1922) 3 (1954) 1010 42 77 131 149 291 614 740 1720 5760
2026-04-09 09:00 6.76 309 17600 (1922) 3 (1954) 1010 42 77 131 149 291 614 740 1720 5760
2026-04-09 08:30 6.76 309 17600 (1922) 3 (1954) 1010 42 77 131 149 291 614 740 1720 5760
2026-04-09 08:00 6.77 312 17600 (1922) 3 (1954) 1010 42 77 131 149 291 614 740 1720 5760
2026-04-09 07:30 6.77 312 17600 (1922) 3 (1954) 1010 42 77 131 149 291 614 740 1720 5760
2026-04-09 07:00 6.78 315 17600 (1922) 3 (1954) 1010 42 77 131 149 291 614 740 1720 5760
2026-04-09 06:30 6.78 315 17600 (1922) 3 (1954) 1010 42 77 131 149 291 614 740 1720 5760
2026-04-09 06:00 6.79 319 17600 (1922) 3 (1954) 1010 42 77 131 149 291 614 740 1720 5760
2026-04-09 05:30 6.79 319 17600 (1922) 3 (1954) 1010 42 77 131 149 291 614 740 1720 5760
2026-04-09 05:00 6.80 322 17600 (1922) 3 (1954) 1010 42 77 131 149 291 614 740 1720 5760
2026-04-09 04:30 6.80 322 17600 (1922) 3 (1954) 1010 42 77 131 149 291 614 740 1720 5760
2026-04-09 04:00 6.80 322 17600 (1922) 3 (1954) 1010 42 77 131 149 291 614 740 1720 5760
2026-04-09 03:30 6.81 326 17600 (1922) 3 (1954) 1010 42 77 131 149 291 614 740 1720 5760
2026-04-09 03:00 6.81 326 17600 (1922) 3 (1954) 1010 42 77 131 149 291 614 740 1720 5760
2026-04-09 02:30 6.82 329 17600 (1922) 3 (1954) 1010 42 77 131 149 291 614 740 1720 5760
2026-04-09 02:00 6.82 329 17600 (1922) 3 (1954) 1010 42 77 131 149 291 614 740 1720 5760
2026-04-09 01:30 6.83 333 17600 (1922) 3 (1954) 1010 42 77 131 149 291 614 740 1720 5760
2026-04-09 01:00 6.83 333 17600 (1922) 3 (1954) 1010 42 77 131 149 291 614 740 1720 5760
2026-04-09 00:30 6.84 336 17600 (1922) 3 (1954) 1010 42 77 131 149 291 614 740 1720 5760
2026-04-09 00:00 6.84 336 17600 (1922) 3 (1954) 1010 42 77 131 149 291 614 740 1720 5760
2026-04-08 23:30 6.84 336 17600 (1922) 3 (1954) 1010 42 77 131 149 291 614 740 1720 5760
2026-04-08 23:00 6.84 336 17600 (1922) 3 (1954) 1010 42 77 131 149 291 614 740 1720 5760
2026-04-08 22:30 6.85 340 22900 (1922) 4 (1954) 1180 45 79 139 175 336 790 913 1730 7260
2026-04-08 22:00 6.86 343 22900 (1922) 4 (1954) 1180 45 79 139 175 336 790 913 1730 7260
2026-04-08 21:30 6.86 343 22900 (1922) 4 (1954) 1180 45 79 139 175 336 790 913 1730 7260
2026-04-08 21:00 6.87 347 22900 (1922) 4 (1954) 1180 45 79 139 175 336 790 913 1730 7260
2026-04-08 20:30 6.87 347 22900 (1922) 4 (1954) 1180 45 79 139 175 336 790 913 1730 7260
2026-04-08 20:00 6.88 350 22900 (1922) 4 (1954) 1180 45 79 139 175 336 790 913 1730 7260
2026-04-08 19:30 6.88 350 22900 (1922) 4 (1954) 1180 45 79 139 175 336 790 913 1730 7260
2026-04-08 19:00 6.88 350 22900 (1922) 4 (1954) 1180 45 79 139 175 336 790 913 1730 7260
2026-04-08 18:30 6.84 336 22900 (1922) 4 (1954) 1180 45 79 139 175 336 790 913 1730 7260
2026-04-08 18:00 6.89 354 22900 (1922) 4 (1954) 1180 45 79 139 175 336 790 913 1730 7260
2026-04-08 17:30 6.88 350 22900 (1922) 4 (1954) 1180 45 79 139 175 336 790 913 1730 7260
2026-04-08 17:00 6.91 361 22900 (1922) 4 (1954) 1180 45 79 139 175 336 790 913 1730 7260
2026-04-08 16:30 6.90 358 22900 (1922) 4 (1954) 1180 45 79 139 175 336 790 913 1730 7260
2026-04-08 16:00 6.89 354 22900 (1922) 4 (1954) 1180 45 79 139 175 336 790 913 1730 7260
2026-04-08 15:30 6.90 358 22900 (1922) 4 (1954) 1180 45 79 139 175 336 790 913 1730 7260
2026-04-08 15:00 6.88 350 22900 (1922) 4 (1954) 1180 45 79 139 175 336 790 913 1730 7260
2026-04-08 14:30 6.93 369 22900 (1922) 4 (1954) 1180 45 79 139 175 336 790 913 1730 7260
2026-04-08 14:00 6.92 365 22900 (1922) 4 (1954) 1180 45 79 139 175 336 790 913 1730 7260
2026-04-08 13:30 6.94 372 22900 (1922) 4 (1954) 1180 45 79 139 175 336 790 913 1730 7260
2026-04-08 13:00 6.95 376 22900 (1922) 4 (1954) 1180 45 79 139 175 336 790 913 1730 7260
2026-04-08 12:30 6.96 380 22900 (1922) 4 (1954) 1180 45 79 139 175 336 790 913 1730 7260
2026-04-08 12:00 6.97 384 22900 (1922) 4 (1954) 1180 45 79 139 175 336 790 913 1730 7260
2026-04-08 11:30 6.98 387 22900 (1922) 4 (1954) 1180 45 79 139 175 336 790 913 1730 7260
2026-04-08 11:00 6.98 387 22900 (1922) 4 (1954) 1180 45 79 139 175 336 790 913 1730 7260
2026-04-08 10:30 6.98 387 22900 (1922) 4 (1954) 1180 45 79 139 175 336 790 913 1730 7260
2026-04-08 10:00 6.99 391 22900 (1922) 4 (1954) 1180 45 79 139 175 336 790 913 1730 7260
2026-04-08 09:30 7.00 395 22900 (1922) 4 (1954) 1180 45 79 139 175 336 790 913 1730 7260
2026-04-08 09:00 7.00 395 22900 (1922) 4 (1954) 1180 45 79 139 175 336 790 913 1730 7260
2026-04-08 08:30 7.01 399 22900 (1922) 4 (1954) 1180 45 79 139 175 336 790 913 1730 7260
2026-04-08 08:00 7.02 403 22900 (1922) 4 (1954) 1180 45 79 139 175 336 790 913 1730 7260
2026-04-08 07:30 7.03 407 22900 (1922) 4 (1954) 1180 45 79 139 175 336 790 913 1730 7260
2026-04-08 07:00 7.03 407 22900 (1922) 4 (1954) 1180 45 79 139 175 336 790 913 1730 7260
2026-04-08 06:30 7.04 411 22900 (1922) 4 (1954) 1180 45 79 139 175 336 790 913 1730 7260
2026-04-08 06:00 7.05 415 22900 (1922) 4 (1954) 1180 45 79 139 175 336 790 913 1730 7260
2026-04-08 05:30 7.05 415 22900 (1922) 4 (1954) 1180 45 79 139 175 336 790 913 1730 7260
2026-04-08 05:00 7.06 419 22900 (1922) 4 (1954) 1180 45 79 139 175 336 790 913 1730 7260
2026-04-08 04:30 7.06 419 22900 (1922) 4 (1954) 1180 45 79 139 175 336 790 913 1730 7260
2026-04-08 04:00 7.07 423 22900 (1922) 4 (1954) 1180 45 79 139 175 336 790 913 1730 7260
2026-04-08 03:30 7.08 427 22900 (1922) 4 (1954) 1180 45 79 139 175 336 790 913 1730 7260
2026-04-08 03:00 7.08 427 22900 (1922) 4 (1954) 1180 45 79 139 175 336 790 913 1730 7260
2026-04-08 02:30 7.09 431 22900 (1922) 4 (1954) 1180 45 79 139 175 336 790 913 1730 7260
2026-04-08 02:00 7.10 435 22900 (1922) 4 (1954) 1180 45 79 139 175 336 790 913 1730 7260
2026-04-08 01:30 7.10 435 22900 (1922) 4 (1954) 1180 45 79 139 175 336 790 913 1730 7260
2026-04-08 01:00 7.11 439 22900 (1922) 4 (1954) 1180 45 79 139 175 336 790 913 1730 7260
2026-04-08 00:30 7.12 443 22900 (1922) 4 (1954) 1180 45 79 139 175 336 790 913 1730 7260
2026-04-08 00:00 7.13 447 22900 (1922) 4 (1954) 1180 45 79 139 175 336 790 913 1730 7260
2026-04-07 23:30 7.13 447 22900 (1922) 4 (1954) 1180 45 79 139 175 336 790 913 1730 7260
2026-04-07 23:00 7.14 451 22900 (1922) 4 (1954) 1180 45 79 139 175 336 790 913 1730 7260
2026-04-07 22:30 7.08 427 31600 (1926) 4 (1954) 1100 44 80 134 176 370 783 1120 1960 3620
2026-04-07 22:00 7.15 456 31600 (1926) 4 (1954) 1100 44 80 134 176 370 783 1120 1960 3620
2026-04-07 21:30 7.14 451 31600 (1926) 4 (1954) 1100 44 80 134 176 370 783 1120 1960 3620
2026-04-07 21:00 7.17 464 31600 (1926) 4 (1954) 1100 44 80 134 176 370 783 1120 1960 3620
2026-04-07 20:30 7.18 468 31600 (1926) 4 (1954) 1100 44 80 134 176 370 783 1120 1960 3620
2026-04-07 20:00 7.18 468 31600 (1926) 4 (1954) 1100 44 80 134 176 370 783 1120 1960 3620
2026-04-07 19:30 7.11 439 31600 (1926) 4 (1954) 1100 44 80 134 176 370 783 1120 1960 3620
2026-04-07 19:00 7.20 477 31600 (1926) 4 (1954) 1100 44 80 134 176 370 783 1120 1960 3620
2026-04-07 18:30 7.17 464 31600 (1926) 4 (1954) 1100 44 80 134 176 370 783 1120 1960 3620
2026-04-07 18:00 7.21 481 31600 (1926) 4 (1954) 1100 44 80 134 176 370 783 1120 1960 3620
2026-04-07 17:30 7.16 460 31600 (1926) 4 (1954) 1100 44 80 134 176 370 783 1120 1960 3620
2026-04-07 17:00 7.17 464 31600 (1926) 4 (1954) 1100 44 80 134 176 370 783 1120 1960 3620
2026-04-07 16:30 7.23 490 31600 (1926) 4 (1954) 1100 44 80 134 176 370 783 1120 1960 3620
2026-04-07 16:00 7.24 494 31600 (1926) 4 (1954) 1100 44 80 134 176 370 783 1120 1960 3620
2026-04-07 15:30 7.21 481 31600 (1926) 4 (1954) 1100 44 80 134 176 370 783 1120 1960 3620
2026-04-07 15:00 7.23 490 31600 (1926) 4 (1954) 1100 44 80 134 176 370 783 1120 1960 3620
2026-04-07 14:30 7.28 512 31600 (1926) 4 (1954) 1100 44 80 134 176 370 783 1120 1960 3620
2026-04-07 14:00 7.25 499 31600 (1926) 4 (1954) 1100 44 80 134 176 370 783 1120 1960 3620
2026-04-07 13:30 7.29 517 31600 (1926) 4 (1954) 1100 44 80 134 176 370 783 1120 1960 3620
2026-04-07 13:00 7.29 517 31600 (1926) 4 (1954) 1100 44 80 134 176 370 783 1120 1960 3620
2026-04-07 12:30 7.25 499 31600 (1926) 4 (1954) 1100 44 80 134 176 370 783 1120 1960 3620
2026-04-07 12:00 7.33 535 31600 (1926) 4 (1954) 1100 44 80 134 176 370 783 1120 1960 3620
2026-04-07 11:30 7.30 521 31600 (1926) 4 (1954) 1100 44 80 134 176 370 783 1120 1960 3620
2026-04-07 11:00 7.32 531 31600 (1926) 4 (1954) 1100 44 80 134 176 370 783 1120 1960 3620
2026-04-07 10:30 7.26 503 31600 (1926) 4 (1954) 1100 44 80 134 176 370 783 1120 1960 3620
2026-04-07 10:00 7.32 531 31600 (1926) 4 (1954) 1100 44 80 134 176 370 783 1120 1960 3620
2026-04-07 09:30 7.37 554 31600 (1926) 4 (1954) 1100 44 80 134 176 370 783 1120 1960 3620
2026-04-07 09:00 7.32 531 31600 (1926) 4 (1954) 1100 44 80 134 176 370 783 1120 1960 3620
2026-04-07 08:30 7.39 563 31600 (1926) 4 (1954) 1100 44 80 134 176 370 783 1120 1960 3620
2026-04-07 08:00 7.39 563 31600 (1926) 4 (1954) 1100 44 80 134 176 370 783 1120 1960 3620
2026-04-07 07:30 7.42 578 31600 (1926) 4 (1954) 1100 44 80 134 176 370 783 1120 1960 3620
2026-04-07 07:00 7.38 559 31600 (1926) 4 (1954) 1100 44 80 134 176 370 783 1120 1960 3620
2026-04-07 06:30 7.45 592 31600 (1926) 4 (1954) 1100 44 80 134 176 370 783 1120 1960 3620
2026-04-07 06:00 7.44 588 31600 (1926) 4 (1954) 1100 44 80 134 176 370 783 1120 1960 3620
2026-04-07 05:30 7.48 607 31600 (1926) 4 (1954) 1100 44 80 134 176 370 783 1120 1960 3620
2026-04-07 05:00 7.49 612 31600 (1926) 4 (1954) 1100 44 80 134 176 370 783 1120 1960 3620
2026-04-07 04:30 7.50 617 31600 (1926) 4 (1954) 1100 44 80 134 176 370 783 1120 1960 3620
2026-04-07 04:00 7.52 627 31600 (1926) 4 (1954) 1100 44 80 134 176 370 783 1120 1960 3620
2026-04-07 03:30 7.53 633 31600 (1926) 4 (1954) 1100 44 80 134 176 370 783 1120 1960 3620
2026-04-07 03:00 7.55 643 31600 (1926) 4 (1954) 1100 44 80 134 176 370 783 1120 1960 3620
2026-04-07 02:30 7.56 648 31600 (1926) 4 (1954) 1100 44 80 134 176 370 783 1120 1960 3620
2026-04-07 02:00 7.58 658 31600 (1926) 4 (1954) 1100 44 80 134 176 370 783 1120 1960 3620
2026-04-07 01:30 7.59 664 31600 (1926) 4 (1954) 1100 44 80 134 176 370 783 1120 1960 3620
2026-04-07 01:00 7.61 674 31600 (1926) 4 (1954) 1100 44 80 134 176 370 783 1120 1960 3620
2026-04-07 00:30 7.62 680 31600 (1926) 4 (1954) 1100 44 80 134 176 370 783 1120 1960 3620
2026-04-07 00:00 7.64 690 31600 (1926) 4 (1954) 1100 44 80 134 176 370 783 1120 1960 3620
2026-04-06 23:30 7.65 696 31600 (1926) 4 (1954) 1100 44 80 134 176 370 783 1120 1960 3620
2026-04-06 23:00 7.66 701 31600 (1926) 4 (1954) 1100 44 80 134 176 370 783 1120 1960 3620
2026-04-06 22:30 7.69 717 27500 (1928) 4 (1954) 1410 44 95 142 170 384 906 1320 4510 6580
2026-04-06 22:00 7.70 723 27500 (1928) 4 (1954) 1410 44 95 142 170 384 906 1320 4510 6580
2026-04-06 21:30 7.72 734 27500 (1928) 4 (1954) 1410 44 95 142 170 384 906 1320 4510 6580
2026-04-06 21:00 7.74 745 27500 (1928) 4 (1954) 1410 44 95 142 170 384 906 1320 4510 6580
2026-04-06 20:30 7.74 745 27500 (1928) 4 (1954) 1410 44 95 142 170 384 906 1320 4510 6580
2026-04-06 20:00 7.76 757 27500 (1928) 4 (1954) 1410 44 95 142 170 384 906 1320 4510 6580
2026-04-06 19:30 7.78 768 27500 (1928) 4 (1954) 1410 44 95 142 170 384 906 1320 4510 6580
2026-04-06 19:00 7.81 785 27500 (1928) 4 (1954) 1410 44 95 142 170 384 906 1320 4510 6580
2026-04-06 18:30 7.83 797 27500 (1928) 4 (1954) 1410 44 95 142 170 384 906 1320 4510 6580
2026-04-06 18:00 7.84 803 27500 (1928) 4 (1954) 1410 44 95 142 170 384 906 1320 4510 6580
2026-04-06 17:30 7.86 815 27500 (1928) 4 (1954) 1410 44 95 142 170 384 906 1320 4510 6580
2026-04-06 17:00 7.88 827 27500 (1928) 4 (1954) 1410 44 95 142 170 384 906 1320 4510 6580
2026-04-06 16:30 7.90 839 27500 (1928) 4 (1954) 1410 44 95 142 170 384 906 1320 4510 6580
2026-04-06 16:00 7.93 857 27500 (1928) 4 (1954) 1410 44 95 142 170 384 906 1320 4510 6580
2026-04-06 15:30 7.95 869 27500 (1928) 4 (1954) 1410 44 95 142 170 384 906 1320 4510 6580
2026-04-06 15:00 7.97 882 27500 (1928) 4 (1954) 1410 44 95 142 170 384 906 1320 4510 6580
2026-04-06 14:30 8.00 900 27500 (1928) 4 (1954) 1410 44 95 142 170 384 906 1320 4510 6580
2026-04-06 14:00 8.01 907 27500 (1928) 4 (1954) 1410 44 95 142 170 384 906 1320 4510 6580
2026-04-06 13:30 8.04 926 27500 (1928) 4 (1954) 1410 44 95 142 170 384 906 1320 4510 6580
2026-04-06 13:00 8.06 939 27500 (1928) 4 (1954) 1410 44 95 142 170 384 906 1320 4510 6580
2026-04-06 12:30 8.09 958 27500 (1928) 4 (1954) 1410 44 95 142 170 384 906 1320 4510 6580
2026-04-06 12:00 8.10 965 27500 (1928) 4 (1954) 1410 44 95 142 170 384 906 1320 4510 6580
2026-04-06 11:30 8.12 978 27500 (1928) 4 (1954) 1410 44 95 142 170 384 906 1320 4510 6580
2026-04-06 11:00 8.16 1000 27500 (1928) 4 (1954) 1410 44 95 142 170 384 906 1320 4510 6580
2026-04-06 10:30 8.18 1020 27500 (1928) 4 (1954) 1410 44 95 142 170 384 906 1320 4510 6580
2026-04-06 10:00 8.20 1030 27500 (1928) 4 (1954) 1410 44 95 142 170 384 906 1320 4510 6580
2026-04-06 09:30 8.23 1050 27500 (1928) 4 (1954) 1410 44 95 142 170 384 906 1320 4510 6580
2026-04-06 09:00 8.26 1070 27500 (1928) 4 (1954) 1410 44 95 142 170 384 906 1320 4510 6580
2026-04-06 08:30 8.29 1090 27500 (1928) 4 (1954) 1410 44 95 142 170 384 906 1320 4510 6580
2026-04-06 08:00 8.32 1120 27500 (1928) 4 (1954) 1410 44 95 142 170 384 906 1320 4510 6580
2026-04-06 07:30 8.35 1140 27500 (1928) 4 (1954) 1410 44 95 142 170 384 906 1320 4510 6580
2026-04-06 07:00 8.38 1160 27500 (1928) 4 (1954) 1410 44 95 142 170 384 906 1320 4510 6580
2026-04-06 06:30 8.40 1170 27500 (1928) 4 (1954) 1410 44 95 142 170 384 906 1320 4510 6580
2026-04-06 06:00 8.43 1200 27500 (1928) 4 (1954) 1410 44 95 142 170 384 906 1320 4510 6580
2026-04-06 05:30 8.45 1210 27500 (1928) 4 (1954) 1410 44 95 142 170 384 906 1320 4510 6580
2026-04-06 05:00 8.50 1250 27500 (1928) 4 (1954) 1410 44 95 142 170 384 906 1320 4510 6580
2026-04-06 04:30 8.53 1270 27500 (1928) 4 (1954) 1410 44 95 142 170 384 906 1320 4510 6580
2026-04-06 04:00 8.55 1290 27500 (1928) 4 (1954) 1410 44 95 142 170 384 906 1320 4510 6580
2026-04-06 03:30 8.59 1320 27500 (1928) 4 (1954) 1410 44 95 142 170 384 906 1320 4510 6580
2026-04-06 03:00 8.61 1330 27500 (1928) 4 (1954) 1410 44 95 142 170 384 906 1320 4510 6580
2026-04-06 02:30 8.64 1360 27500 (1928) 4 (1954) 1410 44 95 142 170 384 906 1320 4510 6580
2026-04-06 02:00 8.68 1390 27500 (1928) 4 (1954) 1410 44 95 142 170 384 906 1320 4510 6580
2026-04-06 01:30 8.72 1420 27500 (1928) 4 (1954) 1410 44 95 142 170 384 906 1320 4510 6580
2026-04-06 01:00 8.75 1450 27500 (1928) 4 (1954) 1410 44 95 142 170 384 906 1320 4510 6580
2026-04-06 00:30 8.78 1470 27500 (1928) 4 (1954) 1410 44 95 142 170 384 906 1320 4510 6580
2026-04-06 00:00 8.81 1500 27500 (1928) 4 (1954) 1410 44 95 142 170 384 906 1320 4510 6580
2026-04-05 23:30 8.84 1530 27500 (1928) 4 (1954) 1410 44 95 142 170 384 906 1320 4510 6580
2026-04-05 23:00 8.89 1570 27500 (1928) 4 (1954) 1410 44 95 142 170 384 906 1320 4510 6580
2026-04-05 22:30 8.94 1610 17200 (1928) 3 (1954) 1440 48 101 159 187 439 1500 2240 4430 6610
2026-04-05 22:00 8.98 1650 17200 (1928) 3 (1954) 1440 48 101 159 187 439 1500 2240 4430 6610
2026-04-05 21:30 9.00 1670 17200 (1928) 3 (1954) 1440 48 101 159 187 439 1500 2240 4430 6610
2026-04-05 21:00 9.05 1710 17200 (1928) 3 (1954) 1440 48 101 159 187 439 1500 2240 4430 6610
2026-04-05 20:30 9.09 1750 17200 (1928) 3 (1954) 1440 48 101 159 187 439 1500 2240 4430 6610
2026-04-05 20:00 9.12 1780 17200 (1928) 3 (1954) 1440 48 101 159 187 439 1500 2240 4430 6610
2026-04-05 19:30 9.15 1810 17200 (1928) 3 (1954) 1440 48 101 159 187 439 1500 2240 4430 6610
2026-04-05 19:00 9.21 1860 17200 (1928) 3 (1954) 1440 48 101 159 187 439 1500 2240 4430 6610
2026-04-05 18:30 9.27 1920 17200 (1928) 3 (1954) 1440 48 101 159 187 439 1500 2240 4430 6610
2026-04-05 18:00 9.31 1960 17200 (1928) 3 (1954) 1440 48 101 159 187 439 1500 2240 4430 6610
2026-04-05 17:30 9.37 2020 17200 (1928) 3 (1954) 1440 48 101 159 187 439 1500 2240 4430 6610
2026-04-05 17:00 9.41 2060 17200 (1928) 3 (1954) 1440 48 101 159 187 439 1500 2240 4430 6610
2026-04-05 16:30 9.47 2100 17200 (1928) 3 (1954) 1440 48 101 159 187 439 1500 2240 4430 6610
2026-04-05 16:00 9.52 2130 17200 (1928) 3 (1954) 1440 48 101 159 187 439 1500 2240 4430 6610
2026-04-05 15:30 9.57 2160 17200 (1928) 3 (1954) 1440 48 101 159 187 439 1500 2240 4430 6610
2026-04-05 15:00 9.64 2210 17200 (1928) 3 (1954) 1440 48 101 159 187 439 1500 2240 4430 6610
2026-04-05 14:30 9.72 2260 17200 (1928) 3 (1954) 1440 48 101 159 187 439 1500 2240 4430 6610
2026-04-05 14:00 9.77 2290 17200 (1928) 3 (1954) 1440 48 101 159 187 439 1500 2240 4430 6610
2026-04-05 13:30 9.83 2330 17200 (1928) 3 (1954) 1440 48 101 159 187 439 1500 2240 4430 6610
2026-04-05 13:00 9.90 2370 17200 (1928) 3 (1954) 1440 48 101 159 187 439 1500 2240 4430 6610
2026-04-05 12:30 9.98 2420 17200 (1928) 3 (1954) 1440 48 101 159 187 439 1500 2240 4430 6610
2026-04-05 12:00 10.05 2470 17200 (1928) 3 (1954) 1440 48 101 159 187 439 1500 2240 4430 6610
2026-04-05 11:30 10.13 2520 17200 (1928) 3 (1954) 1440 48 101 159 187 439 1500 2240 4430 6610
2026-04-05 11:00 10.23 2590 17200 (1928) 3 (1954) 1440 48 101 159 187 439 1500 2240 4430 6610
2026-04-05 10:30 10.31 2640 17200 (1928) 3 (1954) 1440 48 101 159 187 439 1500 2240 4430 6610
2026-04-05 10:00 10.38 2690 17200 (1928) 3 (1954) 1440 48 101 159 187 439 1500 2240 4430 6610
2026-04-05 09:30 10.46 2740 17200 (1928) 3 (1954) 1440 48 101 159 187 439 1500 2240 4430 6610
2026-04-05 09:00 10.56 2810 17200 (1928) 3 (1954) 1440 48 101 159 187 439 1500 2240 4430 6610
2026-04-05 08:30 10.66 2880 17200 (1928) 3 (1954) 1440 48 101 159 187 439 1500 2240 4430 6610
2026-04-05 08:00 10.75 2940 17200 (1928) 3 (1954) 1440 48 101 159 187 439 1500 2240 4430 6610
2026-04-05 07:30 10.85 3010 17200 (1928) 3 (1954) 1440 48 101 159 187 439 1500 2240 4430 6610
2026-04-05 07:00 10.95 3080 17200 (1928) 3 (1954) 1440 48 101 159 187 439 1500 2240 4430 6610
2026-04-05 06:30 11.03 3140 17200 (1928) 3 (1954) 1440 48 101 159 187 439 1500 2240 4430 6610
2026-04-05 06:00 11.12 3200 17200 (1928) 3 (1954) 1440 48 101 159 187 439 1500 2240 4430 6610
2026-04-05 05:00 3320 17200 (1928) 3 (1954) 1440 48 101 159 187 439 1500 2240 4430 6610
2026-04-05 04:30 11.36 17200 (1928) 3 (1954) 1440 48 101 159 187 439 1500 2240 4430 6610
2026-04-05 04:00 11.45 17200 (1928) 3 (1954) 1440 48 101 159 187 439 1500 2240 4430 6610
2026-04-05 03:30 3470 17200 (1928) 3 (1954) 1440 48 101 159 187 439 1500 2240 4430 6610
2026-04-05 03:00 11.54 3510 17200 (1928) 3 (1954) 1440 48 101 159 187 439 1500 2240 4430 6610
2026-04-05 02:30 11.59 3540 17200 (1928) 3 (1954) 1440 48 101 159 187 439 1500 2240 4430 6610
2026-04-05 02:00 11.63 3570 17200 (1928) 3 (1954) 1440 48 101 159 187 439 1500 2240 4430 6610
2026-04-05 01:00 11.65 3590 17200 (1928) 3 (1954) 1440 48 101 159 187 439 1500 2240 4430 6610
2026-04-05 00:30 11.64 3580 17200 (1928) 3 (1954) 1440 48 101 159 187 439 1500 2240 4430 6610
2026-04-05 00:00 11.61 3560 17200 (1928) 3 (1954) 1440 48 101 159 187 439 1500 2240 4430 6610
2026-04-04 23:30 11.58 3530 17200 (1928) 3 (1954) 1440 48 101 159 187 439 1500 2240 4430 6610
2026-04-04 23:00 11.51 3480 17200 (1928) 3 (1954) 1440 48 101 159 187 439 1500 2240 4430 6610
2026-04-04 22:30 11.41 3410 23600 (2014) 3 (1954) 1270 49 76 123 153 323 1070 1440 3010 6160
2026-04-04 22:00 11.26 3300 23600 (2014) 3 (1954) 1270 49 76 123 153 323 1070 1440 3010 6160
2026-04-04 21:30 11.08 3170 23600 (2014) 3 (1954) 1270 49 76 123 153 323 1070 1440 3010 6160
2026-04-04 21:00 10.91 3050 23600 (2014) 3 (1954) 1270 49 76 123 153 323 1070 1440 3010 6160
2026-04-04 20:30 10.70 2910 23600 (2014) 3 (1954) 1270 49 76 123 153 323 1070 1440 3010 6160
2026-04-04 20:00 10.53 2790 23600 (2014) 3 (1954) 1270 49 76 123 153 323 1070 1440 3010 6160
2026-04-04 19:30 10.35 2670 23600 (2014) 3 (1954) 1270 49 76 123 153 323 1070 1440 3010 6160
2026-04-04 19:00 10.15 2540 23600 (2014) 3 (1954) 1270 49 76 123 153 323 1070 1440 3010 6160
2026-04-04 18:30 1 2440 23600 (2014) 3 (1954) 1270 49 76 123 153 323 1070 1440 3010 6160
2026-04-04 18:00 9.84 2330 23600 (2014) 3 (1954) 1270 49 76 123 153 323 1070 1440 3010 6160
2026-04-04 17:30 9.70 2240 23600 (2014) 3 (1954) 1270 49 76 123 153 323 1070 1440 3010 6160
2026-04-04 17:00 9.58 2170 23600 (2014) 3 (1954) 1270 49 76 123 153 323 1070 1440 3010 6160
2026-04-04 16:30 9.46 2090 23600 (2014) 3 (1954) 1270 49 76 123 153 323 1070 1440 3010 6160
2026-04-04 16:00 9.43 2070 23600 (2014) 3 (1954) 1270 49 76 123 153 323 1070 1440 3010 6160
2026-04-04 15:30 9.38 2030 23600 (2014) 3 (1954) 1270 49 76 123 153 323 1070 1440 3010 6160
2026-04-04 15:00 9.39 2040 23600 (2014) 3 (1954) 1270 49 76 123 153 323 1070 1440 3010 6160
2026-04-04 14:30 9.38 2030 23600 (2014) 3 (1954) 1270 49 76 123 153 323 1070 1440 3010 6160
2026-04-04 14:00 9.40 2050 23600 (2014) 3 (1954) 1270 49 76 123 153 323 1070 1440 3010 6160
2026-04-04 13:30 9.40 2050 23600 (2014) 3 (1954) 1270 49 76 123 153 323 1070 1440 3010 6160
2026-04-04 13:00 9.43 2070 23600 (2014) 3 (1954) 1270 49 76 123 153 323 1070 1440 3010 6160
2026-04-04 12:30 9.42 2070 23600 (2014) 3 (1954) 1270 49 76 123 153 323 1070 1440 3010 6160
2026-04-04 12:00 9.41 2060 23600 (2014) 3 (1954) 1270 49 76 123 153 323 1070 1440 3010 6160
2026-04-04 11:30 9.40 2050 23600 (2014) 3 (1954) 1270 49 76 123 153 323 1070 1440 3010 6160
2026-04-04 11:00 9.33 1980 23600 (2014) 3 (1954) 1270 49 76 123 153 323 1070 1440 3010 6160
2026-04-04 10:30 9.25 1900 23600 (2014) 3 (1954) 1270 49 76 123 153 323 1070 1440 3010 6160
2026-04-04 10:00 9.17 1820 23600 (2014) 3 (1954) 1270 49 76 123 153 323 1070 1440 3010 6160
2026-04-04 09:30 9.06 1720 23600 (2014) 3 (1954) 1270 49 76 123 153 323 1070 1440 3010 6160
2026-04-04 09:00 8.90 1580 23600 (2014) 3 (1954) 1270 49 76 123 153 323 1070 1440 3010 6160
2026-04-04 08:30 8.70 1410 23600 (2014) 3 (1954) 1270 49 76 123 153 323 1070 1440 3010 6160
2026-04-04 08:00 8.55 1290 23600 (2014) 3 (1954) 1270 49 76 123 153 323 1070 1440 3010 6160
2026-04-04 07:30 8.44 1200 23600 (2014) 3 (1954) 1270 49 76 123 153 323 1070 1440 3010 6160
2026-04-04 07:00 8.35 1140 23600 (2014) 3 (1954) 1270 49 76 123 153 323 1070 1440 3010 6160
2026-04-04 06:30 8.27 1080 23600 (2014) 3 (1954) 1270 49 76 123 153 323 1070 1440 3010 6160
2026-04-04 06:00 8.19 1020 23600 (2014) 3 (1954) 1270 49 76 123 153 323 1070 1440 3010 6160
2026-04-04 05:30 8.13 984 23600 (2014) 3 (1954) 1270 49 76 123 153 323 1070 1440 3010 6160
2026-04-04 05:00 8.11 971 23600 (2014) 3 (1954) 1270 49 76 123 153 323 1070 1440 3010 6160
2026-04-04 04:30 8.11 971 23600 (2014) 3 (1954) 1270 49 76 123 153 323 1070 1440 3010 6160
2026-04-04 04:00 8.13 984 23600 (2014) 3 (1954) 1270 49 76 123 153 323 1070 1440 3010 6160
2026-04-04 03:30 8.13 984 23600 (2014) 3 (1954) 1270 49 76 123 153 323 1070 1440 3010 6160
2026-04-04 03:00 8.14 991 23600 (2014) 3 (1954) 1270 49 76 123 153 323 1070 1440 3010 6160
2026-04-04 02:30 8.14 991 23600 (2014) 3 (1954) 1270 49 76 123 153 323 1070 1440 3010 6160
2026-04-04 02:00 8.16 1000 23600 (2014) 3 (1954) 1270 49 76 123 153 323 1070 1440 3010 6160
2026-04-04 01:30 8.18 1020 23600 (2014) 3 (1954) 1270 49 76 123 153 323 1070 1440 3010 6160
2026-04-04 01:00 8.21 1040 23600 (2014) 3 (1954) 1270 49 76 123 153 323 1070 1440 3010 6160
2026-04-04 00:30 8.24 1060 23600 (2014) 3 (1954) 1270 49 76 123 153 323 1070 1440 3010 6160
2026-04-04 00:00 8.26 1070 23600 (2014) 3 (1954) 1270 49 76 123 153 323 1070 1440 3010 6160
2026-04-03 23:30 8.28 1090 23600 (2014) 3 (1954) 1270 49 76 123 153 323 1070 1440 3010 6160
2026-04-03 23:00 8.31 1110 23600 (2014) 3 (1954) 1270 49 76 123 153 323 1070 1440 3010 6160
2026-04-03 22:30 8.33 1120 9670 (2010) 3 (1954) 1030 48 85 120 146 355 841 1140 2980 6160
2026-04-03 22:00 8.37 1150 9670 (2010) 3 (1954) 1030 48 85 120 146 355 841 1140 2980 6160
2026-04-03 21:30 8.38 1160 9670 (2010) 3 (1954) 1030 48 85 120 146 355 841 1140 2980 6160
2026-04-03 21:00 8.43 1200 9670 (2010) 3 (1954) 1030 48 85 120 146 355 841 1140 2980 6160
2026-04-03 20:30 8.45 1210 9670 (2010) 3 (1954) 1030 48 85 120 146 355 841 1140 2980 6160
2026-04-03 20:00 8.47 1230 9670 (2010) 3 (1954) 1030 48 85 120 146 355 841 1140 2980 6160
2026-04-03 19:30 8.51 1260 9670 (2010) 3 (1954) 1030 48 85 120 146 355 841 1140 2980 6160
2026-04-03 19:00 8.54 1280 9670 (2010) 3 (1954) 1030 48 85 120 146 355 841 1140 2980 6160
2026-04-03 18:30 8.56 1300 9670 (2010) 3 (1954) 1030 48 85 120 146 355 841 1140 2980 6160
2026-04-03 18:00 8.60 1330 9670 (2010) 3 (1954) 1030 48 85 120 146 355 841 1140 2980 6160
2026-04-03 17:30 8.61 1330 9670 (2010) 3 (1954) 1030 48 85 120 146 355 841 1140 2980 6160
2026-04-03 17:00 8.66 1370 9670 (2010) 3 (1954) 1030 48 85 120 146 355 841 1140 2980 6160
2026-04-03 16:30 8.67 1380 9670 (2010) 3 (1954) 1030 48 85 120 146 355 841 1140 2980 6160
2026-04-03 16:00 8.71 1420 9670 (2010) 3 (1954) 1030 48 85 120 146 355 841 1140 2980 6160
2026-04-03 15:30 8.77 1470 9670 (2010) 3 (1954) 1030 48 85 120 146 355 841 1140 2980 6160
2026-04-03 15:00 8.80 1490 9670 (2010) 3 (1954) 1030 48 85 120 146 355 841 1140 2980 6160
2026-04-03 14:30 8.83 1520 9670 (2010) 3 (1954) 1030 48 85 120 146 355 841 1140 2980 6160
2026-04-03 14:00 8.87 1550 9670 (2010) 3 (1954) 1030 48 85 120 146 355 841 1140 2980 6160
2026-04-03 13:30 8.91 1590 9670 (2010) 3 (1954) 1030 48 85 120 146 355 841 1140 2980 6160
2026-04-03 13:00 8.94 1610 9670 (2010) 3 (1954) 1030 48 85 120 146 355 841 1140 2980 6160
2026-04-03 12:30 8.98 1650 9670 (2010) 3 (1954) 1030 48 85 120 146 355 841 1140 2980 6160
2026-04-03 12:00 9.02 1680 9670 (2010) 3 (1954) 1030 48 85 120 146 355 841 1140 2980 6160
2026-04-03 11:30 9.06 1720 9670 (2010) 3 (1954) 1030 48 85 120 146 355 841 1140 2980 6160
2026-04-03 11:00 9.09 1750 9670 (2010) 3 (1954) 1030 48 85 120 146 355 841 1140 2980 6160
2026-04-03 10:30 9.11 1770 9670 (2010) 3 (1954) 1030 48 85 120 146 355 841 1140 2980 6160
2026-04-03 10:00 9.15 1810 9670 (2010) 3 (1954) 1030 48 85 120 146 355 841 1140 2980 6160
2026-04-03 09:30 9.20 1850 9670 (2010) 3 (1954) 1030 48 85 120 146 355 841 1140 2980 6160
2026-04-03 09:00 9.24 1890 9670 (2010) 3 (1954) 1030 48 85 120 146 355 841 1140 2980 6160
2026-04-03 08:30 9.26 1910 9670 (2010) 3 (1954) 1030 48 85 120 146 355 841 1140 2980 6160
2026-04-03 08:00 9.31 1960 9670 (2010) 3 (1954) 1030 48 85 120 146 355 841 1140 2980 6160
2026-04-03 07:30 9.33 1980 9670 (2010) 3 (1954) 1030 48 85 120 146 355 841 1140 2980 6160
2026-04-03 07:00 9.36 2010 9670 (2010) 3 (1954) 1030 48 85 120 146 355 841 1140 2980 6160
2026-04-03 06:30 9.39 2040 9670 (2010) 3 (1954) 1030 48 85 120 146 355 841 1140 2980 6160
2026-04-03 06:00 9.42 2070 9670 (2010) 3 (1954) 1030 48 85 120 146 355 841 1140 2980 6160
2026-04-03 05:30 9.43 2070 9670 (2010) 3 (1954) 1030 48 85 120 146 355 841 1140 2980 6160
2026-04-03 05:00 9.46 2090 9670 (2010) 3 (1954) 1030 48 85 120 146 355 841 1140 2980 6160
2026-04-03 04:30 9.48 2100 9670 (2010) 3 (1954) 1030 48 85 120 146 355 841 1140 2980 6160
2026-04-03 04:00 9.51 2120 9670 (2010) 3 (1954) 1030 48 85 120 146 355 841 1140 2980 6160
2026-04-03 03:30 9.52 2130 9670 (2010) 3 (1954) 1030 48 85 120 146 355 841 1140 2980 6160
2026-04-03 03:00 9.55 2150 9670 (2010) 3 (1954) 1030 48 85 120 146 355 841 1140 2980 6160
2026-04-03 02:30 9.57 2160 9670 (2010) 3 (1954) 1030 48 85 120 146 355 841 1140 2980 6160
2026-04-03 02:00 9.59 2170 9670 (2010) 3 (1954) 1030 48 85 120 146 355 841 1140 2980 6160
2026-04-03 01:30 9.60 2180 9670 (2010) 3 (1954) 1030 48 85 120 146 355 841 1140 2980 6160
2026-04-03 01:00 9.62 2190 9670 (2010) 3 (1954) 1030 48 85 120 146 355 841 1140 2980 6160
2026-04-03 00:30 9.62 2190 9670 (2010) 3 (1954) 1030 48 85 120 146 355 841 1140 2980 6160
2026-04-03 00:00 9.64 2210 9670 (2010) 3 (1954) 1030 48 85 120 146 355 841 1140 2980 6160
2026-04-02 23:30 9.64 2210 9670 (2010) 3 (1954) 1030 48 85 120 146 355 841 1140 2980 6160
2026-04-02 23:00 9.63 2200 9670 (2010) 3 (1954) 1030 48 85 120 146 355 841 1140 2980 6160
2026-04-02 22:30 9.62 2190 21400 (1983) 3 (1954) 1120 51 92 127 141 333 821 1060 1860 4890
2026-04-02 22:00 9.61 2190 21400 (1983) 3 (1954) 1120 51 92 127 141 333 821 1060 1860 4890
2026-04-02 21:30 9.59 2170 21400 (1983) 3 (1954) 1120 51 92 127 141 333 821 1060 1860 4890
2026-04-02 21:00 9.55 2150 21400 (1983) 3 (1954) 1120 51 92 127 141 333 821 1060 1860 4890
2026-04-02 20:30 9.54 2140 21400 (1983) 3 (1954) 1120 51 92 127 141 333 821 1060 1860 4890
2026-04-02 20:00 9.52 2130 21400 (1983) 3 (1954) 1120 51 92 127 141 333 821 1060 1860 4890
2026-04-02 19:30 9.49 2110 21400 (1983) 3 (1954) 1120 51 92 127 141 333 821 1060 1860 4890
2026-04-02 19:00 9.48 2100 21400 (1983) 3 (1954) 1120 51 92 127 141 333 821 1060 1860 4890
2026-04-02 18:30 9.47 2100 21400 (1983) 3 (1954) 1120 51 92 127 141 333 821 1060 1860 4890
2026-04-02 18:00 9.48 2100 21400 (1983) 3 (1954) 1120 51 92 127 141 333 821 1060 1860 4890
2026-04-02 17:30 9.48 2100 21400 (1983) 3 (1954) 1120 51 92 127 141 333 821 1060 1860 4890
2026-04-02 17:00 9.48 2100 21400 (1983) 3 (1954) 1120 51 92 127 141 333 821 1060 1860 4890
2026-04-02 16:30 9.47 2100 21400 (1983) 3 (1954) 1120 51 92 127 141 333 821 1060 1860 4890
2026-04-02 16:00 9.49 2110 21400 (1983) 3 (1954) 1120 51 92 127 141 333 821 1060 1860 4890
2026-04-02 15:30 9.47 2100 21400 (1983) 3 (1954) 1120 51 92 127 141 333 821 1060 1860 4890
2026-04-02 15:00 9.47 2100 21400 (1983) 3 (1954) 1120 51 92 127 141 333 821 1060 1860 4890
2026-04-02 14:30 9.45 2090 21400 (1983) 3 (1954) 1120 51 92 127 141 333 821 1060 1860 4890
2026-04-02 14:00 9.44 2080 21400 (1983) 3 (1954) 1120 51 92 127 141 333 821 1060 1860 4890
2026-04-02 13:30 9.43 2070 21400 (1983) 3 (1954) 1120 51 92 127 141 333 821 1060 1860 4890
2026-04-02 13:00 9.45 2090 21400 (1983) 3 (1954) 1120 51 92 127 141 333 821 1060 1860 4890
2026-04-02 12:30 9.43 2070 21400 (1983) 3 (1954) 1120 51 92 127 141 333 821 1060 1860 4890
2026-04-02 12:00 9.44 2080 21400 (1983) 3 (1954) 1120 51 92 127 141 333 821 1060 1860 4890
2026-04-02 11:30 9.46 2090 21400 (1983) 3 (1954) 1120 51 92 127 141 333 821 1060 1860 4890
2026-04-02 09:30 9.33 1980 21400 (1983) 3 (1954) 1120 51 92 127 141 333 821 1060 1860 4890
2026-04-02 09:00 9.29 1940 21400 (1983) 3 (1954) 1120 51 92 127 141 333 821 1060 1860 4890
2026-04-02 08:00 9.26 1910 21400 (1983) 3 (1954) 1120 51 92 127 141 333 821 1060 1860 4890
2026-04-02 07:30 9.29 1940 21400 (1983) 3 (1954) 1120 51 92 127 141 333 821 1060 1860 4890
2026-04-02 07:00 9.31 1960 21400 (1983) 3 (1954) 1120 51 92 127 141 333 821 1060 1860 4890
2026-04-02 06:30 9.34 1990 21400 (1983) 3 (1954) 1120 51 92 127 141 333 821 1060 1860 4890
2026-04-02 06:00 9.38 2030 21400 (1983) 3 (1954) 1120 51 92 127 141 333 821 1060 1860 4890
2026-04-02 05:30 9.42 2070 21400 (1983) 3 (1954) 1120 51 92 127 141 333 821 1060 1860 4890
2026-04-02 05:00 9.47 2100 21400 (1983) 3 (1954) 1120 51 92 127 141 333 821 1060 1860 4890
2026-04-02 04:30 9.53 2140 21400 (1983) 3 (1954) 1120 51 92 127 141 333 821 1060 1860 4890
2026-04-02 04:00 9.59 2170 21400 (1983) 3 (1954) 1120 51 92 127 141 333 821 1060 1860 4890
2026-04-02 03:30 9.64 2210 21400 (1983) 3 (1954) 1120 51 92 127 141 333 821 1060 1860 4890
2026-04-02 03:00 9.69 2240 21400 (1983) 3 (1954) 1120 51 92 127 141 333 821 1060 1860 4890
2026-04-02 02:30 9.72 2260 21400 (1983) 3 (1954) 1120 51 92 127 141 333 821 1060 1860 4890
2026-04-02 02:00 9.74 2270 21400 (1983) 3 (1954) 1120 51 92 127 141 333 821 1060 1860 4890
2026-04-02 01:30 9.78 2290 21400 (1983) 3 (1954) 1120 51 92 127 141 333 821 1060 1860 4890
2026-04-02 01:00 9.79 2300 21400 (1983) 3 (1954) 1120 51 92 127 141 333 821 1060 1860 4890
2026-04-02 00:30 9.83 2330 21400 (1983) 3 (1954) 1120 51 92 127 141 333 821 1060 1860 4890
2026-04-02 00:00 9.86 2350 21400 (1983) 3 (1954) 1120 51 92 127 141 333 821 1060 1860 4890
2026-04-01 23:30 9.90 2370 21400 (1983) 3 (1954) 1120 51 92 127 141 333 821 1060 1860 4890
2026-04-01 23:00 9.93 2390 21400 (1983) 3 (1954) 1120 51 92 127 141 333 821 1060 1860 4890
2026-04-01 22:30 9.95 2400 30000 (1927) 3 (1954) 1330 53 99 134 150 402 972 1320 3340 6650
2026-04-01 22:00 9.93 2390 30000 (1927) 3 (1954) 1330 53 99 134 150 402 972 1320 3340 6650
2026-04-01 21:30 9.91 2380 30000 (1927) 3 (1954) 1330 53 99 134 150 402 972 1320 3340 6650
2026-04-01 21:00 9.85 2340 30000 (1927) 3 (1954) 1330 53 99 134 150 402 972 1320 3340 6650
2026-04-01 20:30 9.69 2240 30000 (1927) 3 (1954) 1330 53 99 134 150 402 972 1320 3340 6650
2026-04-01 20:00 9.47 2100 30000 (1927) 3 (1954) 1330 53 99 134 150 402 972 1320 3340 6650
2026-04-01 19:30 9.12 1780 30000 (1927) 3 (1954) 1330 53 99 134 150 402 972 1320 3340 6650
2026-04-01 19:00 8.72 1420 30000 (1927) 3 (1954) 1330 53 99 134 150 402 972 1320 3340 6650
2026-04-01 18:30 8.33 1120 30000 (1927) 3 (1954) 1330 53 99 134 150 402 972 1320 3340 6650
2026-04-01 18:00 8.05 932 30000 (1927) 3 (1954) 1330 53 99 134 150 402 972 1320 3340 6650
2026-04-01 17:30 7.89 833 30000 (1927) 3 (1954) 1330 53 99 134 150 402 972 1320 3340 6650
2026-04-01 17:00 7.70 723 30000 (1927) 3 (1954) 1330 53 99 134 150 402 972 1320 3340 6650
2026-04-01 16:30 7.47 602 30000 (1927) 3 (1954) 1330 53 99 134 150 402 972 1320 3340 6650
2026-04-01 16:00 7.25 499 30000 (1927) 3 (1954) 1330 53 99 134 150 402 972 1320 3340 6650
2026-04-01 15:30 7.09 431 30000 (1927) 3 (1954) 1330 53 99 134 150 402 972 1320 3340 6650
2026-04-01 15:00 7.00 395 30000 (1927) 3 (1954) 1330 53 99 134 150 402 972 1320 3340 6650
2026-04-01 14:30 6.94 372 30000 (1927) 3 (1954) 1330 53 99 134 150 402 972 1320 3340 6650
2026-04-01 14:00 6.85 340 30000 (1927) 3 (1954) 1330 53 99 134 150 402 972 1320 3340 6650
2026-04-01 13:30 6.78 315 30000 (1927) 3 (1954) 1330 53 99 134 150 402 972 1320 3340 6650
2026-04-01 13:00 270 30000 (1927) 3 (1954) 1330 53 99 134 150 402 972 1320 3340 6650
2026-04-01 12:30 6.49 215 30000 (1927) 3 (1954) 1330 53 99 134 150 402 972 1320 3340 6650
2026-04-01 12:00 6.35 171 30000 (1927) 3 (1954) 1330 53 99 134 150 402 972 1320 3340 6650
2026-04-01 11:30 6.24 141 30000 (1927) 3 (1954) 1330 53 99 134 150 402 972 1320 3340 6650
2026-04-01 11:00 6.23 138 30000 (1927) 3 (1954) 1330 53 99 134 150 402 972 1320 3340 6650
2026-04-01 10:30 6.19 128 30000 (1927) 3 (1954) 1330 53 99 134 150 402 972 1320 3340 6650
2026-04-01 10:00 6.15 119 30000 (1927) 3 (1954) 1330 53 99 134 150 402 972 1320 3340 6650
2026-04-01 09:30 6.16 121 30000 (1927) 3 (1954) 1330 53 99 134 150 402 972 1320 3340 6650
2026-04-01 09:00 6.12 112 30000 (1927) 3 (1954) 1330 53 99 134 150 402 972 1320 3340 6650
2026-04-01 08:30 6.08 104 30000 (1927) 3 (1954) 1330 53 99 134 150 402 972 1320 3340 6650
2026-04-01 08:15 6.11 110 30000 (1927) 3 (1954) 1330 53 99 134 150 402 972 1320 3340 6650
2026-04-01 08:00 6.13 114 30000 (1927) 3 (1954) 1330 53 99 134 150 402 972 1320 3340 6650
2026-04-01 07:30 6.11 110 30000 (1927) 3 (1954) 1330 53 99 134 150 402 972 1320 3340 6650
2026-04-01 07:00 6.11 110 30000 (1927) 3 (1954) 1330 53 99 134 150 402 972 1320 3340 6650
2026-04-01 06:30 6.05 98 30000 (1927) 3 (1954) 1330 53 99 134 150 402 972 1320 3340 6650
2026-04-01 06:00 6.03 94 30000 (1927) 3 (1954) 1330 53 99 134 150 402 972 1320 3340 6650
2026-04-01 05:30 6.06 100 30000 (1927) 3 (1954) 1330 53 99 134 150 402 972 1320 3340 6650
2026-04-01 05:00 6.06 100 30000 (1927) 3 (1954) 1330 53 99 134 150 402 972 1320 3340 6650
2026-04-01 04:30 6.06 100 30000 (1927) 3 (1954) 1330 53 99 134 150 402 972 1320 3340 6650
2026-04-01 04:00 6.04 96 30000 (1927) 3 (1954) 1330 53 99 134 150 402 972 1320 3340 6650
2026-04-01 03:30 5.99 86 30000 (1927) 3 (1954) 1330 53 99 134 150 402 972 1320 3340 6650
2026-04-01 03:00 5.98 84 30000 (1927) 3 (1954) 1330 53 99 134 150 402 972 1320 3340 6650
2026-04-01 02:30 6.03 94 30000 (1927) 3 (1954) 1330 53 99 134 150 402 972 1320 3340 6650
2026-04-01 02:00 6.03 94 30000 (1927) 3 (1954) 1330 53 99 134 150 402 972 1320 3340 6650
2026-04-01 01:30 6.02 92 30000 (1927) 3 (1954) 1330 53 99 134 150 402 972 1320 3340 6650
2026-04-01 01:00 6.02 92 30000 (1927) 3 (1954) 1330 53 99 134 150 402 972 1320 3340 6650
2026-04-01 00:30 6.02 92 30000 (1927) 3 (1954) 1330 53 99 134 150 402 972 1320 3340 6650
2026-04-01 00:00 6.02 92 30000 (1927) 3 (1954) 1330 53 99 134 150 402 972 1320 3340 6650
2026-03-31 23:30 5.98 84 30000 (1927) 3 (1954) 1330 53 99 134 150 402 972 1320 3340 6650
2026-03-31 23:00 6.01 90 30000 (1927) 3 (1954) 1330 53 99 134 150 402 972 1320 3340 6650
2026-03-31 22:30 6.01 90 19000 (2022) 2 (1954) 1500 60 98 140 159 374 1130 1310 3820 8390
2026-03-31 22:00 6.01 90 19000 (2022) 2 (1954) 1500 60 98 140 159 374 1130 1310 3820 8390
2026-03-31 21:30 6.00 88 19000 (2022) 2 (1954) 1500 60 98 140 159 374 1130 1310 3820 8390
2026-03-31 21:00 6.01 90 19000 (2022) 2 (1954) 1500 60 98 140 159 374 1130 1310 3820 8390
2026-03-31 20:30 6.01 90 19000 (2022) 2 (1954) 1500 60 98 140 159 374 1130 1310 3820 8390
2026-03-31 20:00 6.01 90 19000 (2022) 2 (1954) 1500 60 98 140 159 374 1130 1310 3820 8390
2026-03-31 19:30 6.01 90 19000 (2022) 2 (1954) 1500 60 98 140 159 374 1130 1310 3820 8390
2026-03-31 19:00 6.01 90 19000 (2022) 2 (1954) 1500 60 98 140 159 374 1130 1310 3820 8390
2026-03-31 18:30 6.00 88 19000 (2022) 2 (1954) 1500 60 98 140 159 374 1130 1310 3820 8390
2026-03-31 18:00 6.00 88 19000 (2022) 2 (1954) 1500 60 98 140 159 374 1130 1310 3820 8390
2026-03-31 17:30 6.00 88 19000 (2022) 2 (1954) 1500 60 98 140 159 374 1130 1310 3820 8390
2026-03-31 17:00 6.00 88 19000 (2022) 2 (1954) 1500 60 98 140 159 374 1130 1310 3820 8390
2026-03-31 16:30 6.00 88 19000 (2022) 2 (1954) 1500 60 98 140 159 374 1130 1310 3820 8390
2026-03-31 16:00 6.00 88 19000 (2022) 2 (1954) 1500 60 98 140 159 374 1130 1310 3820 8390
2026-03-31 15:30 5.99 86 19000 (2022) 2 (1954) 1500 60 98 140 159 374 1130 1310 3820 8390
2026-03-31 15:00 6.00 88 19000 (2022) 2 (1954) 1500 60 98 140 159 374 1130 1310 3820 8390
2026-03-31 14:30 5.98 84 19000 (2022) 2 (1954) 1500 60 98 140 159 374 1130 1310 3820 8390
2026-03-31 14:00 5.96 81 19000 (2022) 2 (1954) 1500 60 98 140 159 374 1130 1310 3820 8390
2026-03-31 13:30 5.97 83 19000 (2022) 2 (1954) 1500 60 98 140 159 374 1130 1310 3820 8390
2026-03-31 13:00 5.95 79 19000 (2022) 2 (1954) 1500 60 98 140 159 374 1130 1310 3820 8390
2026-03-31 12:30 5.95 79 19000 (2022) 2 (1954) 1500 60 98 140 159 374 1130 1310 3820 8390
2026-03-31 12:00 5.98 84 19000 (2022) 2 (1954) 1500 60 98 140 159 374 1130 1310 3820 8390
2026-03-31 11:30 6.00 88 19000 (2022) 2 (1954) 1500 60 98 140 159 374 1130 1310 3820 8390
2026-03-31 11:00 5.99 86 19000 (2022) 2 (1954) 1500 60 98 140 159 374 1130 1310 3820 8390
2026-03-31 10:30 6.01 90 19000 (2022) 2 (1954) 1500 60 98 140 159 374 1130 1310 3820 8390
2026-03-31 10:00 5.97 83 19000 (2022) 2 (1954) 1500 60 98 140 159 374 1130 1310 3820 8390
2026-03-31 09:30 5.98 84 19000 (2022) 2 (1954) 1500 60 98 140 159 374 1130 1310 3820 8390
2026-03-31 09:00 6.01 90 19000 (2022) 2 (1954) 1500 60 98 140 159 374 1130 1310 3820 8390
2026-03-31 08:30 5.99 86 19000 (2022) 2 (1954) 1500 60 98 140 159 374 1130 1310 3820 8390
2026-03-31 08:00 6.02 92 19000 (2022) 2 (1954) 1500 60 98 140 159 374 1130 1310 3820 8390
2026-03-31 07:30 6.02 92 19000 (2022) 2 (1954) 1500 60 98 140 159 374 1130 1310 3820 8390
2026-03-31 07:00 6.02 92 19000 (2022) 2 (1954) 1500 60 98 140 159 374 1130 1310 3820 8390
2026-03-31 06:30 6.00 88 19000 (2022) 2 (1954) 1500 60 98 140 159 374 1130 1310 3820 8390
2026-03-31 06:00 6.02 92 19000 (2022) 2 (1954) 1500 60 98 140 159 374 1130 1310 3820 8390
2026-03-31 05:30 6.02 92 19000 (2022) 2 (1954) 1500 60 98 140 159 374 1130 1310 3820 8390
2026-03-31 05:00 6.02 92 19000 (2022) 2 (1954) 1500 60 98 140 159 374 1130 1310 3820 8390
2026-03-31 04:30 6.02 92 19000 (2022) 2 (1954) 1500 60 98 140 159 374 1130 1310 3820 8390
2026-03-31 04:00 6.02 92 19000 (2022) 2 (1954) 1500 60 98 140 159 374 1130 1310 3820 8390
2026-03-31 03:30 6.02 92 19000 (2022) 2 (1954) 1500 60 98 140 159 374 1130 1310 3820 8390
2026-03-31 03:00 6.03 94 19000 (2022) 2 (1954) 1500 60 98 140 159 374 1130 1310 3820 8390
2026-03-31 02:30 6.02 92 19000 (2022) 2 (1954) 1500 60 98 140 159 374 1130 1310 3820 8390
2026-03-31 02:00 6.02 92 19000 (2022) 2 (1954) 1500 60 98 140 159 374 1130 1310 3820 8390
2026-03-31 01:30 92 19000 (2022) 2 (1954) 1500 60 98 140 159 374 1130 1310 3820 8390
2026-03-31 01:00 5.96 81 19000 (2022) 2 (1954) 1500 60 98 140 159 374 1130 1310 3820 8390
2026-03-31 00:30 6.00 88 19000 (2022) 2 (1954) 1500 60 98 140 159 374 1130 1310 3820 8390
2026-03-31 00:00 6.02 92 19000 (2022) 2 (1954) 1500 60 98 140 159 374 1130 1310 3820 8390
2026-03-30 23:30 6.03 94 19000 (2022) 2 (1954) 1500 60 98 140 159 374 1130 1310 3820 8390
2026-03-30 23:00 5.97 83 19000 (2022) 2 (1954) 1500 60 98 140 159 374 1130 1310 3820 8390
2026-03-30 22:30 6.03 94 14200 (1960) 2 (1954) 1370 53 119 156 178 367 991 1500 4070 7030
2026-03-30 22:00 6.02 92 14200 (1960) 2 (1954) 1370 53 119 156 178 367 991 1500 4070 7030
2026-03-30 21:30 5.98 84 14200 (1960) 2 (1954) 1370 53 119 156 178 367 991 1500 4070 7030
2026-03-30 21:00 6.03 94 14200 (1960) 2 (1954) 1370 53 119 156 178 367 991 1500 4070 7030
2026-03-30 20:30 6.03 94 14200 (1960) 2 (1954) 1370 53 119 156 178 367 991 1500 4070 7030
2026-03-30 20:00 6.03 94 14200 (1960) 2 (1954) 1370 53 119 156 178 367 991 1500 4070 7030
2026-03-30 19:30 6.00 88 14200 (1960) 2 (1954) 1370 53 119 156 178 367 991 1500 4070 7030
2026-03-30 19:00 6.02 92 14200 (1960) 2 (1954) 1370 53 119 156 178 367 991 1500 4070 7030
2026-03-30 18:30 5.97 83 14200 (1960) 2 (1954) 1370 53 119 156 178 367 991 1500 4070 7030
2026-03-30 18:00 5.96 81 14200 (1960) 2 (1954) 1370 53 119 156 178 367 991 1500 4070 7030
2026-03-30 17:30 5.98 84 14200 (1960) 2 (1954) 1370 53 119 156 178 367 991 1500 4070 7030
2026-03-30 17:00 5.96 81 14200 (1960) 2 (1954) 1370 53 119 156 178 367 991 1500 4070 7030
2026-03-30 16:30 6.02 92 14200 (1960) 2 (1954) 1370 53 119 156 178 367 991 1500 4070 7030
2026-03-30 16:00 6.01 90 14200 (1960) 2 (1954) 1370 53 119 156 178 367 991 1500 4070 7030
2026-03-30 15:30 6.02 92 14200 (1960) 2 (1954) 1370 53 119 156 178 367 991 1500 4070 7030
2026-03-30 15:00 6.04 96 14200 (1960) 2 (1954) 1370 53 119 156 178 367 991 1500 4070 7030
2026-03-30 14:30 6.00 88 14200 (1960) 2 (1954) 1370 53 119 156 178 367 991 1500 4070 7030
2026-03-30 14:00 88 14200 (1960) 2 (1954) 1370 53 119 156 178 367 991 1500 4070 7030
2026-03-30 13:30 5.99 86 14200 (1960) 2 (1954) 1370 53 119 156 178 367 991 1500 4070 7030
2026-03-30 13:00 5.98 84 14200 (1960) 2 (1954) 1370 53 119 156 178 367 991 1500 4070 7030
2026-03-30 12:30 5.96 81 14200 (1960) 2 (1954) 1370 53 119 156 178 367 991 1500 4070 7030
2026-03-30 12:00 5.99 86 14200 (1960) 2 (1954) 1370 53 119 156 178 367 991 1500 4070 7030
2026-03-30 11:30 5.99 86 14200 (1960) 2 (1954) 1370 53 119 156 178 367 991 1500 4070 7030
2026-03-30 11:00 5.98 84 14200 (1960) 2 (1954) 1370 53 119 156 178 367 991 1500 4070 7030
2026-03-30 10:30 5.98 84 14200 (1960) 2 (1954) 1370 53 119 156 178 367 991 1500 4070 7030
2026-03-30 10:00 88 14200 (1960) 2 (1954) 1370 53 119 156 178 367 991 1500 4070 7030
2026-03-30 09:30 5.99 86 14200 (1960) 2 (1954) 1370 53 119 156 178 367 991 1500 4070 7030
2026-03-30 09:00 88 14200 (1960) 2 (1954) 1370 53 119 156 178 367 991 1500 4070 7030
2026-03-30 08:30 6.05 98 14200 (1960) 2 (1954) 1370 53 119 156 178 367 991 1500 4070 7030
2026-03-30 08:00 6.06 100 14200 (1960) 2 (1954) 1370 53 119 156 178 367 991 1500 4070 7030
2026-03-30 07:30 6.06 100 14200 (1960) 2 (1954) 1370 53 119 156 178 367 991 1500 4070 7030
2026-03-30 07:00 6.07 102 14200 (1960) 2 (1954) 1370 53 119 156 178 367 991 1500 4070 7030
2026-03-30 06:30 6.07 102 14200 (1960) 2 (1954) 1370 53 119 156 178 367 991 1500 4070 7030
2026-03-30 06:00 6.07 102 14200 (1960) 2 (1954) 1370 53 119 156 178 367 991 1500 4070 7030
2026-03-30 05:30 102 14200 (1960) 2 (1954) 1370 53 119 156 178 367 991 1500 4070 7030
2026-03-30 05:00 6.07 102 14200 (1960) 2 (1954) 1370 53 119 156 178 367 991 1500 4070 7030
2026-03-30 04:30 6.07 102 14200 (1960) 2 (1954) 1370 53 119 156 178 367 991 1500 4070 7030
2026-03-30 04:00 6.07 102 14200 (1960) 2 (1954) 1370 53 119 156 178 367 991 1500 4070 7030
2026-03-30 03:30 6.07 102 14200 (1960) 2 (1954) 1370 53 119 156 178 367 991 1500 4070 7030
2026-03-30 03:00 104 14200 (1960) 2 (1954) 1370 53 119 156 178 367 991 1500 4070 7030
2026-03-30 02:30 6.08 104 14200 (1960) 2 (1954) 1370 53 119 156 178 367 991 1500 4070 7030
2026-03-30 02:00 6.08 104 14200 (1960) 2 (1954) 1370 53 119 156 178 367 991 1500 4070 7030
2026-03-30 01:30 6.08 104 14200 (1960) 2 (1954) 1370 53 119 156 178 367 991 1500 4070 7030
2026-03-30 01:00 6.08 104 14200 (1960) 2 (1954) 1370 53 119 156 178 367 991 1500 4070 7030
2026-03-30 00:30 106 14200 (1960) 2 (1954) 1370 53 119 156 178 367 991 1500 4070 7030
2026-03-30 00:00 6.09 106 14200 (1960) 2 (1954) 1370 53 119 156 178 367 991 1500 4070 7030
2026-03-29 23:30 6.09 106 14200 (1960) 2 (1954) 1370 53 119 156 178 367 991 1500 4070 7030
2026-03-29 23:00 6.09 106 14200 (1960) 2 (1954) 1370 53 119 156 178 367 991 1500 4070 7030
2026-03-29 22:30 6.09 106 14900 (1924) 3 (1954) 1240 45 100 153 174 341 1190 1580 3430 7310
2026-03-29 22:00 6.09 106 14900 (1924) 3 (1954) 1240 45 100 153 174 341 1190 1580 3430 7310
2026-03-29 21:30 6.09 106 14900 (1924) 3 (1954) 1240 45 100 153 174 341 1190 1580 3430 7310
2026-03-29 21:00 6.09 106 14900 (1924) 3 (1954) 1240 45 100 153 174 341 1190 1580 3430 7310
2026-03-29 20:30 6.09 106 14900 (1924) 3 (1954) 1240 45 100 153 174 341 1190 1580 3430 7310
2026-03-29 20:00 6.10 108 14900 (1924) 3 (1954) 1240 45 100 153 174 341 1190 1580 3430 7310
2026-03-29 19:30 6.10 108 14900 (1924) 3 (1954) 1240 45 100 153 174 341 1190 1580 3430 7310
2026-03-29 19:00 6.10 108 14900 (1924) 3 (1954) 1240 45 100 153 174 341 1190 1580 3430 7310
2026-03-29 18:30 6.08 104 14900 (1924) 3 (1954) 1240 45 100 153 174 341 1190 1580 3430 7310
2026-03-29 18:00 6.09 106 14900 (1924) 3 (1954) 1240 45 100 153 174 341 1190 1580 3430 7310
2026-03-29 17:30 6.08 104 14900 (1924) 3 (1954) 1240 45 100 153 174 341 1190 1580 3430 7310
2026-03-29 17:00 6.09 106 14900 (1924) 3 (1954) 1240 45 100 153 174 341 1190 1580 3430 7310
2026-03-29 16:30 6.10 108 14900 (1924) 3 (1954) 1240 45 100 153 174 341 1190 1580 3430 7310
2026-03-29 16:00 6.08 104 14900 (1924) 3 (1954) 1240 45 100 153 174 341 1190 1580 3430 7310
2026-03-29 15:30 6.07 102 14900 (1924) 3 (1954) 1240 45 100 153 174 341 1190 1580 3430 7310
2026-03-29 15:00 6.04 96 14900 (1924) 3 (1954) 1240 45 100 153 174 341 1190 1580 3430 7310
2026-03-29 14:30 6.07 102 14900 (1924) 3 (1954) 1240 45 100 153 174 341 1190 1580 3430 7310
2026-03-29 14:00 6.07 102 14900 (1924) 3 (1954) 1240 45 100 153 174 341 1190 1580 3430 7310
2026-03-29 13:30 6.09 106 14900 (1924) 3 (1954) 1240 45 100 153 174 341 1190 1580 3430 7310
2026-03-29 13:00 6.05 98 14900 (1924) 3 (1954) 1240 45 100 153 174 341 1190 1580 3430 7310
2026-03-29 12:30 6.09 106 14900 (1924) 3 (1954) 1240 45 100 153 174 341 1190 1580 3430 7310
2026-03-29 12:00 6.10 108 14900 (1924) 3 (1954) 1240 45 100 153 174 341 1190 1580 3430 7310
2026-03-29 11:30 6.09 106 14900 (1924) 3 (1954) 1240 45 100 153 174 341 1190 1580 3430 7310
2026-03-29 11:00 6.09 106 14900 (1924) 3 (1954) 1240 45 100 153 174 341 1190 1580 3430 7310
2026-03-29 10:30 6.09 106 14900 (1924) 3 (1954) 1240 45 100 153 174 341 1190 1580 3430 7310
2026-03-29 10:00 6.09 106 14900 (1924) 3 (1954) 1240 45 100 153 174 341 1190 1580 3430 7310
2026-03-29 09:30 6.09 106 14900 (1924) 3 (1954) 1240 45 100 153 174 341 1190 1580 3430 7310
2026-03-29 09:00 6.09 106 14900 (1924) 3 (1954) 1240 45 100 153 174 341 1190 1580 3430 7310
2026-03-29 08:30 6.09 106 14900 (1924) 3 (1954) 1240 45 100 153 174 341 1190 1580 3430 7310
2026-03-29 08:00 6.09 106 14900 (1924) 3 (1954) 1240 45 100 153 174 341 1190 1580 3430 7310
2026-03-29 07:30 6.09 106 14900 (1924) 3 (1954) 1240 45 100 153 174 341 1190 1580 3430 7310
2026-03-29 07:00 6.09 106 14900 (1924) 3 (1954) 1240 45 100 153 174 341 1190 1580 3430 7310
2026-03-29 06:30 6.08 104 14900 (1924) 3 (1954) 1240 45 100 153 174 341 1190 1580 3430 7310
2026-03-29 06:00 6.08 104 14900 (1924) 3 (1954) 1240 45 100 153 174 341 1190 1580 3430 7310
2026-03-29 05:30 6.08 104 14900 (1924) 3 (1954) 1240 45 100 153 174 341 1190 1580 3430 7310
2026-03-29 05:00 6.08 104 14900 (1924) 3 (1954) 1240 45 100 153 174 341 1190 1580 3430 7310
2026-03-29 04:30 6.08 104 14900 (1924) 3 (1954) 1240 45 100 153 174 341 1190 1580 3430 7310
2026-03-29 04:00 6.08 104 14900 (1924) 3 (1954) 1240 45 100 153 174 341 1190 1580 3430 7310
2026-03-29 03:30 6.08 104 14900 (1924) 3 (1954) 1240 45 100 153 174 341 1190 1580 3430 7310
2026-03-29 03:00 6.07 102 14900 (1924) 3 (1954) 1240 45 100 153 174 341 1190 1580 3430 7310
2026-03-29 02:30 6.08 104 14900 (1924) 3 (1954) 1240 45 100 153 174 341 1190 1580 3430 7310
2026-03-29 02:00 6.07 102 14900 (1924) 3 (1954) 1240 45 100 153 174 341 1190 1580 3430 7310
2026-03-29 01:30 102 14900 (1924) 3 (1954) 1240 45 100 153 174 341 1190 1580 3430 7310
2026-03-29 01:00 6.07 102 14900 (1924) 3 (1954) 1240 45 100 153 174 341 1190 1580 3430 7310
2026-03-29 00:30 6.07 102 14900 (1924) 3 (1954) 1240 45 100 153 174 341 1190 1580 3430 7310
2026-03-29 00:00 6.07 102 14900 (1924) 3 (1954) 1240 45 100 153 174 341 1190 1580 3430 7310
2026-03-28 23:30 6.07 102 14900 (1924) 3 (1954) 1240 45 100 153 174 341 1190 1580 3430 7310
2026-03-28 23:00 6.07 102 14900 (1924) 3 (1954) 1240 45 100 153 174 341 1190 1580 3430 7310
2026-03-28 22:30 6.06 100 20200 (1960) 4 (1954) 981 46 122 170 184 359 883 989 2170 4320
2026-03-28 22:00 6.06 100 20200 (1960) 4 (1954) 981 46 122 170 184 359 883 989 2170 4320
2026-03-28 21:30 6.06 100 20200 (1960) 4 (1954) 981 46 122 170 184 359 883 989 2170 4320
2026-03-28 21:00 6.06 100 20200 (1960) 4 (1954) 981 46 122 170 184 359 883 989 2170 4320
2026-03-28 20:30 6.06 100 20200 (1960) 4 (1954) 981 46 122 170 184 359 883 989 2170 4320
2026-03-28 20:00 6.05 98 20200 (1960) 4 (1954) 981 46 122 170 184 359 883 989 2170 4320
2026-03-28 19:30 6.05 98 20200 (1960) 4 (1954) 981 46 122 170 184 359 883 989 2170 4320
2026-03-28 19:00 6.05 98 20200 (1960) 4 (1954) 981 46 122 170 184 359 883 989 2170 4320
2026-03-28 18:30 6.01 90 20200 (1960) 4 (1954) 981 46 122 170 184 359 883 989 2170 4320
2026-03-28 18:00 6.01 90 20200 (1960) 4 (1954) 981 46 122 170 184 359 883 989 2170 4320
2026-03-28 17:30 6.02 92 20200 (1960) 4 (1954) 981 46 122 170 184 359 883 989 2170 4320
2026-03-28 17:00 6.02 92 20200 (1960) 4 (1954) 981 46 122 170 184 359 883 989 2170 4320
2026-03-28 16:30 5.99 86 20200 (1960) 4 (1954) 981 46 122 170 184 359 883 989 2170 4320
2026-03-28 16:00 5.99 86 20200 (1960) 4 (1954) 981 46 122 170 184 359 883 989 2170 4320
2026-03-28 15:30 6.05 98 20200 (1960) 4 (1954) 981 46 122 170 184 359 883 989 2170 4320
2026-03-28 15:00 6.05 98 20200 (1960) 4 (1954) 981 46 122 170 184 359 883 989 2170 4320
2026-03-28 14:30 6.06 100 20200 (1960) 4 (1954) 981 46 122 170 184 359 883 989 2170 4320
2026-03-28 14:00 6.03 94 20200 (1960) 4 (1954) 981 46 122 170 184 359 883 989 2170 4320
2026-03-28 13:30 5.97 83 20200 (1960) 4 (1954) 981 46 122 170 184 359 883 989 2170 4320
2026-03-28 13:00 6.00 88 20200 (1960) 4 (1954) 981 46 122 170 184 359 883 989 2170 4320
2026-03-28 12:30 5.98 84 20200 (1960) 4 (1954) 981 46 122 170 184 359 883 989 2170 4320
2026-03-28 12:00 5.98 84 20200 (1960) 4 (1954) 981 46 122 170 184 359 883 989 2170 4320
2026-03-28 11:30 6.04 96 20200 (1960) 4 (1954) 981 46 122 170 184 359 883 989 2170 4320
2026-03-28 11:00 6.04 96 20200 (1960) 4 (1954) 981 46 122 170 184 359 883 989 2170 4320
2026-03-28 10:30 6.01 90 20200 (1960) 4 (1954) 981 46 122 170 184 359 883 989 2170 4320
2026-03-28 10:00 6.02 92 20200 (1960) 4 (1954) 981 46 122 170 184 359 883 989 2170 4320
2026-03-28 09:30 6.02 92 20200 (1960) 4 (1954) 981 46 122 170 184 359 883 989 2170 4320
2026-03-28 09:00 6.00 88 20200 (1960) 4 (1954) 981 46 122 170 184 359 883 989 2170 4320
2026-03-28 08:30 6.06 100 20200 (1960) 4 (1954) 981 46 122 170 184 359 883 989 2170 4320
2026-03-28 08:00 6.06 100 20200 (1960) 4 (1954) 981 46 122 170 184 359 883 989 2170 4320
2026-03-28 07:30 6.07 102 20200 (1960) 4 (1954) 981 46 122 170 184 359 883 989 2170 4320
2026-03-28 07:00 6.07 102 20200 (1960) 4 (1954) 981 46 122 170 184 359 883 989 2170 4320
2026-03-28 06:30 6.07 102 20200 (1960) 4 (1954) 981 46 122 170 184 359 883 989 2170 4320
2026-03-28 06:00 6.07 102 20200 (1960) 4 (1954) 981 46 122 170 184 359 883 989 2170 4320
2026-03-28 05:30 6.07 102 20200 (1960) 4 (1954) 981 46 122 170 184 359 883 989 2170 4320
2026-03-28 05:00 6.07 102 20200 (1960) 4 (1954) 981 46 122 170 184 359 883 989 2170 4320
2026-03-28 04:30 102 20200 (1960) 4 (1954) 981 46 122 170 184 359 883 989 2170 4320
2026-03-28 04:00 6.07 102 20200 (1960) 4 (1954) 981 46 122 170 184 359 883 989 2170 4320
2026-03-28 03:30 102 20200 (1960) 4 (1954) 981 46 122 170 184 359 883 989 2170 4320
2026-03-28 03:00 6.07 102 20200 (1960) 4 (1954) 981 46 122 170 184 359 883 989 2170 4320
2026-03-28 02:30 100 20200 (1960) 4 (1954) 981 46 122 170 184 359 883 989 2170 4320
2026-03-28 02:00 102 20200 (1960) 4 (1954) 981 46 122 170 184 359 883 989 2170 4320
2026-03-28 01:30 102 20200 (1960) 4 (1954) 981 46 122 170 184 359 883 989 2170 4320
2026-03-28 01:00 100 20200 (1960) 4 (1954) 981 46 122 170 184 359 883 989 2170 4320
2026-03-28 00:30 6.06 100 20200 (1960) 4 (1954) 981 46 122 170 184 359 883 989 2170 4320
2026-03-28 00:00 100 20200 (1960) 4 (1954) 981 46 122 170 184 359 883 989 2170 4320
2026-03-27 23:30 6.06 100 20200 (1960) 4 (1954) 981 46 122 170 184 359 883 989 2170 4320
2026-03-27 23:00 100 20200 (1960) 4 (1954) 981 46 122 170 184 359 883 989 2170 4320
2026-03-27 22:30 6.06 100 18900 (2018) 4 (1954) 1030 45 70 182 205 390 911 1110 2070 4580
2026-03-27 22:00 6.06 100 18900 (2018) 4 (1954) 1030 45 70 182 205 390 911 1110 2070 4580
2026-03-27 21:30 100 18900 (2018) 4 (1954) 1030 45 70 182 205 390 911 1110 2070 4580
2026-03-27 21:00 6.06 100 18900 (2018) 4 (1954) 1030 45 70 182 205 390 911 1110 2070 4580
2026-03-27 20:30 6.06 100 18900 (2018) 4 (1954) 1030 45 70 182 205 390 911 1110 2070 4580
2026-03-27 20:00 6.06 100 18900 (2018) 4 (1954) 1030 45 70 182 205 390 911 1110 2070 4580
2026-03-27 19:30 6.06 100 18900 (2018) 4 (1954) 1030 45 70 182 205 390 911 1110 2070 4580
2026-03-27 19:00 6.05 98 18900 (2018) 4 (1954) 1030 45 70 182 205 390 911 1110 2070 4580
2026-03-27 18:30 6.06 100 18900 (2018) 4 (1954) 1030 45 70 182 205 390 911 1110 2070 4580
2026-03-27 18:00 6.05 98 18900 (2018) 4 (1954) 1030 45 70 182 205 390 911 1110 2070 4580
2026-03-27 17:30 6.04 96 18900 (2018) 4 (1954) 1030 45 70 182 205 390 911 1110 2070 4580
2026-03-27 17:00 6.04 96 18900 (2018) 4 (1954) 1030 45 70 182 205 390 911 1110 2070 4580
2026-03-27 16:30 6.02 92 18900 (2018) 4 (1954) 1030 45 70 182 205 390 911 1110 2070 4580
2026-03-27 16:00 6.01 90 18900 (2018) 4 (1954) 1030 45 70 182 205 390 911 1110 2070 4580
2026-03-27 15:30 6.07 102 18900 (2018) 4 (1954) 1030 45 70 182 205 390 911 1110 2070 4580
2026-03-27 15:00 6.06 100 18900 (2018) 4 (1954) 1030 45 70 182 205 390 911 1110 2070 4580
2026-03-27 14:30 6.07 102 18900 (2018) 4 (1954) 1030 45 70 182 205 390 911 1110 2070 4580
2026-03-27 14:00 6.08 104 18900 (2018) 4 (1954) 1030 45 70 182 205 390 911 1110 2070 4580
2026-03-27 13:30 6.05 98 18900 (2018) 4 (1954) 1030 45 70 182 205 390 911 1110 2070 4580
2026-03-27 13:00 6.07 102 18900 (2018) 4 (1954) 1030 45 70 182 205 390 911 1110 2070 4580
2026-03-27 12:30 6.05 98 18900 (2018) 4 (1954) 1030 45 70 182 205 390 911 1110 2070 4580
2026-03-27 12:00 6.03 94 18900 (2018) 4 (1954) 1030 45 70 182 205 390 911 1110 2070 4580
2026-03-27 11:30 6.08 104 18900 (2018) 4 (1954) 1030 45 70 182 205 390 911 1110 2070 4580
2026-03-27 11:00 6.08 104 18900 (2018) 4 (1954) 1030 45 70 182 205 390 911 1110 2070 4580
2026-03-27 10:30 6.08 104 18900 (2018) 4 (1954) 1030 45 70 182 205 390 911 1110 2070 4580
2026-03-27 10:00 6.03 94 18900 (2018) 4 (1954) 1030 45 70 182 205 390 911 1110 2070 4580
2026-03-27 09:30 6.08 104 18900 (2018) 4 (1954) 1030 45 70 182 205 390 911 1110 2070 4580
2026-03-27 09:00 6.09 106 18900 (2018) 4 (1954) 1030 45 70 182 205 390 911 1110 2070 4580
2026-03-27 08:30 6.09 106 18900 (2018) 4 (1954) 1030 45 70 182 205 390 911 1110 2070 4580
2026-03-27 08:00 6.09 106 18900 (2018) 4 (1954) 1030 45 70 182 205 390 911 1110 2070 4580
2026-03-27 07:30 6.09 106 18900 (2018) 4 (1954) 1030 45 70 182 205 390 911 1110 2070 4580
2026-03-27 07:00 6.09 106 18900 (2018) 4 (1954) 1030 45 70 182 205 390 911 1110 2070 4580
2026-03-27 06:30 6.09 106 18900 (2018) 4 (1954) 1030 45 70 182 205 390 911 1110 2070 4580
2026-03-27 06:00 6.07 102 18900 (2018) 4 (1954) 1030 45 70 182 205 390 911 1110 2070 4580
2026-03-27 05:30 6.04 96 18900 (2018) 4 (1954) 1030 45 70 182 205 390 911 1110 2070 4580
2026-03-27 05:00 6.03 94 18900 (2018) 4 (1954) 1030 45 70 182 205 390 911 1110 2070 4580
2026-03-27 04:30 6.02 92 18900 (2018) 4 (1954) 1030 45 70 182 205 390 911 1110 2070 4580
2026-03-27 04:00 6.03 94 18900 (2018) 4 (1954) 1030 45 70 182 205 390 911 1110 2070 4580
2026-03-27 03:30 6.04 96 18900 (2018) 4 (1954) 1030 45 70 182 205 390 911 1110 2070 4580
2026-03-27 03:00 6.05 98 18900 (2018) 4 (1954) 1030 45 70 182 205 390 911 1110 2070 4580
2026-03-27 02:30 6.06 100 18900 (2018) 4 (1954) 1030 45 70 182 205 390 911 1110 2070 4580
2026-03-27 02:00 6.05 98 18900 (2018) 4 (1954) 1030 45 70 182 205 390 911 1110 2070 4580
2026-03-27 01:30 6.05 98 18900 (2018) 4 (1954) 1030 45 70 182 205 390 911 1110 2070 4580
2026-03-27 01:00 6.00 88 18900 (2018) 4 (1954) 1030 45 70 182 205 390 911 1110 2070 4580
2026-03-27 00:30 5.99 86 18900 (2018) 4 (1954) 1030 45 70 182 205 390 911 1110 2070 4580
2026-03-27 00:00 6.06 100 18900 (2018) 4 (1954) 1030 45 70 182 205 390 911 1110 2070 4580
2026-03-26 23:30 6.03 94 18900 (2018) 4 (1954) 1030 45 70 182 205 390 911 1110 2070 4580
2026-03-26 23:00 5.98 84 18900 (2018) 4 (1954) 1030 45 70 182 205 390 911 1110 2070 4580
2026-03-26 22:30 6.00 88 18600 (1945) 5 (1954) 1160 34 75 176 206 362 1040 1300 3380 5440
2026-03-26 22:00 5.99 86 18600 (1945) 5 (1954) 1160 34 75 176 206 362 1040 1300 3380 5440
2026-03-26 21:30 6.00 88 18600 (1945) 5 (1954) 1160 34 75 176 206 362 1040 1300 3380 5440
2026-03-26 21:00 6.05 98 18600 (1945) 5 (1954) 1160 34 75 176 206 362 1040 1300 3380 5440
2026-03-26 20:30 6.06 100 18600 (1945) 5 (1954) 1160 34 75 176 206 362 1040 1300 3380 5440
2026-03-26 20:00 6.06 100 18600 (1945) 5 (1954) 1160 34 75 176 206 362 1040 1300 3380 5440
2026-03-26 19:30 6.06 100 18600 (1945) 5 (1954) 1160 34 75 176 206 362 1040 1300 3380 5440
2026-03-26 19:00 6.06 100 18600 (1945) 5 (1954) 1160 34 75 176 206 362 1040 1300 3380 5440
2026-03-26 18:30 6.06 100 18600 (1945) 5 (1954) 1160 34 75 176 206 362 1040 1300 3380 5440
2026-03-26 18:00 6.06 100 18600 (1945) 5 (1954) 1160 34 75 176 206 362 1040 1300 3380 5440
2026-03-26 17:30 6.06 100 18600 (1945) 5 (1954) 1160 34 75 176 206 362 1040 1300 3380 5440
2026-03-26 17:00 6.05 98 18600 (1945) 5 (1954) 1160 34 75 176 206 362 1040 1300 3380 5440
2026-03-26 16:30 6.05 98 18600 (1945) 5 (1954) 1160 34 75 176 206 362 1040 1300 3380 5440
2026-03-26 16:00 6.00 88 18600 (1945) 5 (1954) 1160 34 75 176 206 362 1040 1300 3380 5440
2026-03-26 15:30 5.98 84 18600 (1945) 5 (1954) 1160 34 75 176 206 362 1040 1300 3380 5440
2026-03-26 15:00 6.01 90 18600 (1945) 5 (1954) 1160 34 75 176 206 362 1040 1300 3380 5440
2026-03-26 14:30 6.01 90 18600 (1945) 5 (1954) 1160 34 75 176 206 362 1040 1300 3380 5440
2026-03-26 14:00 6.02 92 18600 (1945) 5 (1954) 1160 34 75 176 206 362 1040 1300 3380 5440
2026-03-26 13:30 6.04 96 18600 (1945) 5 (1954) 1160 34 75 176 206 362 1040 1300 3380 5440
2026-03-26 13:00 6.01 90 18600 (1945) 5 (1954) 1160 34 75 176 206 362 1040 1300 3380 5440
2026-03-26 12:30 6.04 96 18600 (1945) 5 (1954) 1160 34 75 176 206 362 1040 1300 3380 5440
2026-03-26 12:00 6.01 90 18600 (1945) 5 (1954) 1160 34 75 176 206 362 1040 1300 3380 5440
2026-03-26 11:30 6.07 102 18600 (1945) 5 (1954) 1160 34 75 176 206 362 1040 1300 3380 5440
2026-03-26 11:00 6.03 94 18600 (1945) 5 (1954) 1160 34 75 176 206 362 1040 1300 3380 5440
2026-03-26 10:30 6.01 90 18600 (1945) 5 (1954) 1160 34 75 176 206 362 1040 1300 3380 5440
2026-03-26 10:00 5.99 86 18600 (1945) 5 (1954) 1160 34 75 176 206 362 1040 1300 3380 5440
2026-03-26 09:30 6.04 96 18600 (1945) 5 (1954) 1160 34 75 176 206 362 1040 1300 3380 5440
2026-03-26 09:00 6.08 104 18600 (1945) 5 (1954) 1160 34 75 176 206 362 1040 1300 3380 5440
2026-03-26 08:30 6.04 96 18600 (1945) 5 (1954) 1160 34 75 176 206 362 1040 1300 3380 5440
2026-03-26 08:00 6.08 104 18600 (1945) 5 (1954) 1160 34 75 176 206 362 1040 1300 3380 5440
2026-03-26 07:30 6.09 106 18600 (1945) 5 (1954) 1160 34 75 176 206 362 1040 1300 3380 5440
2026-03-26 07:00 6.09 106 18600 (1945) 5 (1954) 1160 34 75 176 206 362 1040 1300 3380 5440
2026-03-26 06:30 6.09 106 18600 (1945) 5 (1954) 1160 34 75 176 206 362 1040 1300 3380 5440
2026-03-26 06:00 6.06 100 18600 (1945) 5 (1954) 1160 34 75 176 206 362 1040 1300 3380 5440
2026-03-26 05:30 6.05 98 18600 (1945) 5 (1954) 1160 34 75 176 206 362 1040 1300 3380 5440
2026-03-26 05:00 6.02 92 18600 (1945) 5 (1954) 1160 34 75 176 206 362 1040 1300 3380 5440
2026-03-26 04:30 6.06 100 18600 (1945) 5 (1954) 1160 34 75 176 206 362 1040 1300 3380 5440
2026-03-26 04:00 6.09 106 18600 (1945) 5 (1954) 1160 34 75 176 206 362 1040 1300 3380 5440
2026-03-26 03:30 6.08 104 18600 (1945) 5 (1954) 1160 34 75 176 206 362 1040 1300 3380 5440
2026-03-26 03:00 104 18600 (1945) 5 (1954) 1160 34 75 176 206 362 1040 1300 3380 5440
2026-03-26 02:30 6.08 104 18600 (1945) 5 (1954) 1160 34 75 176 206 362 1040 1300 3380 5440
2026-03-26 02:00 6.08 104 18600 (1945) 5 (1954) 1160 34 75 176 206 362 1040 1300 3380 5440
2026-03-26 01:30 6.08 104 18600 (1945) 5 (1954) 1160 34 75 176 206 362 1040 1300 3380 5440
2026-03-26 01:00 6.08 104 18600 (1945) 5 (1954) 1160 34 75 176 206 362 1040 1300 3380 5440
2026-03-26 00:30 6.08 104 18600 (1945) 5 (1954) 1160 34 75 176 206 362 1040 1300 3380 5440
2026-03-26 00:00 106 18600 (1945) 5 (1954) 1160 34 75 176 206 362 1040 1300 3380 5440
2026-03-25 23:30 6.09 106 18600 (1945) 5 (1954) 1160 34 75 176 206 362 1040 1300 3380 5440
2026-03-25 23:00 6.09 106 18600 (1945) 5 (1954) 1160 34 75 176 206 362 1040 1300 3380 5440
2026-03-25 22:30 6.09 106 11600 (1969) 7 (1954) 1010 39 75 150 198 373 868 1160 2660 4780
2026-03-25 22:00 6.09 106 11600 (1969) 7 (1954) 1010 39 75 150 198 373 868 1160 2660 4780
2026-03-25 21:30 6.09 106 11600 (1969) 7 (1954) 1010 39 75 150 198 373 868 1160 2660 4780
2026-03-25 21:00 6.09 106 11600 (1969) 7 (1954) 1010 39 75 150 198 373 868 1160 2660 4780
2026-03-25 20:30 6.09 106 11600 (1969) 7 (1954) 1010 39 75 150 198 373 868 1160 2660 4780
2026-03-25 20:00 6.09 106 11600 (1969) 7 (1954) 1010 39 75 150 198 373 868 1160 2660 4780
2026-03-25 19:30 6.09 106 11600 (1969) 7 (1954) 1010 39 75 150 198 373 868 1160 2660 4780
2026-03-25 19:00 6.09 106 11600 (1969) 7 (1954) 1010 39 75 150 198 373 868 1160 2660 4780
2026-03-25 18:30 6.09 106 11600 (1969) 7 (1954) 1010 39 75 150 198 373 868 1160 2660 4780
2026-03-25 18:00 6.09 106 11600 (1969) 7 (1954) 1010 39 75 150 198 373 868 1160 2660 4780
2026-03-25 17:30 6.08 104 11600 (1969) 7 (1954) 1010 39 75 150 198 373 868 1160 2660 4780
2026-03-25 17:00 6.05 98 11600 (1969) 7 (1954) 1010 39 75 150 198 373 868 1160 2660 4780
2026-03-25 16:30 6.09 106 11600 (1969) 7 (1954) 1010 39 75 150 198 373 868 1160 2660 4780
2026-03-25 16:00 6.10 108 11600 (1969) 7 (1954) 1010 39 75 150 198 373 868 1160 2660 4780
2026-03-25 15:30 6.08 104 11600 (1969) 7 (1954) 1010 39 75 150 198 373 868 1160 2660 4780
2026-03-25 15:00 6.09 106 11600 (1969) 7 (1954) 1010 39 75 150 198 373 868 1160 2660 4780
2026-03-25 14:30 6.10 108 11600 (1969) 7 (1954) 1010 39 75 150 198 373 868 1160 2660 4780
2026-03-25 14:00 94 11600 (1969) 7 (1954) 1010 39 75 150 198 373 868 1160 2660 4780
2026-03-25 13:30 6.10 108 11600 (1969) 7 (1954) 1010 39 75 150 198 373 868 1160 2660 4780
2026-03-25 13:00 6.10 108 11600 (1969) 7 (1954) 1010 39 75 150 198 373 868 1160 2660 4780
2026-03-25 12:30 6.10 108 11600 (1969) 7 (1954) 1010 39 75 150 198 373 868 1160 2660 4780
2026-03-25 12:00 108 11600 (1969) 7 (1954) 1010 39 75 150 198 373 868 1160 2660 4780
2026-03-25 11:30 6.10 108 11600 (1969) 7 (1954) 1010 39 75 150 198 373 868 1160 2660 4780
2026-03-25 11:00 6.11 110 11600 (1969) 7 (1954) 1010 39 75 150 198 373 868 1160 2660 4780
2026-03-25 10:30 6.11 110 11600 (1969) 7 (1954) 1010 39 75 150 198 373 868 1160 2660 4780
2026-03-25 10:00 6.11 110 11600 (1969) 7 (1954) 1010 39 75 150 198 373 868 1160 2660 4780
2026-03-25 09:30 6.11 110 11600 (1969) 7 (1954) 1010 39 75 150 198 373 868 1160 2660 4780
2026-03-25 09:00 6.11 110 11600 (1969) 7 (1954) 1010 39 75 150 198 373 868 1160 2660 4780
2026-03-25 08:30 6.11 110 11600 (1969) 7 (1954) 1010 39 75 150 198 373 868 1160 2660 4780
2026-03-25 08:00 6.12 112 11600 (1969) 7 (1954) 1010 39 75 150 198 373 868 1160 2660 4780
2026-03-25 07:30 6.12 112 11600 (1969) 7 (1954) 1010 39 75 150 198 373 868 1160 2660 4780
2026-03-25 07:00 6.12 112 11600 (1969) 7 (1954) 1010 39 75 150 198 373 868 1160 2660 4780
2026-03-25 06:30 6.12 112 11600 (1969) 7 (1954) 1010 39 75 150 198 373 868 1160 2660 4780
2026-03-25 06:00 6.12 112 11600 (1969) 7 (1954) 1010 39 75 150 198 373 868 1160 2660 4780
2026-03-25 05:30 6.12 112 11600 (1969) 7 (1954) 1010 39 75 150 198 373 868 1160 2660 4780
2026-03-25 05:00 6.12 112 11600 (1969) 7 (1954) 1010 39 75 150 198 373 868 1160 2660 4780
2026-03-25 04:30 6.12 112 11600 (1969) 7 (1954) 1010 39 75 150 198 373 868 1160 2660 4780
2026-03-25 04:00 6.13 114 11600 (1969) 7 (1954) 1010 39 75 150 198 373 868 1160 2660 4780
2026-03-25 03:30 6.12 112 11600 (1969) 7 (1954) 1010 39 75 150 198 373 868 1160 2660 4780
2026-03-25 03:00 6.13 114 11600 (1969) 7 (1954) 1010 39 75 150 198 373 868 1160 2660 4780
2026-03-25 02:30 6.13 114 11600 (1969) 7 (1954) 1010 39 75 150 198 373 868 1160 2660 4780
2026-03-25 02:00 6.13 114 11600 (1969) 7 (1954) 1010 39 75 150 198 373 868 1160 2660 4780
2026-03-25 01:30 6.13 114 11600 (1969) 7 (1954) 1010 39 75 150 198 373 868 1160 2660 4780
2026-03-25 01:00 6.13 114 11600 (1969) 7 (1954) 1010 39 75 150 198 373 868 1160 2660 4780
2026-03-25 00:30 114 11600 (1969) 7 (1954) 1010 39 75 150 198 373 868 1160 2660 4780
2026-03-25 00:00 6.13 114 11600 (1969) 7 (1954) 1010 39 75 150 198 373 868 1160 2660 4780
2026-03-24 23:30 6.13 114 11600 (1969) 7 (1954) 1010 39 75 150 198 373 868 1160 2660 4780
2026-03-24 23:00 6.13 114 11600 (1969) 7 (1954) 1010 39 75 150 198 373 868 1160 2660 4780
2026-03-24 22:30 6.13 114 12300 (1969) 4 (1954) 721 25 81 131 164 361 669 810 1540 2470
2026-03-24 22:00 6.13 114 12300 (1969) 4 (1954) 721 25 81 131 164 361 669 810 1540 2470
2026-03-24 21:30 6.13 114 12300 (1969) 4 (1954) 721 25 81 131 164 361 669 810 1540 2470
2026-03-24 21:00 6.13 114 12300 (1969) 4 (1954) 721 25 81 131 164 361 669 810 1540 2470
2026-03-24 20:30 6.14 117 12300 (1969) 4 (1954) 721 25 81 131 164 361 669 810 1540 2470
2026-03-24 20:00 6.14 117 12300 (1969) 4 (1954) 721 25 81 131 164 361 669 810 1540 2470
2026-03-24 19:30 6.14 117 12300 (1969) 4 (1954) 721 25 81 131 164 361 669 810 1540 2470
2026-03-24 19:00 6.14 117 12300 (1969) 4 (1954) 721 25 81 131 164 361 669 810 1540 2470
2026-03-24 18:30 6.10 108 12300 (1969) 4 (1954) 721 25 81 131 164 361 669 810 1540 2470
2026-03-24 18:00 6.09 106 12300 (1969) 4 (1954) 721 25 81 131 164 361 669 810 1540 2470
2026-03-24 17:30 6.14 117 12300 (1969) 4 (1954) 721 25 81 131 164 361 669 810 1540 2470
2026-03-24 17:00 6.10 108 12300 (1969) 4 (1954) 721 25 81 131 164 361 669 810 1540 2470
2026-03-24 16:30 106 12300 (1969) 4 (1954) 721 25 81 131 164 361 669 810 1540 2470
2026-03-24 16:00 6.13 114 12300 (1969) 4 (1954) 721 25 81 131 164 361 669 810 1540 2470
2026-03-24 15:30 6.15 119 12300 (1969) 4 (1954) 721 25 81 131 164 361 669 810 1540 2470
2026-03-24 15:00 6.15 119 12300 (1969) 4 (1954) 721 25 81 131 164 361 669 810 1540 2470
2026-03-24 14:30 6.15 119 12300 (1969) 4 (1954) 721 25 81 131 164 361 669 810 1540 2470
2026-03-24 14:00 6.13 114 12300 (1969) 4 (1954) 721 25 81 131 164 361 669 810 1540 2470
2026-03-24 13:30 104 12300 (1969) 4 (1954) 721 25 81 131 164 361 669 810 1540 2470
2026-03-24 13:00 6.13 114 12300 (1969) 4 (1954) 721 25 81 131 164 361 669 810 1540 2470
2026-03-24 12:30 6.15 119 12300 (1969) 4 (1954) 721 25 81 131 164 361 669 810 1540 2470
2026-03-24 12:00 112 12300 (1969) 4 (1954) 721 25 81 131 164 361 669 810 1540 2470
2026-03-24 11:30 112 12300 (1969) 4 (1954) 721 25 81 131 164 361 669 810 1540 2470
2026-03-24 11:00 108 12300 (1969) 4 (1954) 721 25 81 131 164 361 669 810 1540 2470
2026-03-24 10:30 108 12300 (1969) 4 (1954) 721 25 81 131 164 361 669 810 1540 2470
2026-03-24 10:00 108 12300 (1969) 4 (1954) 721 25 81 131 164 361 669 810 1540 2470
2026-03-24 09:30 102 12300 (1969) 4 (1954) 721 25 81 131 164 361 669 810 1540 2470
2026-03-24 09:00 6.11 110 12300 (1969) 4 (1954) 721 25 81 131 164 361 669 810 1540 2470
2026-03-24 08:30 108 12300 (1969) 4 (1954) 721 25 81 131 164 361 669 810 1540 2470
2026-03-24 08:00 6.11 110 12300 (1969) 4 (1954) 721 25 81 131 164 361 669 810 1540 2470
2026-03-24 07:30 6.16 121 12300 (1969) 4 (1954) 721 25 81 131 164 361 669 810 1540 2470
2026-03-24 07:00 6.18 126 12300 (1969) 4 (1954) 721 25 81 131 164 361 669 810 1540 2470
2026-03-24 06:30 112 12300 (1969) 4 (1954) 721 25 81 131 164 361 669 810 1540 2470
2026-03-24 06:00 6.11 110 12300 (1969) 4 (1954) 721 25 81 131 164 361 669 810 1540 2470
2026-03-24 05:30 6.18 126 12300 (1969) 4 (1954) 721 25 81 131 164 361 669 810 1540 2470
2026-03-24 05:00 6.18 126 12300 (1969) 4 (1954) 721 25 81 131 164 361 669 810 1540 2470
2026-03-24 04:30 6.19 128 12300 (1969) 4 (1954) 721 25 81 131 164 361 669 810 1540 2470
2026-03-24 04:00 6.19 128 12300 (1969) 4 (1954) 721 25 81 131 164 361 669 810 1540 2470
2026-03-24 03:30 128 12300 (1969) 4 (1954) 721 25 81 131 164 361 669 810 1540 2470
2026-03-24 03:00 128 12300 (1969) 4 (1954) 721 25 81 131 164 361 669 810 1540 2470
2026-03-24 02:30 128 12300 (1969) 4 (1954) 721 25 81 131 164 361 669 810 1540 2470
2026-03-24 02:00 123 12300 (1969) 4 (1954) 721 25 81 131 164 361 669 810 1540 2470
2026-03-24 01:30 6.14 117 12300 (1969) 4 (1954) 721 25 81 131 164 361 669 810 1540 2470
2026-03-24 01:00 123 12300 (1969) 4 (1954) 721 25 81 131 164 361 669 810 1540 2470
2026-03-24 00:30 6.18 126 12300 (1969) 4 (1954) 721 25 81 131 164 361 669 810 1540 2470
2026-03-24 00:00 117 12300 (1969) 4 (1954) 721 25 81 131 164 361 669 810 1540 2470
2026-03-23 23:30 6.20 131 12300 (1969) 4 (1954) 721 25 81 131 164 361 669 810 1540 2470
2026-03-23 23:00 6.20 131 12300 (1969) 4 (1954) 721 25 81 131 164 361 669 810 1540 2470
2026-03-23 22:30 6.20 131 9440 (1948) 2 (1954) 697 26 84 116 145 313 658 849 1490 2460
2026-03-23 22:00 131 9440 (1948) 2 (1954) 697 26 84 116 145 313 658 849 1490 2460
2026-03-23 21:30 6.20 131 9440 (1948) 2 (1954) 697 26 84 116 145 313 658 849 1490 2460
2026-03-23 21:00 6.20 131 9440 (1948) 2 (1954) 697 26 84 116 145 313 658 849 1490 2460
2026-03-23 20:30 6.21 133 9440 (1948) 2 (1954) 697 26 84 116 145 313 658 849 1490 2460
2026-03-23 20:00 133 9440 (1948) 2 (1954) 697 26 84 116 145 313 658 849 1490 2460
2026-03-23 19:30 6.21 133 9440 (1948) 2 (1954) 697 26 84 116 145 313 658 849 1490 2460
2026-03-23 19:00 6.21 133 9440 (1948) 2 (1954) 697 26 84 116 145 313 658 849 1490 2460
2026-03-23 18:30 6.18 126 9440 (1948) 2 (1954) 697 26 84 116 145 313 658 849 1490 2460
2026-03-23 18:00 6.15 119 9440 (1948) 2 (1954) 697 26 84 116 145 313 658 849 1490 2460
2026-03-23 17:30 6.16 121 9440 (1948) 2 (1954) 697 26 84 116 145 313 658 849 1490 2460
2026-03-23 17:00 123 9440 (1948) 2 (1954) 697 26 84 116 145 313 658 849 1490 2460
2026-03-23 16:30 6.23 138 9440 (1948) 2 (1954) 697 26 84 116 145 313 658 849 1490 2460
2026-03-23 16:00 6.23 138 9440 (1948) 2 (1954) 697 26 84 116 145 313 658 849 1490 2460
2026-03-23 15:30 6.23 138 9440 (1948) 2 (1954) 697 26 84 116 145 313 658 849 1490 2460
2026-03-23 15:00 138 9440 (1948) 2 (1954) 697 26 84 116 145 313 658 849 1490 2460
2026-03-23 14:30 141 9440 (1948) 2 (1954) 697 26 84 116 145 313 658 849 1490 2460
2026-03-23 14:00 141 9440 (1948) 2 (1954) 697 26 84 116 145 313 658 849 1490 2460
2026-03-23 13:30 6.24 141 9440 (1948) 2 (1954) 697 26 84 116 145 313 658 849 1490 2460
2026-03-23 13:00 6.24 141 9440 (1948) 2 (1954) 697 26 84 116 145 313 658 849 1490 2460
2026-03-23 12:30 141 9440 (1948) 2 (1954) 697 26 84 116 145 313 658 849 1490 2460
2026-03-23 12:00 6.25 143 9440 (1948) 2 (1954) 697 26 84 116 145 313 658 849 1490 2460
2026-03-23 11:30 6.25 143 9440 (1948) 2 (1954) 697 26 84 116 145 313 658 849 1490 2460
2026-03-23 11:00 143 9440 (1948) 2 (1954) 697 26 84 116 145 313 658 849 1490 2460
2026-03-23 10:30 6.26 146 9440 (1948) 2 (1954) 697 26 84 116 145 313 658 849 1490 2460
2026-03-23 10:00 146 9440 (1948) 2 (1954) 697 26 84 116 145 313 658 849 1490 2460
2026-03-23 09:30 146 9440 (1948) 2 (1954) 697 26 84 116 145 313 658 849 1490 2460
2026-03-23 09:00 136 9440 (1948) 2 (1954) 697 26 84 116 145 313 658 849 1490 2460
2026-03-23 08:30 146 9440 (1948) 2 (1954) 697 26 84 116 145 313 658 849 1490 2460
2026-03-23 08:00 6.27 148 9440 (1948) 2 (1954) 697 26 84 116 145 313 658 849 1490 2460
2026-03-23 07:30 6.27 148 9440 (1948) 2 (1954) 697 26 84 116 145 313 658 849 1490 2460
2026-03-23 07:00 151 9440 (1948) 2 (1954) 697 26 84 116 145 313 658 849 1490 2460
2026-03-23 06:30 6.28 151 9440 (1948) 2 (1954) 697 26 84 116 145 313 658 849 1490 2460
2026-03-23 06:00 151 9440 (1948) 2 (1954) 697 26 84 116 145 313 658 849 1490 2460
2026-03-23 05:30 6.28 151 9440 (1948) 2 (1954) 697 26 84 116 145 313 658 849 1490 2460
2026-03-23 05:00 6.28 151 9440 (1948) 2 (1954) 697 26 84 116 145 313 658 849 1490 2460
2026-03-23 04:30 6.29 154 9440 (1948) 2 (1954) 697 26 84 116 145 313 658 849 1490 2460
2026-03-23 04:00 154 9440 (1948) 2 (1954) 697 26 84 116 145 313 658 849 1490 2460
2026-03-23 03:30 154 9440 (1948) 2 (1954) 697 26 84 116 145 313 658 849 1490 2460
2026-03-23 03:00 154 9440 (1948) 2 (1954) 697 26 84 116 145 313 658 849 1490 2460
2026-03-23 02:30 154 9440 (1948) 2 (1954) 697 26 84 116 145 313 658 849 1490 2460
2026-03-23 02:00 154 9440 (1948) 2 (1954) 697 26 84 116 145 313 658 849 1490 2460
2026-03-23 01:30 6.29 154 9440 (1948) 2 (1954) 697 26 84 116 145 313 658 849 1490 2460
2026-03-23 01:00 154 9440 (1948) 2 (1954) 697 26 84 116 145 313 658 849 1490 2460
2026-03-23 00:30 154 9440 (1948) 2 (1954) 697 26 84 116 145 313 658 849 1490 2460
2026-03-23 00:00 6.29 154 9440 (1948) 2 (1954) 697 26 84 116 145 313 658 849 1490 2460
2026-03-22 23:30 154 9440 (1948) 2 (1954) 697 26 84 116 145 313 658 849 1490 2460
2026-03-22 23:00 6.30 157 9440 (1948) 2 (1954) 697 26 84 116 145 313 658 849 1490 2460
2026-03-22 22:30 6.30 157 11700 (1948) 3 (1954) 815 27 89 121 134 267 707 1010 1720 2860
2026-03-22 22:00 6.28 151 11700 (1948) 3 (1954) 815 27 89 121 134 267 707 1010 1720 2860
2026-03-22 21:30 6.30 157 11700 (1948) 3 (1954) 815 27 89 121 134 267 707 1010 1720 2860
2026-03-22 21:00 157 11700 (1948) 3 (1954) 815 27 89 121 134 267 707 1010 1720 2860
2026-03-22 20:30 6.30 157 11700 (1948) 3 (1954) 815 27 89 121 134 267 707 1010 1720 2860
2026-03-22 20:00 6.31 159 11700 (1948) 3 (1954) 815 27 89 121 134 267 707 1010 1720 2860
2026-03-22 19:30 6.27 148 11700 (1948) 3 (1954) 815 27 89 121 134 267 707 1010 1720 2860
2026-03-22 19:00 6.27 148 11700 (1948) 3 (1954) 815 27 89 121 134 267 707 1010 1720 2860
2026-03-22 18:30 6.30 157 11700 (1948) 3 (1954) 815 27 89 121 134 267 707 1010 1720 2860
2026-03-22 18:00 6.26 146 11700 (1948) 3 (1954) 815 27 89 121 134 267 707 1010 1720 2860
2026-03-22 17:30 6.25 143 11700 (1948) 3 (1954) 815 27 89 121 134 267 707 1010 1720 2860
2026-03-22 17:00 6.31 159 11700 (1948) 3 (1954) 815 27 89 121 134 267 707 1010 1720 2860
2026-03-22 16:30 6.28 151 11700 (1948) 3 (1954) 815 27 89 121 134 267 707 1010 1720 2860
2026-03-22 16:00 6.26 146 11700 (1948) 3 (1954) 815 27 89 121 134 267 707 1010 1720 2860
2026-03-22 15:30 6.26 146 11700 (1948) 3 (1954) 815 27 89 121 134 267 707 1010 1720 2860
2026-03-22 15:00 6.29 154 11700 (1948) 3 (1954) 815 27 89 121 134 267 707 1010 1720 2860
2026-03-22 14:30 6.32 162 11700 (1948) 3 (1954) 815 27 89 121 134 267 707 1010 1720 2860
2026-03-22 14:00 6.27 148 11700 (1948) 3 (1954) 815 27 89 121 134 267 707 1010 1720 2860
2026-03-22 13:30 6.34 168 11700 (1948) 3 (1954) 815 27 89 121 134 267 707 1010 1720 2860
2026-03-22 13:00 6.33 165 11700 (1948) 3 (1954) 815 27 89 121 134 267 707 1010 1720 2860
2026-03-22 12:30 6.29 154 11700 (1948) 3 (1954) 815 27 89 121 134 267 707 1010 1720 2860
2026-03-22 12:00 6.30 157 11700 (1948) 3 (1954) 815 27 89 121 134 267 707 1010 1720 2860
2026-03-22 11:30 6.32 162 11700 (1948) 3 (1954) 815 27 89 121 134 267 707 1010 1720 2860
2026-03-22 11:00 6.34 168 11700 (1948) 3 (1954) 815 27 89 121 134 267 707 1010 1720 2860
2026-03-22 10:30 6.35 171 11700 (1948) 3 (1954) 815 27 89 121 134 267 707 1010 1720 2860
2026-03-22 10:00 6.35 171 11700 (1948) 3 (1954) 815 27 89 121 134 267 707 1010 1720 2860
2026-03-22 09:30 6.35 171 11700 (1948) 3 (1954) 815 27 89 121 134 267 707 1010 1720 2860
2026-03-22 09:00 6.35 171 11700 (1948) 3 (1954) 815 27 89 121 134 267 707 1010 1720 2860
2026-03-22 08:30 6.35 171 11700 (1948) 3 (1954) 815 27 89 121 134 267 707 1010 1720 2860
2026-03-22 08:00 6.36 174 11700 (1948) 3 (1954) 815 27 89 121 134 267 707 1010 1720 2860
2026-03-22 07:30 6.36 174 11700 (1948) 3 (1954) 815 27 89 121 134 267 707 1010 1720 2860
2026-03-22 07:00 6.37 177 11700 (1948) 3 (1954) 815 27 89 121 134 267 707 1010 1720 2860
2026-03-22 06:30 6.36 174 11700 (1948) 3 (1954) 815 27 89 121 134 267 707 1010 1720 2860
2026-03-22 06:00 177 11700 (1948) 3 (1954) 815 27 89 121 134 267 707 1010 1720 2860
2026-03-22 05:30 6.37 177 11700 (1948) 3 (1954) 815 27 89 121 134 267 707 1010 1720 2860
2026-03-22 05:00 6.37 177 11700 (1948) 3 (1954) 815 27 89 121 134 267 707 1010 1720 2860
2026-03-22 04:30 177 11700 (1948) 3 (1954) 815 27 89 121 134 267 707 1010 1720 2860
2026-03-22 04:00 177 11700 (1948) 3 (1954) 815 27 89 121 134 267 707 1010 1720 2860
2026-03-22 03:30 177 11700 (1948) 3 (1954) 815 27 89 121 134 267 707 1010 1720 2860
2026-03-22 03:00 177 11700 (1948) 3 (1954) 815 27 89 121 134 267 707 1010 1720 2860
2026-03-22 02:30 177 11700 (1948) 3 (1954) 815 27 89 121 134 267 707 1010 1720 2860
2026-03-22 02:00 180 11700 (1948) 3 (1954) 815 27 89 121 134 267 707 1010 1720 2860
2026-03-22 01:30 6.38 180 11700 (1948) 3 (1954) 815 27 89 121 134 267 707 1010 1720 2860
2026-03-22 01:00 180 11700 (1948) 3 (1954) 815 27 89 121 134 267 707 1010 1720 2860
2026-03-22 00:30 180 11700 (1948) 3 (1954) 815 27 89 121 134 267 707 1010 1720 2860
2026-03-22 00:00 6.38 180 11700 (1948) 3 (1954) 815 27 89 121 134 267 707 1010 1720 2860
2026-03-21 23:30 180 11700 (1948) 3 (1954) 815 27 89 121 134 267 707 1010 1720 2860
2026-03-21 23:00 183 11700 (1948) 3 (1954) 815 27 89 121 134 267 707 1010 1720 2860
2026-03-21 22:30 180 25600 (1962) 4 (1954) 1340 30 73 130 151 304 859 1160 3030 7140
2026-03-21 22:00 6.39 183 25600 (1962) 4 (1954) 1340 30 73 130 151 304 859 1160 3030 7140
2026-03-21 21:30 183 25600 (1962) 4 (1954) 1340 30 73 130 151 304 859 1160 3030 7140
2026-03-21 21:00 6.39 183 25600 (1962) 4 (1954) 1340 30 73 130 151 304 859 1160 3030 7140
2026-03-21 20:30 6.39 183 25600 (1962) 4 (1954) 1340 30 73 130 151 304 859 1160 3030 7140
2026-03-21 20:00 6.39 183 25600 (1962) 4 (1954) 1340 30 73 130 151 304 859 1160 3030 7140
2026-03-21 19:30 6.39 183 25600 (1962) 4 (1954) 1340 30 73 130 151 304 859 1160 3030 7140
2026-03-21 19:00 6.40 186 25600 (1962) 4 (1954) 1340 30 73 130 151 304 859 1160 3030 7140
2026-03-21 18:30 186 25600 (1962) 4 (1954) 1340 30 73 130 151 304 859 1160 3030 7140
2026-03-21 18:00 6.40 186 25600 (1962) 4 (1954) 1340 30 73 130 151 304 859 1160 3030 7140
2026-03-21 17:30 6.40 186 25600 (1962) 4 (1954) 1340 30 73 130 151 304 859 1160 3030 7140
2026-03-21 17:00 6.41 189 25600 (1962) 4 (1954) 1340 30 73 130 151 304 859 1160 3030 7140
2026-03-21 16:30 6.41 189 25600 (1962) 4 (1954) 1340 30 73 130 151 304 859 1160 3030 7140
2026-03-21 16:00 189 25600 (1962) 4 (1954) 1340 30 73 130 151 304 859 1160 3030 7140
2026-03-21 15:30 6.40 186 25600 (1962) 4 (1954) 1340 30 73 130 151 304 859 1160 3030 7140
2026-03-21 15:00 6.39 183 25600 (1962) 4 (1954) 1340 30 73 130 151 304 859 1160 3030 7140
2026-03-21 14:30 6.42 192 25600 (1962) 4 (1954) 1340 30 73 130 151 304 859 1160 3030 7140
2026-03-21 14:00 6.42 192 25600 (1962) 4 (1954) 1340 30 73 130 151 304 859 1160 3030 7140
2026-03-21 13:30 6.41 189 25600 (1962) 4 (1954) 1340 30 73 130 151 304 859 1160 3030 7140
2026-03-21 13:00 6.42 192 25600 (1962) 4 (1954) 1340 30 73 130 151 304 859 1160 3030 7140
2026-03-21 12:30 6.43 195 25600 (1962) 4 (1954) 1340 30 73 130 151 304 859 1160 3030 7140
2026-03-21 12:00 195 25600 (1962) 4 (1954) 1340 30 73 130 151 304 859 1160 3030 7140
2026-03-21 11:30 6.43 195 25600 (1962) 4 (1954) 1340 30 73 130 151 304 859 1160 3030 7140
2026-03-21 11:00 6.43 195 25600 (1962) 4 (1954) 1340 30 73 130 151 304 859 1160 3030 7140
2026-03-21 10:30 6.43 195 25600 (1962) 4 (1954) 1340 30 73 130 151 304 859 1160 3030 7140
2026-03-21 10:00 6.44 199 25600 (1962) 4 (1954) 1340 30 73 130 151 304 859 1160 3030 7140
2026-03-21 09:30 6.44 199 25600 (1962) 4 (1954) 1340 30 73 130 151 304 859 1160 3030 7140
2026-03-21 09:00 6.44 199 25600 (1962) 4 (1954) 1340 30 73 130 151 304 859 1160 3030 7140
2026-03-21 08:30 6.45 202 25600 (1962) 4 (1954) 1340 30 73 130 151 304 859 1160 3030 7140
2026-03-21 08:00 202 25600 (1962) 4 (1954) 1340 30 73 130 151 304 859 1160 3030 7140
2026-03-21 07:30 6.45 202 25600 (1962) 4 (1954) 1340 30 73 130 151 304 859 1160 3030 7140
2026-03-21 07:00 6.46 205 25600 (1962) 4 (1954) 1340 30 73 130 151 304 859 1160 3030 7140
2026-03-21 06:30 6.46 205 25600 (1962) 4 (1954) 1340 30 73 130 151 304 859 1160 3030 7140
2026-03-21 06:00 6.46 205 25600 (1962) 4 (1954) 1340 30 73 130 151 304 859 1160 3030 7140
2026-03-21 05:30 6.47 208 25600 (1962) 4 (1954) 1340 30 73 130 151 304 859 1160 3030 7140
2026-03-21 05:00 6.46 205 25600 (1962) 4 (1954) 1340 30 73 130 151 304 859 1160 3030 7140
2026-03-21 04:30 6.47 208 25600 (1962) 4 (1954) 1340 30 73 130 151 304 859 1160 3030 7140
2026-03-21 04:00 208 25600 (1962) 4 (1954) 1340 30 73 130 151 304 859 1160 3030 7140
2026-03-21 03:30 208 25600 (1962) 4 (1954) 1340 30 73 130 151 304 859 1160 3030 7140
2026-03-21 03:00 208 25600 (1962) 4 (1954) 1340 30 73 130 151 304 859 1160 3030 7140
2026-03-21 02:30 208 25600 (1962) 4 (1954) 1340 30 73 130 151 304 859 1160 3030 7140
2026-03-21 02:00 212 25600 (1962) 4 (1954) 1340 30 73 130 151 304 859 1160 3030 7140
2026-03-21 01:30 212 25600 (1962) 4 (1954) 1340 30 73 130 151 304 859 1160 3030 7140
2026-03-21 01:00 6.48 212 25600 (1962) 4 (1954) 1340 30 73 130 151 304 859 1160 3030 7140
2026-03-21 00:30 212 25600 (1962) 4 (1954) 1340 30 73 130 151 304 859 1160 3030 7140
2026-03-21 00:00 212 25600 (1962) 4 (1954) 1340 30 73 130 151 304 859 1160 3030 7140
2026-03-20 23:30 6.49 215 25600 (1962) 4 (1954) 1340 30 73 130 151 304 859 1160 3030 7140
2026-03-20 23:00 215 25600 (1962) 4 (1954) 1340 30 73 130 151 304 859 1160 3030 7140
2026-03-20 22:30 6.49 215 32200 (1927) 2 (1954) 1510 32 86 146 158 324 985 1350 3750 8860
2026-03-20 22:00 215 32200 (1927) 2 (1954) 1510 32 86 146 158 324 985 1350 3750 8860
2026-03-20 21:30 6.49 215 32200 (1927) 2 (1954) 1510 32 86 146 158 324 985 1350 3750 8860
2026-03-20 21:00 219 32200 (1927) 2 (1954) 1510 32 86 146 158 324 985 1350 3750 8860
2026-03-20 20:30 6.50 219 32200 (1927) 2 (1954) 1510 32 86 146 158 324 985 1350 3750 8860
2026-03-20 20:00 6.50 219 32200 (1927) 2 (1954) 1510 32 86 146 158 324 985 1350 3750 8860
2026-03-20 19:30 6.50 219 32200 (1927) 2 (1954) 1510 32 86 146 158 324 985 1350 3750 8860
2026-03-20 19:00 6.50 219 32200 (1927) 2 (1954) 1510 32 86 146 158 324 985 1350 3750 8860
2026-03-20 18:30 6.51 222 32200 (1927) 2 (1954) 1510 32 86 146 158 324 985 1350 3750 8860
2026-03-20 18:00 6.51 222 32200 (1927) 2 (1954) 1510 32 86 146 158 324 985 1350 3750 8860
2026-03-20 17:30 6.51 222 32200 (1927) 2 (1954) 1510 32 86 146 158 324 985 1350 3750 8860
2026-03-20 17:00 6.49 215 32200 (1927) 2 (1954) 1510 32 86 146 158 324 985 1350 3750 8860
2026-03-20 16:30 6.46 205 32200 (1927) 2 (1954) 1510 32 86 146 158 324 985 1350 3750 8860
2026-03-20 16:00 6.47 208 32200 (1927) 2 (1954) 1510 32 86 146 158 324 985 1350 3750 8860
2026-03-20 15:30 222 32200 (1927) 2 (1954) 1510 32 86 146 158 324 985 1350 3750 8860
2026-03-20 15:00 6.53 229 32200 (1927) 2 (1954) 1510 32 86 146 158 324 985 1350 3750 8860
2026-03-20 14:30 219 32200 (1927) 2 (1954) 1510 32 86 146 158 324 985 1350 3750 8860
2026-03-20 14:00 6.54 233 32200 (1927) 2 (1954) 1510 32 86 146 158 324 985 1350 3750 8860
2026-03-20 13:30 212 32200 (1927) 2 (1954) 1510 32 86 146 158 324 985 1350 3750 8860
2026-03-20 13:00 6.50 219 32200 (1927) 2 (1954) 1510 32 86 146 158 324 985 1350 3750 8860
2026-03-20 12:30 212 32200 (1927) 2 (1954) 1510 32 86 146 158 324 985 1350 3750 8860
2026-03-20 12:00 6.46 205 32200 (1927) 2 (1954) 1510 32 86 146 158 324 985 1350 3750 8860
2026-03-20 11:30 6.55 237 32200 (1927) 2 (1954) 1510 32 86 146 158 324 985 1350 3750 8860
2026-03-20 11:00 237 32200 (1927) 2 (1954) 1510 32 86 146 158 324 985 1350 3750 8860
2026-03-20 10:30 6.55 237 32200 (1927) 2 (1954) 1510 32 86 146 158 324 985 1350 3750 8860
2026-03-20 10:00 6.56 240 32200 (1927) 2 (1954) 1510 32 86 146 158 324 985 1350 3750 8860
2026-03-20 09:30 6.56 240 32200 (1927) 2 (1954) 1510 32 86 146 158 324 985 1350 3750 8860
2026-03-20 09:00 6.56 240 32200 (1927) 2 (1954) 1510 32 86 146 158 324 985 1350 3750 8860
2026-03-20 08:30 6.57 244 32200 (1927) 2 (1954) 1510 32 86 146 158 324 985 1350 3750 8860
2026-03-20 08:00 6.57 244 32200 (1927) 2 (1954) 1510 32 86 146 158 324 985 1350 3750 8860
2026-03-20 07:30 6.58 248 32200 (1927) 2 (1954) 1510 32 86 146 158 324 985 1350 3750 8860
2026-03-20 07:00 6.58 248 32200 (1927) 2 (1954) 1510 32 86 146 158 324 985 1350 3750 8860
2026-03-20 06:30 6.58 248 32200 (1927) 2 (1954) 1510 32 86 146 158 324 985 1350 3750 8860
2026-03-20 06:00 251 32200 (1927) 2 (1954) 1510 32 86 146 158 324 985 1350 3750 8860
2026-03-20 05:30 6.59 251 32200 (1927) 2 (1954) 1510 32 86 146 158 324 985 1350 3750 8860
2026-03-20 05:00 251 32200 (1927) 2 (1954) 1510 32 86 146 158 324 985 1350 3750 8860
2026-03-20 04:30 6.59 251 32200 (1927) 2 (1954) 1510 32 86 146 158 324 985 1350 3750 8860
2026-03-20 04:00 255 32200 (1927) 2 (1954) 1510 32 86 146 158 324 985 1350 3750 8860
2026-03-20 03:30 255 32200 (1927) 2 (1954) 1510 32 86 146 158 324 985 1350 3750 8860
2026-03-20 03:00 6.60 255 32200 (1927) 2 (1954) 1510 32 86 146 158 324 985 1350 3750 8860
2026-03-20 02:30 255 32200 (1927) 2 (1954) 1510 32 86 146 158 324 985 1350 3750 8860
2026-03-20 02:00 259 32200 (1927) 2 (1954) 1510 32 86 146 158 324 985 1350 3750 8860
2026-03-20 01:30 6.61 259 32200 (1927) 2 (1954) 1510 32 86 146 158 324 985 1350 3750 8860
2026-03-20 01:00 259 32200 (1927) 2 (1954) 1510 32 86 146 158 324 985 1350 3750 8860
2026-03-20 00:30 259 32200 (1927) 2 (1954) 1510 32 86 146 158 324 985 1350 3750 8860
2026-03-20 00:00 6.61 259 32200 (1927) 2 (1954) 1510 32 86 146 158 324 985 1350 3750 8860
2026-03-19 23:30 6.62 263 32200 (1927) 2 (1954) 1510 32 86 146 158 324 985 1350 3750 8860
2026-03-19 23:00 263 32200 (1927) 2 (1954) 1510 32 86 146 158 324 985 1350 3750 8860
2026-03-19 22:30 6.62 263 26200 (1927) 2 (1954) 1710 33 86 127 166 291 826 1300 4190 12200
2026-03-19 22:00 6.62 263 26200 (1927) 2 (1954) 1710 33 86 127 166 291 826 1300 4190 12200
2026-03-19 21:30 6.63 267 26200 (1927) 2 (1954) 1710 33 86 127 166 291 826 1300 4190 12200
2026-03-19 21:00 6.63 267 26200 (1927) 2 (1954) 1710 33 86 127 166 291 826 1300 4190 12200
2026-03-19 20:30 6.63 267 26200 (1927) 2 (1954) 1710 33 86 127 166 291 826 1300 4190 12200
2026-03-19 20:00 6.64 270 26200 (1927) 2 (1954) 1710 33 86 127 166 291 826 1300 4190 12200
2026-03-19 19:30 6.64 270 26200 (1927) 2 (1954) 1710 33 86 127 166 291 826 1300 4190 12200
2026-03-19 19:00 6.64 270 26200 (1927) 2 (1954) 1710 33 86 127 166 291 826 1300 4190 12200
2026-03-19 18:30 6.65 273 26200 (1927) 2 (1954) 1710 33 86 127 166 291 826 1300 4190 12200
2026-03-19 18:00 6.65 273 26200 (1927) 2 (1954) 1710 33 86 127 166 291 826 1300 4190 12200
2026-03-19 17:30 6.65 273 26200 (1927) 2 (1954) 1710 33 86 127 166 291 826 1300 4190 12200
2026-03-19 17:00 6.66 276 26200 (1927) 2 (1954) 1710 33 86 127 166 291 826 1300 4190 12200
2026-03-19 16:30 6.66 276 26200 (1927) 2 (1954) 1710 33 86 127 166 291 826 1300 4190 12200
2026-03-19 16:00 6.67 280 26200 (1927) 2 (1954) 1710 33 86 127 166 291 826 1300 4190 12200
2026-03-19 15:30 280 26200 (1927) 2 (1954) 1710 33 86 127 166 291 826 1300 4190 12200
2026-03-19 15:00 6.68 283 26200 (1927) 2 (1954) 1710 33 86 127 166 291 826 1300 4190 12200
2026-03-19 14:30 283 26200 (1927) 2 (1954) 1710 33 86 127 166 291 826 1300 4190 12200
2026-03-19 14:00 283 26200 (1927) 2 (1954) 1710 33 86 127 166 291 826 1300 4190 12200
2026-03-19 13:30 6.69 286 26200 (1927) 2 (1954) 1710 33 86 127 166 291 826 1300 4190 12200
2026-03-19 13:00 6.69 286 26200 (1927) 2 (1954) 1710 33 86 127 166 291 826 1300 4190 12200
2026-03-19 12:30 289 26200 (1927) 2 (1954) 1710 33 86 127 166 291 826 1300 4190 12200
2026-03-19 12:00 6.70 289 26200 (1927) 2 (1954) 1710 33 86 127 166 291 826 1300 4190 12200
2026-03-19 11:30 6.70 289 26200 (1927) 2 (1954) 1710 33 86 127 166 291 826 1300 4190 12200
2026-03-19 11:00 6.71 292 26200 (1927) 2 (1954) 1710 33 86 127 166 291 826 1300 4190 12200
2026-03-19 10:30 292 26200 (1927) 2 (1954) 1710 33 86 127 166 291 826 1300 4190 12200
2026-03-19 10:00 6.72 296 26200 (1927) 2 (1954) 1710 33 86 127 166 291 826 1300 4190 12200
2026-03-19 09:30 6.72 296 26200 (1927) 2 (1954) 1710 33 86 127 166 291 826 1300 4190 12200
2026-03-19 09:00 6.73 299 26200 (1927) 2 (1954) 1710 33 86 127 166 291 826 1300 4190 12200
2026-03-19 08:30 6.73 299 26200 (1927) 2 (1954) 1710 33 86 127 166 291 826 1300 4190 12200
2026-03-19 08:00 6.74 302 26200 (1927) 2 (1954) 1710 33 86 127 166 291 826 1300 4190 12200
2026-03-19 07:30 6.74 302 26200 (1927) 2 (1954) 1710 33 86 127 166 291 826 1300 4190 12200
2026-03-19 07:00 6.75 305 26200 (1927) 2 (1954) 1710 33 86 127 166 291 826 1300 4190 12200
2026-03-19 06:30 6.75 305 26200 (1927) 2 (1954) 1710 33 86 127 166 291 826 1300 4190 12200
2026-03-19 06:00 6.75 305 26200 (1927) 2 (1954) 1710 33 86 127 166 291 826 1300 4190 12200
2026-03-19 05:30 6.76 309 26200 (1927) 2 (1954) 1710 33 86 127 166 291 826 1300 4190 12200
2026-03-19 05:00 6.77 312 26200 (1927) 2 (1954) 1710 33 86 127 166 291 826 1300 4190 12200
2026-03-19 04:30 6.77 312 26200 (1927) 2 (1954) 1710 33 86 127 166 291 826 1300 4190 12200
2026-03-19 04:00 312 26200 (1927) 2 (1954) 1710 33 86 127 166 291 826 1300 4190 12200
2026-03-19 03:30 315 26200 (1927) 2 (1954) 1710 33 86 127 166 291 826 1300 4190 12200
2026-03-19 03:00 6.78 315 26200 (1927) 2 (1954) 1710 33 86 127 166 291 826 1300 4190 12200
2026-03-19 02:30 319 26200 (1927) 2 (1954) 1710 33 86 127 166 291 826 1300 4190 12200
2026-03-19 02:00 6.79 319 26200 (1927) 2 (1954) 1710 33 86 127 166 291 826 1300 4190 12200
2026-03-19 01:30 322 26200 (1927) 2 (1954) 1710 33 86 127 166 291 826 1300 4190 12200
2026-03-19 01:00 6.80 322 26200 (1927) 2 (1954) 1710 33 86 127 166 291 826 1300 4190 12200
2026-03-19 00:30 326 26200 (1927) 2 (1954) 1710 33 86 127 166 291 826 1300 4190 12200
2026-03-19 00:00 6.82 329 26200 (1927) 2 (1954) 1710 33 86 127 166 291 826 1300 4190 12200
2026-03-18 23:30 329 26200 (1927) 2 (1954) 1710 33 86 127 166 291 826 1300 4190 12200
2026-03-18 23:00 6.82 329 26200 (1927) 2 (1954) 1710 33 86 127 166 291 826 1300 4190 12200
2026-03-18 22:30 6.83 333 22300 (2021) 1 (1954) 1300 35 83 121 144 276 731 958 3110 5700
2026-03-18 22:00 6.84 336 22300 (2021) 1 (1954) 1300 35 83 121 144 276 731 958 3110 5700
2026-03-18 21:30 6.84 336 22300 (2021) 1 (1954) 1300 35 83 121 144 276 731 958 3110 5700
2026-03-18 21:00 6.84 336 22300 (2021) 1 (1954) 1300 35 83 121 144 276 731 958 3110 5700
2026-03-18 20:30 6.85 340 22300 (2021) 1 (1954) 1300 35 83 121 144 276 731 958 3110 5700
2026-03-18 20:00 6.85 340 22300 (2021) 1 (1954) 1300 35 83 121 144 276 731 958 3110 5700
2026-03-18 19:30 6.86 343 22300 (2021) 1 (1954) 1300 35 83 121 144 276 731 958 3110 5700
2026-03-18 19:00 6.86 343 22300 (2021) 1 (1954) 1300 35 83 121 144 276 731 958 3110 5700
2026-03-18 18:30 6.87 347 22300 (2021) 1 (1954) 1300 35 83 121 144 276 731 958 3110 5700
2026-03-18 18:00 6.88 350 22300 (2021) 1 (1954) 1300 35 83 121 144 276 731 958 3110 5700
2026-03-18 17:30 6.88 350 22300 (2021) 1 (1954) 1300 35 83 121 144 276 731 958 3110 5700
2026-03-18 17:00 6.89 354 22300 (2021) 1 (1954) 1300 35 83 121 144 276 731 958 3110 5700
2026-03-18 16:30 6.90 358 22300 (2021) 1 (1954) 1300 35 83 121 144 276 731 958 3110 5700
2026-03-18 16:00 6.90 358 22300 (2021) 1 (1954) 1300 35 83 121 144 276 731 958 3110 5700
2026-03-18 15:30 361 22300 (2021) 1 (1954) 1300 35 83 121 144 276 731 958 3110 5700
2026-03-18 15:00 6.92 365 22300 (2021) 1 (1954) 1300 35 83 121 144 276 731 958 3110 5700
2026-03-18 14:30 6.92 365 22300 (2021) 1 (1954) 1300 35 83 121 144 276 731 958 3110 5700
2026-03-18 14:00 6.93 369 22300 (2021) 1 (1954) 1300 35 83 121 144 276 731 958 3110 5700
2026-03-18 13:30 6.94 372 22300 (2021) 1 (1954) 1300 35 83 121 144 276 731 958 3110 5700
2026-03-18 13:00 6.95 376 22300 (2021) 1 (1954) 1300 35 83 121 144 276 731 958 3110 5700
2026-03-18 12:30 6.96 380 22300 (2021) 1 (1954) 1300 35 83 121 144 276 731 958 3110 5700
2026-03-18 12:00 6.97 384 22300 (2021) 1 (1954) 1300 35 83 121 144 276 731 958 3110 5700
2026-03-18 11:30 6.97 384 22300 (2021) 1 (1954) 1300 35 83 121 144 276 731 958 3110 5700
2026-03-18 11:00 6.97 384 22300 (2021) 1 (1954) 1300 35 83 121 144 276 731 958 3110 5700
2026-03-18 10:30 387 22300 (2021) 1 (1954) 1300 35 83 121 144 276 731 958 3110 5700
2026-03-18 10:00 391 22300 (2021) 1 (1954) 1300 35 83 121 144 276 731 958 3110 5700
2026-03-18 09:30 7.00 395 22300 (2021) 1 (1954) 1300 35 83 121 144 276 731 958 3110 5700
2026-03-18 09:00 7.01 399 22300 (2021) 1 (1954) 1300 35 83 121 144 276 731 958 3110 5700
2026-03-18 08:30 7.02 403 22300 (2021) 1 (1954) 1300 35 83 121 144 276 731 958 3110 5700
2026-03-18 08:00 7.03 407 22300 (2021) 1 (1954) 1300 35 83 121 144 276 731 958 3110 5700
2026-03-18 07:30 7.04 411 22300 (2021) 1 (1954) 1300 35 83 121 144 276 731 958 3110 5700
2026-03-18 07:00 7.05 415 22300 (2021) 1 (1954) 1300 35 83 121 144 276 731 958 3110 5700
2026-03-18 06:30 7.06 419 22300 (2021) 1 (1954) 1300 35 83 121 144 276 731 958 3110 5700
2026-03-18 06:00 7.07 423 22300 (2021) 1 (1954) 1300 35 83 121 144 276 731 958 3110 5700
2026-03-18 05:30 7.07 423 22300 (2021) 1 (1954) 1300 35 83 121 144 276 731 958 3110 5700
2026-03-18 05:00 7.09 431 22300 (2021) 1 (1954) 1300 35 83 121 144 276 731 958 3110 5700
2026-03-18 04:30 7.10 435 22300 (2021) 1 (1954) 1300 35 83 121 144 276 731 958 3110 5700
2026-03-18 04:00 7.10 435 22300 (2021) 1 (1954) 1300 35 83 121 144 276 731 958 3110 5700
2026-03-18 03:30 439 22300 (2021) 1 (1954) 1300 35 83 121 144 276 731 958 3110 5700
2026-03-18 03:00 443 22300 (2021) 1 (1954) 1300 35 83 121 144 276 731 958 3110 5700
2026-03-18 02:30 7.13 447 22300 (2021) 1 (1954) 1300 35 83 121 144 276 731 958 3110 5700
2026-03-18 02:00 451 22300 (2021) 1 (1954) 1300 35 83 121 144 276 731 958 3110 5700
2026-03-18 01:30 456 22300 (2021) 1 (1954) 1300 35 83 121 144 276 731 958 3110 5700
2026-03-18 01:00 7.16 460 22300 (2021) 1 (1954) 1300 35 83 121 144 276 731 958 3110 5700
2026-03-18 00:30 468 22300 (2021) 1 (1954) 1300 35 83 121 144 276 731 958 3110 5700
2026-03-18 00:00 7.18 468 22300 (2021) 1 (1954) 1300 35 83 121 144 276 731 958 3110 5700
2026-03-17 23:30 7.20 477 22300 (2021) 1 (1954) 1300 35 83 121 144 276 731 958 3110 5700
2026-03-17 23:00 464 22300 (2021) 1 (1954) 1300 35 83 121 144 276 731 958 3110 5700
2026-03-17 22:30 7.22 486 14600 (1951) 1 (1954) 1070 37 74 128 175 312 821 1030 2670 6040
2026-03-17 22:00 490 14600 (1951) 1 (1954) 1070 37 74 128 175 312 821 1030 2670 6040
2026-03-17 21:30 7.24 494 14600 (1951) 1 (1954) 1070 37 74 128 175 312 821 1030 2670 6040
2026-03-17 21:00 7.26 503 14600 (1951) 1 (1954) 1070 37 74 128 175 312 821 1030 2670 6040
2026-03-17 20:30 7.27 508 14600 (1951) 1 (1954) 1070 37 74 128 175 312 821 1030 2670 6040
2026-03-17 20:00 7.28 512 14600 (1951) 1 (1954) 1070 37 74 128 175 312 821 1030 2670 6040
2026-03-17 19:30 7.30 521 14600 (1951) 1 (1954) 1070 37 74 128 175 312 821 1030 2670 6040
2026-03-17 19:00 7.31 526 14600 (1951) 1 (1954) 1070 37 74 128 175 312 821 1030 2670 6040
2026-03-17 18:30 7.32 531 14600 (1951) 1 (1954) 1070 37 74 128 175 312 821 1030 2670 6040
2026-03-17 18:00 7.34 540 14600 (1951) 1 (1954) 1070 37 74 128 175 312 821 1030 2670 6040
2026-03-17 17:30 7.35 544 14600 (1951) 1 (1954) 1070 37 74 128 175 312 821 1030 2670 6040
2026-03-17 17:00 7.36 549 14600 (1951) 1 (1954) 1070 37 74 128 175 312 821 1030 2670 6040
2026-03-17 16:30 7.38 559 14600 (1951) 1 (1954) 1070 37 74 128 175 312 821 1030 2670 6040
2026-03-17 16:00 7.39 563 14600 (1951) 1 (1954) 1070 37 74 128 175 312 821 1030 2670 6040
2026-03-17 15:30 573 14600 (1951) 1 (1954) 1070 37 74 128 175 312 821 1030 2670 6040
2026-03-17 15:00 7.42 578 14600 (1951) 1 (1954) 1070 37 74 128 175 312 821 1030 2670 6040
2026-03-17 14:30 7.44 588 14600 (1951) 1 (1954) 1070 37 74 128 175 312 821 1030 2670 6040
2026-03-17 14:00 7.44 588 14600 (1951) 1 (1954) 1070 37 74 128 175 312 821 1030 2670 6040
2026-03-17 13:30 7.46 597 14600 (1951) 1 (1954) 1070 37 74 128 175 312 821 1030 2670 6040
2026-03-17 13:00 7.46 597 14600 (1951) 1 (1954) 1070 37 74 128 175 312 821 1030 2670 6040
2026-03-17 12:30 7.47 602 14600 (1951) 1 (1954) 1070 37 74 128 175 312 821 1030 2670 6040
2026-03-17 12:00 7.46 597 14600 (1951) 1 (1954) 1070 37 74 128 175 312 821 1030 2670 6040
2026-03-17 11:30 7.48 607 14600 (1951) 1 (1954) 1070 37 74 128 175 312 821 1030 2670 6040
2026-03-17 11:00 7.48 607 14600 (1951) 1 (1954) 1070 37 74 128 175 312 821 1030 2670 6040
2026-03-17 10:30 7.49 612 14600 (1951) 1 (1954) 1070 37 74 128 175 312 821 1030 2670 6040
2026-03-17 10:00 7.49 612 14600 (1951) 1 (1954) 1070 37 74 128 175 312 821 1030 2670 6040
2026-03-17 09:30 7.50 617 14600 (1951) 1 (1954) 1070 37 74 128 175 312 821 1030 2670 6040
2026-03-17 09:00 7.51 622 14600 (1951) 1 (1954) 1070 37 74 128 175 312 821 1030 2670 6040
2026-03-17 08:30 7.53 633 14600 (1951) 1 (1954) 1070 37 74 128 175 312 821 1030 2670 6040
2026-03-17 08:00 7.56 648 14600 (1951) 1 (1954) 1070 37 74 128 175 312 821 1030 2670 6040
2026-03-17 07:30 7.58 658 14600 (1951) 1 (1954) 1070 37 74 128 175 312 821 1030 2670 6040
2026-03-17 07:00 7.60 669 14600 (1951) 1 (1954) 1070 37 74 128 175 312 821 1030 2670 6040
2026-03-17 06:30 7.62 680 14600 (1951) 1 (1954) 1070 37 74 128 175 312 821 1030 2670 6040
2026-03-17 06:00 7.65 696 14600 (1951) 1 (1954) 1070 37 74 128 175 312 821 1030 2670 6040
2026-03-17 05:30 7.67 706 14600 (1951) 1 (1954) 1070 37 74 128 175 312 821 1030 2670 6040
2026-03-17 05:00 7.69 717 14600 (1951) 1 (1954) 1070 37 74 128 175 312 821 1030 2670 6040
2026-03-17 04:30 7.72 734 14600 (1951) 1 (1954) 1070 37 74 128 175 312 821 1030 2670 6040
2026-03-17 04:00 7.74 745 14600 (1951) 1 (1954) 1070 37 74 128 175 312 821 1030 2670 6040
2026-03-17 03:30 7.77 762 14600 (1951) 1 (1954) 1070 37 74 128 175 312 821 1030 2670 6040
2026-03-17 03:00 7.80 780 14600 (1951) 1 (1954) 1070 37 74 128 175 312 821 1030 2670 6040
2026-03-17 02:30 797 14600 (1951) 1 (1954) 1070 37 74 128 175 312 821 1030 2670 6040
2026-03-17 02:00 7.86 815 14600 (1951) 1 (1954) 1070 37 74 128 175 312 821 1030 2670 6040
2026-03-17 01:30 7.89 833 14600 (1951) 1 (1954) 1070 37 74 128 175 312 821 1030 2670 6040
2026-03-17 01:00 7.91 845 14600 (1951) 1 (1954) 1070 37 74 128 175 312 821 1030 2670 6040
2026-03-17 00:30 7.95 869 14600 (1951) 1 (1954) 1070 37 74 128 175 312 821 1030 2670 6040
2026-03-17 00:00 7.98 888 14600 (1951) 1 (1954) 1070 37 74 128 175 312 821 1030 2670 6040
2026-03-16 23:30 8.02 913 14600 (1951) 1 (1954) 1070 37 74 128 175 312 821 1030 2670 6040
2026-03-16 23:00 8.05 932 14600 (1951) 1 (1954) 1070 37 74 128 175 312 821 1030 2670 6040
2026-03-16 22:30 8.08 952 38500 (1929) 1 (1954) 1330 40 72 137 187 317 978 1190 2750 6240
2026-03-16 22:00 8.13 984 38500 (1929) 1 (1954) 1330 40 72 137 187 317 978 1190 2750 6240
2026-03-16 21:30 8.16 1000 38500 (1929) 1 (1954) 1330 40 72 137 187 317 978 1190 2750 6240
2026-03-16 21:00 8.21 1040 38500 (1929) 1 (1954) 1330 40 72 137 187 317 978 1190 2750 6240
2026-03-16 20:30 8.25 1070 38500 (1929) 1 (1954) 1330 40 72 137 187 317 978 1190 2750 6240
2026-03-16 20:00 8.28 1090 38500 (1929) 1 (1954) 1330 40 72 137 187 317 978 1190 2750 6240
2026-03-16 19:30 8.34 1130 38500 (1929) 1 (1954) 1330 40 72 137 187 317 978 1190 2750 6240
2026-03-16 19:00 8.38 1160 38500 (1929) 1 (1954) 1330 40 72 137 187 317 978 1190 2750 6240
2026-03-16 18:30 8.42 1190 38500 (1929) 1 (1954) 1330 40 72 137 187 317 978 1190 2750 6240
2026-03-16 18:00 8.49 1240 38500 (1929) 1 (1954) 1330 40 72 137 187 317 978 1190 2750 6240
2026-03-16 17:30 8.51 1260 38500 (1929) 1 (1954) 1330 40 72 137 187 317 978 1190 2750 6240
2026-03-16 17:00 1310 38500 (1929) 1 (1954) 1330 40 72 137 187 317 978 1190 2750 6240
2026-03-16 16:30 8.65 1370 38500 (1929) 1 (1954) 1330 40 72 137 187 317 978 1190 2750 6240
2026-03-16 16:00 8.70 1410 38500 (1929) 1 (1954) 1330 40 72 137 187 317 978 1190 2750 6240
2026-03-16 15:30 8.77 1470 38500 (1929) 1 (1954) 1330 40 72 137 187 317 978 1190 2750 6240
2026-03-16 15:00 8.85 1530 38500 (1929) 1 (1954) 1330 40 72 137 187 317 978 1190 2750 6240
2026-03-16 14:30 8.93 1600 38500 (1929) 1 (1954) 1330 40 72 137 187 317 978 1190 2750 6240
2026-03-16 14:00 9.01 1680 38500 (1929) 1 (1954) 1330 40 72 137 187 317 978 1190 2750 6240
2026-03-16 13:30 9.08 1740 38500 (1929) 1 (1954) 1330 40 72 137 187 317 978 1190 2750 6240
2026-03-16 13:00 9.16 1810 38500 (1929) 1 (1954) 1330 40 72 137 187 317 978 1190 2750 6240
2026-03-16 12:30 9.23 1880 38500 (1929) 1 (1954) 1330 40 72 137 187 317 978 1190 2750 6240
2026-03-16 12:00 9.29 1940 38500 (1929) 1 (1954) 1330 40 72 137 187 317 978 1190 2750 6240
2026-03-16 11:30 9.34 1990 38500 (1929) 1 (1954) 1330 40 72 137 187 317 978 1190 2750 6240
2026-03-16 11:00 9.41 2060 38500 (1929) 1 (1954) 1330 40 72 137 187 317 978 1190 2750 6240
2026-03-16 10:30 9.46 2090 38500 (1929) 1 (1954) 1330 40 72 137 187 317 978 1190 2750 6240
2026-03-16 10:00 9.49 2110 38500 (1929) 1 (1954) 1330 40 72 137 187 317 978 1190 2750 6240
2026-03-16 09:30 9.53 2140 38500 (1929) 1 (1954) 1330 40 72 137 187 317 978 1190 2750 6240
2026-03-16 09:00 9.55 2150 38500 (1929) 1 (1954) 1330 40 72 137 187 317 978 1190 2750 6240
2026-03-16 08:30 2140 38500 (1929) 1 (1954) 1330 40 72 137 187 317 978 1190 2750 6240
2026-03-16 08:00 9.55 2150 38500 (1929) 1 (1954) 1330 40 72 137 187 317 978 1190 2750 6240
2026-03-16 07:30 9.52 2130 38500 (1929) 1 (1954) 1330 40 72 137 187 317 978 1190 2750 6240
2026-03-16 07:00 9.43 2070 38500 (1929) 1 (1954) 1330 40 72 137 187 317 978 1190 2750 6240
2026-03-16 06:30 9.29 1940 38500 (1929) 1 (1954) 1330 40 72 137 187 317 978 1190 2750 6240
2026-03-16 06:00 9.03 1690 38500 (1929) 1 (1954) 1330 40 72 137 187 317 978 1190 2750 6240
2026-03-16 05:30 8.78 1470 38500 (1929) 1 (1954) 1330 40 72 137 187 317 978 1190 2750 6240
2026-03-16 05:00 8.55 1290 38500 (1929) 1 (1954) 1330 40 72 137 187 317 978 1190 2750 6240
2026-03-16 04:30 8.50 1250 38500 (1929) 1 (1954) 1330 40 72 137 187 317 978 1190 2750 6240
2026-03-16 04:00 8.50 1250 38500 (1929) 1 (1954) 1330 40 72 137 187 317 978 1190 2750 6240
2026-03-16 03:30 8.51 1260 38500 (1929) 1 (1954) 1330 40 72 137 187 317 978 1190 2750 6240
2026-03-16 03:00 1260 38500 (1929) 1 (1954) 1330 40 72 137 187 317 978 1190 2750 6240
2026-03-16 02:30 1230 38500 (1929) 1 (1954) 1330 40 72 137 187 317 978 1190 2750 6240
2026-03-16 02:00 8.42 1190 38500 (1929) 1 (1954) 1330 40 72 137 187 317 978 1190 2750 6240
2026-03-16 01:30 8.35 1140 38500 (1929) 1 (1954) 1330 40 72 137 187 317 978 1190 2750 6240
2026-03-16 01:00 1100 38500 (1929) 1 (1954) 1330 40 72 137 187 317 978 1190 2750 6240
2026-03-16 00:30 8.25 1070 38500 (1929) 1 (1954) 1330 40 72 137 187 317 978 1190 2750 6240
2026-03-16 00:00 8.22 1050 38500 (1929) 1 (1954) 1330 40 72 137 187 317 978 1190 2750 6240
2026-03-15 23:30 1020 38500 (1929) 1 (1954) 1330 40 72 137 187 317 978 1190 2750 6240
2026-03-15 23:00 8.19 1020 38500 (1929) 1 (1954) 1330 40 72 137 187 317 978 1190 2750 6240
2026-03-15 22:30 8.17 1010 19300 (1922) 1 (1954) 1140 44 71 128 164 369 1020 1170 2450 4380
2026-03-15 22:00 8.16 1000 19300 (1922) 1 (1954) 1140 44 71 128 164 369 1020 1170 2450 4380
2026-03-15 21:30 8.12 978 19300 (1922) 1 (1954) 1140 44 71 128 164 369 1020 1170 2450 4380
2026-03-15 21:00 894 19300 (1922) 1 (1954) 1140 44 71 128 164 369 1020 1170 2450 4380
2026-03-15 20:30 7.87 821 19300 (1922) 1 (1954) 1140 44 71 128 164 369 1020 1170 2450 4380
2026-03-15 20:00 7.56 648 19300 (1922) 1 (1954) 1140 44 71 128 164 369 1020 1170 2450 4380
2026-03-15 19:30 7.25 499 19300 (1922) 1 (1954) 1140 44 71 128 164 369 1020 1170 2450 4380
2026-03-15 19:00 7.04 411 19300 (1922) 1 (1954) 1140 44 71 128 164 369 1020 1170 2450 4380
2026-03-15 18:30 6.98 387 19300 (1922) 1 (1954) 1140 44 71 128 164 369 1020 1170 2450 4380
2026-03-15 18:00 6.92 365 19300 (1922) 1 (1954) 1140 44 71 128 164 369 1020 1170 2450 4380
2026-03-15 17:30 6.89 354 19300 (1922) 1 (1954) 1140 44 71 128 164 369 1020 1170 2450 4380
2026-03-15 17:00 6.86 343 19300 (1922) 1 (1954) 1140 44 71 128 164 369 1020 1170 2450 4380
2026-03-15 16:30 6.86 343 19300 (1922) 1 (1954) 1140 44 71 128 164 369 1020 1170 2450 4380
2026-03-15 16:00 6.80 322 19300 (1922) 1 (1954) 1140 44 71 128 164 369 1020 1170 2450 4380
2026-03-15 15:30 6.77 312 19300 (1922) 1 (1954) 1140 44 71 128 164 369 1020 1170 2450 4380
2026-03-15 15:00 6.82 329 19300 (1922) 1 (1954) 1140 44 71 128 164 369 1020 1170 2450 4380
2026-03-15 14:30 6.76 309 19300 (1922) 1 (1954) 1140 44 71 128 164 369 1020 1170 2450 4380
2026-03-15 14:00 6.83 333 19300 (1922) 1 (1954) 1140 44 71 128 164 369 1020 1170 2450 4380
2026-03-15 13:30 6.78 315 19300 (1922) 1 (1954) 1140 44 71 128 164 369 1020 1170 2450 4380
2026-03-15 13:00 6.83 333 19300 (1922) 1 (1954) 1140 44 71 128 164 369 1020 1170 2450 4380
2026-03-15 12:30 6.84 336 19300 (1922) 1 (1954) 1140 44 71 128 164 369 1020 1170 2450 4380
2026-03-15 12:00 6.83 333 19300 (1922) 1 (1954) 1140 44 71 128 164 369 1020 1170 2450 4380
2026-03-15 11:30 6.85 340 19300 (1922) 1 (1954) 1140 44 71 128 164 369 1020 1170 2450 4380
2026-03-15 11:00 6.86 343 19300 (1922) 1 (1954) 1140 44 71 128 164 369 1020 1170 2450 4380
2026-03-15 10:30 6.85 340 19300 (1922) 1 (1954) 1140 44 71 128 164 369 1020 1170 2450 4380
2026-03-15 10:00 6.88 350 19300 (1922) 1 (1954) 1140 44 71 128 164 369 1020 1170 2450 4380
2026-03-15 09:30 6.88 350 19300 (1922) 1 (1954) 1140 44 71 128 164 369 1020 1170 2450 4380
2026-03-15 09:00 6.89 354 19300 (1922) 1 (1954) 1140 44 71 128 164 369 1020 1170 2450 4380
2026-03-15 08:30 6.90 358 19300 (1922) 1 (1954) 1140 44 71 128 164 369 1020 1170 2450 4380
2026-03-15 08:00 6.91 361 19300 (1922) 1 (1954) 1140 44 71 128 164 369 1020 1170 2450 4380
2026-03-15 07:30 6.92 365 19300 (1922) 1 (1954) 1140 44 71 128 164 369 1020 1170 2450 4380
2026-03-15 07:00 6.92 365 19300 (1922) 1 (1954) 1140 44 71 128 164 369 1020 1170 2450 4380
2026-03-15 06:30 6.93 369 19300 (1922) 1 (1954) 1140 44 71 128 164 369 1020 1170 2450 4380
2026-03-15 06:00 6.94 372 19300 (1922) 1 (1954) 1140 44 71 128 164 369 1020 1170 2450 4380
2026-03-15 05:30 6.94 372 19300 (1922) 1 (1954) 1140 44 71 128 164 369 1020 1170 2450 4380
2026-03-15 05:00 6.95 376 19300 (1922) 1 (1954) 1140 44 71 128 164 369 1020 1170 2450 4380
2026-03-15 04:30 6.95 376 19300 (1922) 1 (1954) 1140 44 71 128 164 369 1020 1170 2450 4380
2026-03-15 04:00 6.96 380 19300 (1922) 1 (1954) 1140 44 71 128 164 369 1020 1170 2450 4380
2026-03-15 03:30 384 19300 (1922) 1 (1954) 1140 44 71 128 164 369 1020 1170 2450 4380
2026-03-15 03:00 6.98 387 19300 (1922) 1 (1954) 1140 44 71 128 164 369 1020 1170 2450 4380
2026-03-15 02:30 387 19300 (1922) 1 (1954) 1140 44 71 128 164 369 1020 1170 2450 4380
2026-03-15 02:00 391 19300 (1922) 1 (1954) 1140 44 71 128 164 369 1020 1170 2450 4380
2026-03-15 01:30 395 19300 (1922) 1 (1954) 1140 44 71 128 164 369 1020 1170 2450 4380
2026-03-15 01:00 7.01 399 19300 (1922) 1 (1954) 1140 44 71 128 164 369 1020 1170 2450 4380
2026-03-15 00:30 399 19300 (1922) 1 (1954) 1140 44 71 128 164 369 1020 1170 2450 4380
2026-03-15 00:00 7.02 403 19300 (1922) 1 (1954) 1140 44 71 128 164 369 1020 1170 2450 4380
2026-03-14 23:30 407 19300 (1922) 1 (1954) 1140 44 71 128 164 369 1020 1170 2450 4380
2026-03-14 23:00 7.04 411 19300 (1922) 1 (1954) 1140 44 71 128 164 369 1020 1170 2450 4380
2026-03-14 22:30 7.04 411 23200 (1922) 1 (1954) 1320 39 68 138 166 378 971 1220 3180 7080
2026-03-14 22:00 415 23200 (1922) 1 (1954) 1320 39 68 138 166 378 971 1220 3180 7080
2026-03-14 21:30 7.06 419 23200 (1922) 1 (1954) 1320 39 68 138 166 378 971 1220 3180 7080
2026-03-14 21:00 423 23200 (1922) 1 (1954) 1320 39 68 138 166 378 971 1220 3180 7080
2026-03-14 20:30 7.06 419 23200 (1922) 1 (1954) 1320 39 68 138 166 378 971 1220 3180 7080
2026-03-14 20:00 7.09 431 23200 (1922) 1 (1954) 1320 39 68 138 166 378 971 1220 3180 7080
2026-03-14 19:30 7.09 431 23200 (1922) 1 (1954) 1320 39 68 138 166 378 971 1220 3180 7080
2026-03-14 19:00 7.10 435 23200 (1922) 1 (1954) 1320 39 68 138 166 378 971 1220 3180 7080
2026-03-14 18:30 7.06 419 23200 (1922) 1 (1954) 1320 39 68 138 166 378 971 1220 3180 7080
2026-03-14 18:00 7.05 415 23200 (1922) 1 (1954) 1320 39 68 138 166 378 971 1220 3180 7080
2026-03-14 17:30 7.07 423 23200 (1922) 1 (1954) 1320 39 68 138 166 378 971 1220 3180 7080
2026-03-14 17:00 7.08 427 23200 (1922) 1 (1954) 1320 39 68 138 166 378 971 1220 3180 7080
2026-03-14 16:30 7.09 431 23200 (1922) 1 (1954) 1320 39 68 138 166 378 971 1220 3180 7080
2026-03-14 16:00 7.10 435 23200 (1922) 1 (1954) 1320 39 68 138 166 378 971 1220 3180 7080
2026-03-14 15:30 7.12 443 23200 (1922) 1 (1954) 1320 39 68 138 166 378 971 1220 3180 7080
2026-03-14 15:00 7.13 447 23200 (1922) 1 (1954) 1320 39 68 138 166 378 971 1220 3180 7080
2026-03-14 14:30 7.11 439 23200 (1922) 1 (1954) 1320 39 68 138 166 378 971 1220 3180 7080
2026-03-14 14:00 7.17 464 23200 (1922) 1 (1954) 1320 39 68 138 166 378 971 1220 3180 7080
2026-03-14 13:30 7.14 451 23200 (1922) 1 (1954) 1320 39 68 138 166 378 971 1220 3180 7080
2026-03-14 13:00 7.21 481 23200 (1922) 1 (1954) 1320 39 68 138 166 378 971 1220 3180 7080
2026-03-14 12:30 7.17 464 23200 (1922) 1 (1954) 1320 39 68 138 166 378 971 1220 3180 7080
2026-03-14 12:00 7.18 468 23200 (1922) 1 (1954) 1320 39 68 138 166 378 971 1220 3180 7080
2026-03-14 11:30 7.19 473 23200 (1922) 1 (1954) 1320 39 68 138 166 378 971 1220 3180 7080
2026-03-14 11:00 7.20 477 23200 (1922) 1 (1954) 1320 39 68 138 166 378 971 1220 3180 7080
2026-03-14 10:30 7.23 490 23200 (1922) 1 (1954) 1320 39 68 138 166 378 971 1220 3180 7080
2026-03-14 10:00 7.25 499 23200 (1922) 1 (1954) 1320 39 68 138 166 378 971 1220 3180 7080
2026-03-14 09:30 512 23200 (1922) 1 (1954) 1320 39 68 138 166 378 971 1220 3180 7080
2026-03-14 09:00 7.25 499 23200 (1922) 1 (1954) 1320 39 68 138 166 378 971 1220 3180 7080
2026-03-14 08:30 7.34 540 23200 (1922) 1 (1954) 1320 39 68 138 166 378 971 1220 3180 7080
2026-03-14 08:00 7.35 544 23200 (1922) 1 (1954) 1320 39 68 138 166 378 971 1220 3180 7080
2026-03-14 07:30 7.37 554 23200 (1922) 1 (1954) 1320 39 68 138 166 378 971 1220 3180 7080
2026-03-14 07:00 7.38 559 23200 (1922) 1 (1954) 1320 39 68 138 166 378 971 1220 3180 7080
2026-03-14 06:30 7.40 568 23200 (1922) 1 (1954) 1320 39 68 138 166 378 971 1220 3180 7080
2026-03-14 06:00 7.42 578 23200 (1922) 1 (1954) 1320 39 68 138 166 378 971 1220 3180 7080
2026-03-14 05:30 7.43 583 23200 (1922) 1 (1954) 1320 39 68 138 166 378 971 1220 3180 7080
2026-03-14 05:00 7.45 592 23200 (1922) 1 (1954) 1320 39 68 138 166 378 971 1220 3180 7080
2026-03-14 04:30 597 23200 (1922) 1 (1954) 1320 39 68 138 166 378 971 1220 3180 7080
2026-03-14 04:00 7.48 607 23200 (1922) 1 (1954) 1320 39 68 138 166 378 971 1220 3180 7080
2026-03-14 03:30 612 23200 (1922) 1 (1954) 1320 39 68 138 166 378 971 1220 3180 7080
2026-03-14 03:00 622 23200 (1922) 1 (1954) 1320 39 68 138 166 378 971 1220 3180 7080
2026-03-14 02:30 633 23200 (1922) 1 (1954) 1320 39 68 138 166 378 971 1220 3180 7080
2026-03-14 02:00 638 23200 (1922) 1 (1954) 1320 39 68 138 166 378 971 1220 3180 7080
2026-03-14 01:30 648 23200 (1922) 1 (1954) 1320 39 68 138 166 378 971 1220 3180 7080
2026-03-14 01:00 658 23200 (1922) 1 (1954) 1320 39 68 138 166 378 971 1220 3180 7080
2026-03-14 00:30 664 23200 (1922) 1 (1954) 1320 39 68 138 166 378 971 1220 3180 7080
2026-03-14 00:00 674 23200 (1922) 1 (1954) 1320 39 68 138 166 378 971 1220 3180 7080
2026-03-13 23:30 680 23200 (1922) 1 (1954) 1320 39 68 138 166 378 971 1220 3180 7080
2026-03-13 23:00 690 23200 (1922) 1 (1954) 1320 39 68 138 166 378 971 1220 3180 7080
2026-03-13 22:30 701 11900 (1929) 2 (1954) 983 29 71 134 157 363 926 1230 2490 4540
2026-03-13 22:00 7.68 712 11900 (1929) 2 (1954) 983 29 71 134 157 363 926 1230 2490 4540
2026-03-13 21:30 723 11900 (1929) 2 (1954) 983 29 71 134 157 363 926 1230 2490 4540
2026-03-13 21:00 7.71 729 11900 (1929) 2 (1954) 983 29 71 134 157 363 926 1230 2490 4540
2026-03-13 20:30 745 11900 (1929) 2 (1954) 983 29 71 134 157 363 926 1230 2490 4540
2026-03-13 20:00 7.76 757 11900 (1929) 2 (1954) 983 29 71 134 157 363 926 1230 2490 4540
2026-03-13 19:30 7.78 768 11900 (1929) 2 (1954) 983 29 71 134 157 363 926 1230 2490 4540
2026-03-13 19:00 7.80 780 11900 (1929) 2 (1954) 983 29 71 134 157 363 926 1230 2490 4540
2026-03-13 18:30 7.82 791 11900 (1929) 2 (1954) 983 29 71 134 157 363 926 1230 2490 4540
2026-03-13 18:00 797 11900 (1929) 2 (1954) 983 29 71 134 157 363 926 1230 2490 4540
2026-03-13 17:30 7.86 815 11900 (1929) 2 (1954) 983 29 71 134 157 363 926 1230 2490 4540
2026-03-13 17:00 7.88 827 11900 (1929) 2 (1954) 983 29 71 134 157 363 926 1230 2490 4540
2026-03-13 16:30 7.90 839 11900 (1929) 2 (1954) 983 29 71 134 157 363 926 1230 2490 4540
2026-03-13 16:00 857 11900 (1929) 2 (1954) 983 29 71 134 157 363 926 1230 2490 4540
2026-03-13 15:30 7.95 869 11900 (1929) 2 (1954) 983 29 71 134 157 363 926 1230 2490 4540
2026-03-13 15:00 7.98 888 11900 (1929) 2 (1954) 983 29 71 134 157 363 926 1230 2490 4540
2026-03-13 14:30 8.01 907 11900 (1929) 2 (1954) 983 29 71 134 157 363 926 1230 2490 4540
2026-03-13 14:00 8.03 919 11900 (1929) 2 (1954) 983 29 71 134 157 363 926 1230 2490 4540
2026-03-13 13:30 913 11900 (1929) 2 (1954) 983 29 71 134 157 363 926 1230 2490 4540
2026-03-13 13:00 8.05 932 11900 (1929) 2 (1954) 983 29 71 134 157 363 926 1230 2490 4540
2026-03-13 12:30 8.10 965 11900 (1929) 2 (1954) 983 29 71 134 157 363 926 1230 2490 4540
2026-03-13 12:00 978 11900 (1929) 2 (1954) 983 29 71 134 157 363 926 1230 2490 4540
2026-03-13 11:30 8.14 991 11900 (1929) 2 (1954) 983 29 71 134 157 363 926 1230 2490 4540
2026-03-13 11:00 8.17 1010 11900 (1929) 2 (1954) 983 29 71 134 157 363 926 1230 2490 4540
2026-03-13 10:30 1020 11900 (1929) 2 (1954) 983 29 71 134 157 363 926 1230 2490 4540
2026-03-13 10:00 8.23 1050 11900 (1929) 2 (1954) 983 29 71 134 157 363 926 1230 2490 4540
2026-03-13 09:30 1080 11900 (1929) 2 (1954) 983 29 71 134 157 363 926 1230 2490 4540
2026-03-13 09:00 8.30 1100 11900 (1929) 2 (1954) 983 29 71 134 157 363 926 1230 2490 4540
2026-03-13 08:30 8.32 1120 11900 (1929) 2 (1954) 983 29 71 134 157 363 926 1230 2490 4540
2026-03-13 08:00 8.36 1140 11900 (1929) 2 (1954) 983 29 71 134 157 363 926 1230 2490 4540
2026-03-13 07:30 8.39 1170 11900 (1929) 2 (1954) 983 29 71 134 157 363 926 1230 2490 4540
2026-03-13 07:00 8.42 1190 11900 (1929) 2 (1954) 983 29 71 134 157 363 926 1230 2490 4540
2026-03-13 06:30 8.45 1210 11900 (1929) 2 (1954) 983 29 71 134 157 363 926 1230 2490 4540
2026-03-13 06:00 8.49 1240 11900 (1929) 2 (1954) 983 29 71 134 157 363 926 1230 2490 4540
2026-03-13 05:30 8.51 1260 11900 (1929) 2 (1954) 983 29 71 134 157 363 926 1230 2490 4540
2026-03-13 05:00 8.54 1280 11900 (1929) 2 (1954) 983 29 71 134 157 363 926 1230 2490 4540
2026-03-13 04:30 8.59 1320 11900 (1929) 2 (1954) 983 29 71 134 157 363 926 1230 2490 4540
2026-03-13 04:00 8.62 1340 11900 (1929) 2 (1954) 983 29 71 134 157 363 926 1230 2490 4540
2026-03-13 03:30 8.64 1360 11900 (1929) 2 (1954) 983 29 71 134 157 363 926 1230 2490 4540
2026-03-13 03:00 8.67 1380 11900 (1929) 2 (1954) 983 29 71 134 157 363 926 1230 2490 4540
2026-03-13 02:30 8.72 1420 11900 (1929) 2 (1954) 983 29 71 134 157 363 926 1230 2490 4540
2026-03-13 02:00 1460 11900 (1929) 2 (1954) 983 29 71 134 157 363 926 1230 2490 4540
2026-03-13 01:30 8.78 1470 11900 (1929) 2 (1954) 983 29 71 134 157 363 926 1230 2490 4540
2026-03-13 01:00 8.82 1510 11900 (1929) 2 (1954) 983 29 71 134 157 363 926 1230 2490 4540
2026-03-13 00:30 8.85 1530 11900 (1929) 2 (1954) 983 29 71 134 157 363 926 1230 2490 4540
2026-03-13 00:00 1580 11900 (1929) 2 (1954) 983 29 71 134 157 363 926 1230 2490 4540
2026-03-12 23:30 8.94 1610 11900 (1929) 2 (1954) 983 29 71 134 157 363 926 1230 2490 4540
2026-03-12 23:00 8.96 1630 11900 (1929) 2 (1954) 983 29 71 134 157 363 926 1230 2490 4540
2026-03-12 22:30 9.00 1670 22000 (1923) 2 (1954) 1040 32 70 114 128 281 763 946 2010 3370
2026-03-12 22:00 9.04 1700 22000 (1923) 2 (1954) 1040 32 70 114 128 281 763 946 2010 3370
2026-03-12 21:30 9.08 1740 22000 (1923) 2 (1954) 1040 32 70 114 128 281 763 946 2010 3370
2026-03-12 21:00 9.12 1780 22000 (1923) 2 (1954) 1040 32 70 114 128 281 763 946 2010 3370
2026-03-12 20:30 9.16 1810 22000 (1923) 2 (1954) 1040 32 70 114 128 281 763 946 2010 3370
2026-03-12 20:00 9.21 1860 22000 (1923) 2 (1954) 1040 32 70 114 128 281 763 946 2010 3370
2026-03-12 19:30 9.25 1900 22000 (1923) 2 (1954) 1040 32 70 114 128 281 763 946 2010 3370
2026-03-12 19:00 9.30 1950 22000 (1923) 2 (1954) 1040 32 70 114 128 281 763 946 2010 3370
2026-03-12 18:30 9.34 1990 22000 (1923) 2 (1954) 1040 32 70 114 128 281 763 946 2010 3370
2026-03-12 18:00 9.39 2040 22000 (1923) 2 (1954) 1040 32 70 114 128 281 763 946 2010 3370
2026-03-12 17:30 9.46 2090 22000 (1923) 2 (1954) 1040 32 70 114 128 281 763 946 2010 3370
2026-03-12 17:00 9.51 2120 22000 (1923) 2 (1954) 1040 32 70 114 128 281 763 946 2010 3370
2026-03-12 16:30 9.56 2150 22000 (1923) 2 (1954) 1040 32 70 114 128 281 763 946 2010 3370
2026-03-12 16:00 9.60 2180 22000 (1923) 2 (1954) 1040 32 70 114 128 281 763 946 2010 3370
2026-03-12 15:30 9.69 2240 22000 (1923) 2 (1954) 1040 32 70 114 128 281 763 946 2010 3370
2026-03-12 15:00 9.75 2280 22000 (1923) 2 (1954) 1040 32 70 114 128 281 763 946 2010 3370
2026-03-12 14:30 9.82 2320 22000 (1923) 2 (1954) 1040 32 70 114 128 281 763 946 2010 3370
2026-03-12 14:00 9.88 2360 22000 (1923) 2 (1954) 1040 32 70 114 128 281 763 946 2010 3370
2026-03-12 13:30 9.95 2400 22000 (1923) 2 (1954) 1040 32 70 114 128 281 763 946 2010 3370
2026-03-12 13:00 10.01 2440 22000 (1923) 2 (1954) 1040 32 70 114 128 281 763 946 2010 3370
2026-03-12 12:30 10.09 2500 22000 (1923) 2 (1954) 1040 32 70 114 128 281 763 946 2010 3370
2026-03-12 12:00 10.15 2540 22000 (1923) 2 (1954) 1040 32 70 114 128 281 763 946 2010 3370
2026-03-12 11:30 10.23 2590 22000 (1923) 2 (1954) 1040 32 70 114 128 281 763 946 2010 3370
2026-03-12 11:00 10.30 2640 22000 (1923) 2 (1954) 1040 32 70 114 128 281 763 946 2010 3370
2026-03-12 10:30 10.36 2680 22000 (1923) 2 (1954) 1040 32 70 114 128 281 763 946 2010 3370
2026-03-12 10:00 10.43 2720 22000 (1923) 2 (1954) 1040 32 70 114 128 281 763 946 2010 3370
2026-03-12 09:30 10.52 2780 22000 (1923) 2 (1954) 1040 32 70 114 128 281 763 946 2010 3370
2026-03-12 09:00 10.59 2830 22000 (1923) 2 (1954) 1040 32 70 114 128 281 763 946 2010 3370
2026-03-12 08:30 2870 22000 (1923) 2 (1954) 1040 32 70 114 128 281 763 946 2010 3370
2026-03-12 08:00 10.70 2910 22000 (1923) 2 (1954) 1040 32 70 114 128 281 763 946 2010 3370
2026-03-12 07:30 10.74 2940 22000 (1923) 2 (1954) 1040 32 70 114 128 281 763 946 2010 3370
2026-03-12 07:00 10.76 2950 22000 (1923) 2 (1954) 1040 32 70 114 128 281 763 946 2010 3370
2026-03-12 06:30 10.78 2960 22000 (1923) 2 (1954) 1040 32 70 114 128 281 763 946 2010 3370
2026-03-12 06:00 10.78 2960 22000 (1923) 2 (1954) 1040 32 70 114 128 281 763 946 2010 3370
2026-03-12 05:30 10.75 2940 22000 (1923) 2 (1954) 1040 32 70 114 128 281 763 946 2010 3370
2026-03-12 05:00 10.72 2920 22000 (1923) 2 (1954) 1040 32 70 114 128 281 763 946 2010 3370
2026-03-12 04:30 10.68 2890 22000 (1923) 2 (1954) 1040 32 70 114 128 281 763 946 2010 3370
2026-03-12 04:00 10.63 2860 22000 (1923) 2 (1954) 1040 32 70 114 128 281 763 946 2010 3370
2026-03-12 03:30 10.55 2800 22000 (1923) 2 (1954) 1040 32 70 114 128 281 763 946 2010 3370
2026-03-12 03:00 10.47 2750 22000 (1923) 2 (1954) 1040 32 70 114 128 281 763 946 2010 3370
2026-03-12 02:30 10.35 2670 22000 (1923) 2 (1954) 1040 32 70 114 128 281 763 946 2010 3370
2026-03-12 02:00 2580 22000 (1923) 2 (1954) 1040 32 70 114 128 281 763 946 2010 3370
2026-03-12 01:30 10.01 2440 22000 (1923) 2 (1954) 1040 32 70 114 128 281 763 946 2010 3370
2026-03-12 01:00 2240 22000 (1923) 2 (1954) 1040 32 70 114 128 281 763 946 2010 3370
2026-03-12 00:30 2050 22000 (1923) 2 (1954) 1040 32 70 114 128 281 763 946 2010 3370
2026-03-12 00:00 9.06 1720 22000 (1923) 2 (1954) 1040 32 70 114 128 281 763 946 2010 3370
2026-03-11 23:30 8.73 1430 22000 (1923) 2 (1954) 1040 32 70 114 128 281 763 946 2010 3370
2026-03-11 23:00 8.46 1220 22000 (1923) 2 (1954) 1040 32 70 114 128 281 763 946 2010 3370
2026-03-11 22:30 8.30 1100 10500 (2013) 2 (1954) 784 25 65 107 134 269 705 1350 2110 3000
2026-03-11 22:00 8.21 1040 10500 (2013) 2 (1954) 784 25 65 107 134 269 705 1350 2110 3000
2026-03-11 21:30 8.17 1010 10500 (2013) 2 (1954) 784 25 65 107 134 269 705 1350 2110 3000
2026-03-11 21:00 8.16 1000 10500 (2013) 2 (1954) 784 25 65 107 134 269 705 1350 2110 3000
2026-03-11 20:30 8.16 1000 10500 (2013) 2 (1954) 784 25 65 107 134 269 705 1350 2110 3000
2026-03-11 20:00 8.17 1010 10500 (2013) 2 (1954) 784 25 65 107 134 269 705 1350 2110 3000
2026-03-11 19:30 8.17 1010 10500 (2013) 2 (1954) 784 25 65 107 134 269 705 1350 2110 3000
2026-03-11 19:00 8.15 998 10500 (2013) 2 (1954) 784 25 65 107 134 269 705 1350 2110 3000
2026-03-11 18:30 8.14 991 10500 (2013) 2 (1954) 784 25 65 107 134 269 705 1350 2110 3000
2026-03-11 18:00 8.11 971 10500 (2013) 2 (1954) 784 25 65 107 134 269 705 1350 2110 3000
2026-03-11 17:30 8.08 952 10500 (2013) 2 (1954) 784 25 65 107 134 269 705 1350 2110 3000
2026-03-11 17:00 8.05 932 10500 (2013) 2 (1954) 784 25 65 107 134 269 705 1350 2110 3000
2026-03-11 16:30 8.02 913 10500 (2013) 2 (1954) 784 25 65 107 134 269 705 1350 2110 3000
2026-03-11 16:00 7.99 894 10500 (2013) 2 (1954) 784 25 65 107 134 269 705 1350 2110 3000
2026-03-11 15:30 7.98 888 10500 (2013) 2 (1954) 784 25 65 107 134 269 705 1350 2110 3000
2026-03-11 15:00 8.00 900 10500 (2013) 2 (1954) 784 25 65 107 134 269 705 1350 2110 3000
2026-03-11 14:30 8.01 907 10500 (2013) 2 (1954) 784 25 65 107 134 269 705 1350 2110 3000
2026-03-11 14:00 8.02 913 10500 (2013) 2 (1954) 784 25 65 107 134 269 705 1350 2110 3000
2026-03-11 13:30 8.03 919 10500 (2013) 2 (1954) 784 25 65 107 134 269 705 1350 2110 3000
2026-03-11 13:00 8.05 932 10500 (2013) 2 (1954) 784 25 65 107 134 269 705 1350 2110 3000
2026-03-11 12:30 8.05 932 10500 (2013) 2 (1954) 784 25 65 107 134 269 705 1350 2110 3000
2026-03-11 12:00 900 10500 (2013) 2 (1954) 784 25 65 107 134 269 705 1350 2110 3000
2026-03-11 11:30 7.90 839 10500 (2013) 2 (1954) 784 25 65 107 134 269 705 1350 2110 3000
2026-03-11 11:00 7.71 729 10500 (2013) 2 (1954) 784 25 65 107 134 269 705 1350 2110 3000
2026-03-11 10:30 7.48 607 10500 (2013) 2 (1954) 784 25 65 107 134 269 705 1350 2110 3000
2026-03-11 10:00 7.25 499 10500 (2013) 2 (1954) 784 25 65 107 134 269 705 1350 2110 3000
2026-03-11 09:30 7.08 427 10500 (2013) 2 (1954) 784 25 65 107 134 269 705 1350 2110 3000
2026-03-11 09:00 7.05 415 10500 (2013) 2 (1954) 784 25 65 107 134 269 705 1350 2110 3000
2026-03-11 08:30 7.01 399 10500 (2013) 2 (1954) 784 25 65 107 134 269 705 1350 2110 3000
2026-03-11 08:00 6.99 391 10500 (2013) 2 (1954) 784 25 65 107 134 269 705 1350 2110 3000
2026-03-11 07:30 6.97 384 10500 (2013) 2 (1954) 784 25 65 107 134 269 705 1350 2110 3000
2026-03-11 07:00 6.96 380 10500 (2013) 2 (1954) 784 25 65 107 134 269 705 1350 2110 3000
2026-03-11 06:30 6.97 384 10500 (2013) 2 (1954) 784 25 65 107 134 269 705 1350 2110 3000
2026-03-11 06:00 6.97 384 10500 (2013) 2 (1954) 784 25 65 107 134 269 705 1350 2110 3000
2026-03-11 05:30 6.97 384 10500 (2013) 2 (1954) 784 25 65 107 134 269 705 1350 2110 3000
2026-03-11 05:00 6.97 384 10500 (2013) 2 (1954) 784 25 65 107 134 269 705 1350 2110 3000
2026-03-11 04:30 6.96 380 10500 (2013) 2 (1954) 784 25 65 107 134 269 705 1350 2110 3000
2026-03-11 04:00 6.94 372 10500 (2013) 2 (1954) 784 25 65 107 134 269 705 1350 2110 3000
2026-03-11 03:30 6.97 384 10500 (2013) 2 (1954) 784 25 65 107 134 269 705 1350 2110 3000
2026-03-11 03:00 6.93 369 10500 (2013) 2 (1954) 784 25 65 107 134 269 705 1350 2110 3000
2026-03-11 02:30 6.97 384 10500 (2013) 2 (1954) 784 25 65 107 134 269 705 1350 2110 3000
2026-03-11 02:00 387 10500 (2013) 2 (1954) 784 25 65 107 134 269 705 1350 2110 3000
2026-03-11 01:30 6.99 391 10500 (2013) 2 (1954) 784 25 65 107 134 269 705 1350 2110 3000
2026-03-11 01:00 6.99 391 10500 (2013) 2 (1954) 784 25 65 107 134 269 705 1350 2110 3000
2026-03-11 00:30 395 10500 (2013) 2 (1954) 784 25 65 107 134 269 705 1350 2110 3000
2026-03-11 00:00 7.01 399 10500 (2013) 2 (1954) 784 25 65 107 134 269 705 1350 2110 3000
2026-03-10 23:30 7.01 399 10500 (2013) 2 (1954) 784 25 65 107 134 269 705 1350 2110 3000
2026-03-10 23:00 7.02 403 10500 (2013) 2 (1954) 784 25 65 107 134 269 705 1350 2110 3000
2026-03-10 22:30 7.03 407 11600 (2013) 2 (1954) 869 26 63 108 142 259 663 801 2370 4750
2026-03-10 22:00 7.00 395 11600 (2013) 2 (1954) 869 26 63 108 142 259 663 801 2370 4750
2026-03-10 21:30 7.05 415 11600 (2013) 2 (1954) 869 26 63 108 142 259 663 801 2370 4750
2026-03-10 21:00 7.05 415 11600 (2013) 2 (1954) 869 26 63 108 142 259 663 801 2370 4750
2026-03-10 20:30 7.07 423 11600 (2013) 2 (1954) 869 26 63 108 142 259 663 801 2370 4750
2026-03-10 20:00 7.08 427 11600 (2013) 2 (1954) 869 26 63 108 142 259 663 801 2370 4750
2026-03-10 19:30 7.09 431 11600 (2013) 2 (1954) 869 26 63 108 142 259 663 801 2370 4750
2026-03-10 19:00 7.07 423 11600 (2013) 2 (1954) 869 26 63 108 142 259 663 801 2370 4750
2026-03-10 18:30 7.10 435 11600 (2013) 2 (1954) 869 26 63 108 142 259 663 801 2370 4750
2026-03-10 18:00 7.06 419 11600 (2013) 2 (1954) 869 26 63 108 142 259 663 801 2370 4750
2026-03-10 17:30 7.12 443 11600 (2013) 2 (1954) 869 26 63 108 142 259 663 801 2370 4750
2026-03-10 17:00 7.07 423 11600 (2013) 2 (1954) 869 26 63 108 142 259 663 801 2370 4750
2026-03-10 16:30 7.10 435 11600 (2013) 2 (1954) 869 26 63 108 142 259 663 801 2370 4750
2026-03-10 16:00 7.15 456 11600 (2013) 2 (1954) 869 26 63 108 142 259 663 801 2370 4750
2026-03-10 15:30 7.16 460 11600 (2013) 2 (1954) 869 26 63 108 142 259 663 801 2370 4750
2026-03-10 15:00 7.17 464 11600 (2013) 2 (1954) 869 26 63 108 142 259 663 801 2370 4750
2026-03-10 14:30 7.19 473 11600 (2013) 2 (1954) 869 26 63 108 142 259 663 801 2370 4750
2026-03-10 14:00 7.17 464 11600 (2013) 2 (1954) 869 26 63 108 142 259 663 801 2370 4750
2026-03-10 13:30 7.13 447 11600 (2013) 2 (1954) 869 26 63 108 142 259 663 801 2370 4750
2026-03-10 13:00 7.21 481 11600 (2013) 2 (1954) 869 26 63 108 142 259 663 801 2370 4750
2026-03-10 12:30 7.22 486 11600 (2013) 2 (1954) 869 26 63 108 142 259 663 801 2370 4750
2026-03-10 12:00 7.22 486 11600 (2013) 2 (1954) 869 26 63 108 142 259 663 801 2370 4750
2026-03-10 11:30 7.25 499 11600 (2013) 2 (1954) 869 26 63 108 142 259 663 801 2370 4750
2026-03-10 11:00 508 11600 (2013) 2 (1954) 869 26 63 108 142 259 663 801 2370 4750
2026-03-10 10:30 7.26 503 11600 (2013) 2 (1954) 869 26 63 108 142 259 663 801 2370 4750
2026-03-10 10:00 517 11600 (2013) 2 (1954) 869 26 63 108 142 259 663 801 2370 4750
2026-03-10 09:30 7.30 521 11600 (2013) 2 (1954) 869 26 63 108 142 259 663 801 2370 4750
2026-03-10 09:00 7.32 531 11600 (2013) 2 (1954) 869 26 63 108 142 259 663 801 2370 4750
2026-03-10 08:30 7.33 535 11600 (2013) 2 (1954) 869 26 63 108 142 259 663 801 2370 4750
2026-03-10 08:00 7.35 544 11600 (2013) 2 (1954) 869 26 63 108 142 259 663 801 2370 4750
2026-03-10 07:30 7.36 549 11600 (2013) 2 (1954) 869 26 63 108 142 259 663 801 2370 4750
2026-03-10 07:00 7.37 554 11600 (2013) 2 (1954) 869 26 63 108 142 259 663 801 2370 4750
2026-03-10 06:30 559 11600 (2013) 2 (1954) 869 26 63 108 142 259 663 801 2370 4750
2026-03-10 06:00 7.40 568 11600 (2013) 2 (1954) 869 26 63 108 142 259 663 801 2370 4750
2026-03-10 05:30 7.42 578 11600 (2013) 2 (1954) 869 26 63 108 142 259 663 801 2370 4750
2026-03-10 05:00 7.42 578 11600 (2013) 2 (1954) 869 26 63 108 142 259 663 801 2370 4750
2026-03-10 04:30 7.44 588 11600 (2013) 2 (1954) 869 26 63 108 142 259 663 801 2370 4750
2026-03-10 04:00 7.45 592 11600 (2013) 2 (1954) 869 26 63 108 142 259 663 801 2370 4750
2026-03-10 03:30 602 11600 (2013) 2 (1954) 869 26 63 108 142 259 663 801 2370 4750
2026-03-10 03:00 7.49 612 11600 (2013) 2 (1954) 869 26 63 108 142 259 663 801 2370 4750
2026-03-10 02:30 617 11600 (2013) 2 (1954) 869 26 63 108 142 259 663 801 2370 4750
2026-03-10 02:00 7.52 627 11600 (2013) 2 (1954) 869 26 63 108 142 259 663 801 2370 4750
2026-03-10 01:30 7.54 638 11600 (2013) 2 (1954) 869 26 63 108 142 259 663 801 2370 4750
2026-03-10 01:00 643 11600 (2013) 2 (1954) 869 26 63 108 142 259 663 801 2370 4750
2026-03-10 00:30 7.57 653 11600 (2013) 2 (1954) 869 26 63 108 142 259 663 801 2370 4750
2026-03-10 00:00 7.59 664 11600 (2013) 2 (1954) 869 26 63 108 142 259 663 801 2370 4750
2026-03-09 23:30 7.60 669 11600 (2013) 2 (1954) 869 26 63 108 142 259 663 801 2370 4750
2026-03-09 23:00 7.62 680 11600 (2013) 2 (1954) 869 26 63 108 142 259 663 801 2370 4750
2026-03-09 22:30 7.64 690 12200 (1999) 2 (1954) 805 24 62 126 151 270 681 831 1340 4140
2026-03-09 22:00 7.67 706 12200 (1999) 2 (1954) 805 24 62 126 151 270 681 831 1340 4140
2026-03-09 21:30 7.69 717 12200 (1999) 2 (1954) 805 24 62 126 151 270 681 831 1340 4140
2026-03-09 21:00 7.70 723 12200 (1999) 2 (1954) 805 24 62 126 151 270 681 831 1340 4140
2026-03-09 20:30 7.73 740 12200 (1999) 2 (1954) 805 24 62 126 151 270 681 831 1340 4140
2026-03-09 20:00 7.76 757 12200 (1999) 2 (1954) 805 24 62 126 151 270 681 831 1340 4140
2026-03-09 19:30 7.77 762 12200 (1999) 2 (1954) 805 24 62 126 151 270 681 831 1340 4140
2026-03-09 19:00 7.79 774 12200 (1999) 2 (1954) 805 24 62 126 151 270 681 831 1340 4140
2026-03-09 18:30 7.82 791 12200 (1999) 2 (1954) 805 24 62 126 151 270 681 831 1340 4140
2026-03-09 18:00 7.84 803 12200 (1999) 2 (1954) 805 24 62 126 151 270 681 831 1340 4140
2026-03-09 17:30 7.87 821 12200 (1999) 2 (1954) 805 24 62 126 151 270 681 831 1340 4140
2026-03-09 17:00 7.90 839 12200 (1999) 2 (1954) 805 24 62 126 151 270 681 831 1340 4140
2026-03-09 16:30 7.92 851 12200 (1999) 2 (1954) 805 24 62 126 151 270 681 831 1340 4140
2026-03-09 16:00 7.95 869 12200 (1999) 2 (1954) 805 24 62 126 151 270 681 831 1340 4140
2026-03-09 15:30 7.98 888 12200 (1999) 2 (1954) 805 24 62 126 151 270 681 831 1340 4140
2026-03-09 15:00 8.01 907 12200 (1999) 2 (1954) 805 24 62 126 151 270 681 831 1340 4140
2026-03-09 14:30 8.03 919 12200 (1999) 2 (1954) 805 24 62 126 151 270 681 831 1340 4140
2026-03-09 14:00 939 12200 (1999) 2 (1954) 805 24 62 126 151 270 681 831 1340 4140
2026-03-09 13:30 8.10 965 12200 (1999) 2 (1954) 805 24 62 126 151 270 681 831 1340 4140
2026-03-09 13:00 8.13 984 12200 (1999) 2 (1954) 805 24 62 126 151 270 681 831 1340 4140
2026-03-09 12:30 8.16 1000 12200 (1999) 2 (1954) 805 24 62 126 151 270 681 831 1340 4140
2026-03-09 12:00 8.19 1020 12200 (1999) 2 (1954) 805 24 62 126 151 270 681 831 1340 4140
2026-03-09 11:30 8.20 1030 12200 (1999) 2 (1954) 805 24 62 126 151 270 681 831 1340 4140
2026-03-09 11:00 8.25 1070 12200 (1999) 2 (1954) 805 24 62 126 151 270 681 831 1340 4140
2026-03-09 10:30 8.29 1090 12200 (1999) 2 (1954) 805 24 62 126 151 270 681 831 1340 4140
2026-03-09 10:00 8.32 1120 12200 (1999) 2 (1954) 805 24 62 126 151 270 681 831 1340 4140
2026-03-09 09:30 8.36 1140 12200 (1999) 2 (1954) 805 24 62 126 151 270 681 831 1340 4140
2026-03-09 09:00 8.41 1180 12200 (1999) 2 (1954) 805 24 62 126 151 270 681 831 1340 4140
2026-03-09 08:30 8.44 1200 12200 (1999) 2 (1954) 805 24 62 126 151 270 681 831 1340 4140
2026-03-09 08:00 8.49 1240 12200 (1999) 2 (1954) 805 24 62 126 151 270 681 831 1340 4140
2026-03-09 07:30 8.52 1260 12200 (1999) 2 (1954) 805 24 62 126 151 270 681 831 1340 4140
2026-03-09 07:00 8.57 1300 12200 (1999) 2 (1954) 805 24 62 126 151 270 681 831 1340 4140
2026-03-09 06:30 8.59 1320 12200 (1999) 2 (1954) 805 24 62 126 151 270 681 831 1340 4140
2026-03-09 06:00 8.64 1360 12200 (1999) 2 (1954) 805 24 62 126 151 270 681 831 1340 4140
2026-03-09 05:30 8.70 1410 12200 (1999) 2 (1954) 805 24 62 126 151 270 681 831 1340 4140
2026-03-09 05:00 8.73 1430 12200 (1999) 2 (1954) 805 24 62 126 151 270 681 831 1340 4140
2026-03-09 04:30 8.77 1470 12200 (1999) 2 (1954) 805 24 62 126 151 270 681 831 1340 4140
2026-03-09 04:00 8.81 1500 12200 (1999) 2 (1954) 805 24 62 126 151 270 681 831 1340 4140
2026-03-09 03:30 8.86 1540 12200 (1999) 2 (1954) 805 24 62 126 151 270 681 831 1340 4140
2026-03-09 03:00 8.89 1570 12200 (1999) 2 (1954) 805 24 62 126 151 270 681 831 1340 4140
2026-03-09 02:30 8.94 1610 12200 (1999) 2 (1954) 805 24 62 126 151 270 681 831 1340 4140
2026-03-09 02:00 1660 12200 (1999) 2 (1954) 805 24 62 126 151 270 681 831 1340 4140
2026-03-09 01:30 9.03 1690 12200 (1999) 2 (1954) 805 24 62 126 151 270 681 831 1340 4140
2026-03-09 01:00 9.09 1750 12200 (1999) 2 (1954) 805 24 62 126 151 270 681 831 1340 4140
2026-03-09 00:30 1770 12200 (1999) 2 (1954) 805 24 62 126 151 270 681 831 1340 4140
2026-03-09 00:00 9.16 1810 12200 (1999) 2 (1954) 805 24 62 126 151 270 681 831 1340 4140
2026-03-08 23:30 9.20 1850 12200 (1999) 2 (1954) 805 24 62 126 151 270 681 831 1340 4140
2026-03-08 23:00 9.23 1880 12200 (1999) 2 (1954) 805 24 62 126 151 270 681 831 1340 4140
2026-03-08 22:30 9.29 1940 3770 (1998) 2 (1954) 582 27 63 102 142 292 628 728 1850 2650
2026-03-08 22:00 9.33 1980 3770 (1998) 2 (1954) 582 27 63 102 142 292 628 728 1850 2650
2026-03-08 21:30 9.37 2020 3770 (1998) 2 (1954) 582 27 63 102 142 292 628 728 1850 2650
2026-03-08 21:00 9.42 2070 3770 (1998) 2 (1954) 582 27 63 102 142 292 628 728 1850 2650
2026-03-08 20:30 9.47 2100 3770 (1998) 2 (1954) 582 27 63 102 142 292 628 728 1850 2650
2026-03-08 20:00 9.52 2130 3770 (1998) 2 (1954) 582 27 63 102 142 292 628 728 1850 2650
2026-03-08 19:30 9.57 2160 3770 (1998) 2 (1954) 582 27 63 102 142 292 628 728 1850 2650
2026-03-08 19:00 9.62 2190 3770 (1998) 2 (1954) 582 27 63 102 142 292 628 728 1850 2650
2026-03-08 18:30 9.66 2220 3770 (1998) 2 (1954) 582 27 63 102 142 292 628 728 1850 2650
2026-03-08 18:00 9.72 2260 3770 (1998) 2 (1954) 582 27 63 102 142 292 628 728 1850 2650
2026-03-08 17:30 9.78 2290 3770 (1998) 2 (1954) 582 27 63 102 142 292 628 728 1850 2650
2026-03-08 17:00 9.83 2330 3770 (1998) 2 (1954) 582 27 63 102 142 292 628 728 1850 2650
2026-03-08 16:30 9.89 2370 3770 (1998) 2 (1954) 582 27 63 102 142 292 628 728 1850 2650
2026-03-08 16:00 9.95 2400 3770 (1998) 2 (1954) 582 27 63 102 142 292 628 728 1850 2650
2026-03-08 15:30 10.01 2440 3770 (1998) 2 (1954) 582 27 63 102 142 292 628 728 1850 2650
2026-03-08 15:00 10.08 2490 3770 (1998) 2 (1954) 582 27 63 102 142 292 628 728 1850 2650
2026-03-08 14:30 10.15 2540 3770 (1998) 2 (1954) 582 27 63 102 142 292 628 728 1850 2650
2026-03-08 14:00 10.22 2580 3770 (1998) 2 (1954) 582 27 63 102 142 292 628 728 1850 2650
2026-03-08 13:30 10.29 2630 3770 (1998) 2 (1954) 582 27 63 102 142 292 628 728 1850 2650
2026-03-08 13:00 10.38 2690 3770 (1998) 2 (1954) 582 27 63 102 142 292 628 728 1850 2650
2026-03-08 12:30 10.46 2740 3770 (1998) 2 (1954) 582 27 63 102 142 292 628 728 1850 2650
2026-03-08 12:00 10.54 2800 3770 (1998) 2 (1954) 582 27 63 102 142 292 628 728 1850 2650
2026-03-08 11:30 10.65 2870 3770 (1998) 2 (1954) 582 27 63 102 142 292 628 728 1850 2650
2026-03-08 11:00 10.75 2940 3770 (1998) 2 (1954) 582 27 63 102 142 292 628 728 1850 2650
2026-03-08 10:30 10.85 3010 3770 (1998) 2 (1954) 582 27 63 102 142 292 628 728 1850 2650
2026-03-08 10:00 10.97 3100 3770 (1998) 2 (1954) 582 27 63 102 142 292 628 728 1850 2650
2026-03-08 09:30 11.10 3190 3770 (1998) 2 (1954) 582 27 63 102 142 292 628 728 1850 2650
2026-03-08 09:00 11.24 3290 3770 (1998) 2 (1954) 582 27 63 102 142 292 628 728 1850 2650
2026-03-08 08:30 11.40 3400 3770 (1998) 2 (1954) 582 27 63 102 142 292 628 728 1850 2650
2026-03-08 08:00 11.56 3520 3770 (1998) 2 (1954) 582 27 63 102 142 292 628 728 1850 2650
2026-03-08 07:30 11.73 3650 3770 (1998) 2 (1954) 582 27 63 102 142 292 628 728 1850 2650
2026-03-08 07:00 11.91 3780 3770 (1998) 2 (1954) 582 27 63 102 142 292 628 728 1850 2650
2026-03-08 06:30 12.11 3930 3770 (1998) 2 (1954) 582 27 63 102 142 292 628 728 1850 2650
2026-03-08 06:00 12.30 4080 3770 (1998) 2 (1954) 582 27 63 102 142 292 628 728 1850 2650
2026-03-08 05:30 12.51 4240 3770 (1998) 2 (1954) 582 27 63 102 142 292 628 728 1850 2650
2026-03-08 05:00 12.72 4400 3770 (1998) 2 (1954) 582 27 63 102 142 292 628 728 1850 2650
2026-03-08 04:30 12.94 4580 3770 (1998) 2 (1954) 582 27 63 102 142 292 628 728 1850 2650
2026-03-08 04:00 13.15 4750 3770 (1998) 2 (1954) 582 27 63 102 142 292 628 728 1850 2650
2026-03-08 03:30 4920 3770 (1998) 2 (1954) 582 27 63 102 142 292 628 728 1850 2650
2026-03-08 03:00 13.56 5080 3770 (1998) 2 (1954) 582 27 63 102 142 292 628 728 1850 2650
2026-03-08 01:30 5250 3770 (1998) 2 (1954) 582 27 63 102 142 292 628 728 1850 2650
2026-03-08 01:00 13.97 5420 3770 (1998) 2 (1954) 582 27 63 102 142 292 628 728 1850 2650
2026-03-08 00:30 5570 3770 (1998) 2 (1954) 582 27 63 102 142 292 628 728 1850 2650
2026-03-08 00:00 5700 3770 (1998) 2 (1954) 582 27 63 102 142 292 628 728 1850 2650
2026-03-07 23:30 14.43 5810 3770 (1998) 2 (1954) 582 27 63 102 142 292 628 728 1850 2650
2026-03-07 23:00 5920 3770 (1998) 2 (1954) 582 27 63 102 142 292 628 728 1850 2650
2026-03-07 22:30 6000 6900 (1933) 3 (1954) 830 29 51 92 111 297 769 932 2520 4800
2026-03-07 22:00 6050 6900 (1933) 3 (1954) 830 29 51 92 111 297 769 932 2520 4800
2026-03-07 21:30 14.72 6060 6900 (1933) 3 (1954) 830 29 51 92 111 297 769 932 2520 4800
2026-03-07 21:00 14.74 6080 6900 (1933) 3 (1954) 830 29 51 92 111 297 769 932 2520 4800
2026-03-07 20:30 6030 6900 (1933) 3 (1954) 830 29 51 92 111 297 769 932 2520 4800
2026-03-07 20:00 14.58 5940 6900 (1933) 3 (1954) 830 29 51 92 111 297 769 932 2520 4800
2026-03-07 19:30 14.46 5840 6900 (1933) 3 (1954) 830 29 51 92 111 297 769 932 2520 4800
2026-03-07 19:00 5670 6900 (1933) 3 (1954) 830 29 51 92 111 297 769 932 2520 4800
2026-03-07 18:30 13.98 5430 6900 (1933) 3 (1954) 830 29 51 92 111 297 769 932 2520 4800
2026-03-07 18:00 5230 6900 (1933) 3 (1954) 830 29 51 92 111 297 769 932 2520 4800
2026-03-07 17:30 13.41 4960 6900 (1933) 3 (1954) 830 29 51 92 111 297 769 932 2520 4800
2026-03-07 17:00 13.04 4660 6900 (1933) 3 (1954) 830 29 51 92 111 297 769 932 2520 4800
2026-03-07 16:30 12.63 4330 6900 (1933) 3 (1954) 830 29 51 92 111 297 769 932 2520 4800
2026-03-07 16:00 12.13 3950 6900 (1933) 3 (1954) 830 29 51 92 111 297 769 932 2520 4800
2026-03-07 15:30 11.50 3480 6900 (1933) 3 (1954) 830 29 51 92 111 297 769 932 2520 4800
2026-03-07 15:00 10.79 2970 6900 (1933) 3 (1954) 830 29 51 92 111 297 769 932 2520 4800
2026-03-07 14:30 10.04 2460 6900 (1933) 3 (1954) 830 29 51 92 111 297 769 932 2520 4800
2026-03-07 14:00 9.37 2020 6900 (1933) 3 (1954) 830 29 51 92 111 297 769 932 2520 4800
2026-03-07 13:30 8.95 1620 6900 (1933) 3 (1954) 830 29 51 92 111 297 769 932 2520 4800
2026-03-07 13:00 8.79 1480 6900 (1933) 3 (1954) 830 29 51 92 111 297 769 932 2520 4800
2026-03-07 12:30 8.71 1420 6900 (1933) 3 (1954) 830 29 51 92 111 297 769 932 2520 4800
2026-03-07 12:00 8.61 1330 6900 (1933) 3 (1954) 830 29 51 92 111 297 769 932 2520 4800
2026-03-07 11:30 8.53 1270 6900 (1933) 3 (1954) 830 29 51 92 111 297 769 932 2520 4800
2026-03-07 11:00 8.42 1190 6900 (1933) 3 (1954) 830 29 51 92 111 297 769 932 2520 4800
2026-03-07 10:30 8.33 1120 6900 (1933) 3 (1954) 830 29 51 92 111 297 769 932 2520 4800
2026-03-07 10:00 1070 6900 (1933) 3 (1954) 830 29 51 92 111 297 769 932 2520 4800
2026-03-07 09:30 8.22 1050 6900 (1933) 3 (1954) 830 29 51 92 111 297 769 932 2520 4800
2026-03-07 09:00 1020 6900 (1933) 3 (1954) 830 29 51 92 111 297 769 932 2520 4800
2026-03-07 08:30 8.15 998 6900 (1933) 3 (1954) 830 29 51 92 111 297 769 932 2520 4800
2026-03-07 08:00 939 6900 (1933) 3 (1954) 830 29 51 92 111 297 769 932 2520 4800
2026-03-07 07:30 7.89 833 6900 (1933) 3 (1954) 830 29 51 92 111 297 769 932 2520 4800
2026-03-07 07:00 706 6900 (1933) 3 (1954) 830 29 51 92 111 297 769 932 2520 4800
2026-03-07 06:30 7.55 643 6900 (1933) 3 (1954) 830 29 51 92 111 297 769 932 2520 4800
2026-03-07 06:00 602 6900 (1933) 3 (1954) 830 29 51 92 111 297 769 932 2520 4800
2026-03-07 05:30 7.47 602 6900 (1933) 3 (1954) 830 29 51 92 111 297 769 932 2520 4800
2026-03-07 05:00 7.44 588 6900 (1933) 3 (1954) 830 29 51 92 111 297 769 932 2520 4800
2026-03-07 04:30 7.39 563 6900 (1933) 3 (1954) 830 29 51 92 111 297 769 932 2520 4800
2026-03-07 04:00 7.41 573 6900 (1933) 3 (1954) 830 29 51 92 111 297 769 932 2520 4800
2026-03-07 03:30 7.39 563 6900 (1933) 3 (1954) 830 29 51 92 111 297 769 932 2520 4800
2026-03-07 03:00 583 6900 (1933) 3 (1954) 830 29 51 92 111 297 769 932 2520 4800
2026-03-07 02:30 568 6900 (1933) 3 (1954) 830 29 51 92 111 297 769 932 2520 4800
2026-03-07 02:00 7.43 583 6900 (1933) 3 (1954) 830 29 51 92 111 297 769 932 2520 4800
2026-03-07 01:30 597 6900 (1933) 3 (1954) 830 29 51 92 111 297 769 932 2520 4800
2026-03-07 01:00 588 6900 (1933) 3 (1954) 830 29 51 92 111 297 769 932 2520 4800
2026-03-07 00:30 607 6900 (1933) 3 (1954) 830 29 51 92 111 297 769 932 2520 4800
2026-03-07 00:00 607 6900 (1933) 3 (1954) 830 29 51 92 111 297 769 932 2520 4800
2026-03-06 23:30 7.51 622 6900 (1933) 3 (1954) 830 29 51 92 111 297 769 932 2520 4800
2026-03-06 23:00 638 6900 (1933) 3 (1954) 830 29 51 92 111 297 769 932 2520 4800
2026-03-06 22:30 7.56 648 7020 (1993) 3 (1954) 785 33 56 100 138 301 918 1070 2060 4330
2026-03-06 22:00 658 7020 (1993) 3 (1954) 785 33 56 100 138 301 918 1070 2060 4330
2026-03-06 21:30 7.59 664 7020 (1993) 3 (1954) 785 33 56 100 138 301 918 1070 2060 4330
2026-03-06 21:00 674 7020 (1993) 3 (1954) 785 33 56 100 138 301 918 1070 2060 4330
2026-03-06 20:30 7.63 685 7020 (1993) 3 (1954) 785 33 56 100 138 301 918 1070 2060 4330
2026-03-06 20:00 696 7020 (1993) 3 (1954) 785 33 56 100 138 301 918 1070 2060 4330
2026-03-06 19:30 7.67 706 7020 (1993) 3 (1954) 785 33 56 100 138 301 918 1070 2060 4330
2026-03-06 19:00 7.68 712 7020 (1993) 3 (1954) 785 33 56 100 138 301 918 1070 2060 4330
2026-03-06 18:30 7.70 723 7020 (1993) 3 (1954) 785 33 56 100 138 301 918 1070 2060 4330
2026-03-06 18:00 7.72 734 7020 (1993) 3 (1954) 785 33 56 100 138 301 918 1070 2060 4330
2026-03-06 17:30 7.74 745 7020 (1993) 3 (1954) 785 33 56 100 138 301 918 1070 2060 4330
2026-03-06 17:00 7.76 757 7020 (1993) 3 (1954) 785 33 56 100 138 301 918 1070 2060 4330
2026-03-06 16:30 7.78 768 7020 (1993) 3 (1954) 785 33 56 100 138 301 918 1070 2060 4330
2026-03-06 16:00 7.79 774 7020 (1993) 3 (1954) 785 33 56 100 138 301 918 1070 2060 4330
2026-03-06 15:30 785 7020 (1993) 3 (1954) 785 33 56 100 138 301 918 1070 2060 4330
2026-03-06 15:00 7.83 797 7020 (1993) 3 (1954) 785 33 56 100 138 301 918 1070 2060 4330
2026-03-06 14:30 809 7020 (1993) 3 (1954) 785 33 56 100 138 301 918 1070 2060 4330
2026-03-06 14:00 815 7020 (1993) 3 (1954) 785 33 56 100 138 301 918 1070 2060 4330
2026-03-06 13:30 7.88 827 7020 (1993) 3 (1954) 785 33 56 100 138 301 918 1070 2060 4330
2026-03-06 13:00 833 7020 (1993) 3 (1954) 785 33 56 100 138 301 918 1070 2060 4330
2026-03-06 12:30 7.91 845 7020 (1993) 3 (1954) 785 33 56 100 138 301 918 1070 2060 4330
2026-03-06 12:00 7.93 857 7020 (1993) 3 (1954) 785 33 56 100 138 301 918 1070 2060 4330
2026-03-06 11:30 7.93 857 7020 (1993) 3 (1954) 785 33 56 100 138 301 918 1070 2060 4330
2026-03-06 11:00 7.97 882 7020 (1993) 3 (1954) 785 33 56 100 138 301 918 1070 2060 4330
2026-03-06 10:30 7.99 894 7020 (1993) 3 (1954) 785 33 56 100 138 301 918 1070 2060 4330
2026-03-06 10:00 900 7020 (1993) 3 (1954) 785 33 56 100 138 301 918 1070 2060 4330
2026-03-06 09:30 8.01 907 7020 (1993) 3 (1954) 785 33 56 100 138 301 918 1070 2060 4330
2026-03-06 09:00 8.03 919 7020 (1993) 3 (1954) 785 33 56 100 138 301 918 1070 2060 4330
2026-03-06 08:30 932 7020 (1993) 3 (1954) 785 33 56 100 138 301 918 1070 2060 4330
2026-03-06 08:00 939 7020 (1993) 3 (1954) 785 33 56 100 138 301 918 1070 2060 4330
2026-03-06 07:30 8.08 952 7020 (1993) 3 (1954) 785 33 56 100 138 301 918 1070 2060 4330
2026-03-06 07:00 8.10 965 7020 (1993) 3 (1954) 785 33 56 100 138 301 918 1070 2060 4330
2026-03-06 06:30 8.12 978 7020 (1993) 3 (1954) 785 33 56 100 138 301 918 1070 2060 4330
2026-03-06 06:00 8.14 991 7020 (1993) 3 (1954) 785 33 56 100 138 301 918 1070 2060 4330
2026-03-06 05:30 8.16 1000 7020 (1993) 3 (1954) 785 33 56 100 138 301 918 1070 2060 4330
2026-03-06 05:00 8.18 1020 7020 (1993) 3 (1954) 785 33 56 100 138 301 918 1070 2060 4330
2026-03-06 04:30 8.19 1020 7020 (1993) 3 (1954) 785 33 56 100 138 301 918 1070 2060 4330
2026-03-06 04:00 8.23 1050 7020 (1993) 3 (1954) 785 33 56 100 138 301 918 1070 2060 4330
2026-03-06 03:30 8.24 1060 7020 (1993) 3 (1954) 785 33 56 100 138 301 918 1070 2060 4330
2026-03-06 03:00 8.26 1070 7020 (1993) 3 (1954) 785 33 56 100 138 301 918 1070 2060 4330
2026-03-06 02:30 8.28 1090 7020 (1993) 3 (1954) 785 33 56 100 138 301 918 1070 2060 4330
2026-03-06 02:00 1090 7020 (1993) 3 (1954) 785 33 56 100 138 301 918 1070 2060 4330
2026-03-06 01:30 8.32 1120 7020 (1993) 3 (1954) 785 33 56 100 138 301 918 1070 2060 4330
2026-03-06 01:00 1140 7020 (1993) 3 (1954) 785 33 56 100 138 301 918 1070 2060 4330
2026-03-06 00:30 8.37 1150 7020 (1993) 3 (1954) 785 33 56 100 138 301 918 1070 2060 4330
2026-03-06 00:00 1160 7020 (1993) 3 (1954) 785 33 56 100 138 301 918 1070 2060 4330
2026-03-05 23:30 8.41 1180 7020 (1993) 3 (1954) 785 33 56 100 138 301 918 1070 2060 4330
2026-03-05 23:00 1190 7020 (1993) 3 (1954) 785 33 56 100 138 301 918 1070 2060 4330
2026-03-05 22:30 8.44 1200 17800 (2004) 3 (1954) 954 31 40 89 121 269 722 1020 2450 4640
2026-03-05 22:00 8.45 1210 17800 (2004) 3 (1954) 954 31 40 89 121 269 722 1020 2450 4640
2026-03-05 21:30 8.45 1210 17800 (2004) 3 (1954) 954 31 40 89 121 269 722 1020 2450 4640
2026-03-05 21:00 8.44 1200 17800 (2004) 3 (1954) 954 31 40 89 121 269 722 1020 2450 4640
2026-03-05 20:30 8.43 1200 17800 (2004) 3 (1954) 954 31 40 89 121 269 722 1020 2450 4640
2026-03-05 20:00 1190 17800 (2004) 3 (1954) 954 31 40 89 121 269 722 1020 2450 4640
2026-03-05 19:30 8.39 1170 17800 (2004) 3 (1954) 954 31 40 89 121 269 722 1020 2450 4640
2026-03-05 19:00 8.37 1150 17800 (2004) 3 (1954) 954 31 40 89 121 269 722 1020 2450 4640
2026-03-05 18:30 8.34 1130 17800 (2004) 3 (1954) 954 31 40 89 121 269 722 1020 2450 4640
2026-03-05 18:00 8.28 1090 17800 (2004) 3 (1954) 954 31 40 89 121 269 722 1020 2450 4640
2026-03-05 17:30 8.19 1020 17800 (2004) 3 (1954) 954 31 40 89 121 269 722 1020 2450 4640
2026-03-05 17:00 8.06 939 17800 (2004) 3 (1954) 954 31 40 89 121 269 722 1020 2450 4640
2026-03-05 16:30 7.91 845 17800 (2004) 3 (1954) 954 31 40 89 121 269 722 1020 2450 4640
2026-03-05 16:00 7.81 785 17800 (2004) 3 (1954) 954 31 40 89 121 269 722 1020 2450 4640
2026-03-05 15:30 7.79 774 17800 (2004) 3 (1954) 954 31 40 89 121 269 722 1020 2450 4640
2026-03-05 15:00 7.82 791 17800 (2004) 3 (1954) 954 31 40 89 121 269 722 1020 2450 4640
2026-03-05 14:30 7.85 809 17800 (2004) 3 (1954) 954 31 40 89 121 269 722 1020 2450 4640
2026-03-05 14:00 821 17800 (2004) 3 (1954) 954 31 40 89 121 269 722 1020 2450 4640
2026-03-05 13:30 7.90 839 17800 (2004) 3 (1954) 954 31 40 89 121 269 722 1020 2450 4640
2026-03-05 13:00 7.90 839 17800 (2004) 3 (1954) 954 31 40 89 121 269 722 1020 2450 4640
2026-03-05 12:30 7.92 851 17800 (2004) 3 (1954) 954 31 40 89 121 269 722 1020 2450 4640
2026-03-05 12:00 7.92 851 17800 (2004) 3 (1954) 954 31 40 89 121 269 722 1020 2450 4640
2026-03-05 11:30 7.92 851 17800 (2004) 3 (1954) 954 31 40 89 121 269 722 1020 2450 4640
2026-03-05 11:00 7.91 845 17800 (2004) 3 (1954) 954 31 40 89 121 269 722 1020 2450 4640
2026-03-05 10:30 7.89 833 17800 (2004) 3 (1954) 954 31 40 89 121 269 722 1020 2450 4640
2026-03-05 10:00 7.85 809 17800 (2004) 3 (1954) 954 31 40 89 121 269 722 1020 2450 4640
2026-03-05 09:30 7.81 785 17800 (2004) 3 (1954) 954 31 40 89 121 269 722 1020 2450 4640
2026-03-05 09:00 7.77 762 17800 (2004) 3 (1954) 954 31 40 89 121 269 722 1020 2450 4640
2026-03-05 08:30 7.70 723 17800 (2004) 3 (1954) 954 31 40 89 121 269 722 1020 2450 4640
2026-03-05 08:00 7.65 696 17800 (2004) 3 (1954) 954 31 40 89 121 269 722 1020 2450 4640
2026-03-05 07:30 7.55 643 17800 (2004) 3 (1954) 954 31 40 89 121 269 722 1020 2450 4640
2026-03-05 07:00 7.40 568 17800 (2004) 3 (1954) 954 31 40 89 121 269 722 1020 2450 4640
2026-03-05 06:30 7.25 499 17800 (2004) 3 (1954) 954 31 40 89 121 269 722 1020 2450 4640
2026-03-05 06:00 7.04 411 17800 (2004) 3 (1954) 954 31 40 89 121 269 722 1020 2450 4640
2026-03-05 05:30 6.88 350 17800 (2004) 3 (1954) 954 31 40 89 121 269 722 1020 2450 4640
2026-03-05 05:00 6.82 329 17800 (2004) 3 (1954) 954 31 40 89 121 269 722 1020 2450 4640
2026-03-05 04:30 6.81 326 17800 (2004) 3 (1954) 954 31 40 89 121 269 722 1020 2450 4640
2026-03-05 04:00 6.78 315 17800 (2004) 3 (1954) 954 31 40 89 121 269 722 1020 2450 4640
2026-03-05 03:30 6.70 289 17800 (2004) 3 (1954) 954 31 40 89 121 269 722 1020 2450 4640
2026-03-05 03:00 267 17800 (2004) 3 (1954) 954 31 40 89 121 269 722 1020 2450 4640
2026-03-05 02:30 6.59 251 17800 (2004) 3 (1954) 954 31 40 89 121 269 722 1020 2450 4640
2026-03-05 02:00 240 17800 (2004) 3 (1954) 954 31 40 89 121 269 722 1020 2450 4640
2026-03-05 01:30 6.53 229 17800 (2004) 3 (1954) 954 31 40 89 121 269 722 1020 2450 4640
2026-03-05 01:00 215 17800 (2004) 3 (1954) 954 31 40 89 121 269 722 1020 2450 4640
2026-03-05 00:30 6.45 202 17800 (2004) 3 (1954) 954 31 40 89 121 269 722 1020 2450 4640
2026-03-05 00:00 6.38 180 17800 (2004) 3 (1954) 954 31 40 89 121 269 722 1020 2450 4640
2026-03-04 23:30 6.33 165 17800 (2004) 3 (1954) 954 31 40 89 121 269 722 1020 2450 4640
2026-03-04 23:00 162 17800 (2004) 3 (1954) 954 31 40 89 121 269 722 1020 2450 4640
2026-03-04 22:30 6.34 168 12200 (1993) 3 (1954) 843 30 36 77 101 272 848 1160 2340 3050
2026-03-04 22:00 6.34 168 12200 (1993) 3 (1954) 843 30 36 77 101 272 848 1160 2340 3050
2026-03-04 21:30 6.35 171 12200 (1993) 3 (1954) 843 30 36 77 101 272 848 1160 2340 3050
2026-03-04 21:00 6.35 171 12200 (1993) 3 (1954) 843 30 36 77 101 272 848 1160 2340 3050
2026-03-04 20:30 177 12200 (1993) 3 (1954) 843 30 36 77 101 272 848 1160 2340 3050
2026-03-04 20:00 6.39 183 12200 (1993) 3 (1954) 843 30 36 77 101 272 848 1160 2340 3050
2026-03-04 19:30 6.41 189 12200 (1993) 3 (1954) 843 30 36 77 101 272 848 1160 2340 3050
2026-03-04 19:00 6.44 199 12200 (1993) 3 (1954) 843 30 36 77 101 272 848 1160 2340 3050
2026-03-04 18:30 6.47 208 12200 (1993) 3 (1954) 843 30 36 77 101 272 848 1160 2340 3050
2026-03-04 18:00 222 12200 (1993) 3 (1954) 843 30 36 77 101 272 848 1160 2340 3050
2026-03-04 17:30 6.55 237 12200 (1993) 3 (1954) 843 30 36 77 101 272 848 1160 2340 3050
2026-03-04 17:00 6.58 248 12200 (1993) 3 (1954) 843 30 36 77 101 272 848 1160 2340 3050
2026-03-04 16:30 237 12200 (1993) 3 (1954) 843 30 36 77 101 272 848 1160 2340 3050
2026-03-04 16:00 6.41 189 12200 (1993) 3 (1954) 843 30 36 77 101 272 848 1160 2340 3050
2026-03-04 15:30 6.12 112 12200 (1993) 3 (1954) 843 30 36 77 101 272 848 1160 2340 3050
2026-03-04 15:00 6.03 94 12200 (1993) 3 (1954) 843 30 36 77 101 272 848 1160 2340 3050
2026-03-04 14:30 79 12200 (1993) 3 (1954) 843 30 36 77 101 272 848 1160 2340 3050
2026-03-04 14:00 5.93 76 12200 (1993) 3 (1954) 843 30 36 77 101 272 848 1160 2340 3050
2026-03-04 13:30 5.85 63 12200 (1993) 3 (1954) 843 30 36 77 101 272 848 1160 2340 3050
2026-03-04 13:00 5.84 62 12200 (1993) 3 (1954) 843 30 36 77 101 272 848 1160 2340 3050
2026-03-04 12:30 57 12200 (1993) 3 (1954) 843 30 36 77 101 272 848 1160 2340 3050
2026-03-04 12:00 5.83 60 12200 (1993) 3 (1954) 843 30 36 77 101 272 848 1160 2340 3050
2026-03-04 11:30 5.82 59 12200 (1993) 3 (1954) 843 30 36 77 101 272 848 1160 2340 3050
2026-03-04 11:00 5.79 55 12200 (1993) 3 (1954) 843 30 36 77 101 272 848 1160 2340 3050
2026-03-04 10:30 5.81 57 12200 (1993) 3 (1954) 843 30 36 77 101 272 848 1160 2340 3050
2026-03-04 10:00 5.76 51 12200 (1993) 3 (1954) 843 30 36 77 101 272 848 1160 2340 3050
2026-03-04 09:30 5.75 49 12200 (1993) 3 (1954) 843 30 36 77 101 272 848 1160 2340 3050
2026-03-04 09:00 5.81 57 12200 (1993) 3 (1954) 843 30 36 77 101 272 848 1160 2340 3050
2026-03-04 08:30 5.77 52 12200 (1993) 3 (1954) 843 30 36 77 101 272 848 1160 2340 3050
2026-03-04 08:00 5.80 56 12200 (1993) 3 (1954) 843 30 36 77 101 272 848 1160 2340 3050
2026-03-04 07:30 5.80 56 12200 (1993) 3 (1954) 843 30 36 77 101 272 848 1160 2340 3050
2026-03-04 07:00 5.80 56 12200 (1993) 3 (1954) 843 30 36 77 101 272 848 1160 2340 3050
2026-03-04 06:30 5.80 56 12200 (1993) 3 (1954) 843 30 36 77 101 272 848 1160 2340 3050
2026-03-04 06:00 5.80 56 12200 (1993) 3 (1954) 843 30 36 77 101 272 848 1160 2340 3050
2026-03-04 05:30 5.80 56 12200 (1993) 3 (1954) 843 30 36 77 101 272 848 1160 2340 3050
2026-03-04 05:00 56 12200 (1993) 3 (1954) 843 30 36 77 101 272 848 1160 2340 3050
2026-03-04 04:30 5.79 55 12200 (1993) 3 (1954) 843 30 36 77 101 272 848 1160 2340 3050
2026-03-04 04:00 5.79 55 12200 (1993) 3 (1954) 843 30 36 77 101 272 848 1160 2340 3050
2026-03-04 03:30 55 12200 (1993) 3 (1954) 843 30 36 77 101 272 848 1160 2340 3050
2026-03-04 03:00 5.78 53 12200 (1993) 3 (1954) 843 30 36 77 101 272 848 1160 2340 3050
2026-03-04 02:30 5.78 53 12200 (1993) 3 (1954) 843 30 36 77 101 272 848 1160 2340 3050
2026-03-04 02:00 5.78 53 12200 (1993) 3 (1954) 843 30 36 77 101 272 848 1160 2340 3050
2026-03-04 01:30 53 12200 (1993) 3 (1954) 843 30 36 77 101 272 848 1160 2340 3050
2026-03-04 01:00 5.78 53 12200 (1993) 3 (1954) 843 30 36 77 101 272 848 1160 2340 3050
2026-03-04 00:30 53 12200 (1993) 3 (1954) 843 30 36 77 101 272 848 1160 2340 3050
2026-03-04 00:00 5.78 53 12200 (1993) 3 (1954) 843 30 36 77 101 272 848 1160 2340 3050
2026-03-03 23:30 53 12200 (1993) 3 (1954) 843 30 36 77 101 272 848 1160 2340 3050
2026-03-03 23:00 5.77 52 12200 (1993) 3 (1954) 843 30 36 77 101 272 848 1160 2340 3050
2026-03-03 22:30 5.77 52 9120 (1945) 3 (1954) 710 25 37 72 94 240 585 824 1590 3240
2026-03-03 22:00 5.77 52 9120 (1945) 3 (1954) 710 25 37 72 94 240 585 824 1590 3240
2026-03-03 21:30 5.77 52 9120 (1945) 3 (1954) 710 25 37 72 94 240 585 824 1590 3240
2026-03-03 21:00 5.77 52 9120 (1945) 3 (1954) 710 25 37 72 94 240 585 824 1590 3240
2026-03-03 20:30 5.77 52 9120 (1945) 3 (1954) 710 25 37 72 94 240 585 824 1590 3240
2026-03-03 20:00 5.76 51 9120 (1945) 3 (1954) 710 25 37 72 94 240 585 824 1590 3240
2026-03-03 19:30 5.76 51 9120 (1945) 3 (1954) 710 25 37 72 94 240 585 824 1590 3240
2026-03-03 19:00 5.76 51 9120 (1945) 3 (1954) 710 25 37 72 94 240 585 824 1590 3240
2026-03-03 18:30 5.76 51 9120 (1945) 3 (1954) 710 25 37 72 94 240 585 824 1590 3240
2026-03-03 18:00 5.76 51 9120 (1945) 3 (1954) 710 25 37 72 94 240 585 824 1590 3240
2026-03-03 17:30 5.76 51 9120 (1945) 3 (1954) 710 25 37 72 94 240 585 824 1590 3240
2026-03-03 17:00 51 9120 (1945) 3 (1954) 710 25 37 72 94 240 585 824 1590 3240
2026-03-03 16:30 5.76 51 9120 (1945) 3 (1954) 710 25 37 72 94 240 585 824 1590 3240
2026-03-03 16:00 5.76 51 9120 (1945) 3 (1954) 710 25 37 72 94 240 585 824 1590 3240
2026-03-03 15:30 5.75 49 9120 (1945) 3 (1954) 710 25 37 72 94 240 585 824 1590 3240
2026-03-03 15:00 5.75 49 9120 (1945) 3 (1954) 710 25 37 72 94 240 585 824 1590 3240
2026-03-03 14:30 49 9120 (1945) 3 (1954) 710 25 37 72 94 240 585 824 1590 3240
2026-03-03 14:00 5.71 45 9120 (1945) 3 (1954) 710 25 37 72 94 240 585 824 1590 3240
2026-03-03 13:30 5.72 46 9120 (1945) 3 (1954) 710 25 37 72 94 240 585 824 1590 3240
2026-03-03 13:00 5.67 40 9120 (1945) 3 (1954) 710 25 37 72 94 240 585 824 1590 3240
2026-03-03 12:30 5.70 43 9120 (1945) 3 (1954) 710 25 37 72 94 240 585 824 1590 3240
2026-03-03 12:00 5.71 45 9120 (1945) 3 (1954) 710 25 37 72 94 240 585 824 1590 3240
2026-03-03 11:30 46 9120 (1945) 3 (1954) 710 25 37 72 94 240 585 824 1590 3240
2026-03-03 11:00 5.70 43 9120 (1945) 3 (1954) 710 25 37 72 94 240 585 824 1590 3240
2026-03-03 10:30 5.69 42 9120 (1945) 3 (1954) 710 25 37 72 94 240 585 824 1590 3240
2026-03-03 10:00 5.74 48 9120 (1945) 3 (1954) 710 25 37 72 94 240 585 824 1590 3240
2026-03-03 09:30 5.72 46 9120 (1945) 3 (1954) 710 25 37 72 94 240 585 824 1590 3240
2026-03-03 09:00 5.74 48 9120 (1945) 3 (1954) 710 25 37 72 94 240 585 824 1590 3240
2026-03-03 08:30 5.73 47 9120 (1945) 3 (1954) 710 25 37 72 94 240 585 824 1590 3240
2026-03-03 08:00 5.73 47 9120 (1945) 3 (1954) 710 25 37 72 94 240 585 824 1590 3240
2026-03-03 07:30 48 9120 (1945) 3 (1954) 710 25 37 72 94 240 585 824 1590 3240
2026-03-03 07:00 5.71 45 9120 (1945) 3 (1954) 710 25 37 72 94 240 585 824 1590 3240
2026-03-03 06:30 5.73 47 9120 (1945) 3 (1954) 710 25 37 72 94 240 585 824 1590 3240
2026-03-03 06:00 5.69 42 9120 (1945) 3 (1954) 710 25 37 72 94 240 585 824 1590 3240
2026-03-03 05:30 5.72 46 9120 (1945) 3 (1954) 710 25 37 72 94 240 585 824 1590 3240
2026-03-03 05:00 43 9120 (1945) 3 (1954) 710 25 37 72 94 240 585 824 1590 3240
2026-03-03 04:30 5.70 43 9120 (1945) 3 (1954) 710 25 37 72 94 240 585 824 1590 3240
2026-03-03 04:00 5.70 43 9120 (1945) 3 (1954) 710 25 37 72 94 240 585 824 1590 3240
2026-03-03 03:30 5.69 42 9120 (1945) 3 (1954) 710 25 37 72 94 240 585 824 1590 3240
2026-03-03 03:00 5.70 43 9120 (1945) 3 (1954) 710 25 37 72 94 240 585 824 1590 3240
2026-03-03 02:30 5.70 43 9120 (1945) 3 (1954) 710 25 37 72 94 240 585 824 1590 3240
2026-03-03 02:00 5.70 43 9120 (1945) 3 (1954) 710 25 37 72 94 240 585 824 1590 3240
2026-03-03 01:30 41 9120 (1945) 3 (1954) 710 25 37 72 94 240 585 824 1590 3240
2026-03-03 01:00 5.70 43 9120 (1945) 3 (1954) 710 25 37 72 94 240 585 824 1590 3240
2026-03-03 00:30 5.70 43 9120 (1945) 3 (1954) 710 25 37 72 94 240 585 824 1590 3240
2026-03-03 00:00 45 9120 (1945) 3 (1954) 710 25 37 72 94 240 585 824 1590 3240
2026-03-02 23:30 5.67 40 9120 (1945) 3 (1954) 710 25 37 72 94 240 585 824 1590 3240
2026-03-02 23:00 43 9120 (1945) 3 (1954) 710 25 37 72 94 240 585 824 1590 3240
2026-03-02 22:30 5.70 43 6980 (1948) 2 (1954) 536 24 35 69 94 258 507 632 1720 2110
2026-03-02 22:00 5.71 45 6980 (1948) 2 (1954) 536 24 35 69 94 258 507 632 1720 2110
2026-03-02 21:30 5.68 41 6980 (1948) 2 (1954) 536 24 35 69 94 258 507 632 1720 2110
2026-03-02 21:00 5.66 39 6980 (1948) 2 (1954) 536 24 35 69 94 258 507 632 1720 2110
2026-03-02 20:30 5.71 45 6980 (1948) 2 (1954) 536 24 35 69 94 258 507 632 1720 2110
2026-03-02 20:00 5.69 42 6980 (1948) 2 (1954) 536 24 35 69 94 258 507 632 1720 2110
2026-03-02 19:30 5.70 43 6980 (1948) 2 (1954) 536 24 35 69 94 258 507 632 1720 2110
2026-03-02 19:00 5.66 39 6980 (1948) 2 (1954) 536 24 35 69 94 258 507 632 1720 2110
2026-03-02 18:30 5.71 45 6980 (1948) 2 (1954) 536 24 35 69 94 258 507 632 1720 2110
2026-03-02 18:00 5.69 42 6980 (1948) 2 (1954) 536 24 35 69 94 258 507 632 1720 2110
2026-03-02 17:30 5.71 45 6980 (1948) 2 (1954) 536 24 35 69 94 258 507 632 1720 2110
2026-03-02 17:00 5.71 45 6980 (1948) 2 (1954) 536 24 35 69 94 258 507 632 1720 2110
2026-03-02 16:30 5.69 42 6980 (1948) 2 (1954) 536 24 35 69 94 258 507 632 1720 2110
2026-03-02 16:00 5.65 38 6980 (1948) 2 (1954) 536 24 35 69 94 258 507 632 1720 2110
2026-03-02 15:30 5.65 38 6980 (1948) 2 (1954) 536 24 35 69 94 258 507 632 1720 2110
2026-03-02 15:00 5.66 39 6980 (1948) 2 (1954) 536 24 35 69 94 258 507 632 1720 2110
2026-03-02 14:30 5.66 39 6980 (1948) 2 (1954) 536 24 35 69 94 258 507 632 1720 2110
2026-03-02 14:00 5.64 37 6980 (1948) 2 (1954) 536 24 35 69 94 258 507 632 1720 2110
2026-03-02 13:30 5.63 36 6980 (1948) 2 (1954) 536 24 35 69 94 258 507 632 1720 2110
2026-03-02 13:00 5.66 39 6980 (1948) 2 (1954) 536 24 35 69 94 258 507 632 1720 2110
2026-03-02 12:30 5.64 37 6980 (1948) 2 (1954) 536 24 35 69 94 258 507 632 1720 2110
2026-03-02 12:00 5.65 38 6980 (1948) 2 (1954) 536 24 35 69 94 258 507 632 1720 2110
2026-03-02 11:30 5.66 39 6980 (1948) 2 (1954) 536 24 35 69 94 258 507 632 1720 2110
2026-03-02 11:00 5.67 40 6980 (1948) 2 (1954) 536 24 35 69 94 258 507 632 1720 2110
2026-03-02 10:30 41 6980 (1948) 2 (1954) 536 24 35 69 94 258 507 632 1720 2110
2026-03-02 10:00 5.66 39 6980 (1948) 2 (1954) 536 24 35 69 94 258 507 632 1720 2110
2026-03-02 09:30 5.66 39 6980 (1948) 2 (1954) 536 24 35 69 94 258 507 632 1720 2110
2026-03-02 09:00 5.64 37 6980 (1948) 2 (1954) 536 24 35 69 94 258 507 632 1720 2110
2026-03-02 08:30 40 6980 (1948) 2 (1954) 536 24 35 69 94 258 507 632 1720 2110
2026-03-02 08:00 5.67 40 6980 (1948) 2 (1954) 536 24 35 69 94 258 507 632 1720 2110
2026-03-02 07:30 5.66 39 6980 (1948) 2 (1954) 536 24 35 69 94 258 507 632 1720 2110
2026-03-02 07:00 5.71 45 6980 (1948) 2 (1954) 536 24 35 69 94 258 507 632 1720 2110
2026-03-02 06:30 5.68 41 6980 (1948) 2 (1954) 536 24 35 69 94 258 507 632 1720 2110
2026-03-02 06:00 5.66 39 6980 (1948) 2 (1954) 536 24 35 69 94 258 507 632 1720 2110
2026-03-02 05:30 5.71 45 6980 (1948) 2 (1954) 536 24 35 69 94 258 507 632 1720 2110
2026-03-02 05:00 5.71 45 6980 (1948) 2 (1954) 536 24 35 69 94 258 507 632 1720 2110
2026-03-02 04:30 5.65 38 6980 (1948) 2 (1954) 536 24 35 69 94 258 507 632 1720 2110
2026-03-02 04:00 5.66 39 6980 (1948) 2 (1954) 536 24 35 69 94 258 507 632 1720 2110
2026-03-02 03:30 5.65 38 6980 (1948) 2 (1954) 536 24 35 69 94 258 507 632 1720 2110
2026-03-02 03:00 5.65 38 6980 (1948) 2 (1954) 536 24 35 69 94 258 507 632 1720 2110
2026-03-02 02:30 5.63 36 6980 (1948) 2 (1954) 536 24 35 69 94 258 507 632 1720 2110
2026-03-02 02:00 5.63 36 6980 (1948) 2 (1954) 536 24 35 69 94 258 507 632 1720 2110
2026-03-02 01:30 5.65 38 6980 (1948) 2 (1954) 536 24 35 69 94 258 507 632 1720 2110
2026-03-02 01:00 5.63 36 6980 (1948) 2 (1954) 536 24 35 69 94 258 507 632 1720 2110
2026-03-02 00:30 5.65 38 6980 (1948) 2 (1954) 536 24 35 69 94 258 507 632 1720 2110
2026-03-02 00:00 37 6980 (1948) 2 (1954) 536 24 35 69 94 258 507 632 1720 2110
2026-03-01 23:30 5.65 38 6980 (1948) 2 (1954) 536 24 35 69 94 258 507 632 1720 2110
2026-03-01 23:00 5.69 42 6980 (1948) 2 (1954) 536 24 35 69 94 258 507 632 1720 2110
2026-03-01 22:30 5.63 36 6100 (2011) 2 (1954) 525 13 37 69 98 237 538 701 1330 2210
2026-03-01 22:00 5.64 37 6100 (2011) 2 (1954) 525 13 37 69 98 237 538 701 1330 2210
2026-03-01 21:30 5.61 34 6100 (2011) 2 (1954) 525 13 37 69 98 237 538 701 1330 2210
2026-03-01 21:00 5.61 34 6100 (2011) 2 (1954) 525 13 37 69 98 237 538 701 1330 2210
2026-03-01 20:30 5.60 33 6100 (2011) 2 (1954) 525 13 37 69 98 237 538 701 1330 2210
2026-03-01 20:00 5.61 34 6100 (2011) 2 (1954) 525 13 37 69 98 237 538 701 1330 2210
2026-03-01 19:30 5.61 34 6100 (2011) 2 (1954) 525 13 37 69 98 237 538 701 1330 2210
2026-03-01 19:00 5.66 39 6100 (2011) 2 (1954) 525 13 37 69 98 237 538 701 1330 2210
2026-03-01 18:30 5.68 41 6100 (2011) 2 (1954) 525 13 37 69 98 237 538 701 1330 2210
2026-03-01 18:00 5.69 42 6100 (2011) 2 (1954) 525 13 37 69 98 237 538 701 1330 2210
2026-03-01 17:30 5.62 35 6100 (2011) 2 (1954) 525 13 37 69 98 237 538 701 1330 2210
2026-03-01 17:00 5.67 40 6100 (2011) 2 (1954) 525 13 37 69 98 237 538 701 1330 2210
2026-03-01 16:30 5.61 34 6100 (2011) 2 (1954) 525 13 37 69 98 237 538 701 1330 2210
2026-03-01 16:00 5.60 33 6100 (2011) 2 (1954) 525 13 37 69 98 237 538 701 1330 2210
2026-03-01 15:30 5.62 35 6100 (2011) 2 (1954) 525 13 37 69 98 237 538 701 1330 2210
2026-03-01 15:00 5.60 33 6100 (2011) 2 (1954) 525 13 37 69 98 237 538 701 1330 2210
2026-03-01 14:30 5.61 34 6100 (2011) 2 (1954) 525 13 37 69 98 237 538 701 1330 2210
2026-03-01 14:00 5.62 35 6100 (2011) 2 (1954) 525 13 37 69 98 237 538 701 1330 2210
2026-03-01 13:30 5.61 34 6100 (2011) 2 (1954) 525 13 37 69 98 237 538 701 1330 2210
2026-03-01 13:00 5.62 35 6100 (2011) 2 (1954) 525 13 37 69 98 237 538 701 1330 2210
2026-03-01 12:30 5.62 35 6100 (2011) 2 (1954) 525 13 37 69 98 237 538 701 1330 2210
2026-03-01 12:00 5.62 35 6100 (2011) 2 (1954) 525 13 37 69 98 237 538 701 1330 2210
2026-03-01 11:30 5.61 34 6100 (2011) 2 (1954) 525 13 37 69 98 237 538 701 1330 2210
2026-03-01 11:00 5.62 35 6100 (2011) 2 (1954) 525 13 37 69 98 237 538 701 1330 2210
2026-03-01 10:30 5.64 37 6100 (2011) 2 (1954) 525 13 37 69 98 237 538 701 1330 2210
2026-03-01 10:00 5.60 33 6100 (2011) 2 (1954) 525 13 37 69 98 237 538 701 1330 2210
2026-03-01 09:30 5.64 37 6100 (2011) 2 (1954) 525 13 37 69 98 237 538 701 1330 2210
2026-03-01 09:00 5.61 34 6100 (2011) 2 (1954) 525 13 37 69 98 237 538 701 1330 2210
2026-03-01 08:30 5.59 32 6100 (2011) 2 (1954) 525 13 37 69 98 237 538 701 1330 2210
2026-03-01 08:00 5.62 35 6100 (2011) 2 (1954) 525 13 37 69 98 237 538 701 1330 2210
2026-03-01 07:30 5.64 37 6100 (2011) 2 (1954) 525 13 37 69 98 237 538 701 1330 2210
2026-03-01 07:00 5.64 37 6100 (2011) 2 (1954) 525 13 37 69 98 237 538 701 1330 2210
2026-03-01 06:30 5.64 37 6100 (2011) 2 (1954) 525 13 37 69 98 237 538 701 1330 2210
2026-03-01 06:00 5.67 40 6100 (2011) 2 (1954) 525 13 37 69 98 237 538 701 1330 2210
2026-03-01 05:30 5.69 42 6100 (2011) 2 (1954) 525 13 37 69 98 237 538 701 1330 2210
2026-03-01 05:00 5.69 42 6100 (2011) 2 (1954) 525 13 37 69 98 237 538 701 1330 2210
2026-03-01 04:30 5.69 42 6100 (2011) 2 (1954) 525 13 37 69 98 237 538 701 1330 2210
2026-03-01 04:00 5.69 42 6100 (2011) 2 (1954) 525 13 37 69 98 237 538 701 1330 2210
2026-03-01 03:30 5.69 42 6100 (2011) 2 (1954) 525 13 37 69 98 237 538 701 1330 2210
2026-03-01 03:00 5.69 42 6100 (2011) 2 (1954) 525 13 37 69 98 237 538 701 1330 2210
2026-03-01 02:30 42 6100 (2011) 2 (1954) 525 13 37 69 98 237 538 701 1330 2210
2026-03-01 02:00 5.69 42 6100 (2011) 2 (1954) 525 13 37 69 98 237 538 701 1330 2210
2026-03-01 01:30 42 6100 (2011) 2 (1954) 525 13 37 69 98 237 538 701 1330 2210
2026-03-01 01:00 42 6100 (2011) 2 (1954) 525 13 37 69 98 237 538 701 1330 2210
2026-03-01 00:30 40 6100 (2011) 2 (1954) 525 13 37 69 98 237 538 701 1330 2210
2026-03-01 00:00 40 6100 (2011) 2 (1954) 525 13 37 69 98 237 538 701 1330 2210
2026-02-28 23:30 5.69 42 6100 (2011) 2 (1954) 525 13 37 69 98 237 538 701 1330 2210
2026-02-28 23:00 35 6100 (2011) 2 (1954) 525 13 37 69 98 237 538 701 1330 2210
2026-02-28 22:30 5.65 38 15800 (2011) 2 (1954) 768 11 35 66 89 260 919 1060 1750 3030
2026-02-28 22:00 36 15800 (2011) 2 (1954) 768 11 35 66 89 260 919 1060 1750 3030
2026-02-28 21:30 5.63 36 15800 (2011) 2 (1954) 768 11 35 66 89 260 919 1060 1750 3030
2026-02-28 21:00 5.68 41 15800 (2011) 2 (1954) 768 11 35 66 89 260 919 1060 1750 3030
2026-02-28 20:30 42 15800 (2011) 2 (1954) 768 11 35 66 89 260 919 1060 1750 3030
2026-02-28 20:00 5.63 36 15800 (2011) 2 (1954) 768 11 35 66 89 260 919 1060 1750 3030
2026-02-28 19:30 5.67 40 15800 (2011) 2 (1954) 768 11 35 66 89 260 919 1060 1750 3030
2026-02-28 19:00 5.69 42 15800 (2011) 2 (1954) 768 11 35 66 89 260 919 1060 1750 3030
2026-02-28 18:30 5.69 42 15800 (2011) 2 (1954) 768 11 35 66 89 260 919 1060 1750 3030
2026-02-28 18:00 5.69 42 15800 (2011) 2 (1954) 768 11 35 66 89 260 919 1060 1750 3030
2026-02-28 17:30 5.69 42 15800 (2011) 2 (1954) 768 11 35 66 89 260 919 1060 1750 3030
2026-02-28 17:00 5.69 42 15800 (2011) 2 (1954) 768 11 35 66 89 260 919 1060 1750 3030
2026-02-28 16:30 5.69 42 15800 (2011) 2 (1954) 768 11 35 66 89 260 919 1060 1750 3030
2026-02-28 16:00 5.69 42 15800 (2011) 2 (1954) 768 11 35 66 89 260 919 1060 1750 3030
2026-02-28 15:30 5.69 42 15800 (2011) 2 (1954) 768 11 35 66 89 260 919 1060 1750 3030
2026-02-28 15:00 5.66 39 15800 (2011) 2 (1954) 768 11 35 66 89 260 919 1060 1750 3030
2026-02-28 14:30 5.68 41 15800 (2011) 2 (1954) 768 11 35 66 89 260 919 1060 1750 3030
2026-02-28 14:00 5.61 34 15800 (2011) 2 (1954) 768 11 35 66 89 260 919 1060 1750 3030
2026-02-28 13:30 5.63 36 15800 (2011) 2 (1954) 768 11 35 66 89 260 919 1060 1750 3030
2026-02-28 13:00 5.64 37 15800 (2011) 2 (1954) 768 11 35 66 89 260 919 1060 1750 3030
2026-02-28 12:30 5.65 38 15800 (2011) 2 (1954) 768 11 35 66 89 260 919 1060 1750 3030
2026-02-28 12:00 5.66 39 15800 (2011) 2 (1954) 768 11 35 66 89 260 919 1060 1750 3030
2026-02-28 11:30 5.65 38 15800 (2011) 2 (1954) 768 11 35 66 89 260 919 1060 1750 3030
2026-02-28 11:00 5.63 36 15800 (2011) 2 (1954) 768 11 35 66 89 260 919 1060 1750 3030
2026-02-28 10:30 5.68 41 15800 (2011) 2 (1954) 768 11 35 66 89 260 919 1060 1750 3030
2026-02-28 10:00 5.65 38 15800 (2011) 2 (1954) 768 11 35 66 89 260 919 1060 1750 3030
2026-02-28 09:30 5.66 39 15800 (2011) 2 (1954) 768 11 35 66 89 260 919 1060 1750 3030
2026-02-28 09:00 5.65 38 15800 (2011) 2 (1954) 768 11 35 66 89 260 919 1060 1750 3030
2026-02-28 08:30 5.70 43 15800 (2011) 2 (1954) 768 11 35 66 89 260 919 1060 1750 3030
2026-02-28 08:00 5.70 43 15800 (2011) 2 (1954) 768 11 35 66 89 260 919 1060 1750 3030
2026-02-28 07:30 5.70 43 15800 (2011) 2 (1954) 768 11 35 66 89 260 919 1060 1750 3030
2026-02-28 07:00 5.70 43 15800 (2011) 2 (1954) 768 11 35 66 89 260 919 1060 1750 3030
2026-02-28 06:30 5.70 43 15800 (2011) 2 (1954) 768 11 35 66 89 260 919 1060 1750 3030
2026-02-28 06:00 43 15800 (2011) 2 (1954) 768 11 35 66 89 260 919 1060 1750 3030
2026-02-28 05:30 5.70 43 15800 (2011) 2 (1954) 768 11 35 66 89 260 919 1060 1750 3030
2026-02-28 05:00 5.70 43 15800 (2011) 2 (1954) 768 11 35 66 89 260 919 1060 1750 3030
2026-02-28 04:30 5.70 43 15800 (2011) 2 (1954) 768 11 35 66 89 260 919 1060 1750 3030
2026-02-28 04:00 5.70 43 15800 (2011) 2 (1954) 768 11 35 66 89 260 919 1060 1750 3030
2026-02-28 03:30 43 15800 (2011) 2 (1954) 768 11 35 66 89 260 919 1060 1750 3030
2026-02-28 03:00 5.70 43 15800 (2011) 2 (1954) 768 11 35 66 89 260 919 1060 1750 3030
2026-02-28 02:30 43 15800 (2011) 2 (1954) 768 11 35 66 89 260 919 1060 1750 3030
2026-02-28 02:00 43 15800 (2011) 2 (1954) 768 11 35 66 89 260 919 1060 1750 3030
2026-02-28 01:30 5.70 43 15800 (2011) 2 (1954) 768 11 35 66 89 260 919 1060 1750 3030
2026-02-28 01:00 43 15800 (2011) 2 (1954) 768 11 35 66 89 260 919 1060 1750 3030
2026-02-28 00:30 42 15800 (2011) 2 (1954) 768 11 35 66 89 260 919 1060 1750 3030
2026-02-28 00:00 5.70 43 15800 (2011) 2 (1954) 768 11 35 66 89 260 919 1060 1750 3030
2026-02-27 23:30 43 15800 (2011) 2 (1954) 768 11 35 66 89 260 919 1060 1750 3030
2026-02-27 23:00 5.70 43 15800 (2011) 2 (1954) 768 11 35 66 89 260 919 1060 1750 3030
2026-02-27 22:30 43 15500 (1997) 2 (1954) 880 13 35 71 83 290 702 979 1940 3370
2026-02-27 22:00 5.70 43 15500 (1997) 2 (1954) 880 13 35 71 83 290 702 979 1940 3370
2026-02-27 21:30 43 15500 (1997) 2 (1954) 880 13 35 71 83 290 702 979 1940 3370
2026-02-27 21:00 5.70 43 15500 (1997) 2 (1954) 880 13 35 71 83 290 702 979 1940 3370
2026-02-27 20:30 43 15500 (1997) 2 (1954) 880 13 35 71 83 290 702 979 1940 3370
2026-02-27 20:00 5.70 43 15500 (1997) 2 (1954) 880 13 35 71 83 290 702 979 1940 3370
2026-02-27 19:30 5.70 43 15500 (1997) 2 (1954) 880 13 35 71 83 290 702 979 1940 3370
2026-02-27 19:00 5.70 43 15500 (1997) 2 (1954) 880 13 35 71 83 290 702 979 1940 3370
2026-02-27 18:30 5.70 43 15500 (1997) 2 (1954) 880 13 35 71 83 290 702 979 1940 3370
2026-02-27 18:00 5.70 43 15500 (1997) 2 (1954) 880 13 35 71 83 290 702 979 1940 3370
2026-02-27 17:30 5.63 36 15500 (1997) 2 (1954) 880 13 35 71 83 290 702 979 1940 3370
2026-02-27 17:00 5.64 37 15500 (1997) 2 (1954) 880 13 35 71 83 290 702 979 1940 3370
2026-02-27 16:30 5.62 35 15500 (1997) 2 (1954) 880 13 35 71 83 290 702 979 1940 3370
2026-02-27 16:00 37 15500 (1997) 2 (1954) 880 13 35 71 83 290 702 979 1940 3370
2026-02-27 15:30 5.64 37 15500 (1997) 2 (1954) 880 13 35 71 83 290 702 979 1940 3370
2026-02-27 15:00 38 15500 (1997) 2 (1954) 880 13 35 71 83 290 702 979 1940 3370
2026-02-27 14:30 5.63 36 15500 (1997) 2 (1954) 880 13 35 71 83 290 702 979 1940 3370
2026-02-27 14:00 5.64 37 15500 (1997) 2 (1954) 880 13 35 71 83 290 702 979 1940 3370
2026-02-27 13:30 5.63 36 15500 (1997) 2 (1954) 880 13 35 71 83 290 702 979 1940 3370
2026-02-27 13:00 5.65 38 15500 (1997) 2 (1954) 880 13 35 71 83 290 702 979 1940 3370
2026-02-27 12:30 5.66 39 15500 (1997) 2 (1954) 880 13 35 71 83 290 702 979 1940 3370
2026-02-27 12:00 5.64 37 15500 (1997) 2 (1954) 880 13 35 71 83 290 702 979 1940 3370
2026-02-27 11:30 5.66 39 15500 (1997) 2 (1954) 880 13 35 71 83 290 702 979 1940 3370
2026-02-27 11:00 5.63 36 15500 (1997) 2 (1954) 880 13 35 71 83 290 702 979 1940 3370
2026-02-27 10:30 38 15500 (1997) 2 (1954) 880 13 35 71 83 290 702 979 1940 3370
2026-02-27 10:00 5.71 45 15500 (1997) 2 (1954) 880 13 35 71 83 290 702 979 1940 3370
2026-02-27 09:30 5.71 45 15500 (1997) 2 (1954) 880 13 35 71 83 290 702 979 1940 3370
2026-02-27 09:00 45 15500 (1997) 2 (1954) 880 13 35 71 83 290 702 979 1940 3370
2026-02-27 08:30 5.71 45 15500 (1997) 2 (1954) 880 13 35 71 83 290 702 979 1940 3370
2026-02-27 08:00 5.72 46 15500 (1997) 2 (1954) 880 13 35 71 83 290 702 979 1940 3370
2026-02-27 07:30 46 15500 (1997) 2 (1954) 880 13 35 71 83 290 702 979 1940 3370
2026-02-27 07:00 5.72 46 15500 (1997) 2 (1954) 880 13 35 71 83 290 702 979 1940 3370
2026-02-27 06:30 5.72 46 15500 (1997) 2 (1954) 880 13 35 71 83 290 702 979 1940 3370
2026-02-27 06:00 5.72 46 15500 (1997) 2 (1954) 880 13 35 71 83 290 702 979 1940 3370
2026-02-27 05:30 5.72 46 15500 (1997) 2 (1954) 880 13 35 71 83 290 702 979 1940 3370
2026-02-27 05:00 5.72 46 15500 (1997) 2 (1954) 880 13 35 71 83 290 702 979 1940 3370
2026-02-27 04:30 5.72 46 15500 (1997) 2 (1954) 880 13 35 71 83 290 702 979 1940 3370
2026-02-27 04:00 46 15500 (1997) 2 (1954) 880 13 35 71 83 290 702 979 1940 3370
2026-02-27 03:30 5.72 46 15500 (1997) 2 (1954) 880 13 35 71 83 290 702 979 1940 3370
2026-02-27 03:00 5.72 46 15500 (1997) 2 (1954) 880 13 35 71 83 290 702 979 1940 3370
2026-02-27 02:30 5.72 46 15500 (1997) 2 (1954) 880 13 35 71 83 290 702 979 1940 3370
2026-02-27 02:00 5.72 46 15500 (1997) 2 (1954) 880 13 35 71 83 290 702 979 1940 3370
2026-02-27 01:30 5.72 46 15500 (1997) 2 (1954) 880 13 35 71 83 290 702 979 1940 3370
2026-02-27 01:00 46 15500 (1997) 2 (1954) 880 13 35 71 83 290 702 979 1940 3370
2026-02-27 00:30 5.72 46 15500 (1997) 2 (1954) 880 13 35 71 83 290 702 979 1940 3370
2026-02-27 00:00 5.72 46 15500 (1997) 2 (1954) 880 13 35 71 83 290 702 979 1940 3370
2026-02-26 23:30 46 15500 (1997) 2 (1954) 880 13 35 71 83 290 702 979 1940 3370
2026-02-26 23:00 5.72 46 15500 (1997) 2 (1954) 880 13 35 71 83 290 702 979 1940 3370
2026-02-26 22:30 5.72 46 7800 (1936) 2 (1954) 823 22 36 64 88 235 744 986 2500 5510
2026-02-26 22:00 5.72 46 7800 (1936) 2 (1954) 823 22 36 64 88 235 744 986 2500 5510
2026-02-26 21:30 5.72 46 7800 (1936) 2 (1954) 823 22 36 64 88 235 744 986 2500 5510
2026-02-26 21:00 5.72 46 7800 (1936) 2 (1954) 823 22 36 64 88 235 744 986 2500 5510
2026-02-26 20:30 5.72 46 7800 (1936) 2 (1954) 823 22 36 64 88 235 744 986 2500 5510
2026-02-26 20:00 5.72 46 7800 (1936) 2 (1954) 823 22 36 64 88 235 744 986 2500 5510
2026-02-26 19:30 46 7800 (1936) 2 (1954) 823 22 36 64 88 235 744 986 2500 5510
2026-02-26 19:00 5.72 46 7800 (1936) 2 (1954) 823 22 36 64 88 235 744 986 2500 5510
2026-02-26 18:30 5.72 46 7800 (1936) 2 (1954) 823 22 36 64 88 235 744 986 2500 5510
2026-02-26 18:00 5.71 45 7800 (1936) 2 (1954) 823 22 36 64 88 235 744 986 2500 5510
2026-02-26 17:30 5.72 46 7800 (1936) 2 (1954) 823 22 36 64 88 235 744 986 2500 5510
2026-02-26 17:00 5.72 46 7800 (1936) 2 (1954) 823 22 36 64 88 235 744 986 2500 5510
2026-02-26 16:30 46 7800 (1936) 2 (1954) 823 22 36 64 88 235 744 986 2500 5510
2026-02-26 16:00 5.72 46 7800 (1936) 2 (1954) 823 22 36 64 88 235 744 986 2500 5510
2026-02-26 15:30 46 7800 (1936) 2 (1954) 823 22 36 64 88 235 744 986 2500 5510
2026-02-26 15:00 5.72 46 7800 (1936) 2 (1954) 823 22 36 64 88 235 744 986 2500 5510
2026-02-26 14:30 5.72 46 7800 (1936) 2 (1954) 823 22 36 64 88 235 744 986 2500 5510
2026-02-26 14:00 5.73 47 7800 (1936) 2 (1954) 823 22 36 64 88 235 744 986 2500 5510
2026-02-26 13:30 5.66 39 7800 (1936) 2 (1954) 823 22 36 64 88 235 744 986 2500 5510
2026-02-26 13:00 47 7800 (1936) 2 (1954) 823 22 36 64 88 235 744 986 2500 5510
2026-02-26 12:30 47 7800 (1936) 2 (1954) 823 22 36 64 88 235 744 986 2500 5510
2026-02-26 12:00 5.72 46 7800 (1936) 2 (1954) 823 22 36 64 88 235 744 986 2500 5510
2026-02-26 11:30 47 7800 (1936) 2 (1954) 823 22 36 64 88 235 744 986 2500 5510
2026-02-26 11:00 5.73 47 7800 (1936) 2 (1954) 823 22 36 64 88 235 744 986 2500 5510
2026-02-26 10:30 5.73 47 7800 (1936) 2 (1954) 823 22 36 64 88 235 744 986 2500 5510
2026-02-26 10:00 5.72 46 7800 (1936) 2 (1954) 823 22 36 64 88 235 744 986 2500 5510
2026-02-26 09:30 5.65 38 7800 (1936) 2 (1954) 823 22 36 64 88 235 744 986 2500 5510
2026-02-26 09:00 5.68 41 7800 (1936) 2 (1954) 823 22 36 64 88 235 744 986 2500 5510
2026-02-26 08:30 5.73 47 7800 (1936) 2 (1954) 823 22 36 64 88 235 744 986 2500 5510
2026-02-26 08:00 5.73 47 7800 (1936) 2 (1954) 823 22 36 64 88 235 744 986 2500 5510
2026-02-26 07:30 5.73 47 7800 (1936) 2 (1954) 823 22 36 64 88 235 744 986 2500 5510
2026-02-26 07:00 5.73 47 7800 (1936) 2 (1954) 823 22 36 64 88 235 744 986 2500 5510
2026-02-26 06:30 5.73 47 7800 (1936) 2 (1954) 823 22 36 64 88 235 744 986 2500 5510
2026-02-26 06:00 5.73 47 7800 (1936) 2 (1954) 823 22 36 64 88 235 744 986 2500 5510
2026-02-26 05:30 5.73 47 7800 (1936) 2 (1954) 823 22 36 64 88 235 744 986 2500 5510
2026-02-26 05:00 5.73 47 7800 (1936) 2 (1954) 823 22 36 64 88 235 744 986 2500 5510
2026-02-26 04:30 5.73 47 7800 (1936) 2 (1954) 823 22 36 64 88 235 744 986 2500 5510
2026-02-26 04:00 5.73 47 7800 (1936) 2 (1954) 823 22 36 64 88 235 744 986 2500 5510
2026-02-26 03:30 5.73 47 7800 (1936) 2 (1954) 823 22 36 64 88 235 744 986 2500 5510
2026-02-26 03:00 5.73 47 7800 (1936) 2 (1954) 823 22 36 64 88 235 744 986 2500 5510
2026-02-26 02:30 5.73 47 7800 (1936) 2 (1954) 823 22 36 64 88 235 744 986 2500 5510
2026-02-26 02:00 5.74 48 7800 (1936) 2 (1954) 823 22 36 64 88 235 744 986 2500 5510
2026-02-26 01:30 48 7800 (1936) 2 (1954) 823 22 36 64 88 235 744 986 2500 5510
2026-02-26 01:00 5.74 48 7800 (1936) 2 (1954) 823 22 36 64 88 235 744 986 2500 5510
2026-02-26 00:30 5.74 48 7800 (1936) 2 (1954) 823 22 36 64 88 235 744 986 2500 5510
2026-02-26 00:00 43 7800 (1936) 2 (1954) 823 22 36 64 88 235 744 986 2500 5510
2026-02-25 23:30 5.74 48 7800 (1936) 2 (1954) 823 22 36 64 88 235 744 986 2500 5510
2026-02-25 23:00 5.74 48 7800 (1936) 2 (1954) 823 22 36 64 88 235 744 986 2500 5510
2026-02-25 22:30 5.74 48 23000 (2001) 2 (1954) 1050 19 38 68 91 224 868 1020 2160 4250
2026-02-25 22:00 5.74 48 23000 (2001) 2 (1954) 1050 19 38 68 91 224 868 1020 2160 4250
2026-02-25 21:30 48 23000 (2001) 2 (1954) 1050 19 38 68 91 224 868 1020 2160 4250
2026-02-25 21:00 5.74 48 23000 (2001) 2 (1954) 1050 19 38 68 91 224 868 1020 2160 4250
2026-02-25 20:30 48 23000 (2001) 2 (1954) 1050 19 38 68 91 224 868 1020 2160 4250
2026-02-25 20:00 5.74 48 23000 (2001) 2 (1954) 1050 19 38 68 91 224 868 1020 2160 4250
2026-02-25 19:30 48 23000 (2001) 2 (1954) 1050 19 38 68 91 224 868 1020 2160 4250
2026-02-25 19:00 5.74 48 23000 (2001) 2 (1954) 1050 19 38 68 91 224 868 1020 2160 4250
2026-02-25 18:30 5.74 48 23000 (2001) 2 (1954) 1050 19 38 68 91 224 868 1020 2160 4250
2026-02-25 18:00 5.74 48 23000 (2001) 2 (1954) 1050 19 38 68 91 224 868 1020 2160 4250
2026-02-25 17:30 5.74 48 23000 (2001) 2 (1954) 1050 19 38 68 91 224 868 1020 2160 4250
2026-02-25 17:00 5.74 48 23000 (2001) 2 (1954) 1050 19 38 68 91 224 868 1020 2160 4250
2026-02-25 16:30 5.74 48 23000 (2001) 2 (1954) 1050 19 38 68 91 224 868 1020 2160 4250
2026-02-25 16:00 5.73 47 23000 (2001) 2 (1954) 1050 19 38 68 91 224 868 1020 2160 4250
2026-02-25 15:30 43 23000 (2001) 2 (1954) 1050 19 38 68 91 224 868 1020 2160 4250
2026-02-25 15:00 5.74 48 23000 (2001) 2 (1954) 1050 19 38 68 91 224 868 1020 2160 4250
2026-02-25 14:30 5.74 48 23000 (2001) 2 (1954) 1050 19 38 68 91 224 868 1020 2160 4250
2026-02-25 14:00 48 23000 (2001) 2 (1954) 1050 19 38 68 91 224 868 1020 2160 4250
2026-02-25 13:30 5.74 48 23000 (2001) 2 (1954) 1050 19 38 68 91 224 868 1020 2160 4250
2026-02-25 13:00 5.74 48 23000 (2001) 2 (1954) 1050 19 38 68 91 224 868 1020 2160 4250
2026-02-25 12:30 42 23000 (2001) 2 (1954) 1050 19 38 68 91 224 868 1020 2160 4250
2026-02-25 12:00 5.75 49 23000 (2001) 2 (1954) 1050 19 38 68 91 224 868 1020 2160 4250
2026-02-25 11:30 49 23000 (2001) 2 (1954) 1050 19 38 68 91 224 868 1020 2160 4250
2026-02-25 11:00 5.75 49 23000 (2001) 2 (1954) 1050 19 38 68 91 224 868 1020 2160 4250
2026-02-25 10:30 5.75 49 23000 (2001) 2 (1954) 1050 19 38 68 91 224 868 1020 2160 4250
2026-02-25 10:00 49 23000 (2001) 2 (1954) 1050 19 38 68 91 224 868 1020 2160 4250
2026-02-25 09:30 5.75 49 23000 (2001) 2 (1954) 1050 19 38 68 91 224 868 1020 2160 4250
2026-02-25 09:00 5.75 49 23000 (2001) 2 (1954) 1050 19 38 68 91 224 868 1020 2160 4250
2026-02-25 08:30 5.75 49 23000 (2001) 2 (1954) 1050 19 38 68 91 224 868 1020 2160 4250
2026-02-25 08:00 5.75 49 23000 (2001) 2 (1954) 1050 19 38 68 91 224 868 1020 2160 4250
2026-02-25 07:30 5.75 49 23000 (2001) 2 (1954) 1050 19 38 68 91 224 868 1020 2160 4250
2026-02-25 07:00 5.75 49 23000 (2001) 2 (1954) 1050 19 38 68 91 224 868 1020 2160 4250
2026-02-25 06:30 5.75 49 23000 (2001) 2 (1954) 1050 19 38 68 91 224 868 1020 2160 4250
2026-02-25 06:00 5.75 49 23000 (2001) 2 (1954) 1050 19 38 68 91 224 868 1020 2160 4250
2026-02-25 05:30 5.75 49 23000 (2001) 2 (1954) 1050 19 38 68 91 224 868 1020 2160 4250
2026-02-25 05:00 5.75 49 23000 (2001) 2 (1954) 1050 19 38 68 91 224 868 1020 2160 4250
2026-02-25 04:30 5.76 51 23000 (2001) 2 (1954) 1050 19 38 68 91 224 868 1020 2160 4250
2026-02-25 04:00 5.76 51 23000 (2001) 2 (1954) 1050 19 38 68 91 224 868 1020 2160 4250
2026-02-25 03:30 5.75 49 23000 (2001) 2 (1954) 1050 19 38 68 91 224 868 1020 2160 4250
2026-02-25 03:00 5.76 51 23000 (2001) 2 (1954) 1050 19 38 68 91 224 868 1020 2160 4250
2026-02-25 02:30 5.76 51 23000 (2001) 2 (1954) 1050 19 38 68 91 224 868 1020 2160 4250
2026-02-25 02:00 5.76 51 23000 (2001) 2 (1954) 1050 19 38 68 91 224 868 1020 2160 4250
2026-02-25 01:30 5.76 51 23000 (2001) 2 (1954) 1050 19 38 68 91 224 868 1020 2160 4250
2026-02-25 01:00 51 23000 (2001) 2 (1954) 1050 19 38 68 91 224 868 1020 2160 4250
2026-02-25 00:30 5.76 51 23000 (2001) 2 (1954) 1050 19 38 68 91 224 868 1020 2160 4250
2026-02-25 00:00 51 23000 (2001) 2 (1954) 1050 19 38 68 91 224 868 1020 2160 4250
2026-02-24 23:30 5.76 51 23000 (2001) 2 (1954) 1050 19 38 68 91 224 868 1020 2160 4250
2026-02-24 23:00 51 23000 (2001) 2 (1954) 1050 19 38 68 91 224 868 1020 2160 4250
2026-02-24 22:30 5.76 51 11300 (1985) 1 (1954) 778 15 36 62 93 237 872 1130 1850 2510
2026-02-24 22:00 5.76 51 11300 (1985) 1 (1954) 778 15 36 62 93 237 872 1130 1850 2510
2026-02-24 21:30 5.76 51 11300 (1985) 1 (1954) 778 15 36 62 93 237 872 1130 1850 2510
2026-02-24 21:00 5.76 51 11300 (1985) 1 (1954) 778 15 36 62 93 237 872 1130 1850 2510
2026-02-24 20:30 5.76 51 11300 (1985) 1 (1954) 778 15 36 62 93 237 872 1130 1850 2510
2026-02-24 20:00 51 11300 (1985) 1 (1954) 778 15 36 62 93 237 872 1130 1850 2510
2026-02-24 19:30 5.76 51 11300 (1985) 1 (1954) 778 15 36 62 93 237 872 1130 1850 2510
2026-02-24 19:00 51 11300 (1985) 1 (1954) 778 15 36 62 93 237 872 1130 1850 2510
2026-02-24 18:30 5.76 51 11300 (1985) 1 (1954) 778 15 36 62 93 237 872 1130 1850 2510
2026-02-24 18:00 5.76 51 11300 (1985) 1 (1954) 778 15 36 62 93 237 872 1130 1850 2510
2026-02-24 17:30 5.77 52 11300 (1985) 1 (1954) 778 15 36 62 93 237 872 1130 1850 2510
2026-02-24 17:00 5.76 51 11300 (1985) 1 (1954) 778 15 36 62 93 237 872 1130 1850 2510
2026-02-24 16:30 5.76 51 11300 (1985) 1 (1954) 778 15 36 62 93 237 872 1130 1850 2510
2026-02-24 16:00 5.72 46 11300 (1985) 1 (1954) 778 15 36 62 93 237 872 1130 1850 2510
2026-02-24 15:30 5.71 45 11300 (1985) 1 (1954) 778 15 36 62 93 237 872 1130 1850 2510
2026-02-24 15:00 5.71 45 11300 (1985) 1 (1954) 778 15 36 62 93 237 872 1130 1850 2510
2026-02-24 14:30 5.71 45 11300 (1985) 1 (1954) 778 15 36 62 93 237 872 1130 1850 2510
2026-02-24 14:00 5.71 45 11300 (1985) 1 (1954) 778 15 36 62 93 237 872 1130 1850 2510
2026-02-24 13:30 5.76 51 11300 (1985) 1 (1954) 778 15 36 62 93 237 872 1130 1850 2510
2026-02-24 13:00 5.73 47 11300 (1985) 1 (1954) 778 15 36 62 93 237 872 1130 1850 2510
2026-02-24 12:30 52 11300 (1985) 1 (1954) 778 15 36 62 93 237 872 1130 1850 2510
2026-02-24 12:00 5.77 52 11300 (1985) 1 (1954) 778 15 36 62 93 237 872 1130 1850 2510
2026-02-24 11:30 5.77 52 11300 (1985) 1 (1954) 778 15 36 62 93 237 872 1130 1850 2510
2026-02-24 11:00 5.78 53 11300 (1985) 1 (1954) 778 15 36 62 93 237 872 1130 1850 2510
2026-02-24 10:30 5.78 53 11300 (1985) 1 (1954) 778 15 36 62 93 237 872 1130 1850 2510
2026-02-24 10:00 5.78 53 11300 (1985) 1 (1954) 778 15 36 62 93 237 872 1130 1850 2510
2026-02-24 09:30 5.78 53 11300 (1985) 1 (1954) 778 15 36 62 93 237 872 1130 1850 2510
2026-02-24 09:00 53 11300 (1985) 1 (1954) 778 15 36 62 93 237 872 1130 1850 2510
2026-02-24 08:30 5.78 53 11300 (1985) 1 (1954) 778 15 36 62 93 237 872 1130 1850 2510
2026-02-24 08:00 5.78 53 11300 (1985) 1 (1954) 778 15 36 62 93 237 872 1130 1850 2510
2026-02-24 07:30 5.77 52 11300 (1985) 1 (1954) 778 15 36 62 93 237 872 1130 1850 2510
2026-02-24 07:00 5.73 47 11300 (1985) 1 (1954) 778 15 36 62 93 237 872 1130 1850 2510
2026-02-24 06:30 5.78 53 11300 (1985) 1 (1954) 778 15 36 62 93 237 872 1130 1850 2510
2026-02-24 06:00 5.78 53 11300 (1985) 1 (1954) 778 15 36 62 93 237 872 1130 1850 2510
2026-02-24 05:30 5.78 53 11300 (1985) 1 (1954) 778 15 36 62 93 237 872 1130 1850 2510
2026-02-24 05:00 5.78 53 11300 (1985) 1 (1954) 778 15 36 62 93 237 872 1130 1850 2510
2026-02-24 04:30 5.78 53 11300 (1985) 1 (1954) 778 15 36 62 93 237 872 1130 1850 2510
2026-02-24 04:00 5.78 53 11300 (1985) 1 (1954) 778 15 36 62 93 237 872 1130 1850 2510
2026-02-24 03:30 5.78 53 11300 (1985) 1 (1954) 778 15 36 62 93 237 872 1130 1850 2510
2026-02-24 03:00 5.78 53 11300 (1985) 1 (1954) 778 15 36 62 93 237 872 1130 1850 2510
2026-02-24 02:30 5.78 53 11300 (1985) 1 (1954) 778 15 36 62 93 237 872 1130 1850 2510
2026-02-24 02:00 53 11300 (1985) 1 (1954) 778 15 36 62 93 237 872 1130 1850 2510
2026-02-24 01:30 5.79 55 11300 (1985) 1 (1954) 778 15 36 62 93 237 872 1130 1850 2510
2026-02-24 01:00 55 11300 (1985) 1 (1954) 778 15 36 62 93 237 872 1130 1850 2510
2026-02-24 00:30 5.78 53 11300 (1985) 1 (1954) 778 15 36 62 93 237 872 1130 1850 2510
2026-02-24 00:00 5.79 55 11300 (1985) 1 (1954) 778 15 36 62 93 237 872 1130 1850 2510
2026-02-23 23:30 5.79 55 11300 (1985) 1 (1954) 778 15 36 62 93 237 872 1130 1850 2510
2026-02-23 23:00 5.77 52 11300 (1985) 1 (1954) 778 15 36 62 93 237 872 1130 1850 2510
2026-02-23 22:30 55 28300 (1985) 1 (1954) 1170 16 28 60 74 221 1070 1440 2630 4930
2026-02-23 22:00 5.79 55 28300 (1985) 1 (1954) 1170 16 28 60 74 221 1070 1440 2630 4930
2026-02-23 21:30 5.79 55 28300 (1985) 1 (1954) 1170 16 28 60 74 221 1070 1440 2630 4930
2026-02-23 21:00 5.79 55 28300 (1985) 1 (1954) 1170 16 28 60 74 221 1070 1440 2630 4930
2026-02-23 20:30 5.79 55 28300 (1985) 1 (1954) 1170 16 28 60 74 221 1070 1440 2630 4930
2026-02-23 20:00 5.79 55 28300 (1985) 1 (1954) 1170 16 28 60 74 221 1070 1440 2630 4930
2026-02-23 19:30 5.79 55 28300 (1985) 1 (1954) 1170 16 28 60 74 221 1070 1440 2630 4930
2026-02-23 19:00 5.79 55 28300 (1985) 1 (1954) 1170 16 28 60 74 221 1070 1440 2630 4930
2026-02-23 18:30 5.79 55 28300 (1985) 1 (1954) 1170 16 28 60 74 221 1070 1440 2630 4930
2026-02-23 18:00 5.79 55 28300 (1985) 1 (1954) 1170 16 28 60 74 221 1070 1440 2630 4930
2026-02-23 17:30 5.79 55 28300 (1985) 1 (1954) 1170 16 28 60 74 221 1070 1440 2630 4930
2026-02-23 17:00 5.79 55 28300 (1985) 1 (1954) 1170 16 28 60 74 221 1070 1440 2630 4930
2026-02-23 16:30 5.78 53 28300 (1985) 1 (1954) 1170 16 28 60 74 221 1070 1440 2630 4930
2026-02-23 16:00 55 28300 (1985) 1 (1954) 1170 16 28 60 74 221 1070 1440 2630 4930
2026-02-23 15:30 5.79 55 28300 (1985) 1 (1954) 1170 16 28 60 74 221 1070 1440 2630 4930
2026-02-23 15:00 49 28300 (1985) 1 (1954) 1170 16 28 60 74 221 1070 1440 2630 4930
2026-02-23 14:30 5.79 55 28300 (1985) 1 (1954) 1170 16 28 60 74 221 1070 1440 2630 4930
2026-02-23 14:00 5.80 56 28300 (1985) 1 (1954) 1170 16 28 60 74 221 1070 1440 2630 4930
2026-02-23 13:30 5.75 49 28300 (1985) 1 (1954) 1170 16 28 60 74 221 1070 1440 2630 4930
2026-02-23 13:00 5.78 53 28300 (1985) 1 (1954) 1170 16 28 60 74 221 1070 1440 2630 4930
2026-02-23 12:30 5.80 56 28300 (1985) 1 (1954) 1170 16 28 60 74 221 1070 1440 2630 4930
2026-02-23 12:00 5.80 56 28300 (1985) 1 (1954) 1170 16 28 60 74 221 1070 1440 2630 4930
2026-02-23 11:30 5.78 53 28300 (1985) 1 (1954) 1170 16 28 60 74 221 1070 1440 2630 4930
2026-02-23 11:00 56 28300 (1985) 1 (1954) 1170 16 28 60 74 221 1070 1440 2630 4930
2026-02-23 10:30 5.78 53 28300 (1985) 1 (1954) 1170 16 28 60 74 221 1070 1440 2630 4930
2026-02-23 10:00 5.76 51 28300 (1985) 1 (1954) 1170 16 28 60 74 221 1070 1440 2630 4930
2026-02-23 09:30 5.80 56 28300 (1985) 1 (1954) 1170 16 28 60 74 221 1070 1440 2630 4930
2026-02-23 09:00 5.73 47 28300 (1985) 1 (1954) 1170 16 28 60 74 221 1070 1440 2630 4930
2026-02-23 08:30 5.80 56 28300 (1985) 1 (1954) 1170 16 28 60 74 221 1070 1440 2630 4930
2026-02-23 08:00 5.81 57 28300 (1985) 1 (1954) 1170 16 28 60 74 221 1070 1440 2630 4930
2026-02-23 07:30 5.80 56 28300 (1985) 1 (1954) 1170 16 28 60 74 221 1070 1440 2630 4930
2026-02-23 07:00 5.81 57 28300 (1985) 1 (1954) 1170 16 28 60 74 221 1070 1440 2630 4930
2026-02-23 06:30 5.81 57 28300 (1985) 1 (1954) 1170 16 28 60 74 221 1070 1440 2630 4930
2026-02-23 06:00 5.75 49 28300 (1985) 1 (1954) 1170 16 28 60 74 221 1070 1440 2630 4930
2026-02-23 05:30 5.79 55 28300 (1985) 1 (1954) 1170 16 28 60 74 221 1070 1440 2630 4930
2026-02-23 05:00 5.78 53 28300 (1985) 1 (1954) 1170 16 28 60 74 221 1070 1440 2630 4930
2026-02-23 04:30 5.79 55 28300 (1985) 1 (1954) 1170 16 28 60 74 221 1070 1440 2630 4930
2026-02-23 04:00 5.81 57 28300 (1985) 1 (1954) 1170 16 28 60 74 221 1070 1440 2630 4930
2026-02-23 03:30 5.81 57 28300 (1985) 1 (1954) 1170 16 28 60 74 221 1070 1440 2630 4930
2026-02-23 03:00 5.78 53 28300 (1985) 1 (1954) 1170 16 28 60 74 221 1070 1440 2630 4930
2026-02-23 02:30 53 28300 (1985) 1 (1954) 1170 16 28 60 74 221 1070 1440 2630 4930
2026-02-23 02:00 5.74 48 28300 (1985) 1 (1954) 1170 16 28 60 74 221 1070 1440 2630 4930
2026-02-23 01:30 47 28300 (1985) 1 (1954) 1170 16 28 60 74 221 1070 1440 2630 4930
2026-02-23 01:00 5.75 49 28300 (1985) 1 (1954) 1170 16 28 60 74 221 1070 1440 2630 4930
2026-02-23 00:30 5.77 52 28300 (1985) 1 (1954) 1170 16 28 60 74 221 1070 1440 2630 4930
2026-02-23 00:00 5.81 57 28300 (1985) 1 (1954) 1170 16 28 60 74 221 1070 1440 2630 4930
2026-02-22 23:30 5.82 59 28300 (1985) 1 (1954) 1170 16 28 60 74 221 1070 1440 2630 4930
2026-02-22 23:00 5.82 59 28300 (1985) 1 (1954) 1170 16 28 60 74 221 1070 1440 2630 4930
2026-02-22 22:30 5.82 59 22400 (1985) 2 (1954) 1290 17 26 64 88 235 921 1120 3480 6930
2026-02-22 22:00 5.73 47 22400 (1985) 2 (1954) 1290 17 26 64 88 235 921 1120 3480 6930
2026-02-22 21:30 5.80 56 22400 (1985) 2 (1954) 1290 17 26 64 88 235 921 1120 3480 6930
2026-02-22 21:00 5.81 57 22400 (1985) 2 (1954) 1290 17 26 64 88 235 921 1120 3480 6930
2026-02-22 20:30 5.79 55 22400 (1985) 2 (1954) 1290 17 26 64 88 235 921 1120 3480 6930
2026-02-22 20:00 5.77 52 22400 (1985) 2 (1954) 1290 17 26 64 88 235 921 1120 3480 6930
2026-02-22 19:30 5.80 56 22400 (1985) 2 (1954) 1290 17 26 64 88 235 921 1120 3480 6930
2026-02-22 19:00 5.81 57 22400 (1985) 2 (1954) 1290 17 26 64 88 235 921 1120 3480 6930
2026-02-22 18:30 5.77 52 22400 (1985) 2 (1954) 1290 17 26 64 88 235 921 1120 3480 6930
2026-02-22 18:00 5.82 59 22400 (1985) 2 (1954) 1290 17 26 64 88 235 921 1120 3480 6930
2026-02-22 17:30 5.75 49 22400 (1985) 2 (1954) 1290 17 26 64 88 235 921 1120 3480 6930
2026-02-22 17:00 5.76 51 22400 (1985) 2 (1954) 1290 17 26 64 88 235 921 1120 3480 6930
2026-02-22 16:30 5.76 51 22400 (1985) 2 (1954) 1290 17 26 64 88 235 921 1120 3480 6930
2026-02-22 16:00 5.78 53 22400 (1985) 2 (1954) 1290 17 26 64 88 235 921 1120 3480 6930
2026-02-22 15:30 5.77 52 22400 (1985) 2 (1954) 1290 17 26 64 88 235 921 1120 3480 6930
2026-02-22 15:00 5.76 51 22400 (1985) 2 (1954) 1290 17 26 64 88 235 921 1120 3480 6930
2026-02-22 14:30 5.78 53 22400 (1985) 2 (1954) 1290 17 26 64 88 235 921 1120 3480 6930
2026-02-22 14:00 5.78 53 22400 (1985) 2 (1954) 1290 17 26 64 88 235 921 1120 3480 6930
2026-02-22 13:30 5.76 51 22400 (1985) 2 (1954) 1290 17 26 64 88 235 921 1120 3480 6930
2026-02-22 13:00 5.78 53 22400 (1985) 2 (1954) 1290 17 26 64 88 235 921 1120 3480 6930
2026-02-22 12:30 5.78 53 22400 (1985) 2 (1954) 1290 17 26 64 88 235 921 1120 3480 6930
2026-02-22 12:00 5.76 51 22400 (1985) 2 (1954) 1290 17 26 64 88 235 921 1120 3480 6930
2026-02-22 11:30 5.79 55 22400 (1985) 2 (1954) 1290 17 26 64 88 235 921 1120 3480 6930
2026-02-22 11:00 5.79 55 22400 (1985) 2 (1954) 1290 17 26 64 88 235 921 1120 3480 6930
2026-02-22 10:30 5.78 53 22400 (1985) 2 (1954) 1290 17 26 64 88 235 921 1120 3480 6930
2026-02-22 10:00 5.77 52 22400 (1985) 2 (1954) 1290 17 26 64 88 235 921 1120 3480 6930
2026-02-22 09:30 5.79 55 22400 (1985) 2 (1954) 1290 17 26 64 88 235 921 1120 3480 6930
2026-02-22 09:00 5.77 52 22400 (1985) 2 (1954) 1290 17 26 64 88 235 921 1120 3480 6930
2026-02-22 08:30 5.79 55 22400 (1985) 2 (1954) 1290 17 26 64 88 235 921 1120 3480 6930
2026-02-22 08:00 5.77 52 22400 (1985) 2 (1954) 1290 17 26 64 88 235 921 1120 3480 6930
2026-02-22 07:30 5.78 53 22400 (1985) 2 (1954) 1290 17 26 64 88 235 921 1120 3480 6930
2026-02-22 07:00 5.83 60 22400 (1985) 2 (1954) 1290 17 26 64 88 235 921 1120 3480 6930
2026-02-22 06:30 5.84 62 22400 (1985) 2 (1954) 1290 17 26 64 88 235 921 1120 3480 6930
2026-02-22 06:00 5.84 62 22400 (1985) 2 (1954) 1290 17 26 64 88 235 921 1120 3480 6930
2026-02-22 05:30 5.85 63 22400 (1985) 2 (1954) 1290 17 26 64 88 235 921 1120 3480 6930
2026-02-22 05:00 5.85 63 22400 (1985) 2 (1954) 1290 17 26 64 88 235 921 1120 3480 6930
2026-02-22 04:30 5.84 62 22400 (1985) 2 (1954) 1290 17 26 64 88 235 921 1120 3480 6930
2026-02-22 04:00 5.85 63 22400 (1985) 2 (1954) 1290 17 26 64 88 235 921 1120 3480 6930
2026-02-22 03:30 5.81 57 22400 (1985) 2 (1954) 1290 17 26 64 88 235 921 1120 3480 6930
2026-02-22 03:00 5.84 62 22400 (1985) 2 (1954) 1290 17 26 64 88 235 921 1120 3480 6930
2026-02-22 02:30 5.80 56 22400 (1985) 2 (1954) 1290 17 26 64 88 235 921 1120 3480 6930
2026-02-22 02:00 5.78 53 22400 (1985) 2 (1954) 1290 17 26 64 88 235 921 1120 3480 6930
2026-02-22 01:30 5.81 57 22400 (1985) 2 (1954) 1290 17 26 64 88 235 921 1120 3480 6930
2026-02-22 01:00 5.86 65 22400 (1985) 2 (1954) 1290 17 26 64 88 235 921 1120 3480 6930
2026-02-22 00:30 5.86 65 22400 (1985) 2 (1954) 1290 17 26 64 88 235 921 1120 3480 6930
2026-02-22 00:00 53 22400 (1985) 2 (1954) 1290 17 26 64 88 235 921 1120 3480 6930
2026-02-21 23:30 5.84 62 22400 (1985) 2 (1954) 1290 17 26 64 88 235 921 1120 3480 6930
2026-02-21 23:00 66 22400 (1985) 2 (1954) 1290 17 26 64 88 235 921 1120 3480 6930
2026-02-21 22:30 5.86 65 22600 (1951) 2 (1954) 1130 18 27 65 81 211 1120 1680 2780 4640
2026-02-21 22:00 5.86 65 22600 (1951) 2 (1954) 1130 18 27 65 81 211 1120 1680 2780 4640
2026-02-21 21:30 66 22600 (1951) 2 (1954) 1130 18 27 65 81 211 1120 1680 2780 4640
2026-02-21 21:00 5.87 66 22600 (1951) 2 (1954) 1130 18 27 65 81 211 1120 1680 2780 4640
2026-02-21 20:30 5.87 66 22600 (1951) 2 (1954) 1130 18 27 65 81 211 1120 1680 2780 4640
2026-02-21 20:00 5.87 66 22600 (1951) 2 (1954) 1130 18 27 65 81 211 1120 1680 2780 4640
2026-02-21 19:30 5.87 66 22600 (1951) 2 (1954) 1130 18 27 65 81 211 1120 1680 2780 4640
2026-02-21 19:00 5.87 66 22600 (1951) 2 (1954) 1130 18 27 65 81 211 1120 1680 2780 4640
2026-02-21 18:30 5.87 66 22600 (1951) 2 (1954) 1130 18 27 65 81 211 1120 1680 2780 4640
2026-02-21 18:00 5.87 66 22600 (1951) 2 (1954) 1130 18 27 65 81 211 1120 1680 2780 4640
2026-02-21 17:30 5.88 68 22600 (1951) 2 (1954) 1130 18 27 65 81 211 1120 1680 2780 4640
2026-02-21 17:00 5.85 63 22600 (1951) 2 (1954) 1130 18 27 65 81 211 1120 1680 2780 4640
2026-02-21 16:30 5.87 66 22600 (1951) 2 (1954) 1130 18 27 65 81 211 1120 1680 2780 4640
2026-02-21 16:00 5.84 62 22600 (1951) 2 (1954) 1130 18 27 65 81 211 1120 1680 2780 4640
2026-02-21 15:30 5.83 60 22600 (1951) 2 (1954) 1130 18 27 65 81 211 1120 1680 2780 4640
2026-02-21 15:00 5.84 62 22600 (1951) 2 (1954) 1130 18 27 65 81 211 1120 1680 2780 4640
2026-02-21 14:30 5.82 59 22600 (1951) 2 (1954) 1130 18 27 65 81 211 1120 1680 2780 4640
2026-02-21 14:00 5.83 60 22600 (1951) 2 (1954) 1130 18 27 65 81 211 1120 1680 2780 4640
2026-02-21 13:30 5.88 68 22600 (1951) 2 (1954) 1130 18 27 65 81 211 1120 1680 2780 4640
2026-02-21 13:00 5.82 59 22600 (1951) 2 (1954) 1130 18 27 65 81 211 1120 1680 2780 4640
2026-02-21 12:30 5.85 63 22600 (1951) 2 (1954) 1130 18 27 65 81 211 1120 1680 2780 4640
2026-02-21 12:00 5.83 60 22600 (1951) 2 (1954) 1130 18 27 65 81 211 1120 1680 2780 4640
2026-02-21 11:30 5.87 66 22600 (1951) 2 (1954) 1130 18 27 65 81 211 1120 1680 2780 4640
2026-02-21 11:00 5.89 69 22600 (1951) 2 (1954) 1130 18 27 65 81 211 1120 1680 2780 4640
2026-02-21 10:30 5.88 68 22600 (1951) 2 (1954) 1130 18 27 65 81 211 1120 1680 2780 4640
2026-02-21 10:00 5.89 69 22600 (1951) 2 (1954) 1130 18 27 65 81 211 1120 1680 2780 4640
2026-02-21 09:30 5.90 71 22600 (1951) 2 (1954) 1130 18 27 65 81 211 1120 1680 2780 4640
2026-02-21 09:00 5.90 71 22600 (1951) 2 (1954) 1130 18 27 65 81 211 1120 1680 2780 4640
2026-02-21 08:30 5.90 71 22600 (1951) 2 (1954) 1130 18 27 65 81 211 1120 1680 2780 4640
2026-02-21 08:00 5.90 71 22600 (1951) 2 (1954) 1130 18 27 65 81 211 1120 1680 2780 4640
2026-02-21 07:30 5.91 72 22600 (1951) 2 (1954) 1130 18 27 65 81 211 1120 1680 2780 4640
2026-02-21 07:00 5.91 72 22600 (1951) 2 (1954) 1130 18 27 65 81 211 1120 1680 2780 4640
2026-02-21 06:30 5.91 72 22600 (1951) 2 (1954) 1130 18 27 65 81 211 1120 1680 2780 4640
2026-02-21 06:00 5.91 72 22600 (1951) 2 (1954) 1130 18 27 65 81 211 1120 1680 2780 4640
2026-02-21 05:30 5.91 72 22600 (1951) 2 (1954) 1130 18 27 65 81 211 1120 1680 2780 4640
2026-02-21 05:00 5.91 72 22600 (1951) 2 (1954) 1130 18 27 65 81 211 1120 1680 2780 4640
2026-02-21 04:30 5.92 74 22600 (1951) 2 (1954) 1130 18 27 65 81 211 1120 1680 2780 4640
2026-02-21 04:00 5.92 74 22600 (1951) 2 (1954) 1130 18 27 65 81 211 1120 1680 2780 4640
2026-02-21 03:30 5.92 74 22600 (1951) 2 (1954) 1130 18 27 65 81 211 1120 1680 2780 4640
2026-02-21 03:00 5.92 74 22600 (1951) 2 (1954) 1130 18 27 65 81 211 1120 1680 2780 4640
2026-02-21 02:30 5.92 74 22600 (1951) 2 (1954) 1130 18 27 65 81 211 1120 1680 2780 4640
2026-02-21 02:00 74 22600 (1951) 2 (1954) 1130 18 27 65 81 211 1120 1680 2780 4640
2026-02-21 01:30 5.92 74 22600 (1951) 2 (1954) 1130 18 27 65 81 211 1120 1680 2780 4640
2026-02-21 01:00 74 22600 (1951) 2 (1954) 1130 18 27 65 81 211 1120 1680 2780 4640
2026-02-21 00:30 5.92 74 22600 (1951) 2 (1954) 1130 18 27 65 81 211 1120 1680 2780 4640
2026-02-21 00:00 5.92 74 22600 (1951) 2 (1954) 1130 18 27 65 81 211 1120 1680 2780 4640
2026-02-20 23:30 76 22600 (1951) 2 (1954) 1130 18 27 65 81 211 1120 1680 2780 4640
2026-02-20 23:00 5.93 76 22600 (1951) 2 (1954) 1130 18 27 65 81 211 1120 1680 2780 4640
2026-02-20 22:30 5.93 76 9050 (1951) 2 (1954) 903 20 26 68 93 205 835 1220 2610 5880
2026-02-20 22:00 5.93 76 9050 (1951) 2 (1954) 903 20 26 68 93 205 835 1220 2610 5880
2026-02-20 21:30 76 9050 (1951) 2 (1954) 903 20 26 68 93 205 835 1220 2610 5880
2026-02-20 21:00 5.93 76 9050 (1951) 2 (1954) 903 20 26 68 93 205 835 1220 2610 5880
2026-02-20 20:30 5.93 76 9050 (1951) 2 (1954) 903 20 26 68 93 205 835 1220 2610 5880
2026-02-20 20:00 76 9050 (1951) 2 (1954) 903 20 26 68 93 205 835 1220 2610 5880
2026-02-20 19:30 5.93 76 9050 (1951) 2 (1954) 903 20 26 68 93 205 835 1220 2610 5880
2026-02-20 19:00 5.93 76 9050 (1951) 2 (1954) 903 20 26 68 93 205 835 1220 2610 5880
2026-02-20 18:30 5.93 76 9050 (1951) 2 (1954) 903 20 26 68 93 205 835 1220 2610 5880
2026-02-20 18:00 5.94 77 9050 (1951) 2 (1954) 903 20 26 68 93 205 835 1220 2610 5880
2026-02-20 17:30 5.94 77 9050 (1951) 2 (1954) 903 20 26 68 93 205 835 1220 2610 5880
2026-02-20 17:00 5.87 66 9050 (1951) 2 (1954) 903 20 26 68 93 205 835 1220 2610 5880
2026-02-20 16:30 5.92 74 9050 (1951) 2 (1954) 903 20 26 68 93 205 835 1220 2610 5880
2026-02-20 16:00 5.90 71 9050 (1951) 2 (1954) 903 20 26 68 93 205 835 1220 2610 5880
2026-02-20 15:30 5.88 68 9050 (1951) 2 (1954) 903 20 26 68 93 205 835 1220 2610 5880
2026-02-20 15:00 5.91 72 9050 (1951) 2 (1954) 903 20 26 68 93 205 835 1220 2610 5880
2026-02-20 14:30 5.88 68 9050 (1951) 2 (1954) 903 20 26 68 93 205 835 1220 2610 5880
2026-02-20 14:00 5.91 72 9050 (1951) 2 (1954) 903 20 26 68 93 205 835 1220 2610 5880
2026-02-20 13:30 5.90 71 9050 (1951) 2 (1954) 903 20 26 68 93 205 835 1220 2610 5880
2026-02-20 13:00 71 9050 (1951) 2 (1954) 903 20 26 68 93 205 835 1220 2610 5880
2026-02-20 12:30 5.88 68 9050 (1951) 2 (1954) 903 20 26 68 93 205 835 1220 2610 5880
2026-02-20 12:00 5.90 71 9050 (1951) 2 (1954) 903 20 26 68 93 205 835 1220 2610 5880
2026-02-20 11:30 5.88 52 9050 (1951) 2 (1954) 903 20 26 68 93 205 835 1220 2610 5880
2026-02-20 11:00 5.89 53 9050 (1951) 2 (1954) 903 20 26 68 93 205 835 1220 2610 5880
2026-02-20 10:30 5.90 55 9050 (1951) 2 (1954) 903 20 26 68 93 205 835 1220 2610 5880
2026-02-20 10:00 5.88 52 9050 (1951) 2 (1954) 903 20 26 68 93 205 835 1220 2610 5880
2026-02-20 09:30 5.90 55 9050 (1951) 2 (1954) 903 20 26 68 93 205 835 1220 2610 5880
2026-02-20 09:00 5.89 53 9050 (1951) 2 (1954) 903 20 26 68 93 205 835 1220 2610 5880
2026-02-20 08:30 5.90 55 9050 (1951) 2 (1954) 903 20 26 68 93 205 835 1220 2610 5880
2026-02-20 08:00 5.89 53 9050 (1951) 2 (1954) 903 20 26 68 93 205 835 1220 2610 5880
2026-02-20 07:30 5.91 56 9050 (1951) 2 (1954) 903 20 26 68 93 205 835 1220 2610 5880
2026-02-20 07:00 5.92 57 9050 (1951) 2 (1954) 903 20 26 68 93 205 835 1220 2610 5880
2026-02-20 06:30 5.91 56 9050 (1951) 2 (1954) 903 20 26 68 93 205 835 1220 2610 5880
2026-02-20 06:00 5.89 53 9050 (1951) 2 (1954) 903 20 26 68 93 205 835 1220 2610 5880
2026-02-20 05:30 5.91 56 9050 (1951) 2 (1954) 903 20 26 68 93 205 835 1220 2610 5880
2026-02-20 05:00 5.88 52 9050 (1951) 2 (1954) 903 20 26 68 93 205 835 1220 2610 5880
2026-02-20 04:30 5.91 56 9050 (1951) 2 (1954) 903 20 26 68 93 205 835 1220 2610 5880
2026-02-20 04:00 5.89 53 9050 (1951) 2 (1954) 903 20 26 68 93 205 835 1220 2610 5880
2026-02-20 03:30 5.90 55 9050 (1951) 2 (1954) 903 20 26 68 93 205 835 1220 2610 5880
2026-02-20 03:00 5.91 56 9050 (1951) 2 (1954) 903 20 26 68 93 205 835 1220 2610 5880
2026-02-20 02:30 5.91 56 9050 (1951) 2 (1954) 903 20 26 68 93 205 835 1220 2610 5880
2026-02-20 02:00 5.90 55 9050 (1951) 2 (1954) 903 20 26 68 93 205 835 1220 2610 5880
2026-02-20 01:30 5.90 55 9050 (1951) 2 (1954) 903 20 26 68 93 205 835 1220 2610 5880
2026-02-20 01:00 5.89 53 9050 (1951) 2 (1954) 903 20 26 68 93 205 835 1220 2610 5880
2026-02-20 00:30 5.92 57 9050 (1951) 2 (1954) 903 20 26 68 93 205 835 1220 2610 5880
2026-02-20 00:00 5.92 57 9050 (1951) 2 (1954) 903 20 26 68 93 205 835 1220 2610 5880
2026-02-19 23:30 5.94 60 9050 (1951) 2 (1954) 903 20 26 68 93 205 835 1220 2610 5880
2026-02-19 23:00 5.94 60 9050 (1951) 2 (1954) 903 20 26 68 93 205 835 1220 2610 5880
2026-02-19 22:30 5.91 56 12300 (1951) 2 (1954) 1000 18 26 67 96 212 918 1610 3400 5510
2026-02-19 22:00 5.93 59 12300 (1951) 2 (1954) 1000 18 26 67 96 212 918 1610 3400 5510
2026-02-19 21:30 5.92 57 12300 (1951) 2 (1954) 1000 18 26 67 96 212 918 1610 3400 5510
2026-02-19 21:00 5.94 60 12300 (1951) 2 (1954) 1000 18 26 67 96 212 918 1610 3400 5510
2026-02-19 20:30 5.93 59 12300 (1951) 2 (1954) 1000 18 26 67 96 212 918 1610 3400 5510
2026-02-19 20:00 5.93 59 12300 (1951) 2 (1954) 1000 18 26 67 96 212 918 1610 3400 5510
2026-02-19 19:30 5.95 62 12300 (1951) 2 (1954) 1000 18 26 67 96 212 918 1610 3400 5510
2026-02-19 19:00 5.93 59 12300 (1951) 2 (1954) 1000 18 26 67 96 212 918 1610 3400 5510
2026-02-19 18:30 5.93 59 12300 (1951) 2 (1954) 1000 18 26 67 96 212 918 1610 3400 5510
2026-02-19 18:00 6.01 71 12300 (1951) 2 (1954) 1000 18 26 67 96 212 918 1610 3400 5510
2026-02-19 17:30 6.00 69 12300 (1951) 2 (1954) 1000 18 26 67 96 212 918 1610 3400 5510
2026-02-19 17:00 6.01 71 12300 (1951) 2 (1954) 1000 18 26 67 96 212 918 1610 3400 5510
2026-02-19 16:30 5.95 62 12300 (1951) 2 (1954) 1000 18 26 67 96 212 918 1610 3400 5510
2026-02-19 16:00 5.96 63 12300 (1951) 2 (1954) 1000 18 26 67 96 212 918 1610 3400 5510
2026-02-19 15:30 5.95 62 12300 (1951) 2 (1954) 1000 18 26 67 96 212 918 1610 3400 5510
2026-02-19 15:00 62 12300 (1951) 2 (1954) 1000 18 26 67 96 212 918 1610 3400 5510
2026-02-19 14:30 5.99 68 12300 (1951) 2 (1954) 1000 18 26 67 96 212 918 1610 3400 5510
2026-02-19 14:00 5.93 59 12300 (1951) 2 (1954) 1000 18 26 67 96 212 918 1610 3400 5510
2026-02-19 13:30 5.92 57 12300 (1951) 2 (1954) 1000 18 26 67 96 212 918 1610 3400 5510
2026-02-19 13:00 6.02 72 12300 (1951) 2 (1954) 1000 18 26 67 96 212 918 1610 3400 5510
2026-02-19 12:30 60 12300 (1951) 2 (1954) 1000 18 26 67 96 212 918 1610 3400 5510
2026-02-19 12:00 6.01 71 12300 (1951) 2 (1954) 1000 18 26 67 96 212 918 1610 3400 5510
2026-02-19 11:30 6.02 72 12300 (1951) 2 (1954) 1000 18 26 67 96 212 918 1610 3400 5510
2026-02-19 11:00 6.02 72 12300 (1951) 2 (1954) 1000 18 26 67 96 212 918 1610 3400 5510
2026-02-19 10:30 6.02 72 12300 (1951) 2 (1954) 1000 18 26 67 96 212 918 1610 3400 5510
2026-02-19 10:00 6.02 72 12300 (1951) 2 (1954) 1000 18 26 67 96 212 918 1610 3400 5510
2026-02-19 09:30 6.03 74 12300 (1951) 2 (1954) 1000 18 26 67 96 212 918 1610 3400 5510
2026-02-19 09:00 5.99 68 12300 (1951) 2 (1954) 1000 18 26 67 96 212 918 1610 3400 5510
2026-02-19 08:30 6.03 74 12300 (1951) 2 (1954) 1000 18 26 67 96 212 918 1610 3400 5510
2026-02-19 08:00 6.03 74 12300 (1951) 2 (1954) 1000 18 26 67 96 212 918 1610 3400 5510
2026-02-19 07:30 6.03 74 12300 (1951) 2 (1954) 1000 18 26 67 96 212 918 1610 3400 5510
2026-02-19 07:00 6.03 74 12300 (1951) 2 (1954) 1000 18 26 67 96 212 918 1610 3400 5510
2026-02-19 06:30 6.04 76 12300 (1951) 2 (1954) 1000 18 26 67 96 212 918 1610 3400 5510
2026-02-19 06:00 6.03 74 12300 (1951) 2 (1954) 1000 18 26 67 96 212 918 1610 3400 5510
2026-02-19 05:30 6.04 76 12300 (1951) 2 (1954) 1000 18 26 67 96 212 918 1610 3400 5510
2026-02-19 05:00 6.04 76 12300 (1951) 2 (1954) 1000 18 26 67 96 212 918 1610 3400 5510
2026-02-19 04:30 6.04 76 12300 (1951) 2 (1954) 1000 18 26 67 96 212 918 1610 3400 5510
2026-02-19 04:00 6.04 76 12300 (1951) 2 (1954) 1000 18 26 67 96 212 918 1610 3400 5510
2026-02-19 03:30 6.03 74 12300 (1951) 2 (1954) 1000 18 26 67 96 212 918 1610 3400 5510
2026-02-19 03:00 6.03 74 12300 (1951) 2 (1954) 1000 18 26 67 96 212 918 1610 3400 5510
2026-02-19 02:30 6.04 76 12300 (1951) 2 (1954) 1000 18 26 67 96 212 918 1610 3400 5510
2026-02-19 02:00 6.04 76 12300 (1951) 2 (1954) 1000 18 26 67 96 212 918 1610 3400 5510
2026-02-19 01:30 6.04 76 12300 (1951) 2 (1954) 1000 18 26 67 96 212 918 1610 3400 5510
2026-02-19 01:00 6.04 76 12300 (1951) 2 (1954) 1000 18 26 67 96 212 918 1610 3400 5510
2026-02-19 00:30 6.04 76 12300 (1951) 2 (1954) 1000 18 26 67 96 212 918 1610 3400 5510
2026-02-19 00:00 6.04 76 12300 (1951) 2 (1954) 1000 18 26 67 96 212 918 1610 3400 5510
2026-02-18 23:30 6.04 76 12300 (1951) 2 (1954) 1000 18 26 67 96 212 918 1610 3400 5510
2026-02-18 23:00 6.05 77 12300 (1951) 2 (1954) 1000 18 26 67 96 212 918 1610 3400 5510
2026-02-18 22:30 6.05 77 10000 (1926) 2 (1954) 979 12 24 61 89 199 594 910 4080 5900
2026-02-18 22:00 6.05 77 10000 (1926) 2 (1954) 979 12 24 61 89 199 594 910 4080 5900
2026-02-18 21:30 6.05 77 10000 (1926) 2 (1954) 979 12 24 61 89 199 594 910 4080 5900
2026-02-18 21:00 6.05 77 10000 (1926) 2 (1954) 979 12 24 61 89 199 594 910 4080 5900
2026-02-18 20:30 6.05 77 10000 (1926) 2 (1954) 979 12 24 61 89 199 594 910 4080 5900
2026-02-18 20:00 6.05 77 10000 (1926) 2 (1954) 979 12 24 61 89 199 594 910 4080 5900
2026-02-18 19:30 6.04 76 10000 (1926) 2 (1954) 979 12 24 61 89 199 594 910 4080 5900
2026-02-18 19:00 6.04 76 10000 (1926) 2 (1954) 979 12 24 61 89 199 594 910 4080 5900
2026-02-18 18:30 6.04 76 10000 (1926) 2 (1954) 979 12 24 61 89 199 594 910 4080 5900
2026-02-18 18:00 6.04 76 10000 (1926) 2 (1954) 979 12 24 61 89 199 594 910 4080 5900
2026-02-18 17:30 6.04 76 10000 (1926) 2 (1954) 979 12 24 61 89 199 594 910 4080 5900
2026-02-18 17:00 6.04 76 10000 (1926) 2 (1954) 979 12 24 61 89 199 594 910 4080 5900
2026-02-18 16:30 6.04 76 10000 (1926) 2 (1954) 979 12 24 61 89 199 594 910 4080 5900
2026-02-18 16:00 6.04 76 10000 (1926) 2 (1954) 979 12 24 61 89 199 594 910 4080 5900
2026-02-18 15:30 6.05 77 10000 (1926) 2 (1954) 979 12 24 61 89 199 594 910 4080 5900
2026-02-18 15:00 5.99 68 10000 (1926) 2 (1954) 979 12 24 61 89 199 594 910 4080 5900
2026-02-18 14:30 5.98 66 10000 (1926) 2 (1954) 979 12 24 61 89 199 594 910 4080 5900
2026-02-18 14:00 6.01 71 10000 (1926) 2 (1954) 979 12 24 61 89 199 594 910 4080 5900
2026-02-18 13:30 6.02 72 10000 (1926) 2 (1954) 979 12 24 61 89 199 594 910 4080 5900
2026-02-18 13:00 72 10000 (1926) 2 (1954) 979 12 24 61 89 199 594 910 4080 5900
2026-02-18 12:30 5.97 65 10000 (1926) 2 (1954) 979 12 24 61 89 199 594 910 4080 5900
2026-02-18 12:00 5.98 66 10000 (1926) 2 (1954) 979 12 24 61 89 199 594 910 4080 5900
2026-02-18 11:30 6.01 71 10000 (1926) 2 (1954) 979 12 24 61 89 199 594 910 4080 5900
2026-02-18 11:00 66 10000 (1926) 2 (1954) 979 12 24 61 89 199 594 910 4080 5900
2026-02-18 10:30 5.98 66 10000 (1926) 2 (1954) 979 12 24 61 89 199 594 910 4080 5900
2026-02-18 10:00 5.97 65 10000 (1926) 2 (1954) 979 12 24 61 89 199 594 910 4080 5900
2026-02-18 08:30 5.96 63 10000 (1926) 2 (1954) 979 12 24 61 89 199 594 910 4080 5900
2026-02-18 08:00 5.99 68 10000 (1926) 2 (1954) 979 12 24 61 89 199 594 910 4080 5900
2026-02-18 07:30 6.03 74 10000 (1926) 2 (1954) 979 12 24 61 89 199 594 910 4080 5900
2026-02-18 07:00 6.02 72 10000 (1926) 2 (1954) 979 12 24 61 89 199 594 910 4080 5900
2026-02-18 06:30 5.98 66 10000 (1926) 2 (1954) 979 12 24 61 89 199 594 910 4080 5900
2026-02-18 06:00 6.00 69 10000 (1926) 2 (1954) 979 12 24 61 89 199 594 910 4080 5900
2026-02-18 05:30 6.00 69 10000 (1926) 2 (1954) 979 12 24 61 89 199 594 910 4080 5900
2026-02-18 05:00 5.98 66 10000 (1926) 2 (1954) 979 12 24 61 89 199 594 910 4080 5900
2026-02-18 04:30 5.97 65 10000 (1926) 2 (1954) 979 12 24 61 89 199 594 910 4080 5900
2026-02-18 04:00 6.01 71 10000 (1926) 2 (1954) 979 12 24 61 89 199 594 910 4080 5900
2026-02-18 03:30 6.01 71 10000 (1926) 2 (1954) 979 12 24 61 89 199 594 910 4080 5900
2026-02-18 03:00 5.99 68 10000 (1926) 2 (1954) 979 12 24 61 89 199 594 910 4080 5900
2026-02-18 02:30 5.95 62 10000 (1926) 2 (1954) 979 12 24 61 89 199 594 910 4080 5900
2026-02-18 02:00 5.99 68 10000 (1926) 2 (1954) 979 12 24 61 89 199 594 910 4080 5900
2026-02-18 01:30 6.01 71 10000 (1926) 2 (1954) 979 12 24 61 89 199 594 910 4080 5900
2026-02-18 01:00 6.01 71 10000 (1926) 2 (1954) 979 12 24 61 89 199 594 910 4080 5900
2026-02-18 00:30 6.01 71 10000 (1926) 2 (1954) 979 12 24 61 89 199 594 910 4080 5900
2026-02-18 00:00 6.01 71 10000 (1926) 2 (1954) 979 12 24 61 89 199 594 910 4080 5900
2026-02-17 23:30 6.01 71 10000 (1926) 2 (1954) 979 12 24 61 89 199 594 910 4080 5900
2026-02-17 23:00 6.00 69 10000 (1926) 2 (1954) 979 12 24 61 89 199 594 910 4080 5900
2026-02-17 22:30 6.00 69 11500 (2011) 2 (1954) 802 11 21 54 76 212 608 764 2260 4280
2026-02-17 22:00 6.00 69 11500 (2011) 2 (1954) 802 11 21 54 76 212 608 764 2260 4280
2026-02-17 21:30 6.00 69 11500 (2011) 2 (1954) 802 11 21 54 76 212 608 764 2260 4280
2026-02-17 21:00 5.99 68 11500 (2011) 2 (1954) 802 11 21 54 76 212 608 764 2260 4280
2026-02-17 20:30 6.00 69 11500 (2011) 2 (1954) 802 11 21 54 76 212 608 764 2260 4280
2026-02-17 20:00 5.99 68 11500 (2011) 2 (1954) 802 11 21 54 76 212 608 764 2260 4280
2026-02-17 19:30 5.97 65 11500 (2011) 2 (1954) 802 11 21 54 76 212 608 764 2260 4280
2026-02-17 19:00 5.99 68 11500 (2011) 2 (1954) 802 11 21 54 76 212 608 764 2260 4280
2026-02-17 18:30 5.99 68 11500 (2011) 2 (1954) 802 11 21 54 76 212 608 764 2260 4280
2026-02-17 18:00 5.98 66 11500 (2011) 2 (1954) 802 11 21 54 76 212 608 764 2260 4280
2026-02-17 17:30 5.98 66 11500 (2011) 2 (1954) 802 11 21 54 76 212 608 764 2260 4280
2026-02-17 17:00 5.94 60 11500 (2011) 2 (1954) 802 11 21 54 76 212 608 764 2260 4280
2026-02-17 16:30 5.97 65 11500 (2011) 2 (1954) 802 11 21 54 76 212 608 764 2260 4280
2026-02-17 16:00 5.96 63 11500 (2011) 2 (1954) 802 11 21 54 76 212 608 764 2260 4280
2026-02-17 15:30 5.96 63 11500 (2011) 2 (1954) 802 11 21 54 76 212 608 764 2260 4280
2026-02-17 15:00 5.94 60 11500 (2011) 2 (1954) 802 11 21 54 76 212 608 764 2260 4280
2026-02-17 14:30 5.95 62 11500 (2011) 2 (1954) 802 11 21 54 76 212 608 764 2260 4280
2026-02-17 14:00 52 11500 (2011) 2 (1954) 802 11 21 54 76 212 608 764 2260 4280
2026-02-17 13:30 5.93 59 11500 (2011) 2 (1954) 802 11 21 54 76 212 608 764 2260 4280
2026-02-17 13:00 5.89 53 11500 (2011) 2 (1954) 802 11 21 54 76 212 608 764 2260 4280
2026-02-17 12:30 5.91 56 11500 (2011) 2 (1954) 802 11 21 54 76 212 608 764 2260 4280
2026-02-17 12:00 5.90 55 11500 (2011) 2 (1954) 802 11 21 54 76 212 608 764 2260 4280
2026-02-17 11:30 5.89 53 11500 (2011) 2 (1954) 802 11 21 54 76 212 608 764 2260 4280
2026-02-17 11:00 5.86 49 11500 (2011) 2 (1954) 802 11 21 54 76 212 608 764 2260 4280
2026-02-17 10:30 5.87 51 11500 (2011) 2 (1954) 802 11 21 54 76 212 608 764 2260 4280
2026-02-17 10:00 5.87 51 11500 (2011) 2 (1954) 802 11 21 54 76 212 608 764 2260 4280
2026-02-17 09:30 5.86 49 11500 (2011) 2 (1954) 802 11 21 54 76 212 608 764 2260 4280
2026-02-17 09:00 5.86 49 11500 (2011) 2 (1954) 802 11 21 54 76 212 608 764 2260 4280
2026-02-17 08:30 5.85 48 11500 (2011) 2 (1954) 802 11 21 54 76 212 608 764 2260 4280
2026-02-17 08:00 5.85 48 11500 (2011) 2 (1954) 802 11 21 54 76 212 608 764 2260 4280
2026-02-17 07:30 5.85 48 11500 (2011) 2 (1954) 802 11 21 54 76 212 608 764 2260 4280
2026-02-17 07:00 5.85 48 11500 (2011) 2 (1954) 802 11 21 54 76 212 608 764 2260 4280
2026-02-17 06:30 5.84 11500 (2011) 2 (1954) 802 11 21 54 76 212 608 764 2260 4280
2026-02-17 06:00 5.84 11500 (2011) 2 (1954) 802 11 21 54 76 212 608 764 2260 4280
2026-02-17 05:30 5.84 11500 (2011) 2 (1954) 802 11 21 54 76 212 608 764 2260 4280
2026-02-17 05:00 5.84 11500 (2011) 2 (1954) 802 11 21 54 76 212 608 764 2260 4280
2026-02-17 04:30 5.84 11500 (2011) 2 (1954) 802 11 21 54 76 212 608 764 2260 4280
2026-02-17 04:00 5.84 11500 (2011) 2 (1954) 802 11 21 54 76 212 608 764 2260 4280
2026-02-17 03:30 5.84 11500 (2011) 2 (1954) 802 11 21 54 76 212 608 764 2260 4280
2026-02-17 03:00 5.83 11500 (2011) 2 (1954) 802 11 21 54 76 212 608 764 2260 4280
2026-02-17 02:30 5.83 11500 (2011) 2 (1954) 802 11 21 54 76 212 608 764 2260 4280
2026-02-17 02:00 5.83 11500 (2011) 2 (1954) 802 11 21 54 76 212 608 764 2260 4280
2026-02-17 01:30 5.83 11500 (2011) 2 (1954) 802 11 21 54 76 212 608 764 2260 4280
2026-02-17 01:00 5.83 11500 (2011) 2 (1954) 802 11 21 54 76 212 608 764 2260 4280
2026-02-17 00:30 5.83 11500 (2011) 2 (1954) 802 11 21 54 76 212 608 764 2260 4280
2026-02-17 00:00 5.83 11500 (2011) 2 (1954) 802 11 21 54 76 212 608 764 2260 4280
2026-02-16 23:30 5.83 11500 (2011) 2 (1954) 802 11 21 54 76 212 608 764 2260 4280
2026-02-16 23:00 5.83 11500 (2011) 2 (1954) 802 11 21 54 76 212 608 764 2260 4280
2026-02-16 22:30 5.83 6870 (1982) 2 (1954) 626 12 18 53 70 200 560 657 1210 4690
2026-02-16 22:00 5.83 6870 (1982) 2 (1954) 626 12 18 53 70 200 560 657 1210 4690
2026-02-16 21:30 5.82 6870 (1982) 2 (1954) 626 12 18 53 70 200 560 657 1210 4690
2026-02-16 21:00 5.82 6870 (1982) 2 (1954) 626 12 18 53 70 200 560 657 1210 4690
2026-02-16 20:30 5.82 6870 (1982) 2 (1954) 626 12 18 53 70 200 560 657 1210 4690
2026-02-16 20:00 5.82 6870 (1982) 2 (1954) 626 12 18 53 70 200 560 657 1210 4690
2026-02-16 19:30 5.82 6870 (1982) 2 (1954) 626 12 18 53 70 200 560 657 1210 4690
2026-02-16 19:00 5.82 6870 (1982) 2 (1954) 626 12 18 53 70 200 560 657 1210 4690
2026-02-16 18:30 5.82 6870 (1982) 2 (1954) 626 12 18 53 70 200 560 657 1210 4690
2026-02-16 18:00 5.82 6870 (1982) 2 (1954) 626 12 18 53 70 200 560 657 1210 4690
2026-02-16 17:30 5.82 6870 (1982) 2 (1954) 626 12 18 53 70 200 560 657 1210 4690
2026-02-16 17:00 5.82 6870 (1982) 2 (1954) 626 12 18 53 70 200 560 657 1210 4690
2026-02-16 16:30 5.82 6870 (1982) 2 (1954) 626 12 18 53 70 200 560 657 1210 4690
2026-02-16 16:00 5.82 6870 (1982) 2 (1954) 626 12 18 53 70 200 560 657 1210 4690
2026-02-16 15:30 5.82 6870 (1982) 2 (1954) 626 12 18 53 70 200 560 657 1210 4690
2026-02-16 15:00 5.82 6870 (1982) 2 (1954) 626 12 18 53 70 200 560 657 1210 4690
2026-02-16 14:30 5.82 6870 (1982) 2 (1954) 626 12 18 53 70 200 560 657 1210 4690
2026-02-16 14:00 5.81 6870 (1982) 2 (1954) 626 12 18 53 70 200 560 657 1210 4690
2026-02-16 13:30 5.82 6870 (1982) 2 (1954) 626 12 18 53 70 200 560 657 1210 4690
2026-02-16 13:00 5.76 6870 (1982) 2 (1954) 626 12 18 53 70 200 560 657 1210 4690
2026-02-16 12:30 5.82 6870 (1982) 2 (1954) 626 12 18 53 70 200 560 657 1210 4690
2026-02-16 12:00 5.78 6870 (1982) 2 (1954) 626 12 18 53 70 200 560 657 1210 4690
2026-02-16 11:30 5.82 6870 (1982) 2 (1954) 626 12 18 53 70 200 560 657 1210 4690
2026-02-16 11:00 5.82 6870 (1982) 2 (1954) 626 12 18 53 70 200 560 657 1210 4690
2026-02-16 10:30 5.82 6870 (1982) 2 (1954) 626 12 18 53 70 200 560 657 1210 4690
2026-02-16 10:00 5.82 6870 (1982) 2 (1954) 626 12 18 53 70 200 560 657 1210 4690
2026-02-16 09:30 5.82 6870 (1982) 2 (1954) 626 12 18 53 70 200 560 657 1210 4690
2026-02-16 09:00 5.82 6870 (1982) 2 (1954) 626 12 18 53 70 200 560 657 1210 4690
2026-02-16 08:30 5.82 6870 (1982) 2 (1954) 626 12 18 53 70 200 560 657 1210 4690
2026-02-16 08:00 5.82 6870 (1982) 2 (1954) 626 12 18 53 70 200 560 657 1210 4690
2026-02-16 07:30 5.82 6870 (1982) 2 (1954) 626 12 18 53 70 200 560 657 1210 4690
2026-02-16 07:00 5.82 6870 (1982) 2 (1954) 626 12 18 53 70 200 560 657 1210 4690
2026-02-16 06:30 5.82 6870 (1982) 2 (1954) 626 12 18 53 70 200 560 657 1210 4690
2026-02-16 06:00 5.82 6870 (1982) 2 (1954) 626 12 18 53 70 200 560 657 1210 4690
2026-02-16 05:30 5.82 6870 (1982) 2 (1954) 626 12 18 53 70 200 560 657 1210 4690
2026-02-16 05:00 5.82 6870 (1982) 2 (1954) 626 12 18 53 70 200 560 657 1210 4690
2026-02-16 04:30 5.82 6870 (1982) 2 (1954) 626 12 18 53 70 200 560 657 1210 4690
2026-02-16 04:00 5.82 6870 (1982) 2 (1954) 626 12 18 53 70 200 560 657 1210 4690
2026-02-16 03:30 5.81 6870 (1982) 2 (1954) 626 12 18 53 70 200 560 657 1210 4690
2026-02-16 03:00 5.81 6870 (1982) 2 (1954) 626 12 18 53 70 200 560 657 1210 4690
2026-02-16 02:30 5.81 6870 (1982) 2 (1954) 626 12 18 53 70 200 560 657 1210 4690
2026-02-16 02:00 5.81 6870 (1982) 2 (1954) 626 12 18 53 70 200 560 657 1210 4690
2026-02-16 01:30 5.81 6870 (1982) 2 (1954) 626 12 18 53 70 200 560 657 1210 4690
2026-02-16 01:00 5.81 6870 (1982) 2 (1954) 626 12 18 53 70 200 560 657 1210 4690
2026-02-16 00:30 5.81 6870 (1982) 2 (1954) 626 12 18 53 70 200 560 657 1210 4690
2026-02-16 00:00 5.81 6870 (1982) 2 (1954) 626 12 18 53 70 200 560 657 1210 4690
2026-02-15 23:30 5.81 6870 (1982) 2 (1954) 626 12 18 53 70 200 560 657 1210 4690
2026-02-15 23:00 5.81 6870 (1982) 2 (1954) 626 12 18 53 70 200 560 657 1210 4690
2026-02-15 22:30 5.81 4510 (1949) 2 (1954) 543 12 15 53 64 191 600 682 1190 3410
2026-02-15 22:00 5.80 4510 (1949) 2 (1954) 543 12 15 53 64 191 600 682 1190 3410
2026-02-15 21:30 5.80 4510 (1949) 2 (1954) 543 12 15 53 64 191 600 682 1190 3410
2026-02-15 21:00 5.80 4510 (1949) 2 (1954) 543 12 15 53 64 191 600 682 1190 3410
2026-02-15 20:30 5.80 4510 (1949) 2 (1954) 543 12 15 53 64 191 600 682 1190 3410
2026-02-15 20:00 5.80 4510 (1949) 2 (1954) 543 12 15 53 64 191 600 682 1190 3410
2026-02-15 19:30 5.80 4510 (1949) 2 (1954) 543 12 15 53 64 191 600 682 1190 3410
2026-02-15 19:00 5.79 4510 (1949) 2 (1954) 543 12 15 53 64 191 600 682 1190 3410
2026-02-15 18:30 5.79 4510 (1949) 2 (1954) 543 12 15 53 64 191 600 682 1190 3410
2026-02-15 18:00 5.79 4510 (1949) 2 (1954) 543 12 15 53 64 191 600 682 1190 3410
2026-02-15 17:30 5.79 4510 (1949) 2 (1954) 543 12 15 53 64 191 600 682 1190 3410
2026-02-15 17:00 5.79 4510 (1949) 2 (1954) 543 12 15 53 64 191 600 682 1190 3410
2026-02-15 16:30 5.79 4510 (1949) 2 (1954) 543 12 15 53 64 191 600 682 1190 3410
2026-02-15 16:00 5.79 4510 (1949) 2 (1954) 543 12 15 53 64 191 600 682 1190 3410
2026-02-15 15:30 5.79 4510 (1949) 2 (1954) 543 12 15 53 64 191 600 682 1190 3410
2026-02-15 15:00 5.79 4510 (1949) 2 (1954) 543 12 15 53 64 191 600 682 1190 3410
2026-02-15 14:30 5.80 4510 (1949) 2 (1954) 543 12 15 53 64 191 600 682 1190 3410
2026-02-15 14:00 5.79 4510 (1949) 2 (1954) 543 12 15 53 64 191 600 682 1190 3410
2026-02-15 13:30 5.79 4510 (1949) 2 (1954) 543 12 15 53 64 191 600 682 1190 3410
2026-02-15 13:00 5.78 4510 (1949) 2 (1954) 543 12 15 53 64 191 600 682 1190 3410
2026-02-15 12:30 5.76 4510 (1949) 2 (1954) 543 12 15 53 64 191 600 682 1190 3410
2026-02-15 12:00 5.78 4510 (1949) 2 (1954) 543 12 15 53 64 191 600 682 1190 3410
2026-02-15 11:30 5.78 4510 (1949) 2 (1954) 543 12 15 53 64 191 600 682 1190 3410
2026-02-15 11:00 5.75 4510 (1949) 2 (1954) 543 12 15 53 64 191 600 682 1190 3410
2026-02-15 10:30 5.78 4510 (1949) 2 (1954) 543 12 15 53 64 191 600 682 1190 3410
2026-02-15 10:00 5.78 4510 (1949) 2 (1954) 543 12 15 53 64 191 600 682 1190 3410
2026-02-15 09:30 5.77 4510 (1949) 2 (1954) 543 12 15 53 64 191 600 682 1190 3410
2026-02-15 09:00 5.77 4510 (1949) 2 (1954) 543 12 15 53 64 191 600 682 1190 3410
2026-02-15 08:30 5.77 4510 (1949) 2 (1954) 543 12 15 53 64 191 600 682 1190 3410
2026-02-15 08:00 5.76 4510 (1949) 2 (1954) 543 12 15 53 64 191 600 682 1190 3410
2026-02-15 07:30 5.76 4510 (1949) 2 (1954) 543 12 15 53 64 191 600 682 1190 3410
2026-02-15 07:00 5.75 4510 (1949) 2 (1954) 543 12 15 53 64 191 600 682 1190 3410
2026-02-15 06:30 5.75 4510 (1949) 2 (1954) 543 12 15 53 64 191 600 682 1190 3410
2026-02-15 06:00 5.75 4510 (1949) 2 (1954) 543 12 15 53 64 191 600 682 1190 3410
2026-02-15 05:30 5.75 4510 (1949) 2 (1954) 543 12 15 53 64 191 600 682 1190 3410
2026-02-15 05:00 5.75 4510 (1949) 2 (1954) 543 12 15 53 64 191 600 682 1190 3410
2026-02-15 04:30 5.74 4510 (1949) 2 (1954) 543 12 15 53 64 191 600 682 1190 3410
2026-02-15 04:00 5.74 4510 (1949) 2 (1954) 543 12 15 53 64 191 600 682 1190 3410
2026-02-15 03:30 5.74 4510 (1949) 2 (1954) 543 12 15 53 64 191 600 682 1190 3410
2026-02-15 03:00 5.73 4510 (1949) 2 (1954) 543 12 15 53 64 191 600 682 1190 3410
2026-02-15 02:30 5.73 4510 (1949) 2 (1954) 543 12 15 53 64 191 600 682 1190 3410
2026-02-15 02:00 5.73 4510 (1949) 2 (1954) 543 12 15 53 64 191 600 682 1190 3410
2026-02-15 01:30 5.73 4510 (1949) 2 (1954) 543 12 15 53 64 191 600 682 1190 3410
2026-02-15 01:00 5.73 4510 (1949) 2 (1954) 543 12 15 53 64 191 600 682 1190 3410
2026-02-15 00:30 5.72 4510 (1949) 2 (1954) 543 12 15 53 64 191 600 682 1190 3410
2026-02-15 00:00 5.72 4510 (1949) 2 (1954) 543 12 15 53 64 191 600 682 1190 3410
2026-02-14 23:30 5.71 4510 (1949) 2 (1954) 543 12 15 53 64 191 600 682 1190 3410
2026-02-14 23:00 5.69 4510 (1949) 2 (1954) 543 12 15 53 64 191 600 682 1190 3410
2026-02-14 22:30 5.69 13700 (2005) 1 (1954) 605 10 14 26 55 173 654 938 1500 2220
2026-02-14 22:00 5.65 13700 (2005) 1 (1954) 605 10 14 26 55 173 654 938 1500 2220
2026-02-14 21:30 5.70 13700 (2005) 1 (1954) 605 10 14 26 55 173 654 938 1500 2220
2026-02-14 21:00 5.70 13700 (2005) 1 (1954) 605 10 14 26 55 173 654 938 1500 2220
2026-02-14 20:30 5.69 13700 (2005) 1 (1954) 605 10 14 26 55 173 654 938 1500 2220
2026-02-14 20:00 5.68 13700 (2005) 1 (1954) 605 10 14 26 55 173 654 938 1500 2220
2026-02-14 19:30 5.66 13700 (2005) 1 (1954) 605 10 14 26 55 173 654 938 1500 2220
2026-02-14 19:00 5.68 13700 (2005) 1 (1954) 605 10 14 26 55 173 654 938 1500 2220
2026-02-14 18:30 5.67 13700 (2005) 1 (1954) 605 10 14 26 55 173 654 938 1500 2220
2026-02-14 18:00 5.68 13700 (2005) 1 (1954) 605 10 14 26 55 173 654 938 1500 2220
2026-02-14 17:30 5.67 13700 (2005) 1 (1954) 605 10 14 26 55 173 654 938 1500 2220
2026-02-14 17:00 5.66 13700 (2005) 1 (1954) 605 10 14 26 55 173 654 938 1500 2220
2026-02-14 16:30 5.66 13700 (2005) 1 (1954) 605 10 14 26 55 173 654 938 1500 2220
2026-02-14 16:00 5.66 13700 (2005) 1 (1954) 605 10 14 26 55 173 654 938 1500 2220
2026-02-14 15:30 5.65 13700 (2005) 1 (1954) 605 10 14 26 55 173 654 938 1500 2220
2026-02-14 15:00 5.65 13700 (2005) 1 (1954) 605 10 14 26 55 173 654 938 1500 2220
2026-02-14 14:30 5.65 13700 (2005) 1 (1954) 605 10 14 26 55 173 654 938 1500 2220
2026-02-14 14:00 5.65 13700 (2005) 1 (1954) 605 10 14 26 55 173 654 938 1500 2220
2026-02-14 13:30 5.65 13700 (2005) 1 (1954) 605 10 14 26 55 173 654 938 1500 2220
2026-02-14 13:00 5.65 13700 (2005) 1 (1954) 605 10 14 26 55 173 654 938 1500 2220
2026-02-14 12:30 5.65 13700 (2005) 1 (1954) 605 10 14 26 55 173 654 938 1500 2220
2026-02-14 12:00 5.65 13700 (2005) 1 (1954) 605 10 14 26 55 173 654 938 1500 2220
2026-02-14 11:30 5.66 13700 (2005) 1 (1954) 605 10 14 26 55 173 654 938 1500 2220
2026-02-14 11:00 5.66 13700 (2005) 1 (1954) 605 10 14 26 55 173 654 938 1500 2220
2026-02-14 10:30 5.66 13700 (2005) 1 (1954) 605 10 14 26 55 173 654 938 1500 2220
2026-02-14 10:00 5.66 13700 (2005) 1 (1954) 605 10 14 26 55 173 654 938 1500 2220
2026-02-14 09:30 5.66 13700 (2005) 1 (1954) 605 10 14 26 55 173 654 938 1500 2220
2026-02-14 09:00 5.66 13700 (2005) 1 (1954) 605 10 14 26 55 173 654 938 1500 2220
2026-02-14 08:30 5.66 13700 (2005) 1 (1954) 605 10 14 26 55 173 654 938 1500 2220
2026-02-14 08:00 5.66 13700 (2005) 1 (1954) 605 10 14 26 55 173 654 938 1500 2220
2026-02-14 07:30 5.66 13700 (2005) 1 (1954) 605 10 14 26 55 173 654 938 1500 2220
2026-02-14 07:00 5.66 13700 (2005) 1 (1954) 605 10 14 26 55 173 654 938 1500 2220
2026-02-14 06:30 5.66 13700 (2005) 1 (1954) 605 10 14 26 55 173 654 938 1500 2220
2026-02-14 06:00 5.66 13700 (2005) 1 (1954) 605 10 14 26 55 173 654 938 1500 2220
2026-02-14 05:30 5.66 13700 (2005) 1 (1954) 605 10 14 26 55 173 654 938 1500 2220
2026-02-14 05:00 5.66 13700 (2005) 1 (1954) 605 10 14 26 55 173 654 938 1500 2220
2026-02-14 04:30 5.66 13700 (2005) 1 (1954) 605 10 14 26 55 173 654 938 1500 2220
2026-02-14 04:00 5.67 13700 (2005) 1 (1954) 605 10 14 26 55 173 654 938 1500 2220
2026-02-14 03:30 5.67 13700 (2005) 1 (1954) 605 10 14 26 55 173 654 938 1500 2220
2026-02-14 03:00 5.67 13700 (2005) 1 (1954) 605 10 14 26 55 173 654 938 1500 2220
2026-02-14 02:30 5.67 13700 (2005) 1 (1954) 605 10 14 26 55 173 654 938 1500 2220
2026-02-14 02:00 5.67 13700 (2005) 1 (1954) 605 10 14 26 55 173 654 938 1500 2220
2026-02-14 01:30 5.66 13700 (2005) 1 (1954) 605 10 14 26 55 173 654 938 1500 2220
2026-02-14 01:00 5.66 13700 (2005) 1 (1954) 605 10 14 26 55 173 654 938 1500 2220
2026-02-14 00:30 5.66 13700 (2005) 1 (1954) 605 10 14 26 55 173 654 938 1500 2220
2026-02-14 00:00 13700 (2005) 1 (1954) 605 10 14 26 55 173 654 938 1500 2220
2026-02-13 23:30 5.66 13700 (2005) 1 (1954) 605 10 14 26 55 173 654 938 1500 2220
2026-02-13 23:00 13700 (2005) 1 (1954) 605 10 14 26 55 173 654 938 1500 2220
2026-02-13 22:30 5.67 8440 (2005) 1 (1954) 617 10 16 27 62 195 574 942 2040 2940
2026-02-13 22:00 5.68 8440 (2005) 1 (1954) 617 10 16 27 62 195 574 942 2040 2940
2026-02-13 21:30 5.68 8440 (2005) 1 (1954) 617 10 16 27 62 195 574 942 2040 2940
2026-02-13 21:00 5.68 8440 (2005) 1 (1954) 617 10 16 27 62 195 574 942 2040 2940
2026-02-13 20:30 5.68 8440 (2005) 1 (1954) 617 10 16 27 62 195 574 942 2040 2940
2026-02-13 20:00 5.67 8440 (2005) 1 (1954) 617 10 16 27 62 195 574 942 2040 2940
2026-02-13 19:30 5.67 8440 (2005) 1 (1954) 617 10 16 27 62 195 574 942 2040 2940
2026-02-13 19:00 5.67 8440 (2005) 1 (1954) 617 10 16 27 62 195 574 942 2040 2940
2026-02-13 18:30 5.67 8440 (2005) 1 (1954) 617 10 16 27 62 195 574 942 2040 2940
2026-02-13 18:00 5.67 8440 (2005) 1 (1954) 617 10 16 27 62 195 574 942 2040 2940
2026-02-13 17:30 5.67 8440 (2005) 1 (1954) 617 10 16 27 62 195 574 942 2040 2940
2026-02-13 17:00 5.67 8440 (2005) 1 (1954) 617 10 16 27 62 195 574 942 2040 2940
2026-02-13 16:30 5.67 8440 (2005) 1 (1954) 617 10 16 27 62 195 574 942 2040 2940
2026-02-13 16:00 5.66 8440 (2005) 1 (1954) 617 10 16 27 62 195 574 942 2040 2940
2026-02-13 15:30 5.67 8440 (2005) 1 (1954) 617 10 16 27 62 195 574 942 2040 2940
2026-02-13 15:00 5.66 8440 (2005) 1 (1954) 617 10 16 27 62 195 574 942 2040 2940
2026-02-13 14:30 5.67 8440 (2005) 1 (1954) 617 10 16 27 62 195 574 942 2040 2940
2026-02-13 14:00 5.67 8440 (2005) 1 (1954) 617 10 16 27 62 195 574 942 2040 2940
2026-02-13 13:30 5.66 8440 (2005) 1 (1954) 617 10 16 27 62 195 574 942 2040 2940
2026-02-13 13:00 5.66 8440 (2005) 1 (1954) 617 10 16 27 62 195 574 942 2040 2940
2026-02-13 12:30 5.67 8440 (2005) 1 (1954) 617 10 16 27 62 195 574 942 2040 2940
2026-02-13 12:00 5.67 8440 (2005) 1 (1954) 617 10 16 27 62 195 574 942 2040 2940
2026-02-13 11:30 5.67 8440 (2005) 1 (1954) 617 10 16 27 62 195 574 942 2040 2940
2026-02-13 11:00 5.66 8440 (2005) 1 (1954) 617 10 16 27 62 195 574 942 2040 2940
2026-02-13 10:30 5.66 8440 (2005) 1 (1954) 617 10 16 27 62 195 574 942 2040 2940
2026-02-13 10:00 5.66 8440 (2005) 1 (1954) 617 10 16 27 62 195 574 942 2040 2940
2026-02-13 09:30 5.66 8440 (2005) 1 (1954) 617 10 16 27 62 195 574 942 2040 2940
2026-02-13 09:00 5.66 8440 (2005) 1 (1954) 617 10 16 27 62 195 574 942 2040 2940
2026-02-13 08:30 5.69 8440 (2005) 1 (1954) 617 10 16 27 62 195 574 942 2040 2940
2026-02-13 08:00 5.68 8440 (2005) 1 (1954) 617 10 16 27 62 195 574 942 2040 2940
2026-02-13 07:30 5.67 8440 (2005) 1 (1954) 617 10 16 27 62 195 574 942 2040 2940
2026-02-13 07:00 5.68 8440 (2005) 1 (1954) 617 10 16 27 62 195 574 942 2040 2940
2026-02-13 06:30 8440 (2005) 1 (1954) 617 10 16 27 62 195 574 942 2040 2940
2026-02-13 06:00 8440 (2005) 1 (1954) 617 10 16 27 62 195 574 942 2040 2940
2026-02-13 05:30 8440 (2005) 1 (1954) 617 10 16 27 62 195 574 942 2040 2940
2026-02-13 05:00 8440 (2005) 1 (1954) 617 10 16 27 62 195 574 942 2040 2940
2026-02-13 04:30 8440 (2005) 1 (1954) 617 10 16 27 62 195 574 942 2040 2940
2026-02-13 04:00 8440 (2005) 1 (1954) 617 10 16 27 62 195 574 942 2040 2940
2026-02-13 03:30 8440 (2005) 1 (1954) 617 10 16 27 62 195 574 942 2040 2940
2026-02-13 03:00 8440 (2005) 1 (1954) 617 10 16 27 62 195 574 942 2040 2940
2026-02-13 02:30 8440 (2005) 1 (1954) 617 10 16 27 62 195 574 942 2040 2940
2026-02-13 02:00 8440 (2005) 1 (1954) 617 10 16 27 62 195 574 942 2040 2940
2026-02-13 01:30 8440 (2005) 1 (1954) 617 10 16 27 62 195 574 942 2040 2940
2026-02-13 01:00 8440 (2005) 1 (1954) 617 10 16 27 62 195 574 942 2040 2940
2026-02-13 00:30 8440 (2005) 1 (1954) 617 10 16 27 62 195 574 942 2040 2940
2026-02-13 00:00 8440 (2005) 1 (1954) 617 10 16 27 62 195 574 942 2040 2940
2026-02-12 23:30 8440 (2005) 1 (1954) 617 10 16 27 62 195 574 942 2040 2940
2026-02-12 23:00 8440 (2005) 1 (1954) 617 10 16 27 62 195 574 942 2040 2940
2026-02-12 22:30 10800 (1998) 1 (1954) 619 10 16 22 54 175 460 516 1620 3550
2026-02-12 22:00 10800 (1998) 1 (1954) 619 10 16 22 54 175 460 516 1620 3550
2026-02-12 21:30 10800 (1998) 1 (1954) 619 10 16 22 54 175 460 516 1620 3550
2026-02-12 21:00 10800 (1998) 1 (1954) 619 10 16 22 54 175 460 516 1620 3550
2026-02-12 20:30 10800 (1998) 1 (1954) 619 10 16 22 54 175 460 516 1620 3550
2026-02-12 20:00 10800 (1998) 1 (1954) 619 10 16 22 54 175 460 516 1620 3550
2026-02-12 19:30 10800 (1998) 1 (1954) 619 10 16 22 54 175 460 516 1620 3550
2026-02-12 19:00 10800 (1998) 1 (1954) 619 10 16 22 54 175 460 516 1620 3550
2026-02-12 18:30 10800 (1998) 1 (1954) 619 10 16 22 54 175 460 516 1620 3550
2026-02-12 18:00 10800 (1998) 1 (1954) 619 10 16 22 54 175 460 516 1620 3550
2026-02-12 17:30 10800 (1998) 1 (1954) 619 10 16 22 54 175 460 516 1620 3550
2026-02-12 17:00 10800 (1998) 1 (1954) 619 10 16 22 54 175 460 516 1620 3550
2026-02-12 16:30 10800 (1998) 1 (1954) 619 10 16 22 54 175 460 516 1620 3550
2026-02-12 16:00 10800 (1998) 1 (1954) 619 10 16 22 54 175 460 516 1620 3550
2026-02-12 15:30 10800 (1998) 1 (1954) 619 10 16 22 54 175 460 516 1620 3550
2026-02-12 15:00 10800 (1998) 1 (1954) 619 10 16 22 54 175 460 516 1620 3550
2026-02-12 14:30 10800 (1998) 1 (1954) 619 10 16 22 54 175 460 516 1620 3550
2026-02-12 14:00 10800 (1998) 1 (1954) 619 10 16 22 54 175 460 516 1620 3550
2026-02-12 13:30 10800 (1998) 1 (1954) 619 10 16 22 54 175 460 516 1620 3550
2026-02-12 13:00 10800 (1998) 1 (1954) 619 10 16 22 54 175 460 516 1620 3550
2026-02-12 12:30 10800 (1998) 1 (1954) 619 10 16 22 54 175 460 516 1620 3550
2026-02-12 12:00 10800 (1998) 1 (1954) 619 10 16 22 54 175 460 516 1620 3550
2026-02-12 11:30 10800 (1998) 1 (1954) 619 10 16 22 54 175 460 516 1620 3550
2026-02-12 11:00 10800 (1998) 1 (1954) 619 10 16 22 54 175 460 516 1620 3550
2026-02-12 10:30 10800 (1998) 1 (1954) 619 10 16 22 54 175 460 516 1620 3550
2026-02-12 10:00 10800 (1998) 1 (1954) 619 10 16 22 54 175 460 516 1620 3550
2026-02-12 09:30 10800 (1998) 1 (1954) 619 10 16 22 54 175 460 516 1620 3550
2026-02-12 09:00 10800 (1998) 1 (1954) 619 10 16 22 54 175 460 516 1620 3550
2026-02-12 08:30 10800 (1998) 1 (1954) 619 10 16 22 54 175 460 516 1620 3550
2026-02-12 08:00 10800 (1998) 1 (1954) 619 10 16 22 54 175 460 516 1620 3550
2026-02-12 07:30 10800 (1998) 1 (1954) 619 10 16 22 54 175 460 516 1620 3550
2026-02-12 07:00 10800 (1998) 1 (1954) 619 10 16 22 54 175 460 516 1620 3550
2026-02-12 06:30 10800 (1998) 1 (1954) 619 10 16 22 54 175 460 516 1620 3550
2026-02-12 06:00 10800 (1998) 1 (1954) 619 10 16 22 54 175 460 516 1620 3550
2026-02-12 05:30 10800 (1998) 1 (1954) 619 10 16 22 54 175 460 516 1620 3550
2026-02-12 05:00 10800 (1998) 1 (1954) 619 10 16 22 54 175 460 516 1620 3550
2026-02-12 04:30 10800 (1998) 1 (1954) 619 10 16 22 54 175 460 516 1620 3550
2026-02-12 04:00 10800 (1998) 1 (1954) 619 10 16 22 54 175 460 516 1620 3550
2026-02-12 03:30 10800 (1998) 1 (1954) 619 10 16 22 54 175 460 516 1620 3550
2026-02-12 03:00 10800 (1998) 1 (1954) 619 10 16 22 54 175 460 516 1620 3550
2026-02-12 02:30 10800 (1998) 1 (1954) 619 10 16 22 54 175 460 516 1620 3550
2026-02-12 02:00 10800 (1998) 1 (1954) 619 10 16 22 54 175 460 516 1620 3550
2026-02-12 01:30 10800 (1998) 1 (1954) 619 10 16 22 54 175 460 516 1620 3550
2026-02-12 01:00 10800 (1998) 1 (1954) 619 10 16 22 54 175 460 516 1620 3550
2026-02-12 00:30 10800 (1998) 1 (1954) 619 10 16 22 54 175 460 516 1620 3550
2026-02-12 00:00 10800 (1998) 1 (1954) 619 10 16 22 54 175 460 516 1620 3550
2026-02-11 23:30 10800 (1998) 1 (1954) 619 10 16 22 54 175 460 516 1620 3550
2026-02-11 23:00 10800 (1998) 1 (1954) 619 10 16 22 54 175 460 516 1620 3550
2026-02-11 22:30 10800 (1959) 2 (1954) 631 10 15 22 33 173 451 663 1530 3410
2026-02-11 22:00 10800 (1959) 2 (1954) 631 10 15 22 33 173 451 663 1530 3410
2026-02-11 21:30 10800 (1959) 2 (1954) 631 10 15 22 33 173 451 663 1530 3410
2026-02-11 21:00 10800 (1959) 2 (1954) 631 10 15 22 33 173 451 663 1530 3410
2026-02-11 20:30 10800 (1959) 2 (1954) 631 10 15 22 33 173 451 663 1530 3410
2026-02-11 20:00 10800 (1959) 2 (1954) 631 10 15 22 33 173 451 663 1530 3410
2026-02-11 19:30 10800 (1959) 2 (1954) 631 10 15 22 33 173 451 663 1530 3410
2026-02-11 19:00 10800 (1959) 2 (1954) 631 10 15 22 33 173 451 663 1530 3410
2026-02-11 18:30 10800 (1959) 2 (1954) 631 10 15 22 33 173 451 663 1530 3410
2026-02-11 18:00 10800 (1959) 2 (1954) 631 10 15 22 33 173 451 663 1530 3410
2026-02-11 17:30 10800 (1959) 2 (1954) 631 10 15 22 33 173 451 663 1530 3410
2026-02-11 17:00 10800 (1959) 2 (1954) 631 10 15 22 33 173 451 663 1530 3410
2026-02-11 16:30 10800 (1959) 2 (1954) 631 10 15 22 33 173 451 663 1530 3410
2026-02-11 16:00 10800 (1959) 2 (1954) 631 10 15 22 33 173 451 663 1530 3410
2026-02-11 15:30 10800 (1959) 2 (1954) 631 10 15 22 33 173 451 663 1530 3410
2026-02-11 15:00 10800 (1959) 2 (1954) 631 10 15 22 33 173 451 663 1530 3410
2026-02-11 14:30 10800 (1959) 2 (1954) 631 10 15 22 33 173 451 663 1530 3410
2026-02-11 14:00 10800 (1959) 2 (1954) 631 10 15 22 33 173 451 663 1530 3410
2026-02-11 13:30 10800 (1959) 2 (1954) 631 10 15 22 33 173 451 663 1530 3410
2026-02-11 13:00 10800 (1959) 2 (1954) 631 10 15 22 33 173 451 663 1530 3410
2026-02-11 12:30 10800 (1959) 2 (1954) 631 10 15 22 33 173 451 663 1530 3410
2026-02-11 12:00 10800 (1959) 2 (1954) 631 10 15 22 33 173 451 663 1530 3410
2026-02-11 11:30 10800 (1959) 2 (1954) 631 10 15 22 33 173 451 663 1530 3410
2026-02-11 11:00 10800 (1959) 2 (1954) 631 10 15 22 33 173 451 663 1530 3410
2026-02-11 10:30 10800 (1959) 2 (1954) 631 10 15 22 33 173 451 663 1530 3410
2026-02-11 10:00 10800 (1959) 2 (1954) 631 10 15 22 33 173 451 663 1530 3410
2026-02-11 09:30 10800 (1959) 2 (1954) 631 10 15 22 33 173 451 663 1530 3410
2026-02-11 09:00 10800 (1959) 2 (1954) 631 10 15 22 33 173 451 663 1530 3410
2026-02-11 08:30 10800 (1959) 2 (1954) 631 10 15 22 33 173 451 663 1530 3410
2026-02-11 08:00 10800 (1959) 2 (1954) 631 10 15 22 33 173 451 663 1530 3410
2026-02-11 07:30 10800 (1959) 2 (1954) 631 10 15 22 33 173 451 663 1530 3410
2026-02-11 07:00 10800 (1959) 2 (1954) 631 10 15 22 33 173 451 663 1530 3410
2026-02-11 06:30 10800 (1959) 2 (1954) 631 10 15 22 33 173 451 663 1530 3410
2026-02-11 06:00 10800 (1959) 2 (1954) 631 10 15 22 33 173 451 663 1530 3410
2026-02-11 05:30 10800 (1959) 2 (1954) 631 10 15 22 33 173 451 663 1530 3410
2026-02-11 05:00 10800 (1959) 2 (1954) 631 10 15 22 33 173 451 663 1530 3410
2026-02-11 04:30 10800 (1959) 2 (1954) 631 10 15 22 33 173 451 663 1530 3410
2026-02-11 04:00 10800 (1959) 2 (1954) 631 10 15 22 33 173 451 663 1530 3410
2026-02-11 03:30 10800 (1959) 2 (1954) 631 10 15 22 33 173 451 663 1530 3410
2026-02-11 03:00 10800 (1959) 2 (1954) 631 10 15 22 33 173 451 663 1530 3410
2026-02-11 02:30 10800 (1959) 2 (1954) 631 10 15 22 33 173 451 663 1530 3410
2026-02-11 02:00 10800 (1959) 2 (1954) 631 10 15 22 33 173 451 663 1530 3410
2026-02-11 01:30 10800 (1959) 2 (1954) 631 10 15 22 33 173 451 663 1530 3410
2026-02-11 01:00 10800 (1959) 2 (1954) 631 10 15 22 33 173 451 663 1530 3410
2026-02-11 00:30 10800 (1959) 2 (1954) 631 10 15 22 33 173 451 663 1530 3410
2026-02-11 00:00 10800 (1959) 2 (1954) 631 10 15 22 33 173 451 663 1530 3410
2026-02-10 23:30 10800 (1959) 2 (1954) 631 10 15 22 33 173 451 663 1530 3410
2026-02-10 23:00 10800 (1959) 2 (1954) 631 10 15 22 33 173 451 663 1530 3410
2026-02-10 22:30 15600 (1959) 2 (1954) 988 10 14 22 39 155 522 615 1860 6730
2026-02-10 22:00 15600 (1959) 2 (1954) 988 10 14 22 39 155 522 615 1860 6730
2026-02-10 21:30 15600 (1959) 2 (1954) 988 10 14 22 39 155 522 615 1860 6730
2026-02-10 21:00 15600 (1959) 2 (1954) 988 10 14 22 39 155 522 615 1860 6730
2026-02-10 20:30 15600 (1959) 2 (1954) 988 10 14 22 39 155 522 615 1860 6730
2026-02-10 20:00 15600 (1959) 2 (1954) 988 10 14 22 39 155 522 615 1860 6730
2026-02-10 19:30 15600 (1959) 2 (1954) 988 10 14 22 39 155 522 615 1860 6730
2026-02-10 19:00 15600 (1959) 2 (1954) 988 10 14 22 39 155 522 615 1860 6730
2026-02-10 18:30 15600 (1959) 2 (1954) 988 10 14 22 39 155 522 615 1860 6730
2026-02-10 18:00 15600 (1959) 2 (1954) 988 10 14 22 39 155 522 615 1860 6730
2026-02-10 17:30 15600 (1959) 2 (1954) 988 10 14 22 39 155 522 615 1860 6730
2026-02-10 17:00 15600 (1959) 2 (1954) 988 10 14 22 39 155 522 615 1860 6730
2026-02-10 16:30 15600 (1959) 2 (1954) 988 10 14 22 39 155 522 615 1860 6730
2026-02-10 16:00 15600 (1959) 2 (1954) 988 10 14 22 39 155 522 615 1860 6730
2026-02-10 15:30 15600 (1959) 2 (1954) 988 10 14 22 39 155 522 615 1860 6730
2026-02-10 15:00 15600 (1959) 2 (1954) 988 10 14 22 39 155 522 615 1860 6730
2026-02-10 14:30 15600 (1959) 2 (1954) 988 10 14 22 39 155 522 615 1860 6730
2026-02-10 14:00 15600 (1959) 2 (1954) 988 10 14 22 39 155 522 615 1860 6730
2026-02-10 13:30 15600 (1959) 2 (1954) 988 10 14 22 39 155 522 615 1860 6730
2026-02-10 13:00 15600 (1959) 2 (1954) 988 10 14 22 39 155 522 615 1860 6730
2026-02-10 12:30 15600 (1959) 2 (1954) 988 10 14 22 39 155 522 615 1860 6730
2026-02-10 12:00 15600 (1959) 2 (1954) 988 10 14 22 39 155 522 615 1860 6730
2026-02-10 11:30 15600 (1959) 2 (1954) 988 10 14 22 39 155 522 615 1860 6730
2026-02-10 11:00 15600 (1959) 2 (1954) 988 10 14 22 39 155 522 615 1860 6730
2026-02-10 10:30 15600 (1959) 2 (1954) 988 10 14 22 39 155 522 615 1860 6730
2026-02-10 10:00 15600 (1959) 2 (1954) 988 10 14 22 39 155 522 615 1860 6730
2026-02-10 09:30 15600 (1959) 2 (1954) 988 10 14 22 39 155 522 615 1860 6730
2026-02-10 09:00 15600 (1959) 2 (1954) 988 10 14 22 39 155 522 615 1860 6730
2026-02-10 08:30 15600 (1959) 2 (1954) 988 10 14 22 39 155 522 615 1860 6730
2026-02-10 08:00 15600 (1959) 2 (1954) 988 10 14 22 39 155 522 615 1860 6730
2026-02-10 07:30 15600 (1959) 2 (1954) 988 10 14 22 39 155 522 615 1860 6730
2026-02-10 07:00 15600 (1959) 2 (1954) 988 10 14 22 39 155 522 615 1860 6730
2026-02-10 06:30 15600 (1959) 2 (1954) 988 10 14 22 39 155 522 615 1860 6730
2026-02-10 06:00 15600 (1959) 2 (1954) 988 10 14 22 39 155 522 615 1860 6730
2026-02-10 05:30 15600 (1959) 2 (1954) 988 10 14 22 39 155 522 615 1860 6730
2026-02-10 05:00 15600 (1959) 2 (1954) 988 10 14 22 39 155 522 615 1860 6730
2026-02-10 04:30 15600 (1959) 2 (1954) 988 10 14 22 39 155 522 615 1860 6730
2026-02-10 04:00 15600 (1959) 2 (1954) 988 10 14 22 39 155 522 615 1860 6730
2026-02-10 03:30 15600 (1959) 2 (1954) 988 10 14 22 39 155 522 615 1860 6730
2026-02-10 03:00 15600 (1959) 2 (1954) 988 10 14 22 39 155 522 615 1860 6730
2026-02-10 02:30 15600 (1959) 2 (1954) 988 10 14 22 39 155 522 615 1860 6730
2026-02-10 02:00 15600 (1959) 2 (1954) 988 10 14 22 39 155 522 615 1860 6730
2026-02-10 01:30 15600 (1959) 2 (1954) 988 10 14 22 39 155 522 615 1860 6730
2026-02-10 01:00 15600 (1959) 2 (1954) 988 10 14 22 39 155 522 615 1860 6730
2026-02-10 00:30 15600 (1959) 2 (1954) 988 10 14 22 39 155 522 615 1860 6730
2026-02-10 00:00 15600 (1959) 2 (1954) 988 10 14 22 39 155 522 615 1860 6730
2026-02-09 23:30 15600 (1959) 2 (1954) 988 10 14 22 39 155 522 615 1860 6730
2026-02-09 23:00 15600 (1959) 2 (1954) 988 10 14 22 39 155 522 615 1860 6730
2026-02-09 22:30 10000 (1969) 2 (1954) 691 11 14 23 47 162 513 730 2020 3430
2026-02-09 22:00 10000 (1969) 2 (1954) 691 11 14 23 47 162 513 730 2020 3430
2026-02-09 21:30 10000 (1969) 2 (1954) 691 11 14 23 47 162 513 730 2020 3430
2026-02-09 21:00 10000 (1969) 2 (1954) 691 11 14 23 47 162 513 730 2020 3430
2026-02-09 20:30 10000 (1969) 2 (1954) 691 11 14 23 47 162 513 730 2020 3430
2026-02-09 20:00 10000 (1969) 2 (1954) 691 11 14 23 47 162 513 730 2020 3430
2026-02-09 19:30 10000 (1969) 2 (1954) 691 11 14 23 47 162 513 730 2020 3430
2026-02-09 19:00 10000 (1969) 2 (1954) 691 11 14 23 47 162 513 730 2020 3430
2026-02-09 18:30 10000 (1969) 2 (1954) 691 11 14 23 47 162 513 730 2020 3430
2026-02-09 18:00 10000 (1969) 2 (1954) 691 11 14 23 47 162 513 730 2020 3430
2026-02-09 17:30 10000 (1969) 2 (1954) 691 11 14 23 47 162 513 730 2020 3430
2026-02-09 17:00 10000 (1969) 2 (1954) 691 11 14 23 47 162 513 730 2020 3430
2026-02-09 16:30 10000 (1969) 2 (1954) 691 11 14 23 47 162 513 730 2020 3430
2026-02-09 16:00 10000 (1969) 2 (1954) 691 11 14 23 47 162 513 730 2020 3430
2026-02-09 15:30 10000 (1969) 2 (1954) 691 11 14 23 47 162 513 730 2020 3430
2026-02-09 15:00 10000 (1969) 2 (1954) 691 11 14 23 47 162 513 730 2020 3430
2026-02-09 14:30 10000 (1969) 2 (1954) 691 11 14 23 47 162 513 730 2020 3430
2026-02-09 14:00 10000 (1969) 2 (1954) 691 11 14 23 47 162 513 730 2020 3430
2026-02-09 13:30 10000 (1969) 2 (1954) 691 11 14 23 47 162 513 730 2020 3430
2026-02-09 13:00 10000 (1969) 2 (1954) 691 11 14 23 47 162 513 730 2020 3430
2026-02-09 12:30 10000 (1969) 2 (1954) 691 11 14 23 47 162 513 730 2020 3430
2026-02-09 12:00 10000 (1969) 2 (1954) 691 11 14 23 47 162 513 730 2020 3430
2026-02-09 11:30 10000 (1969) 2 (1954) 691 11 14 23 47 162 513 730 2020 3430
2026-02-09 11:00 10000 (1969) 2 (1954) 691 11 14 23 47 162 513 730 2020 3430
2026-02-09 10:30 10000 (1969) 2 (1954) 691 11 14 23 47 162 513 730 2020 3430
2026-02-09 10:00 10000 (1969) 2 (1954) 691 11 14 23 47 162 513 730 2020 3430
2026-02-09 09:30 10000 (1969) 2 (1954) 691 11 14 23 47 162 513 730 2020 3430
2026-02-09 09:00 10000 (1969) 2 (1954) 691 11 14 23 47 162 513 730 2020 3430
2026-02-09 08:30 10000 (1969) 2 (1954) 691 11 14 23 47 162 513 730 2020 3430
2026-02-09 08:00 10000 (1969) 2 (1954) 691 11 14 23 47 162 513 730 2020 3430
2026-02-09 07:30 10000 (1969) 2 (1954) 691 11 14 23 47 162 513 730 2020 3430
2026-02-09 07:00 10000 (1969) 2 (1954) 691 11 14 23 47 162 513 730 2020 3430
2026-02-09 06:30 10000 (1969) 2 (1954) 691 11 14 23 47 162 513 730 2020 3430
2026-02-09 06:00 10000 (1969) 2 (1954) 691 11 14 23 47 162 513 730 2020 3430
2026-02-09 05:30 10000 (1969) 2 (1954) 691 11 14 23 47 162 513 730 2020 3430
2026-02-09 05:00 10000 (1969) 2 (1954) 691 11 14 23 47 162 513 730 2020 3430
2026-02-09 04:30 10000 (1969) 2 (1954) 691 11 14 23 47 162 513 730 2020 3430
2026-02-09 04:00 10000 (1969) 2 (1954) 691 11 14 23 47 162 513 730 2020 3430
2026-02-09 03:30 10000 (1969) 2 (1954) 691 11 14 23 47 162 513 730 2020 3430
2026-02-09 03:00 10000 (1969) 2 (1954) 691 11 14 23 47 162 513 730 2020 3430
2026-02-09 02:30 10000 (1969) 2 (1954) 691 11 14 23 47 162 513 730 2020 3430
2026-02-09 02:00 10000 (1969) 2 (1954) 691 11 14 23 47 162 513 730 2020 3430
2026-02-09 01:30 10000 (1969) 2 (1954) 691 11 14 23 47 162 513 730 2020 3430
2026-02-09 01:00 10000 (1969) 2 (1954) 691 11 14 23 47 162 513 730 2020 3430
2026-02-09 00:30 10000 (1969) 2 (1954) 691 11 14 23 47 162 513 730 2020 3430
2026-02-09 00:00 10000 (1969) 2 (1954) 691 11 14 23 47 162 513 730 2020 3430
2026-02-08 23:30 10000 (1969) 2 (1954) 691 11 14 23 47 162 513 730 2020 3430
2026-02-08 23:00 10000 (1969) 2 (1954) 691 11 14 23 47 162 513 730 2020 3430
2026-02-08 22:30 9620 (1937) 2 (1954) 722 8 12 22 45 166 501 587 1890 5070
2026-02-08 22:00 9620 (1937) 2 (1954) 722 8 12 22 45 166 501 587 1890 5070
2026-02-08 21:30 9620 (1937) 2 (1954) 722 8 12 22 45 166 501 587 1890 5070
2026-02-08 21:00 9620 (1937) 2 (1954) 722 8 12 22 45 166 501 587 1890 5070
2026-02-08 20:30 9620 (1937) 2 (1954) 722 8 12 22 45 166 501 587 1890 5070
2026-02-08 20:00 9620 (1937) 2 (1954) 722 8 12 22 45 166 501 587 1890 5070
2026-02-08 19:30 9620 (1937) 2 (1954) 722 8 12 22 45 166 501 587 1890 5070
2026-02-08 19:00 9620 (1937) 2 (1954) 722 8 12 22 45 166 501 587 1890 5070
2026-02-08 18:30 9620 (1937) 2 (1954) 722 8 12 22 45 166 501 587 1890 5070
2026-02-08 18:00 9620 (1937) 2 (1954) 722 8 12 22 45 166 501 587 1890 5070
2026-02-08 17:30 9620 (1937) 2 (1954) 722 8 12 22 45 166 501 587 1890 5070
2026-02-08 17:00 9620 (1937) 2 (1954) 722 8 12 22 45 166 501 587 1890 5070
2026-02-08 16:30 9620 (1937) 2 (1954) 722 8 12 22 45 166 501 587 1890 5070
2026-02-08 16:00 9620 (1937) 2 (1954) 722 8 12 22 45 166 501 587 1890 5070
2026-02-08 15:30 9620 (1937) 2 (1954) 722 8 12 22 45 166 501 587 1890 5070
2026-02-08 15:00 9620 (1937) 2 (1954) 722 8 12 22 45 166 501 587 1890 5070
2026-02-08 14:30 9620 (1937) 2 (1954) 722 8 12 22 45 166 501 587 1890 5070
2026-02-08 14:00 9620 (1937) 2 (1954) 722 8 12 22 45 166 501 587 1890 5070
2026-02-08 13:30 9620 (1937) 2 (1954) 722 8 12 22 45 166 501 587 1890 5070
2026-02-08 13:00 9620 (1937) 2 (1954) 722 8 12 22 45 166 501 587 1890 5070
2026-02-08 12:30 9620 (1937) 2 (1954) 722 8 12 22 45 166 501 587 1890 5070
2026-02-08 12:00 9620 (1937) 2 (1954) 722 8 12 22 45 166 501 587 1890 5070
2026-02-08 11:30 9620 (1937) 2 (1954) 722 8 12 22 45 166 501 587 1890 5070
2026-02-08 11:00 9620 (1937) 2 (1954) 722 8 12 22 45 166 501 587 1890 5070
2026-02-08 10:30 9620 (1937) 2 (1954) 722 8 12 22 45 166 501 587 1890 5070
2026-02-08 10:00 9620 (1937) 2 (1954) 722 8 12 22 45 166 501 587 1890 5070
2026-02-08 09:30 9620 (1937) 2 (1954) 722 8 12 22 45 166 501 587 1890 5070
2026-02-08 09:00 9620 (1937) 2 (1954) 722 8 12 22 45 166 501 587 1890 5070
2026-02-08 08:30 9620 (1937) 2 (1954) 722 8 12 22 45 166 501 587 1890 5070
2026-02-08 08:00 9620 (1937) 2 (1954) 722 8 12 22 45 166 501 587 1890 5070
2026-02-08 07:30 9620 (1937) 2 (1954) 722 8 12 22 45 166 501 587 1890 5070
2026-02-08 07:00 9620 (1937) 2 (1954) 722 8 12 22 45 166 501 587 1890 5070
2026-02-08 06:30 9620 (1937) 2 (1954) 722 8 12 22 45 166 501 587 1890 5070
2026-02-08 06:00 9620 (1937) 2 (1954) 722 8 12 22 45 166 501 587 1890 5070
2026-02-08 05:30 9620 (1937) 2 (1954) 722 8 12 22 45 166 501 587 1890 5070
2026-02-08 05:00 9620 (1937) 2 (1954) 722 8 12 22 45 166 501 587 1890 5070
2026-02-08 04:30 9620 (1937) 2 (1954) 722 8 12 22 45 166 501 587 1890 5070
2026-02-08 04:00 9620 (1937) 2 (1954) 722 8 12 22 45 166 501 587 1890 5070
2026-02-08 03:30 9620 (1937) 2 (1954) 722 8 12 22 45 166 501 587 1890 5070
2026-02-08 03:00 9620 (1937) 2 (1954) 722 8 12 22 45 166 501 587 1890 5070
2026-02-08 02:30 9620 (1937) 2 (1954) 722 8 12 22 45 166 501 587 1890 5070
2026-02-08 02:00 9620 (1937) 2 (1954) 722 8 12 22 45 166 501 587 1890 5070
2026-02-08 01:30 9620 (1937) 2 (1954) 722 8 12 22 45 166 501 587 1890 5070
2026-02-08 01:00 9620 (1937) 2 (1954) 722 8 12 22 45 166 501 587 1890 5070
2026-02-08 00:30 9620 (1937) 2 (1954) 722 8 12 22 45 166 501 587 1890 5070
2026-02-08 00:00 9620 (1937) 2 (1954) 722 8 12 22 45 166 501 587 1890 5070
2026-02-07 23:30 9620 (1937) 2 (1954) 722 8 12 22 45 166 501 587 1890 5070
2026-02-07 23:00 9620 (1937) 2 (1954) 722 8 12 22 45 166 501 587 1890 5070
2026-02-07 22:30 15500 (1928) 2 (1931) 979 8 11 22 34 161 499 775 2270 6700
2026-02-07 22:00 15500 (1928) 2 (1931) 979 8 11 22 34 161 499 775 2270 6700
2026-02-07 21:30 15500 (1928) 2 (1931) 979 8 11 22 34 161 499 775 2270 6700
2026-02-07 21:00 15500 (1928) 2 (1931) 979 8 11 22 34 161 499 775 2270 6700
2026-02-07 20:30 15500 (1928) 2 (1931) 979 8 11 22 34 161 499 775 2270 6700
2026-02-07 20:00 15500 (1928) 2 (1931) 979 8 11 22 34 161 499 775 2270 6700
2026-02-07 19:30 15500 (1928) 2 (1931) 979 8 11 22 34 161 499 775 2270 6700
2026-02-07 19:00 15500 (1928) 2 (1931) 979 8 11 22 34 161 499 775 2270 6700
2026-02-07 18:30 15500 (1928) 2 (1931) 979 8 11 22 34 161 499 775 2270 6700
2026-02-07 18:00 15500 (1928) 2 (1931) 979 8 11 22 34 161 499 775 2270 6700
2026-02-07 17:30 15500 (1928) 2 (1931) 979 8 11 22 34 161 499 775 2270 6700
2026-02-07 17:00 15500 (1928) 2 (1931) 979 8 11 22 34 161 499 775 2270 6700
2026-02-07 16:30 15500 (1928) 2 (1931) 979 8 11 22 34 161 499 775 2270 6700
2026-02-07 16:00 15500 (1928) 2 (1931) 979 8 11 22 34 161 499 775 2270 6700
2026-02-07 15:30 15500 (1928) 2 (1931) 979 8 11 22 34 161 499 775 2270 6700
2026-02-07 15:00 15500 (1928) 2 (1931) 979 8 11 22 34 161 499 775 2270 6700
2026-02-07 14:30 15500 (1928) 2 (1931) 979 8 11 22 34 161 499 775 2270 6700
2026-02-07 14:00 15500 (1928) 2 (1931) 979 8 11 22 34 161 499 775 2270 6700
2026-02-07 13:30 15500 (1928) 2 (1931) 979 8 11 22 34 161 499 775 2270 6700
2026-02-07 13:00 15500 (1928) 2 (1931) 979 8 11 22 34 161 499 775 2270 6700
2026-02-07 12:30 15500 (1928) 2 (1931) 979 8 11 22 34 161 499 775 2270 6700
2026-02-07 12:00 15500 (1928) 2 (1931) 979 8 11 22 34 161 499 775 2270 6700
2026-02-07 11:30 15500 (1928) 2 (1931) 979 8 11 22 34 161 499 775 2270 6700
2026-02-07 11:00 15500 (1928) 2 (1931) 979 8 11 22 34 161 499 775 2270 6700
2026-02-07 10:30 15500 (1928) 2 (1931) 979 8 11 22 34 161 499 775 2270 6700
2026-02-07 10:00 15500 (1928) 2 (1931) 979 8 11 22 34 161 499 775 2270 6700
2026-02-07 09:30 15500 (1928) 2 (1931) 979 8 11 22 34 161 499 775 2270 6700
2026-02-07 09:00 15500 (1928) 2 (1931) 979 8 11 22 34 161 499 775 2270 6700
2026-02-07 08:30 15500 (1928) 2 (1931) 979 8 11 22 34 161 499 775 2270 6700
2026-02-07 08:00 15500 (1928) 2 (1931) 979 8 11 22 34 161 499 775 2270 6700
2026-02-07 07:30 15500 (1928) 2 (1931) 979 8 11 22 34 161 499 775 2270 6700
2026-02-07 07:00 15500 (1928) 2 (1931) 979 8 11 22 34 161 499 775 2270 6700
2026-02-07 06:30 15500 (1928) 2 (1931) 979 8 11 22 34 161 499 775 2270 6700
2026-02-07 06:00 15500 (1928) 2 (1931) 979 8 11 22 34 161 499 775 2270 6700
2026-02-07 05:30 15500 (1928) 2 (1931) 979 8 11 22 34 161 499 775 2270 6700
2026-02-07 05:00 15500 (1928) 2 (1931) 979 8 11 22 34 161 499 775 2270 6700
2026-02-07 04:30 15500 (1928) 2 (1931) 979 8 11 22 34 161 499 775 2270 6700
2026-02-07 04:00 15500 (1928) 2 (1931) 979 8 11 22 34 161 499 775 2270 6700
2026-02-07 03:30 15500 (1928) 2 (1931) 979 8 11 22 34 161 499 775 2270 6700
2026-02-07 03:00 15500 (1928) 2 (1931) 979 8 11 22 34 161 499 775 2270 6700
2026-02-07 02:30 15500 (1928) 2 (1931) 979 8 11 22 34 161 499 775 2270 6700
2026-02-07 02:00 15500 (1928) 2 (1931) 979 8 11 22 34 161 499 775 2270 6700
2026-02-07 01:30 15500 (1928) 2 (1931) 979 8 11 22 34 161 499 775 2270 6700
2026-02-07 01:00 15500 (1928) 2 (1931) 979 8 11 22 34 161 499 775 2270 6700
2026-02-07 00:30 15500 (1928) 2 (1931) 979 8 11 22 34 161 499 775 2270 6700
2026-02-07 00:00 15500 (1928) 2 (1931) 979 8 11 22 34 161 499 775 2270 6700
2026-02-06 23:30 15500 (1928) 2 (1931) 979 8 11 22 34 161 499 775 2270 6700
2026-02-06 23:00 15500 (1928) 2 (1931) 979 8 11 22 34 161 499 775 2270 6700
2026-02-06 22:30 7930 (2008) 2 (1931) 634 7 12 22 29 163 631 768 1580 2880
2026-02-06 22:00 7930 (2008) 2 (1931) 634 7 12 22 29 163 631 768 1580 2880
2026-02-06 21:30 7930 (2008) 2 (1931) 634 7 12 22 29 163 631 768 1580 2880
2026-02-06 21:00 7930 (2008) 2 (1931) 634 7 12 22 29 163 631 768 1580 2880
2026-02-06 20:30 7930 (2008) 2 (1931) 634 7 12 22 29 163 631 768 1580 2880
2026-02-06 20:00 7930 (2008) 2 (1931) 634 7 12 22 29 163 631 768 1580 2880
2026-02-06 19:30 7930 (2008) 2 (1931) 634 7 12 22 29 163 631 768 1580 2880
2026-02-06 19:00 7930 (2008) 2 (1931) 634 7 12 22 29 163 631 768 1580 2880
2026-02-06 18:30 7930 (2008) 2 (1931) 634 7 12 22 29 163 631 768 1580 2880
2026-02-06 18:00 7930 (2008) 2 (1931) 634 7 12 22 29 163 631 768 1580 2880
2026-02-06 17:30 7930 (2008) 2 (1931) 634 7 12 22 29 163 631 768 1580 2880
2026-02-06 17:00 7930 (2008) 2 (1931) 634 7 12 22 29 163 631 768 1580 2880
2026-02-06 16:30 7930 (2008) 2 (1931) 634 7 12 22 29 163 631 768 1580 2880
2026-02-06 16:00 7930 (2008) 2 (1931) 634 7 12 22 29 163 631 768 1580 2880
2026-02-06 15:30 7930 (2008) 2 (1931) 634 7 12 22 29 163 631 768 1580 2880
2026-02-06 15:00 7930 (2008) 2 (1931) 634 7 12 22 29 163 631 768 1580 2880
2026-02-06 14:30 7930 (2008) 2 (1931) 634 7 12 22 29 163 631 768 1580 2880
2026-02-06 14:00 7930 (2008) 2 (1931) 634 7 12 22 29 163 631 768 1580 2880
2026-02-06 13:30 7930 (2008) 2 (1931) 634 7 12 22 29 163 631 768 1580 2880
2026-02-06 13:00 7930 (2008) 2 (1931) 634 7 12 22 29 163 631 768 1580 2880
2026-02-06 12:30 7930 (2008) 2 (1931) 634 7 12 22 29 163 631 768 1580 2880
2026-02-06 12:00 7930 (2008) 2 (1931) 634 7 12 22 29 163 631 768 1580 2880
2026-02-06 11:30 7930 (2008) 2 (1931) 634 7 12 22 29 163 631 768 1580 2880
2026-02-06 11:00 7930 (2008) 2 (1931) 634 7 12 22 29 163 631 768 1580 2880
2026-02-06 10:30 7930 (2008) 2 (1931) 634 7 12 22 29 163 631 768 1580 2880
2026-02-06 10:00 7930 (2008) 2 (1931) 634 7 12 22 29 163 631 768 1580 2880
2026-02-06 09:30 7930 (2008) 2 (1931) 634 7 12 22 29 163 631 768 1580 2880
2026-02-06 09:00 7930 (2008) 2 (1931) 634 7 12 22 29 163 631 768 1580 2880
2026-02-06 08:30 7930 (2008) 2 (1931) 634 7 12 22 29 163 631 768 1580 2880
2026-02-06 08:00 7930 (2008) 2 (1931) 634 7 12 22 29 163 631 768 1580 2880
2026-02-06 07:30 7930 (2008) 2 (1931) 634 7 12 22 29 163 631 768 1580 2880
2026-02-06 07:00 7930 (2008) 2 (1931) 634 7 12 22 29 163 631 768 1580 2880
2026-02-06 06:30 7930 (2008) 2 (1931) 634 7 12 22 29 163 631 768 1580 2880
2026-02-06 06:00 7930 (2008) 2 (1931) 634 7 12 22 29 163 631 768 1580 2880
2026-02-06 05:30 7930 (2008) 2 (1931) 634 7 12 22 29 163 631 768 1580 2880
2026-02-06 05:00 7930 (2008) 2 (1931) 634 7 12 22 29 163 631 768 1580 2880
2026-02-06 04:30 7930 (2008) 2 (1931) 634 7 12 22 29 163 631 768 1580 2880
2026-02-06 04:00 7930 (2008) 2 (1931) 634 7 12 22 29 163 631 768 1580 2880
2026-02-06 03:30 7930 (2008) 2 (1931) 634 7 12 22 29 163 631 768 1580 2880
2026-02-06 03:00 7930 (2008) 2 (1931) 634 7 12 22 29 163 631 768 1580 2880
2026-02-06 02:30 7930 (2008) 2 (1931) 634 7 12 22 29 163 631 768 1580 2880
2026-02-06 02:00 7930 (2008) 2 (1931) 634 7 12 22 29 163 631 768 1580 2880
2026-02-06 01:30 7930 (2008) 2 (1931) 634 7 12 22 29 163 631 768 1580 2880
2026-02-06 01:00 7930 (2008) 2 (1931) 634 7 12 22 29 163 631 768 1580 2880
2026-02-06 00:30 7930 (2008) 2 (1931) 634 7 12 22 29 163 631 768 1580 2880
2026-02-06 00:00 7930 (2008) 2 (1931) 634 7 12 22 29 163 631 768 1580 2880
2026-02-05 23:30 7930 (2008) 2 (1931) 634 7 12 22 29 163 631 768 1580 2880
2026-02-05 23:00 7930 (2008) 2 (1931) 634 7 12 22 29 163 631 768 1580 2880
2026-02-05 22:30 8180 (1971) 2 (1931) 766 6 10 21 30 160 689 1050 2090 5550
2026-02-05 22:00 8180 (1971) 2 (1931) 766 6 10 21 30 160 689 1050 2090 5550
2026-02-05 21:30 8180 (1971) 2 (1931) 766 6 10 21 30 160 689 1050 2090 5550
2026-02-05 21:00 8180 (1971) 2 (1931) 766 6 10 21 30 160 689 1050 2090 5550
2026-02-05 20:30 8180 (1971) 2 (1931) 766 6 10 21 30 160 689 1050 2090 5550
2026-02-05 20:00 8180 (1971) 2 (1931) 766 6 10 21 30 160 689 1050 2090 5550
2026-02-05 19:30 8180 (1971) 2 (1931) 766 6 10 21 30 160 689 1050 2090 5550
2026-02-05 19:00 8180 (1971) 2 (1931) 766 6 10 21 30 160 689 1050 2090 5550
2026-02-05 18:30 8180 (1971) 2 (1931) 766 6 10 21 30 160 689 1050 2090 5550
2026-02-05 18:00 8180 (1971) 2 (1931) 766 6 10 21 30 160 689 1050 2090 5550
2026-02-05 17:30 8180 (1971) 2 (1931) 766 6 10 21 30 160 689 1050 2090 5550
2026-02-05 17:00 8180 (1971) 2 (1931) 766 6 10 21 30 160 689 1050 2090 5550
2026-02-05 16:30 8180 (1971) 2 (1931) 766 6 10 21 30 160 689 1050 2090 5550
2026-02-05 16:00 8180 (1971) 2 (1931) 766 6 10 21 30 160 689 1050 2090 5550
2026-02-05 15:30 8180 (1971) 2 (1931) 766 6 10 21 30 160 689 1050 2090 5550
2026-02-05 15:00 8180 (1971) 2 (1931) 766 6 10 21 30 160 689 1050 2090 5550
2026-02-05 14:30 8180 (1971) 2 (1931) 766 6 10 21 30 160 689 1050 2090 5550
2026-02-05 14:00 8180 (1971) 2 (1931) 766 6 10 21 30 160 689 1050 2090 5550
2026-02-05 13:30 8180 (1971) 2 (1931) 766 6 10 21 30 160 689 1050 2090 5550
2026-02-05 13:00 8180 (1971) 2 (1931) 766 6 10 21 30 160 689 1050 2090 5550
2026-02-05 12:30 8180 (1971) 2 (1931) 766 6 10 21 30 160 689 1050 2090 5550
2026-02-05 12:00 8180 (1971) 2 (1931) 766 6 10 21 30 160 689 1050 2090 5550
2026-02-05 11:30 8180 (1971) 2 (1931) 766 6 10 21 30 160 689 1050 2090 5550
2026-02-05 11:00 22 8180 (1971) 2 (1931) 766 6 10 21 30 160 689 1050 2090 5550
2026-02-05 10:30 8180 (1971) 2 (1931) 766 6 10 21 30 160 689 1050 2090 5550
2026-02-05 10:00 8180 (1971) 2 (1931) 766 6 10 21 30 160 689 1050 2090 5550
2026-02-05 09:30 8180 (1971) 2 (1931) 766 6 10 21 30 160 689 1050 2090 5550
2026-02-05 09:00 8180 (1971) 2 (1931) 766 6 10 21 30 160 689 1050 2090 5550
2026-02-05 08:30 8180 (1971) 2 (1931) 766 6 10 21 30 160 689 1050 2090 5550
2026-02-05 08:00 8180 (1971) 2 (1931) 766 6 10 21 30 160 689 1050 2090 5550
2026-02-05 07:30 8180 (1971) 2 (1931) 766 6 10 21 30 160 689 1050 2090 5550
2026-02-05 07:00 8180 (1971) 2 (1931) 766 6 10 21 30 160 689 1050 2090 5550
2026-02-05 06:30 8180 (1971) 2 (1931) 766 6 10 21 30 160 689 1050 2090 5550
2026-02-05 06:00 8180 (1971) 2 (1931) 766 6 10 21 30 160 689 1050 2090 5550
2026-02-05 05:30 8180 (1971) 2 (1931) 766 6 10 21 30 160 689 1050 2090 5550
2026-02-05 05:00 8180 (1971) 2 (1931) 766 6 10 21 30 160 689 1050 2090 5550
2026-02-05 04:30 8180 (1971) 2 (1931) 766 6 10 21 30 160 689 1050 2090 5550
2026-02-05 04:00 8180 (1971) 2 (1931) 766 6 10 21 30 160 689 1050 2090 5550
2026-02-05 03:30 8180 (1971) 2 (1931) 766 6 10 21 30 160 689 1050 2090 5550
2026-02-05 03:00 8180 (1971) 2 (1931) 766 6 10 21 30 160 689 1050 2090 5550
2026-02-05 02:30 8180 (1971) 2 (1931) 766 6 10 21 30 160 689 1050 2090 5550
2026-02-05 02:00 8180 (1971) 2 (1931) 766 6 10 21 30 160 689 1050 2090 5550
2026-02-05 01:30 8180 (1971) 2 (1931) 766 6 10 21 30 160 689 1050 2090 5550
2026-02-05 01:00 8180 (1971) 2 (1931) 766 6 10 21 30 160 689 1050 2090 5550
2026-02-05 00:30 8180 (1971) 2 (1931) 766 6 10 21 30 160 689 1050 2090 5550
2026-02-05 00:00 8180 (1971) 2 (1931) 766 6 10 21 30 160 689 1050 2090 5550
2026-02-04 23:30 8180 (1971) 2 (1931) 766 6 10 21 30 160 689 1050 2090 5550
2026-02-04 23:00 8180 (1971) 2 (1931) 766 6 10 21 30 160 689 1050 2090 5550
2026-02-04 22:30 12900 (1986) 2 (1931) 834 5 10 21 32 162 576 891 2110 4760
2026-02-04 22:00 12900 (1986) 2 (1931) 834 5 10 21 32 162 576 891 2110 4760
2026-02-04 21:30 12900 (1986) 2 (1931) 834 5 10 21 32 162 576 891 2110 4760
2026-02-04 21:00 12900 (1986) 2 (1931) 834 5 10 21 32 162 576 891 2110 4760
2026-02-04 20:30 12900 (1986) 2 (1931) 834 5 10 21 32 162 576 891 2110 4760
2026-02-04 20:00 12900 (1986) 2 (1931) 834 5 10 21 32 162 576 891 2110 4760
2026-02-04 19:30 12900 (1986) 2 (1931) 834 5 10 21 32 162 576 891 2110 4760
2026-02-04 19:00 12900 (1986) 2 (1931) 834 5 10 21 32 162 576 891 2110 4760
2026-02-04 18:30 12900 (1986) 2 (1931) 834 5 10 21 32 162 576 891 2110 4760
2026-02-04 18:00 12900 (1986) 2 (1931) 834 5 10 21 32 162 576 891 2110 4760
2026-02-04 17:30 12900 (1986) 2 (1931) 834 5 10 21 32 162 576 891 2110 4760
2026-02-04 17:00 12900 (1986) 2 (1931) 834 5 10 21 32 162 576 891 2110 4760
2026-02-04 16:30 12900 (1986) 2 (1931) 834 5 10 21 32 162 576 891 2110 4760
2026-02-04 16:00 12900 (1986) 2 (1931) 834 5 10 21 32 162 576 891 2110 4760
2026-02-04 15:30 12900 (1986) 2 (1931) 834 5 10 21 32 162 576 891 2110 4760
2026-02-04 15:00 12900 (1986) 2 (1931) 834 5 10 21 32 162 576 891 2110 4760
2026-02-04 14:30 12900 (1986) 2 (1931) 834 5 10 21 32 162 576 891 2110 4760
2026-02-04 14:00 12900 (1986) 2 (1931) 834 5 10 21 32 162 576 891 2110 4760
2026-02-04 13:30 12900 (1986) 2 (1931) 834 5 10 21 32 162 576 891 2110 4760
2026-02-04 13:00 12900 (1986) 2 (1931) 834 5 10 21 32 162 576 891 2110 4760
2026-02-04 12:30 12900 (1986) 2 (1931) 834 5 10 21 32 162 576 891 2110 4760
2026-02-04 12:00 12900 (1986) 2 (1931) 834 5 10 21 32 162 576 891 2110 4760
2026-02-04 11:30 12900 (1986) 2 (1931) 834 5 10 21 32 162 576 891 2110 4760
2026-02-04 11:00 12900 (1986) 2 (1931) 834 5 10 21 32 162 576 891 2110 4760
2026-02-04 10:30 12900 (1986) 2 (1931) 834 5 10 21 32 162 576 891 2110 4760
2026-02-04 10:00 12900 (1986) 2 (1931) 834 5 10 21 32 162 576 891 2110 4760
2026-02-04 09:30 12900 (1986) 2 (1931) 834 5 10 21 32 162 576 891 2110 4760
2026-02-04 09:00 12900 (1986) 2 (1931) 834 5 10 21 32 162 576 891 2110 4760
2026-02-04 08:30 12900 (1986) 2 (1931) 834 5 10 21 32 162 576 891 2110 4760
2026-02-04 08:00 12900 (1986) 2 (1931) 834 5 10 21 32 162 576 891 2110 4760
2026-02-04 07:30 12900 (1986) 2 (1931) 834 5 10 21 32 162 576 891 2110 4760
2026-02-04 07:00 12900 (1986) 2 (1931) 834 5 10 21 32 162 576 891 2110 4760
2026-02-04 06:30 12900 (1986) 2 (1931) 834 5 10 21 32 162 576 891 2110 4760
2026-02-04 06:00 12900 (1986) 2 (1931) 834 5 10 21 32 162 576 891 2110 4760
2026-02-04 05:30 12900 (1986) 2 (1931) 834 5 10 21 32 162 576 891 2110 4760
2026-02-04 05:00 12900 (1986) 2 (1931) 834 5 10 21 32 162 576 891 2110 4760
2026-02-04 04:30 12900 (1986) 2 (1931) 834 5 10 21 32 162 576 891 2110 4760
2026-02-04 04:00 12900 (1986) 2 (1931) 834 5 10 21 32 162 576 891 2110 4760
2026-02-04 03:30 12900 (1986) 2 (1931) 834 5 10 21 32 162 576 891 2110 4760
2026-02-04 03:00 12900 (1986) 2 (1931) 834 5 10 21 32 162 576 891 2110 4760
2026-02-04 02:30 12900 (1986) 2 (1931) 834 5 10 21 32 162 576 891 2110 4760
2026-02-04 02:00 12900 (1986) 2 (1931) 834 5 10 21 32 162 576 891 2110 4760
2026-02-04 01:30 12900 (1986) 2 (1931) 834 5 10 21 32 162 576 891 2110 4760
2026-02-04 01:00 12900 (1986) 2 (1931) 834 5 10 21 32 162 576 891 2110 4760
2026-02-04 00:30 12900 (1986) 2 (1931) 834 5 10 21 32 162 576 891 2110 4760
2026-02-04 00:00 12900 (1986) 2 (1931) 834 5 10 21 32 162 576 891 2110 4760
2026-02-03 23:30 12900 (1986) 2 (1931) 834 5 10 21 32 162 576 891 2110 4760
2026-02-03 23:00 12900 (1986) 2 (1931) 834 5 10 21 32 162 576 891 2110 4760
2026-02-03 22:30 14300 (1995) 2 (1931) 749 5 10 23 32 159 631 794 1910 3260
2026-02-03 22:00 14300 (1995) 2 (1931) 749 5 10 23 32 159 631 794 1910 3260
2026-02-03 21:30 14300 (1995) 2 (1931) 749 5 10 23 32 159 631 794 1910 3260
2026-02-03 21:00 14300 (1995) 2 (1931) 749 5 10 23 32 159 631 794 1910 3260
2026-02-03 20:30 14300 (1995) 2 (1931) 749 5 10 23 32 159 631 794 1910 3260
2026-02-03 20:00 14300 (1995) 2 (1931) 749 5 10 23 32 159 631 794 1910 3260
2026-02-03 19:30 14300 (1995) 2 (1931) 749 5 10 23 32 159 631 794 1910 3260
2026-02-03 19:00 14300 (1995) 2 (1931) 749 5 10 23 32 159 631 794 1910 3260
2026-02-03 18:30 14300 (1995) 2 (1931) 749 5 10 23 32 159 631 794 1910 3260
2026-02-03 18:00 14300 (1995) 2 (1931) 749 5 10 23 32 159 631 794 1910 3260
2026-02-03 17:30 14300 (1995) 2 (1931) 749 5 10 23 32 159 631 794 1910 3260
2026-02-03 17:00 14300 (1995) 2 (1931) 749 5 10 23 32 159 631 794 1910 3260
2026-02-03 16:30 14300 (1995) 2 (1931) 749 5 10 23 32 159 631 794 1910 3260
2026-02-03 16:00 14300 (1995) 2 (1931) 749 5 10 23 32 159 631 794 1910 3260
2026-02-03 15:30 14300 (1995) 2 (1931) 749 5 10 23 32 159 631 794 1910 3260
2026-02-03 15:00 14300 (1995) 2 (1931) 749 5 10 23 32 159 631 794 1910 3260
2026-02-03 14:30 14300 (1995) 2 (1931) 749 5 10 23 32 159 631 794 1910 3260
2026-02-03 14:00 14300 (1995) 2 (1931) 749 5 10 23 32 159 631 794 1910 3260
2026-02-03 13:30 14300 (1995) 2 (1931) 749 5 10 23 32 159 631 794 1910 3260
2026-02-03 13:00 14300 (1995) 2 (1931) 749 5 10 23 32 159 631 794 1910 3260
2026-02-03 12:30 14300 (1995) 2 (1931) 749 5 10 23 32 159 631 794 1910 3260
2026-02-03 12:00 14300 (1995) 2 (1931) 749 5 10 23 32 159 631 794 1910 3260
2026-02-03 11:30 14300 (1995) 2 (1931) 749 5 10 23 32 159 631 794 1910 3260
2026-02-03 11:00 14300 (1995) 2 (1931) 749 5 10 23 32 159 631 794 1910 3260
2026-02-03 10:30 14300 (1995) 2 (1931) 749 5 10 23 32 159 631 794 1910 3260
2026-02-03 10:00 14300 (1995) 2 (1931) 749 5 10 23 32 159 631 794 1910 3260
2026-02-03 09:30 14300 (1995) 2 (1931) 749 5 10 23 32 159 631 794 1910 3260
2026-02-03 09:00 14300 (1995) 2 (1931) 749 5 10 23 32 159 631 794 1910 3260
2026-02-03 08:30 14300 (1995) 2 (1931) 749 5 10 23 32 159 631 794 1910 3260
2026-02-03 08:00 14300 (1995) 2 (1931) 749 5 10 23 32 159 631 794 1910 3260
2026-02-03 07:30 14300 (1995) 2 (1931) 749 5 10 23 32 159 631 794 1910 3260
2026-02-03 07:00 14300 (1995) 2 (1931) 749 5 10 23 32 159 631 794 1910 3260
2026-02-03 06:30 14300 (1995) 2 (1931) 749 5 10 23 32 159 631 794 1910 3260
2026-02-03 06:00 14300 (1995) 2 (1931) 749 5 10 23 32 159 631 794 1910 3260
2026-02-03 05:30 14300 (1995) 2 (1931) 749 5 10 23 32 159 631 794 1910 3260
2026-02-03 05:00 14300 (1995) 2 (1931) 749 5 10 23 32 159 631 794 1910 3260
2026-02-03 04:30 14300 (1995) 2 (1931) 749 5 10 23 32 159 631 794 1910 3260
2026-02-03 04:00 14300 (1995) 2 (1931) 749 5 10 23 32 159 631 794 1910 3260
2026-02-03 03:30 14300 (1995) 2 (1931) 749 5 10 23 32 159 631 794 1910 3260
2026-02-03 03:00 14300 (1995) 2 (1931) 749 5 10 23 32 159 631 794 1910 3260
2026-02-03 02:30 14300 (1995) 2 (1931) 749 5 10 23 32 159 631 794 1910 3260
2026-02-03 02:00 14300 (1995) 2 (1931) 749 5 10 23 32 159 631 794 1910 3260
2026-02-03 01:30 14300 (1995) 2 (1931) 749 5 10 23 32 159 631 794 1910 3260
2026-02-03 01:00 14300 (1995) 2 (1931) 749 5 10 23 32 159 631 794 1910 3260
2026-02-03 00:30 14300 (1995) 2 (1931) 749 5 10 23 32 159 631 794 1910 3260
2026-02-03 00:00 14300 (1995) 2 (1931) 749 5 10 23 32 159 631 794 1910 3260
2026-02-02 23:30 14300 (1995) 2 (1931) 749 5 10 23 32 159 631 794 1910 3260
2026-02-02 23:00 14300 (1995) 2 (1931) 749 5 10 23 32 159 631 794 1910 3260
2026-02-02 22:30 15200 (1968) 2 (1931) 847 5 9 24 30 193 623 889 2580 3980
2026-02-02 22:00 15200 (1968) 2 (1931) 847 5 9 24 30 193 623 889 2580 3980
2026-02-02 21:30 15200 (1968) 2 (1931) 847 5 9 24 30 193 623 889 2580 3980
2026-02-02 21:00 15200 (1968) 2 (1931) 847 5 9 24 30 193 623 889 2580 3980
2026-02-02 20:30 15200 (1968) 2 (1931) 847 5 9 24 30 193 623 889 2580 3980
2026-02-02 20:00 15200 (1968) 2 (1931) 847 5 9 24 30 193 623 889 2580 3980
2026-02-02 19:30 15200 (1968) 2 (1931) 847 5 9 24 30 193 623 889 2580 3980
2026-02-02 19:00 15200 (1968) 2 (1931) 847 5 9 24 30 193 623 889 2580 3980
2026-02-02 18:30 15200 (1968) 2 (1931) 847 5 9 24 30 193 623 889 2580 3980
2026-02-02 18:00 15200 (1968) 2 (1931) 847 5 9 24 30 193 623 889 2580 3980
2026-02-02 17:30 15200 (1968) 2 (1931) 847 5 9 24 30 193 623 889 2580 3980
2026-02-02 17:00 15200 (1968) 2 (1931) 847 5 9 24 30 193 623 889 2580 3980
2026-02-02 16:30 15200 (1968) 2 (1931) 847 5 9 24 30 193 623 889 2580 3980
2026-02-02 16:00 15200 (1968) 2 (1931) 847 5 9 24 30 193 623 889 2580 3980
2026-02-02 15:30 15200 (1968) 2 (1931) 847 5 9 24 30 193 623 889 2580 3980
2026-02-02 15:00 15200 (1968) 2 (1931) 847 5 9 24 30 193 623 889 2580 3980
2026-02-02 14:30 15200 (1968) 2 (1931) 847 5 9 24 30 193 623 889 2580 3980
2026-02-02 14:00 15200 (1968) 2 (1931) 847 5 9 24 30 193 623 889 2580 3980
2026-02-02 13:30 15200 (1968) 2 (1931) 847 5 9 24 30 193 623 889 2580 3980
2026-02-02 13:00 15200 (1968) 2 (1931) 847 5 9 24 30 193 623 889 2580 3980
2026-02-02 12:30 15200 (1968) 2 (1931) 847 5 9 24 30 193 623 889 2580 3980
2026-02-02 12:00 15200 (1968) 2 (1931) 847 5 9 24 30 193 623 889 2580 3980
2026-02-02 11:30 15200 (1968) 2 (1931) 847 5 9 24 30 193 623 889 2580 3980
2026-02-02 10:30 15200 (1968) 2 (1931) 847 5 9 24 30 193 623 889 2580 3980
2026-02-02 10:00 15200 (1968) 2 (1931) 847 5 9 24 30 193 623 889 2580 3980
2026-02-02 09:30 15200 (1968) 2 (1931) 847 5 9 24 30 193 623 889 2580 3980
2026-02-02 09:00 15200 (1968) 2 (1931) 847 5 9 24 30 193 623 889 2580 3980
2026-02-02 08:30 15200 (1968) 2 (1931) 847 5 9 24 30 193 623 889 2580 3980
2026-02-02 08:00 15200 (1968) 2 (1931) 847 5 9 24 30 193 623 889 2580 3980
2026-02-02 07:30 15200 (1968) 2 (1931) 847 5 9 24 30 193 623 889 2580 3980
2026-02-02 07:00 15200 (1968) 2 (1931) 847 5 9 24 30 193 623 889 2580 3980
2026-02-02 06:30 15200 (1968) 2 (1931) 847 5 9 24 30 193 623 889 2580 3980
2026-02-02 06:00 15200 (1968) 2 (1931) 847 5 9 24 30 193 623 889 2580 3980
2026-02-02 05:30 15200 (1968) 2 (1931) 847 5 9 24 30 193 623 889 2580 3980
2026-02-02 05:00 15200 (1968) 2 (1931) 847 5 9 24 30 193 623 889 2580 3980
2026-02-02 04:30 15200 (1968) 2 (1931) 847 5 9 24 30 193 623 889 2580 3980
2026-02-02 04:00 15200 (1968) 2 (1931) 847 5 9 24 30 193 623 889 2580 3980
2026-02-02 03:30 15200 (1968) 2 (1931) 847 5 9 24 30 193 623 889 2580 3980
2026-02-02 03:00 15200 (1968) 2 (1931) 847 5 9 24 30 193 623 889 2580 3980
2026-02-02 02:30 15200 (1968) 2 (1931) 847 5 9 24 30 193 623 889 2580 3980
2026-02-02 02:00 15200 (1968) 2 (1931) 847 5 9 24 30 193 623 889 2580 3980
2026-02-02 01:30 15200 (1968) 2 (1931) 847 5 9 24 30 193 623 889 2580 3980
2026-02-02 01:00 15200 (1968) 2 (1931) 847 5 9 24 30 193 623 889 2580 3980
2026-02-02 00:30 15200 (1968) 2 (1931) 847 5 9 24 30 193 623 889 2580 3980
2026-02-02 00:00 15200 (1968) 2 (1931) 847 5 9 24 30 193 623 889 2580 3980
2026-02-01 23:30 15200 (1968) 2 (1931) 847 5 9 24 30 193 623 889 2580 3980
2026-02-01 23:00 15200 (1968) 2 (1931) 847 5 9 24 30 193 623 889 2580 3980
2026-02-01 22:30 13200 (1999) 2 (1931) 923 6 9 23 31 157 450 1060 2680 4720
2026-02-01 22:00 13200 (1999) 2 (1931) 923 6 9 23 31 157 450 1060 2680 4720
2026-02-01 21:30 13200 (1999) 2 (1931) 923 6 9 23 31 157 450 1060 2680 4720
2026-02-01 21:00 13200 (1999) 2 (1931) 923 6 9 23 31 157 450 1060 2680 4720
2026-02-01 20:30 13200 (1999) 2 (1931) 923 6 9 23 31 157 450 1060 2680 4720
2026-02-01 20:00 13200 (1999) 2 (1931) 923 6 9 23 31 157 450 1060 2680 4720
2026-02-01 19:30 13200 (1999) 2 (1931) 923 6 9 23 31 157 450 1060 2680 4720
2026-02-01 19:00 13200 (1999) 2 (1931) 923 6 9 23 31 157 450 1060 2680 4720
2026-02-01 18:30 13200 (1999) 2 (1931) 923 6 9 23 31 157 450 1060 2680 4720
2026-02-01 18:00 13200 (1999) 2 (1931) 923 6 9 23 31 157 450 1060 2680 4720
2026-02-01 17:30 13200 (1999) 2 (1931) 923 6 9 23 31 157 450 1060 2680 4720
2026-02-01 17:00 13200 (1999) 2 (1931) 923 6 9 23 31 157 450 1060 2680 4720
2026-02-01 16:30 13200 (1999) 2 (1931) 923 6 9 23 31 157 450 1060 2680 4720
2026-02-01 16:00 13200 (1999) 2 (1931) 923 6 9 23 31 157 450 1060 2680 4720
2026-02-01 15:30 13200 (1999) 2 (1931) 923 6 9 23 31 157 450 1060 2680 4720
2026-02-01 15:00 13200 (1999) 2 (1931) 923 6 9 23 31 157 450 1060 2680 4720
2026-02-01 14:30 13200 (1999) 2 (1931) 923 6 9 23 31 157 450 1060 2680 4720
2026-02-01 14:00 13200 (1999) 2 (1931) 923 6 9 23 31 157 450 1060 2680 4720
2026-02-01 13:30 13200 (1999) 2 (1931) 923 6 9 23 31 157 450 1060 2680 4720
2026-02-01 13:00 13200 (1999) 2 (1931) 923 6 9 23 31 157 450 1060 2680 4720
2026-02-01 12:30 13200 (1999) 2 (1931) 923 6 9 23 31 157 450 1060 2680 4720
2026-02-01 12:00 13200 (1999) 2 (1931) 923 6 9 23 31 157 450 1060 2680 4720
2026-02-01 11:30 13200 (1999) 2 (1931) 923 6 9 23 31 157 450 1060 2680 4720
2026-02-01 11:00 13200 (1999) 2 (1931) 923 6 9 23 31 157 450 1060 2680 4720
2026-02-01 10:30 13200 (1999) 2 (1931) 923 6 9 23 31 157 450 1060 2680 4720
2026-02-01 10:00 13200 (1999) 2 (1931) 923 6 9 23 31 157 450 1060 2680 4720
2026-02-01 09:30 13200 (1999) 2 (1931) 923 6 9 23 31 157 450 1060 2680 4720
2026-02-01 09:00 13200 (1999) 2 (1931) 923 6 9 23 31 157 450 1060 2680 4720
2026-02-01 08:30 13200 (1999) 2 (1931) 923 6 9 23 31 157 450 1060 2680 4720
2026-02-01 08:00 13200 (1999) 2 (1931) 923 6 9 23 31 157 450 1060 2680 4720
2026-02-01 07:30 13200 (1999) 2 (1931) 923 6 9 23 31 157 450 1060 2680 4720
2026-02-01 07:00 13200 (1999) 2 (1931) 923 6 9 23 31 157 450 1060 2680 4720
2026-02-01 06:30 13200 (1999) 2 (1931) 923 6 9 23 31 157 450 1060 2680 4720
2026-02-01 06:00 13200 (1999) 2 (1931) 923 6 9 23 31 157 450 1060 2680 4720
2026-02-01 05:30 13200 (1999) 2 (1931) 923 6 9 23 31 157 450 1060 2680 4720
2026-02-01 05:00 13200 (1999) 2 (1931) 923 6 9 23 31 157 450 1060 2680 4720
2026-02-01 04:30 13200 (1999) 2 (1931) 923 6 9 23 31 157 450 1060 2680 4720
2026-02-01 04:00 13200 (1999) 2 (1931) 923 6 9 23 31 157 450 1060 2680 4720
2026-02-01 03:30 13200 (1999) 2 (1931) 923 6 9 23 31 157 450 1060 2680 4720
2026-02-01 03:00 13200 (1999) 2 (1931) 923 6 9 23 31 157 450 1060 2680 4720
2026-02-01 02:30 13200 (1999) 2 (1931) 923 6 9 23 31 157 450 1060 2680 4720
2026-02-01 02:00 13200 (1999) 2 (1931) 923 6 9 23 31 157 450 1060 2680 4720
2026-02-01 01:30 13200 (1999) 2 (1931) 923 6 9 23 31 157 450 1060 2680 4720
2026-02-01 01:00 13200 (1999) 2 (1931) 923 6 9 23 31 157 450 1060 2680 4720
2026-02-01 00:30 13200 (1999) 2 (1931) 923 6 9 23 31 157 450 1060 2680 4720
2026-02-01 00:00 13200 (1999) 2 (1931) 923 6 9 23 31 157 450 1060 2680 4720
2026-01-31 23:30 13200 (1999) 2 (1931) 923 6 9 23 31 157 450 1060 2680 4720
2026-01-31 23:00 13200 (1999) 2 (1931) 923 6 9 23 31 157 450 1060 2680 4720
2026-01-31 22:30 14100 (2002) 2 (1931) 1040 6 9 23 33 163 507 972 3070 5440
2026-01-31 22:00 14100 (2002) 2 (1931) 1040 6 9 23 33 163 507 972 3070 5440
2026-01-31 21:30 14100 (2002) 2 (1931) 1040 6 9 23 33 163 507 972 3070 5440
2026-01-31 21:00 14100 (2002) 2 (1931) 1040 6 9 23 33 163 507 972 3070 5440
2026-01-31 20:30 14100 (2002) 2 (1931) 1040 6 9 23 33 163 507 972 3070 5440
2026-01-31 20:00 14100 (2002) 2 (1931) 1040 6 9 23 33 163 507 972 3070 5440
2026-01-31 19:30 14100 (2002) 2 (1931) 1040 6 9 23 33 163 507 972 3070 5440
2026-01-31 19:00 14100 (2002) 2 (1931) 1040 6 9 23 33 163 507 972 3070 5440
2026-01-31 18:30 14100 (2002) 2 (1931) 1040 6 9 23 33 163 507 972 3070 5440
2026-01-31 18:00 14100 (2002) 2 (1931) 1040 6 9 23 33 163 507 972 3070 5440
2026-01-31 17:30 14100 (2002) 2 (1931) 1040 6 9 23 33 163 507 972 3070 5440
2026-01-31 17:00 14100 (2002) 2 (1931) 1040 6 9 23 33 163 507 972 3070 5440
2026-01-31 16:30 14100 (2002) 2 (1931) 1040 6 9 23 33 163 507 972 3070 5440
2026-01-31 16:00 14100 (2002) 2 (1931) 1040 6 9 23 33 163 507 972 3070 5440
2026-01-31 15:30 14100 (2002) 2 (1931) 1040 6 9 23 33 163 507 972 3070 5440
2026-01-31 15:00 14100 (2002) 2 (1931) 1040 6 9 23 33 163 507 972 3070 5440
2026-01-31 14:30 14100 (2002) 2 (1931) 1040 6 9 23 33 163 507 972 3070 5440
2026-01-31 14:00 14100 (2002) 2 (1931) 1040 6 9 23 33 163 507 972 3070 5440
2026-01-31 13:30 14100 (2002) 2 (1931) 1040 6 9 23 33 163 507 972 3070 5440
2026-01-31 13:00 14100 (2002) 2 (1931) 1040 6 9 23 33 163 507 972 3070 5440
2026-01-31 12:30 14100 (2002) 2 (1931) 1040 6 9 23 33 163 507 972 3070 5440
2026-01-31 12:00 14100 (2002) 2 (1931) 1040 6 9 23 33 163 507 972 3070 5440
2026-01-31 11:30 14100 (2002) 2 (1931) 1040 6 9 23 33 163 507 972 3070 5440
2026-01-31 11:00 14100 (2002) 2 (1931) 1040 6 9 23 33 163 507 972 3070 5440
2026-01-31 10:30 14100 (2002) 2 (1931) 1040 6 9 23 33 163 507 972 3070 5440
2026-01-31 10:00 14100 (2002) 2 (1931) 1040 6 9 23 33 163 507 972 3070 5440
2026-01-31 09:30 14100 (2002) 2 (1931) 1040 6 9 23 33 163 507 972 3070 5440
2026-01-31 09:00 14100 (2002) 2 (1931) 1040 6 9 23 33 163 507 972 3070 5440
2026-01-31 08:30 14100 (2002) 2 (1931) 1040 6 9 23 33 163 507 972 3070 5440
2026-01-31 08:00 14100 (2002) 2 (1931) 1040 6 9 23 33 163 507 972 3070 5440
2026-01-31 07:30 14100 (2002) 2 (1931) 1040 6 9 23 33 163 507 972 3070 5440
2026-01-31 07:00 14100 (2002) 2 (1931) 1040 6 9 23 33 163 507 972 3070 5440
2026-01-31 06:30 14100 (2002) 2 (1931) 1040 6 9 23 33 163 507 972 3070 5440
2026-01-31 06:00 14100 (2002) 2 (1931) 1040 6 9 23 33 163 507 972 3070 5440
2026-01-31 05:30 14100 (2002) 2 (1931) 1040 6 9 23 33 163 507 972 3070 5440
2026-01-31 05:00 14100 (2002) 2 (1931) 1040 6 9 23 33 163 507 972 3070 5440
2026-01-31 04:30 14100 (2002) 2 (1931) 1040 6 9 23 33 163 507 972 3070 5440
2026-01-31 04:00 14100 (2002) 2 (1931) 1040 6 9 23 33 163 507 972 3070 5440
2026-01-31 03:30 14100 (2002) 2 (1931) 1040 6 9 23 33 163 507 972 3070 5440
2026-01-31 03:00 14100 (2002) 2 (1931) 1040 6 9 23 33 163 507 972 3070 5440
2026-01-31 02:30 14100 (2002) 2 (1931) 1040 6 9 23 33 163 507 972 3070 5440
2026-01-31 02:00 14100 (2002) 2 (1931) 1040 6 9 23 33 163 507 972 3070 5440
2026-01-31 01:30 14100 (2002) 2 (1931) 1040 6 9 23 33 163 507 972 3070 5440
2026-01-31 01:00 14100 (2002) 2 (1931) 1040 6 9 23 33 163 507 972 3070 5440
2026-01-31 00:30 14100 (2002) 2 (1931) 1040 6 9 23 33 163 507 972 3070 5440
2026-01-31 00:00 14100 (2002) 2 (1931) 1040 6 9 23 33 163 507 972 3070 5440
2026-01-30 23:30 14100 (2002) 2 (1931) 1040 6 9 23 33 163 507 972 3070 5440
2026-01-30 23:00 14100 (2002) 2 (1931) 1040 6 9 23 33 163 507 972 3070 5440
2026-01-30 22:30 17500 (2001) 2 (1931) 866 6 10 23 33 131 434 604 2340 4830
2026-01-30 22:00 17500 (2001) 2 (1931) 866 6 10 23 33 131 434 604 2340 4830
2026-01-30 21:30 17500 (2001) 2 (1931) 866 6 10 23 33 131 434 604 2340 4830
2026-01-30 21:00 17500 (2001) 2 (1931) 866 6 10 23 33 131 434 604 2340 4830
2026-01-30 20:30 17500 (2001) 2 (1931) 866 6 10 23 33 131 434 604 2340 4830
2026-01-30 20:00 17500 (2001) 2 (1931) 866 6 10 23 33 131 434 604 2340 4830
2026-01-30 19:30 17500 (2001) 2 (1931) 866 6 10 23 33 131 434 604 2340 4830
2026-01-30 19:00 17500 (2001) 2 (1931) 866 6 10 23 33 131 434 604 2340 4830
2026-01-30 18:30 17500 (2001) 2 (1931) 866 6 10 23 33 131 434 604 2340 4830
2026-01-30 18:00 17500 (2001) 2 (1931) 866 6 10 23 33 131 434 604 2340 4830
2026-01-30 17:30 17500 (2001) 2 (1931) 866 6 10 23 33 131 434 604 2340 4830
2026-01-30 17:00 17500 (2001) 2 (1931) 866 6 10 23 33 131 434 604 2340 4830
2026-01-30 16:30 17500 (2001) 2 (1931) 866 6 10 23 33 131 434 604 2340 4830
2026-01-30 16:00 17500 (2001) 2 (1931) 866 6 10 23 33 131 434 604 2340 4830
2026-01-30 15:30 17500 (2001) 2 (1931) 866 6 10 23 33 131 434 604 2340 4830
2026-01-30 15:00 17500 (2001) 2 (1931) 866 6 10 23 33 131 434 604 2340 4830
2026-01-30 14:30 17500 (2001) 2 (1931) 866 6 10 23 33 131 434 604 2340 4830
2026-01-30 14:00 17500 (2001) 2 (1931) 866 6 10 23 33 131 434 604 2340 4830
2026-01-30 13:30 17500 (2001) 2 (1931) 866 6 10 23 33 131 434 604 2340 4830
2026-01-30 13:00 17500 (2001) 2 (1931) 866 6 10 23 33 131 434 604 2340 4830
2026-01-30 12:30 17500 (2001) 2 (1931) 866 6 10 23 33 131 434 604 2340 4830
2026-01-30 12:00 17500 (2001) 2 (1931) 866 6 10 23 33 131 434 604 2340 4830
2026-01-30 11:30 17500 (2001) 2 (1931) 866 6 10 23 33 131 434 604 2340 4830
2026-01-30 11:00 17500 (2001) 2 (1931) 866 6 10 23 33 131 434 604 2340 4830
2026-01-30 10:30 17500 (2001) 2 (1931) 866 6 10 23 33 131 434 604 2340 4830
2026-01-30 10:00 17500 (2001) 2 (1931) 866 6 10 23 33 131 434 604 2340 4830
2026-01-30 09:30 17500 (2001) 2 (1931) 866 6 10 23 33 131 434 604 2340 4830
2026-01-30 09:00 5.64 17500 (2001) 2 (1931) 866 6 10 23 33 131 434 604 2340 4830
2026-01-30 08:30 5.64 17500 (2001) 2 (1931) 866 6 10 23 33 131 434 604 2340 4830
2026-01-30 08:00 17500 (2001) 2 (1931) 866 6 10 23 33 131 434 604 2340 4830
2026-01-30 07:30 5.54 17500 (2001) 2 (1931) 866 6 10 23 33 131 434 604 2340 4830
2026-01-30 07:00 5.58 17500 (2001) 2 (1931) 866 6 10 23 33 131 434 604 2340 4830
2026-01-30 06:30 5.68 17500 (2001) 2 (1931) 866 6 10 23 33 131 434 604 2340 4830
2026-01-30 06:00 5.68 17500 (2001) 2 (1931) 866 6 10 23 33 131 434 604 2340 4830
2026-01-30 05:30 5.65 17500 (2001) 2 (1931) 866 6 10 23 33 131 434 604 2340 4830
2026-01-30 05:00 5.60 17500 (2001) 2 (1931) 866 6 10 23 33 131 434 604 2340 4830
2026-01-30 04:30 5.57 17500 (2001) 2 (1931) 866 6 10 23 33 131 434 604 2340 4830
2026-01-30 04:00 5.57 17500 (2001) 2 (1931) 866 6 10 23 33 131 434 604 2340 4830
2026-01-30 03:30 5.58 17500 (2001) 2 (1931) 866 6 10 23 33 131 434 604 2340 4830
2026-01-30 03:00 5.58 17500 (2001) 2 (1931) 866 6 10 23 33 131 434 604 2340 4830
2026-01-30 02:30 5.62 17500 (2001) 2 (1931) 866 6 10 23 33 131 434 604 2340 4830
2026-01-30 02:00 17500 (2001) 2 (1931) 866 6 10 23 33 131 434 604 2340 4830
2026-01-30 01:30 17500 (2001) 2 (1931) 866 6 10 23 33 131 434 604 2340 4830
2026-01-30 01:00 5.59 17500 (2001) 2 (1931) 866 6 10 23 33 131 434 604 2340 4830
2026-01-30 00:30 17500 (2001) 2 (1931) 866 6 10 23 33 131 434 604 2340 4830
2026-01-30 00:00 5.65 17500 (2001) 2 (1931) 866 6 10 23 33 131 434 604 2340 4830
2026-01-29 23:30 17500 (2001) 2 (1931) 866 6 10 23 33 131 434 604 2340 4830
2026-01-29 23:00 5.60 17500 (2001) 2 (1931) 866 6 10 23 33 131 434 604 2340 4830
2026-01-29 22:30 5.68 9500 (1995) 2 (1931) 494 5 9 28 37 126 434 558 1460 2340
2026-01-29 22:00 5.69 9500 (1995) 2 (1931) 494 5 9 28 37 126 434 558 1460 2340
2026-01-29 21:30 9500 (1995) 2 (1931) 494 5 9 28 37 126 434 558 1460 2340
2026-01-29 21:00 5.72 9500 (1995) 2 (1931) 494 5 9 28 37 126 434 558 1460 2340
2026-01-29 20:30 5.76 9500 (1995) 2 (1931) 494 5 9 28 37 126 434 558 1460 2340
2026-01-29 20:00 9500 (1995) 2 (1931) 494 5 9 28 37 126 434 558 1460 2340
2026-01-29 19:30 5.59 9500 (1995) 2 (1931) 494 5 9 28 37 126 434 558 1460 2340
2026-01-29 19:00 5.74 9500 (1995) 2 (1931) 494 5 9 28 37 126 434 558 1460 2340
2026-01-29 18:30 5.66 9500 (1995) 2 (1931) 494 5 9 28 37 126 434 558 1460 2340
2026-01-29 18:00 5.53 9500 (1995) 2 (1931) 494 5 9 28 37 126 434 558 1460 2340
2026-01-29 17:30 5.54 9500 (1995) 2 (1931) 494 5 9 28 37 126 434 558 1460 2340
2026-01-29 17:00 9500 (1995) 2 (1931) 494 5 9 28 37 126 434 558 1460 2340
2026-01-29 16:30 9500 (1995) 2 (1931) 494 5 9 28 37 126 434 558 1460 2340
2026-01-29 16:00 5.43 9500 (1995) 2 (1931) 494 5 9 28 37 126 434 558 1460 2340
2026-01-29 15:30 5.39 9500 (1995) 2 (1931) 494 5 9 28 37 126 434 558 1460 2340
2026-01-29 15:00 9500 (1995) 2 (1931) 494 5 9 28 37 126 434 558 1460 2340
2026-01-29 14:30 5.41 9500 (1995) 2 (1931) 494 5 9 28 37 126 434 558 1460 2340
2026-01-29 14:00 5.41 9500 (1995) 2 (1931) 494 5 9 28 37 126 434 558 1460 2340
2026-01-29 13:30 9500 (1995) 2 (1931) 494 5 9 28 37 126 434 558 1460 2340
2026-01-29 13:00 9500 (1995) 2 (1931) 494 5 9 28 37 126 434 558 1460 2340
2026-01-29 12:30 9500 (1995) 2 (1931) 494 5 9 28 37 126 434 558 1460 2340
2026-01-29 12:00 5.42 9500 (1995) 2 (1931) 494 5 9 28 37 126 434 558 1460 2340
2026-01-29 11:30 9500 (1995) 2 (1931) 494 5 9 28 37 126 434 558 1460 2340
2026-01-29 11:00 5.33 9500 (1995) 2 (1931) 494 5 9 28 37 126 434 558 1460 2340
2026-01-29 10:30 5.29 9500 (1995) 2 (1931) 494 5 9 28 37 126 434 558 1460 2340
2026-01-29 10:00 9500 (1995) 2 (1931) 494 5 9 28 37 126 434 558 1460 2340
2026-01-29 09:30 5.37 9500 (1995) 2 (1931) 494 5 9 28 37 126 434 558 1460 2340
2026-01-29 09:00 5.41 9500 (1995) 2 (1931) 494 5 9 28 37 126 434 558 1460 2340
2026-01-29 08:30 5.39 9500 (1995) 2 (1931) 494 5 9 28 37 126 434 558 1460 2340
2026-01-29 08:00 5.33 9500 (1995) 2 (1931) 494 5 9 28 37 126 434 558 1460 2340
2026-01-29 07:30 9500 (1995) 2 (1931) 494 5 9 28 37 126 434 558 1460 2340
2026-01-29 07:00 5.33 9500 (1995) 2 (1931) 494 5 9 28 37 126 434 558 1460 2340
2026-01-29 06:30 5.28 9500 (1995) 2 (1931) 494 5 9 28 37 126 434 558 1460 2340
2026-01-29 06:00 5.35 9500 (1995) 2 (1931) 494 5 9 28 37 126 434 558 1460 2340
2026-01-29 05:30 5.84 9500 (1995) 2 (1931) 494 5 9 28 37 126 434 558 1460 2340
2026-01-29 05:00 5.56 9500 (1995) 2 (1931) 494 5 9 28 37 126 434 558 1460 2340
2026-01-29 04:30 5.41 9500 (1995) 2 (1931) 494 5 9 28 37 126 434 558 1460 2340
2026-01-29 04:00 5.86 9500 (1995) 2 (1931) 494 5 9 28 37 126 434 558 1460 2340
2026-01-29 03:30 5.88 9500 (1995) 2 (1931) 494 5 9 28 37 126 434 558 1460 2340
2026-01-29 03:00 5.90 9500 (1995) 2 (1931) 494 5 9 28 37 126 434 558 1460 2340
2026-01-29 02:30 9500 (1995) 2 (1931) 494 5 9 28 37 126 434 558 1460 2340
2026-01-29 02:00 5.69 9500 (1995) 2 (1931) 494 5 9 28 37 126 434 558 1460 2340
2026-01-29 01:30 9500 (1995) 2 (1931) 494 5 9 28 37 126 434 558 1460 2340
2026-01-29 01:00 5.73 9500 (1995) 2 (1931) 494 5 9 28 37 126 434 558 1460 2340
2026-01-29 00:30 5.73 9500 (1995) 2 (1931) 494 5 9 28 37 126 434 558 1460 2340
2026-01-29 00:00 9500 (1995) 2 (1931) 494 5 9 28 37 126 434 558 1460 2340
2026-01-28 23:30 5.65 9500 (1995) 2 (1931) 494 5 9 28 37 126 434 558 1460 2340
2026-01-28 23:00 9500 (1995) 2 (1931) 494 5 9 28 37 126 434 558 1460 2340
2026-01-28 22:30 5.62 12600 (1995) 2 (1931) 558 5 10 25 33 133 495 545 858 1870
2026-01-28 22:00 5.64 12600 (1995) 2 (1931) 558 5 10 25 33 133 495 545 858 1870
2026-01-28 21:30 5.65 12600 (1995) 2 (1931) 558 5 10 25 33 133 495 545 858 1870
2026-01-28 21:00 5.69 12600 (1995) 2 (1931) 558 5 10 25 33 133 495 545 858 1870
2026-01-28 20:30 5.80 12600 (1995) 2 (1931) 558 5 10 25 33 133 495 545 858 1870
2026-01-28 20:00 12600 (1995) 2 (1931) 558 5 10 25 33 133 495 545 858 1870
2026-01-28 19:30 5.84 12600 (1995) 2 (1931) 558 5 10 25 33 133 495 545 858 1870
2026-01-28 19:00 5.40 12600 (1995) 2 (1931) 558 5 10 25 33 133 495 545 858 1870
2026-01-28 18:30 5.23 12600 (1995) 2 (1931) 558 5 10 25 33 133 495 545 858 1870
2026-01-28 18:00 5.59 12600 (1995) 2 (1931) 558 5 10 25 33 133 495 545 858 1870
2026-01-28 17:30 5.64 12600 (1995) 2 (1931) 558 5 10 25 33 133 495 545 858 1870
2026-01-28 17:00 12600 (1995) 2 (1931) 558 5 10 25 33 133 495 545 858 1870
2026-01-28 16:30 5.56 12600 (1995) 2 (1931) 558 5 10 25 33 133 495 545 858 1870
2026-01-28 16:00 12600 (1995) 2 (1931) 558 5 10 25 33 133 495 545 858 1870
2026-01-28 15:30 5.60 12600 (1995) 2 (1931) 558 5 10 25 33 133 495 545 858 1870
2026-01-28 15:00 12600 (1995) 2 (1931) 558 5 10 25 33 133 495 545 858 1870
2026-01-28 14:30 5.66 12600 (1995) 2 (1931) 558 5 10 25 33 133 495 545 858 1870
2026-01-28 14:00 12600 (1995) 2 (1931) 558 5 10 25 33 133 495 545 858 1870
2026-01-28 13:30 5.62 12600 (1995) 2 (1931) 558 5 10 25 33 133 495 545 858 1870
2026-01-28 13:00 12600 (1995) 2 (1931) 558 5 10 25 33 133 495 545 858 1870
2026-01-28 12:30 5.64 12600 (1995) 2 (1931) 558 5 10 25 33 133 495 545 858 1870
2026-01-28 12:00 12600 (1995) 2 (1931) 558 5 10 25 33 133 495 545 858 1870
2026-01-28 11:30 12600 (1995) 2 (1931) 558 5 10 25 33 133 495 545 858 1870
2026-01-28 11:00 5.63 12600 (1995) 2 (1931) 558 5 10 25 33 133 495 545 858 1870
2026-01-28 10:30 5.50 12600 (1995) 2 (1931) 558 5 10 25 33 133 495 545 858 1870
2026-01-28 10:00 12600 (1995) 2 (1931) 558 5 10 25 33 133 495 545 858 1870
2026-01-28 09:30 5.55 12600 (1995) 2 (1931) 558 5 10 25 33 133 495 545 858 1870
2026-01-28 09:00 5.56 12600 (1995) 2 (1931) 558 5 10 25 33 133 495 545 858 1870
2026-01-28 08:30 12600 (1995) 2 (1931) 558 5 10 25 33 133 495 545 858 1870
2026-01-28 08:00 5.58 12600 (1995) 2 (1931) 558 5 10 25 33 133 495 545 858 1870
2026-01-28 07:30 5.62 12600 (1995) 2 (1931) 558 5 10 25 33 133 495 545 858 1870
2026-01-28 07:00 5.62 12600 (1995) 2 (1931) 558 5 10 25 33 133 495 545 858 1870
2026-01-28 06:30 5.58 12600 (1995) 2 (1931) 558 5 10 25 33 133 495 545 858 1870
2026-01-28 06:00 5.59 12600 (1995) 2 (1931) 558 5 10 25 33 133 495 545 858 1870
2026-01-28 05:30 5.63 12600 (1995) 2 (1931) 558 5 10 25 33 133 495 545 858 1870
2026-01-28 05:00 5.68 12600 (1995) 2 (1931) 558 5 10 25 33 133 495 545 858 1870
2026-01-28 04:30 5.65 12600 (1995) 2 (1931) 558 5 10 25 33 133 495 545 858 1870
2026-01-28 04:00 5.64 12600 (1995) 2 (1931) 558 5 10 25 33 133 495 545 858 1870
2026-01-28 03:30 5.61 12600 (1995) 2 (1931) 558 5 10 25 33 133 495 545 858 1870
2026-01-28 03:00 5.59 12600 (1995) 2 (1931) 558 5 10 25 33 133 495 545 858 1870
2026-01-28 02:30 12600 (1995) 2 (1931) 558 5 10 25 33 133 495 545 858 1870
2026-01-28 02:00 5.63 12600 (1995) 2 (1931) 558 5 10 25 33 133 495 545 858 1870
2026-01-28 01:30 12600 (1995) 2 (1931) 558 5 10 25 33 133 495 545 858 1870
2026-01-28 01:00 5.61 12600 (1995) 2 (1931) 558 5 10 25 33 133 495 545 858 1870
2026-01-28 00:30 12600 (1995) 2 (1931) 558 5 10 25 33 133 495 545 858 1870
2026-01-28 00:00 12600 (1995) 2 (1931) 558 5 10 25 33 133 495 545 858 1870
2026-01-27 23:30 5.64 12600 (1995) 2 (1931) 558 5 10 25 33 133 495 545 858 1870
2026-01-27 23:00 5.69 12600 (1995) 2 (1931) 558 5 10 25 33 133 495 545 858 1870
2026-01-27 22:30 5.69 6490 (1962) 2 (1931) 442 5 11 26 35 121 449 686 1130 2090
2026-01-27 22:00 5.66 6490 (1962) 2 (1931) 442 5 11 26 35 121 449 686 1130 2090
2026-01-27 21:30 5.66 6490 (1962) 2 (1931) 442 5 11 26 35 121 449 686 1130 2090
2026-01-27 21:00 5.72 6490 (1962) 2 (1931) 442 5 11 26 35 121 449 686 1130 2090
2026-01-27 20:30 5.54 6490 (1962) 2 (1931) 442 5 11 26 35 121 449 686 1130 2090
2026-01-27 20:00 6490 (1962) 2 (1931) 442 5 11 26 35 121 449 686 1130 2090
2026-01-27 19:30 5.55 6490 (1962) 2 (1931) 442 5 11 26 35 121 449 686 1130 2090
2026-01-27 19:00 5.72 6490 (1962) 2 (1931) 442 5 11 26 35 121 449 686 1130 2090
2026-01-27 18:30 5.60 6490 (1962) 2 (1931) 442 5 11 26 35 121 449 686 1130 2090
2026-01-27 18:00 5.66 6490 (1962) 2 (1931) 442 5 11 26 35 121 449 686 1130 2090
2026-01-27 17:30 5.69 6490 (1962) 2 (1931) 442 5 11 26 35 121 449 686 1130 2090
2026-01-27 17:00 6490 (1962) 2 (1931) 442 5 11 26 35 121 449 686 1130 2090
2026-01-27 16:30 5.62 6490 (1962) 2 (1931) 442 5 11 26 35 121 449 686 1130 2090
2026-01-27 16:00 6490 (1962) 2 (1931) 442 5 11 26 35 121 449 686 1130 2090
2026-01-27 15:30 6490 (1962) 2 (1931) 442 5 11 26 35 121 449 686 1130 2090
2026-01-27 15:00 5.44 6490 (1962) 2 (1931) 442 5 11 26 35 121 449 686 1130 2090
2026-01-27 14:30 6490 (1962) 2 (1931) 442 5 11 26 35 121 449 686 1130 2090
2026-01-27 14:00 5.68 6490 (1962) 2 (1931) 442 5 11 26 35 121 449 686 1130 2090
2026-01-27 13:30 6490 (1962) 2 (1931) 442 5 11 26 35 121 449 686 1130 2090
2026-01-27 13:00 6490 (1962) 2 (1931) 442 5 11 26 35 121 449 686 1130 2090
2026-01-27 12:30 6490 (1962) 2 (1931) 442 5 11 26 35 121 449 686 1130 2090
2026-01-27 12:00 5.51 6490 (1962) 2 (1931) 442 5 11 26 35 121 449 686 1130 2090
2026-01-27 11:30 6490 (1962) 2 (1931) 442 5 11 26 35 121 449 686 1130 2090
2026-01-27 11:00 6490 (1962) 2 (1931) 442 5 11 26 35 121 449 686 1130 2090
2026-01-27 10:30 6490 (1962) 2 (1931) 442 5 11 26 35 121 449 686 1130 2090
2026-01-27 10:00 5.68 6490 (1962) 2 (1931) 442 5 11 26 35 121 449 686 1130 2090
2026-01-27 09:30 5.60 6490 (1962) 2 (1931) 442 5 11 26 35 121 449 686 1130 2090
2026-01-27 09:00 5.84 6490 (1962) 2 (1931) 442 5 11 26 35 121 449 686 1130 2090
2026-01-27 08:30 6490 (1962) 2 (1931) 442 5 11 26 35 121 449 686 1130 2090
2026-01-27 08:00 6.00 6490 (1962) 2 (1931) 442 5 11 26 35 121 449 686 1130 2090
2026-01-27 07:30 5.81 6490 (1962) 2 (1931) 442 5 11 26 35 121 449 686 1130 2090
2026-01-27 07:00 5.77 6490 (1962) 2 (1931) 442 5 11 26 35 121 449 686 1130 2090
2026-01-27 06:30 5.72 6490 (1962) 2 (1931) 442 5 11 26 35 121 449 686 1130 2090
2026-01-27 06:00 6490 (1962) 2 (1931) 442 5 11 26 35 121 449 686 1130 2090
2026-01-27 05:30 5.56 6490 (1962) 2 (1931) 442 5 11 26 35 121 449 686 1130 2090
2026-01-27 05:00 6490 (1962) 2 (1931) 442 5 11 26 35 121 449 686 1130 2090
2026-01-27 04:30 5.63 6490 (1962) 2 (1931) 442 5 11 26 35 121 449 686 1130 2090
2026-01-27 04:00 6490 (1962) 2 (1931) 442 5 11 26 35 121 449 686 1130 2090
2026-01-27 03:30 5.80 6490 (1962) 2 (1931) 442 5 11 26 35 121 449 686 1130 2090
2026-01-27 03:00 6490 (1962) 2 (1931) 442 5 11 26 35 121 449 686 1130 2090
2026-01-27 02:30 5.70 6490 (1962) 2 (1931) 442 5 11 26 35 121 449 686 1130 2090
2026-01-27 02:00 6490 (1962) 2 (1931) 442 5 11 26 35 121 449 686 1130 2090
2026-01-27 01:30 6490 (1962) 2 (1931) 442 5 11 26 35 121 449 686 1130 2090
2026-01-27 01:00 5.11 6490 (1962) 2 (1931) 442 5 11 26 35 121 449 686 1130 2090
2026-01-27 00:30 5.07 6490 (1962) 2 (1931) 442 5 11 26 35 121 449 686 1130 2090
2026-01-27 00:00 6490 (1962) 2 (1931) 442 5 11 26 35 121 449 686 1130 2090
2026-01-26 23:30 5.07 6490 (1962) 2 (1931) 442 5 11 26 35 121 449 686 1130 2090
2026-01-26 23:00 6490 (1962) 2 (1931) 442 5 11 26 35 121 449 686 1130 2090
2026-01-26 22:30 5.09 5680 (1970) 2 (1954) 510 5 11 28 37 128 468 807 1470 2620
2026-01-26 22:00 5.09 5680 (1970) 2 (1954) 510 5 11 28 37 128 468 807 1470 2620
2026-01-26 21:30 5.09 5680 (1970) 2 (1954) 510 5 11 28 37 128 468 807 1470 2620
2026-01-26 21:00 5680 (1970) 2 (1954) 510 5 11 28 37 128 468 807 1470 2620
2026-01-26 20:30 5.10 5680 (1970) 2 (1954) 510 5 11 28 37 128 468 807 1470 2620
2026-01-26 20:00 5.11 5680 (1970) 2 (1954) 510 5 11 28 37 128 468 807 1470 2620
2026-01-26 19:30 5.11 5680 (1970) 2 (1954) 510 5 11 28 37 128 468 807 1470 2620
2026-01-26 19:00 5.12 5680 (1970) 2 (1954) 510 5 11 28 37 128 468 807 1470 2620
2026-01-26 18:30 5.12 5680 (1970) 2 (1954) 510 5 11 28 37 128 468 807 1470 2620
2026-01-26 18:00 5680 (1970) 2 (1954) 510 5 11 28 37 128 468 807 1470 2620
2026-01-26 17:30 5.13 5680 (1970) 2 (1954) 510 5 11 28 37 128 468 807 1470 2620
2026-01-26 17:00 5.13 5680 (1970) 2 (1954) 510 5 11 28 37 128 468 807 1470 2620
2026-01-26 16:30 5.13 5680 (1970) 2 (1954) 510 5 11 28 37 128 468 807 1470 2620
2026-01-26 16:00 5680 (1970) 2 (1954) 510 5 11 28 37 128 468 807 1470 2620
2026-01-26 15:30 5680 (1970) 2 (1954) 510 5 11 28 37 128 468 807 1470 2620
2026-01-26 15:00 5.13 5680 (1970) 2 (1954) 510 5 11 28 37 128 468 807 1470 2620
2026-01-26 14:30 5680 (1970) 2 (1954) 510 5 11 28 37 128 468 807 1470 2620
2026-01-26 14:00 5.13 5680 (1970) 2 (1954) 510 5 11 28 37 128 468 807 1470 2620
2026-01-26 13:30 5680 (1970) 2 (1954) 510 5 11 28 37 128 468 807 1470 2620
2026-01-26 13:00 5680 (1970) 2 (1954) 510 5 11 28 37 128 468 807 1470 2620
2026-01-26 12:30 5680 (1970) 2 (1954) 510 5 11 28 37 128 468 807 1470 2620
2026-01-26 12:00 5.13 5680 (1970) 2 (1954) 510 5 11 28 37 128 468 807 1470 2620
2026-01-26 11:30 5680 (1970) 2 (1954) 510 5 11 28 37 128 468 807 1470 2620
2026-01-26 11:00 5.13 5680 (1970) 2 (1954) 510 5 11 28 37 128 468 807 1470 2620
2026-01-26 10:30 5680 (1970) 2 (1954) 510 5 11 28 37 128 468 807 1470 2620
2026-01-26 10:00 5.13 5680 (1970) 2 (1954) 510 5 11 28 37 128 468 807 1470 2620
2026-01-26 09:30 5680 (1970) 2 (1954) 510 5 11 28 37 128 468 807 1470 2620
2026-01-26 09:00 5.13 5680 (1970) 2 (1954) 510 5 11 28 37 128 468 807 1470 2620
2026-01-26 08:30 5680 (1970) 2 (1954) 510 5 11 28 37 128 468 807 1470 2620
2026-01-26 08:00 5.14 5680 (1970) 2 (1954) 510 5 11 28 37 128 468 807 1470 2620
2026-01-26 07:30 5.13 5680 (1970) 2 (1954) 510 5 11 28 37 128 468 807 1470 2620
2026-01-26 07:00 5680 (1970) 2 (1954) 510 5 11 28 37 128 468 807 1470 2620
2026-01-26 06:30 5.13 5680 (1970) 2 (1954) 510 5 11 28 37 128 468 807 1470 2620
2026-01-26 06:00 5.13 5680 (1970) 2 (1954) 510 5 11 28 37 128 468 807 1470 2620
2026-01-26 05:30 5.13 5680 (1970) 2 (1954) 510 5 11 28 37 128 468 807 1470 2620
2026-01-26 05:00 5.12 5680 (1970) 2 (1954) 510 5 11 28 37 128 468 807 1470 2620
2026-01-26 04:30 5.12 5680 (1970) 2 (1954) 510 5 11 28 37 128 468 807 1470 2620
2026-01-26 04:00 5.12 5680 (1970) 2 (1954) 510 5 11 28 37 128 468 807 1470 2620
2026-01-26 03:30 5.11 5680 (1970) 2 (1954) 510 5 11 28 37 128 468 807 1470 2620
2026-01-26 03:00 5.10 5680 (1970) 2 (1954) 510 5 11 28 37 128 468 807 1470 2620
2026-01-26 02:30 5.10 5680 (1970) 2 (1954) 510 5 11 28 37 128 468 807 1470 2620
2026-01-26 02:00 5680 (1970) 2 (1954) 510 5 11 28 37 128 468 807 1470 2620
2026-01-26 01:30 5.10 5680 (1970) 2 (1954) 510 5 11 28 37 128 468 807 1470 2620
2026-01-26 01:00 5.09 5680 (1970) 2 (1954) 510 5 11 28 37 128 468 807 1470 2620
2026-01-26 00:30 5.09 5680 (1970) 2 (1954) 510 5 11 28 37 128 468 807 1470 2620
2026-01-26 00:00 5.09 5680 (1970) 2 (1954) 510 5 11 28 37 128 468 807 1470 2620
2026-01-25 23:30 5680 (1970) 2 (1954) 510 5 11 28 37 128 468 807 1470 2620
2026-01-25 23:00 5.08 5680 (1970) 2 (1954) 510 5 11 28 37 128 468 807 1470 2620
2026-01-25 22:30 5.08 8560 (2010) 2 (1954) 604 5 11 28 36 107 452 928 1650 3540
2026-01-25 22:00 5.07 8560 (2010) 2 (1954) 604 5 11 28 36 107 452 928 1650 3540
2026-01-25 21:30 5.06 8560 (2010) 2 (1954) 604 5 11 28 36 107 452 928 1650 3540
2026-01-25 21:00 5.05 8560 (2010) 2 (1954) 604 5 11 28 36 107 452 928 1650 3540
2026-01-25 20:30 5.04 8560 (2010) 2 (1954) 604 5 11 28 36 107 452 928 1650 3540
2026-01-25 20:00 8560 (2010) 2 (1954) 604 5 11 28 36 107 452 928 1650 3540
2026-01-25 19:30 5.03 8560 (2010) 2 (1954) 604 5 11 28 36 107 452 928 1650 3540
2026-01-25 19:00 8560 (2010) 2 (1954) 604 5 11 28 36 107 452 928 1650 3540
2026-01-25 18:30 5.03 8560 (2010) 2 (1954) 604 5 11 28 36 107 452 928 1650 3540
2026-01-25 18:00 8560 (2010) 2 (1954) 604 5 11 28 36 107 452 928 1650 3540
2026-01-25 17:30 5.04 8560 (2010) 2 (1954) 604 5 11 28 36 107 452 928 1650 3540
2026-01-25 17:00 5.05 8560 (2010) 2 (1954) 604 5 11 28 36 107 452 928 1650 3540
2026-01-25 16:30 5.05 8560 (2010) 2 (1954) 604 5 11 28 36 107 452 928 1650 3540
2026-01-25 16:00 5.06 8560 (2010) 2 (1954) 604 5 11 28 36 107 452 928 1650 3540
2026-01-25 15:30 5.08 8560 (2010) 2 (1954) 604 5 11 28 36 107 452 928 1650 3540
2026-01-25 15:00 5.06 8560 (2010) 2 (1954) 604 5 11 28 36 107 452 928 1650 3540
2026-01-25 14:30 5.05 8560 (2010) 2 (1954) 604 5 11 28 36 107 452 928 1650 3540
2026-01-25 14:00 5.04 8560 (2010) 2 (1954) 604 5 11 28 36 107 452 928 1650 3540
2026-01-25 13:30 5.04 8560 (2010) 2 (1954) 604 5 11 28 36 107 452 928 1650 3540
2026-01-25 13:00 5.05 8560 (2010) 2 (1954) 604 5 11 28 36 107 452 928 1650 3540
2026-01-25 12:30 5.07 8560 (2010) 2 (1954) 604 5 11 28 36 107 452 928 1650 3540
2026-01-25 12:00 5.10 8560 (2010) 2 (1954) 604 5 11 28 36 107 452 928 1650 3540
2026-01-25 11:30 5.09 8560 (2010) 2 (1954) 604 5 11 28 36 107 452 928 1650 3540
2026-01-25 11:00 5.06 8560 (2010) 2 (1954) 604 5 11 28 36 107 452 928 1650 3540
2026-01-25 10:30 5.03 8560 (2010) 2 (1954) 604 5 11 28 36 107 452 928 1650 3540
2026-01-25 10:00 5.03 8560 (2010) 2 (1954) 604 5 11 28 36 107 452 928 1650 3540
2026-01-25 09:30 5.01 8560 (2010) 2 (1954) 604 5 11 28 36 107 452 928 1650 3540
2026-01-25 09:00 5.02 8560 (2010) 2 (1954) 604 5 11 28 36 107 452 928 1650 3540
2026-01-25 08:30 5.03 8560 (2010) 2 (1954) 604 5 11 28 36 107 452 928 1650 3540
2026-01-25 08:00 5.05 8560 (2010) 2 (1954) 604 5 11 28 36 107 452 928 1650 3540
2026-01-25 07:30 5.05 8560 (2010) 2 (1954) 604 5 11 28 36 107 452 928 1650 3540
2026-01-25 07:00 5.06 8560 (2010) 2 (1954) 604 5 11 28 36 107 452 928 1650 3540
2026-01-25 06:30 5.05 8560 (2010) 2 (1954) 604 5 11 28 36 107 452 928 1650 3540
2026-01-25 06:00 5.15 8560 (2010) 2 (1954) 604 5 11 28 36 107 452 928 1650 3540
2026-01-25 05:30 5.13 8560 (2010) 2 (1954) 604 5 11 28 36 107 452 928 1650 3540
2026-01-25 05:00 5.14 8560 (2010) 2 (1954) 604 5 11 28 36 107 452 928 1650 3540
2026-01-25 04:30 5.17 8560 (2010) 2 (1954) 604 5 11 28 36 107 452 928 1650 3540
2026-01-25 04:00 8560 (2010) 2 (1954) 604 5 11 28 36 107 452 928 1650 3540
2026-01-25 03:30 5.21 8560 (2010) 2 (1954) 604 5 11 28 36 107 452 928 1650 3540
2026-01-25 03:00 5.19 8560 (2010) 2 (1954) 604 5 11 28 36 107 452 928 1650 3540
2026-01-25 02:30 5.19 8560 (2010) 2 (1954) 604 5 11 28 36 107 452 928 1650 3540
2026-01-25 02:00 8560 (2010) 2 (1954) 604 5 11 28 36 107 452 928 1650 3540
2026-01-25 01:30 5.22 8560 (2010) 2 (1954) 604 5 11 28 36 107 452 928 1650 3540
2026-01-25 01:00 8560 (2010) 2 (1954) 604 5 11 28 36 107 452 928 1650 3540
2026-01-25 00:30 8560 (2010) 2 (1954) 604 5 11 28 36 107 452 928 1650 3540
2026-01-25 00:00 8560 (2010) 2 (1954) 604 5 11 28 36 107 452 928 1650 3540
2026-01-24 23:30 8560 (2010) 2 (1954) 604 5 11 28 36 107 452 928 1650 3540
2026-01-24 23:00 5.23 8560 (2010) 2 (1954) 604 5 11 28 36 107 452 928 1650 3540
2026-01-24 22:30 17100 (1949) 2 (1954) 1060 5 10 26 39 101 409 679 3840 6490
2026-01-24 22:00 5.25 17100 (1949) 2 (1954) 1060 5 10 26 39 101 409 679 3840 6490
2026-01-24 21:30 17100 (1949) 2 (1954) 1060 5 10 26 39 101 409 679 3840 6490
2026-01-24 21:00 17100 (1949) 2 (1954) 1060 5 10 26 39 101 409 679 3840 6490
2026-01-24 20:30 5.21 17100 (1949) 2 (1954) 1060 5 10 26 39 101 409 679 3840 6490
2026-01-24 20:00 17100 (1949) 2 (1954) 1060 5 10 26 39 101 409 679 3840 6490
2026-01-24 19:30 5.20 17100 (1949) 2 (1954) 1060 5 10 26 39 101 409 679 3840 6490
2026-01-24 19:00 5.19 17100 (1949) 2 (1954) 1060 5 10 26 39 101 409 679 3840 6490
2026-01-24 18:30 5.18 17100 (1949) 2 (1954) 1060 5 10 26 39 101 409 679 3840 6490
2026-01-24 18:00 5.20 17100 (1949) 2 (1954) 1060 5 10 26 39 101 409 679 3840 6490
2026-01-24 17:30 5.21 17100 (1949) 2 (1954) 1060 5 10 26 39 101 409 679 3840 6490
2026-01-24 17:00 5.19 17100 (1949) 2 (1954) 1060 5 10 26 39 101 409 679 3840 6490
2026-01-24 16:30 5.17 17100 (1949) 2 (1954) 1060 5 10 26 39 101 409 679 3840 6490
2026-01-24 16:00 5.18 17100 (1949) 2 (1954) 1060 5 10 26 39 101 409 679 3840 6490
2026-01-24 15:30 5.18 17100 (1949) 2 (1954) 1060 5 10 26 39 101 409 679 3840 6490
2026-01-24 15:00 5.16 17100 (1949) 2 (1954) 1060 5 10 26 39 101 409 679 3840 6490
2026-01-24 14:30 17100 (1949) 2 (1954) 1060 5 10 26 39 101 409 679 3840 6490
2026-01-24 14:00 5.10 17100 (1949) 2 (1954) 1060 5 10 26 39 101 409 679 3840 6490
2026-01-24 13:30 5.11 17100 (1949) 2 (1954) 1060 5 10 26 39 101 409 679 3840 6490
2026-01-24 13:00 5.73 17100 (1949) 2 (1954) 1060 5 10 26 39 101 409 679 3840 6490
2026-01-24 12:30 5.78 17100 (1949) 2 (1954) 1060 5 10 26 39 101 409 679 3840 6490
2026-01-24 12:00 5.37 17100 (1949) 2 (1954) 1060 5 10 26 39 101 409 679 3840 6490
2026-01-24 11:30 5.12 17100 (1949) 2 (1954) 1060 5 10 26 39 101 409 679 3840 6490
2026-01-24 11:00 5.23 17100 (1949) 2 (1954) 1060 5 10 26 39 101 409 679 3840 6490
2026-01-24 10:30 17100 (1949) 2 (1954) 1060 5 10 26 39 101 409 679 3840 6490
2026-01-24 10:00 17100 (1949) 2 (1954) 1060 5 10 26 39 101 409 679 3840 6490
2026-01-24 09:30 17100 (1949) 2 (1954) 1060 5 10 26 39 101 409 679 3840 6490
2026-01-24 09:00 5.45 17100 (1949) 2 (1954) 1060 5 10 26 39 101 409 679 3840 6490
2026-01-24 08:30 5.19 17100 (1949) 2 (1954) 1060 5 10 26 39 101 409 679 3840 6490
2026-01-24 08:00 5.33 17100 (1949) 2 (1954) 1060 5 10 26 39 101 409 679 3840 6490
2026-01-24 07:30 5.32 17100 (1949) 2 (1954) 1060 5 10 26 39 101 409 679 3840 6490
2026-01-24 07:00 5.17 17100 (1949) 2 (1954) 1060 5 10 26 39 101 409 679 3840 6490
2026-01-24 06:30 5.11 17100 (1949) 2 (1954) 1060 5 10 26 39 101 409 679 3840 6490
2026-01-24 06:00 5.31 17100 (1949) 2 (1954) 1060 5 10 26 39 101 409 679 3840 6490
2026-01-24 05:30 5.36 17100 (1949) 2 (1954) 1060 5 10 26 39 101 409 679 3840 6490
2026-01-24 05:00 5.29 17100 (1949) 2 (1954) 1060 5 10 26 39 101 409 679 3840 6490
2026-01-24 04:30 5.12 17100 (1949) 2 (1954) 1060 5 10 26 39 101 409 679 3840 6490
2026-01-24 04:00 5.17 17100 (1949) 2 (1954) 1060 5 10 26 39 101 409 679 3840 6490
2026-01-24 03:30 17100 (1949) 2 (1954) 1060 5 10 26 39 101 409 679 3840 6490
2026-01-24 03:00 5.37 17100 (1949) 2 (1954) 1060 5 10 26 39 101 409 679 3840 6490
2026-01-24 02:30 17100 (1949) 2 (1954) 1060 5 10 26 39 101 409 679 3840 6490
2026-01-24 02:00 17100 (1949) 2 (1954) 1060 5 10 26 39 101 409 679 3840 6490
2026-01-24 01:30 5.14 17100 (1949) 2 (1954) 1060 5 10 26 39 101 409 679 3840 6490
2026-01-24 01:00 17100 (1949) 2 (1954) 1060 5 10 26 39 101 409 679 3840 6490
2026-01-24 00:30 17100 (1949) 2 (1954) 1060 5 10 26 39 101 409 679 3840 6490
2026-01-24 00:00 17100 (1949) 2 (1954) 1060 5 10 26 39 101 409 679 3840 6490
2026-01-23 23:30 17100 (1949) 2 (1954) 1060 5 10 26 39 101 409 679 3840 6490
2026-01-23 23:00 17100 (1949) 2 (1954) 1060 5 10 26 39 101 409 679 3840 6490
2026-01-23 22:30 5.35 9270 (2019) 2 (1954) 642 5 10 25 33 109 279 376 2110 4750
2026-01-23 22:00 9270 (2019) 2 (1954) 642 5 10 25 33 109 279 376 2110 4750
2026-01-23 21:30 9270 (2019) 2 (1954) 642 5 10 25 33 109 279 376 2110 4750
2026-01-23 21:00 5.24 9270 (2019) 2 (1954) 642 5 10 25 33 109 279 376 2110 4750
2026-01-23 20:30 9270 (2019) 2 (1954) 642 5 10 25 33 109 279 376 2110 4750
2026-01-23 20:00 5.36 9270 (2019) 2 (1954) 642 5 10 25 33 109 279 376 2110 4750
2026-01-23 19:30 5.42 9270 (2019) 2 (1954) 642 5 10 25 33 109 279 376 2110 4750
2026-01-23 19:00 5.39 9270 (2019) 2 (1954) 642 5 10 25 33 109 279 376 2110 4750
2026-01-23 18:30 5.22 9270 (2019) 2 (1954) 642 5 10 25 33 109 279 376 2110 4750
2026-01-23 18:00 5.28 9270 (2019) 2 (1954) 642 5 10 25 33 109 279 376 2110 4750
2026-01-23 17:30 5.42 9270 (2019) 2 (1954) 642 5 10 25 33 109 279 376 2110 4750
2026-01-23 17:00 5.44 9270 (2019) 2 (1954) 642 5 10 25 33 109 279 376 2110 4750
2026-01-23 16:30 9270 (2019) 2 (1954) 642 5 10 25 33 109 279 376 2110 4750
2026-01-23 16:00 5.26 9270 (2019) 2 (1954) 642 5 10 25 33 109 279 376 2110 4750
2026-01-23 15:30 9270 (2019) 2 (1954) 642 5 10 25 33 109 279 376 2110 4750
2026-01-23 15:00 9270 (2019) 2 (1954) 642 5 10 25 33 109 279 376 2110 4750
2026-01-23 14:30 9270 (2019) 2 (1954) 642 5 10 25 33 109 279 376 2110 4750
2026-01-23 14:00 5.46 9270 (2019) 2 (1954) 642 5 10 25 33 109 279 376 2110 4750
2026-01-23 13:30 9270 (2019) 2 (1954) 642 5 10 25 33 109 279 376 2110 4750
2026-01-23 13:00 9270 (2019) 2 (1954) 642 5 10 25 33 109 279 376 2110 4750
2026-01-23 12:30 9270 (2019) 2 (1954) 642 5 10 25 33 109 279 376 2110 4750
2026-01-23 12:00 9270 (2019) 2 (1954) 642 5 10 25 33 109 279 376 2110 4750
2026-01-23 11:30 5.31 9270 (2019) 2 (1954) 642 5 10 25 33 109 279 376 2110 4750
2026-01-23 11:00 5.42 9270 (2019) 2 (1954) 642 5 10 25 33 109 279 376 2110 4750
2026-01-23 10:30 9270 (2019) 2 (1954) 642 5 10 25 33 109 279 376 2110 4750
2026-01-23 10:00 5.48 9270 (2019) 2 (1954) 642 5 10 25 33 109 279 376 2110 4750
2026-01-23 09:30 9270 (2019) 2 (1954) 642 5 10 25 33 109 279 376 2110 4750
2026-01-23 09:00 5.33 9270 (2019) 2 (1954) 642 5 10 25 33 109 279 376 2110 4750
2026-01-23 08:30 5.26 9270 (2019) 2 (1954) 642 5 10 25 33 109 279 376 2110 4750
2026-01-23 08:00 5.45 9270 (2019) 2 (1954) 642 5 10 25 33 109 279 376 2110 4750
2026-01-23 07:30 5.49 16 9270 (2019) 2 (1954) 642 5 10 25 33 109 279 376 2110 4750
2026-01-23 07:00 5.48 16 9270 (2019) 2 (1954) 642 5 10 25 33 109 279 376 2110 4750
2026-01-23 06:30 5.37 10 9270 (2019) 2 (1954) 642 5 10 25 33 109 279 376 2110 4750
2026-01-23 06:00 5.27 7 9270 (2019) 2 (1954) 642 5 10 25 33 109 279 376 2110 4750
2026-01-23 05:30 5.45 14 9270 (2019) 2 (1954) 642 5 10 25 33 109 279 376 2110 4750
2026-01-23 05:00 17 9270 (2019) 2 (1954) 642 5 10 25 33 109 279 376 2110 4750
2026-01-23 04:30 5.50 17 9270 (2019) 2 (1954) 642 5 10 25 33 109 279 376 2110 4750
2026-01-23 04:00 5.44 14 9270 (2019) 2 (1954) 642 5 10 25 33 109 279 376 2110 4750
2026-01-23 03:30 5.25 6 9270 (2019) 2 (1954) 642 5 10 25 33 109 279 376 2110 4750
2026-01-23 03:00 5.38 11 9270 (2019) 2 (1954) 642 5 10 25 33 109 279 376 2110 4750
2026-01-23 02:30 5.48 16 9270 (2019) 2 (1954) 642 5 10 25 33 109 279 376 2110 4750
2026-01-23 02:00 5.51 18 9270 (2019) 2 (1954) 642 5 10 25 33 109 279 376 2110 4750
2026-01-23 01:30 5.53 19 9270 (2019) 2 (1954) 642 5 10 25 33 109 279 376 2110 4750
2026-01-23 01:00 5.52 18 9270 (2019) 2 (1954) 642 5 10 25 33 109 279 376 2110 4750
2026-01-23 00:30 5.51 18 9270 (2019) 2 (1954) 642 5 10 25 33 109 279 376 2110 4750
2026-01-23 00:00 5.46 15 9270 (2019) 2 (1954) 642 5 10 25 33 109 279 376 2110 4750
2026-01-22 23:30 5.35 9 9270 (2019) 2 (1954) 642 5 10 25 33 109 279 376 2110 4750
2026-01-22 23:00 5.25 6 9270 (2019) 2 (1954) 642 5 10 25 33 109 279 376 2110 4750
2026-01-22 22:30 5.35 9 11600 (1933) 2 (1954) 505 5 11 22 31 102 287 321 820 2620
2026-01-22 22:00 5.41 12 11600 (1933) 2 (1954) 505 5 11 22 31 102 287 321 820 2620
2026-01-22 21:30 5.48 16 11600 (1933) 2 (1954) 505 5 11 22 31 102 287 321 820 2620
2026-01-22 21:00 5.51 18 11600 (1933) 2 (1954) 505 5 11 22 31 102 287 321 820 2620
2026-01-22 20:30 5.53 19 11600 (1933) 2 (1954) 505 5 11 22 31 102 287 321 820 2620
2026-01-22 20:00 19 11600 (1933) 2 (1954) 505 5 11 22 31 102 287 321 820 2620
2026-01-22 19:30 5.54 19 11600 (1933) 2 (1954) 505 5 11 22 31 102 287 321 820 2620
2026-01-22 19:00 5.53 19 11600 (1933) 2 (1954) 505 5 11 22 31 102 287 321 820 2620
2026-01-22 18:30 5.51 18 11600 (1933) 2 (1954) 505 5 11 22 31 102 287 321 820 2620
2026-01-22 18:00 5.48 16 11600 (1933) 2 (1954) 505 5 11 22 31 102 287 321 820 2620
2026-01-22 17:30 5.45 14 11600 (1933) 2 (1954) 505 5 11 22 31 102 287 321 820 2620
2026-01-22 17:00 5.45 14 11600 (1933) 2 (1954) 505 5 11 22 31 102 287 321 820 2620
2026-01-22 16:30 5.47 15 11600 (1933) 2 (1954) 505 5 11 22 31 102 287 321 820 2620
2026-01-22 16:00 16 11600 (1933) 2 (1954) 505 5 11 22 31 102 287 321 820 2620
2026-01-22 15:30 19 11600 (1933) 2 (1954) 505 5 11 22 31 102 287 321 820 2620
2026-01-22 15:00 21 11600 (1933) 2 (1954) 505 5 11 22 31 102 287 321 820 2620
2026-01-22 14:30 5.58 22 11600 (1933) 2 (1954) 505 5 11 22 31 102 287 321 820 2620
2026-01-22 14:00 5.60 24 11600 (1933) 2 (1954) 505 5 11 22 31 102 287 321 820 2620
2026-01-22 13:30 5.63 26 11600 (1933) 2 (1954) 505 5 11 22 31 102 287 321 820 2620
2026-01-22 13:00 5.69 31 11600 (1933) 2 (1954) 505 5 11 22 31 102 287 321 820 2620
2026-01-22 12:30 39 11600 (1933) 2 (1954) 505 5 11 22 31 102 287 321 820 2620
2026-01-22 12:00 5.82 45 11600 (1933) 2 (1954) 505 5 11 22 31 102 287 321 820 2620
2026-01-22 11:30 5.80 42 11600 (1933) 2 (1954) 505 5 11 22 31 102 287 321 820 2620
2026-01-22 11:00 5.37 10 11600 (1933) 2 (1954) 505 5 11 22 31 102 287 321 820 2620
2026-01-22 10:30 12 11600 (1933) 2 (1954) 505 5 11 22 31 102 287 321 820 2620
2026-01-22 10:00 5.45 14 11600 (1933) 2 (1954) 505 5 11 22 31 102 287 321 820 2620
2026-01-22 09:30 5.46 15 11600 (1933) 2 (1954) 505 5 11 22 31 102 287 321 820 2620
2026-01-22 09:00 5.45 14 11600 (1933) 2 (1954) 505 5 11 22 31 102 287 321 820 2620
2026-01-22 08:30 5.38 11 11600 (1933) 2 (1954) 505 5 11 22 31 102 287 321 820 2620
2026-01-22 08:00 5.26 6 11600 (1933) 2 (1954) 505 5 11 22 31 102 287 321 820 2620
2026-01-22 07:30 5.37 10 11600 (1933) 2 (1954) 505 5 11 22 31 102 287 321 820 2620
2026-01-22 07:00 5.47 15 11600 (1933) 2 (1954) 505 5 11 22 31 102 287 321 820 2620
2026-01-22 06:30 5.52 18 11600 (1933) 2 (1954) 505 5 11 22 31 102 287 321 820 2620
2026-01-22 06:00 5.54 19 11600 (1933) 2 (1954) 505 5 11 22 31 102 287 321 820 2620
2026-01-22 05:30 5.55 20 11600 (1933) 2 (1954) 505 5 11 22 31 102 287 321 820 2620
2026-01-22 05:00 5.52 18 11600 (1933) 2 (1954) 505 5 11 22 31 102 287 321 820 2620
2026-01-22 04:30 5.46 15 11600 (1933) 2 (1954) 505 5 11 22 31 102 287 321 820 2620
2026-01-22 04:00 5.31 8 11600 (1933) 2 (1954) 505 5 11 22 31 102 287 321 820 2620
2026-01-22 03:30 5.38 11 11600 (1933) 2 (1954) 505 5 11 22 31 102 287 321 820 2620
2026-01-22 03:00 5.49 16 11600 (1933) 2 (1954) 505 5 11 22 31 102 287 321 820 2620
2026-01-22 02:30 19 11600 (1933) 2 (1954) 505 5 11 22 31 102 287 321 820 2620
2026-01-22 02:00 21 11600 (1933) 2 (1954) 505 5 11 22 31 102 287 321 820 2620
2026-01-22 01:30 5.56 21 11600 (1933) 2 (1954) 505 5 11 22 31 102 287 321 820 2620
2026-01-22 01:00 21 11600 (1933) 2 (1954) 505 5 11 22 31 102 287 321 820 2620
2026-01-22 00:30 20 11600 (1933) 2 (1954) 505 5 11 22 31 102 287 321 820 2620
2026-01-22 00:00 5.53 19 11600 (1933) 2 (1954) 505 5 11 22 31 102 287 321 820 2620
2026-01-21 23:30 16 11600 (1933) 2 (1954) 505 5 11 22 31 102 287 321 820 2620
2026-01-21 23:00 5.44 14 11600 (1933) 2 (1954) 505 5 11 22 31 102 287 321 820 2620
2026-01-21 22:30 5.38 11 4220 (1937) 2 (1954) 330 5 11 18 29 87 311 386 1010 1840
2026-01-21 22:00 8 4220 (1937) 2 (1954) 330 5 11 18 29 87 311 386 1010 1840
2026-01-21 21:30 5.30 8 4220 (1937) 2 (1954) 330 5 11 18 29 87 311 386 1010 1840
2026-01-21 21:00 5.31 8 4220 (1937) 2 (1954) 330 5 11 18 29 87 311 386 1010 1840
2026-01-21 20:30 5.36 10 4220 (1937) 2 (1954) 330 5 11 18 29 87 311 386 1010 1840
2026-01-21 20:00 15 4220 (1937) 2 (1954) 330 5 11 18 29 87 311 386 1010 1840
2026-01-21 19:30 5.62 25 4220 (1937) 2 (1954) 330 5 11 18 29 87 311 386 1010 1840
2026-01-21 19:00 5.70 32 4220 (1937) 2 (1954) 330 5 11 18 29 87 311 386 1010 1840
2026-01-21 18:30 5.75 37 4220 (1937) 2 (1954) 330 5 11 18 29 87 311 386 1010 1840
2026-01-21 18:00 5.73 35 4220 (1937) 2 (1954) 330 5 11 18 29 87 311 386 1010 1840
2026-01-21 17:30 5.71 33 4220 (1937) 2 (1954) 330 5 11 18 29 87 311 386 1010 1840
2026-01-21 17:00 5.71 33 4220 (1937) 2 (1954) 330 5 11 18 29 87 311 386 1010 1840
2026-01-21 16:30 5.71 33 4220 (1937) 2 (1954) 330 5 11 18 29 87 311 386 1010 1840
2026-01-21 16:00 34 4220 (1937) 2 (1954) 330 5 11 18 29 87 311 386 1010 1840
2026-01-21 15:30 5.73 35 4220 (1937) 2 (1954) 330 5 11 18 29 87 311 386 1010 1840
2026-01-21 15:00 5.73 35 4220 (1937) 2 (1954) 330 5 11 18 29 87 311 386 1010 1840
2026-01-21 14:30 5.75 37 4220 (1937) 2 (1954) 330 5 11 18 29 87 311 386 1010 1840
2026-01-21 14:00 38 4220 (1937) 2 (1954) 330 5 11 18 29 87 311 386 1010 1840
2026-01-21 13:30 35 4220 (1937) 2 (1954) 330 5 11 18 29 87 311 386 1010 1840
2026-01-21 13:00 34 4220 (1937) 2 (1954) 330 5 11 18 29 87 311 386 1010 1840
2026-01-21 12:30 5.73 35 4220 (1937) 2 (1954) 330 5 11 18 29 87 311 386 1010 1840
2026-01-21 12:00 5.74 36 4220 (1937) 2 (1954) 330 5 11 18 29 87 311 386 1010 1840
2026-01-21 11:30 35 4220 (1937) 2 (1954) 330 5 11 18 29 87 311 386 1010 1840
2026-01-21 11:00 5.71 33 4220 (1937) 2 (1954) 330 5 11 18 29 87 311 386 1010 1840
2026-01-21 10:30 24 4220 (1937) 2 (1954) 330 5 11 18 29 87 311 386 1010 1840
2026-01-21 10:00 5.52 18 4220 (1937) 2 (1954) 330 5 11 18 29 87 311 386 1010 1840
2026-01-21 09:30 5.44 14 4220 (1937) 2 (1954) 330 5 11 18 29 87 311 386 1010 1840
2026-01-21 09:00 5.42 13 4220 (1937) 2 (1954) 330 5 11 18 29 87 311 386 1010 1840
2026-01-21 08:30 5.44 14 4220 (1937) 2 (1954) 330 5 11 18 29 87 311 386 1010 1840
2026-01-21 08:00 5.47 15 4220 (1937) 2 (1954) 330 5 11 18 29 87 311 386 1010 1840
2026-01-21 07:30 5.51 18 4220 (1937) 2 (1954) 330 5 11 18 29 87 311 386 1010 1840
2026-01-21 07:00 5.53 19 4220 (1937) 2 (1954) 330 5 11 18 29 87 311 386 1010 1840
2026-01-21 06:30 5.54 19 4220 (1937) 2 (1954) 330 5 11 18 29 87 311 386 1010 1840
2026-01-21 06:00 5.55 20 4220 (1937) 2 (1954) 330 5 11 18 29 87 311 386 1010 1840
2026-01-21 05:30 5.55 20 4220 (1937) 2 (1954) 330 5 11 18 29 87 311 386 1010 1840
2026-01-21 05:00 5.55 20 4220 (1937) 2 (1954) 330 5 11 18 29 87 311 386 1010 1840
2026-01-21 04:30 5.54 19 4220 (1937) 2 (1954) 330 5 11 18 29 87 311 386 1010 1840
2026-01-21 04:00 5.54 19 4220 (1937) 2 (1954) 330 5 11 18 29 87 311 386 1010 1840
2026-01-21 03:30 5.54 19 4220 (1937) 2 (1954) 330 5 11 18 29 87 311 386 1010 1840
2026-01-21 03:00 5.55 20 4220 (1937) 2 (1954) 330 5 11 18 29 87 311 386 1010 1840
2026-01-21 02:30 5.55 20 4220 (1937) 2 (1954) 330 5 11 18 29 87 311 386 1010 1840
2026-01-21 02:00 5.55 20 4220 (1937) 2 (1954) 330 5 11 18 29 87 311 386 1010 1840
2026-01-21 01:30 5.55 20 4220 (1937) 2 (1954) 330 5 11 18 29 87 311 386 1010 1840
2026-01-21 01:00 21 4220 (1937) 2 (1954) 330 5 11 18 29 87 311 386 1010 1840
2026-01-21 00:30 5.56 21 4220 (1937) 2 (1954) 330 5 11 18 29 87 311 386 1010 1840
2026-01-21 00:00 21 4220 (1937) 2 (1954) 330 5 11 18 29 87 311 386 1010 1840
2026-01-20 23:30 5.56 21 4220 (1937) 2 (1954) 330 5 11 18 29 87 311 386 1010 1840
2026-01-20 23:00 5.57 21 4220 (1937) 2 (1954) 330 5 11 18 29 87 311 386 1010 1840
2026-01-20 22:30 21 7080 (1988) 2 (1954) 406 4 9 18 29 86 332 475 949 2070
2026-01-20 22:00 5.57 21 7080 (1988) 2 (1954) 406 4 9 18 29 86 332 475 949 2070
2026-01-20 21:30 5.57 21 7080 (1988) 2 (1954) 406 4 9 18 29 86 332 475 949 2070
2026-01-20 21:00 5.57 21 7080 (1988) 2 (1954) 406 4 9 18 29 86 332 475 949 2070
2026-01-20 20:30 5.56 21 7080 (1988) 2 (1954) 406 4 9 18 29 86 332 475 949 2070
2026-01-20 20:00 21 7080 (1988) 2 (1954) 406 4 9 18 29 86 332 475 949 2070
2026-01-20 19:30 5.56 21 7080 (1988) 2 (1954) 406 4 9 18 29 86 332 475 949 2070
2026-01-20 19:00 5.56 21 7080 (1988) 2 (1954) 406 4 9 18 29 86 332 475 949 2070
2026-01-20 18:30 5.55 20 7080 (1988) 2 (1954) 406 4 9 18 29 86 332 475 949 2070
2026-01-20 18:00 5.55 20 7080 (1988) 2 (1954) 406 4 9 18 29 86 332 475 949 2070
2026-01-20 17:30 5.53 19 7080 (1988) 2 (1954) 406 4 9 18 29 86 332 475 949 2070
2026-01-20 17:00 5.53 19 7080 (1988) 2 (1954) 406 4 9 18 29 86 332 475 949 2070
2026-01-20 16:30 5.55 20 7080 (1988) 2 (1954) 406 4 9 18 29 86 332 475 949 2070
2026-01-20 16:00 23 7080 (1988) 2 (1954) 406 4 9 18 29 86 332 475 949 2070
2026-01-20 15:30 23 7080 (1988) 2 (1954) 406 4 9 18 29 86 332 475 949 2070
2026-01-20 15:00 5.59 23 7080 (1988) 2 (1954) 406 4 9 18 29 86 332 475 949 2070
2026-01-20 14:30 5.57 21 7080 (1988) 2 (1954) 406 4 9 18 29 86 332 475 949 2070
2026-01-20 14:00 5.56 21 7080 (1988) 2 (1954) 406 4 9 18 29 86 332 475 949 2070
2026-01-20 13:30 5.55 20 7080 (1988) 2 (1954) 406 4 9 18 29 86 332 475 949 2070
2026-01-20 13:00 5.55 20 7080 (1988) 2 (1954) 406 4 9 18 29 86 332 475 949 2070
2026-01-20 12:30 5.57 21 7080 (1988) 2 (1954) 406 4 9 18 29 86 332 475 949 2070
2026-01-20 12:00 30 7080 (1988) 2 (1954) 406 4 9 18 29 86 332 475 949 2070
2026-01-20 11:30 5.49 16 7080 (1988) 2 (1954) 406 4 9 18 29 86 332 475 949 2070
2026-01-20 11:00 14 7080 (1988) 2 (1954) 406 4 9 18 29 86 332 475 949 2070
2026-01-20 10:30 5.42 13 7080 (1988) 2 (1954) 406 4 9 18 29 86 332 475 949 2070
2026-01-20 10:00 12 7080 (1988) 2 (1954) 406 4 9 18 29 86 332 475 949 2070
2026-01-20 09:30 5.46 15 7080 (1988) 2 (1954) 406 4 9 18 29 86 332 475 949 2070
2026-01-20 09:00 5.48 16 7080 (1988) 2 (1954) 406 4 9 18 29 86 332 475 949 2070
2026-01-20 08:30 18 7080 (1988) 2 (1954) 406 4 9 18 29 86 332 475 949 2070
2026-01-20 08:00 5.56 21 7080 (1988) 2 (1954) 406 4 9 18 29 86 332 475 949 2070
2026-01-20 06:30 5.57 21 7080 (1988) 2 (1954) 406 4 9 18 29 86 332 475 949 2070
2026-01-20 06:00 5.54 19 7080 (1988) 2 (1954) 406 4 9 18 29 86 332 475 949 2070
2026-01-20 05:30 5.49 16 7080 (1988) 2 (1954) 406 4 9 18 29 86 332 475 949 2070
2026-01-20 05:00 5.38 11 7080 (1988) 2 (1954) 406 4 9 18 29 86 332 475 949 2070
2026-01-20 04:30 5.34 9 7080 (1988) 2 (1954) 406 4 9 18 29 86 332 475 949 2070
2026-01-20 04:00 5.46 15 7080 (1988) 2 (1954) 406 4 9 18 29 86 332 475 949 2070
2026-01-20 03:30 5.54 19 7080 (1988) 2 (1954) 406 4 9 18 29 86 332 475 949 2070
2026-01-20 03:00 5.59 23 7080 (1988) 2 (1954) 406 4 9 18 29 86 332 475 949 2070
2026-01-20 02:30 5.59 23 7080 (1988) 2 (1954) 406 4 9 18 29 86 332 475 949 2070
2026-01-20 02:00 5.56 21 7080 (1988) 2 (1954) 406 4 9 18 29 86 332 475 949 2070
2026-01-20 01:30 5.45 14 7080 (1988) 2 (1954) 406 4 9 18 29 86 332 475 949 2070
2026-01-20 01:00 5.37 10 7080 (1988) 2 (1954) 406 4 9 18 29 86 332 475 949 2070
2026-01-20 00:30 19 7080 (1988) 2 (1954) 406 4 9 18 29 86 332 475 949 2070
2026-01-20 00:00 5.60 24 7080 (1988) 2 (1954) 406 4 9 18 29 86 332 475 949 2070
2026-01-19 23:30 5.58 22 7080 (1988) 2 (1954) 406 4 9 18 29 86 332 475 949 2070
2026-01-19 23:00 5.46 15 7080 (1988) 2 (1954) 406 4 9 18 29 86 332 475 949 2070
2026-01-19 22:30 5.39 11 8000 (1933) 2 (1954) 547 3 9 19 30 90 333 497 1440 3780
2026-01-19 22:00 5.56 21 8000 (1933) 2 (1954) 547 3 9 19 30 90 333 497 1440 3780
2026-01-19 21:30 5.61 24 8000 (1933) 2 (1954) 547 3 9 19 30 90 333 497 1440 3780
2026-01-19 21:00 5.60 24 8000 (1933) 2 (1954) 547 3 9 19 30 90 333 497 1440 3780
2026-01-19 20:30 5.51 18 8000 (1933) 2 (1954) 547 3 9 19 30 90 333 497 1440 3780
2026-01-19 20:00 5.41 12 8000 (1933) 2 (1954) 547 3 9 19 30 90 333 497 1440 3780
2026-01-19 19:30 5.58 22 8000 (1933) 2 (1954) 547 3 9 19 30 90 333 497 1440 3780
2026-01-19 19:00 5.63 26 8000 (1933) 2 (1954) 547 3 9 19 30 90 333 497 1440 3780
2026-01-19 18:30 5.62 25 8000 (1933) 2 (1954) 547 3 9 19 30 90 333 497 1440 3780
2026-01-19 18:00 5.54 19 8000 (1933) 2 (1954) 547 3 9 19 30 90 333 497 1440 3780
2026-01-19 17:30 5.41 12 8000 (1933) 2 (1954) 547 3 9 19 30 90 333 497 1440 3780
2026-01-19 17:00 5.56 21 8000 (1933) 2 (1954) 547 3 9 19 30 90 333 497 1440 3780
2026-01-19 16:30 5.64 27 8000 (1933) 2 (1954) 547 3 9 19 30 90 333 497 1440 3780
2026-01-19 16:00 5.65 28 8000 (1933) 2 (1954) 547 3 9 19 30 90 333 497 1440 3780
2026-01-19 15:30 5.63 26 8000 (1933) 2 (1954) 547 3 9 19 30 90 333 497 1440 3780
2026-01-19 15:00 5.60 24 8000 (1933) 2 (1954) 547 3 9 19 30 90 333 497 1440 3780
2026-01-19 14:30 5.59 23 8000 (1933) 2 (1954) 547 3 9 19 30 90 333 497 1440 3780
2026-01-19 14:00 5.50 17 8000 (1933) 2 (1954) 547 3 9 19 30 90 333 497 1440 3780
2026-01-19 13:30 5.57 21 8000 (1933) 2 (1954) 547 3 9 19 30 90 333 497 1440 3780
2026-01-19 13:00 5.66 29 8000 (1933) 2 (1954) 547 3 9 19 30 90 333 497 1440 3780
2026-01-19 12:30 5.65 28 8000 (1933) 2 (1954) 547 3 9 19 30 90 333 497 1440 3780
2026-01-19 12:00 5.54 19 8000 (1933) 2 (1954) 547 3 9 19 30 90 333 497 1440 3780
2026-01-19 11:30 5.50 17 8000 (1933) 2 (1954) 547 3 9 19 30 90 333 497 1440 3780
2026-01-19 11:00 5.59 23 8000 (1933) 2 (1954) 547 3 9 19 30 90 333 497 1440 3780
2026-01-19 10:30 5.65 28 8000 (1933) 2 (1954) 547 3 9 19 30 90 333 497 1440 3780
2026-01-19 10:00 5.67 29 8000 (1933) 2 (1954) 547 3 9 19 30 90 333 497 1440 3780
2026-01-19 09:30 5.66 29 8000 (1933) 2 (1954) 547 3 9 19 30 90 333 497 1440 3780
2026-01-19 09:00 5.60 24 8000 (1933) 2 (1954) 547 3 9 19 30 90 333 497 1440 3780
2026-01-19 08:30 5.60 24 8000 (1933) 2 (1954) 547 3 9 19 30 90 333 497 1440 3780
2026-01-19 08:00 5.68 30 8000 (1933) 2 (1954) 547 3 9 19 30 90 333 497 1440 3780
2026-01-19 07:30 5.68 30 8000 (1933) 2 (1954) 547 3 9 19 30 90 333 497 1440 3780
2026-01-19 07:00 5.54 19 8000 (1933) 2 (1954) 547 3 9 19 30 90 333 497 1440 3780
2026-01-19 06:30 5.66 29 8000 (1933) 2 (1954) 547 3 9 19 30 90 333 497 1440 3780
2026-01-19 06:00 5.69 31 8000 (1933) 2 (1954) 547 3 9 19 30 90 333 497 1440 3780
2026-01-19 05:30 5.69 31 8000 (1933) 2 (1954) 547 3 9 19 30 90 333 497 1440 3780
2026-01-19 05:00 5.58 22 8000 (1933) 2 (1954) 547 3 9 19 30 90 333 497 1440 3780
2026-01-19 04:30 5.68 30 8000 (1933) 2 (1954) 547 3 9 19 30 90 333 497 1440 3780
2026-01-19 04:00 5.71 33 8000 (1933) 2 (1954) 547 3 9 19 30 90 333 497 1440 3780
2026-01-19 03:30 5.71 33 8000 (1933) 2 (1954) 547 3 9 19 30 90 333 497 1440 3780
2026-01-19 03:00 5.70 32 8000 (1933) 2 (1954) 547 3 9 19 30 90 333 497 1440 3780
2026-01-19 02:30 5.63 26 8000 (1933) 2 (1954) 547 3 9 19 30 90 333 497 1440 3780
2026-01-19 02:00 5.66 29 8000 (1933) 2 (1954) 547 3 9 19 30 90 333 497 1440 3780
2026-01-19 01:30 5.71 33 8000 (1933) 2 (1954) 547 3 9 19 30 90 333 497 1440 3780
2026-01-19 01:00 5.72 34 8000 (1933) 2 (1954) 547 3 9 19 30 90 333 497 1440 3780
2026-01-19 00:30 5.72 34 8000 (1933) 2 (1954) 547 3 9 19 30 90 333 497 1440 3780
2026-01-19 00:00 5.73 35 8000 (1933) 2 (1954) 547 3 9 19 30 90 333 497 1440 3780
2026-01-18 23:30 35 8000 (1933) 2 (1954) 547 3 9 19 30 90 333 497 1440 3780
2026-01-18 23:00 5.74 36 8000 (1933) 2 (1954) 547 3 9 19 30 90 333 497 1440 3780
2026-01-18 22:30 5.74 36 11600 (2020) 1 (1954) 534 4 9 18 28 94 334 542 978 2080
2026-01-18 22:00 5.74 36 11600 (2020) 1 (1954) 534 4 9 18 28 94 334 542 978 2080
2026-01-18 21:30 5.72 34 11600 (2020) 1 (1954) 534 4 9 18 28 94 334 542 978 2080
2026-01-18 21:00 5.67 29 11600 (2020) 1 (1954) 534 4 9 18 28 94 334 542 978 2080
2026-01-18 20:30 5.59 23 11600 (2020) 1 (1954) 534 4 9 18 28 94 334 542 978 2080
2026-01-18 20:00 5.57 21 11600 (2020) 1 (1954) 534 4 9 18 28 94 334 542 978 2080
2026-01-18 19:30 5.61 24 11600 (2020) 1 (1954) 534 4 9 18 28 94 334 542 978 2080
2026-01-18 19:00 5.65 28 11600 (2020) 1 (1954) 534 4 9 18 28 94 334 542 978 2080
2026-01-18 18:30 5.71 33 11600 (2020) 1 (1954) 534 4 9 18 28 94 334 542 978 2080
2026-01-18 18:00 5.73 35 11600 (2020) 1 (1954) 534 4 9 18 28 94 334 542 978 2080
2026-01-18 17:30 5.72 34 11600 (2020) 1 (1954) 534 4 9 18 28 94 334 542 978 2080
2026-01-18 17:00 5.73 35 11600 (2020) 1 (1954) 534 4 9 18 28 94 334 542 978 2080
2026-01-18 16:30 5.74 36 11600 (2020) 1 (1954) 534 4 9 18 28 94 334 542 978 2080
2026-01-18 16:00 5.75 37 11600 (2020) 1 (1954) 534 4 9 18 28 94 334 542 978 2080
2026-01-18 15:30 5.76 38 11600 (2020) 1 (1954) 534 4 9 18 28 94 334 542 978 2080
2026-01-18 15:00 5.77 39 11600 (2020) 1 (1954) 534 4 9 18 28 94 334 542 978 2080
2026-01-18 14:30 5.78 40 11600 (2020) 1 (1954) 534 4 9 18 28 94 334 542 978 2080
2026-01-18 14:00 5.77 39 11600 (2020) 1 (1954) 534 4 9 18 28 94 334 542 978 2080
2026-01-18 13:30 5.76 38 11600 (2020) 1 (1954) 534 4 9 18 28 94 334 542 978 2080
2026-01-18 13:00 5.74 36 11600 (2020) 1 (1954) 534 4 9 18 28 94 334 542 978 2080
2026-01-18 12:30 5.73 35 11600 (2020) 1 (1954) 534 4 9 18 28 94 334 542 978 2080
2026-01-18 12:00 5.70 32 11600 (2020) 1 (1954) 534 4 9 18 28 94 334 542 978 2080
2026-01-18 11:30 5.79 41 11600 (2020) 1 (1954) 534 4 9 18 28 94 334 542 978 2080
2026-01-18 11:00 5.77 39 11600 (2020) 1 (1954) 534 4 9 18 28 94 334 542 978 2080
2026-01-18 10:30 5.77 39 11600 (2020) 1 (1954) 534 4 9 18 28 94 334 542 978 2080
2026-01-18 10:00 5.79 41 11600 (2020) 1 (1954) 534 4 9 18 28 94 334 542 978 2080
2026-01-18 09:30 5.77 39 11600 (2020) 1 (1954) 534 4 9 18 28 94 334 542 978 2080
2026-01-18 09:00 5.75 37 11600 (2020) 1 (1954) 534 4 9 18 28 94 334 542 978 2080
2026-01-18 08:30 5.95 62 11600 (2020) 1 (1954) 534 4 9 18 28 94 334 542 978 2080
2026-01-18 08:00 5.78 40 11600 (2020) 1 (1954) 534 4 9 18 28 94 334 542 978 2080
2026-01-18 07:30 5.78 40 11600 (2020) 1 (1954) 534 4 9 18 28 94 334 542 978 2080
2026-01-18 07:00 5.78 40 11600 (2020) 1 (1954) 534 4 9 18 28 94 334 542 978 2080
2026-01-18 06:30 5.79 41 11600 (2020) 1 (1954) 534 4 9 18 28 94 334 542 978 2080
2026-01-18 06:00 5.78 40 11600 (2020) 1 (1954) 534 4 9 18 28 94 334 542 978 2080
2026-01-18 05:30 5.72 34 11600 (2020) 1 (1954) 534 4 9 18 28 94 334 542 978 2080
2026-01-18 05:00 5.82 45 11600 (2020) 1 (1954) 534 4 9 18 28 94 334 542 978 2080
2026-01-18 04:30 5.79 41 11600 (2020) 1 (1954) 534 4 9 18 28 94 334 542 978 2080
2026-01-18 04:00 5.78 40 11600 (2020) 1 (1954) 534 4 9 18 28 94 334 542 978 2080
2026-01-18 03:30 5.72 34 11600 (2020) 1 (1954) 534 4 9 18 28 94 334 542 978 2080
2026-01-18 03:00 5.73 35 11600 (2020) 1 (1954) 534 4 9 18 28 94 334 542 978 2080
2026-01-18 02:30 35 11600 (2020) 1 (1954) 534 4 9 18 28 94 334 542 978 2080
2026-01-18 02:00 36 11600 (2020) 1 (1954) 534 4 9 18 28 94 334 542 978 2080
2026-01-18 01:30 5.75 37 11600 (2020) 1 (1954) 534 4 9 18 28 94 334 542 978 2080
2026-01-18 01:00 36 11600 (2020) 1 (1954) 534 4 9 18 28 94 334 542 978 2080
2026-01-18 00:30 5.73 35 11600 (2020) 1 (1954) 534 4 9 18 28 94 334 542 978 2080
2026-01-18 00:00 36 11600 (2020) 1 (1954) 534 4 9 18 28 94 334 542 978 2080
2026-01-17 23:30 5.76 38 11600 (2020) 1 (1954) 534 4 9 18 28 94 334 542 978 2080
2026-01-17 23:00 35 11600 (2020) 1 (1954) 534 4 9 18 28 94 334 542 978 2080
2026-01-17 22:30 5.73 35 11400 (1969) 1 (1954) 402 4 7 20 30 100 321 401 789 1300
2026-01-17 22:00 5.74 36 11400 (1969) 1 (1954) 402 4 7 20 30 100 321 401 789 1300
2026-01-17 21:30 5.74 36 11400 (1969) 1 (1954) 402 4 7 20 30 100 321 401 789 1300
2026-01-17 21:00 5.73 35 11400 (1969) 1 (1954) 402 4 7 20 30 100 321 401 789 1300
2026-01-17 20:30 5.74 36 11400 (1969) 1 (1954) 402 4 7 20 30 100 321 401 789 1300
2026-01-17 20:00 5.74 36 11400 (1969) 1 (1954) 402 4 7 20 30 100 321 401 789 1300
2026-01-17 19:30 5.80 42 11400 (1969) 1 (1954) 402 4 7 20 30 100 321 401 789 1300
2026-01-17 19:00 5.81 43 11400 (1969) 1 (1954) 402 4 7 20 30 100 321 401 789 1300
2026-01-17 18:30 5.79 41 11400 (1969) 1 (1954) 402 4 7 20 30 100 321 401 789 1300
2026-01-17 18:00 5.77 39 11400 (1969) 1 (1954) 402 4 7 20 30 100 321 401 789 1300
2026-01-17 17:30 5.77 39 11400 (1969) 1 (1954) 402 4 7 20 30 100 321 401 789 1300
2026-01-17 17:00 5.73 35 11400 (1969) 1 (1954) 402 4 7 20 30 100 321 401 789 1300
2026-01-17 16:30 5.75 37 11400 (1969) 1 (1954) 402 4 7 20 30 100 321 401 789 1300
2026-01-17 16:00 5.75 37 11400 (1969) 1 (1954) 402 4 7 20 30 100 321 401 789 1300
2026-01-17 15:30 5.74 36 11400 (1969) 1 (1954) 402 4 7 20 30 100 321 401 789 1300
2026-01-17 15:00 5.74 36 11400 (1969) 1 (1954) 402 4 7 20 30 100 321 401 789 1300
2026-01-17 14:30 5.73 35 11400 (1969) 1 (1954) 402 4 7 20 30 100 321 401 789 1300
2026-01-17 14:00 5.73 35 11400 (1969) 1 (1954) 402 4 7 20 30 100 321 401 789 1300
2026-01-17 13:30 5.72 34 11400 (1969) 1 (1954) 402 4 7 20 30 100 321 401 789 1300
2026-01-17 13:00 5.76 38 11400 (1969) 1 (1954) 402 4 7 20 30 100 321 401 789 1300
2026-01-17 12:30 5.76 38 11400 (1969) 1 (1954) 402 4 7 20 30 100 321 401 789 1300
2026-01-17 12:00 5.81 43 11400 (1969) 1 (1954) 402 4 7 20 30 100 321 401 789 1300
2026-01-17 11:30 5.75 37 11400 (1969) 1 (1954) 402 4 7 20 30 100 321 401 789 1300
2026-01-17 11:00 5.75 37 11400 (1969) 1 (1954) 402 4 7 20 30 100 321 401 789 1300
2026-01-17 10:30 5.77 39 11400 (1969) 1 (1954) 402 4 7 20 30 100 321 401 789 1300
2026-01-17 10:00 5.81 43 11400 (1969) 1 (1954) 402 4 7 20 30 100 321 401 789 1300
2026-01-17 09:30 5.76 38 11400 (1969) 1 (1954) 402 4 7 20 30 100 321 401 789 1300
2026-01-17 09:00 5.76 38 11400 (1969) 1 (1954) 402 4 7 20 30 100 321 401 789 1300
2026-01-17 08:30 5.75 37 11400 (1969) 1 (1954) 402 4 7 20 30 100 321 401 789 1300
2026-01-17 08:00 5.81 43 11400 (1969) 1 (1954) 402 4 7 20 30 100 321 401 789 1300
2026-01-17 07:30 5.82 45 11400 (1969) 1 (1954) 402 4 7 20 30 100 321 401 789 1300
2026-01-17 07:00 5.82 45 11400 (1969) 1 (1954) 402 4 7 20 30 100 321 401 789 1300
2026-01-17 06:30 5.82 45 11400 (1969) 1 (1954) 402 4 7 20 30 100 321 401 789 1300
2026-01-17 06:00 5.81 43 11400 (1969) 1 (1954) 402 4 7 20 30 100 321 401 789 1300
2026-01-17 05:30 5.82 45 11400 (1969) 1 (1954) 402 4 7 20 30 100 321 401 789 1300
2026-01-17 05:00 5.81 43 11400 (1969) 1 (1954) 402 4 7 20 30 100 321 401 789 1300
2026-01-17 04:30 5.82 45 11400 (1969) 1 (1954) 402 4 7 20 30 100 321 401 789 1300
2026-01-17 04:00 5.77 39 11400 (1969) 1 (1954) 402 4 7 20 30 100 321 401 789 1300
2026-01-17 03:30 5.80 42 11400 (1969) 1 (1954) 402 4 7 20 30 100 321 401 789 1300
2026-01-17 03:00 5.76 38 11400 (1969) 1 (1954) 402 4 7 20 30 100 321 401 789 1300
2026-01-17 02:30 5.79 41 11400 (1969) 1 (1954) 402 4 7 20 30 100 321 401 789 1300
2026-01-17 02:00 40 11400 (1969) 1 (1954) 402 4 7 20 30 100 321 401 789 1300
2026-01-17 01:30 40 11400 (1969) 1 (1954) 402 4 7 20 30 100 321 401 789 1300
2026-01-17 01:00 40 11400 (1969) 1 (1954) 402 4 7 20 30 100 321 401 789 1300
2026-01-17 00:30 40 11400 (1969) 1 (1954) 402 4 7 20 30 100 321 401 789 1300
2026-01-17 00:00 5.83 46 11400 (1969) 1 (1954) 402 4 7 20 30 100 321 401 789 1300
2026-01-16 23:30 45 11400 (1969) 1 (1954) 402 4 7 20 30 100 321 401 789 1300
2026-01-16 23:00 46 11400 (1969) 1 (1954) 402 4 7 20 30 100 321 401 789 1300
2026-01-16 22:30 5.82 45 5410 (1969) 1 (1954) 369 4 7 19 31 107 305 410 1190 1700
2026-01-16 22:00 38 5410 (1969) 1 (1954) 369 4 7 19 31 107 305 410 1190 1700
2026-01-16 21:30 5.75 37 5410 (1969) 1 (1954) 369 4 7 19 31 107 305 410 1190 1700
2026-01-16 21:00 39 5410 (1969) 1 (1954) 369 4 7 19 31 107 305 410 1190 1700
2026-01-16 20:30 5.77 39 5410 (1969) 1 (1954) 369 4 7 19 31 107 305 410 1190 1700
2026-01-16 20:00 5.80 42 5410 (1969) 1 (1954) 369 4 7 19 31 107 305 410 1190 1700
2026-01-16 19:30 5.79 41 5410 (1969) 1 (1954) 369 4 7 19 31 107 305 410 1190 1700
2026-01-16 19:00 5.77 39 5410 (1969) 1 (1954) 369 4 7 19 31 107 305 410 1190 1700
2026-01-16 18:30 5.79 41 5410 (1969) 1 (1954) 369 4 7 19 31 107 305 410 1190 1700
2026-01-16 18:00 5.76 38 5410 (1969) 1 (1954) 369 4 7 19 31 107 305 410 1190 1700
2026-01-16 17:30 5.75 37 5410 (1969) 1 (1954) 369 4 7 19 31 107 305 410 1190 1700
2026-01-16 17:00 5.79 41 5410 (1969) 1 (1954) 369 4 7 19 31 107 305 410 1190 1700
2026-01-16 16:30 5.84 47 5410 (1969) 1 (1954) 369 4 7 19 31 107 305 410 1190 1700
2026-01-16 16:00 5.77 39 5410 (1969) 1 (1954) 369 4 7 19 31 107 305 410 1190 1700
2026-01-16 15:30 5.80 42 5410 (1969) 1 (1954) 369 4 7 19 31 107 305 410 1190 1700
2026-01-16 15:00 38 5410 (1969) 1 (1954) 369 4 7 19 31 107 305 410 1190 1700
2026-01-16 14:30 5.77 39 5410 (1969) 1 (1954) 369 4 7 19 31 107 305 410 1190 1700
2026-01-16 14:00 5.77 39 5410 (1969) 1 (1954) 369 4 7 19 31 107 305 410 1190 1700
2026-01-16 13:30 39 5410 (1969) 1 (1954) 369 4 7 19 31 107 305 410 1190 1700
2026-01-16 13:00 5.78 40 5410 (1969) 1 (1954) 369 4 7 19 31 107 305 410 1190 1700
2026-01-16 12:30 5.80 42 5410 (1969) 1 (1954) 369 4 7 19 31 107 305 410 1190 1700
2026-01-16 12:00 5.80 42 5410 (1969) 1 (1954) 369 4 7 19 31 107 305 410 1190 1700
2026-01-16 11:30 5.78 40 5410 (1969) 1 (1954) 369 4 7 19 31 107 305 410 1190 1700
2026-01-16 11:00 41 5410 (1969) 1 (1954) 369 4 7 19 31 107 305 410 1190 1700
2026-01-16 10:30 5.77 39 5410 (1969) 1 (1954) 369 4 7 19 31 107 305 410 1190 1700
2026-01-16 10:00 42 5410 (1969) 1 (1954) 369 4 7 19 31 107 305 410 1190 1700
2026-01-16 09:30 5.79 41 5410 (1969) 1 (1954) 369 4 7 19 31 107 305 410 1190 1700
2026-01-16 09:00 42 5410 (1969) 1 (1954) 369 4 7 19 31 107 305 410 1190 1700
2026-01-16 08:30 5.85 48 5410 (1969) 1 (1954) 369 4 7 19 31 107 305 410 1190 1700
2026-01-16 08:00 5.86 49 5410 (1969) 1 (1954) 369 4 7 19 31 107 305 410 1190 1700
2026-01-16 07:30 5.86 49 5410 (1969) 1 (1954) 369 4 7 19 31 107 305 410 1190 1700
2026-01-16 07:00 5.86 49 5410 (1969) 1 (1954) 369 4 7 19 31 107 305 410 1190 1700
2026-01-16 06:30 5.86 49 5410 (1969) 1 (1954) 369 4 7 19 31 107 305 410 1190 1700
2026-01-16 06:00 5.86 49 5410 (1969) 1 (1954) 369 4 7 19 31 107 305 410 1190 1700
2026-01-16 05:30 5.86 49 5410 (1969) 1 (1954) 369 4 7 19 31 107 305 410 1190 1700
2026-01-16 05:00 5.86 49 5410 (1969) 1 (1954) 369 4 7 19 31 107 305 410 1190 1700
2026-01-16 04:30 5.86 49 5410 (1969) 1 (1954) 369 4 7 19 31 107 305 410 1190 1700
2026-01-16 04:00 5.86 49 5410 (1969) 1 (1954) 369 4 7 19 31 107 305 410 1190 1700
2026-01-16 03:30 5.86 49 5410 (1969) 1 (1954) 369 4 7 19 31 107 305 410 1190 1700
2026-01-16 03:00 5.87 51 5410 (1969) 1 (1954) 369 4 7 19 31 107 305 410 1190 1700
2026-01-16 02:30 5.87 51 5410 (1969) 1 (1954) 369 4 7 19 31 107 305 410 1190 1700
2026-01-16 02:00 51 5410 (1969) 1 (1954) 369 4 7 19 31 107 305 410 1190 1700
2026-01-16 01:30 5.87 51 5410 (1969) 1 (1954) 369 4 7 19 31 107 305 410 1190 1700
2026-01-16 01:00 5.87 51 5410 (1969) 1 (1954) 369 4 7 19 31 107 305 410 1190 1700
2026-01-16 00:30 51 5410 (1969) 1 (1954) 369 4 7 19 31 107 305 410 1190 1700
2026-01-16 00:00 5.87 51 5410 (1969) 1 (1954) 369 4 7 19 31 107 305 410 1190 1700
2026-01-15 23:30 5.87 51 5410 (1969) 1 (1954) 369 4 7 19 31 107 305 410 1190 1700
2026-01-15 23:00 51 5410 (1969) 1 (1954) 369 4 7 19 31 107 305 410 1190 1700
2026-01-15 22:30 5.87 51 11600 (1937) 1 (1954) 566 5 7 23 32 105 226 437 1780 2590
2026-01-15 22:00 5.87 51 11600 (1937) 1 (1954) 566 5 7 23 32 105 226 437 1780 2590
2026-01-15 21:30 5.87 51 11600 (1937) 1 (1954) 566 5 7 23 32 105 226 437 1780 2590
2026-01-15 21:00 5.87 51 11600 (1937) 1 (1954) 566 5 7 23 32 105 226 437 1780 2590
2026-01-15 20:30 52 11600 (1937) 1 (1954) 566 5 7 23 32 105 226 437 1780 2590
2026-01-15 20:00 5.87 51 11600 (1937) 1 (1954) 566 5 7 23 32 105 226 437 1780 2590
2026-01-15 19:30 5.88 52 11600 (1937) 1 (1954) 566 5 7 23 32 105 226 437 1780 2590
2026-01-15 19:00 5.88 52 11600 (1937) 1 (1954) 566 5 7 23 32 105 226 437 1780 2590
2026-01-15 18:30 5.88 52 11600 (1937) 1 (1954) 566 5 7 23 32 105 226 437 1780 2590
2026-01-15 18:00 5.88 52 11600 (1937) 1 (1954) 566 5 7 23 32 105 226 437 1780 2590
2026-01-15 17:30 5.88 52 11600 (1937) 1 (1954) 566 5 7 23 32 105 226 437 1780 2590
2026-01-15 17:00 5.88 52 11600 (1937) 1 (1954) 566 5 7 23 32 105 226 437 1780 2590
2026-01-15 16:30 5.88 52 11600 (1937) 1 (1954) 566 5 7 23 32 105 226 437 1780 2590
2026-01-15 16:00 5.88 52 11600 (1937) 1 (1954) 566 5 7 23 32 105 226 437 1780 2590
2026-01-15 15:30 52 11600 (1937) 1 (1954) 566 5 7 23 32 105 226 437 1780 2590
2026-01-15 15:00 5.84 47 11600 (1937) 1 (1954) 566 5 7 23 32 105 226 437 1780 2590
2026-01-15 14:30 5.86 49 11600 (1937) 1 (1954) 566 5 7 23 32 105 226 437 1780 2590
2026-01-15 14:00 47 11600 (1937) 1 (1954) 566 5 7 23 32 105 226 437 1780 2590
2026-01-15 13:30 5.85 48 11600 (1937) 1 (1954) 566 5 7 23 32 105 226 437 1780 2590
2026-01-15 13:00 5.89 53 11600 (1937) 1 (1954) 566 5 7 23 32 105 226 437 1780 2590
2026-01-15 12:30 53 11600 (1937) 1 (1954) 566 5 7 23 32 105 226 437 1780 2590
2026-01-15 12:00 5.89 53 11600 (1937) 1 (1954) 566 5 7 23 32 105 226 437 1780 2590
2026-01-15 11:30 5.89 53 11600 (1937) 1 (1954) 566 5 7 23 32 105 226 437 1780 2590
2026-01-15 11:00 5.89 53 11600 (1937) 1 (1954) 566 5 7 23 32 105 226 437 1780 2590
2026-01-15 10:30 5.90 55 11600 (1937) 1 (1954) 566 5 7 23 32 105 226 437 1780 2590
2026-01-15 10:00 55 11600 (1937) 1 (1954) 566 5 7 23 32 105 226 437 1780 2590
2026-01-15 09:30 5.90 55 11600 (1937) 1 (1954) 566 5 7 23 32 105 226 437 1780 2590
2026-01-15 09:00 5.90 55 11600 (1937) 1 (1954) 566 5 7 23 32 105 226 437 1780 2590
2026-01-15 08:30 5.90 55 11600 (1937) 1 (1954) 566 5 7 23 32 105 226 437 1780 2590
2026-01-15 08:00 5.91 56 11600 (1937) 1 (1954) 566 5 7 23 32 105 226 437 1780 2590
2026-01-15 07:30 5.91 56 11600 (1937) 1 (1954) 566 5 7 23 32 105 226 437 1780 2590
2026-01-15 07:00 5.91 56 11600 (1937) 1 (1954) 566 5 7 23 32 105 226 437 1780 2590
2026-01-15 06:30 5.91 56 11600 (1937) 1 (1954) 566 5 7 23 32 105 226 437 1780 2590
2026-01-15 06:00 5.91 56 11600 (1937) 1 (1954) 566 5 7 23 32 105 226 437 1780 2590
2026-01-15 05:30 5.91 56 11600 (1937) 1 (1954) 566 5 7 23 32 105 226 437 1780 2590
2026-01-15 05:00 56 11600 (1937) 1 (1954) 566 5 7 23 32 105 226 437 1780 2590
2026-01-15 04:30 5.91 56 11600 (1937) 1 (1954) 566 5 7 23 32 105 226 437 1780 2590
2026-01-15 04:00 5.91 56 11600 (1937) 1 (1954) 566 5 7 23 32 105 226 437 1780 2590
2026-01-15 03:30 5.91 56 11600 (1937) 1 (1954) 566 5 7 23 32 105 226 437 1780 2590
2026-01-15 03:00 5.91 56 11600 (1937) 1 (1954) 566 5 7 23 32 105 226 437 1780 2590
2026-01-15 02:30 5.91 56 11600 (1937) 1 (1954) 566 5 7 23 32 105 226 437 1780 2590
2026-01-15 02:00 5.92 57 11600 (1937) 1 (1954) 566 5 7 23 32 105 226 437 1780 2590
2026-01-15 01:30 5.90 55 11600 (1937) 1 (1954) 566 5 7 23 32 105 226 437 1780 2590
2026-01-15 01:00 5.92 57 11600 (1937) 1 (1954) 566 5 7 23 32 105 226 437 1780 2590
2026-01-15 00:30 57 11600 (1937) 1 (1954) 566 5 7 23 32 105 226 437 1780 2590
2026-01-15 00:00 57 11600 (1937) 1 (1954) 566 5 7 23 32 105 226 437 1780 2590
2026-01-14 23:30 5.92 57 11600 (1937) 1 (1954) 566 5 7 23 32 105 226 437 1780 2590
2026-01-14 23:00 57 11600 (1937) 1 (1954) 566 5 7 23 32 105 226 437 1780 2590
2026-01-14 22:30 5.92 57 24200 (1995) 1 (1954) 833 5 7 22 32 89 228 288 763 7530
2026-01-14 22:00 57 24200 (1995) 1 (1954) 833 5 7 22 32 89 228 288 763 7530
2026-01-14 21:30 5.93 59 24200 (1995) 1 (1954) 833 5 7 22 32 89 228 288 763 7530
2026-01-14 20:30 5.89 53 24200 (1995) 1 (1954) 833 5 7 22 32 89 228 288 763 7530
2026-01-14 20:00 57 24200 (1995) 1 (1954) 833 5 7 22 32 89 228 288 763 7530
2026-01-14 19:30 5.88 52 24200 (1995) 1 (1954) 833 5 7 22 32 89 228 288 763 7530
2026-01-14 19:00 5.91 56 24200 (1995) 1 (1954) 833 5 7 22 32 89 228 288 763 7530
2026-01-14 18:30 5.93 59 24200 (1995) 1 (1954) 833 5 7 22 32 89 228 288 763 7530
2026-01-14 18:00 5.88 52 24200 (1995) 1 (1954) 833 5 7 22 32 89 228 288 763 7530
2026-01-14 17:30 5.89 53 24200 (1995) 1 (1954) 833 5 7 22 32 89 228 288 763 7530
2026-01-14 17:00 5.87 51 24200 (1995) 1 (1954) 833 5 7 22 32 89 228 288 763 7530
2026-01-14 16:30 57 24200 (1995) 1 (1954) 833 5 7 22 32 89 228 288 763 7530
2026-01-14 16:00 5.87 51 24200 (1995) 1 (1954) 833 5 7 22 32 89 228 288 763 7530
2026-01-14 15:30 53 24200 (1995) 1 (1954) 833 5 7 22 32 89 228 288 763 7530
2026-01-14 15:00 5.88 52 24200 (1995) 1 (1954) 833 5 7 22 32 89 228 288 763 7530
2026-01-14 14:30 5.85 48 24200 (1995) 1 (1954) 833 5 7 22 32 89 228 288 763 7530
2026-01-14 14:00 52 24200 (1995) 1 (1954) 833 5 7 22 32 89 228 288 763 7530
2026-01-14 13:30 5.87 51 24200 (1995) 1 (1954) 833 5 7 22 32 89 228 288 763 7530
2026-01-14 13:00 5.87 51 24200 (1995) 1 (1954) 833 5 7 22 32 89 228 288 763 7530
2026-01-14 12:30 51 24200 (1995) 1 (1954) 833 5 7 22 32 89 228 288 763 7530
2026-01-14 12:00 5.88 52 24200 (1995) 1 (1954) 833 5 7 22 32 89 228 288 763 7530
2026-01-14 11:30 5.89 53 24200 (1995) 1 (1954) 833 5 7 22 32 89 228 288 763 7530
2026-01-14 11:00 5.87 51 24200 (1995) 1 (1954) 833 5 7 22 32 89 228 288 763 7530
2026-01-14 10:30 5.91 56 24200 (1995) 1 (1954) 833 5 7 22 32 89 228 288 763 7530
2026-01-14 10:00 49 24200 (1995) 1 (1954) 833 5 7 22 32 89 228 288 763 7530
2026-01-14 09:30 5.89 53 24200 (1995) 1 (1954) 833 5 7 22 32 89 228 288 763 7530
2026-01-14 09:00 49 24200 (1995) 1 (1954) 833 5 7 22 32 89 228 288 763 7530
2026-01-14 08:30 5.90 55 24200 (1995) 1 (1954) 833 5 7 22 32 89 228 288 763 7530
2026-01-14 08:00 5.95 62 24200 (1995) 1 (1954) 833 5 7 22 32 89 228 288 763 7530
2026-01-14 07:30 5.96 63 24200 (1995) 1 (1954) 833 5 7 22 32 89 228 288 763 7530
2026-01-14 07:00 5.96 63 24200 (1995) 1 (1954) 833 5 7 22 32 89 228 288 763 7530
2026-01-14 06:30 5.92 57 24200 (1995) 1 (1954) 833 5 7 22 32 89 228 288 763 7530
2026-01-14 06:00 5.95 62 24200 (1995) 1 (1954) 833 5 7 22 32 89 228 288 763 7530
2026-01-14 05:30 5.96 63 24200 (1995) 1 (1954) 833 5 7 22 32 89 228 288 763 7530
2026-01-14 05:00 5.94 60 24200 (1995) 1 (1954) 833 5 7 22 32 89 228 288 763 7530
2026-01-14 04:30 5.95 62 24200 (1995) 1 (1954) 833 5 7 22 32 89 228 288 763 7530
2026-01-14 04:00 5.96 63 24200 (1995) 1 (1954) 833 5 7 22 32 89 228 288 763 7530
2026-01-14 03:30 5.96 63 24200 (1995) 1 (1954) 833 5 7 22 32 89 228 288 763 7530
2026-01-14 03:00 5.97 65 24200 (1995) 1 (1954) 833 5 7 22 32 89 228 288 763 7530
2026-01-14 02:30 5.92 57 24200 (1995) 1 (1954) 833 5 7 22 32 89 228 288 763 7530
2026-01-14 02:00 5.94 60 24200 (1995) 1 (1954) 833 5 7 22 32 89 228 288 763 7530
2026-01-14 01:30 65 24200 (1995) 1 (1954) 833 5 7 22 32 89 228 288 763 7530
2026-01-14 01:00 5.92 57 24200 (1995) 1 (1954) 833 5 7 22 32 89 228 288 763 7530
2026-01-14 00:30 5.97 65 24200 (1995) 1 (1954) 833 5 7 22 32 89 228 288 763 7530
2026-01-14 00:00 65 24200 (1995) 1 (1954) 833 5 7 22 32 89 228 288 763 7530
2026-01-13 23:30 5.96 63 24200 (1995) 1 (1954) 833 5 7 22 32 89 228 288 763 7530
2026-01-13 23:00 5.93 59 24200 (1995) 1 (1954) 833 5 7 22 32 89 228 288 763 7530
2026-01-13 22:30 5.93 59 22700 (2005) 1 (1954) 569 4 8 23 30 84 244 322 832 2250
2026-01-13 22:00 65 22700 (2005) 1 (1954) 569 4 8 23 30 84 244 322 832 2250
2026-01-13 21:30 5.95 62 22700 (2005) 1 (1954) 569 4 8 23 30 84 244 322 832 2250
2026-01-13 21:00 5.95 62 22700 (2005) 1 (1954) 569 4 8 23 30 84 244 322 832 2250
2026-01-13 20:30 5.93 59 22700 (2005) 1 (1954) 569 4 8 23 30 84 244 322 832 2250
2026-01-13 20:00 5.91 56 22700 (2005) 1 (1954) 569 4 8 23 30 84 244 322 832 2250
2026-01-13 19:30 5.93 59 22700 (2005) 1 (1954) 569 4 8 23 30 84 244 322 832 2250
2026-01-13 19:00 5.96 63 22700 (2005) 1 (1954) 569 4 8 23 30 84 244 322 832 2250
2026-01-13 18:30 5.97 65 22700 (2005) 1 (1954) 569 4 8 23 30 84 244 322 832 2250
2026-01-13 18:00 5.97 65 22700 (2005) 1 (1954) 569 4 8 23 30 84 244 322 832 2250
2026-01-13 17:30 65 22700 (2005) 1 (1954) 569 4 8 23 30 84 244 322 832 2250
2026-01-13 17:00 5.97 65 22700 (2005) 1 (1954) 569 4 8 23 30 84 244 322 832 2250
2026-01-13 16:30 5.97 65 22700 (2005) 1 (1954) 569 4 8 23 30 84 244 322 832 2250
2026-01-13 16:00 5.97 65 22700 (2005) 1 (1954) 569 4 8 23 30 84 244 322 832 2250
2026-01-13 15:30 5.90 55 22700 (2005) 1 (1954) 569 4 8 23 30 84 244 322 832 2250
2026-01-13 15:00 5.91 56 22700 (2005) 1 (1954) 569 4 8 23 30 84 244 322 832 2250
2026-01-13 14:30 5.92 57 22700 (2005) 1 (1954) 569 4 8 23 30 84 244 322 832 2250
2026-01-13 14:00 5.89 53 22700 (2005) 1 (1954) 569 4 8 23 30 84 244 322 832 2250
2026-01-13 13:30 5.92 57 22700 (2005) 1 (1954) 569 4 8 23 30 84 244 322 832 2250
2026-01-13 13:00 5.90 55 22700 (2005) 1 (1954) 569 4 8 23 30 84 244 322 832 2250
2026-01-13 12:30 5.87 51 22700 (2005) 1 (1954) 569 4 8 23 30 84 244 322 832 2250
2026-01-13 12:00 5.93 59 22700 (2005) 1 (1954) 569 4 8 23 30 84 244 322 832 2250
2026-01-13 11:30 5.97 65 22700 (2005) 1 (1954) 569 4 8 23 30 84 244 322 832 2250
2026-01-13 11:00 55 22700 (2005) 1 (1954) 569 4 8 23 30 84 244 322 832 2250
2026-01-13 10:30 5.91 56 22700 (2005) 1 (1954) 569 4 8 23 30 84 244 322 832 2250
2026-01-13 10:00 56 22700 (2005) 1 (1954) 569 4 8 23 30 84 244 322 832 2250
2026-01-13 09:30 5.91 56 22700 (2005) 1 (1954) 569 4 8 23 30 84 244 322 832 2250
2026-01-13 09:00 59 22700 (2005) 1 (1954) 569 4 8 23 30 84 244 322 832 2250
2026-01-13 08:30 5.99 68 22700 (2005) 1 (1954) 569 4 8 23 30 84 244 322 832 2250
2026-01-13 06:30 5.99 68 22700 (2005) 1 (1954) 569 4 8 23 30 84 244 322 832 2250
2026-01-13 06:00 5.99 68 22700 (2005) 1 (1954) 569 4 8 23 30 84 244 322 832 2250
2026-01-13 05:30 5.99 68 22700 (2005) 1 (1954) 569 4 8 23 30 84 244 322 832 2250
2026-01-13 05:00 5.99 68 22700 (2005) 1 (1954) 569 4 8 23 30 84 244 322 832 2250
2026-01-13 04:30 5.99 68 22700 (2005) 1 (1954) 569 4 8 23 30 84 244 322 832 2250
2026-01-13 04:00 5.99 68 22700 (2005) 1 (1954) 569 4 8 23 30 84 244 322 832 2250
2026-01-13 03:30 5.99 68 22700 (2005) 1 (1954) 569 4 8 23 30 84 244 322 832 2250
2026-01-13 03:00 5.99 68 22700 (2005) 1 (1954) 569 4 8 23 30 84 244 322 832 2250
2026-01-13 02:30 5.99 68 22700 (2005) 1 (1954) 569 4 8 23 30 84 244 322 832 2250
2026-01-13 02:00 5.99 68 22700 (2005) 1 (1954) 569 4 8 23 30 84 244 322 832 2250
2026-01-13 01:30 5.99 68 22700 (2005) 1 (1954) 569 4 8 23 30 84 244 322 832 2250
2026-01-13 01:00 5.99 68 22700 (2005) 1 (1954) 569 4 8 23 30 84 244 322 832 2250
2026-01-13 00:30 5.99 68 22700 (2005) 1 (1954) 569 4 8 23 30 84 244 322 832 2250
2026-01-13 00:00 5.99 68 22700 (2005) 1 (1954) 569 4 8 23 30 84 244 322 832 2250
2026-01-12 23:30 5.99 68 22700 (2005) 1 (1954) 569 4 8 23 30 84 244 322 832 2250
2026-01-12 23:00 5.99 68 22700 (2005) 1 (1954) 569 4 8 23 30 84 244 322 832 2250
2026-01-12 22:30 5.99 68 11400 (2020) 1 (1954) 374 5 8 20 31 80 235 342 686 1390
2026-01-12 22:00 5.99 68 11400 (2020) 1 (1954) 374 5 8 20 31 80 235 342 686 1390
2026-01-12 21:30 5.99 68 11400 (2020) 1 (1954) 374 5 8 20 31 80 235 342 686 1390
2026-01-12 21:00 5.98 66 11400 (2020) 1 (1954) 374 5 8 20 31 80 235 342 686 1390
2026-01-12 20:30 5.98 66 11400 (2020) 1 (1954) 374 5 8 20 31 80 235 342 686 1390
2026-01-12 20:00 5.98 66 11400 (2020) 1 (1954) 374 5 8 20 31 80 235 342 686 1390
2026-01-12 19:30 5.98 66 11400 (2020) 1 (1954) 374 5 8 20 31 80 235 342 686 1390
2026-01-12 19:00 5.98 66 11400 (2020) 1 (1954) 374 5 8 20 31 80 235 342 686 1390
2026-01-12 18:30 5.98 66 11400 (2020) 1 (1954) 374 5 8 20 31 80 235 342 686 1390
2026-01-12 18:00 5.98 66 11400 (2020) 1 (1954) 374 5 8 20 31 80 235 342 686 1390
2026-01-12 17:30 5.98 66 11400 (2020) 1 (1954) 374 5 8 20 31 80 235 342 686 1390
2026-01-12 17:00 5.98 66 11400 (2020) 1 (1954) 374 5 8 20 31 80 235 342 686 1390
2026-01-12 16:30 5.98 66 11400 (2020) 1 (1954) 374 5 8 20 31 80 235 342 686 1390
2026-01-12 16:00 5.98 66 11400 (2020) 1 (1954) 374 5 8 20 31 80 235 342 686 1390
2026-01-12 15:30 5.94 60 11400 (2020) 1 (1954) 374 5 8 20 31 80 235 342 686 1390
2026-01-12 15:00 5.91 56 11400 (2020) 1 (1954) 374 5 8 20 31 80 235 342 686 1390
2026-01-12 14:30 5.95 62 11400 (2020) 1 (1954) 374 5 8 20 31 80 235 342 686 1390
2026-01-12 14:00 5.95 62 11400 (2020) 1 (1954) 374 5 8 20 31 80 235 342 686 1390
2026-01-12 13:30 59 11400 (2020) 1 (1954) 374 5 8 20 31 80 235 342 686 1390
2026-01-12 13:00 5.95 11400 (2020) 1 (1954) 374 5 8 20 31 80 235 342 686 1390
2026-01-12 12:30 5.98 66 11400 (2020) 1 (1954) 374 5 8 20 31 80 235 342 686 1390
2026-01-12 12:00 5.93 59 11400 (2020) 1 (1954) 374 5 8 20 31 80 235 342 686 1390
2026-01-12 11:30 5.92 57 11400 (2020) 1 (1954) 374 5 8 20 31 80 235 342 686 1390
2026-01-12 11:00 57 11400 (2020) 1 (1954) 374 5 8 20 31 80 235 342 686 1390
2026-01-12 10:30 5.90 55 11400 (2020) 1 (1954) 374 5 8 20 31 80 235 342 686 1390
2026-01-12 10:00 5.88 52 11400 (2020) 1 (1954) 374 5 8 20 31 80 235 342 686 1390
2026-01-12 09:30 5.96 63 11400 (2020) 1 (1954) 374 5 8 20 31 80 235 342 686 1390
2026-01-12 09:00 5.96 63 11400 (2020) 1 (1954) 374 5 8 20 31 80 235 342 686 1390
2026-01-12 08:30 5.96 63 11400 (2020) 1 (1954) 374 5 8 20 31 80 235 342 686 1390
2026-01-12 08:00 5.96 63 11400 (2020) 1 (1954) 374 5 8 20 31 80 235 342 686 1390
2026-01-12 07:30 5.96 63 11400 (2020) 1 (1954) 374 5 8 20 31 80 235 342 686 1390
2026-01-12 07:00 5.96 63 11400 (2020) 1 (1954) 374 5 8 20 31 80 235 342 686 1390
2026-01-12 06:30 5.96 63 11400 (2020) 1 (1954) 374 5 8 20 31 80 235 342 686 1390
2026-01-12 06:00 5.96 63 11400 (2020) 1 (1954) 374 5 8 20 31 80 235 342 686 1390
2026-01-12 05:30 5.97 65 11400 (2020) 1 (1954) 374 5 8 20 31 80 235 342 686 1390
2026-01-12 05:00 5.96 63 11400 (2020) 1 (1954) 374 5 8 20 31 80 235 342 686 1390
2026-01-12 04:30 5.97 65 11400 (2020) 1 (1954) 374 5 8 20 31 80 235 342 686 1390
2026-01-12 04:00 5.97 65 11400 (2020) 1 (1954) 374 5 8 20 31 80 235 342 686 1390
2026-01-12 03:30 5.97 65 11400 (2020) 1 (1954) 374 5 8 20 31 80 235 342 686 1390
2026-01-12 03:00 5.97 65 11400 (2020) 1 (1954) 374 5 8 20 31 80 235 342 686 1390
2026-01-12 02:30 5.97 65 11400 (2020) 1 (1954) 374 5 8 20 31 80 235 342 686 1390
2026-01-12 02:00 5.97 65 11400 (2020) 1 (1954) 374 5 8 20 31 80 235 342 686 1390
2026-01-12 01:30 5.97 65 11400 (2020) 1 (1954) 374 5 8 20 31 80 235 342 686 1390
2026-01-12 01:00 5.98 66 11400 (2020) 1 (1954) 374 5 8 20 31 80 235 342 686 1390
2026-01-12 00:30 5.98 66 11400 (2020) 1 (1954) 374 5 8 20 31 80 235 342 686 1390
2026-01-12 00:00 5.98 66 11400 (2020) 1 (1954) 374 5 8 20 31 80 235 342 686 1390
2026-01-11 23:30 5.98 66 11400 (2020) 1 (1954) 374 5 8 20 31 80 235 342 686 1390
2026-01-11 23:00 5.98 66 11400 (2020) 1 (1954) 374 5 8 20 31 80 235 342 686 1390
2026-01-11 22:30 5.98 66 32700 (2020) 1 (1954) 645 6 9 18 32 80 293 377 735 1440
2026-01-11 22:00 5.98 66 32700 (2020) 1 (1954) 645 6 9 18 32 80 293 377 735 1440
2026-01-11 21:30 5.99 68 32700 (2020) 1 (1954) 645 6 9 18 32 80 293 377 735 1440
2026-01-11 21:00 5.99 68 32700 (2020) 1 (1954) 645 6 9 18 32 80 293 377 735 1440
2026-01-11 20:30 5.99 68 32700 (2020) 1 (1954) 645 6 9 18 32 80 293 377 735 1440
2026-01-11 20:00 5.99 68 32700 (2020) 1 (1954) 645 6 9 18 32 80 293 377 735 1440
2026-01-11 19:30 5.99 68 32700 (2020) 1 (1954) 645 6 9 18 32 80 293 377 735 1440
2026-01-11 19:00 5.99 68 32700 (2020) 1 (1954) 645 6 9 18 32 80 293 377 735 1440
2026-01-11 18:30 5.99 68 32700 (2020) 1 (1954) 645 6 9 18 32 80 293 377 735 1440
2026-01-11 18:00 5.99 68 32700 (2020) 1 (1954) 645 6 9 18 32 80 293 377 735 1440
2026-01-11 17:30 5.99 68 32700 (2020) 1 (1954) 645 6 9 18 32 80 293 377 735 1440
2026-01-11 17:00 6.00 69 32700 (2020) 1 (1954) 645 6 9 18 32 80 293 377 735 1440
2026-01-11 16:30 6.00 69 32700 (2020) 1 (1954) 645 6 9 18 32 80 293 377 735 1440
2026-01-11 16:00 5.95 62 32700 (2020) 1 (1954) 645 6 9 18 32 80 293 377 735 1440
2026-01-11 15:30 6.00 69 32700 (2020) 1 (1954) 645 6 9 18 32 80 293 377 735 1440
2026-01-11 15:00 5.96 63 32700 (2020) 1 (1954) 645 6 9 18 32 80 293 377 735 1440
2026-01-11 14:30 5.96 63 32700 (2020) 1 (1954) 645 6 9 18 32 80 293 377 735 1440
2026-01-11 14:00 5.99 68 32700 (2020) 1 (1954) 645 6 9 18 32 80 293 377 735 1440
2026-01-11 13:30 5.96 63 32700 (2020) 1 (1954) 645 6 9 18 32 80 293 377 735 1440
2026-01-11 13:00 6.00 69 32700 (2020) 1 (1954) 645 6 9 18 32 80 293 377 735 1440
2026-01-11 12:30 5.95 62 32700 (2020) 1 (1954) 645 6 9 18 32 80 293 377 735 1440
2026-01-11 12:00 5.97 65 32700 (2020) 1 (1954) 645 6 9 18 32 80 293 377 735 1440
2026-01-11 11:30 5.95 62 32700 (2020) 1 (1954) 645 6 9 18 32 80 293 377 735 1440
2026-01-11 11:00 5.96 63 32700 (2020) 1 (1954) 645 6 9 18 32 80 293 377 735 1440
2026-01-11 10:30 5.94 60 32700 (2020) 1 (1954) 645 6 9 18 32 80 293 377 735 1440
2026-01-11 10:00 5.99 68 32700 (2020) 1 (1954) 645 6 9 18 32 80 293 377 735 1440
2026-01-11 09:30 5.96 63 32700 (2020) 1 (1954) 645 6 9 18 32 80 293 377 735 1440
2026-01-11 09:00 5.95 62 32700 (2020) 1 (1954) 645 6 9 18 32 80 293 377 735 1440
2026-01-11 08:30 5.98 66 32700 (2020) 1 (1954) 645 6 9 18 32 80 293 377 735 1440
2026-01-11 08:00 5.98 66 32700 (2020) 1 (1954) 645 6 9 18 32 80 293 377 735 1440
2026-01-11 07:30 5.97 65 32700 (2020) 1 (1954) 645 6 9 18 32 80 293 377 735 1440
2026-01-11 07:00 5.96 63 32700 (2020) 1 (1954) 645 6 9 18 32 80 293 377 735 1440
2026-01-11 06:30 5.95 62 32700 (2020) 1 (1954) 645 6 9 18 32 80 293 377 735 1440
2026-01-11 06:00 5.93 59 32700 (2020) 1 (1954) 645 6 9 18 32 80 293 377 735 1440
2026-01-11 05:30 5.89 53 32700 (2020) 1 (1954) 645 6 9 18 32 80 293 377 735 1440
2026-01-11 05:00 5.89 53 32700 (2020) 1 (1954) 645 6 9 18 32 80 293 377 735 1440
2026-01-11 04:30 5.79 41 32700 (2020) 1 (1954) 645 6 9 18 32 80 293 377 735 1440
2026-01-11 04:00 5.81 43 32700 (2020) 1 (1954) 645 6 9 18 32 80 293 377 735 1440
2026-01-11 03:30 5.84 47 32700 (2020) 1 (1954) 645 6 9 18 32 80 293 377 735 1440
2026-01-11 03:00 5.83 46 32700 (2020) 1 (1954) 645 6 9 18 32 80 293 377 735 1440
2026-01-11 02:30 5.82 45 32700 (2020) 1 (1954) 645 6 9 18 32 80 293 377 735 1440
2026-01-11 02:00 46 32700 (2020) 1 (1954) 645 6 9 18 32 80 293 377 735 1440
2026-01-11 01:30 5.80 42 32700 (2020) 1 (1954) 645 6 9 18 32 80 293 377 735 1440
2026-01-11 01:00 5.79 41 32700 (2020) 1 (1954) 645 6 9 18 32 80 293 377 735 1440
2026-01-11 00:30 5.78 40 32700 (2020) 1 (1954) 645 6 9 18 32 80 293 377 735 1440
2026-01-11 00:00 5.79 41 32700 (2020) 1 (1954) 645 6 9 18 32 80 293 377 735 1440
2026-01-10 23:30 47 32700 (2020) 1 (1954) 645 6 9 18 32 80 293 377 735 1440
2026-01-10 23:00 5.84 47 32700 (2020) 1 (1954) 645 6 9 18 32 80 293 377 735 1440
2026-01-10 22:30 5.84 47 8800 (1946) 1 (1954) 358 6 9 18 32 81 276 354 865 1540
2026-01-10 22:00 41 8800 (1946) 1 (1954) 358 6 9 18 32 81 276 354 865 1540
2026-01-10 21:30 5.83 46 8800 (1946) 1 (1954) 358 6 9 18 32 81 276 354 865 1540
2026-01-10 21:00 40 8800 (1946) 1 (1954) 358 6 9 18 32 81 276 354 865 1540
2026-01-10 20:30 5.77 39 8800 (1946) 1 (1954) 358 6 9 18 32 81 276 354 865 1540
2026-01-10 20:00 5.78 40 8800 (1946) 1 (1954) 358 6 9 18 32 81 276 354 865 1540
2026-01-10 19:30 5.75 37 8800 (1946) 1 (1954) 358 6 9 18 32 81 276 354 865 1540
2026-01-10 19:00 5.75 37 8800 (1946) 1 (1954) 358 6 9 18 32 81 276 354 865 1540
2026-01-10 18:30 5.75 37 8800 (1946) 1 (1954) 358 6 9 18 32 81 276 354 865 1540
2026-01-10 18:00 5.81 43 8800 (1946) 1 (1954) 358 6 9 18 32 81 276 354 865 1540
2026-01-10 17:30 5.81 43 8800 (1946) 1 (1954) 358 6 9 18 32 81 276 354 865 1540
2026-01-10 17:00 5.75 37 8800 (1946) 1 (1954) 358 6 9 18 32 81 276 354 865 1540
2026-01-10 16:30 5.76 38 8800 (1946) 1 (1954) 358 6 9 18 32 81 276 354 865 1540
2026-01-10 16:00 5.74 36 8800 (1946) 1 (1954) 358 6 9 18 32 81 276 354 865 1540
2026-01-10 15:30 5.73 35 8800 (1946) 1 (1954) 358 6 9 18 32 81 276 354 865 1540
2026-01-10 15:00 5.74 36 8800 (1946) 1 (1954) 358 6 9 18 32 81 276 354 865 1540
2026-01-10 14:30 5.74 36 8800 (1946) 1 (1954) 358 6 9 18 32 81 276 354 865 1540
2026-01-10 14:00 5.73 35 8800 (1946) 1 (1954) 358 6 9 18 32 81 276 354 865 1540
2026-01-10 13:30 5.74 36 8800 (1946) 1 (1954) 358 6 9 18 32 81 276 354 865 1540
2026-01-10 13:00 5.74 36 8800 (1946) 1 (1954) 358 6 9 18 32 81 276 354 865 1540
2026-01-10 12:30 5.75 37 8800 (1946) 1 (1954) 358 6 9 18 32 81 276 354 865 1540
2026-01-10 12:00 5.74 36 8800 (1946) 1 (1954) 358 6 9 18 32 81 276 354 865 1540
2026-01-10 11:30 5.78 40 8800 (1946) 1 (1954) 358 6 9 18 32 81 276 354 865 1540
2026-01-10 11:00 5.79 41 8800 (1946) 1 (1954) 358 6 9 18 32 81 276 354 865 1540
2026-01-10 10:30 5.76 38 8800 (1946) 1 (1954) 358 6 9 18 32 81 276 354 865 1540
2026-01-10 10:00 5.73 35 8800 (1946) 1 (1954) 358 6 9 18 32 81 276 354 865 1540
2026-01-10 09:30 5.79 41 8800 (1946) 1 (1954) 358 6 9 18 32 81 276 354 865 1540
2026-01-10 09:00 5.80 42 8800 (1946) 1 (1954) 358 6 9 18 32 81 276 354 865 1540
2026-01-10 08:30 5.74 36 8800 (1946) 1 (1954) 358 6 9 18 32 81 276 354 865 1540
2026-01-10 08:00 5.79 41 8800 (1946) 1 (1954) 358 6 9 18 32 81 276 354 865 1540
2026-01-10 07:30 5.74 36 8800 (1946) 1 (1954) 358 6 9 18 32 81 276 354 865 1540
2026-01-10 07:00 5.72 34 8800 (1946) 1 (1954) 358 6 9 18 32 81 276 354 865 1540
2026-01-10 06:30 5.72 34 8800 (1946) 1 (1954) 358 6 9 18 32 81 276 354 865 1540
2026-01-10 06:00 5.73 35 8800 (1946) 1 (1954) 358 6 9 18 32 81 276 354 865 1540
2026-01-10 05:30 5.74 36 8800 (1946) 1 (1954) 358 6 9 18 32 81 276 354 865 1540
2026-01-10 05:00 5.78 40 8800 (1946) 1 (1954) 358 6 9 18 32 81 276 354 865 1540
2026-01-10 04:30 5.78 40 8800 (1946) 1 (1954) 358 6 9 18 32 81 276 354 865 1540
2026-01-10 04:00 5.78 40 8800 (1946) 1 (1954) 358 6 9 18 32 81 276 354 865 1540
2026-01-10 03:30 5.78 40 8800 (1946) 1 (1954) 358 6 9 18 32 81 276 354 865 1540
2026-01-10 03:00 5.78 40 8800 (1946) 1 (1954) 358 6 9 18 32 81 276 354 865 1540
2026-01-10 02:30 40 8800 (1946) 1 (1954) 358 6 9 18 32 81 276 354 865 1540
2026-01-10 02:00 40 8800 (1946) 1 (1954) 358 6 9 18 32 81 276 354 865 1540
2026-01-10 01:30 40 8800 (1946) 1 (1954) 358 6 9 18 32 81 276 354 865 1540
2026-01-10 01:00 40 8800 (1946) 1 (1954) 358 6 9 18 32 81 276 354 865 1540
2026-01-10 00:30 40 8800 (1946) 1 (1954) 358 6 9 18 32 81 276 354 865 1540
2026-01-10 00:00 40 8800 (1946) 1 (1954) 358 6 9 18 32 81 276 354 865 1540
2026-01-09 23:30 5.78 40 8800 (1946) 1 (1954) 358 6 9 18 32 81 276 354 865 1540
2026-01-09 23:00 40 8800 (1946) 1 (1954) 358 6 9 18 32 81 276 354 865 1540
2026-01-09 22:30 40 12800 (1946) 1 (1954) 529 7 9 18 29 79 290 359 843 3650
2026-01-09 22:00 5.78 40 12800 (1946) 1 (1954) 529 7 9 18 29 79 290 359 843 3650
2026-01-09 21:30 40 12800 (1946) 1 (1954) 529 7 9 18 29 79 290 359 843 3650
2026-01-09 21:00 5.78 40 12800 (1946) 1 (1954) 529 7 9 18 29 79 290 359 843 3650
2026-01-09 20:30 5.78 40 12800 (1946) 1 (1954) 529 7 9 18 29 79 290 359 843 3650
2026-01-09 20:00 5.78 40 12800 (1946) 1 (1954) 529 7 9 18 29 79 290 359 843 3650
2026-01-09 19:30 5.78 40 12800 (1946) 1 (1954) 529 7 9 18 29 79 290 359 843 3650
2026-01-09 19:00 5.78 40 12800 (1946) 1 (1954) 529 7 9 18 29 79 290 359 843 3650
2026-01-09 18:30 5.78 40 12800 (1946) 1 (1954) 529 7 9 18 29 79 290 359 843 3650
2026-01-09 18:00 5.78 40 12800 (1946) 1 (1954) 529 7 9 18 29 79 290 359 843 3650
2026-01-09 17:30 40 12800 (1946) 1 (1954) 529 7 9 18 29 79 290 359 843 3650
2026-01-09 17:00 5.78 40 12800 (1946) 1 (1954) 529 7 9 18 29 79 290 359 843 3650
2026-01-09 16:30 5.78 40 12800 (1946) 1 (1954) 529 7 9 18 29 79 290 359 843 3650
2026-01-09 16:00 5.79 41 12800 (1946) 1 (1954) 529 7 9 18 29 79 290 359 843 3650
2026-01-09 15:30 5.78 40 12800 (1946) 1 (1954) 529 7 9 18 29 79 290 359 843 3650
2026-01-09 15:00 5.79 41 12800 (1946) 1 (1954) 529 7 9 18 29 79 290 359 843 3650
2026-01-09 14:30 5.79 41 12800 (1946) 1 (1954) 529 7 9 18 29 79 290 359 843 3650
2026-01-09 14:00 5.79 41 12800 (1946) 1 (1954) 529 7 9 18 29 79 290 359 843 3650
2026-01-09 13:30 5.78 40 12800 (1946) 1 (1954) 529 7 9 18 29 79 290 359 843 3650
2026-01-09 13:00 5.76 38 12800 (1946) 1 (1954) 529 7 9 18 29 79 290 359 843 3650
2026-01-09 12:30 42 12800 (1946) 1 (1954) 529 7 9 18 29 79 290 359 843 3650
2026-01-09 12:00 5.76 38 12800 (1946) 1 (1954) 529 7 9 18 29 79 290 359 843 3650
2026-01-09 11:30 5.79 41 12800 (1946) 1 (1954) 529 7 9 18 29 79 290 359 843 3650
2026-01-09 11:00 5.79 41 12800 (1946) 1 (1954) 529 7 9 18 29 79 290 359 843 3650
2026-01-09 10:30 5.80 42 12800 (1946) 1 (1954) 529 7 9 18 29 79 290 359 843 3650
2026-01-09 10:00 5.80 42 12800 (1946) 1 (1954) 529 7 9 18 29 79 290 359 843 3650
2026-01-09 09:30 5.77 39 12800 (1946) 1 (1954) 529 7 9 18 29 79 290 359 843 3650
2026-01-09 09:00 5.77 39 12800 (1946) 1 (1954) 529 7 9 18 29 79 290 359 843 3650
2026-01-09 08:30 5.75 37 12800 (1946) 1 (1954) 529 7 9 18 29 79 290 359 843 3650
2026-01-09 08:00 5.75 37 12800 (1946) 1 (1954) 529 7 9 18 29 79 290 359 843 3650
2026-01-09 07:30 5.76 38 12800 (1946) 1 (1954) 529 7 9 18 29 79 290 359 843 3650
2026-01-09 07:00 5.75 37 12800 (1946) 1 (1954) 529 7 9 18 29 79 290 359 843 3650
2026-01-09 06:30 5.74 36 12800 (1946) 1 (1954) 529 7 9 18 29 79 290 359 843 3650
2026-01-09 06:00 5.72 34 12800 (1946) 1 (1954) 529 7 9 18 29 79 290 359 843 3650
2026-01-09 05:30 5.71 33 12800 (1946) 1 (1954) 529 7 9 18 29 79 290 359 843 3650
2026-01-09 05:00 5.71 33 12800 (1946) 1 (1954) 529 7 9 18 29 79 290 359 843 3650
2026-01-09 04:30 5.72 34 12800 (1946) 1 (1954) 529 7 9 18 29 79 290 359 843 3650
2026-01-09 04:00 5.70 32 12800 (1946) 1 (1954) 529 7 9 18 29 79 290 359 843 3650
2026-01-09 03:30 5.70 32 12800 (1946) 1 (1954) 529 7 9 18 29 79 290 359 843 3650
2026-01-09 03:00 5.70 32 12800 (1946) 1 (1954) 529 7 9 18 29 79 290 359 843 3650
2026-01-09 02:30 5.69 31 12800 (1946) 1 (1954) 529 7 9 18 29 79 290 359 843 3650
2026-01-09 02:00 5.71 33 12800 (1946) 1 (1954) 529 7 9 18 29 79 290 359 843 3650
2026-01-09 01:30 5.72 34 12800 (1946) 1 (1954) 529 7 9 18 29 79 290 359 843 3650
2026-01-09 01:00 5.71 33 12800 (1946) 1 (1954) 529 7 9 18 29 79 290 359 843 3650
2026-01-09 00:30 5.72 34 12800 (1946) 1 (1954) 529 7 9 18 29 79 290 359 843 3650
2026-01-09 00:00 5.77 39 12800 (1946) 1 (1954) 529 7 9 18 29 79 290 359 843 3650
2026-01-08 23:30 5.73 35 12800 (1946) 1 (1954) 529 7 9 18 29 79 290 359 843 3650
2026-01-08 23:00 5.73 35 12800 (1946) 1 (1954) 529 7 9 18 29 79 290 359 843 3650
2026-01-08 22:30 5.71 33 11400 (1937) 1 (1954) 577 6 9 17 27 85 314 398 793 3440
2026-01-08 22:00 5.72 34 11400 (1937) 1 (1954) 577 6 9 17 27 85 314 398 793 3440
2026-01-08 21:30 5.71 33 11400 (1937) 1 (1954) 577 6 9 17 27 85 314 398 793 3440
2026-01-08 21:00 5.70 32 11400 (1937) 1 (1954) 577 6 9 17 27 85 314 398 793 3440
2026-01-08 20:30 30 11400 (1937) 1 (1954) 577 6 9 17 27 85 314 398 793 3440
2026-01-08 20:00 5.68 30 11400 (1937) 1 (1954) 577 6 9 17 27 85 314 398 793 3440
2026-01-08 19:30 5.66 29 11400 (1937) 1 (1954) 577 6 9 17 27 85 314 398 793 3440
2026-01-08 19:00 5.69 31 11400 (1937) 1 (1954) 577 6 9 17 27 85 314 398 793 3440
2026-01-08 18:30 5.72 34 11400 (1937) 1 (1954) 577 6 9 17 27 85 314 398 793 3440
2026-01-08 18:00 5.72 34 11400 (1937) 1 (1954) 577 6 9 17 27 85 314 398 793 3440
2026-01-08 17:30 5.70 32 11400 (1937) 1 (1954) 577 6 9 17 27 85 314 398 793 3440
2026-01-08 17:00 5.66 29 11400 (1937) 1 (1954) 577 6 9 17 27 85 314 398 793 3440
2026-01-08 16:30 5.66 29 11400 (1937) 1 (1954) 577 6 9 17 27 85 314 398 793 3440
2026-01-08 16:00 5.66 29 11400 (1937) 1 (1954) 577 6 9 17 27 85 314 398 793 3440
2026-01-08 15:30 5.64 27 11400 (1937) 1 (1954) 577 6 9 17 27 85 314 398 793 3440
2026-01-08 15:00 5.61 24 11400 (1937) 1 (1954) 577 6 9 17 27 85 314 398 793 3440
2026-01-08 14:30 5.61 24 11400 (1937) 1 (1954) 577 6 9 17 27 85 314 398 793 3440
2026-01-08 14:00 5.64 27 11400 (1937) 1 (1954) 577 6 9 17 27 85 314 398 793 3440
2026-01-08 13:30 5.65 28 11400 (1937) 1 (1954) 577 6 9 17 27 85 314 398 793 3440
2026-01-08 13:00 5.66 29 11400 (1937) 1 (1954) 577 6 9 17 27 85 314 398 793 3440
2026-01-08 12:30 5.65 28 11400 (1937) 1 (1954) 577 6 9 17 27 85 314 398 793 3440
2026-01-08 12:00 5.65 28 11400 (1937) 1 (1954) 577 6 9 17 27 85 314 398 793 3440
2026-01-08 11:30 5.61 24 11400 (1937) 1 (1954) 577 6 9 17 27 85 314 398 793 3440
2026-01-08 11:00 5.65 28 11400 (1937) 1 (1954) 577 6 9 17 27 85 314 398 793 3440
2026-01-08 10:00 5.64 27 11400 (1937) 1 (1954) 577 6 9 17 27 85 314 398 793 3440
2026-01-08 09:30 5.64 27 11400 (1937) 1 (1954) 577 6 9 17 27 85 314 398 793 3440
2026-01-08 09:00 5.65 28 11400 (1937) 1 (1954) 577 6 9 17 27 85 314 398 793 3440
2026-01-08 08:30 5.65 28 11400 (1937) 1 (1954) 577 6 9 17 27 85 314 398 793 3440
2026-01-08 08:00 5.62 25 11400 (1937) 1 (1954) 577 6 9 17 27 85 314 398 793 3440
2026-01-08 07:30 5.65 28 11400 (1937) 1 (1954) 577 6 9 17 27 85 314 398 793 3440
2026-01-08 07:00 5.65 28 11400 (1937) 1 (1954) 577 6 9 17 27 85 314 398 793 3440
2026-01-08 06:30 5.65 28 11400 (1937) 1 (1954) 577 6 9 17 27 85 314 398 793 3440
2026-01-08 06:00 5.65 28 11400 (1937) 1 (1954) 577 6 9 17 27 85 314 398 793 3440
2026-01-08 05:30 5.65 28 11400 (1937) 1 (1954) 577 6 9 17 27 85 314 398 793 3440
2026-01-08 05:00 5.65 28 11400 (1937) 1 (1954) 577 6 9 17 27 85 314 398 793 3440
2026-01-08 04:30 5.65 28 11400 (1937) 1 (1954) 577 6 9 17 27 85 314 398 793 3440
2026-01-08 04:00 5.65 28 11400 (1937) 1 (1954) 577 6 9 17 27 85 314 398 793 3440
2026-01-08 03:30 5.65 28 11400 (1937) 1 (1954) 577 6 9 17 27 85 314 398 793 3440
2026-01-08 03:00 5.65 28 11400 (1937) 1 (1954) 577 6 9 17 27 85 314 398 793 3440
2026-01-08 02:30 5.65 28 11400 (1937) 1 (1954) 577 6 9 17 27 85 314 398 793 3440
2026-01-08 02:00 5.65 28 11400 (1937) 1 (1954) 577 6 9 17 27 85 314 398 793 3440
2026-01-08 01:30 5.65 28 11400 (1937) 1 (1954) 577 6 9 17 27 85 314 398 793 3440
2026-01-08 01:00 5.65 28 11400 (1937) 1 (1954) 577 6 9 17 27 85 314 398 793 3440
2026-01-08 00:30 5.65 28 11400 (1937) 1 (1954) 577 6 9 17 27 85 314 398 793 3440
2026-01-08 00:00 5.64 27 11400 (1937) 1 (1954) 577 6 9 17 27 85 314 398 793 3440
2026-01-07 23:30 5.65 28 11400 (1937) 1 (1954) 577 6 9 17 27 85 314 398 793 3440
2026-01-07 23:00 5.64 27 11400 (1937) 1 (1954) 577 6 9 17 27 85 314 398 793 3440
2026-01-07 22:30 5.64 27 4680 (2005) 1 (1954) 321 6 8 17 23 87 263 394 911 1490
2026-01-07 22:00 5.65 28 4680 (2005) 1 (1954) 321 6 8 17 23 87 263 394 911 1490
2026-01-07 21:30 5.65 28 4680 (2005) 1 (1954) 321 6 8 17 23 87 263 394 911 1490
2026-01-07 21:00 5.65 28 4680 (2005) 1 (1954) 321 6 8 17 23 87 263 394 911 1490
2026-01-07 20:30 5.65 28 4680 (2005) 1 (1954) 321 6 8 17 23 87 263 394 911 1490
2026-01-07 20:00 5.65 28 4680 (2005) 1 (1954) 321 6 8 17 23 87 263 394 911 1490
2026-01-07 19:30 5.65 28 4680 (2005) 1 (1954) 321 6 8 17 23 87 263 394 911 1490
2026-01-07 19:00 5.65 28 4680 (2005) 1 (1954) 321 6 8 17 23 87 263 394 911 1490
2026-01-07 18:30 5.65 28 4680 (2005) 1 (1954) 321 6 8 17 23 87 263 394 911 1490
2026-01-07 18:00 5.65 28 4680 (2005) 1 (1954) 321 6 8 17 23 87 263 394 911 1490
2026-01-07 17:30 5.64 27 4680 (2005) 1 (1954) 321 6 8 17 23 87 263 394 911 1490
2026-01-07 17:00 5.64 27 4680 (2005) 1 (1954) 321 6 8 17 23 87 263 394 911 1490
2026-01-07 16:30 5.64 27 4680 (2005) 1 (1954) 321 6 8 17 23 87 263 394 911 1490
2026-01-07 16:00 5.64 27 4680 (2005) 1 (1954) 321 6 8 17 23 87 263 394 911 1490
2026-01-07 15:30 5.64 27 4680 (2005) 1 (1954) 321 6 8 17 23 87 263 394 911 1490
2026-01-07 15:00 27 4680 (2005) 1 (1954) 321 6 8 17 23 87 263 394 911 1490
2026-01-07 14:30 5.64 27 4680 (2005) 1 (1954) 321 6 8 17 23 87 263 394 911 1490
2026-01-07 14:00 5.65 28 4680 (2005) 1 (1954) 321 6 8 17 23 87 263 394 911 1490
2026-01-07 13:30 5.65 28 4680 (2005) 1 (1954) 321 6 8 17 23 87 263 394 911 1490
2026-01-07 13:00 5.65 28 4680 (2005) 1 (1954) 321 6 8 17 23 87 263 394 911 1490
2026-01-07 12:30 28 4680 (2005) 1 (1954) 321 6 8 17 23 87 263 394 911 1490
2026-01-07 12:00 5.65 28 4680 (2005) 1 (1954) 321 6 8 17 23 87 263 394 911 1490
2026-01-07 11:30 5.65 28 4680 (2005) 1 (1954) 321 6 8 17 23 87 263 394 911 1490
2026-01-07 11:00 5.65 28 4680 (2005) 1 (1954) 321 6 8 17 23 87 263 394 911 1490
2026-01-07 10:30 5.65 28 4680 (2005) 1 (1954) 321 6 8 17 23 87 263 394 911 1490
2026-01-07 10:00 5.65 28 4680 (2005) 1 (1954) 321 6 8 17 23 87 263 394 911 1490
2026-01-07 09:30 5.65 28 4680 (2005) 1 (1954) 321 6 8 17 23 87 263 394 911 1490
2026-01-07 09:00 5.65 28 4680 (2005) 1 (1954) 321 6 8 17 23 87 263 394 911 1490
2026-01-07 08:30 5.66 29 4680 (2005) 1 (1954) 321 6 8 17 23 87 263 394 911 1490
2026-01-07 08:00 5.66 29 4680 (2005) 1 (1954) 321 6 8 17 23 87 263 394 911 1490
2026-01-07 07:30 5.66 29 4680 (2005) 1 (1954) 321 6 8 17 23 87 263 394 911 1490
2026-01-07 07:00 5.66 29 4680 (2005) 1 (1954) 321 6 8 17 23 87 263 394 911 1490
2026-01-07 06:30 5.66 29 4680 (2005) 1 (1954) 321 6 8 17 23 87 263 394 911 1490
2026-01-07 06:00 5.66 29 4680 (2005) 1 (1954) 321 6 8 17 23 87 263 394 911 1490
2026-01-07 05:30 5.66 29 4680 (2005) 1 (1954) 321 6 8 17 23 87 263 394 911 1490
2026-01-07 05:00 5.66 29 4680 (2005) 1 (1954) 321 6 8 17 23 87 263 394 911 1490
2026-01-07 04:30 5.65 28 4680 (2005) 1 (1954) 321 6 8 17 23 87 263 394 911 1490
2026-01-07 04:00 5.65 28 4680 (2005) 1 (1954) 321 6 8 17 23 87 263 394 911 1490
2026-01-07 03:30 5.65 28 4680 (2005) 1 (1954) 321 6 8 17 23 87 263 394 911 1490
2026-01-07 03:00 5.65 28 4680 (2005) 1 (1954) 321 6 8 17 23 87 263 394 911 1490
2026-01-07 02:30 5.65 28 4680 (2005) 1 (1954) 321 6 8 17 23 87 263 394 911 1490
2026-01-07 02:00 5.65 28 4680 (2005) 1 (1954) 321 6 8 17 23 87 263 394 911 1490
2026-01-07 01:30 5.65 28 4680 (2005) 1 (1954) 321 6 8 17 23 87 263 394 911 1490
2026-01-07 01:00 5.65 28 4680 (2005) 1 (1954) 321 6 8 17 23 87 263 394 911 1490
2026-01-07 00:30 5.65 28 4680 (2005) 1 (1954) 321 6 8 17 23 87 263 394 911 1490
2026-01-07 00:00 5.65 28 4680 (2005) 1 (1954) 321 6 8 17 23 87 263 394 911 1490
2026-01-06 23:30 5.65 28 4680 (2005) 1 (1954) 321 6 8 17 23 87 263 394 911 1490
2026-01-06 23:00 5.65 28 4680 (2005) 1 (1954) 321 6 8 17 23 87 263 394 911 1490
2026-01-06 22:30 5.65 28 21400 (2005) 1 (1954) 643 5 8 16 24 101 264 370 1230 3320
2026-01-06 22:00 5.65 28 21400 (2005) 1 (1954) 643 5 8 16 24 101 264 370 1230 3320
2026-01-06 21:30 5.65 28 21400 (2005) 1 (1954) 643 5 8 16 24 101 264 370 1230 3320
2026-01-06 21:00 5.65 28 21400 (2005) 1 (1954) 643 5 8 16 24 101 264 370 1230 3320
2026-01-06 20:30 5.65 28 21400 (2005) 1 (1954) 643 5 8 16 24 101 264 370 1230 3320
2026-01-06 20:00 5.65 28 21400 (2005) 1 (1954) 643 5 8 16 24 101 264 370 1230 3320
2026-01-06 19:30 5.65 28 21400 (2005) 1 (1954) 643 5 8 16 24 101 264 370 1230 3320
2026-01-06 19:00 5.65 28 21400 (2005) 1 (1954) 643 5 8 16 24 101 264 370 1230 3320
2026-01-06 18:30 5.65 28 21400 (2005) 1 (1954) 643 5 8 16 24 101 264 370 1230 3320
2026-01-06 18:00 5.65 28 21400 (2005) 1 (1954) 643 5 8 16 24 101 264 370 1230 3320
2026-01-06 17:30 5.65 28 21400 (2005) 1 (1954) 643 5 8 16 24 101 264 370 1230 3320
2026-01-06 17:00 5.65 28 21400 (2005) 1 (1954) 643 5 8 16 24 101 264 370 1230 3320
2026-01-06 16:30 5.60 24 21400 (2005) 1 (1954) 643 5 8 16 24 101 264 370 1230 3320
2026-01-06 16:00 5.60 24 21400 (2005) 1 (1954) 643 5 8 16 24 101 264 370 1230 3320
2026-01-06 15:30 22 21400 (2005) 1 (1954) 643 5 8 16 24 101 264 370 1230 3320
2026-01-06 15:00 5.60 24 21400 (2005) 1 (1954) 643 5 8 16 24 101 264 370 1230 3320
2026-01-06 14:30 5.60 24 21400 (2005) 1 (1954) 643 5 8 16 24 101 264 370 1230 3320
2026-01-06 14:00 24 21400 (2005) 1 (1954) 643 5 8 16 24 101 264 370 1230 3320
2026-01-06 13:30 5.61 24 21400 (2005) 1 (1954) 643 5 8 16 24 101 264 370 1230 3320
2026-01-06 13:00 5.59 23 21400 (2005) 1 (1954) 643 5 8 16 24 101 264 370 1230 3320
2026-01-06 12:30 5.60 24 21400 (2005) 1 (1954) 643 5 8 16 24 101 264 370 1230 3320
2026-01-06 12:00 5.59 23 21400 (2005) 1 (1954) 643 5 8 16 24 101 264 370 1230 3320
2026-01-06 11:30 5.60 24 21400 (2005) 1 (1954) 643 5 8 16 24 101 264 370 1230 3320
2026-01-06 11:00 5.60 24 21400 (2005) 1 (1954) 643 5 8 16 24 101 264 370 1230 3320
2026-01-06 10:30 5.63 26 21400 (2005) 1 (1954) 643 5 8 16 24 101 264 370 1230 3320
2026-01-06 10:00 5.63 26 21400 (2005) 1 (1954) 643 5 8 16 24 101 264 370 1230 3320
2026-01-06 09:30 5.61 24 21400 (2005) 1 (1954) 643 5 8 16 24 101 264 370 1230 3320
2026-01-06 09:00 5.61 24 21400 (2005) 1 (1954) 643 5 8 16 24 101 264 370 1230 3320
2026-01-06 08:30 5.65 28 21400 (2005) 1 (1954) 643 5 8 16 24 101 264 370 1230 3320
2026-01-06 08:00 5.66 29 21400 (2005) 1 (1954) 643 5 8 16 24 101 264 370 1230 3320
2026-01-06 07:30 5.60 24 21400 (2005) 1 (1954) 643 5 8 16 24 101 264 370 1230 3320
2026-01-06 07:00 5.61 24 21400 (2005) 1 (1954) 643 5 8 16 24 101 264 370 1230 3320
2026-01-06 06:30 5.62 25 21400 (2005) 1 (1954) 643 5 8 16 24 101 264 370 1230 3320
2026-01-06 06:00 5.64 27 21400 (2005) 1 (1954) 643 5 8 16 24 101 264 370 1230 3320
2026-01-06 05:30 5.63 26 21400 (2005) 1 (1954) 643 5 8 16 24 101 264 370 1230 3320
2026-01-06 05:00 5.66 29 21400 (2005) 1 (1954) 643 5 8 16 24 101 264 370 1230 3320
2026-01-06 04:30 5.66 29 21400 (2005) 1 (1954) 643 5 8 16 24 101 264 370 1230 3320
2026-01-06 04:00 5.66 29 21400 (2005) 1 (1954) 643 5 8 16 24 101 264 370 1230 3320
2026-01-06 03:30 5.66 29 21400 (2005) 1 (1954) 643 5 8 16 24 101 264 370 1230 3320
2026-01-06 03:00 5.66 29 21400 (2005) 1 (1954) 643 5 8 16 24 101 264 370 1230 3320
2026-01-06 02:30 5.66 29 21400 (2005) 1 (1954) 643 5 8 16 24 101 264 370 1230 3320
2026-01-06 02:00 5.65 28 21400 (2005) 1 (1954) 643 5 8 16 24 101 264 370 1230 3320
2026-01-06 01:30 5.66 29 21400 (2005) 1 (1954) 643 5 8 16 24 101 264 370 1230 3320
2026-01-06 01:00 5.66 29 21400 (2005) 1 (1954) 643 5 8 16 24 101 264 370 1230 3320
2026-01-06 00:30 5.66 29 21400 (2005) 1 (1954) 643 5 8 16 24 101 264 370 1230 3320
2026-01-06 00:00 5.66 29 21400 (2005) 1 (1954) 643 5 8 16 24 101 264 370 1230 3320
2026-01-05 23:30 5.66 29 21400 (2005) 1 (1954) 643 5 8 16 24 101 264 370 1230 3320
2026-01-05 23:00 5.66 29 21400 (2005) 1 (1954) 643 5 8 16 24 101 264 370 1230 3320
2026-01-05 22:30 5.66 29 26900 (2005) 1 (1954) 794 6 9 15 25 104 308 351 1950 2780
2026-01-05 22:00 5.66 29 26900 (2005) 1 (1954) 794 6 9 15 25 104 308 351 1950 2780
2026-01-05 21:30 5.66 29 26900 (2005) 1 (1954) 794 6 9 15 25 104 308 351 1950 2780
2026-01-05 21:00 5.66 29 26900 (2005) 1 (1954) 794 6 9 15 25 104 308 351 1950 2780
2026-01-05 20:30 5.66 29 26900 (2005) 1 (1954) 794 6 9 15 25 104 308 351 1950 2780
2026-01-05 20:00 5.66 29 26900 (2005) 1 (1954) 794 6 9 15 25 104 308 351 1950 2780
2026-01-05 19:30 5.65 28 26900 (2005) 1 (1954) 794 6 9 15 25 104 308 351 1950 2780
2026-01-05 19:00 5.66 29 26900 (2005) 1 (1954) 794 6 9 15 25 104 308 351 1950 2780
2026-01-05 18:30 5.66 29 26900 (2005) 1 (1954) 794 6 9 15 25 104 308 351 1950 2780
2026-01-05 18:00 5.65 28 26900 (2005) 1 (1954) 794 6 9 15 25 104 308 351 1950 2780
2026-01-05 17:30 5.65 28 26900 (2005) 1 (1954) 794 6 9 15 25 104 308 351 1950 2780
2026-01-05 17:00 5.65 28 26900 (2005) 1 (1954) 794 6 9 15 25 104 308 351 1950 2780
2026-01-05 16:30 5.66 29 26900 (2005) 1 (1954) 794 6 9 15 25 104 308 351 1950 2780
2026-01-05 16:00 5.66 29 26900 (2005) 1 (1954) 794 6 9 15 25 104 308 351 1950 2780
2026-01-05 15:30 5.65 28 26900 (2005) 1 (1954) 794 6 9 15 25 104 308 351 1950 2780
2026-01-05 15:00 5.66 29 26900 (2005) 1 (1954) 794 6 9 15 25 104 308 351 1950 2780
2026-01-05 14:30 5.66 29 26900 (2005) 1 (1954) 794 6 9 15 25 104 308 351 1950 2780
2026-01-05 14:00 5.66 29 26900 (2005) 1 (1954) 794 6 9 15 25 104 308 351 1950 2780
2026-01-05 13:30 5.66 29 26900 (2005) 1 (1954) 794 6 9 15 25 104 308 351 1950 2780
2026-01-05 13:00 5.66 29 26900 (2005) 1 (1954) 794 6 9 15 25 104 308 351 1950 2780
2026-01-05 12:30 5.66 29 26900 (2005) 1 (1954) 794 6 9 15 25 104 308 351 1950 2780
2026-01-05 12:00 5.66 29 26900 (2005) 1 (1954) 794 6 9 15 25 104 308 351 1950 2780
2026-01-05 11:30 5.66 29 26900 (2005) 1 (1954) 794 6 9 15 25 104 308 351 1950 2780
2026-01-05 11:00 5.65 28 26900 (2005) 1 (1954) 794 6 9 15 25 104 308 351 1950 2780
2026-01-05 10:30 5.65 28 26900 (2005) 1 (1954) 794 6 9 15 25 104 308 351 1950 2780
2026-01-05 10:00 5.65 28 26900 (2005) 1 (1954) 794 6 9 15 25 104 308 351 1950 2780
2026-01-05 09:30 5.66 29 26900 (2005) 1 (1954) 794 6 9 15 25 104 308 351 1950 2780
2026-01-05 09:00 5.67 29 26900 (2005) 1 (1954) 794 6 9 15 25 104 308 351 1950 2780
2026-01-05 08:30 5.66 29 26900 (2005) 1 (1954) 794 6 9 15 25 104 308 351 1950 2780
2026-01-05 08:00 5.65 28 26900 (2005) 1 (1954) 794 6 9 15 25 104 308 351 1950 2780
2026-01-05 07:30 5.65 28 26900 (2005) 1 (1954) 794 6 9 15 25 104 308 351 1950 2780
2026-01-05 07:00 5.63 26 26900 (2005) 1 (1954) 794 6 9 15 25 104 308 351 1950 2780
2026-01-05 06:30 5.63 26 26900 (2005) 1 (1954) 794 6 9 15 25 104 308 351 1950 2780
2026-01-05 06:00 5.63 26 26900 (2005) 1 (1954) 794 6 9 15 25 104 308 351 1950 2780
2026-01-05 05:30 5.64 27 26900 (2005) 1 (1954) 794 6 9 15 25 104 308 351 1950 2780
2026-01-05 05:00 5.64 27 26900 (2005) 1 (1954) 794 6 9 15 25 104 308 351 1950 2780
2026-01-05 04:30 5.64 27 26900 (2005) 1 (1954) 794 6 9 15 25 104 308 351 1950 2780
2026-01-05 04:00 5.65 28 26900 (2005) 1 (1954) 794 6 9 15 25 104 308 351 1950 2780
2026-01-05 03:30 5.65 28 26900 (2005) 1 (1954) 794 6 9 15 25 104 308 351 1950 2780
2026-01-05 03:00 5.65 28 26900 (2005) 1 (1954) 794 6 9 15 25 104 308 351 1950 2780
2026-01-05 02:30 5.65 28 26900 (2005) 1 (1954) 794 6 9 15 25 104 308 351 1950 2780
2026-01-05 02:00 5.65 28 26900 (2005) 1 (1954) 794 6 9 15 25 104 308 351 1950 2780
2026-01-05 01:30 5.65 28 26900 (2005) 1 (1954) 794 6 9 15 25 104 308 351 1950 2780
2026-01-05 01:00 5.65 28 26900 (2005) 1 (1954) 794 6 9 15 25 104 308 351 1950 2780
2026-01-05 00:30 5.65 28 26900 (2005) 1 (1954) 794 6 9 15 25 104 308 351 1950 2780
2026-01-05 00:00 5.65 28 26900 (2005) 1 (1954) 794 6 9 15 25 104 308 351 1950 2780
2026-01-04 23:30 5.66 29 26900 (2005) 1 (1954) 794 6 9 15 25 104 308 351 1950 2780
2026-01-04 23:00 5.65 28 26900 (2005) 1 (1954) 794 6 9 15 25 104 308 351 1950 2780
2026-01-04 22:30 5.66 29 15900 (2005) 1 (1954) 747 5 9 15 24 110 293 390 818 5190
2026-01-04 22:00 5.66 29 15900 (2005) 1 (1954) 747 5 9 15 24 110 293 390 818 5190
2026-01-04 21:30 5.66 29 15900 (2005) 1 (1954) 747 5 9 15 24 110 293 390 818 5190
2026-01-04 21:00 5.66 29 15900 (2005) 1 (1954) 747 5 9 15 24 110 293 390 818 5190
2026-01-04 20:30 5.66 29 15900 (2005) 1 (1954) 747 5 9 15 24 110 293 390 818 5190
2026-01-04 20:00 5.66 29 15900 (2005) 1 (1954) 747 5 9 15 24 110 293 390 818 5190
2026-01-04 19:30 5.66 29 15900 (2005) 1 (1954) 747 5 9 15 24 110 293 390 818 5190
2026-01-04 19:00 5.66 29 15900 (2005) 1 (1954) 747 5 9 15 24 110 293 390 818 5190
2026-01-04 18:30 5.66 29 15900 (2005) 1 (1954) 747 5 9 15 24 110 293 390 818 5190
2026-01-04 18:00 5.66 29 15900 (2005) 1 (1954) 747 5 9 15 24 110 293 390 818 5190
2026-01-04 17:30 5.66 29 15900 (2005) 1 (1954) 747 5 9 15 24 110 293 390 818 5190
2026-01-04 17:00 5.66 29 15900 (2005) 1 (1954) 747 5 9 15 24 110 293 390 818 5190
2026-01-04 16:30 5.66 29 15900 (2005) 1 (1954) 747 5 9 15 24 110 293 390 818 5190
2026-01-04 16:00 5.66 29 15900 (2005) 1 (1954) 747 5 9 15 24 110 293 390 818 5190
2026-01-04 15:30 5.66 29 15900 (2005) 1 (1954) 747 5 9 15 24 110 293 390 818 5190
2026-01-04 15:00 5.66 29 15900 (2005) 1 (1954) 747 5 9 15 24 110 293 390 818 5190
2026-01-04 14:30 5.66 29 15900 (2005) 1 (1954) 747 5 9 15 24 110 293 390 818 5190
2026-01-04 14:00 5.66 29 15900 (2005) 1 (1954) 747 5 9 15 24 110 293 390 818 5190
2026-01-04 13:30 5.65 28 15900 (2005) 1 (1954) 747 5 9 15 24 110 293 390 818 5190
2026-01-04 13:00 5.66 29 15900 (2005) 1 (1954) 747 5 9 15 24 110 293 390 818 5190
2026-01-04 12:30 5.66 29 15900 (2005) 1 (1954) 747 5 9 15 24 110 293 390 818 5190
2026-01-04 12:00 5.66 29 15900 (2005) 1 (1954) 747 5 9 15 24 110 293 390 818 5190
2026-01-04 11:30 5.67 29 15900 (2005) 1 (1954) 747 5 9 15 24 110 293 390 818 5190
2026-01-04 11:00 5.68 30 15900 (2005) 1 (1954) 747 5 9 15 24 110 293 390 818 5190
2026-01-04 10:30 5.68 30 15900 (2005) 1 (1954) 747 5 9 15 24 110 293 390 818 5190
2026-01-04 10:00 5.67 29 15900 (2005) 1 (1954) 747 5 9 15 24 110 293 390 818 5190
2026-01-04 09:30 5.67 29 15900 (2005) 1 (1954) 747 5 9 15 24 110 293 390 818 5190
2026-01-04 09:00 5.67 29 15900 (2005) 1 (1954) 747 5 9 15 24 110 293 390 818 5190
2026-01-04 08:30 5.67 29 15900 (2005) 1 (1954) 747 5 9 15 24 110 293 390 818 5190
2026-01-04 08:00 5.66 29 15900 (2005) 1 (1954) 747 5 9 15 24 110 293 390 818 5190
2026-01-04 07:30 5.66 29 15900 (2005) 1 (1954) 747 5 9 15 24 110 293 390 818 5190
2026-01-04 07:00 5.66 29 15900 (2005) 1 (1954) 747 5 9 15 24 110 293 390 818 5190
2026-01-04 06:30 5.66 29 15900 (2005) 1 (1954) 747 5 9 15 24 110 293 390 818 5190
2026-01-04 06:00 29 15900 (2005) 1 (1954) 747 5 9 15 24 110 293 390 818 5190
2026-01-04 05:30 5.68 30 15900 (2005) 1 (1954) 747 5 9 15 24 110 293 390 818 5190
2026-01-04 05:00 5.66 29 15900 (2005) 1 (1954) 747 5 9 15 24 110 293 390 818 5190
2026-01-04 04:30 5.68 30 15900 (2005) 1 (1954) 747 5 9 15 24 110 293 390 818 5190
2026-01-04 04:00 5.67 29 15900 (2005) 1 (1954) 747 5 9 15 24 110 293 390 818 5190
2026-01-04 03:30 5.67 29 15900 (2005) 1 (1954) 747 5 9 15 24 110 293 390 818 5190
2026-01-04 03:00 5.66 29 15900 (2005) 1 (1954) 747 5 9 15 24 110 293 390 818 5190
2026-01-04 02:30 5.66 29 15900 (2005) 1 (1954) 747 5 9 15 24 110 293 390 818 5190
2026-01-04 02:00 5.66 29 15900 (2005) 1 (1954) 747 5 9 15 24 110 293 390 818 5190
2026-01-04 01:30 29 15900 (2005) 1 (1954) 747 5 9 15 24 110 293 390 818 5190
2026-01-04 01:00 5.65 28 15900 (2005) 1 (1954) 747 5 9 15 24 110 293 390 818 5190
2026-01-04 00:30 5.67 29 15900 (2005) 1 (1954) 747 5 9 15 24 110 293 390 818 5190
2026-01-04 00:00 29 15900 (2005) 1 (1954) 747 5 9 15 24 110 293 390 818 5190
2026-01-03 23:30 5.66 29 15900 (2005) 1 (1954) 747 5 9 15 24 110 293 390 818 5190
2026-01-03 23:00 5.66 29 15900 (2005) 1 (1954) 747 5 9 15 24 110 293 390 818 5190
2026-01-03 22:30 28 11500 (2005) 1 (1954) 436 6 10 16 25 98 232 364 792 1150
2026-01-03 22:00 5.66 29 11500 (2005) 1 (1954) 436 6 10 16 25 98 232 364 792 1150
2026-01-03 21:30 5.66 29 11500 (2005) 1 (1954) 436 6 10 16 25 98 232 364 792 1150
2026-01-03 21:00 5.66 29 11500 (2005) 1 (1954) 436 6 10 16 25 98 232 364 792 1150
2026-01-03 20:30 5.66 29 11500 (2005) 1 (1954) 436 6 10 16 25 98 232 364 792 1150
2026-01-03 20:00 5.66 29 11500 (2005) 1 (1954) 436 6 10 16 25 98 232 364 792 1150
2026-01-03 19:30 5.66 29 11500 (2005) 1 (1954) 436 6 10 16 25 98 232 364 792 1150
2026-01-03 19:00 5.66 29 11500 (2005) 1 (1954) 436 6 10 16 25 98 232 364 792 1150
2026-01-03 18:30 5.66 29 11500 (2005) 1 (1954) 436 6 10 16 25 98 232 364 792 1150
2026-01-03 18:00 5.66 29 11500 (2005) 1 (1954) 436 6 10 16 25 98 232 364 792 1150
2026-01-03 17:30 5.66 29 11500 (2005) 1 (1954) 436 6 10 16 25 98 232 364 792 1150
2026-01-03 17:00 5.67 29 11500 (2005) 1 (1954) 436 6 10 16 25 98 232 364 792 1150
2026-01-03 16:30 5.66 29 11500 (2005) 1 (1954) 436 6 10 16 25 98 232 364 792 1150
2026-01-03 16:00 5.66 29 11500 (2005) 1 (1954) 436 6 10 16 25 98 232 364 792 1150
2026-01-03 15:30 5.66 29 11500 (2005) 1 (1954) 436 6 10 16 25 98 232 364 792 1150
2026-01-03 15:00 5.66 29 11500 (2005) 1 (1954) 436 6 10 16 25 98 232 364 792 1150
2026-01-03 14:30 5.67 29 11500 (2005) 1 (1954) 436 6 10 16 25 98 232 364 792 1150
2026-01-03 14:00 5.63 26 11500 (2005) 1 (1954) 436 6 10 16 25 98 232 364 792 1150
2026-01-03 13:30 5.59 23 11500 (2005) 1 (1954) 436 6 10 16 25 98 232 364 792 1150
2026-01-03 13:00 5.62 25 11500 (2005) 1 (1954) 436 6 10 16 25 98 232 364 792 1150
2026-01-03 12:30 5.66 29 11500 (2005) 1 (1954) 436 6 10 16 25 98 232 364 792 1150
2026-01-03 12:00 5.66 29 11500 (2005) 1 (1954) 436 6 10 16 25 98 232 364 792 1150
2026-01-03 11:30 5.67 29 11500 (2005) 1 (1954) 436 6 10 16 25 98 232 364 792 1150
2026-01-03 11:00 5.66 29 11500 (2005) 1 (1954) 436 6 10 16 25 98 232 364 792 1150
2026-01-03 10:30 5.68 30 11500 (2005) 1 (1954) 436 6 10 16 25 98 232 364 792 1150
2026-01-03 10:00 5.68 30 11500 (2005) 1 (1954) 436 6 10 16 25 98 232 364 792 1150
2026-01-03 09:30 5.67 29 11500 (2005) 1 (1954) 436 6 10 16 25 98 232 364 792 1150
2026-01-03 09:00 5.66 29 11500 (2005) 1 (1954) 436 6 10 16 25 98 232 364 792 1150
2026-01-03 08:30 5.66 29 11500 (2005) 1 (1954) 436 6 10 16 25 98 232 364 792 1150
2026-01-03 08:00 5.67 29 11500 (2005) 1 (1954) 436 6 10 16 25 98 232 364 792 1150
2026-01-03 07:30 5.66 29 11500 (2005) 1 (1954) 436 6 10 16 25 98 232 364 792 1150
2026-01-03 07:00 5.66 29 11500 (2005) 1 (1954) 436 6 10 16 25 98 232 364 792 1150
2026-01-03 06:30 5.67 29 11500 (2005) 1 (1954) 436 6 10 16 25 98 232 364 792 1150
2026-01-03 06:00 5.66 29 11500 (2005) 1 (1954) 436 6 10 16 25 98 232 364 792 1150
2026-01-03 05:30 5.67 29 11500 (2005) 1 (1954) 436 6 10 16 25 98 232 364 792 1150
2026-01-03 05:00 5.67 29 11500 (2005) 1 (1954) 436 6 10 16 25 98 232 364 792 1150
2026-01-03 04:30 5.67 29 11500 (2005) 1 (1954) 436 6 10 16 25 98 232 364 792 1150
2026-01-03 04:00 5.67 29 11500 (2005) 1 (1954) 436 6 10 16 25 98 232 364 792 1150
2026-01-03 03:30 5.67 29 11500 (2005) 1 (1954) 436 6 10 16 25 98 232 364 792 1150
2026-01-03 03:00 5.67 29 11500 (2005) 1 (1954) 436 6 10 16 25 98 232 364 792 1150
2026-01-03 02:30 5.67 29 11500 (2005) 1 (1954) 436 6 10 16 25 98 232 364 792 1150
2026-01-03 02:00 5.67 29 11500 (2005) 1 (1954) 436 6 10 16 25 98 232 364 792 1150
2026-01-03 01:30 5.67 29 11500 (2005) 1 (1954) 436 6 10 16 25 98 232 364 792 1150
2026-01-03 01:00 5.67 29 11500 (2005) 1 (1954) 436 6 10 16 25 98 232 364 792 1150
2026-01-03 00:30 5.67 29 11500 (2005) 1 (1954) 436 6 10 16 25 98 232 364 792 1150
2026-01-03 00:00 5.67 29 11500 (2005) 1 (1954) 436 6 10 16 25 98 232 364 792 1150
2026-01-02 23:30 5.67 29 11500 (2005) 1 (1954) 436 6 10 16 25 98 232 364 792 1150
2026-01-02 23:00 5.67 29 11500 (2005) 1 (1954) 436 6 10 16 25 98 232 364 792 1150
2026-01-02 22:30 5.67 29 12400 (1930) 1 (1964) 466 6 9 15 26 92 255 350 1050 2310
2026-01-02 22:00 5.67 29 12400 (1930) 1 (1964) 466 6 9 15 26 92 255 350 1050 2310
2026-01-02 21:30 5.67 29 12400 (1930) 1 (1964) 466 6 9 15 26 92 255 350 1050 2310
2026-01-02 21:00 5.67 29 12400 (1930) 1 (1964) 466 6 9 15 26 92 255 350 1050 2310
2026-01-02 20:30 5.67 29 12400 (1930) 1 (1964) 466 6 9 15 26 92 255 350 1050 2310
2026-01-02 20:00 5.67 29 12400 (1930) 1 (1964) 466 6 9 15 26 92 255 350 1050 2310
2026-01-02 19:30 5.67 29 12400 (1930) 1 (1964) 466 6 9 15 26 92 255 350 1050 2310
2026-01-02 19:00 5.67 29 12400 (1930) 1 (1964) 466 6 9 15 26 92 255 350 1050 2310
2026-01-02 18:30 5.67 29 12400 (1930) 1 (1964) 466 6 9 15 26 92 255 350 1050 2310
2026-01-02 18:00 5.67 29 12400 (1930) 1 (1964) 466 6 9 15 26 92 255 350 1050 2310
2026-01-02 17:30 5.67 29 12400 (1930) 1 (1964) 466 6 9 15 26 92 255 350 1050 2310
2026-01-02 17:00 5.67 29 12400 (1930) 1 (1964) 466 6 9 15 26 92 255 350 1050 2310
2026-01-02 16:30 5.67 29 12400 (1930) 1 (1964) 466 6 9 15 26 92 255 350 1050 2310
2026-01-02 16:00 5.67 29 12400 (1930) 1 (1964) 466 6 9 15 26 92 255 350 1050 2310
2026-01-02 15:30 5.67 29 12400 (1930) 1 (1964) 466 6 9 15 26 92 255 350 1050 2310
2026-01-02 15:00 5.67 29 12400 (1930) 1 (1964) 466 6 9 15 26 92 255 350 1050 2310
2026-01-02 14:30 5.67 29 12400 (1930) 1 (1964) 466 6 9 15 26 92 255 350 1050 2310
2026-01-02 14:00 5.67 29 12400 (1930) 1 (1964) 466 6 9 15 26 92 255 350 1050 2310
2026-01-02 13:30 5.67 29 12400 (1930) 1 (1964) 466 6 9 15 26 92 255 350 1050 2310
2026-01-02 13:00 5.67 29 12400 (1930) 1 (1964) 466 6 9 15 26 92 255 350 1050 2310
2026-01-02 12:30 5.67 29 12400 (1930) 1 (1964) 466 6 9 15 26 92 255 350 1050 2310
2026-01-02 12:00 5.67 29 12400 (1930) 1 (1964) 466 6 9 15 26 92 255 350 1050 2310
2026-01-02 11:30 5.67 29 12400 (1930) 1 (1964) 466 6 9 15 26 92 255 350 1050 2310
2026-01-02 11:00 5.67 29 12400 (1930) 1 (1964) 466 6 9 15 26 92 255 350 1050 2310
2026-01-02 10:30 5.67 29 12400 (1930) 1 (1964) 466 6 9 15 26 92 255 350 1050 2310
2026-01-02 10:00 5.67 29 12400 (1930) 1 (1964) 466 6 9 15 26 92 255 350 1050 2310
2026-01-02 09:30 5.67 29 12400 (1930) 1 (1964) 466 6 9 15 26 92 255 350 1050 2310
2026-01-02 09:00 5.67 29 12400 (1930) 1 (1964) 466 6 9 15 26 92 255 350 1050 2310
2026-01-02 08:30 5.67 29 12400 (1930) 1 (1964) 466 6 9 15 26 92 255 350 1050 2310
2026-01-02 08:00 5.68 30 12400 (1930) 1 (1964) 466 6 9 15 26 92 255 350 1050 2310
2026-01-02 07:30 5.67 29 12400 (1930) 1 (1964) 466 6 9 15 26 92 255 350 1050 2310
2026-01-02 07:00 5.67 29 12400 (1930) 1 (1964) 466 6 9 15 26 92 255 350 1050 2310
2026-01-02 06:30 5.67 29 12400 (1930) 1 (1964) 466 6 9 15 26 92 255 350 1050 2310
2026-01-02 06:00 5.68 30 12400 (1930) 1 (1964) 466 6 9 15 26 92 255 350 1050 2310
2026-01-02 05:30 5.68 30 12400 (1930) 1 (1964) 466 6 9 15 26 92 255 350 1050 2310
2026-01-02 05:00 5.68 30 12400 (1930) 1 (1964) 466 6 9 15 26 92 255 350 1050 2310
2026-01-02 04:30 5.67 29 12400 (1930) 1 (1964) 466 6 9 15 26 92 255 350 1050 2310
2026-01-02 04:00 5.66 29 12400 (1930) 1 (1964) 466 6 9 15 26 92 255 350 1050 2310
2026-01-02 03:30 5.66 29 12400 (1930) 1 (1964) 466 6 9 15 26 92 255 350 1050 2310
2026-01-02 03:00 5.67 29 12400 (1930) 1 (1964) 466 6 9 15 26 92 255 350 1050 2310
2026-01-02 02:30 5.67 29 12400 (1930) 1 (1964) 466 6 9 15 26 92 255 350 1050 2310
2026-01-02 02:00 5.67 29 12400 (1930) 1 (1964) 466 6 9 15 26 92 255 350 1050 2310
2026-01-02 01:30 5.67 29 12400 (1930) 1 (1964) 466 6 9 15 26 92 255 350 1050 2310
2026-01-02 01:00 5.67 29 12400 (1930) 1 (1964) 466 6 9 15 26 92 255 350 1050 2310
2026-01-02 00:30 5.67 29 12400 (1930) 1 (1964) 466 6 9 15 26 92 255 350 1050 2310
2026-01-02 00:00 5.67 29 12400 (1930) 1 (1964) 466 6 9 15 26 92 255 350 1050 2310
2026-01-01 23:30 5.67 29 12400 (1930) 1 (1964) 466 6 9 15 26 92 255 350 1050 2310
2026-01-01 23:00 5.67 29 12400 (1930) 1 (1964) 466 6 9 15 26 92 255 350 1050 2310
2026-01-01 22:30 5.67 29 20500 (2019) 1 (1964) 651 6 9 17 28 85 267 508 999 3280
2026-01-01 22:00 5.67 29 20500 (2019) 1 (1964) 651 6 9 17 28 85 267 508 999 3280
2026-01-01 21:30 5.67 29 20500 (2019) 1 (1964) 651 6 9 17 28 85 267 508 999 3280
2026-01-01 21:00 5.67 29 20500 (2019) 1 (1964) 651 6 9 17 28 85 267 508 999 3280
2026-01-01 20:30 5.67 29 20500 (2019) 1 (1964) 651 6 9 17 28 85 267 508 999 3280
2026-01-01 20:00 5.67 29 20500 (2019) 1 (1964) 651 6 9 17 28 85 267 508 999 3280
2026-01-01 19:30 5.67 29 20500 (2019) 1 (1964) 651 6 9 17 28 85 267 508 999 3280
2026-01-01 19:00 5.67 29 20500 (2019) 1 (1964) 651 6 9 17 28 85 267 508 999 3280
2026-01-01 18:30 5.67 29 20500 (2019) 1 (1964) 651 6 9 17 28 85 267 508 999 3280
2026-01-01 18:00 5.68 30 20500 (2019) 1 (1964) 651 6 9 17 28 85 267 508 999 3280
2026-01-01 17:30 5.68 30 20500 (2019) 1 (1964) 651 6 9 17 28 85 267 508 999 3280
2026-01-01 17:00 5.68 30 20500 (2019) 1 (1964) 651 6 9 17 28 85 267 508 999 3280
2026-01-01 16:30 5.67 29 20500 (2019) 1 (1964) 651 6 9 17 28 85 267 508 999 3280
2026-01-01 16:00 5.67 29 20500 (2019) 1 (1964) 651 6 9 17 28 85 267 508 999 3280
2026-01-01 15:30 5.67 29 20500 (2019) 1 (1964) 651 6 9 17 28 85 267 508 999 3280
2026-01-01 15:00 5.67 29 20500 (2019) 1 (1964) 651 6 9 17 28 85 267 508 999 3280
2026-01-01 14:30 5.67 29 20500 (2019) 1 (1964) 651 6 9 17 28 85 267 508 999 3280
2026-01-01 14:00 5.67 29 20500 (2019) 1 (1964) 651 6 9 17 28 85 267 508 999 3280
2026-01-01 13:30 5.67 29 20500 (2019) 1 (1964) 651 6 9 17 28 85 267 508 999 3280
2026-01-01 13:00 5.67 29 20500 (2019) 1 (1964) 651 6 9 17 28 85 267 508 999 3280
2026-01-01 12:30 5.67 29 20500 (2019) 1 (1964) 651 6 9 17 28 85 267 508 999 3280
2026-01-01 12:00 5.66 29 20500 (2019) 1 (1964) 651 6 9 17 28 85 267 508 999 3280
2026-01-01 11:30 5.66 29 20500 (2019) 1 (1964) 651 6 9 17 28 85 267 508 999 3280
2026-01-01 11:00 5.67 29 20500 (2019) 1 (1964) 651 6 9 17 28 85 267 508 999 3280
2026-01-01 10:30 5.70 32 20500 (2019) 1 (1964) 651 6 9 17 28 85 267 508 999 3280
2026-01-01 10:00 5.78 40 20500 (2019) 1 (1964) 651 6 9 17 28 85 267 508 999 3280
2026-01-01 09:30 5.67 29 20500 (2019) 1 (1964) 651 6 9 17 28 85 267 508 999 3280
2026-01-01 09:00 5.63 26 20500 (2019) 1 (1964) 651 6 9 17 28 85 267 508 999 3280
2026-01-01 08:30 5.63 26 20500 (2019) 1 (1964) 651 6 9 17 28 85 267 508 999 3280
2026-01-01 08:00 5.63 26 20500 (2019) 1 (1964) 651 6 9 17 28 85 267 508 999 3280
2026-01-01 07:30 5.63 26 20500 (2019) 1 (1964) 651 6 9 17 28 85 267 508 999 3280
2026-01-01 07:00 5.64 27 20500 (2019) 1 (1964) 651 6 9 17 28 85 267 508 999 3280
2026-01-01 06:30 5.64 27 20500 (2019) 1 (1964) 651 6 9 17 28 85 267 508 999 3280
2026-01-01 06:00 5.64 27 20500 (2019) 1 (1964) 651 6 9 17 28 85 267 508 999 3280
2026-01-01 05:30 5.64 27 20500 (2019) 1 (1964) 651 6 9 17 28 85 267 508 999 3280
2026-01-01 05:00 5.64 27 20500 (2019) 1 (1964) 651 6 9 17 28 85 267 508 999 3280
2026-01-01 04:30 5.63 26 20500 (2019) 1 (1964) 651 6 9 17 28 85 267 508 999 3280
2026-01-01 04:00 5.59 23 20500 (2019) 1 (1964) 651 6 9 17 28 85 267 508 999 3280
2026-01-01 03:30 5.57 21 20500 (2019) 1 (1964) 651 6 9 17 28 85 267 508 999 3280
2026-01-01 03:00 5.61 24 20500 (2019) 1 (1964) 651 6 9 17 28 85 267 508 999 3280
2026-01-01 02:30 5.63 26 20500 (2019) 1 (1964) 651 6 9 17 28 85 267 508 999 3280
2026-01-01 02:00 5.65 28 20500 (2019) 1 (1964) 651 6 9 17 28 85 267 508 999 3280
2026-01-01 01:30 5.66 29 20500 (2019) 1 (1964) 651 6 9 17 28 85 267 508 999 3280
2026-01-01 01:00 5.66 29 20500 (2019) 1 (1964) 651 6 9 17 28 85 267 508 999 3280
2026-01-01 00:30 5.66 29 20500 (2019) 1 (1964) 651 6 9 17 28 85 267 508 999 3280
2026-01-01 00:00 5.66 29 20500 (2019) 1 (1964) 651 6 9 17 28 85 267 508 999 3280
2025-12-31 23:30 5.66 29 20500 (2019) 1 (1964) 651 6 9 17 28 85 267 508 999 3280
2025-12-31 23:00 5.65 28 20500 (2019) 1 (1964) 651 6 9 17 28 85 267 508 999 3280
2025-12-31 22:30 5.64 27 13700 (2019) 1 (1964) 532 7 9 15 21 94 287 466 1100 3670
2025-12-31 22:00 5.63 26 13700 (2019) 1 (1964) 532 7 9 15 21 94 287 466 1100 3670
2025-12-31 21:30 5.61 24 13700 (2019) 1 (1964) 532 7 9 15 21 94 287 466 1100 3670
2025-12-31 21:00 5.61 24 13700 (2019) 1 (1964) 532 7 9 15 21 94 287 466 1100 3670
2025-12-31 20:30 5.63 26 13700 (2019) 1 (1964) 532 7 9 15 21 94 287 466 1100 3670
2025-12-31 20:00 5.64 27 13700 (2019) 1 (1964) 532 7 9 15 21 94 287 466 1100 3670
2025-12-31 19:30 5.65 28 13700 (2019) 1 (1964) 532 7 9 15 21 94 287 466 1100 3670
2025-12-31 19:00 5.65 28 13700 (2019) 1 (1964) 532 7 9 15 21 94 287 466 1100 3670
2025-12-31 18:30 5.66 29 13700 (2019) 1 (1964) 532 7 9 15 21 94 287 466 1100 3670
2025-12-31 18:00 5.66 29 13700 (2019) 1 (1964) 532 7 9 15 21 94 287 466 1100 3670
2025-12-31 17:30 5.67 29 13700 (2019) 1 (1964) 532 7 9 15 21 94 287 466 1100 3670
2025-12-31 17:00 5.67 29 13700 (2019) 1 (1964) 532 7 9 15 21 94 287 466 1100 3670
2025-12-31 16:30 5.65 28 13700 (2019) 1 (1964) 532 7 9 15 21 94 287 466 1100 3670
2025-12-31 16:00 5.66 29 13700 (2019) 1 (1964) 532 7 9 15 21 94 287 466 1100 3670
2025-12-31 15:30 5.68 30 13700 (2019) 1 (1964) 532 7 9 15 21 94 287 466 1100 3670
2025-12-31 15:00 5.68 30 13700 (2019) 1 (1964) 532 7 9 15 21 94 287 466 1100 3670
2025-12-31 14:30 5.68 30 13700 (2019) 1 (1964) 532 7 9 15 21 94 287 466 1100 3670
2025-12-31 14:00 5.68 30 13700 (2019) 1 (1964) 532 7 9 15 21 94 287 466 1100 3670
2025-12-31 13:30 5.67 29 13700 (2019) 1 (1964) 532 7 9 15 21 94 287 466 1100 3670
2025-12-31 13:00 5.67 29 13700 (2019) 1 (1964) 532 7 9 15 21 94 287 466 1100 3670
2025-12-31 12:30 5.66 29 13700 (2019) 1 (1964) 532 7 9 15 21 94 287 466 1100 3670
2025-12-31 12:00 5.66 29 13700 (2019) 1 (1964) 532 7 9 15 21 94 287 466 1100 3670
2025-12-31 11:30 5.67 29 13700 (2019) 1 (1964) 532 7 9 15 21 94 287 466 1100 3670
2025-12-31 11:00 5.69 31 13700 (2019) 1 (1964) 532 7 9 15 21 94 287 466 1100 3670
2025-12-31 10:30 5.70 32 13700 (2019) 1 (1964) 532 7 9 15 21 94 287 466 1100 3670
2025-12-31 10:00 5.68 30 13700 (2019) 1 (1964) 532 7 9 15 21 94 287 466 1100 3670
2025-12-31 09:30 5.67 29 13700 (2019) 1 (1964) 532 7 9 15 21 94 287 466 1100 3670
2025-12-31 09:00 5.66 29 13700 (2019) 1 (1964) 532 7 9 15 21 94 287 466 1100 3670
2025-12-31 08:30 5.65 28 13700 (2019) 1 (1964) 532 7 9 15 21 94 287 466 1100 3670
2025-12-31 08:00 5.65 28 13700 (2019) 1 (1964) 532 7 9 15 21 94 287 466 1100 3670
2025-12-31 07:30 5.63 26 13700 (2019) 1 (1964) 532 7 9 15 21 94 287 466 1100 3670
2025-12-31 07:00 5.60 24 13700 (2019) 1 (1964) 532 7 9 15 21 94 287 466 1100 3670
2025-12-31 06:30 5.61 24 13700 (2019) 1 (1964) 532 7 9 15 21 94 287 466 1100 3670
2025-12-31 06:00 5.64 27 13700 (2019) 1 (1964) 532 7 9 15 21 94 287 466 1100 3670
2025-12-31 05:30 5.66 29 13700 (2019) 1 (1964) 532 7 9 15 21 94 287 466 1100 3670
2025-12-31 05:00 5.67 29 13700 (2019) 1 (1964) 532 7 9 15 21 94 287 466 1100 3670
2025-12-31 04:30 5.67 29 13700 (2019) 1 (1964) 532 7 9 15 21 94 287 466 1100 3670
2025-12-31 04:00 5.68 30 13700 (2019) 1 (1964) 532 7 9 15 21 94 287 466 1100 3670
2025-12-31 03:30 5.68 30 13700 (2019) 1 (1964) 532 7 9 15 21 94 287 466 1100 3670
2025-12-31 03:00 5.68 30 13700 (2019) 1 (1964) 532 7 9 15 21 94 287 466 1100 3670
2025-12-31 02:30 5.68 30 13700 (2019) 1 (1964) 532 7 9 15 21 94 287 466 1100 3670
2025-12-31 02:00 5.67 29 13700 (2019) 1 (1964) 532 7 9 15 21 94 287 466 1100 3670
2025-12-31 01:30 5.66 29 13700 (2019) 1 (1964) 532 7 9 15 21 94 287 466 1100 3670
2025-12-31 01:00 5.65 28 13700 (2019) 1 (1964) 532 7 9 15 21 94 287 466 1100 3670
2025-12-31 00:30 5.66 29 13700 (2019) 1 (1964) 532 7 9 15 21 94 287 466 1100 3670
2025-12-31 00:00 5.67 29 13700 (2019) 1 (1964) 532 7 9 15 21 94 287 466 1100 3670
2025-12-30 23:30 5.68 30 13700 (2019) 1 (1964) 532 7 9 15 21 94 287 466 1100 3670
2025-12-30 23:00 5.68 30 13700 (2019) 1 (1964) 532 7 9 15 21 94 287 466 1100 3670
2025-12-30 22:30 5.68 30 6230 (1991) 1 (1964) 412 7 10 15 19 89 232 328 1020 3300
2025-12-30 22:00 5.68 30 6230 (1991) 1 (1964) 412 7 10 15 19 89 232 328 1020 3300
2025-12-30 21:30 5.68 30 6230 (1991) 1 (1964) 412 7 10 15 19 89 232 328 1020 3300
2025-12-30 21:00 5.68 30 6230 (1991) 1 (1964) 412 7 10 15 19 89 232 328 1020 3300
2025-12-30 20:30 5.67 29 6230 (1991) 1 (1964) 412 7 10 15 19 89 232 328 1020 3300
2025-12-30 20:00 5.69 31 6230 (1991) 1 (1964) 412 7 10 15 19 89 232 328 1020 3300
2025-12-30 19:30 5.70 32 6230 (1991) 1 (1964) 412 7 10 15 19 89 232 328 1020 3300
2025-12-30 19:00 5.69 31 6230 (1991) 1 (1964) 412 7 10 15 19 89 232 328 1020 3300
2025-12-30 18:30 5.70 32 6230 (1991) 1 (1964) 412 7 10 15 19 89 232 328 1020 3300
2025-12-30 18:00 5.69 31 6230 (1991) 1 (1964) 412 7 10 15 19 89 232 328 1020 3300
2025-12-30 17:30 5.69 31 6230 (1991) 1 (1964) 412 7 10 15 19 89 232 328 1020 3300
2025-12-30 17:00 5.69 31 6230 (1991) 1 (1964) 412 7 10 15 19 89 232 328 1020 3300
2025-12-30 16:30 5.69 31 6230 (1991) 1 (1964) 412 7 10 15 19 89 232 328 1020 3300
2025-12-30 16:00 5.63 26 6230 (1991) 1 (1964) 412 7 10 15 19 89 232 328 1020 3300
2025-12-30 15:30 5.62 25 6230 (1991) 1 (1964) 412 7 10 15 19 89 232 328 1020 3300
2025-12-30 15:00 5.65 28 6230 (1991) 1 (1964) 412 7 10 15 19 89 232 328 1020 3300
2025-12-30 14:30 5.68 30 6230 (1991) 1 (1964) 412 7 10 15 19 89 232 328 1020 3300
2025-12-30 14:00 5.67 29 6230 (1991) 1 (1964) 412 7 10 15 19 89 232 328 1020 3300
2025-12-30 13:30 5.65 28 6230 (1991) 1 (1964) 412 7 10 15 19 89 232 328 1020 3300
2025-12-30 13:00 5.63 26 6230 (1991) 1 (1964) 412 7 10 15 19 89 232 328 1020 3300
2025-12-30 12:30 5.64 27 6230 (1991) 1 (1964) 412 7 10 15 19 89 232 328 1020 3300
2025-12-30 12:00 5.65 28 6230 (1991) 1 (1964) 412 7 10 15 19 89 232 328 1020 3300
2025-12-30 11:30 5.65 28 6230 (1991) 1 (1964) 412 7 10 15 19 89 232 328 1020 3300
2025-12-30 11:00 5.65 28 6230 (1991) 1 (1964) 412 7 10 15 19 89 232 328 1020 3300
2025-12-30 10:30 5.65 28 6230 (1991) 1 (1964) 412 7 10 15 19 89 232 328 1020 3300
2025-12-30 10:00 5.64 27 6230 (1991) 1 (1964) 412 7 10 15 19 89 232 328 1020 3300
2025-12-30 09:30 5.63 26 6230 (1991) 1 (1964) 412 7 10 15 19 89 232 328 1020 3300
2025-12-30 09:00 5.66 29 6230 (1991) 1 (1964) 412 7 10 15 19 89 232 328 1020 3300
2025-12-30 08:30 5.68 30 6230 (1991) 1 (1964) 412 7 10 15 19 89 232 328 1020 3300
2025-12-30 08:00 5.69 31 6230 (1991) 1 (1964) 412 7 10 15 19 89 232 328 1020 3300
2025-12-30 07:30 5.69 31 6230 (1991) 1 (1964) 412 7 10 15 19 89 232 328 1020 3300
2025-12-30 07:00 5.69 31 6230 (1991) 1 (1964) 412 7 10 15 19 89 232 328 1020 3300
2025-12-30 06:30 5.68 30 6230 (1991) 1 (1964) 412 7 10 15 19 89 232 328 1020 3300
2025-12-30 06:00 5.70 32 6230 (1991) 1 (1964) 412 7 10 15 19 89 232 328 1020 3300
2025-12-30 05:30 5.71 33 6230 (1991) 1 (1964) 412 7 10 15 19 89 232 328 1020 3300
2025-12-30 05:00 5.71 33 6230 (1991) 1 (1964) 412 7 10 15 19 89 232 328 1020 3300
2025-12-30 04:30 5.71 33 6230 (1991) 1 (1964) 412 7 10 15 19 89 232 328 1020 3300
2025-12-30 04:00 5.64 27 6230 (1991) 1 (1964) 412 7 10 15 19 89 232 328 1020 3300
2025-12-30 03:30 5.70 32 6230 (1991) 1 (1964) 412 7 10 15 19 89 232 328 1020 3300
2025-12-30 03:00 5.71 33 6230 (1991) 1 (1964) 412 7 10 15 19 89 232 328 1020 3300
2025-12-30 02:30 5.70 32 6230 (1991) 1 (1964) 412 7 10 15 19 89 232 328 1020 3300
2025-12-30 02:00 5.67 29 6230 (1991) 1 (1964) 412 7 10 15 19 89 232 328 1020 3300
2025-12-30 01:30 5.66 29 6230 (1991) 1 (1964) 412 7 10 15 19 89 232 328 1020 3300
2025-12-30 01:00 5.70 32 6230 (1991) 1 (1964) 412 7 10 15 19 89 232 328 1020 3300
2025-12-30 00:30 5.69 31 6230 (1991) 1 (1964) 412 7 10 15 19 89 232 328 1020 3300
2025-12-30 00:00 5.71 33 6230 (1991) 1 (1964) 412 7 10 15 19 89 232 328 1020 3300
2025-12-29 23:30 5.70 32 6230 (1991) 1 (1964) 412 7 10 15 19 89 232 328 1020 3300
2025-12-29 23:00 5.71 33 6230 (1991) 1 (1964) 412 7 10 15 19 89 232 328 1020 3300
2025-12-29 22:30 5.72 34 27300 (2016) 1 (1964) 837 8 11 16 20 96 269 329 1340 3360
2025-12-29 22:00 5.72 34 27300 (2016) 1 (1964) 837 8 11 16 20 96 269 329 1340 3360
2025-12-29 21:30 5.69 31 27300 (2016) 1 (1964) 837 8 11 16 20 96 269 329 1340 3360
2025-12-29 21:00 5.67 29 27300 (2016) 1 (1964) 837 8 11 16 20 96 269 329 1340 3360
2025-12-29 20:30 5.69 31 27300 (2016) 1 (1964) 837 8 11 16 20 96 269 329 1340 3360
2025-12-29 20:00 5.67 29 27300 (2016) 1 (1964) 837 8 11 16 20 96 269 329 1340 3360
2025-12-29 19:30 5.66 29 27300 (2016) 1 (1964) 837 8 11 16 20 96 269 329 1340 3360
2025-12-29 19:00 5.66 29 27300 (2016) 1 (1964) 837 8 11 16 20 96 269 329 1340 3360
2025-12-29 18:30 5.66 29 27300 (2016) 1 (1964) 837 8 11 16 20 96 269 329 1340 3360
2025-12-29 18:00 5.66 29 27300 (2016) 1 (1964) 837 8 11 16 20 96 269 329 1340 3360
2025-12-29 17:30 5.69 31 27300 (2016) 1 (1964) 837 8 11 16 20 96 269 329 1340 3360
2025-12-29 17:00 5.65 28 27300 (2016) 1 (1964) 837 8 11 16 20 96 269 329 1340 3360
2025-12-29 16:30 5.65 28 27300 (2016) 1 (1964) 837 8 11 16 20 96 269 329 1340 3360
2025-12-29 16:00 5.69 31 27300 (2016) 1 (1964) 837 8 11 16 20 96 269 329 1340 3360
2025-12-29 15:30 5.66 29 27300 (2016) 1 (1964) 837 8 11 16 20 96 269 329 1340 3360
2025-12-29 15:00 5.66 29 27300 (2016) 1 (1964) 837 8 11 16 20 96 269 329 1340 3360
2025-12-29 14:30 5.65 28 27300 (2016) 1 (1964) 837 8 11 16 20 96 269 329 1340 3360
2025-12-29 14:00 5.65 28 27300 (2016) 1 (1964) 837 8 11 16 20 96 269 329 1340 3360
2025-12-29 13:30 5.68 30 27300 (2016) 1 (1964) 837 8 11 16 20 96 269 329 1340 3360
2025-12-29 13:00 5.66 29 27300 (2016) 1 (1964) 837 8 11 16 20 96 269 329 1340 3360
2025-12-29 12:30 5.65 28 27300 (2016) 1 (1964) 837 8 11 16 20 96 269 329 1340 3360
2025-12-29 12:00 5.66 29 27300 (2016) 1 (1964) 837 8 11 16 20 96 269 329 1340 3360
2025-12-29 11:30 5.65 28 27300 (2016) 1 (1964) 837 8 11 16 20 96 269 329 1340 3360
2025-12-29 11:00 5.64 27 27300 (2016) 1 (1964) 837 8 11 16 20 96 269 329 1340 3360
2025-12-29 10:30 5.69 31 27300 (2016) 1 (1964) 837 8 11 16 20 96 269 329 1340 3360
2025-12-29 10:00 5.64 27 27300 (2016) 1 (1964) 837 8 11 16 20 96 269 329 1340 3360
2025-12-29 09:30 5.67 29 27300 (2016) 1 (1964) 837 8 11 16 20 96 269 329 1340 3360
2025-12-29 09:00 5.68 30 27300 (2016) 1 (1964) 837 8 11 16 20 96 269 329 1340 3360
2025-12-29 08:30 5.65 28 27300 (2016) 1 (1964) 837 8 11 16 20 96 269 329 1340 3360
2025-12-29 08:00 5.65 28 27300 (2016) 1 (1964) 837 8 11 16 20 96 269 329 1340 3360
2025-12-29 07:30 5.66 29 27300 (2016) 1 (1964) 837 8 11 16 20 96 269 329 1340 3360
2025-12-29 07:00 5.66 29 27300 (2016) 1 (1964) 837 8 11 16 20 96 269 329 1340 3360
2025-12-29 06:30 5.65 28 27300 (2016) 1 (1964) 837 8 11 16 20 96 269 329 1340 3360
2025-12-29 06:00 5.67 29 27300 (2016) 1 (1964) 837 8 11 16 20 96 269 329 1340 3360
2025-12-29 05:30 5.66 29 27300 (2016) 1 (1964) 837 8 11 16 20 96 269 329 1340 3360
2025-12-29 05:00 5.66 29 27300 (2016) 1 (1964) 837 8 11 16 20 96 269 329 1340 3360
2025-12-29 04:30 5.66 29 27300 (2016) 1 (1964) 837 8 11 16 20 96 269 329 1340 3360
2025-12-29 04:00 5.65 28 27300 (2016) 1 (1964) 837 8 11 16 20 96 269 329 1340 3360
2025-12-29 03:30 5.65 28 27300 (2016) 1 (1964) 837 8 11 16 20 96 269 329 1340 3360
2025-12-29 03:00 5.66 29 27300 (2016) 1 (1964) 837 8 11 16 20 96 269 329 1340 3360
2025-12-29 02:30 5.64 27 27300 (2016) 1 (1964) 837 8 11 16 20 96 269 329 1340 3360
2025-12-29 02:00 5.66 29 27300 (2016) 1 (1964) 837 8 11 16 20 96 269 329 1340 3360
2025-12-29 01:30 5.67 29 27300 (2016) 1 (1964) 837 8 11 16 20 96 269 329 1340 3360
2025-12-29 01:00 5.68 30 27300 (2016) 1 (1964) 837 8 11 16 20 96 269 329 1340 3360
2025-12-29 00:30 5.65 28 27300 (2016) 1 (1964) 837 8 11 16 20 96 269 329 1340 3360
2025-12-29 00:00 5.67 29 27300 (2016) 1 (1964) 837 8 11 16 20 96 269 329 1340 3360
2025-12-28 23:30 5.67 29 27300 (2016) 1 (1964) 837 8 11 16 20 96 269 329 1340 3360
2025-12-28 23:00 5.66 29 27300 (2016) 1 (1964) 837 8 11 16 20 96 269 329 1340 3360
2025-12-28 22:30 5.67 29 32600 (2016) 1 (1964) 1180 6 9 17 20 90 212 315 1260 9760
2025-12-28 22:00 5.65 28 32600 (2016) 1 (1964) 1180 6 9 17 20 90 212 315 1260 9760
2025-12-28 21:30 5.65 28 32600 (2016) 1 (1964) 1180 6 9 17 20 90 212 315 1260 9760
2025-12-28 21:00 5.69 31 32600 (2016) 1 (1964) 1180 6 9 17 20 90 212 315 1260 9760
2025-12-28 20:30 5.69 31 32600 (2016) 1 (1964) 1180 6 9 17 20 90 212 315 1260 9760
2025-12-28 20:00 5.67 29 32600 (2016) 1 (1964) 1180 6 9 17 20 90 212 315 1260 9760
2025-12-28 19:30 5.68 30 32600 (2016) 1 (1964) 1180 6 9 17 20 90 212 315 1260 9760
2025-12-28 19:00 5.68 30 32600 (2016) 1 (1964) 1180 6 9 17 20 90 212 315 1260 9760
2025-12-28 18:30 5.67 29 32600 (2016) 1 (1964) 1180 6 9 17 20 90 212 315 1260 9760
2025-12-28 18:00 5.68 30 32600 (2016) 1 (1964) 1180 6 9 17 20 90 212 315 1260 9760
2025-12-28 17:30 5.67 29 32600 (2016) 1 (1964) 1180 6 9 17 20 90 212 315 1260 9760
2025-12-28 17:00 5.67 29 32600 (2016) 1 (1964) 1180 6 9 17 20 90 212 315 1260 9760
2025-12-28 16:30 5.68 30 32600 (2016) 1 (1964) 1180 6 9 17 20 90 212 315 1260 9760
2025-12-28 16:00 5.67 29 32600 (2016) 1 (1964) 1180 6 9 17 20 90 212 315 1260 9760
2025-12-28 15:30 5.67 29 32600 (2016) 1 (1964) 1180 6 9 17 20 90 212 315 1260 9760
2025-12-28 15:00 5.66 29 32600 (2016) 1 (1964) 1180 6 9 17 20 90 212 315 1260 9760
2025-12-28 14:30 5.67 29 32600 (2016) 1 (1964) 1180 6 9 17 20 90 212 315 1260 9760
2025-12-28 14:00 5.68 30 32600 (2016) 1 (1964) 1180 6 9 17 20 90 212 315 1260 9760
2025-12-28 13:30 5.65 28 32600 (2016) 1 (1964) 1180 6 9 17 20 90 212 315 1260 9760
2025-12-28 13:00 5.65 28 32600 (2016) 1 (1964) 1180 6 9 17 20 90 212 315 1260 9760
2025-12-28 12:30 5.66 29 32600 (2016) 1 (1964) 1180 6 9 17 20 90 212 315 1260 9760
2025-12-28 12:00 5.69 31 32600 (2016) 1 (1964) 1180 6 9 17 20 90 212 315 1260 9760
2025-12-28 11:30 5.69 31 32600 (2016) 1 (1964) 1180 6 9 17 20 90 212 315 1260 9760
2025-12-28 11:00 5.71 33 32600 (2016) 1 (1964) 1180 6 9 17 20 90 212 315 1260 9760
2025-12-28 10:30 5.71 33 32600 (2016) 1 (1964) 1180 6 9 17 20 90 212 315 1260 9760
2025-12-28 10:00 5.72 34 32600 (2016) 1 (1964) 1180 6 9 17 20 90 212 315 1260 9760
2025-12-28 09:30 5.66 29 32600 (2016) 1 (1964) 1180 6 9 17 20 90 212 315 1260 9760
2025-12-28 09:00 5.73 35 32600 (2016) 1 (1964) 1180 6 9 17 20 90 212 315 1260 9760
2025-12-28 08:30 5.74 36 32600 (2016) 1 (1964) 1180 6 9 17 20 90 212 315 1260 9760
2025-12-28 08:00 5.74 36 32600 (2016) 1 (1964) 1180 6 9 17 20 90 212 315 1260 9760
2025-12-28 07:30 5.74 36 32600 (2016) 1 (1964) 1180 6 9 17 20 90 212 315 1260 9760
2025-12-28 07:00 5.74 36 32600 (2016) 1 (1964) 1180 6 9 17 20 90 212 315 1260 9760
2025-12-28 06:30 5.74 36 32600 (2016) 1 (1964) 1180 6 9 17 20 90 212 315 1260 9760
2025-12-28 05:30 5.74 36 32600 (2016) 1 (1964) 1180 6 9 17 20 90 212 315 1260 9760
2025-12-28 05:00 5.74 36 32600 (2016) 1 (1964) 1180 6 9 17 20 90 212 315 1260 9760
2025-12-28 04:30 5.72 34 32600 (2016) 1 (1964) 1180 6 9 17 20 90 212 315 1260 9760
2025-12-28 04:00 5.75 37 32600 (2016) 1 (1964) 1180 6 9 17 20 90 212 315 1260 9760
2025-12-28 03:30 5.75 37 32600 (2016) 1 (1964) 1180 6 9 17 20 90 212 315 1260 9760
2025-12-28 03:00 5.75 37 32600 (2016) 1 (1964) 1180 6 9 17 20 90 212 315 1260 9760
2025-12-28 02:30 5.75 37 32600 (2016) 1 (1964) 1180 6 9 17 20 90 212 315 1260 9760
2025-12-28 02:00 5.75 37 32600 (2016) 1 (1964) 1180 6 9 17 20 90 212 315 1260 9760
2025-12-28 01:30 5.75 37 32600 (2016) 1 (1964) 1180 6 9 17 20 90 212 315 1260 9760
2025-12-28 01:00 5.75 37 32600 (2016) 1 (1964) 1180 6 9 17 20 90 212 315 1260 9760
2025-12-28 00:30 5.75 37 32600 (2016) 1 (1964) 1180 6 9 17 20 90 212 315 1260 9760
2025-12-28 00:00 5.75 37 32600 (2016) 1 (1964) 1180 6 9 17 20 90 212 315 1260 9760
2025-12-27 23:30 5.76 38 32600 (2016) 1 (1964) 1180 6 9 17 20 90 212 315 1260 9760
2025-12-27 23:00 5.76 38 32600 (2016) 1 (1964) 1180 6 9 17 20 90 212 315 1260 9760
2025-12-27 22:30 5.76 38 29500 (2016) 1 (1964) 878 6 10 16 20 69 220 301 998 2270
2025-12-27 22:00 5.76 38 29500 (2016) 1 (1964) 878 6 10 16 20 69 220 301 998 2270
2025-12-27 21:30 38 29500 (2016) 1 (1964) 878 6 10 16 20 69 220 301 998 2270
2025-12-27 21:00 5.76 38 29500 (2016) 1 (1964) 878 6 10 16 20 69 220 301 998 2270
2025-12-27 20:30 5.76 38 29500 (2016) 1 (1964) 878 6 10 16 20 69 220 301 998 2270
2025-12-27 20:00 5.76 38 29500 (2016) 1 (1964) 878 6 10 16 20 69 220 301 998 2270
2025-12-27 19:30 5.76 38 29500 (2016) 1 (1964) 878 6 10 16 20 69 220 301 998 2270
2025-12-27 19:00 5.76 38 29500 (2016) 1 (1964) 878 6 10 16 20 69 220 301 998 2270
2025-12-27 18:30 5.76 38 29500 (2016) 1 (1964) 878 6 10 16 20 69 220 301 998 2270
2025-12-27 18:00 5.76 38 29500 (2016) 1 (1964) 878 6 10 16 20 69 220 301 998 2270
2025-12-27 17:30 5.74 36 29500 (2016) 1 (1964) 878 6 10 16 20 69 220 301 998 2270
2025-12-27 17:00 5.70 32 29500 (2016) 1 (1964) 878 6 10 16 20 69 220 301 998 2270
2025-12-27 16:30 5.71 33 29500 (2016) 1 (1964) 878 6 10 16 20 69 220 301 998 2270
2025-12-27 16:00 5.75 37 29500 (2016) 1 (1964) 878 6 10 16 20 69 220 301 998 2270
2025-12-27 15:30 5.72 34 29500 (2016) 1 (1964) 878 6 10 16 20 69 220 301 998 2270
2025-12-27 15:00 5.70 32 29500 (2016) 1 (1964) 878 6 10 16 20 69 220 301 998 2270
2025-12-27 14:30 5.71 33 29500 (2016) 1 (1964) 878 6 10 16 20 69 220 301 998 2270
2025-12-27 14:00 5.72 34 29500 (2016) 1 (1964) 878 6 10 16 20 69 220 301 998 2270
2025-12-27 13:30 5.75 37 29500 (2016) 1 (1964) 878 6 10 16 20 69 220 301 998 2270
2025-12-27 13:00 5.68 30 29500 (2016) 1 (1964) 878 6 10 16 20 69 220 301 998 2270
2025-12-27 12:30 5.69 31 29500 (2016) 1 (1964) 878 6 10 16 20 69 220 301 998 2270
2025-12-27 12:00 5.72 34 29500 (2016) 1 (1964) 878 6 10 16 20 69 220 301 998 2270
2025-12-27 11:30 5.75 37 29500 (2016) 1 (1964) 878 6 10 16 20 69 220 301 998 2270
2025-12-27 11:00 5.70 32 29500 (2016) 1 (1964) 878 6 10 16 20 69 220 301 998 2270
2025-12-27 10:30 5.72 34 29500 (2016) 1 (1964) 878 6 10 16 20 69 220 301 998 2270
2025-12-27 10:00 5.71 33 29500 (2016) 1 (1964) 878 6 10 16 20 69 220 301 998 2270
2025-12-27 09:30 5.71 33 29500 (2016) 1 (1964) 878 6 10 16 20 69 220 301 998 2270
2025-12-27 09:00 5.68 30 29500 (2016) 1 (1964) 878 6 10 16 20 69 220 301 998 2270
2025-12-27 08:30 5.70 32 29500 (2016) 1 (1964) 878 6 10 16 20 69 220 301 998 2270
2025-12-27 08:00 5.71 33 29500 (2016) 1 (1964) 878 6 10 16 20 69 220 301 998 2270
2025-12-27 07:30 5.73 35 29500 (2016) 1 (1964) 878 6 10 16 20 69 220 301 998 2270
2025-12-27 07:00 5.72 34 29500 (2016) 1 (1964) 878 6 10 16 20 69 220 301 998 2270
2025-12-27 06:30 5.69 31 29500 (2016) 1 (1964) 878 6 10 16 20 69 220 301 998 2270
2025-12-27 06:00 5.71 33 29500 (2016) 1 (1964) 878 6 10 16 20 69 220 301 998 2270
2025-12-27 05:30 5.75 37 29500 (2016) 1 (1964) 878 6 10 16 20 69 220 301 998 2270
2025-12-27 05:00 5.72 34 29500 (2016) 1 (1964) 878 6 10 16 20 69 220 301 998 2270
2025-12-27 04:30 5.76 38 29500 (2016) 1 (1964) 878 6 10 16 20 69 220 301 998 2270
2025-12-27 04:00 36 29500 (2016) 1 (1964) 878 6 10 16 20 69 220 301 998 2270
2025-12-27 03:30 5.73 35 29500 (2016) 1 (1964) 878 6 10 16 20 69 220 301 998 2270
2025-12-27 03:00 5.71 33 29500 (2016) 1 (1964) 878 6 10 16 20 69 220 301 998 2270
2025-12-27 02:30 5.76 38 29500 (2016) 1 (1964) 878 6 10 16 20 69 220 301 998 2270
2025-12-27 02:00 38 29500 (2016) 1 (1964) 878 6 10 16 20 69 220 301 998 2270
2025-12-27 01:30 5.76 38 29500 (2016) 1 (1964) 878 6 10 16 20 69 220 301 998 2270
2025-12-27 01:00 5.76 38 29500 (2016) 1 (1964) 878 6 10 16 20 69 220 301 998 2270
2025-12-27 00:30 38 29500 (2016) 1 (1964) 878 6 10 16 20 69 220 301 998 2270
2025-12-27 00:00 5.76 38 29500 (2016) 1 (1964) 878 6 10 16 20 69 220 301 998 2270
2025-12-26 23:30 39 29500 (2016) 1 (1964) 878 6 10 16 20 69 220 301 998 2270
2025-12-26 23:00 5.76 38 29500 (2016) 1 (1964) 878 6 10 16 20 69 220 301 998 2270
2025-12-26 22:30 39 6240 (1983) 1 (1964) 407 5 10 16 20 64 221 310 737 2330
2025-12-26 22:00 5.76 38 6240 (1983) 1 (1964) 407 5 10 16 20 64 221 310 737 2330
2025-12-26 21:30 5.77 39 6240 (1983) 1 (1964) 407 5 10 16 20 64 221 310 737 2330
2025-12-26 21:00 5.77 39 6240 (1983) 1 (1964) 407 5 10 16 20 64 221 310 737 2330
2025-12-26 20:30 5.77 39 6240 (1983) 1 (1964) 407 5 10 16 20 64 221 310 737 2330
2025-12-26 20:00 5.77 39 6240 (1983) 1 (1964) 407 5 10 16 20 64 221 310 737 2330
2025-12-26 19:30 5.78 40 6240 (1983) 1 (1964) 407 5 10 16 20 64 221 310 737 2330
2025-12-26 19:00 5.78 40 6240 (1983) 1 (1964) 407 5 10 16 20 64 221 310 737 2330
2025-12-26 18:30 5.79 41 6240 (1983) 1 (1964) 407 5 10 16 20 64 221 310 737 2330
2025-12-26 18:00 5.80 42 6240 (1983) 1 (1964) 407 5 10 16 20 64 221 310 737 2330
2025-12-26 17:30 5.81 43 6240 (1983) 1 (1964) 407 5 10 16 20 64 221 310 737 2330
2025-12-26 17:00 5.80 42 6240 (1983) 1 (1964) 407 5 10 16 20 64 221 310 737 2330
2025-12-26 16:30 5.77 39 6240 (1983) 1 (1964) 407 5 10 16 20 64 221 310 737 2330
2025-12-26 16:00 5.77 39 6240 (1983) 1 (1964) 407 5 10 16 20 64 221 310 737 2330
2025-12-26 15:30 5.77 39 6240 (1983) 1 (1964) 407 5 10 16 20 64 221 310 737 2330
2025-12-26 15:00 5.76 38 6240 (1983) 1 (1964) 407 5 10 16 20 64 221 310 737 2330
2025-12-26 14:30 5.76 38 6240 (1983) 1 (1964) 407 5 10 16 20 64 221 310 737 2330
2025-12-26 14:00 5.77 39 6240 (1983) 1 (1964) 407 5 10 16 20 64 221 310 737 2330
2025-12-26 13:30 5.77 39 6240 (1983) 1 (1964) 407 5 10 16 20 64 221 310 737 2330
2025-12-26 13:00 5.76 38 6240 (1983) 1 (1964) 407 5 10 16 20 64 221 310 737 2330
2025-12-26 12:30 5.76 38 6240 (1983) 1 (1964) 407 5 10 16 20 64 221 310 737 2330
2025-12-26 12:00 5.76 38 6240 (1983) 1 (1964) 407 5 10 16 20 64 221 310 737 2330
2025-12-26 11:30 5.76 38 6240 (1983) 1 (1964) 407 5 10 16 20 64 221 310 737 2330
2025-12-26 11:00 5.76 38 6240 (1983) 1 (1964) 407 5 10 16 20 64 221 310 737 2330
2025-12-26 10:30 5.74 36 6240 (1983) 1 (1964) 407 5 10 16 20 64 221 310 737 2330
2025-12-26 10:00 5.72 34 6240 (1983) 1 (1964) 407 5 10 16 20 64 221 310 737 2330
2025-12-26 09:30 5.75 37 6240 (1983) 1 (1964) 407 5 10 16 20 64 221 310 737 2330
2025-12-26 09:00 5.77 39 6240 (1983) 1 (1964) 407 5 10 16 20 64 221 310 737 2330
2025-12-26 08:30 5.77 39 6240 (1983) 1 (1964) 407 5 10 16 20 64 221 310 737 2330
2025-12-26 08:00 5.77 39 6240 (1983) 1 (1964) 407 5 10 16 20 64 221 310 737 2330
2025-12-26 07:30 5.77 39 6240 (1983) 1 (1964) 407 5 10 16 20 64 221 310 737 2330
2025-12-26 07:00 5.77 39 6240 (1983) 1 (1964) 407 5 10 16 20 64 221 310 737 2330
2025-12-26 06:30 5.77 39 6240 (1983) 1 (1964) 407 5 10 16 20 64 221 310 737 2330
2025-12-26 06:00 5.77 39 6240 (1983) 1 (1964) 407 5 10 16 20 64 221 310 737 2330
2025-12-26 05:30 5.77 39 6240 (1983) 1 (1964) 407 5 10 16 20 64 221 310 737 2330
2025-12-26 05:00 5.77 39 6240 (1983) 1 (1964) 407 5 10 16 20 64 221 310 737 2330
2025-12-26 04:30 5.77 39 6240 (1983) 1 (1964) 407 5 10 16 20 64 221 310 737 2330
2025-12-26 04:00 5.77 39 6240 (1983) 1 (1964) 407 5 10 16 20 64 221 310 737 2330
2025-12-26 03:30 5.77 39 6240 (1983) 1 (1964) 407 5 10 16 20 64 221 310 737 2330
2025-12-26 03:00 5.77 39 6240 (1983) 1 (1964) 407 5 10 16 20 64 221 310 737 2330
2025-12-26 02:30 5.77 39 6240 (1983) 1 (1964) 407 5 10 16 20 64 221 310 737 2330
2025-12-26 02:00 5.77 39 6240 (1983) 1 (1964) 407 5 10 16 20 64 221 310 737 2330
2025-12-26 01:30 5.77 39 6240 (1983) 1 (1964) 407 5 10 16 20 64 221 310 737 2330
2025-12-26 01:00 5.77 39 6240 (1983) 1 (1964) 407 5 10 16 20 64 221 310 737 2330
2025-12-26 00:30 5.77 39 6240 (1983) 1 (1964) 407 5 10 16 20 64 221 310 737 2330
2025-12-26 00:00 5.77 39 6240 (1983) 1 (1964) 407 5 10 16 20 64 221 310 737 2330
2025-12-25 23:30 5.77 39 6240 (1983) 1 (1964) 407 5 10 16 20 64 221 310 737 2330
2025-12-25 23:00 5.77 39 6240 (1983) 1 (1964) 407 5 10 16 20 64 221 310 737 2330
2025-12-25 22:30 5.77 39 18100 (2010) 1 (1964) 596 5 10 17 21 68 256 325 956 1590
2025-12-25 22:00 5.77 39 18100 (2010) 1 (1964) 596 5 10 17 21 68 256 325 956 1590
2025-12-25 21:30 5.77 39 18100 (2010) 1 (1964) 596 5 10 17 21 68 256 325 956 1590
2025-12-25 21:00 5.77 39 18100 (2010) 1 (1964) 596 5 10 17 21 68 256 325 956 1590
2025-12-25 20:30 5.77 39 18100 (2010) 1 (1964) 596 5 10 17 21 68 256 325 956 1590
2025-12-25 20:00 5.77 39 18100 (2010) 1 (1964) 596 5 10 17 21 68 256 325 956 1590
2025-12-25 19:30 5.77 39 18100 (2010) 1 (1964) 596 5 10 17 21 68 256 325 956 1590
2025-12-25 19:00 5.77 39 18100 (2010) 1 (1964) 596 5 10 17 21 68 256 325 956 1590
2025-12-25 18:30 5.77 39 18100 (2010) 1 (1964) 596 5 10 17 21 68 256 325 956 1590
2025-12-25 18:00 5.77 39 18100 (2010) 1 (1964) 596 5 10 17 21 68 256 325 956 1590
2025-12-25 17:30 5.77 39 18100 (2010) 1 (1964) 596 5 10 17 21 68 256 325 956 1590
2025-12-25 17:00 5.77 39 18100 (2010) 1 (1964) 596 5 10 17 21 68 256 325 956 1590
2025-12-25 16:30 5.77 39 18100 (2010) 1 (1964) 596 5 10 17 21 68 256 325 956 1590
2025-12-25 16:00 5.77 39 18100 (2010) 1 (1964) 596 5 10 17 21 68 256 325 956 1590
2025-12-25 15:30 5.77 39 18100 (2010) 1 (1964) 596 5 10 17 21 68 256 325 956 1590
2025-12-25 15:00 5.78 40 18100 (2010) 1 (1964) 596 5 10 17 21 68 256 325 956 1590
2025-12-25 14:30 5.77 39 18100 (2010) 1 (1964) 596 5 10 17 21 68 256 325 956 1590
2025-12-25 14:00 5.78 40 18100 (2010) 1 (1964) 596 5 10 17 21 68 256 325 956 1590
2025-12-25 13:30 5.78 40 18100 (2010) 1 (1964) 596 5 10 17 21 68 256 325 956 1590
2025-12-25 13:00 5.78 40 18100 (2010) 1 (1964) 596 5 10 17 21 68 256 325 956 1590
2025-12-25 12:30 5.78 40 18100 (2010) 1 (1964) 596 5 10 17 21 68 256 325 956 1590
2025-12-25 12:00 5.78 40 18100 (2010) 1 (1964) 596 5 10 17 21 68 256 325 956 1590
2025-12-25 11:30 5.78 40 18100 (2010) 1 (1964) 596 5 10 17 21 68 256 325 956 1590
2025-12-25 11:00 5.78 40 18100 (2010) 1 (1964) 596 5 10 17 21 68 256 325 956 1590
2025-12-25 10:30 5.78 40 18100 (2010) 1 (1964) 596 5 10 17 21 68 256 325 956 1590
2025-12-25 10:00 5.78 40 18100 (2010) 1 (1964) 596 5 10 17 21 68 256 325 956 1590
2025-12-25 09:30 5.78 40 18100 (2010) 1 (1964) 596 5 10 17 21 68 256 325 956 1590
2025-12-25 09:00 5.78 40 18100 (2010) 1 (1964) 596 5 10 17 21 68 256 325 956 1590
2025-12-25 08:30 5.78 40 18100 (2010) 1 (1964) 596 5 10 17 21 68 256 325 956 1590
2025-12-25 08:00 5.78 40 18100 (2010) 1 (1964) 596 5 10 17 21 68 256 325 956 1590
2025-12-25 07:30 5.78 40 18100 (2010) 1 (1964) 596 5 10 17 21 68 256 325 956 1590
2025-12-25 07:00 5.78 40 18100 (2010) 1 (1964) 596 5 10 17 21 68 256 325 956 1590
2025-12-25 06:30 5.78 40 18100 (2010) 1 (1964) 596 5 10 17 21 68 256 325 956 1590
2025-12-25 06:00 5.78 40 18100 (2010) 1 (1964) 596 5 10 17 21 68 256 325 956 1590
2025-12-25 05:30 5.78 40 18100 (2010) 1 (1964) 596 5 10 17 21 68 256 325 956 1590
2025-12-25 05:00 5.78 40 18100 (2010) 1 (1964) 596 5 10 17 21 68 256 325 956 1590
2025-12-25 04:30 5.78 40 18100 (2010) 1 (1964) 596 5 10 17 21 68 256 325 956 1590
2025-12-25 04:00 5.78 40 18100 (2010) 1 (1964) 596 5 10 17 21 68 256 325 956 1590
2025-12-25 03:30 5.78 40 18100 (2010) 1 (1964) 596 5 10 17 21 68 256 325 956 1590
2025-12-25 03:00 5.78 40 18100 (2010) 1 (1964) 596 5 10 17 21 68 256 325 956 1590
2025-12-25 02:30 5.79 41 18100 (2010) 1 (1964) 596 5 10 17 21 68 256 325 956 1590
2025-12-25 02:00 5.78 40 18100 (2010) 1 (1964) 596 5 10 17 21 68 256 325 956 1590
2025-12-25 01:30 5.78 40 18100 (2010) 1 (1964) 596 5 10 17 21 68 256 325 956 1590
2025-12-25 01:00 5.78 40 18100 (2010) 1 (1964) 596 5 10 17 21 68 256 325 956 1590
2025-12-25 00:30 5.78 40 18100 (2010) 1 (1964) 596 5 10 17 21 68 256 325 956 1590
2025-12-25 00:00 5.78 40 18100 (2010) 1 (1964) 596 5 10 17 21 68 256 325 956 1590
2025-12-24 23:30 5.78 40 18100 (2010) 1 (1964) 596 5 10 17 21 68 256 325 956 1590
2025-12-24 23:00 5.78 40 18100 (2010) 1 (1964) 596 5 10 17 21 68 256 325 956 1590
2025-12-24 22:30 5.78 40 17300 (2010) 1 (1964) 711 5 9 15 22 69 300 498 1230 3550
2025-12-24 22:00 5.78 40 17300 (2010) 1 (1964) 711 5 9 15 22 69 300 498 1230 3550
2025-12-24 21:30 5.79 41 17300 (2010) 1 (1964) 711 5 9 15 22 69 300 498 1230 3550
2025-12-24 21:00 5.79 41 17300 (2010) 1 (1964) 711 5 9 15 22 69 300 498 1230 3550
2025-12-24 20:30 5.78 40 17300 (2010) 1 (1964) 711 5 9 15 22 69 300 498 1230 3550
2025-12-24 20:00 5.79 41 17300 (2010) 1 (1964) 711 5 9 15 22 69 300 498 1230 3550
2025-12-24 19:30 5.78 40 17300 (2010) 1 (1964) 711 5 9 15 22 69 300 498 1230 3550
2025-12-24 19:00 5.78 40 17300 (2010) 1 (1964) 711 5 9 15 22 69 300 498 1230 3550
2025-12-24 18:30 5.78 40 17300 (2010) 1 (1964) 711 5 9 15 22 69 300 498 1230 3550
2025-12-24 18:00 5.78 40 17300 (2010) 1 (1964) 711 5 9 15 22 69 300 498 1230 3550
2025-12-24 17:30 5.78 40 17300 (2010) 1 (1964) 711 5 9 15 22 69 300 498 1230 3550
2025-12-24 17:00 5.78 40 17300 (2010) 1 (1964) 711 5 9 15 22 69 300 498 1230 3550
2025-12-24 16:30 5.78 40 17300 (2010) 1 (1964) 711 5 9 15 22 69 300 498 1230 3550
2025-12-24 16:00 5.78 40 17300 (2010) 1 (1964) 711 5 9 15 22 69 300 498 1230 3550
2025-12-24 15:30 5.78 40 17300 (2010) 1 (1964) 711 5 9 15 22 69 300 498 1230 3550
2025-12-24 15:00 5.74 36 17300 (2010) 1 (1964) 711 5 9 15 22 69 300 498 1230 3550
2025-12-24 14:30 5.74 36 17300 (2010) 1 (1964) 711 5 9 15 22 69 300 498 1230 3550
2025-12-24 14:00 5.75 37 17300 (2010) 1 (1964) 711 5 9 15 22 69 300 498 1230 3550
2025-12-24 13:30 5.78 40 17300 (2010) 1 (1964) 711 5 9 15 22 69 300 498 1230 3550
2025-12-24 13:00 5.78 40 17300 (2010) 1 (1964) 711 5 9 15 22 69 300 498 1230 3550
2025-12-24 12:30 5.79 41 17300 (2010) 1 (1964) 711 5 9 15 22 69 300 498 1230 3550
2025-12-24 12:00 5.74 36 17300 (2010) 1 (1964) 711 5 9 15 22 69 300 498 1230 3550
2025-12-24 11:30 5.78 40 17300 (2010) 1 (1964) 711 5 9 15 22 69 300 498 1230 3550
2025-12-24 11:00 5.78 40 17300 (2010) 1 (1964) 711 5 9 15 22 69 300 498 1230 3550
2025-12-24 10:30 5.77 39 17300 (2010) 1 (1964) 711 5 9 15 22 69 300 498 1230 3550
2025-12-24 10:00 5.79 41 17300 (2010) 1 (1964) 711 5 9 15 22 69 300 498 1230 3550
2025-12-24 09:30 5.73 35 17300 (2010) 1 (1964) 711 5 9 15 22 69 300 498 1230 3550
2025-12-24 09:00 5.79 41 17300 (2010) 1 (1964) 711 5 9 15 22 69 300 498 1230 3550
2025-12-24 08:30 5.79 41 17300 (2010) 1 (1964) 711 5 9 15 22 69 300 498 1230 3550
2025-12-24 08:00 5.75 37 17300 (2010) 1 (1964) 711 5 9 15 22 69 300 498 1230 3550
2025-12-24 07:30 5.79 41 17300 (2010) 1 (1964) 711 5 9 15 22 69 300 498 1230 3550
2025-12-24 07:00 5.79 41 17300 (2010) 1 (1964) 711 5 9 15 22 69 300 498 1230 3550
2025-12-24 06:30 5.79 41 17300 (2010) 1 (1964) 711 5 9 15 22 69 300 498 1230 3550
2025-12-24 06:00 5.79 41 17300 (2010) 1 (1964) 711 5 9 15 22 69 300 498 1230 3550
2025-12-24 05:30 5.79 41 17300 (2010) 1 (1964) 711 5 9 15 22 69 300 498 1230 3550
2025-12-24 05:00 5.79 41 17300 (2010) 1 (1964) 711 5 9 15 22 69 300 498 1230 3550
2025-12-24 04:30 5.79 41 17300 (2010) 1 (1964) 711 5 9 15 22 69 300 498 1230 3550
2025-12-24 04:00 5.79 41 17300 (2010) 1 (1964) 711 5 9 15 22 69 300 498 1230 3550
2025-12-24 03:30 5.79 41 17300 (2010) 1 (1964) 711 5 9 15 22 69 300 498 1230 3550
2025-12-24 03:00 5.79 41 17300 (2010) 1 (1964) 711 5 9 15 22 69 300 498 1230 3550
2025-12-24 02:30 5.79 41 17300 (2010) 1 (1964) 711 5 9 15 22 69 300 498 1230 3550
2025-12-24 02:00 5.79 41 17300 (2010) 1 (1964) 711 5 9 15 22 69 300 498 1230 3550
2025-12-24 01:30 5.79 41 17300 (2010) 1 (1964) 711 5 9 15 22 69 300 498 1230 3550
2025-12-24 01:00 5.79 41 17300 (2010) 1 (1964) 711 5 9 15 22 69 300 498 1230 3550
2025-12-24 00:30 5.79 41 17300 (2010) 1 (1964) 711 5 9 15 22 69 300 498 1230 3550
2025-12-24 00:00 5.79 41 17300 (2010) 1 (1964) 711 5 9 15 22 69 300 498 1230 3550
2025-12-23 23:30 5.79 41 17300 (2010) 1 (1964) 711 5 9 15 22 69 300 498 1230 3550
2025-12-23 23:00 5.79 41 17300 (2010) 1 (1964) 711 5 9 15 22 69 300 498 1230 3550
2025-12-23 22:30 5.79 41 12600 (2004) 1 (1964) 519 5 9 15 20 73 294 391 1200 2960
2025-12-23 22:00 5.79 41 12600 (2004) 1 (1964) 519 5 9 15 20 73 294 391 1200 2960
2025-12-23 21:30 5.79 41 12600 (2004) 1 (1964) 519 5 9 15 20 73 294 391 1200 2960
2025-12-23 21:00 5.79 41 12600 (2004) 1 (1964) 519 5 9 15 20 73 294 391 1200 2960
2025-12-23 20:30 5.79 41 12600 (2004) 1 (1964) 519 5 9 15 20 73 294 391 1200 2960
2025-12-23 20:00 5.79 41 12600 (2004) 1 (1964) 519 5 9 15 20 73 294 391 1200 2960
2025-12-23 19:30 5.79 41 12600 (2004) 1 (1964) 519 5 9 15 20 73 294 391 1200 2960
2025-12-23 19:00 5.79 41 12600 (2004) 1 (1964) 519 5 9 15 20 73 294 391 1200 2960
2025-12-23 18:30 5.79 41 12600 (2004) 1 (1964) 519 5 9 15 20 73 294 391 1200 2960
2025-12-23 18:00 5.79 41 12600 (2004) 1 (1964) 519 5 9 15 20 73 294 391 1200 2960
2025-12-23 17:30 5.79 41 12600 (2004) 1 (1964) 519 5 9 15 20 73 294 391 1200 2960
2025-12-23 17:00 5.79 41 12600 (2004) 1 (1964) 519 5 9 15 20 73 294 391 1200 2960
2025-12-23 16:30 5.79 41 12600 (2004) 1 (1964) 519 5 9 15 20 73 294 391 1200 2960
2025-12-23 16:00 5.79 41 12600 (2004) 1 (1964) 519 5 9 15 20 73 294 391 1200 2960
2025-12-23 15:30 5.79 41 12600 (2004) 1 (1964) 519 5 9 15 20 73 294 391 1200 2960
2025-12-23 15:00 5.79 41 12600 (2004) 1 (1964) 519 5 9 15 20 73 294 391 1200 2960
2025-12-23 14:30 5.79 41 12600 (2004) 1 (1964) 519 5 9 15 20 73 294 391 1200 2960
2025-12-23 14:00 5.79 41 12600 (2004) 1 (1964) 519 5 9 15 20 73 294 391 1200 2960
2025-12-23 13:30 5.80 42 12600 (2004) 1 (1964) 519 5 9 15 20 73 294 391 1200 2960
2025-12-23 13:00 5.80 42 12600 (2004) 1 (1964) 519 5 9 15 20 73 294 391 1200 2960
2025-12-23 12:30 5.80 42 12600 (2004) 1 (1964) 519 5 9 15 20 73 294 391 1200 2960
2025-12-23 12:00 5.80 42 12600 (2004) 1 (1964) 519 5 9 15 20 73 294 391 1200 2960
2025-12-23 11:30 5.80 42 12600 (2004) 1 (1964) 519 5 9 15 20 73 294 391 1200 2960
2025-12-23 11:00 5.80 42 12600 (2004) 1 (1964) 519 5 9 15 20 73 294 391 1200 2960
2025-12-23 10:30 5.80 42 12600 (2004) 1 (1964) 519 5 9 15 20 73 294 391 1200 2960
2025-12-23 10:00 5.80 42 12600 (2004) 1 (1964) 519 5 9 15 20 73 294 391 1200 2960
2025-12-23 09:30 5.80 42 12600 (2004) 1 (1964) 519 5 9 15 20 73 294 391 1200 2960
2025-12-23 09:00 5.80 42 12600 (2004) 1 (1964) 519 5 9 15 20 73 294 391 1200 2960
2025-12-23 08:30 5.80 42 12600 (2004) 1 (1964) 519 5 9 15 20 73 294 391 1200 2960
2025-12-23 08:00 5.80 42 12600 (2004) 1 (1964) 519 5 9 15 20 73 294 391 1200 2960
2025-12-23 07:30 5.80 42 12600 (2004) 1 (1964) 519 5 9 15 20 73 294 391 1200 2960
2025-12-23 07:00 5.80 42 12600 (2004) 1 (1964) 519 5 9 15 20 73 294 391 1200 2960
2025-12-23 06:30 5.80 42 12600 (2004) 1 (1964) 519 5 9 15 20 73 294 391 1200 2960
2025-12-23 06:00 5.80 42 12600 (2004) 1 (1964) 519 5 9 15 20 73 294 391 1200 2960
2025-12-23 05:30 5.80 42 12600 (2004) 1 (1964) 519 5 9 15 20 73 294 391 1200 2960
2025-12-23 05:00 5.80 42 12600 (2004) 1 (1964) 519 5 9 15 20 73 294 391 1200 2960
2025-12-23 04:30 5.81 43 12600 (2004) 1 (1964) 519 5 9 15 20 73 294 391 1200 2960
2025-12-23 04:00 5.80 42 12600 (2004) 1 (1964) 519 5 9 15 20 73 294 391 1200 2960
2025-12-23 03:30 5.80 42 12600 (2004) 1 (1964) 519 5 9 15 20 73 294 391 1200 2960
2025-12-23 03:00 5.81 43 12600 (2004) 1 (1964) 519 5 9 15 20 73 294 391 1200 2960
2025-12-23 02:30 5.80 42 12600 (2004) 1 (1964) 519 5 9 15 20 73 294 391 1200 2960
2025-12-23 02:00 5.80 42 12600 (2004) 1 (1964) 519 5 9 15 20 73 294 391 1200 2960
2025-12-23 01:30 5.80 42 12600 (2004) 1 (1964) 519 5 9 15 20 73 294 391 1200 2960
2025-12-23 01:00 5.80 42 12600 (2004) 1 (1964) 519 5 9 15 20 73 294 391 1200 2960
2025-12-23 00:30 5.80 42 12600 (2004) 1 (1964) 519 5 9 15 20 73 294 391 1200 2960
2025-12-23 00:00 5.80 42 12600 (2004) 1 (1964) 519 5 9 15 20 73 294 391 1200 2960
2025-12-22 23:30 5.81 43 12600 (2004) 1 (1964) 519 5 9 15 20 73 294 391 1200 2960
2025-12-22 23:00 5.80 42 12600 (2004) 1 (1964) 519 5 9 15 20 73 294 391 1200 2960
2025-12-22 22:30 5.80 42 13700 (1950) 1 (1964) 459 5 9 15 20 65 201 269 666 1510
2025-12-22 22:00 5.80 42 13700 (1950) 1 (1964) 459 5 9 15 20 65 201 269 666 1510
2025-12-22 21:30 5.80 42 13700 (1950) 1 (1964) 459 5 9 15 20 65 201 269 666 1510
2025-12-22 21:00 5.80 42 13700 (1950) 1 (1964) 459 5 9 15 20 65 201 269 666 1510
2025-12-22 20:30 5.80 42 13700 (1950) 1 (1964) 459 5 9 15 20 65 201 269 666 1510
2025-12-22 20:00 5.80 42 13700 (1950) 1 (1964) 459 5 9 15 20 65 201 269 666 1510
2025-12-22 19:30 5.80 42 13700 (1950) 1 (1964) 459 5 9 15 20 65 201 269 666 1510
2025-12-22 19:00 5.80 42 13700 (1950) 1 (1964) 459 5 9 15 20 65 201 269 666 1510
2025-12-22 18:30 5.80 42 13700 (1950) 1 (1964) 459 5 9 15 20 65 201 269 666 1510
2025-12-22 18:00 5.80 42 13700 (1950) 1 (1964) 459 5 9 15 20 65 201 269 666 1510
2025-12-22 17:30 5.80 42 13700 (1950) 1 (1964) 459 5 9 15 20 65 201 269 666 1510
2025-12-22 17:00 5.80 42 13700 (1950) 1 (1964) 459 5 9 15 20 65 201 269 666 1510
2025-12-22 16:30 5.80 42 13700 (1950) 1 (1964) 459 5 9 15 20 65 201 269 666 1510
2025-12-22 16:00 5.80 42 13700 (1950) 1 (1964) 459 5 9 15 20 65 201 269 666 1510
2025-12-22 15:30 5.80 42 13700 (1950) 1 (1964) 459 5 9 15 20 65 201 269 666 1510
2025-12-22 15:00 5.80 42 13700 (1950) 1 (1964) 459 5 9 15 20 65 201 269 666 1510
2025-12-22 14:30 5.80 42 13700 (1950) 1 (1964) 459 5 9 15 20 65 201 269 666 1510
2025-12-22 14:00 5.80 42 13700 (1950) 1 (1964) 459 5 9 15 20 65 201 269 666 1510
2025-12-22 13:30 5.80 42 13700 (1950) 1 (1964) 459 5 9 15 20 65 201 269 666 1510
2025-12-22 13:00 5.80 42 13700 (1950) 1 (1964) 459 5 9 15 20 65 201 269 666 1510
2025-12-22 12:30 5.80 42 13700 (1950) 1 (1964) 459 5 9 15 20 65 201 269 666 1510
2025-12-22 12:00 5.80 42 13700 (1950) 1 (1964) 459 5 9 15 20 65 201 269 666 1510
2025-12-22 11:30 5.80 42 13700 (1950) 1 (1964) 459 5 9 15 20 65 201 269 666 1510
2025-12-22 11:00 5.80 42 13700 (1950) 1 (1964) 459 5 9 15 20 65 201 269 666 1510
2025-12-22 10:30 5.80 42 13700 (1950) 1 (1964) 459 5 9 15 20 65 201 269 666 1510
2025-12-22 10:00 5.80 42 13700 (1950) 1 (1964) 459 5 9 15 20 65 201 269 666 1510
2025-12-22 09:30 5.80 42 13700 (1950) 1 (1964) 459 5 9 15 20 65 201 269 666 1510
2025-12-22 09:00 5.80 42 13700 (1950) 1 (1964) 459 5 9 15 20 65 201 269 666 1510
2025-12-22 08:30 5.80 42 13700 (1950) 1 (1964) 459 5 9 15 20 65 201 269 666 1510
2025-12-22 08:00 5.80 42 13700 (1950) 1 (1964) 459 5 9 15 20 65 201 269 666 1510
2025-12-22 07:30 5.80 42 13700 (1950) 1 (1964) 459 5 9 15 20 65 201 269 666 1510
2025-12-22 07:00 5.79 41 13700 (1950) 1 (1964) 459 5 9 15 20 65 201 269 666 1510
2025-12-22 06:30 5.80 42 13700 (1950) 1 (1964) 459 5 9 15 20 65 201 269 666 1510
2025-12-22 06:00 5.80 42 13700 (1950) 1 (1964) 459 5 9 15 20 65 201 269 666 1510
2025-12-22 05:30 5.79 41 13700 (1950) 1 (1964) 459 5 9 15 20 65 201 269 666 1510
2025-12-22 05:00 5.80 42 13700 (1950) 1 (1964) 459 5 9 15 20 65 201 269 666 1510
2025-12-22 04:30 5.80 42 13700 (1950) 1 (1964) 459 5 9 15 20 65 201 269 666 1510
2025-12-22 04:00 5.79 41 13700 (1950) 1 (1964) 459 5 9 15 20 65 201 269 666 1510
2025-12-22 03:30 5.79 41 13700 (1950) 1 (1964) 459 5 9 15 20 65 201 269 666 1510
2025-12-22 03:00 5.80 42 13700 (1950) 1 (1964) 459 5 9 15 20 65 201 269 666 1510
2025-12-22 02:30 5.80 42 13700 (1950) 1 (1964) 459 5 9 15 20 65 201 269 666 1510
2025-12-22 02:00 5.80 42 13700 (1950) 1 (1964) 459 5 9 15 20 65 201 269 666 1510
2025-12-22 01:30 5.80 42 13700 (1950) 1 (1964) 459 5 9 15 20 65 201 269 666 1510
2025-12-22 01:00 5.80 42 13700 (1950) 1 (1964) 459 5 9 15 20 65 201 269 666 1510
2025-12-22 00:30 5.80 42 13700 (1950) 1 (1964) 459 5 9 15 20 65 201 269 666 1510
2025-12-22 00:00 5.80 42 13700 (1950) 1 (1964) 459 5 9 15 20 65 201 269 666 1510
2025-12-21 23:30 5.80 42 13700 (1950) 1 (1964) 459 5 9 15 20 65 201 269 666 1510
2025-12-21 23:00 5.80 42 13700 (1950) 1 (1964) 459 5 9 15 20 65 201 269 666 1510
2025-12-21 22:30 5.80 42 11400 (1968) 1 (1964) 367 5 8 16 20 64 197 251 580 994
2025-12-21 22:00 5.80 42 11400 (1968) 1 (1964) 367 5 8 16 20 64 197 251 580 994
2025-12-21 21:30 5.80 42 11400 (1968) 1 (1964) 367 5 8 16 20 64 197 251 580 994
2025-12-21 21:00 5.80 42 11400 (1968) 1 (1964) 367 5 8 16 20 64 197 251 580 994
2025-12-21 20:30 5.80 42 11400 (1968) 1 (1964) 367 5 8 16 20 64 197 251 580 994
2025-12-21 20:00 5.80 42 11400 (1968) 1 (1964) 367 5 8 16 20 64 197 251 580 994
2025-12-21 19:30 5.80 42 11400 (1968) 1 (1964) 367 5 8 16 20 64 197 251 580 994
2025-12-21 19:00 5.80 42 11400 (1968) 1 (1964) 367 5 8 16 20 64 197 251 580 994
2025-12-21 18:30 5.80 42 11400 (1968) 1 (1964) 367 5 8 16 20 64 197 251 580 994
2025-12-21 18:00 5.80 42 11400 (1968) 1 (1964) 367 5 8 16 20 64 197 251 580 994
2025-12-21 17:30 5.80 42 11400 (1968) 1 (1964) 367 5 8 16 20 64 197 251 580 994
2025-12-21 17:00 5.79 41 11400 (1968) 1 (1964) 367 5 8 16 20 64 197 251 580 994
2025-12-21 16:30 5.80 42 11400 (1968) 1 (1964) 367 5 8 16 20 64 197 251 580 994
2025-12-21 16:00 5.80 42 11400 (1968) 1 (1964) 367 5 8 16 20 64 197 251 580 994
2025-12-21 15:30 5.77 39 11400 (1968) 1 (1964) 367 5 8 16 20 64 197 251 580 994
2025-12-21 15:00 5.80 42 11400 (1968) 1 (1964) 367 5 8 16 20 64 197 251 580 994
2025-12-21 14:30 5.76 38 11400 (1968) 1 (1964) 367 5 8 16 20 64 197 251 580 994
2025-12-21 14:00 5.80 42 11400 (1968) 1 (1964) 367 5 8 16 20 64 197 251 580 994
2025-12-21 13:30 5.75 37 11400 (1968) 1 (1964) 367 5 8 16 20 64 197 251 580 994
2025-12-21 13:00 5.80 42 11400 (1968) 1 (1964) 367 5 8 16 20 64 197 251 580 994
2025-12-21 12:30 5.80 42 11400 (1968) 1 (1964) 367 5 8 16 20 64 197 251 580 994
2025-12-21 12:00 5.81 43 11400 (1968) 1 (1964) 367 5 8 16 20 64 197 251 580 994
2025-12-21 11:30 5.81 43 11400 (1968) 1 (1964) 367 5 8 16 20 64 197 251 580 994
2025-12-21 11:00 5.80 42 11400 (1968) 1 (1964) 367 5 8 16 20 64 197 251 580 994
2025-12-21 10:30 5.80 42 11400 (1968) 1 (1964) 367 5 8 16 20 64 197 251 580 994
2025-12-21 10:00 5.81 43 11400 (1968) 1 (1964) 367 5 8 16 20 64 197 251 580 994
2025-12-21 09:30 5.81 43 11400 (1968) 1 (1964) 367 5 8 16 20 64 197 251 580 994
2025-12-21 09:00 5.81 43 11400 (1968) 1 (1964) 367 5 8 16 20 64 197 251 580 994
2025-12-21 08:30 5.81 43 11400 (1968) 1 (1964) 367 5 8 16 20 64 197 251 580 994
2025-12-21 08:00 5.81 43 11400 (1968) 1 (1964) 367 5 8 16 20 64 197 251 580 994
2025-12-21 07:30 5.81 43 11400 (1968) 1 (1964) 367 5 8 16 20 64 197 251 580 994
2025-12-21 07:00 5.81 43 11400 (1968) 1 (1964) 367 5 8 16 20 64 197 251 580 994
2025-12-21 06:30 5.81 43 11400 (1968) 1 (1964) 367 5 8 16 20 64 197 251 580 994
2025-12-21 06:00 5.81 43 11400 (1968) 1 (1964) 367 5 8 16 20 64 197 251 580 994
2025-12-21 05:30 5.81 43 11400 (1968) 1 (1964) 367 5 8 16 20 64 197 251 580 994
2025-12-21 05:00 5.81 43 11400 (1968) 1 (1964) 367 5 8 16 20 64 197 251 580 994
2025-12-21 04:30 5.81 43 11400 (1968) 1 (1964) 367 5 8 16 20 64 197 251 580 994
2025-12-21 04:00 5.80 42 11400 (1968) 1 (1964) 367 5 8 16 20 64 197 251 580 994
2025-12-21 03:30 5.80 42 11400 (1968) 1 (1964) 367 5 8 16 20 64 197 251 580 994
2025-12-21 03:00 5.81 43 11400 (1968) 1 (1964) 367 5 8 16 20 64 197 251 580 994
2025-12-21 02:30 5.81 43 11400 (1968) 1 (1964) 367 5 8 16 20 64 197 251 580 994
2025-12-21 02:00 5.81 43 11400 (1968) 1 (1964) 367 5 8 16 20 64 197 251 580 994
2025-12-21 01:30 5.81 43 11400 (1968) 1 (1964) 367 5 8 16 20 64 197 251 580 994
2025-12-21 01:00 5.81 43 11400 (1968) 1 (1964) 367 5 8 16 20 64 197 251 580 994
2025-12-21 00:30 5.81 43 11400 (1968) 1 (1964) 367 5 8 16 20 64 197 251 580 994
2025-12-21 00:00 5.81 43 11400 (1968) 1 (1964) 367 5 8 16 20 64 197 251 580 994
2025-12-20 23:30 5.81 43 11400 (1968) 1 (1964) 367 5 8 16 20 64 197 251 580 994
2025-12-20 23:00 5.81 43 11400 (1968) 1 (1964) 367 5 8 16 20 64 197 251 580 994
2025-12-20 22:30 5.81 43 10700 (1988) 1 (1964) 268 5 8 19 21 69 197 231 485 940
2025-12-20 22:00 5.81 43 10700 (1988) 1 (1964) 268 5 8 19 21 69 197 231 485 940
2025-12-20 21:30 5.81 43 10700 (1988) 1 (1964) 268 5 8 19 21 69 197 231 485 940
2025-12-20 21:00 5.81 43 10700 (1988) 1 (1964) 268 5 8 19 21 69 197 231 485 940
2025-12-20 20:30 5.80 42 10700 (1988) 1 (1964) 268 5 8 19 21 69 197 231 485 940
2025-12-20 20:00 5.80 42 10700 (1988) 1 (1964) 268 5 8 19 21 69 197 231 485 940
2025-12-20 19:30 5.80 42 10700 (1988) 1 (1964) 268 5 8 19 21 69 197 231 485 940
2025-12-20 19:00 5.80 42 10700 (1988) 1 (1964) 268 5 8 19 21 69 197 231 485 940
2025-12-20 18:30 5.80 42 10700 (1988) 1 (1964) 268 5 8 19 21 69 197 231 485 940
2025-12-20 18:00 5.80 42 10700 (1988) 1 (1964) 268 5 8 19 21 69 197 231 485 940
2025-12-20 17:30 5.80 42 10700 (1988) 1 (1964) 268 5 8 19 21 69 197 231 485 940
2025-12-20 17:00 5.80 42 10700 (1988) 1 (1964) 268 5 8 19 21 69 197 231 485 940
2025-12-20 16:30 5.80 42 10700 (1988) 1 (1964) 268 5 8 19 21 69 197 231 485 940
2025-12-20 16:00 5.80 42 10700 (1988) 1 (1964) 268 5 8 19 21 69 197 231 485 940
2025-12-20 15:30 5.80 42 10700 (1988) 1 (1964) 268 5 8 19 21 69 197 231 485 940
2025-12-20 15:00 5.80 42 10700 (1988) 1 (1964) 268 5 8 19 21 69 197 231 485 940
2025-12-20 14:30 5.80 42 10700 (1988) 1 (1964) 268 5 8 19 21 69 197 231 485 940
2025-12-20 14:00 5.80 42 10700 (1988) 1 (1964) 268 5 8 19 21 69 197 231 485 940
2025-12-20 13:30 5.80 42 10700 (1988) 1 (1964) 268 5 8 19 21 69 197 231 485 940
2025-12-20 13:00 5.81 43 10700 (1988) 1 (1964) 268 5 8 19 21 69 197 231 485 940
2025-12-20 12:30 5.77 39 10700 (1988) 1 (1964) 268 5 8 19 21 69 197 231 485 940
2025-12-20 12:00 5.75 37 10700 (1988) 1 (1964) 268 5 8 19 21 69 197 231 485 940
2025-12-20 11:30 5.75 37 10700 (1988) 1 (1964) 268 5 8 19 21 69 197 231 485 940
2025-12-20 11:00 5.78 40 10700 (1988) 1 (1964) 268 5 8 19 21 69 197 231 485 940
2025-12-20 10:30 5.78 40 10700 (1988) 1 (1964) 268 5 8 19 21 69 197 231 485 940
2025-12-20 10:00 5.81 43 10700 (1988) 1 (1964) 268 5 8 19 21 69 197 231 485 940
2025-12-20 09:30 5.81 43 10700 (1988) 1 (1964) 268 5 8 19 21 69 197 231 485 940
2025-12-20 09:00 5.81 43 10700 (1988) 1 (1964) 268 5 8 19 21 69 197 231 485 940
2025-12-20 08:30 5.81 43 10700 (1988) 1 (1964) 268 5 8 19 21 69 197 231 485 940
2025-12-20 08:00 5.81 43 10700 (1988) 1 (1964) 268 5 8 19 21 69 197 231 485 940
2025-12-20 07:30 5.81 43 10700 (1988) 1 (1964) 268 5 8 19 21 69 197 231 485 940
2025-12-20 07:00 5.81 43 10700 (1988) 1 (1964) 268 5 8 19 21 69 197 231 485 940
2025-12-20 06:30 5.81 43 10700 (1988) 1 (1964) 268 5 8 19 21 69 197 231 485 940
2025-12-20 06:00 5.81 43 10700 (1988) 1 (1964) 268 5 8 19 21 69 197 231 485 940
2025-12-20 05:30 5.81 43 10700 (1988) 1 (1964) 268 5 8 19 21 69 197 231 485 940
2025-12-20 05:00 5.81 43 10700 (1988) 1 (1964) 268 5 8 19 21 69 197 231 485 940
2025-12-20 04:30 5.81 43 10700 (1988) 1 (1964) 268 5 8 19 21 69 197 231 485 940
2025-12-20 04:00 5.81 43 10700 (1988) 1 (1964) 268 5 8 19 21 69 197 231 485 940
2025-12-20 03:30 5.81 43 10700 (1988) 1 (1964) 268 5 8 19 21 69 197 231 485 940
2025-12-20 03:00 5.81 43 10700 (1988) 1 (1964) 268 5 8 19 21 69 197 231 485 940
2025-12-20 02:30 5.81 43 10700 (1988) 1 (1964) 268 5 8 19 21 69 197 231 485 940
2025-12-20 02:00 5.81 43 10700 (1988) 1 (1964) 268 5 8 19 21 69 197 231 485 940
2025-12-20 01:30 5.81 43 10700 (1988) 1 (1964) 268 5 8 19 21 69 197 231 485 940
2025-12-20 01:00 5.81 43 10700 (1988) 1 (1964) 268 5 8 19 21 69 197 231 485 940
2025-12-20 00:30 5.81 43 10700 (1988) 1 (1964) 268 5 8 19 21 69 197 231 485 940
2025-12-20 00:00 5.81 43 10700 (1988) 1 (1964) 268 5 8 19 21 69 197 231 485 940
2025-12-19 23:30 5.81 43 10700 (1988) 1 (1964) 268 5 8 19 21 69 197 231 485 940
2025-12-19 23:00 5.81 43 10700 (1988) 1 (1964) 268 5 8 19 21 69 197 231 485 940
2025-12-19 22:30 5.81 43 1390 (1925) 1 (1964) 175 5 8 16 21 73 208 242 446 804
2025-12-19 22:00 5.81 43 1390 (1925) 1 (1964) 175 5 8 16 21 73 208 242 446 804
2025-12-19 21:30 5.81 43 1390 (1925) 1 (1964) 175 5 8 16 21 73 208 242 446 804
2025-12-19 21:00 5.81 43 1390 (1925) 1 (1964) 175 5 8 16 21 73 208 242 446 804
2025-12-19 20:30 5.81 43 1390 (1925) 1 (1964) 175 5 8 16 21 73 208 242 446 804
2025-12-19 20:00 5.81 43 1390 (1925) 1 (1964) 175 5 8 16 21 73 208 242 446 804
2025-12-19 19:30 5.81 43 1390 (1925) 1 (1964) 175 5 8 16 21 73 208 242 446 804
2025-12-19 19:00 5.81 43 1390 (1925) 1 (1964) 175 5 8 16 21 73 208 242 446 804
2025-12-19 18:30 5.81 43 1390 (1925) 1 (1964) 175 5 8 16 21 73 208 242 446 804
2025-12-19 18:00 5.81 43 1390 (1925) 1 (1964) 175 5 8 16 21 73 208 242 446 804
2025-12-19 17:30 5.81 43 1390 (1925) 1 (1964) 175 5 8 16 21 73 208 242 446 804
2025-12-19 17:00 5.81 43 1390 (1925) 1 (1964) 175 5 8 16 21 73 208 242 446 804
2025-12-19 16:30 5.81 43 1390 (1925) 1 (1964) 175 5 8 16 21 73 208 242 446 804
2025-12-19 16:00 5.81 43 1390 (1925) 1 (1964) 175 5 8 16 21 73 208 242 446 804
2025-12-19 15:30 5.81 43 1390 (1925) 1 (1964) 175 5 8 16 21 73 208 242 446 804
2025-12-19 15:00 5.81 43 1390 (1925) 1 (1964) 175 5 8 16 21 73 208 242 446 804
2025-12-19 14:30 5.81 43 1390 (1925) 1 (1964) 175 5 8 16 21 73 208 242 446 804
2025-12-19 14:00 5.74 36 1390 (1925) 1 (1964) 175 5 8 16 21 73 208 242 446 804
2025-12-19 13:30 5.75 37 1390 (1925) 1 (1964) 175 5 8 16 21 73 208 242 446 804
2025-12-19 13:00 5.75 37 1390 (1925) 1 (1964) 175 5 8 16 21 73 208 242 446 804
2025-12-19 12:30 5.77 39 1390 (1925) 1 (1964) 175 5 8 16 21 73 208 242 446 804
2025-12-19 12:00 5.78 40 1390 (1925) 1 (1964) 175 5 8 16 21 73 208 242 446 804
2025-12-19 11:30 5.82 45 1390 (1925) 1 (1964) 175 5 8 16 21 73 208 242 446 804
2025-12-19 11:00 5.74 36 1390 (1925) 1 (1964) 175 5 8 16 21 73 208 242 446 804
2025-12-19 10:30 5.80 42 1390 (1925) 1 (1964) 175 5 8 16 21 73 208 242 446 804
2025-12-19 10:00 5.76 38 1390 (1925) 1 (1964) 175 5 8 16 21 73 208 242 446 804
2025-12-19 09:30 5.75 37 1390 (1925) 1 (1964) 175 5 8 16 21 73 208 242 446 804
2025-12-19 09:00 5.74 36 1390 (1925) 1 (1964) 175 5 8 16 21 73 208 242 446 804
2025-12-19 08:30 5.76 38 1390 (1925) 1 (1964) 175 5 8 16 21 73 208 242 446 804
2025-12-19 08:00 5.80 42 1390 (1925) 1 (1964) 175 5 8 16 21 73 208 242 446 804
2025-12-19 07:30 5.78 29 1390 (1925) 1 (1964) 175 5 8 16 21 73 208 242 446 804
2025-12-19 07:00 5.78 29 1390 (1925) 1 (1964) 175 5 8 16 21 73 208 242 446 804
2025-12-19 06:30 5.76 28 1390 (1925) 1 (1964) 175 5 8 16 21 73 208 242 446 804
2025-12-19 06:00 5.77 29 1390 (1925) 1 (1964) 175 5 8 16 21 73 208 242 446 804
2025-12-19 05:30 5.76 28 1390 (1925) 1 (1964) 175 5 8 16 21 73 208 242 446 804
2025-12-19 05:00 5.77 29 1390 (1925) 1 (1964) 175 5 8 16 21 73 208 242 446 804
2025-12-19 04:30 5.78 29 1390 (1925) 1 (1964) 175 5 8 16 21 73 208 242 446 804
2025-12-19 04:00 5.79 30 1390 (1925) 1 (1964) 175 5 8 16 21 73 208 242 446 804
2025-12-19 03:30 5.78 29 1390 (1925) 1 (1964) 175 5 8 16 21 73 208 242 446 804
2025-12-19 03:00 5.77 29 1390 (1925) 1 (1964) 175 5 8 16 21 73 208 242 446 804
2025-12-19 02:30 5.75 27 1390 (1925) 1 (1964) 175 5 8 16 21 73 208 242 446 804
2025-12-19 02:00 5.79 30 1390 (1925) 1 (1964) 175 5 8 16 21 73 208 242 446 804
2025-12-19 01:30 5.76 28 1390 (1925) 1 (1964) 175 5 8 16 21 73 208 242 446 804
2025-12-19 01:00 28 1390 (1925) 1 (1964) 175 5 8 16 21 73 208 242 446 804
2025-12-19 00:30 5.75 27 1390 (1925) 1 (1964) 175 5 8 16 21 73 208 242 446 804
2025-12-19 00:00 27 1390 (1925) 1 (1964) 175 5 8 16 21 73 208 242 446 804
2025-12-18 23:30 5.76 28 1390 (1925) 1 (1964) 175 5 8 16 21 73 208 242 446 804
2025-12-18 23:00 5.75 27 1390 (1925) 1 (1964) 175 5 8 16 21 73 208 242 446 804
2025-12-18 22:30 5.77 29 4510 (1925) 1 (1964) 239 4 7 13 20 66 229 293 443 1100
2025-12-18 22:00 5.77 29 4510 (1925) 1 (1964) 239 4 7 13 20 66 229 293 443 1100
2025-12-18 21:30 5.77 29 4510 (1925) 1 (1964) 239 4 7 13 20 66 229 293 443 1100
2025-12-18 21:00 5.78 29 4510 (1925) 1 (1964) 239 4 7 13 20 66 229 293 443 1100
2025-12-18 20:30 5.78 29 4510 (1925) 1 (1964) 239 4 7 13 20 66 229 293 443 1100
2025-12-18 20:00 5.78 29 4510 (1925) 1 (1964) 239 4 7 13 20 66 229 293 443 1100
2025-12-18 19:30 5.80 31 4510 (1925) 1 (1964) 239 4 7 13 20 66 229 293 443 1100
2025-12-18 19:00 5.79 30 4510 (1925) 1 (1964) 239 4 7 13 20 66 229 293 443 1100
2025-12-18 18:30 5.79 30 4510 (1925) 1 (1964) 239 4 7 13 20 66 229 293 443 1100
2025-12-18 18:00 5.77 29 4510 (1925) 1 (1964) 239 4 7 13 20 66 229 293 443 1100
2025-12-18 17:30 5.78 29 4510 (1925) 1 (1964) 239 4 7 13 20 66 229 293 443 1100
2025-12-18 17:00 5.84 35 4510 (1925) 1 (1964) 239 4 7 13 20 66 229 293 443 1100
2025-12-18 16:30 5.84 35 4510 (1925) 1 (1964) 239 4 7 13 20 66 229 293 443 1100
2025-12-18 16:00 5.84 35 4510 (1925) 1 (1964) 239 4 7 13 20 66 229 293 443 1100
2025-12-18 15:30 5.84 35 4510 (1925) 1 (1964) 239 4 7 13 20 66 229 293 443 1100
2025-12-18 15:00 35 4510 (1925) 1 (1964) 239 4 7 13 20 66 229 293 443 1100
2025-12-18 14:30 5.84 35 4510 (1925) 1 (1964) 239 4 7 13 20 66 229 293 443 1100
2025-12-18 14:00 5.84 35 4510 (1925) 1 (1964) 239 4 7 13 20 66 229 293 443 1100
2025-12-18 13:30 5.84 35 4510 (1925) 1 (1964) 239 4 7 13 20 66 229 293 443 1100
2025-12-18 13:00 32 4510 (1925) 1 (1964) 239 4 7 13 20 66 229 293 443 1100
2025-12-18 12:30 5.83 34 4510 (1925) 1 (1964) 239 4 7 13 20 66 229 293 443 1100
2025-12-18 12:00 5.81 32 4510 (1925) 1 (1964) 239 4 7 13 20 66 229 293 443 1100
2025-12-18 11:30 5.80 31 4510 (1925) 1 (1964) 239 4 7 13 20 66 229 293 443 1100
2025-12-18 11:00 5.77 29 4510 (1925) 1 (1964) 239 4 7 13 20 66 229 293 443 1100
2025-12-18 10:30 5.74 26 4510 (1925) 1 (1964) 239 4 7 13 20 66 229 293 443 1100
2025-12-18 10:00 5.81 32 4510 (1925) 1 (1964) 239 4 7 13 20 66 229 293 443 1100
2025-12-18 09:30 5.78 29 4510 (1925) 1 (1964) 239 4 7 13 20 66 229 293 443 1100
2025-12-18 09:00 5.81 32 4510 (1925) 1 (1964) 239 4 7 13 20 66 229 293 443 1100
2025-12-18 08:30 5.81 32 4510 (1925) 1 (1964) 239 4 7 13 20 66 229 293 443 1100
2025-12-18 08:00 5.81 32 4510 (1925) 1 (1964) 239 4 7 13 20 66 229 293 443 1100
2025-12-18 07:30 5.81 32 4510 (1925) 1 (1964) 239 4 7 13 20 66 229 293 443 1100
2025-12-18 07:00 5.82 33 4510 (1925) 1 (1964) 239 4 7 13 20 66 229 293 443 1100
2025-12-18 06:30 5.82 33 4510 (1925) 1 (1964) 239 4 7 13 20 66 229 293 443 1100
2025-12-18 06:00 5.82 33 4510 (1925) 1 (1964) 239 4 7 13 20 66 229 293 443 1100
2025-12-18 05:30 5.82 33 4510 (1925) 1 (1964) 239 4 7 13 20 66 229 293 443 1100
2025-12-18 05:00 5.82 33 4510 (1925) 1 (1964) 239 4 7 13 20 66 229 293 443 1100
2025-12-18 04:30 5.82 33 4510 (1925) 1 (1964) 239 4 7 13 20 66 229 293 443 1100
2025-12-18 04:00 5.82 33 4510 (1925) 1 (1964) 239 4 7 13 20 66 229 293 443 1100
2025-12-18 03:30 5.82 33 4510 (1925) 1 (1964) 239 4 7 13 20 66 229 293 443 1100
2025-12-18 03:00 5.82 33 4510 (1925) 1 (1964) 239 4 7 13 20 66 229 293 443 1100
2025-12-18 02:30 5.82 33 4510 (1925) 1 (1964) 239 4 7 13 20 66 229 293 443 1100
2025-12-18 02:00 5.82 33 4510 (1925) 1 (1964) 239 4 7 13 20 66 229 293 443 1100
2025-12-18 01:30 5.82 33 4510 (1925) 1 (1964) 239 4 7 13 20 66 229 293 443 1100
2025-12-18 01:00 5.82 33 4510 (1925) 1 (1964) 239 4 7 13 20 66 229 293 443 1100
2025-12-18 00:30 5.82 33 4510 (1925) 1 (1964) 239 4 7 13 20 66 229 293 443 1100
2025-12-18 00:00 5.82 33 4510 (1925) 1 (1964) 239 4 7 13 20 66 229 293 443 1100
2025-12-17 23:30 5.83 34 4510 (1925) 1 (1964) 239 4 7 13 20 66 229 293 443 1100
2025-12-17 23:00 34 4510 (1925) 1 (1964) 239 4 7 13 20 66 229 293 443 1100
2025-12-17 22:30 5.83 34 6610 (1929) 1 (1964) 338 5 7 12 19 69 206 284 567 1050
2025-12-17 22:00 5.83 34 6610 (1929) 1 (1964) 338 5 7 12 19 69 206 284 567 1050
2025-12-17 21:30 5.84 35 6610 (1929) 1 (1964) 338 5 7 12 19 69 206 284 567 1050
2025-12-17 21:00 5.82 33 6610 (1929) 1 (1964) 338 5 7 12 19 69 206 284 567 1050
2025-12-17 20:30 5.81 32 6610 (1929) 1 (1964) 338 5 7 12 19 69 206 284 567 1050
2025-12-17 20:00 5.82 33 6610 (1929) 1 (1964) 338 5 7 12 19 69 206 284 567 1050
2025-12-17 19:30 5.82 33 6610 (1929) 1 (1964) 338 5 7 12 19 69 206 284 567 1050
2025-12-17 19:00 5.90 41 6610 (1929) 1 (1964) 338 5 7 12 19 69 206 284 567 1050
2025-12-17 18:30 5.85 36 6610 (1929) 1 (1964) 338 5 7 12 19 69 206 284 567 1050
2025-12-17 18:00 5.83 34 6610 (1929) 1 (1964) 338 5 7 12 19 69 206 284 567 1050
2025-12-17 17:30 5.82 33 6610 (1929) 1 (1964) 338 5 7 12 19 69 206 284 567 1050
2025-12-17 17:00 5.83 34 6610 (1929) 1 (1964) 338 5 7 12 19 69 206 284 567 1050
2025-12-17 16:30 5.84 35 6610 (1929) 1 (1964) 338 5 7 12 19 69 206 284 567 1050
2025-12-17 16:00 5.85 36 6610 (1929) 1 (1964) 338 5 7 12 19 69 206 284 567 1050
2025-12-17 15:30 35 6610 (1929) 1 (1964) 338 5 7 12 19 69 206 284 567 1050
2025-12-17 15:00 5.84 35 6610 (1929) 1 (1964) 338 5 7 12 19 69 206 284 567 1050
2025-12-17 14:30 5.84 35 6610 (1929) 1 (1964) 338 5 7 12 19 69 206 284 567 1050
2025-12-17 14:00 5.85 36 6610 (1929) 1 (1964) 338 5 7 12 19 69 206 284 567 1050
2025-12-17 13:30 5.84 35 6610 (1929) 1 (1964) 338 5 7 12 19 69 206 284 567 1050
2025-12-17 13:00 34 6610 (1929) 1 (1964) 338 5 7 12 19 69 206 284 567 1050
2025-12-17 12:30 5.84 35 6610 (1929) 1 (1964) 338 5 7 12 19 69 206 284 567 1050
2025-12-17 12:00 36 6610 (1929) 1 (1964) 338 5 7 12 19 69 206 284 567 1050
2025-12-17 11:30 5.86 37 6610 (1929) 1 (1964) 338 5 7 12 19 69 206 284 567 1050
2025-12-17 11:00 5.86 37 6610 (1929) 1 (1964) 338 5 7 12 19 69 206 284 567 1050
2025-12-17 10:30 5.82 33 6610 (1929) 1 (1964) 338 5 7 12 19 69 206 284 567 1050
2025-12-17 10:00 5.80 31 6610 (1929) 1 (1964) 338 5 7 12 19 69 206 284 567 1050
2025-12-17 09:30 5.79 30 6610 (1929) 1 (1964) 338 5 7 12 19 69 206 284 567 1050
2025-12-17 09:00 5.79 30 6610 (1929) 1 (1964) 338 5 7 12 19 69 206 284 567 1050
2025-12-17 08:30 5.77 29 6610 (1929) 1 (1964) 338 5 7 12 19 69 206 284 567 1050
2025-12-17 08:00 5.73 25 6610 (1929) 1 (1964) 338 5 7 12 19 69 206 284 567 1050
2025-12-17 07:30 5.69 22 6610 (1929) 1 (1964) 338 5 7 12 19 69 206 284 567 1050
2025-12-17 07:00 5.65 19 6610 (1929) 1 (1964) 338 5 7 12 19 69 206 284 567 1050
2025-12-17 06:30 5.67 21 6610 (1929) 1 (1964) 338 5 7 12 19 69 206 284 567 1050
2025-12-17 06:00 5.72 24 6610 (1929) 1 (1964) 338 5 7 12 19 69 206 284 567 1050
2025-12-17 05:30 5.75 27 6610 (1929) 1 (1964) 338 5 7 12 19 69 206 284 567 1050
2025-12-17 05:00 5.76 28 6610 (1929) 1 (1964) 338 5 7 12 19 69 206 284 567 1050
2025-12-17 04:30 5.77 29 6610 (1929) 1 (1964) 338 5 7 12 19 69 206 284 567 1050
2025-12-17 04:00 5.78 29 6610 (1929) 1 (1964) 338 5 7 12 19 69 206 284 567 1050
2025-12-17 03:30 5.78 29 6610 (1929) 1 (1964) 338 5 7 12 19 69 206 284 567 1050
2025-12-17 03:00 5.79 30 6610 (1929) 1 (1964) 338 5 7 12 19 69 206 284 567 1050
2025-12-17 02:30 5.80 31 6610 (1929) 1 (1964) 338 5 7 12 19 69 206 284 567 1050
2025-12-17 02:00 5.91 42 6610 (1929) 1 (1964) 338 5 7 12 19 69 206 284 567 1050
2025-12-17 01:30 5.83 34 6610 (1929) 1 (1964) 338 5 7 12 19 69 206 284 567 1050
2025-12-17 01:00 5.82 33 6610 (1929) 1 (1964) 338 5 7 12 19 69 206 284 567 1050
2025-12-17 00:30 5.82 33 6610 (1929) 1 (1964) 338 5 7 12 19 69 206 284 567 1050
2025-12-17 00:00 5.82 33 6610 (1929) 1 (1964) 338 5 7 12 19 69 206 284 567 1050
2025-12-16 23:30 5.83 34 6610 (1929) 1 (1964) 338 5 7 12 19 69 206 284 567 1050
2025-12-16 23:00 37 6610 (1929) 1 (1964) 338 5 7 12 19 69 206 284 567 1050
2025-12-16 22:30 5.89 40 17800 (1993) 1 (1964) 409 5 7 14 19 55 204 277 707 1680
2025-12-16 22:00 5.92 43 17800 (1993) 1 (1964) 409 5 7 14 19 55 204 277 707 1680
2025-12-16 21:30 5.89 40 17800 (1993) 1 (1964) 409 5 7 14 19 55 204 277 707 1680
2025-12-16 21:00 5.85 36 17800 (1993) 1 (1964) 409 5 7 14 19 55 204 277 707 1680
2025-12-16 20:30 5.84 35 17800 (1993) 1 (1964) 409 5 7 14 19 55 204 277 707 1680
2025-12-16 20:00 35 17800 (1993) 1 (1964) 409 5 7 14 19 55 204 277 707 1680
2025-12-16 19:30 5.87 38 17800 (1993) 1 (1964) 409 5 7 14 19 55 204 277 707 1680
2025-12-16 19:00 39 17800 (1993) 1 (1964) 409 5 7 14 19 55 204 277 707 1680
2025-12-16 18:30 5.89 40 17800 (1993) 1 (1964) 409 5 7 14 19 55 204 277 707 1680
2025-12-16 18:00 5.89 40 17800 (1993) 1 (1964) 409 5 7 14 19 55 204 277 707 1680
2025-12-16 17:30 5.88 39 17800 (1993) 1 (1964) 409 5 7 14 19 55 204 277 707 1680
2025-12-16 17:00 5.88 39 17800 (1993) 1 (1964) 409 5 7 14 19 55 204 277 707 1680
2025-12-16 16:30 5.88 39 17800 (1993) 1 (1964) 409 5 7 14 19 55 204 277 707 1680
2025-12-16 16:00 5.88 39 17800 (1993) 1 (1964) 409 5 7 14 19 55 204 277 707 1680
2025-12-16 15:30 5.88 39 17800 (1993) 1 (1964) 409 5 7 14 19 55 204 277 707 1680
2025-12-16 15:00 5.88 39 17800 (1993) 1 (1964) 409 5 7 14 19 55 204 277 707 1680
2025-12-16 14:30 40 17800 (1993) 1 (1964) 409 5 7 14 19 55 204 277 707 1680
2025-12-16 14:00 5.89 40 17800 (1993) 1 (1964) 409 5 7 14 19 55 204 277 707 1680
2025-12-16 13:30 5.89 40 17800 (1993) 1 (1964) 409 5 7 14 19 55 204 277 707 1680
2025-12-16 13:00 40 17800 (1993) 1 (1964) 409 5 7 14 19 55 204 277 707 1680
2025-12-16 12:30 5.90 41 17800 (1993) 1 (1964) 409 5 7 14 19 55 204 277 707 1680
2025-12-16 12:00 5.90 41 17800 (1993) 1 (1964) 409 5 7 14 19 55 204 277 707 1680
2025-12-16 11:30 5.90 41 17800 (1993) 1 (1964) 409 5 7 14 19 55 204 277 707 1680
2025-12-16 11:00 5.92 43 17800 (1993) 1 (1964) 409 5 7 14 19 55 204 277 707 1680
2025-12-16 10:30 5.85 36 17800 (1993) 1 (1964) 409 5 7 14 19 55 204 277 707 1680
2025-12-16 10:00 5.66 20 17800 (1993) 1 (1964) 409 5 7 14 19 55 204 277 707 1680
2025-12-16 09:30 5.67 21 17800 (1993) 1 (1964) 409 5 7 14 19 55 204 277 707 1680
2025-12-16 09:00 5.68 21 17800 (1993) 1 (1964) 409 5 7 14 19 55 204 277 707 1680
2025-12-16 08:30 5.65 19 17800 (1993) 1 (1964) 409 5 7 14 19 55 204 277 707 1680
2025-12-16 08:00 5.61 17 17800 (1993) 1 (1964) 409 5 7 14 19 55 204 277 707 1680
2025-12-16 07:30 5.57 15 17800 (1993) 1 (1964) 409 5 7 14 19 55 204 277 707 1680
2025-12-16 07:00 5.58 15 17800 (1993) 1 (1964) 409 5 7 14 19 55 204 277 707 1680
2025-12-16 06:30 5.62 18 17800 (1993) 1 (1964) 409 5 7 14 19 55 204 277 707 1680
2025-12-16 06:00 5.66 20 17800 (1993) 1 (1964) 409 5 7 14 19 55 204 277 707 1680
2025-12-16 05:30 5.71 24 17800 (1993) 1 (1964) 409 5 7 14 19 55 204 277 707 1680
2025-12-16 05:00 5.73 25 17800 (1993) 1 (1964) 409 5 7 14 19 55 204 277 707 1680
2025-12-16 04:30 5.75 27 17800 (1993) 1 (1964) 409 5 7 14 19 55 204 277 707 1680
2025-12-16 04:00 5.76 28 17800 (1993) 1 (1964) 409 5 7 14 19 55 204 277 707 1680
2025-12-16 03:30 5.78 29 17800 (1993) 1 (1964) 409 5 7 14 19 55 204 277 707 1680
2025-12-16 03:00 5.78 29 17800 (1993) 1 (1964) 409 5 7 14 19 55 204 277 707 1680
2025-12-16 02:30 5.78 29 17800 (1993) 1 (1964) 409 5 7 14 19 55 204 277 707 1680
2025-12-16 02:00 29 17800 (1993) 1 (1964) 409 5 7 14 19 55 204 277 707 1680
2025-12-16 01:30 5.79 30 17800 (1993) 1 (1964) 409 5 7 14 19 55 204 277 707 1680
2025-12-16 01:00 5.78 29 17800 (1993) 1 (1964) 409 5 7 14 19 55 204 277 707 1680
2025-12-16 00:30 5.79 30 17800 (1993) 1 (1964) 409 5 7 14 19 55 204 277 707 1680
2025-12-16 00:00 5.79 30 17800 (1993) 1 (1964) 409 5 7 14 19 55 204 277 707 1680
2025-12-15 23:30 30 17800 (1993) 1 (1964) 409 5 7 14 19 55 204 277 707 1680
2025-12-15 23:00 5.79 30 17800 (1993) 1 (1964) 409 5 7 14 19 55 204 277 707 1680
2025-12-15 22:30 5.80 31 6830 (2025) 1 (1964) 402 5 7 13 16 49 241 343 793 2530
2025-12-15 22:00 5.80 31 6830 (2025) 1 (1964) 402 5 7 13 16 49 241 343 793 2530
2025-12-15 21:30 5.81 32 6830 (2025) 1 (1964) 402 5 7 13 16 49 241 343 793 2530
2025-12-15 21:00 5.81 32 6830 (2025) 1 (1964) 402 5 7 13 16 49 241 343 793 2530
2025-12-15 20:30 5.81 32 6830 (2025) 1 (1964) 402 5 7 13 16 49 241 343 793 2530
2025-12-15 20:00 5.81 32 6830 (2025) 1 (1964) 402 5 7 13 16 49 241 343 793 2530
2025-12-15 19:30 5.81 32 6830 (2025) 1 (1964) 402 5 7 13 16 49 241 343 793 2530
2025-12-15 19:00 5.80 31 6830 (2025) 1 (1964) 402 5 7 13 16 49 241 343 793 2530
2025-12-15 18:30 5.79 30 6830 (2025) 1 (1964) 402 5 7 13 16 49 241 343 793 2530
2025-12-15 18:00 5.79 30 6830 (2025) 1 (1964) 402 5 7 13 16 49 241 343 793 2530
2025-12-15 17:30 5.78 29 6830 (2025) 1 (1964) 402 5 7 13 16 49 241 343 793 2530
2025-12-15 17:00 5.76 28 6830 (2025) 1 (1964) 402 5 7 13 16 49 241 343 793 2530
2025-12-15 16:30 6.13 72 6830 (2025) 1 (1964) 402 5 7 13 16 49 241 343 793 2530
2025-12-15 16:00 5.98 51 6830 (2025) 1 (1964) 402 5 7 13 16 49 241 343 793 2530
2025-12-15 15:30 5.96 48 6830 (2025) 1 (1964) 402 5 7 13 16 49 241 343 793 2530
2025-12-15 15:00 5.94 46 6830 (2025) 1 (1964) 402 5 7 13 16 49 241 343 793 2530
2025-12-15 14:30 5.91 42 6830 (2025) 1 (1964) 402 5 7 13 16 49 241 343 793 2530
2025-12-15 14:00 31 6830 (2025) 1 (1964) 402 5 7 13 16 49 241 343 793 2530
2025-12-15 13:30 29 6830 (2025) 1 (1964) 402 5 7 13 16 49 241 343 793 2530
2025-12-15 13:00 5.77 29 6830 (2025) 1 (1964) 402 5 7 13 16 49 241 343 793 2530
2025-12-15 12:30 5.77 29 6830 (2025) 1 (1964) 402 5 7 13 16 49 241 343 793 2530
2025-12-15 12:00 5.78 29 6830 (2025) 1 (1964) 402 5 7 13 16 49 241 343 793 2530
2025-12-15 11:30 5.73 25 6830 (2025) 1 (1964) 402 5 7 13 16 49 241 343 793 2530
2025-12-15 11:00 5.67 21 6830 (2025) 1 (1964) 402 5 7 13 16 49 241 343 793 2530
2025-12-15 10:30 22 6830 (2025) 1 (1964) 402 5 7 13 16 49 241 343 793 2530
2025-12-15 10:00 5.73 25 6830 (2025) 1 (1964) 402 5 7 13 16 49 241 343 793 2530
2025-12-15 09:30 5.79 30 6830 (2025) 1 (1964) 402 5 7 13 16 49 241 343 793 2530
2025-12-15 09:00 5.82 33 6830 (2025) 1 (1964) 402 5 7 13 16 49 241 343 793 2530
2025-12-15 08:30 5.84 35 6830 (2025) 1 (1964) 402 5 7 13 16 49 241 343 793 2530
2025-12-15 08:00 5.81 32 6830 (2025) 1 (1964) 402 5 7 13 16 49 241 343 793 2530
2025-12-15 07:30 5.69 22 6830 (2025) 1 (1964) 402 5 7 13 16 49 241 343 793 2530
2025-12-15 07:00 5.72 24 6830 (2025) 1 (1964) 402 5 7 13 16 49 241 343 793 2530
2025-12-15 06:30 5.83 34 6830 (2025) 1 (1964) 402 5 7 13 16 49 241 343 793 2530
2025-12-15 06:00 5.87 38 6830 (2025) 1 (1964) 402 5 7 13 16 49 241 343 793 2530
2025-12-15 05:30 5.87 38 6830 (2025) 1 (1964) 402 5 7 13 16 49 241 343 793 2530
2025-12-15 05:00 5.81 32 6830 (2025) 1 (1964) 402 5 7 13 16 49 241 343 793 2530
2025-12-15 04:30 5.66 20 6830 (2025) 1 (1964) 402 5 7 13 16 49 241 343 793 2530
2025-12-15 04:00 5.82 33 6830 (2025) 1 (1964) 402 5 7 13 16 49 241 343 793 2530
2025-12-15 03:30 5.89 40 6830 (2025) 1 (1964) 402 5 7 13 16 49 241 343 793 2530
2025-12-15 03:00 5.91 42 6830 (2025) 1 (1964) 402 5 7 13 16 49 241 343 793 2530
2025-12-15 02:30 5.90 41 6830 (2025) 1 (1964) 402 5 7 13 16 49 241 343 793 2530
2025-12-15 02:00 5.84 35 6830 (2025) 1 (1964) 402 5 7 13 16 49 241 343 793 2530
2025-12-15 01:30 5.66 20 6830 (2025) 1 (1964) 402 5 7 13 16 49 241 343 793 2530
2025-12-15 01:00 5.80 31 6830 (2025) 1 (1964) 402 5 7 13 16 49 241 343 793 2530
2025-12-15 00:30 5.89 40 6830 (2025) 1 (1964) 402 5 7 13 16 49 241 343 793 2530
2025-12-15 00:00 5.92 43 6830 (2025) 1 (1964) 402 5 7 13 16 49 241 343 793 2530
2025-12-14 23:30 5.94 46 6830 (2025) 1 (1964) 402 5 7 13 16 49 241 343 793 2530
2025-12-14 23:00 5.93 45 6830 (2025) 1 (1964) 402 5 7 13 16 49 241 343 793 2530
2025-12-14 22:30 5.88 39 11800 (2016) 1 (1964) 442 5 7 10 17 56 243 370 888 2210
2025-12-14 22:00 5.76 28 11800 (2016) 1 (1964) 442 5 7 10 17 56 243 370 888 2210
2025-12-14 21:30 5.75 27 11800 (2016) 1 (1964) 442 5 7 10 17 56 243 370 888 2210
2025-12-14 21:00 5.89 40 11800 (2016) 1 (1964) 442 5 7 10 17 56 243 370 888 2210
2025-12-14 20:30 5.95 47 11800 (2016) 1 (1964) 442 5 7 10 17 56 243 370 888 2210
2025-12-14 20:00 5.98 51 11800 (2016) 1 (1964) 442 5 7 10 17 56 243 370 888 2210
2025-12-14 19:30 5.98 51 11800 (2016) 1 (1964) 442 5 7 10 17 56 243 370 888 2210
2025-12-14 19:00 5.94 46 11800 (2016) 1 (1964) 442 5 7 10 17 56 243 370 888 2210
2025-12-14 18:30 5.91 42 11800 (2016) 1 (1964) 442 5 7 10 17 56 243 370 888 2210
2025-12-14 18:00 5.84 35 11800 (2016) 1 (1964) 442 5 7 10 17 56 243 370 888 2210
2025-12-14 17:30 5.70 23 11800 (2016) 1 (1964) 442 5 7 10 17 56 243 370 888 2210
2025-12-14 17:00 5.88 39 11800 (2016) 1 (1964) 442 5 7 10 17 56 243 370 888 2210
2025-12-14 16:30 5.94 46 11800 (2016) 1 (1964) 442 5 7 10 17 56 243 370 888 2210
2025-12-14 16:00 5.97 49 11800 (2016) 1 (1964) 442 5 7 10 17 56 243 370 888 2210
2025-12-14 15:30 5.99 52 11800 (2016) 1 (1964) 442 5 7 10 17 56 243 370 888 2210
2025-12-14 15:00 5.99 52 11800 (2016) 1 (1964) 442 5 7 10 17 56 243 370 888 2210
2025-12-14 14:30 6.00 53 11800 (2016) 1 (1964) 442 5 7 10 17 56 243 370 888 2210
2025-12-14 14:00 6.01 55 11800 (2016) 1 (1964) 442 5 7 10 17 56 243 370 888 2210
2025-12-14 13:30 5.99 52 11800 (2016) 1 (1964) 442 5 7 10 17 56 243 370 888 2210
2025-12-14 13:00 5.87 38 11800 (2016) 1 (1964) 442 5 7 10 17 56 243 370 888 2210
2025-12-14 12:30 5.96 48 11800 (2016) 1 (1964) 442 5 7 10 17 56 243 370 888 2210
2025-12-14 12:00 6.04 59 11800 (2016) 1 (1964) 442 5 7 10 17 56 243 370 888 2210
2025-12-14 11:30 6.04 59 11800 (2016) 1 (1964) 442 5 7 10 17 56 243 370 888 2210
2025-12-14 11:00 6.03 57 11800 (2016) 1 (1964) 442 5 7 10 17 56 243 370 888 2210
2025-12-14 10:30 5.96 48 11800 (2016) 1 (1964) 442 5 7 10 17 56 243 370 888 2210
2025-12-14 10:00 5.92 43 11800 (2016) 1 (1964) 442 5 7 10 17 56 243 370 888 2210
2025-12-14 09:30 6.03 57 11800 (2016) 1 (1964) 442 5 7 10 17 56 243 370 888 2210
2025-12-14 09:00 6.03 57 11800 (2016) 1 (1964) 442 5 7 10 17 56 243 370 888 2210
2025-12-14 08:30 5.95 47 11800 (2016) 1 (1964) 442 5 7 10 17 56 243 370 888 2210
2025-12-14 08:00 6.04 59 11800 (2016) 1 (1964) 442 5 7 10 17 56 243 370 888 2210
2025-12-14 07:30 6.07 63 11800 (2016) 1 (1964) 442 5 7 10 17 56 243 370 888 2210
2025-12-14 07:00 5.98 51 11800 (2016) 1 (1964) 442 5 7 10 17 56 243 370 888 2210
2025-12-14 06:30 6.10 68 11800 (2016) 1 (1964) 442 5 7 10 17 56 243 370 888 2210
2025-12-14 06:00 6.10 68 11800 (2016) 1 (1964) 442 5 7 10 17 56 243 370 888 2210
2025-12-14 05:30 6.06 62 11800 (2016) 1 (1964) 442 5 7 10 17 56 243 370 888 2210
2025-12-14 05:00 6.14 74 11800 (2016) 1 (1964) 442 5 7 10 17 56 243 370 888 2210
2025-12-14 04:30 6.13 72 11800 (2016) 1 (1964) 442 5 7 10 17 56 243 370 888 2210
2025-12-14 04:00 6.12 71 11800 (2016) 1 (1964) 442 5 7 10 17 56 243 370 888 2210
2025-12-14 03:30 6.17 79 11800 (2016) 1 (1964) 442 5 7 10 17 56 243 370 888 2210
2025-12-14 03:00 6.17 79 11800 (2016) 1 (1964) 442 5 7 10 17 56 243 370 888 2210
2025-12-14 02:30 6.14 74 11800 (2016) 1 (1964) 442 5 7 10 17 56 243 370 888 2210
2025-12-14 02:00 83 11800 (2016) 1 (1964) 442 5 7 10 17 56 243 370 888 2210
2025-12-14 01:30 6.20 84 11800 (2016) 1 (1964) 442 5 7 10 17 56 243 370 888 2210
2025-12-14 01:00 6.20 84 11800 (2016) 1 (1964) 442 5 7 10 17 56 243 370 888 2210
2025-12-14 00:30 6.20 84 11800 (2016) 1 (1964) 442 5 7 10 17 56 243 370 888 2210
2025-12-14 00:00 6.22 88 11800 (2016) 1 (1964) 442 5 7 10 17 56 243 370 888 2210
2025-12-13 23:30 6.23 90 11800 (2016) 1 (1964) 442 5 7 10 17 56 243 370 888 2210
2025-12-13 23:00 88 11800 (2016) 1 (1964) 442 5 7 10 17 56 243 370 888 2210
2025-12-13 22:30 6.21 86 19000 (1924) 1 (1964) 410 5 7 11 17 51 200 287 719 1540
2025-12-13 22:00 90 19000 (1924) 1 (1964) 410 5 7 11 17 51 200 287 719 1540
2025-12-13 21:30 6.24 92 19000 (1924) 1 (1964) 410 5 7 11 17 51 200 287 719 1540
2025-12-13 21:00 6.25 94 19000 (1924) 1 (1964) 410 5 7 11 17 51 200 287 719 1540
2025-12-13 20:30 6.25 94 19000 (1924) 1 (1964) 410 5 7 11 17 51 200 287 719 1540
2025-12-13 20:00 6.26 96 19000 (1924) 1 (1964) 410 5 7 11 17 51 200 287 719 1540
2025-12-13 19:30 6.26 96 19000 (1924) 1 (1964) 410 5 7 11 17 51 200 287 719 1540
2025-12-13 19:00 6.24 92 19000 (1924) 1 (1964) 410 5 7 11 17 51 200 287 719 1540
2025-12-13 18:30 6.24 92 19000 (1924) 1 (1964) 410 5 7 11 17 51 200 287 719 1540
2025-12-13 18:00 6.27 98 19000 (1924) 1 (1964) 410 5 7 11 17 51 200 287 719 1540
2025-12-13 17:30 6.28 100 19000 (1924) 1 (1964) 410 5 7 11 17 51 200 287 719 1540
2025-12-13 17:00 6.28 100 19000 (1924) 1 (1964) 410 5 7 11 17 51 200 287 719 1540
2025-12-13 16:30 6.29 102 19000 (1924) 1 (1964) 410 5 7 11 17 51 200 287 719 1540
2025-12-13 16:00 6.27 98 19000 (1924) 1 (1964) 410 5 7 11 17 51 200 287 719 1540
2025-12-13 15:30 6.29 102 19000 (1924) 1 (1964) 410 5 7 11 17 51 200 287 719 1540
2025-12-13 15:00 6.29 102 19000 (1924) 1 (1964) 410 5 7 11 17 51 200 287 719 1540
2025-12-13 14:30 6.30 104 19000 (1924) 1 (1964) 410 5 7 11 17 51 200 287 719 1540
2025-12-13 14:00 6.31 106 19000 (1924) 1 (1964) 410 5 7 11 17 51 200 287 719 1540
2025-12-13 13:30 6.31 106 19000 (1924) 1 (1964) 410 5 7 11 17 51 200 287 719 1540
2025-12-13 13:00 6.32 108 19000 (1924) 1 (1964) 410 5 7 11 17 51 200 287 719 1540
2025-12-13 12:30 6.32 108 19000 (1924) 1 (1964) 410 5 7 11 17 51 200 287 719 1540
2025-12-13 12:00 6.33 110 19000 (1924) 1 (1964) 410 5 7 11 17 51 200 287 719 1540
2025-12-13 11:30 6.33 110 19000 (1924) 1 (1964) 410 5 7 11 17 51 200 287 719 1540
2025-12-13 11:00 6.34 112 19000 (1924) 1 (1964) 410 5 7 11 17 51 200 287 719 1540
2025-12-13 10:30 6.34 112 19000 (1924) 1 (1964) 410 5 7 11 17 51 200 287 719 1540
2025-12-13 10:00 6.33 110 19000 (1924) 1 (1964) 410 5 7 11 17 51 200 287 719 1540
2025-12-13 09:30 6.33 110 19000 (1924) 1 (1964) 410 5 7 11 17 51 200 287 719 1540
2025-12-13 09:00 6.35 114 19000 (1924) 1 (1964) 410 5 7 11 17 51 200 287 719 1540
2025-12-13 08:30 6.36 117 19000 (1924) 1 (1964) 410 5 7 11 17 51 200 287 719 1540
2025-12-13 08:00 6.36 117 19000 (1924) 1 (1964) 410 5 7 11 17 51 200 287 719 1540
2025-12-13 07:30 6.37 119 19000 (1924) 1 (1964) 410 5 7 11 17 51 200 287 719 1540
2025-12-13 07:00 6.37 119 19000 (1924) 1 (1964) 410 5 7 11 17 51 200 287 719 1540
2025-12-13 06:30 6.37 119 19000 (1924) 1 (1964) 410 5 7 11 17 51 200 287 719 1540
2025-12-13 06:00 6.38 121 19000 (1924) 1 (1964) 410 5 7 11 17 51 200 287 719 1540
2025-12-13 05:30 6.38 121 19000 (1924) 1 (1964) 410 5 7 11 17 51 200 287 719 1540
2025-12-13 05:00 6.39 123 19000 (1924) 1 (1964) 410 5 7 11 17 51 200 287 719 1540
2025-12-13 04:30 6.39 123 19000 (1924) 1 (1964) 410 5 7 11 17 51 200 287 719 1540
2025-12-13 04:00 6.39 123 19000 (1924) 1 (1964) 410 5 7 11 17 51 200 287 719 1540
2025-12-13 03:30 6.40 126 19000 (1924) 1 (1964) 410 5 7 11 17 51 200 287 719 1540
2025-12-13 03:00 6.40 126 19000 (1924) 1 (1964) 410 5 7 11 17 51 200 287 719 1540
2025-12-13 02:30 6.41 128 19000 (1924) 1 (1964) 410 5 7 11 17 51 200 287 719 1540
2025-12-13 02:00 6.41 128 19000 (1924) 1 (1964) 410 5 7 11 17 51 200 287 719 1540
2025-12-13 01:30 6.42 131 19000 (1924) 1 (1964) 410 5 7 11 17 51 200 287 719 1540
2025-12-13 01:00 131 19000 (1924) 1 (1964) 410 5 7 11 17 51 200 287 719 1540
2025-12-13 00:30 133 19000 (1924) 1 (1964) 410 5 7 11 17 51 200 287 719 1540
2025-12-13 00:00 6.43 133 19000 (1924) 1 (1964) 410 5 7 11 17 51 200 287 719 1540
2025-12-12 23:30 126 19000 (1924) 1 (1964) 410 5 7 11 17 51 200 287 719 1540
2025-12-12 23:00 136 19000 (1924) 1 (1964) 410 5 7 11 17 51 200 287 719 1540
2025-12-12 22:30 6.41 128 8350 (1986) 1 (1954) 323 5 7 11 17 49 152 265 597 1710
2025-12-12 22:00 6.45 138 8350 (1986) 1 (1954) 323 5 7 11 17 49 152 265 597 1710
2025-12-12 21:30 141 8350 (1986) 1 (1954) 323 5 7 11 17 49 152 265 597 1710
2025-12-12 21:00 6.47 143 8350 (1986) 1 (1954) 323 5 7 11 17 49 152 265 597 1710
2025-12-12 20:30 6.47 143 8350 (1986) 1 (1954) 323 5 7 11 17 49 152 265 597 1710
2025-12-12 20:00 6.46 141 8350 (1986) 1 (1954) 323 5 7 11 17 49 152 265 597 1710
2025-12-12 19:30 6.49 148 8350 (1986) 1 (1954) 323 5 7 11 17 49 152 265 597 1710
2025-12-12 19:00 6.49 148 8350 (1986) 1 (1954) 323 5 7 11 17 49 152 265 597 1710
2025-12-12 18:30 6.50 151 8350 (1986) 1 (1954) 323 5 7 11 17 49 152 265 597 1710
2025-12-12 18:00 6.51 154 8350 (1986) 1 (1954) 323 5 7 11 17 49 152 265 597 1710
2025-12-12 17:30 6.52 157 8350 (1986) 1 (1954) 323 5 7 11 17 49 152 265 597 1710
2025-12-12 17:00 6.52 157 8350 (1986) 1 (1954) 323 5 7 11 17 49 152 265 597 1710
2025-12-12 16:30 6.53 159 8350 (1986) 1 (1954) 323 5 7 11 17 49 152 265 597 1710
2025-12-12 16:00 6.54 162 8350 (1986) 1 (1954) 323 5 7 11 17 49 152 265 597 1710
2025-12-12 15:30 6.54 162 8350 (1986) 1 (1954) 323 5 7 11 17 49 152 265 597 1710
2025-12-12 15:00 6.55 165 8350 (1986) 1 (1954) 323 5 7 11 17 49 152 265 597 1710
2025-12-12 14:30 6.56 168 8350 (1986) 1 (1954) 323 5 7 11 17 49 152 265 597 1710
2025-12-12 14:00 6.56 168 8350 (1986) 1 (1954) 323 5 7 11 17 49 152 265 597 1710
2025-12-12 13:30 6.57 171 8350 (1986) 1 (1954) 323 5 7 11 17 49 152 265 597 1710
2025-12-12 13:00 6.57 171 8350 (1986) 1 (1954) 323 5 7 11 17 49 152 265 597 1710
2025-12-12 12:30 6.58 174 8350 (1986) 1 (1954) 323 5 7 11 17 49 152 265 597 1710
2025-12-12 12:00 6.59 177 8350 (1986) 1 (1954) 323 5 7 11 17 49 152 265 597 1710
2025-12-12 11:30 6.60 180 8350 (1986) 1 (1954) 323 5 7 11 17 49 152 265 597 1710
2025-12-12 11:00 6.61 183 8350 (1986) 1 (1954) 323 5 7 11 17 49 152 265 597 1710
2025-12-12 10:30 6.62 186 8350 (1986) 1 (1954) 323 5 7 11 17 49 152 265 597 1710
2025-12-12 10:00 6.63 189 8350 (1986) 1 (1954) 323 5 7 11 17 49 152 265 597 1710
2025-12-12 09:30 6.63 189 8350 (1986) 1 (1954) 323 5 7 11 17 49 152 265 597 1710
2025-12-12 09:00 6.64 192 8350 (1986) 1 (1954) 323 5 7 11 17 49 152 265 597 1710
2025-12-12 08:30 6.65 195 8350 (1986) 1 (1954) 323 5 7 11 17 49 152 265 597 1710
2025-12-12 08:00 6.66 199 8350 (1986) 1 (1954) 323 5 7 11 17 49 152 265 597 1710
2025-12-12 07:30 6.67 202 8350 (1986) 1 (1954) 323 5 7 11 17 49 152 265 597 1710
2025-12-12 07:00 6.68 205 8350 (1986) 1 (1954) 323 5 7 11 17 49 152 265 597 1710
2025-12-12 06:30 6.69 208 8350 (1986) 1 (1954) 323 5 7 11 17 49 152 265 597 1710
2025-12-12 06:00 6.70 212 8350 (1986) 1 (1954) 323 5 7 11 17 49 152 265 597 1710
2025-12-12 05:30 6.71 215 8350 (1986) 1 (1954) 323 5 7 11 17 49 152 265 597 1710
2025-12-12 05:00 6.71 215 8350 (1986) 1 (1954) 323 5 7 11 17 49 152 265 597 1710
2025-12-12 04:30 6.72 219 8350 (1986) 1 (1954) 323 5 7 11 17 49 152 265 597 1710
2025-12-12 04:00 6.73 222 8350 (1986) 1 (1954) 323 5 7 11 17 49 152 265 597 1710
2025-12-12 03:30 6.74 226 8350 (1986) 1 (1954) 323 5 7 11 17 49 152 265 597 1710
2025-12-12 03:00 6.74 226 8350 (1986) 1 (1954) 323 5 7 11 17 49 152 265 597 1710
2025-12-12 02:30 6.74 226 8350 (1986) 1 (1954) 323 5 7 11 17 49 152 265 597 1710
2025-12-12 02:00 6.73 222 8350 (1986) 1 (1954) 323 5 7 11 17 49 152 265 597 1710
2025-12-12 01:30 6.72 219 8350 (1986) 1 (1954) 323 5 7 11 17 49 152 265 597 1710
2025-12-12 01:00 6.68 205 8350 (1986) 1 (1954) 323 5 7 11 17 49 152 265 597 1710
2025-12-12 00:30 6.63 189 8350 (1986) 1 (1954) 323 5 7 11 17 49 152 265 597 1710
2025-12-12 00:00 6.50 151 8350 (1986) 1 (1954) 323 5 7 11 17 49 152 265 597 1710
2025-12-11 23:30 6.41 128 8350 (1986) 1 (1954) 323 5 7 11 17 49 152 265 597 1710
2025-12-11 23:00 6.36 117 8350 (1986) 1 (1954) 323 5 7 11 17 49 152 265 597 1710
2025-12-11 22:30 6.34 112 22800 (1986) 1 (1964) 552 5 7 12 16 50 166 207 717 1450
2025-12-11 22:00 6.36 117 22800 (1986) 1 (1964) 552 5 7 12 16 50 166 207 717 1450
2025-12-11 21:30 6.37 119 22800 (1986) 1 (1964) 552 5 7 12 16 50 166 207 717 1450
2025-12-11 21:00 6.37 119 22800 (1986) 1 (1964) 552 5 7 12 16 50 166 207 717 1450
2025-12-11 20:30 6.35 114 22800 (1986) 1 (1964) 552 5 7 12 16 50 166 207 717 1450
2025-12-11 20:00 6.35 114 22800 (1986) 1 (1964) 552 5 7 12 16 50 166 207 717 1450
2025-12-11 19:30 6.36 117 22800 (1986) 1 (1964) 552 5 7 12 16 50 166 207 717 1450
2025-12-11 19:00 6.37 119 22800 (1986) 1 (1964) 552 5 7 12 16 50 166 207 717 1450
2025-12-11 18:30 6.35 114 22800 (1986) 1 (1964) 552 5 7 12 16 50 166 207 717 1450
2025-12-11 18:00 6.35 114 22800 (1986) 1 (1964) 552 5 7 12 16 50 166 207 717 1450
2025-12-11 17:30 6.37 119 22800 (1986) 1 (1964) 552 5 7 12 16 50 166 207 717 1450
2025-12-11 17:00 6.37 119 22800 (1986) 1 (1964) 552 5 7 12 16 50 166 207 717 1450
2025-12-11 16:30 6.36 117 22800 (1986) 1 (1964) 552 5 7 12 16 50 166 207 717 1450
2025-12-11 16:00 6.34 112 22800 (1986) 1 (1964) 552 5 7 12 16 50 166 207 717 1450
2025-12-11 15:30 6.31 106 22800 (1986) 1 (1964) 552 5 7 12 16 50 166 207 717 1450
2025-12-11 15:00 6.25 94 22800 (1986) 1 (1964) 552 5 7 12 16 50 166 207 717 1450
2025-12-11 14:30 6.19 83 22800 (1986) 1 (1964) 552 5 7 12 16 50 166 207 717 1450
2025-12-11 14:00 6.03 57 22800 (1986) 1 (1964) 552 5 7 12 16 50 166 207 717 1450
2025-12-11 13:30 5.87 38 22800 (1986) 1 (1964) 552 5 7 12 16 50 166 207 717 1450
2025-12-11 13:00 5.81 32 22800 (1986) 1 (1964) 552 5 7 12 16 50 166 207 717 1450
2025-12-11 12:30 5.75 27 22800 (1986) 1 (1964) 552 5 7 12 16 50 166 207 717 1450
2025-12-11 12:00 5.77 29 22800 (1986) 1 (1964) 552 5 7 12 16 50 166 207 717 1450
2025-12-11 11:30 5.76 28 22800 (1986) 1 (1964) 552 5 7 12 16 50 166 207 717 1450
2025-12-11 11:00 5.74 26 22800 (1986) 1 (1964) 552 5 7 12 16 50 166 207 717 1450
2025-12-11 10:30 5.76 28 22800 (1986) 1 (1964) 552 5 7 12 16 50 166 207 717 1450
2025-12-11 10:00 5.76 28 22800 (1986) 1 (1964) 552 5 7 12 16 50 166 207 717 1450
2025-12-11 09:30 5.76 28 22800 (1986) 1 (1964) 552 5 7 12 16 50 166 207 717 1450
2025-12-11 09:00 5.76 28 22800 (1986) 1 (1964) 552 5 7 12 16 50 166 207 717 1450
2025-12-11 08:30 5.76 28 22800 (1986) 1 (1964) 552 5 7 12 16 50 166 207 717 1450
2025-12-11 08:00 5.76 28 22800 (1986) 1 (1964) 552 5 7 12 16 50 166 207 717 1450
2025-12-11 07:30 5.76 28 22800 (1986) 1 (1964) 552 5 7 12 16 50 166 207 717 1450
2025-12-11 07:00 5.76 28 22800 (1986) 1 (1964) 552 5 7 12 16 50 166 207 717 1450
2025-12-11 06:30 5.76 28 22800 (1986) 1 (1964) 552 5 7 12 16 50 166 207 717 1450
2025-12-11 06:00 5.76 28 22800 (1986) 1 (1964) 552 5 7 12 16 50 166 207 717 1450
2025-12-11 05:30 5.76 28 22800 (1986) 1 (1964) 552 5 7 12 16 50 166 207 717 1450
2025-12-11 05:00 5.76 28 22800 (1986) 1 (1964) 552 5 7 12 16 50 166 207 717 1450
2025-12-11 04:30 5.76 28 22800 (1986) 1 (1964) 552 5 7 12 16 50 166 207 717 1450
2025-12-11 04:00 5.76 28 22800 (1986) 1 (1964) 552 5 7 12 16 50 166 207 717 1450
2025-12-11 03:30 5.76 28 22800 (1986) 1 (1964) 552 5 7 12 16 50 166 207 717 1450
2025-12-11 03:00 5.76 28 22800 (1986) 1 (1964) 552 5 7 12 16 50 166 207 717 1450
2025-12-11 02:30 5.76 28 22800 (1986) 1 (1964) 552 5 7 12 16 50 166 207 717 1450
2025-12-11 02:00 5.76 28 22800 (1986) 1 (1964) 552 5 7 12 16 50 166 207 717 1450
2025-12-11 01:30 5.76 28 22800 (1986) 1 (1964) 552 5 7 12 16 50 166 207 717 1450
2025-12-11 01:00 5.76 28 22800 (1986) 1 (1964) 552 5 7 12 16 50 166 207 717 1450
2025-12-11 00:30 5.74 26 22800 (1986) 1 (1964) 552 5 7 12 16 50 166 207 717 1450
2025-12-11 00:00 5.71 24 22800 (1986) 1 (1964) 552 5 7 12 16 50 166 207 717 1450
2025-12-10 23:30 5.76 28 22800 (1986) 1 (1964) 552 5 7 12 16 50 166 207 717 1450
2025-12-10 23:00 5.76 28 22800 (1986) 1 (1964) 552 5 7 12 16 50 166 207 717 1450
2025-12-10 22:30 5.76 28 10900 (1968) 1 (1964) 324 4 7 12 14 51 176 248 592 1580
2025-12-10 22:00 5.76 28 10900 (1968) 1 (1964) 324 4 7 12 14 51 176 248 592 1580
2025-12-10 21:30 5.76 28 10900 (1968) 1 (1964) 324 4 7 12 14 51 176 248 592 1580
2025-12-10 21:00 5.76 28 10900 (1968) 1 (1964) 324 4 7 12 14 51 176 248 592 1580
2025-12-10 20:30 5.76 28 10900 (1968) 1 (1964) 324 4 7 12 14 51 176 248 592 1580
2025-12-10 20:00 5.76 28 10900 (1968) 1 (1964) 324 4 7 12 14 51 176 248 592 1580
2025-12-10 19:30 5.76 28 10900 (1968) 1 (1964) 324 4 7 12 14 51 176 248 592 1580
2025-12-10 19:00 5.76 28 10900 (1968) 1 (1964) 324 4 7 12 14 51 176 248 592 1580
2025-12-10 18:30 5.76 28 10900 (1968) 1 (1964) 324 4 7 12 14 51 176 248 592 1580
2025-12-10 18:00 5.76 28 10900 (1968) 1 (1964) 324 4 7 12 14 51 176 248 592 1580
2025-12-10 17:30 5.74 26 10900 (1968) 1 (1964) 324 4 7 12 14 51 176 248 592 1580
2025-12-10 17:00 5.76 28 10900 (1968) 1 (1964) 324 4 7 12 14 51 176 248 592 1580
2025-12-10 16:30 5.76 28 10900 (1968) 1 (1964) 324 4 7 12 14 51 176 248 592 1580
2025-12-10 16:00 5.69 22 10900 (1968) 1 (1964) 324 4 7 12 14 51 176 248 592 1580
2025-12-10 15:30 5.76 28 10900 (1968) 1 (1964) 324 4 7 12 14 51 176 248 592 1580
2025-12-10 15:00 5.70 23 10900 (1968) 1 (1964) 324 4 7 12 14 51 176 248 592 1580
2025-12-10 14:30 5.71 24 10900 (1968) 1 (1964) 324 4 7 12 14 51 176 248 592 1580
2025-12-10 14:00 5.73 25 10900 (1968) 1 (1964) 324 4 7 12 14 51 176 248 592 1580
2025-12-10 13:30 5.70 23 10900 (1968) 1 (1964) 324 4 7 12 14 51 176 248 592 1580
2025-12-10 13:00 5.72 24 10900 (1968) 1 (1964) 324 4 7 12 14 51 176 248 592 1580
2025-12-10 12:30 5.70 23 10900 (1968) 1 (1964) 324 4 7 12 14 51 176 248 592 1580
2025-12-10 12:00 5.70 23 10900 (1968) 1 (1964) 324 4 7 12 14 51 176 248 592 1580
2025-12-10 11:30 5.71 24 10900 (1968) 1 (1964) 324 4 7 12 14 51 176 248 592 1580
2025-12-10 11:00 5.70 23 10900 (1968) 1 (1964) 324 4 7 12 14 51 176 248 592 1580
2025-12-10 10:30 5.70 23 10900 (1968) 1 (1964) 324 4 7 12 14 51 176 248 592 1580
2025-12-10 10:00 5.70 23 10900 (1968) 1 (1964) 324 4 7 12 14 51 176 248 592 1580
2025-12-10 09:30 5.69 22 10900 (1968) 1 (1964) 324 4 7 12 14 51 176 248 592 1580
2025-12-10 09:00 5.69 22 10900 (1968) 1 (1964) 324 4 7 12 14 51 176 248 592 1580
2025-12-10 08:30 5.70 23 10900 (1968) 1 (1964) 324 4 7 12 14 51 176 248 592 1580
2025-12-10 08:00 5.68 21 10900 (1968) 1 (1964) 324 4 7 12 14 51 176 248 592 1580
2025-12-10 07:30 5.69 10900 (1968) 1 (1964) 324 4 7 12 14 51 176 248 592 1580
2025-12-10 07:00 5.71 24 10900 (1968) 1 (1964) 324 4 7 12 14 51 176 248 592 1580
2025-12-10 06:45 5.74 26 10900 (1968) 1 (1964) 324 4 7 12 14 51 176 248 592 1580
2025-12-10 06:30 5.72 24 10900 (1968) 1 (1964) 324 4 7 12 14 51 176 248 592 1580
2025-12-10 06:00 5.72 24 10900 (1968) 1 (1964) 324 4 7 12 14 51 176 248 592 1580
2025-12-10 05:30 5.70 23 10900 (1968) 1 (1964) 324 4 7 12 14 51 176 248 592 1580
2025-12-10 05:00 5.73 25 10900 (1968) 1 (1964) 324 4 7 12 14 51 176 248 592 1580
2025-12-10 04:30 5.69 22 10900 (1968) 1 (1964) 324 4 7 12 14 51 176 248 592 1580
2025-12-10 04:00 5.68 21 10900 (1968) 1 (1964) 324 4 7 12 14 51 176 248 592 1580
2025-12-10 03:30 5.71 24 10900 (1968) 1 (1964) 324 4 7 12 14 51 176 248 592 1580
2025-12-10 03:00 5.71 24 10900 (1968) 1 (1964) 324 4 7 12 14 51 176 248 592 1580
2025-12-10 02:30 5.69 22 10900 (1968) 1 (1964) 324 4 7 12 14 51 176 248 592 1580
2025-12-10 02:00 5.71 24 10900 (1968) 1 (1964) 324 4 7 12 14 51 176 248 592 1580
2025-12-10 01:30 5.72 24 10900 (1968) 1 (1964) 324 4 7 12 14 51 176 248 592 1580
2025-12-10 01:00 5.72 24 10900 (1968) 1 (1964) 324 4 7 12 14 51 176 248 592 1580
2025-12-10 00:30 5.72 24 10900 (1968) 1 (1964) 324 4 7 12 14 51 176 248 592 1580
2025-12-10 00:00 5.72 24 10900 (1968) 1 (1964) 324 4 7 12 14 51 176 248 592 1580
2025-12-09 23:30 5.70 23 10900 (1968) 1 (1964) 324 4 7 12 14 51 176 248 592 1580
2025-12-09 23:00 5.71 24 10900 (1968) 1 (1964) 324 4 7 12 14 51 176 248 592 1580
2025-12-09 22:30 5.75 27 7730 (1968) 1 (1964) 300 4 7 13 16 50 175 222 662 1890
2025-12-09 22:00 5.72 24 7730 (1968) 1 (1964) 300 4 7 13 16 50 175 222 662 1890
2025-12-09 21:30 5.76 28 7730 (1968) 1 (1964) 300 4 7 13 16 50 175 222 662 1890
2025-12-09 21:00 5.74 26 7730 (1968) 1 (1964) 300 4 7 13 16 50 175 222 662 1890
2025-12-09 20:30 5.75 27 7730 (1968) 1 (1964) 300 4 7 13 16 50 175 222 662 1890
2025-12-09 20:00 5.74 26 7730 (1968) 1 (1964) 300 4 7 13 16 50 175 222 662 1890
2025-12-09 19:30 5.75 27 7730 (1968) 1 (1964) 300 4 7 13 16 50 175 222 662 1890
2025-12-09 19:00 5.68 21 7730 (1968) 1 (1964) 300 4 7 13 16 50 175 222 662 1890
2025-12-09 18:30 5.72 24 7730 (1968) 1 (1964) 300 4 7 13 16 50 175 222 662 1890
2025-12-09 18:00 5.70 23 7730 (1968) 1 (1964) 300 4 7 13 16 50 175 222 662 1890
2025-12-09 17:30 5.76 28 7730 (1968) 1 (1964) 300 4 7 13 16 50 175 222 662 1890
2025-12-09 17:00 5.76 28 7730 (1968) 1 (1964) 300 4 7 13 16 50 175 222 662 1890
2025-12-09 16:30 5.76 28 7730 (1968) 1 (1964) 300 4 7 13 16 50 175 222 662 1890
2025-12-09 16:00 5.75 27 7730 (1968) 1 (1964) 300 4 7 13 16 50 175 222 662 1890
2025-12-09 15:30 5.75 27 7730 (1968) 1 (1964) 300 4 7 13 16 50 175 222 662 1890
2025-12-09 15:00 5.75 27 7730 (1968) 1 (1964) 300 4 7 13 16 50 175 222 662 1890
2025-12-09 14:30 5.74 26 7730 (1968) 1 (1964) 300 4 7 13 16 50 175 222 662 1890
2025-12-09 14:00 5.75 27 7730 (1968) 1 (1964) 300 4 7 13 16 50 175 222 662 1890
2025-12-09 13:30 5.73 25 7730 (1968) 1 (1964) 300 4 7 13 16 50 175 222 662 1890
2025-12-09 13:00 5.74 26 7730 (1968) 1 (1964) 300 4 7 13 16 50 175 222 662 1890
2025-12-09 12:30 5.71 24 7730 (1968) 1 (1964) 300 4 7 13 16 50 175 222 662 1890
2025-12-09 12:00 5.71 24 7730 (1968) 1 (1964) 300 4 7 13 16 50 175 222 662 1890
2025-12-09 11:30 5.73 25 7730 (1968) 1 (1964) 300 4 7 13 16 50 175 222 662 1890
2025-12-09 11:00 5.75 27 7730 (1968) 1 (1964) 300 4 7 13 16 50 175 222 662 1890
2025-12-09 10:30 5.72 24 7730 (1968) 1 (1964) 300 4 7 13 16 50 175 222 662 1890
2025-12-09 10:00 5.76 28 7730 (1968) 1 (1964) 300 4 7 13 16 50 175 222 662 1890
2025-12-09 09:30 5.75 27 7730 (1968) 1 (1964) 300 4 7 13 16 50 175 222 662 1890
2025-12-09 09:00 24 7730 (1968) 1 (1964) 300 4 7 13 16 50 175 222 662 1890
2025-12-09 07:30 5.76 28 7730 (1968) 1 (1964) 300 4 7 13 16 50 175 222 662 1890
2025-12-09 07:00 5.76 28 7730 (1968) 1 (1964) 300 4 7 13 16 50 175 222 662 1890
2025-12-09 06:30 5.76 28 7730 (1968) 1 (1964) 300 4 7 13 16 50 175 222 662 1890
2025-12-09 06:00 5.76 28 7730 (1968) 1 (1964) 300 4 7 13 16 50 175 222 662 1890
2025-12-09 05:30 5.76 28 7730 (1968) 1 (1964) 300 4 7 13 16 50 175 222 662 1890
2025-12-09 05:00 5.76 28 7730 (1968) 1 (1964) 300 4 7 13 16 50 175 222 662 1890
2025-12-09 04:30 5.77 29 7730 (1968) 1 (1964) 300 4 7 13 16 50 175 222 662 1890
2025-12-09 04:00 5.77 29 7730 (1968) 1 (1964) 300 4 7 13 16 50 175 222 662 1890
2025-12-09 03:30 5.77 29 7730 (1968) 1 (1964) 300 4 7 13 16 50 175 222 662 1890
2025-12-09 03:00 5.77 29 7730 (1968) 1 (1964) 300 4 7 13 16 50 175 222 662 1890
2025-12-09 02:30 5.76 28 7730 (1968) 1 (1964) 300 4 7 13 16 50 175 222 662 1890
2025-12-09 02:00 5.77 29 7730 (1968) 1 (1964) 300 4 7 13 16 50 175 222 662 1890
2025-12-09 01:30 5.77 29 7730 (1968) 1 (1964) 300 4 7 13 16 50 175 222 662 1890
2025-12-09 01:00 5.77 29 7730 (1968) 1 (1964) 300 4 7 13 16 50 175 222 662 1890
2025-12-09 00:30 5.77 29 7730 (1968) 1 (1964) 300 4 7 13 16 50 175 222 662 1890
2025-12-09 00:00 5.77 29 7730 (1968) 1 (1964) 300 4 7 13 16 50 175 222 662 1890
2025-12-08 23:30 5.77 29 7730 (1968) 1 (1964) 300 4 7 13 16 50 175 222 662 1890
2025-12-08 23:00 5.77 29 7730 (1968) 1 (1964) 300 4 7 13 16 50 175 222 662 1890
2025-12-08 22:30 5.77 29 7590 (2005) 1 (1954) 362 4 7 13 17 51 184 264 762 1470
2025-12-08 22:00 5.77 29 7590 (2005) 1 (1954) 362 4 7 13 17 51 184 264 762 1470
2025-12-08 21:30 5.77 29 7590 (2005) 1 (1954) 362 4 7 13 17 51 184 264 762 1470
2025-12-08 21:00 5.77 29 7590 (2005) 1 (1954) 362 4 7 13 17 51 184 264 762 1470
2025-12-08 20:30 5.77 29 7590 (2005) 1 (1954) 362 4 7 13 17 51 184 264 762 1470
2025-12-08 20:00 5.77 29 7590 (2005) 1 (1954) 362 4 7 13 17 51 184 264 762 1470
2025-12-08 19:30 5.77 29 7590 (2005) 1 (1954) 362 4 7 13 17 51 184 264 762 1470
2025-12-08 19:00 5.77 29 7590 (2005) 1 (1954) 362 4 7 13 17 51 184 264 762 1470
2025-12-08 18:30 5.77 29 7590 (2005) 1 (1954) 362 4 7 13 17 51 184 264 762 1470
2025-12-08 18:00 5.77 29 7590 (2005) 1 (1954) 362 4 7 13 17 51 184 264 762 1470
2025-12-08 17:30 5.77 29 7590 (2005) 1 (1954) 362 4 7 13 17 51 184 264 762 1470
2025-12-08 17:00 5.72 24 7590 (2005) 1 (1954) 362 4 7 13 17 51 184 264 762 1470
2025-12-08 16:30 5.77 29 7590 (2005) 1 (1954) 362 4 7 13 17 51 184 264 762 1470
2025-12-08 16:00 5.76 28 7590 (2005) 1 (1954) 362 4 7 13 17 51 184 264 762 1470
2025-12-08 15:30 29 7590 (2005) 1 (1954) 362 4 7 13 17 51 184 264 762 1470
2025-12-08 15:00 5.77 29 7590 (2005) 1 (1954) 362 4 7 13 17 51 184 264 762 1470
2025-12-08 14:30 5.77 29 7590 (2005) 1 (1954) 362 4 7 13 17 51 184 264 762 1470
2025-12-08 14:00 5.77 29 7590 (2005) 1 (1954) 362 4 7 13 17 51 184 264 762 1470
2025-12-08 13:30 5.77 29 7590 (2005) 1 (1954) 362 4 7 13 17 51 184 264 762 1470
2025-12-08 13:00 5.77 29 7590 (2005) 1 (1954) 362 4 7 13 17 51 184 264 762 1470
2025-12-08 12:30 5.77 29 7590 (2005) 1 (1954) 362 4 7 13 17 51 184 264 762 1470
2025-12-08 12:00 5.77 29 7590 (2005) 1 (1954) 362 4 7 13 17 51 184 264 762 1470
2025-12-08 11:30 5.77 29 7590 (2005) 1 (1954) 362 4 7 13 17 51 184 264 762 1470
2025-12-08 11:00 5.77 29 7590 (2005) 1 (1954) 362 4 7 13 17 51 184 264 762 1470
2025-12-08 10:30 5.77 29 7590 (2005) 1 (1954) 362 4 7 13 17 51 184 264 762 1470
2025-12-08 10:00 29 7590 (2005) 1 (1954) 362 4 7 13 17 51 184 264 762 1470
2025-12-08 09:30 5.77 29 7590 (2005) 1 (1954) 362 4 7 13 17 51 184 264 762 1470
2025-12-08 09:00 5.77 29 7590 (2005) 1 (1954) 362 4 7 13 17 51 184 264 762 1470
2025-12-08 08:30 5.77 29 7590 (2005) 1 (1954) 362 4 7 13 17 51 184 264 762 1470
2025-12-08 08:00 5.78 29 7590 (2005) 1 (1954) 362 4 7 13 17 51 184 264 762 1470
2025-12-08 07:30 5.78 29 7590 (2005) 1 (1954) 362 4 7 13 17 51 184 264 762 1470
2025-12-08 07:00 5.78 29 7590 (2005) 1 (1954) 362 4 7 13 17 51 184 264 762 1470
2025-12-08 06:30 5.78 29 7590 (2005) 1 (1954) 362 4 7 13 17 51 184 264 762 1470
2025-12-08 06:00 5.78 29 7590 (2005) 1 (1954) 362 4 7 13 17 51 184 264 762 1470
2025-12-08 05:30 5.78 29 7590 (2005) 1 (1954) 362 4 7 13 17 51 184 264 762 1470
2025-12-08 05:00 5.78 29 7590 (2005) 1 (1954) 362 4 7 13 17 51 184 264 762 1470
2025-12-08 04:30 5.78 29 7590 (2005) 1 (1954) 362 4 7 13 17 51 184 264 762 1470
2025-12-08 04:00 5.78 29 7590 (2005) 1 (1954) 362 4 7 13 17 51 184 264 762 1470
2025-12-08 03:30 5.78 29 7590 (2005) 1 (1954) 362 4 7 13 17 51 184 264 762 1470
2025-12-08 03:00 5.78 29 7590 (2005) 1 (1954) 362 4 7 13 17 51 184 264 762 1470
2025-12-08 02:30 5.78 29 7590 (2005) 1 (1954) 362 4 7 13 17 51 184 264 762 1470
2025-12-08 02:00 5.78 29 7590 (2005) 1 (1954) 362 4 7 13 17 51 184 264 762 1470
2025-12-08 01:30 29 7590 (2005) 1 (1954) 362 4 7 13 17 51 184 264 762 1470
2025-12-08 01:00 5.78 29 7590 (2005) 1 (1954) 362 4 7 13 17 51 184 264 762 1470
2025-12-08 00:30 5.78 29 7590 (2005) 1 (1954) 362 4 7 13 17 51 184 264 762 1470
2025-12-08 00:00 5.78 29 7590 (2005) 1 (1954) 362 4 7 13 17 51 184 264 762 1470
2025-12-07 23:30 5.78 29 7590 (2005) 1 (1954) 362 4 7 13 17 51 184 264 762 1470
2025-12-07 23:00 5.78 29 7590 (2005) 1 (1954) 362 4 7 13 17 51 184 264 762 1470
2025-12-07 22:30 5.78 29 10500 (2005) 2 (1964) 398 5 7 14 17 55 164 233 771 2080
2025-12-07 22:00 5.79 30 10500 (2005) 2 (1964) 398 5 7 14 17 55 164 233 771 2080
2025-12-07 21:30 5.79 30 10500 (2005) 2 (1964) 398 5 7 14 17 55 164 233 771 2080
2025-12-07 21:00 5.79 30 10500 (2005) 2 (1964) 398 5 7 14 17 55 164 233 771 2080
2025-12-07 20:30 5.79 30 10500 (2005) 2 (1964) 398 5 7 14 17 55 164 233 771 2080
2025-12-07 20:00 5.79 30 10500 (2005) 2 (1964) 398 5 7 14 17 55 164 233 771 2080
2025-12-07 19:30 5.77 29 10500 (2005) 2 (1964) 398 5 7 14 17 55 164 233 771 2080
2025-12-07 19:00 5.76 28 10500 (2005) 2 (1964) 398 5 7 14 17 55 164 233 771 2080
2025-12-07 18:30 5.79 30 10500 (2005) 2 (1964) 398 5 7 14 17 55 164 233 771 2080
2025-12-07 18:00 5.79 30 10500 (2005) 2 (1964) 398 5 7 14 17 55 164 233 771 2080
2025-12-07 17:30 5.79 30 10500 (2005) 2 (1964) 398 5 7 14 17 55 164 233 771 2080
2025-12-07 17:00 5.79 30 10500 (2005) 2 (1964) 398 5 7 14 17 55 164 233 771 2080
2025-12-07 16:30 5.78 29 10500 (2005) 2 (1964) 398 5 7 14 17 55 164 233 771 2080
2025-12-07 16:00 5.79 30 10500 (2005) 2 (1964) 398 5 7 14 17 55 164 233 771 2080
2025-12-07 15:30 5.79 30 10500 (2005) 2 (1964) 398 5 7 14 17 55 164 233 771 2080
2025-12-07 15:00 5.78 29 10500 (2005) 2 (1964) 398 5 7 14 17 55 164 233 771 2080
2025-12-07 14:30 5.79 30 10500 (2005) 2 (1964) 398 5 7 14 17 55 164 233 771 2080
2025-12-07 14:00 5.79 30 10500 (2005) 2 (1964) 398 5 7 14 17 55 164 233 771 2080
2025-12-07 13:30 5.80 31 10500 (2005) 2 (1964) 398 5 7 14 17 55 164 233 771 2080
2025-12-07 13:00 5.76 28 10500 (2005) 2 (1964) 398 5 7 14 17 55 164 233 771 2080
2025-12-07 12:30 5.79 30 10500 (2005) 2 (1964) 398 5 7 14 17 55 164 233 771 2080
2025-12-07 12:00 5.76 28 10500 (2005) 2 (1964) 398 5 7 14 17 55 164 233 771 2080
2025-12-07 11:30 5.78 29 10500 (2005) 2 (1964) 398 5 7 14 17 55 164 233 771 2080
2025-12-07 11:00 5.79 30 10500 (2005) 2 (1964) 398 5 7 14 17 55 164 233 771 2080
2025-12-07 10:30 5.77 29 10500 (2005) 2 (1964) 398 5 7 14 17 55 164 233 771 2080
2025-12-07 10:00 5.77 29 10500 (2005) 2 (1964) 398 5 7 14 17 55 164 233 771 2080
2025-12-07 09:30 5.76 28 10500 (2005) 2 (1964) 398 5 7 14 17 55 164 233 771 2080
2025-12-07 09:00 30 10500 (2005) 2 (1964) 398 5 7 14 17 55 164 233 771 2080
2025-12-07 08:30 5.78 29 10500 (2005) 2 (1964) 398 5 7 14 17 55 164 233 771 2080
2025-12-07 08:00 5.79 30 10500 (2005) 2 (1964) 398 5 7 14 17 55 164 233 771 2080
2025-12-07 07:30 5.79 30 10500 (2005) 2 (1964) 398 5 7 14 17 55 164 233 771 2080
2025-12-07 07:00 5.79 30 10500 (2005) 2 (1964) 398 5 7 14 17 55 164 233 771 2080
2025-12-07 06:30 5.80 31 10500 (2005) 2 (1964) 398 5 7 14 17 55 164 233 771 2080
2025-12-07 06:00 5.80 31 10500 (2005) 2 (1964) 398 5 7 14 17 55 164 233 771 2080
2025-12-07 05:30 5.80 31 10500 (2005) 2 (1964) 398 5 7 14 17 55 164 233 771 2080
2025-12-07 05:00 5.80 31 10500 (2005) 2 (1964) 398 5 7 14 17 55 164 233 771 2080
2025-12-07 04:30 5.80 31 10500 (2005) 2 (1964) 398 5 7 14 17 55 164 233 771 2080
2025-12-07 04:00 5.80 31 10500 (2005) 2 (1964) 398 5 7 14 17 55 164 233 771 2080
2025-12-07 03:30 5.80 31 10500 (2005) 2 (1964) 398 5 7 14 17 55 164 233 771 2080
2025-12-07 03:00 5.80 31 10500 (2005) 2 (1964) 398 5 7 14 17 55 164 233 771 2080
2025-12-07 02:30 5.80 31 10500 (2005) 2 (1964) 398 5 7 14 17 55 164 233 771 2080
2025-12-07 02:00 5.80 31 10500 (2005) 2 (1964) 398 5 7 14 17 55 164 233 771 2080
2025-12-07 01:30 31 10500 (2005) 2 (1964) 398 5 7 14 17 55 164 233 771 2080
2025-12-07 01:00 31 10500 (2005) 2 (1964) 398 5 7 14 17 55 164 233 771 2080
2025-12-07 00:30 5.80 31 10500 (2005) 2 (1964) 398 5 7 14 17 55 164 233 771 2080
2025-12-07 00:00 31 10500 (2005) 2 (1964) 398 5 7 14 17 55 164 233 771 2080
2025-12-06 23:30 31 10500 (2005) 2 (1964) 398 5 7 14 17 55 164 233 771 2080
2025-12-06 23:00 5.80 31 10500 (2005) 2 (1964) 398 5 7 14 17 55 164 233 771 2080
2025-12-06 22:30 31 14300 (1968) 2 (1964) 395 4 6 14 17 51 174 227 518 1680
2025-12-06 22:00 5.80 31 14300 (1968) 2 (1964) 395 4 6 14 17 51 174 227 518 1680
2025-12-06 21:30 31 14300 (1968) 2 (1964) 395 4 6 14 17 51 174 227 518 1680
2025-12-06 21:00 5.81 32 14300 (1968) 2 (1964) 395 4 6 14 17 51 174 227 518 1680
2025-12-06 20:30 5.81 32 14300 (1968) 2 (1964) 395 4 6 14 17 51 174 227 518 1680
2025-12-06 20:00 5.80 31 14300 (1968) 2 (1964) 395 4 6 14 17 51 174 227 518 1680
2025-12-06 19:30 5.80 31 14300 (1968) 2 (1964) 395 4 6 14 17 51 174 227 518 1680
2025-12-06 19:00 5.81 32 14300 (1968) 2 (1964) 395 4 6 14 17 51 174 227 518 1680
2025-12-06 18:30 5.81 32 14300 (1968) 2 (1964) 395 4 6 14 17 51 174 227 518 1680
2025-12-06 18:00 5.80 31 14300 (1968) 2 (1964) 395 4 6 14 17 51 174 227 518 1680
2025-12-06 17:30 5.81 32 14300 (1968) 2 (1964) 395 4 6 14 17 51 174 227 518 1680
2025-12-06 17:00 5.81 32 14300 (1968) 2 (1964) 395 4 6 14 17 51 174 227 518 1680
2025-12-06 16:30 5.81 32 14300 (1968) 2 (1964) 395 4 6 14 17 51 174 227 518 1680
2025-12-06 16:00 5.80 31 14300 (1968) 2 (1964) 395 4 6 14 17 51 174 227 518 1680
2025-12-06 15:30 5.81 32 14300 (1968) 2 (1964) 395 4 6 14 17 51 174 227 518 1680
2025-12-06 15:00 5.81 32 14300 (1968) 2 (1964) 395 4 6 14 17 51 174 227 518 1680
2025-12-06 14:30 5.80 31 14300 (1968) 2 (1964) 395 4 6 14 17 51 174 227 518 1680
2025-12-06 14:00 5.80 31 14300 (1968) 2 (1964) 395 4 6 14 17 51 174 227 518 1680
2025-12-06 13:30 5.81 32 14300 (1968) 2 (1964) 395 4 6 14 17 51 174 227 518 1680
2025-12-06 13:00 5.81 32 14300 (1968) 2 (1964) 395 4 6 14 17 51 174 227 518 1680
2025-12-06 12:30 5.82 33 14300 (1968) 2 (1964) 395 4 6 14 17 51 174 227 518 1680
2025-12-06 12:00 5.81 32 14300 (1968) 2 (1964) 395 4 6 14 17 51 174 227 518 1680
2025-12-06 11:30 5.82 33 14300 (1968) 2 (1964) 395 4 6 14 17 51 174 227 518 1680
2025-12-06 11:00 5.82 33 14300 (1968) 2 (1964) 395 4 6 14 17 51 174 227 518 1680
2025-12-06 10:30 5.82 33 14300 (1968) 2 (1964) 395 4 6 14 17 51 174 227 518 1680
2025-12-06 10:00 5.82 33 14300 (1968) 2 (1964) 395 4 6 14 17 51 174 227 518 1680
2025-12-06 09:30 5.82 33 14300 (1968) 2 (1964) 395 4 6 14 17 51 174 227 518 1680
2025-12-06 09:00 5.82 33 14300 (1968) 2 (1964) 395 4 6 14 17 51 174 227 518 1680
2025-12-06 08:30 5.82 33 14300 (1968) 2 (1964) 395 4 6 14 17 51 174 227 518 1680
2025-12-06 08:00 5.82 33 14300 (1968) 2 (1964) 395 4 6 14 17 51 174 227 518 1680
2025-12-06 07:30 5.82 33 14300 (1968) 2 (1964) 395 4 6 14 17 51 174 227 518 1680
2025-12-06 07:00 5.82 33 14300 (1968) 2 (1964) 395 4 6 14 17 51 174 227 518 1680
2025-12-06 06:30 5.82 33 14300 (1968) 2 (1964) 395 4 6 14 17 51 174 227 518 1680
2025-12-06 06:00 5.82 33 14300 (1968) 2 (1964) 395 4 6 14 17 51 174 227 518 1680
2025-12-06 05:30 5.82 33 14300 (1968) 2 (1964) 395 4 6 14 17 51 174 227 518 1680
2025-12-06 05:00 5.82 33 14300 (1968) 2 (1964) 395 4 6 14 17 51 174 227 518 1680
2025-12-06 04:30 5.82 33 14300 (1968) 2 (1964) 395 4 6 14 17 51 174 227 518 1680
2025-12-06 04:00 5.82 33 14300 (1968) 2 (1964) 395 4 6 14 17 51 174 227 518 1680
2025-12-06 03:30 5.83 34 14300 (1968) 2 (1964) 395 4 6 14 17 51 174 227 518 1680
2025-12-06 03:00 5.83 34 14300 (1968) 2 (1964) 395 4 6 14 17 51 174 227 518 1680
2025-12-06 02:30 5.83 34 14300 (1968) 2 (1964) 395 4 6 14 17 51 174 227 518 1680
2025-12-06 02:00 5.83 34 14300 (1968) 2 (1964) 395 4 6 14 17 51 174 227 518 1680
2025-12-06 01:30 5.82 33 14300 (1968) 2 (1964) 395 4 6 14 17 51 174 227 518 1680
2025-12-06 01:00 32 14300 (1968) 2 (1964) 395 4 6 14 17 51 174 227 518 1680
2025-12-06 00:30 5.80 31 14300 (1968) 2 (1964) 395 4 6 14 17 51 174 227 518 1680
2025-12-06 00:00 5.81 32 14300 (1968) 2 (1964) 395 4 6 14 17 51 174 227 518 1680
2025-12-05 23:30 33 14300 (1968) 2 (1964) 395 4 6 14 17 51 174 227 518 1680
2025-12-05 23:00 5.84 35 14300 (1968) 2 (1964) 395 4 6 14 17 51 174 227 518 1680
2025-12-05 22:30 5.84 35 10400 (1983) 1 (1964) 439 4 6 11 15 55 183 288 679 2700
2025-12-05 22:00 34 10400 (1983) 1 (1964) 439 4 6 11 15 55 183 288 679 2700
2025-12-05 21:30 5.83 34 10400 (1983) 1 (1964) 439 4 6 11 15 55 183 288 679 2700
2025-12-05 21:00 5.84 35 10400 (1983) 1 (1964) 439 4 6 11 15 55 183 288 679 2700
2025-12-05 20:30 35 10400 (1983) 1 (1964) 439 4 6 11 15 55 183 288 679 2700
2025-12-05 20:00 5.83 34 10400 (1983) 1 (1964) 439 4 6 11 15 55 183 288 679 2700
2025-12-05 19:30 5.78 29 10400 (1983) 1 (1964) 439 4 6 11 15 55 183 288 679 2700
2025-12-05 19:00 5.78 29 10400 (1983) 1 (1964) 439 4 6 11 15 55 183 288 679 2700
2025-12-05 18:30 5.84 35 10400 (1983) 1 (1964) 439 4 6 11 15 55 183 288 679 2700
2025-12-05 18:00 5.84 35 10400 (1983) 1 (1964) 439 4 6 11 15 55 183 288 679 2700
2025-12-05 17:30 5.85 36 10400 (1983) 1 (1964) 439 4 6 11 15 55 183 288 679 2700
2025-12-05 17:00 5.85 36 10400 (1983) 1 (1964) 439 4 6 11 15 55 183 288 679 2700
2025-12-05 16:30 5.84 35 10400 (1983) 1 (1964) 439 4 6 11 15 55 183 288 679 2700
2025-12-05 16:00 5.84 35 10400 (1983) 1 (1964) 439 4 6 11 15 55 183 288 679 2700
2025-12-05 15:30 5.84 35 10400 (1983) 1 (1964) 439 4 6 11 15 55 183 288 679 2700
2025-12-05 15:00 5.85 36 10400 (1983) 1 (1964) 439 4 6 11 15 55 183 288 679 2700
2025-12-05 14:30 5.86 37 10400 (1983) 1 (1964) 439 4 6 11 15 55 183 288 679 2700
2025-12-05 14:00 5.87 38 10400 (1983) 1 (1964) 439 4 6 11 15 55 183 288 679 2700
2025-12-05 13:30 5.86 37 10400 (1983) 1 (1964) 439 4 6 11 15 55 183 288 679 2700
2025-12-05 13:00 5.82 33 10400 (1983) 1 (1964) 439 4 6 11 15 55 183 288 679 2700
2025-12-05 12:30 5.75 27 10400 (1983) 1 (1964) 439 4 6 11 15 55 183 288 679 2700
2025-12-05 12:00 5.75 27 10400 (1983) 1 (1964) 439 4 6 11 15 55 183 288 679 2700
2025-12-05 11:30 5.75 27 10400 (1983) 1 (1964) 439 4 6 11 15 55 183 288 679 2700
2025-12-05 11:00 5.81 32 10400 (1983) 1 (1964) 439 4 6 11 15 55 183 288 679 2700
2025-12-05 10:30 33 10400 (1983) 1 (1964) 439 4 6 11 15 55 183 288 679 2700
2025-12-05 10:00 5.83 34 10400 (1983) 1 (1964) 439 4 6 11 15 55 183 288 679 2700
2025-12-05 09:30 5.82 33 10400 (1983) 1 (1964) 439 4 6 11 15 55 183 288 679 2700
2025-12-05 09:00 5.77 29 10400 (1983) 1 (1964) 439 4 6 11 15 55 183 288 679 2700
2025-12-05 08:30 5.81 32 10400 (1983) 1 (1964) 439 4 6 11 15 55 183 288 679 2700
2025-12-05 08:00 5.87 38 10400 (1983) 1 (1964) 439 4 6 11 15 55 183 288 679 2700
2025-12-05 07:30 5.88 39 10400 (1983) 1 (1964) 439 4 6 11 15 55 183 288 679 2700
2025-12-05 07:00 5.88 39 10400 (1983) 1 (1964) 439 4 6 11 15 55 183 288 679 2700
2025-12-05 06:30 5.88 39 10400 (1983) 1 (1964) 439 4 6 11 15 55 183 288 679 2700
2025-12-05 06:00 5.88 39 10400 (1983) 1 (1964) 439 4 6 11 15 55 183 288 679 2700
2025-12-05 05:30 5.86 37 10400 (1983) 1 (1964) 439 4 6 11 15 55 183 288 679 2700
2025-12-05 05:00 5.84 35 10400 (1983) 1 (1964) 439 4 6 11 15 55 183 288 679 2700
2025-12-05 04:30 5.91 42 10400 (1983) 1 (1964) 439 4 6 11 15 55 183 288 679 2700
2025-12-05 04:00 5.91 42 10400 (1983) 1 (1964) 439 4 6 11 15 55 183 288 679 2700
2025-12-05 03:30 5.89 40 10400 (1983) 1 (1964) 439 4 6 11 15 55 183 288 679 2700
2025-12-05 03:00 5.88 39 10400 (1983) 1 (1964) 439 4 6 11 15 55 183 288 679 2700
2025-12-05 02:30 5.88 39 10400 (1983) 1 (1964) 439 4 6 11 15 55 183 288 679 2700
2025-12-05 02:00 5.87 38 10400 (1983) 1 (1964) 439 4 6 11 15 55 183 288 679 2700
2025-12-05 01:30 5.87 38 10400 (1983) 1 (1964) 439 4 6 11 15 55 183 288 679 2700
2025-12-05 01:00 5.86 37 10400 (1983) 1 (1964) 439 4 6 11 15 55 183 288 679 2700
2025-12-05 00:30 5.86 37 10400 (1983) 1 (1964) 439 4 6 11 15 55 183 288 679 2700
2025-12-05 00:00 35 10400 (1983) 1 (1964) 439 4 6 11 15 55 183 288 679 2700
2025-12-04 23:30 5.82 33 10400 (1983) 1 (1964) 439 4 6 11 15 55 183 288 679 2700
2025-12-04 23:00 5.80 31 10400 (1983) 1 (1964) 439 4 6 11 15 55 183 288 679 2700
2025-12-04 22:30 5.90 41 36100 (1983) 2 (1954) 693 4 7 10 16 53 200 287 971 2740
2025-12-04 22:00 42 36100 (1983) 2 (1954) 693 4 7 10 16 53 200 287 971 2740
2025-12-04 21:30 5.90 41 36100 (1983) 2 (1954) 693 4 7 10 16 53 200 287 971 2740
2025-12-04 21:00 5.90 41 36100 (1983) 2 (1954) 693 4 7 10 16 53 200 287 971 2740
2025-12-04 20:30 41 36100 (1983) 2 (1954) 693 4 7 10 16 53 200 287 971 2740
2025-12-04 20:00 5.90 41 36100 (1983) 2 (1954) 693 4 7 10 16 53 200 287 971 2740
2025-12-04 19:30 5.90 41 36100 (1983) 2 (1954) 693 4 7 10 16 53 200 287 971 2740
2025-12-04 19:00 5.90 41 36100 (1983) 2 (1954) 693 4 7 10 16 53 200 287 971 2740
2025-12-04 18:30 5.91 42 36100 (1983) 2 (1954) 693 4 7 10 16 53 200 287 971 2740
2025-12-04 18:00 5.91 42 36100 (1983) 2 (1954) 693 4 7 10 16 53 200 287 971 2740
2025-12-04 17:30 5.91 42 36100 (1983) 2 (1954) 693 4 7 10 16 53 200 287 971 2740
2025-12-04 17:00 5.91 42 36100 (1983) 2 (1954) 693 4 7 10 16 53 200 287 971 2740
2025-12-04 16:30 5.91 42 36100 (1983) 2 (1954) 693 4 7 10 16 53 200 287 971 2740
2025-12-04 16:00 5.91 42 36100 (1983) 2 (1954) 693 4 7 10 16 53 200 287 971 2740
2025-12-04 15:30 5.91 42 36100 (1983) 2 (1954) 693 4 7 10 16 53 200 287 971 2740
2025-12-04 15:00 5.91 42 36100 (1983) 2 (1954) 693 4 7 10 16 53 200 287 971 2740
2025-12-04 14:30 5.91 42 36100 (1983) 2 (1954) 693 4 7 10 16 53 200 287 971 2740
2025-12-04 14:00 5.92 43 36100 (1983) 2 (1954) 693 4 7 10 16 53 200 287 971 2740
2025-12-04 13:30 5.92 43 36100 (1983) 2 (1954) 693 4 7 10 16 53 200 287 971 2740
2025-12-04 13:00 5.92 43 36100 (1983) 2 (1954) 693 4 7 10 16 53 200 287 971 2740
2025-12-04 12:30 5.92 43 36100 (1983) 2 (1954) 693 4 7 10 16 53 200 287 971 2740
2025-12-04 12:00 43 36100 (1983) 2 (1954) 693 4 7 10 16 53 200 287 971 2740
2025-12-04 11:30 5.92 43 36100 (1983) 2 (1954) 693 4 7 10 16 53 200 287 971 2740
2025-12-04 11:00 5.92 43 36100 (1983) 2 (1954) 693 4 7 10 16 53 200 287 971 2740
2025-12-04 10:30 5.93 45 36100 (1983) 2 (1954) 693 4 7 10 16 53 200 287 971 2740
2025-12-04 10:00 45 36100 (1983) 2 (1954) 693 4 7 10 16 53 200 287 971 2740
2025-12-04 09:30 5.93 45 36100 (1983) 2 (1954) 693 4 7 10 16 53 200 287 971 2740
2025-12-04 09:00 5.93 45 36100 (1983) 2 (1954) 693 4 7 10 16 53 200 287 971 2740
2025-12-04 08:30 5.93 45 36100 (1983) 2 (1954) 693 4 7 10 16 53 200 287 971 2740
2025-12-04 08:00 5.94 46 36100 (1983) 2 (1954) 693 4 7 10 16 53 200 287 971 2740
2025-12-04 07:30 5.94 46 36100 (1983) 2 (1954) 693 4 7 10 16 53 200 287 971 2740
2025-12-04 07:00 5.94 46 36100 (1983) 2 (1954) 693 4 7 10 16 53 200 287 971 2740
2025-12-04 06:30 5.94 46 36100 (1983) 2 (1954) 693 4 7 10 16 53 200 287 971 2740
2025-12-04 06:00 5.95 47 36100 (1983) 2 (1954) 693 4 7 10 16 53 200 287 971 2740
2025-12-04 05:30 5.95 47 36100 (1983) 2 (1954) 693 4 7 10 16 53 200 287 971 2740
2025-12-04 05:00 5.95 47 36100 (1983) 2 (1954) 693 4 7 10 16 53 200 287 971 2740
2025-12-04 04:30 5.95 47 36100 (1983) 2 (1954) 693 4 7 10 16 53 200 287 971 2740
2025-12-04 04:00 5.95 47 36100 (1983) 2 (1954) 693 4 7 10 16 53 200 287 971 2740
2025-12-04 03:30 5.95 47 36100 (1983) 2 (1954) 693 4 7 10 16 53 200 287 971 2740
2025-12-04 03:00 47 36100 (1983) 2 (1954) 693 4 7 10 16 53 200 287 971 2740
2025-12-04 02:30 5.96 48 36100 (1983) 2 (1954) 693 4 7 10 16 53 200 287 971 2740
2025-12-04 02:00 48 36100 (1983) 2 (1954) 693 4 7 10 16 53 200 287 971 2740
2025-12-04 01:30 5.96 48 36100 (1983) 2 (1954) 693 4 7 10 16 53 200 287 971 2740
2025-12-04 01:00 5.97 49 36100 (1983) 2 (1954) 693 4 7 10 16 53 200 287 971 2740
2025-12-04 00:30 5.95 47 36100 (1983) 2 (1954) 693 4 7 10 16 53 200 287 971 2740
2025-12-04 00:00 5.94 46 36100 (1983) 2 (1954) 693 4 7 10 16 53 200 287 971 2740
2025-12-03 23:30 5.97 49 36100 (1983) 2 (1954) 693 4 7 10 16 53 200 287 971 2740
2025-12-03 23:00 49 36100 (1983) 2 (1954) 693 4 7 10 16 53 200 287 971 2740
2025-12-03 22:30 5.97 49 74100 (1983) 2 (1964) 1200 4 7 10 14 54 217 293 1080 3560
2025-12-03 22:00 5.97 49 74100 (1983) 2 (1964) 1200 4 7 10 14 54 217 293 1080 3560
2025-12-03 21:30 5.98 51 74100 (1983) 2 (1964) 1200 4 7 10 14 54 217 293 1080 3560
2025-12-03 21:00 5.98 51 74100 (1983) 2 (1964) 1200 4 7 10 14 54 217 293 1080 3560
2025-12-03 20:30 5.98 51 74100 (1983) 2 (1964) 1200 4 7 10 14 54 217 293 1080 3560
2025-12-03 20:00 51 74100 (1983) 2 (1964) 1200 4 7 10 14 54 217 293 1080 3560
2025-12-03 19:30 5.98 51 74100 (1983) 2 (1964) 1200 4 7 10 14 54 217 293 1080 3560
2025-12-03 19:00 5.99 52 74100 (1983) 2 (1964) 1200 4 7 10 14 54 217 293 1080 3560
2025-12-03 18:30 5.99 52 74100 (1983) 2 (1964) 1200 4 7 10 14 54 217 293 1080 3560
2025-12-03 18:00 5.99 52 74100 (1983) 2 (1964) 1200 4 7 10 14 54 217 293 1080 3560
2025-12-03 17:30 6.00 53 74100 (1983) 2 (1964) 1200 4 7 10 14 54 217 293 1080 3560
2025-12-03 17:00 6.00 53 74100 (1983) 2 (1964) 1200 4 7 10 14 54 217 293 1080 3560
2025-12-03 16:30 6.00 53 74100 (1983) 2 (1964) 1200 4 7 10 14 54 217 293 1080 3560
2025-12-03 16:00 6.00 53 74100 (1983) 2 (1964) 1200 4 7 10 14 54 217 293 1080 3560
2025-12-03 15:30 6.01 55 74100 (1983) 2 (1964) 1200 4 7 10 14 54 217 293 1080 3560
2025-12-03 15:00 6.01 55 74100 (1983) 2 (1964) 1200 4 7 10 14 54 217 293 1080 3560
2025-12-03 14:30 6.01 55 74100 (1983) 2 (1964) 1200 4 7 10 14 54 217 293 1080 3560
2025-12-03 14:00 6.01 55 74100 (1983) 2 (1964) 1200 4 7 10 14 54 217 293 1080 3560
2025-12-03 13:30 55 74100 (1983) 2 (1964) 1200 4 7 10 14 54 217 293 1080 3560
2025-12-03 13:00 6.02 56 74100 (1983) 2 (1964) 1200 4 7 10 14 54 217 293 1080 3560
2025-12-03 12:30 6.02 56 74100 (1983) 2 (1964) 1200 4 7 10 14 54 217 293 1080 3560
2025-12-03 12:00 57 74100 (1983) 2 (1964) 1200 4 7 10 14 54 217 293 1080 3560
2025-12-03 11:30 6.03 57 74100 (1983) 2 (1964) 1200 4 7 10 14 54 217 293 1080 3560
2025-12-03 11:00 6.03 57 74100 (1983) 2 (1964) 1200 4 7 10 14 54 217 293 1080 3560
2025-12-03 10:30 6.03 57 74100 (1983) 2 (1964) 1200 4 7 10 14 54 217 293 1080 3560
2025-12-03 10:00 6.04 59 74100 (1983) 2 (1964) 1200 4 7 10 14 54 217 293 1080 3560
2025-12-03 09:30 6.04 59 74100 (1983) 2 (1964) 1200 4 7 10 14 54 217 293 1080 3560
2025-12-03 09:00 6.05 60 74100 (1983) 2 (1964) 1200 4 7 10 14 54 217 293 1080 3560
2025-12-03 08:30 6.05 60 74100 (1983) 2 (1964) 1200 4 7 10 14 54 217 293 1080 3560
2025-12-03 08:00 59 74100 (1983) 2 (1964) 1200 4 7 10 14 54 217 293 1080 3560
2025-12-03 07:30 6.05 60 74100 (1983) 2 (1964) 1200 4 7 10 14 54 217 293 1080 3560
2025-12-03 07:00 62 74100 (1983) 2 (1964) 1200 4 7 10 14 54 217 293 1080 3560
2025-12-03 06:30 6.07 63 74100 (1983) 2 (1964) 1200 4 7 10 14 54 217 293 1080 3560
2025-12-03 06:00 6.07 63 74100 (1983) 2 (1964) 1200 4 7 10 14 54 217 293 1080 3560
2025-12-03 05:30 6.07 63 74100 (1983) 2 (1964) 1200 4 7 10 14 54 217 293 1080 3560
2025-12-03 05:00 6.08 65 74100 (1983) 2 (1964) 1200 4 7 10 14 54 217 293 1080 3560
2025-12-03 04:30 6.08 65 74100 (1983) 2 (1964) 1200 4 7 10 14 54 217 293 1080 3560
2025-12-03 04:00 6.08 65 74100 (1983) 2 (1964) 1200 4 7 10 14 54 217 293 1080 3560
2025-12-03 03:30 6.08 65 74100 (1983) 2 (1964) 1200 4 7 10 14 54 217 293 1080 3560
2025-12-03 03:00 6.09 66 74100 (1983) 2 (1964) 1200 4 7 10 14 54 217 293 1080 3560
2025-12-03 02:30 66 74100 (1983) 2 (1964) 1200 4 7 10 14 54 217 293 1080 3560
2025-12-03 02:00 68 74100 (1983) 2 (1964) 1200 4 7 10 14 54 217 293 1080 3560
2025-12-03 01:30 6.10 68 74100 (1983) 2 (1964) 1200 4 7 10 14 54 217 293 1080 3560
2025-12-03 01:00 6.10 68 74100 (1983) 2 (1964) 1200 4 7 10 14 54 217 293 1080 3560
2025-12-03 00:30 69 74100 (1983) 2 (1964) 1200 4 7 10 14 54 217 293 1080 3560
2025-12-03 00:00 6.11 69 74100 (1983) 2 (1964) 1200 4 7 10 14 54 217 293 1080 3560
2025-12-02 23:30 6.11 69 74100 (1983) 2 (1964) 1200 4 7 10 14 54 217 293 1080 3560
2025-12-02 23:00 71 74100 (1983) 2 (1964) 1200 4 7 10 14 54 217 293 1080 3560
2025-12-02 22:30 6.12 71 8050 (1986) 2 (1964) 552 3 7 10 16 52 224 348 1540 4890
2025-12-02 22:00 6.12 71 8050 (1986) 2 (1964) 552 3 7 10 16 52 224 348 1540 4890
2025-12-02 21:30 6.12 71 8050 (1986) 2 (1964) 552 3 7 10 16 52 224 348 1540 4890
2025-12-02 21:00 6.13 72 8050 (1986) 2 (1964) 552 3 7 10 16 52 224 348 1540 4890
2025-12-02 20:30 72 8050 (1986) 2 (1964) 552 3 7 10 16 52 224 348 1540 4890
2025-12-02 20:00 6.14 74 8050 (1986) 2 (1964) 552 3 7 10 16 52 224 348 1540 4890
2025-12-02 19:30 6.14 74 8050 (1986) 2 (1964) 552 3 7 10 16 52 224 348 1540 4890
2025-12-02 19:00 6.14 74 8050 (1986) 2 (1964) 552 3 7 10 16 52 224 348 1540 4890
2025-12-02 18:30 74 8050 (1986) 2 (1964) 552 3 7 10 16 52 224 348 1540 4890
2025-12-02 18:00 6.14 74 8050 (1986) 2 (1964) 552 3 7 10 16 52 224 348 1540 4890
2025-12-02 17:30 6.14 74 8050 (1986) 2 (1964) 552 3 7 10 16 52 224 348 1540 4890
2025-12-02 17:00 6.14 74 8050 (1986) 2 (1964) 552 3 7 10 16 52 224 348 1540 4890
2025-12-02 16:30 74 8050 (1986) 2 (1964) 552 3 7 10 16 52 224 348 1540 4890
2025-12-02 16:00 6.13 72 8050 (1986) 2 (1964) 552 3 7 10 16 52 224 348 1540 4890
2025-12-02 15:30 6.12 71 8050 (1986) 2 (1964) 552 3 7 10 16 52 224 348 1540 4890
2025-12-02 15:00 6.11 69 8050 (1986) 2 (1964) 552 3 7 10 16 52 224 348 1540 4890
2025-12-02 14:30 59 8050 (1986) 2 (1964) 552 3 7 10 16 52 224 348 1540 4890
2025-12-02 14:00 55 8050 (1986) 2 (1964) 552 3 7 10 16 52 224 348 1540 4890
2025-12-02 13:30 6.00 53 8050 (1986) 2 (1964) 552 3 7 10 16 52 224 348 1540 4890
2025-12-02 13:00 5.97 49 8050 (1986) 2 (1964) 552 3 7 10 16 52 224 348 1540 4890
2025-12-02 12:30 52 8050 (1986) 2 (1964) 552 3 7 10 16 52 224 348 1540 4890
2025-12-02 12:00 5.99 52 8050 (1986) 2 (1964) 552 3 7 10 16 52 224 348 1540 4890
2025-12-02 11:30 5.98 51 8050 (1986) 2 (1964) 552 3 7 10 16 52 224 348 1540 4890
2025-12-02 11:00 6.02 56 8050 (1986) 2 (1964) 552 3 7 10 16 52 224 348 1540 4890
2025-12-02 10:30 6.02 56 8050 (1986) 2 (1964) 552 3 7 10 16 52 224 348 1540 4890
2025-12-02 10:00 49 8050 (1986) 2 (1964) 552 3 7 10 16 52 224 348 1540 4890
2025-12-02 09:30 6.02 56 8050 (1986) 2 (1964) 552 3 7 10 16 52 224 348 1540 4890
2025-12-02 09:00 6.02 56 8050 (1986) 2 (1964) 552 3 7 10 16 52 224 348 1540 4890
2025-12-02 08:30 56 8050 (1986) 2 (1964) 552 3 7 10 16 52 224 348 1540 4890
2025-12-02 08:00 6.00 53 8050 (1986) 2 (1964) 552 3 7 10 16 52 224 348 1540 4890
2025-12-02 07:30 6.01 55 8050 (1986) 2 (1964) 552 3 7 10 16 52 224 348 1540 4890
2025-12-02 07:00 6.01 55 8050 (1986) 2 (1964) 552 3 7 10 16 52 224 348 1540 4890
2025-12-02 06:30 5.99 52 8050 (1986) 2 (1964) 552 3 7 10 16 52 224 348 1540 4890
2025-12-02 06:00 5.97 49 8050 (1986) 2 (1964) 552 3 7 10 16 52 224 348 1540 4890
2025-12-02 05:30 5.95 47 8050 (1986) 2 (1964) 552 3 7 10 16 52 224 348 1540 4890
2025-12-02 05:00 5.92 43 8050 (1986) 2 (1964) 552 3 7 10 16 52 224 348 1540 4890
2025-12-02 04:30 5.89 40 8050 (1986) 2 (1964) 552 3 7 10 16 52 224 348 1540 4890
2025-12-02 04:00 5.87 38 8050 (1986) 2 (1964) 552 3 7 10 16 52 224 348 1540 4890
2025-12-02 03:30 5.85 36 8050 (1986) 2 (1964) 552 3 7 10 16 52 224 348 1540 4890
2025-12-02 03:00 5.84 35 8050 (1986) 2 (1964) 552 3 7 10 16 52 224 348 1540 4890
2025-12-02 02:30 5.84 35 8050 (1986) 2 (1964) 552 3 7 10 16 52 224 348 1540 4890
2025-12-02 02:00 34 8050 (1986) 2 (1964) 552 3 7 10 16 52 224 348 1540 4890
2025-12-02 01:30 34 8050 (1986) 2 (1964) 552 3 7 10 16 52 224 348 1540 4890
2025-12-02 01:00 5.83 34 8050 (1986) 2 (1964) 552 3 7 10 16 52 224 348 1540 4890
2025-12-02 00:30 34 8050 (1986) 2 (1964) 552 3 7 10 16 52 224 348 1540 4890
2025-12-02 00:00 5.82 33 8050 (1986) 2 (1964) 552 3 7 10 16 52 224 348 1540 4890
2025-12-01 23:30 5.83 34 8050 (1986) 2 (1964) 552 3 7 10 16 52 224 348 1540 4890
2025-12-01 23:00 34 8050 (1986) 2 (1964) 552 3 7 10 16 52 224 348 1540 4890
2025-12-01 22:30 5.83 34 21200 (1986) 1 (1954) 666 4 7 10 15 54 297 506 1390 2470
2025-12-01 22:00 34 21200 (1986) 1 (1954) 666 4 7 10 15 54 297 506 1390 2470
2025-12-01 21:30 5.82 33 21200 (1986) 1 (1954) 666 4 7 10 15 54 297 506 1390 2470
2025-12-01 21:00 5.83 34 21200 (1986) 1 (1954) 666 4 7 10 15 54 297 506 1390 2470
2025-12-01 20:30 5.83 34 21200 (1986) 1 (1954) 666 4 7 10 15 54 297 506 1390 2470
2025-12-01 20:00 34 21200 (1986) 1 (1954) 666 4 7 10 15 54 297 506 1390 2470
2025-12-01 19:30 5.83 34 21200 (1986) 1 (1954) 666 4 7 10 15 54 297 506 1390 2470
2025-12-01 19:00 5.83 34 21200 (1986) 1 (1954) 666 4 7 10 15 54 297 506 1390 2470
2025-12-01 18:30 5.83 34 21200 (1986) 1 (1954) 666 4 7 10 15 54 297 506 1390 2470
2025-12-01 18:00 5.83 34 21200 (1986) 1 (1954) 666 4 7 10 15 54 297 506 1390 2470
2025-12-01 17:30 5.83 34 21200 (1986) 1 (1954) 666 4 7 10 15 54 297 506 1390 2470
2025-12-01 17:00 5.83 34 21200 (1986) 1 (1954) 666 4 7 10 15 54 297 506 1390 2470
2025-12-01 16:30 5.83 34 21200 (1986) 1 (1954) 666 4 7 10 15 54 297 506 1390 2470
2025-12-01 16:00 34 21200 (1986) 1 (1954) 666 4 7 10 15 54 297 506 1390 2470
2025-12-01 15:30 5.83 34 21200 (1986) 1 (1954) 666 4 7 10 15 54 297 506 1390 2470
2025-12-01 15:00 5.83 34 21200 (1986) 1 (1954) 666 4 7 10 15 54 297 506 1390 2470
2025-12-01 14:30 5.82 33 21200 (1986) 1 (1954) 666 4 7 10 15 54 297 506 1390 2470
2025-12-01 14:00 5.83 34 21200 (1986) 1 (1954) 666 4 7 10 15 54 297 506 1390 2470
2025-12-01 13:30 5.82 33 21200 (1986) 1 (1954) 666 4 7 10 15 54 297 506 1390 2470
2025-12-01 13:00 33 21200 (1986) 1 (1954) 666 4 7 10 15 54 297 506 1390 2470
2025-12-01 12:30 5.82 33 21200 (1986) 1 (1954) 666 4 7 10 15 54 297 506 1390 2470
2025-12-01 12:00 5.82 33 21200 (1986) 1 (1954) 666 4 7 10 15 54 297 506 1390 2470
2025-12-01 11:30 5.82 33 21200 (1986) 1 (1954) 666 4 7 10 15 54 297 506 1390 2470
2025-12-01 11:00 5.82 33 21200 (1986) 1 (1954) 666 4 7 10 15 54 297 506 1390 2470
2025-12-01 10:30 5.82 33 21200 (1986) 1 (1954) 666 4 7 10 15 54 297 506 1390 2470
2025-12-01 10:00 5.81 32 21200 (1986) 1 (1954) 666 4 7 10 15 54 297 506 1390 2470
2025-12-01 09:30 5.76 28 21200 (1986) 1 (1954) 666 4 7 10 15 54 297 506 1390 2470
2025-12-01 09:00 5.77 29 21200 (1986) 1 (1954) 666 4 7 10 15 54 297 506 1390 2470
2025-12-01 08:30 5.78 29 21200 (1986) 1 (1954) 666 4 7 10 15 54 297 506 1390 2470
2025-12-01 08:00 5.82 33 21200 (1986) 1 (1954) 666 4 7 10 15 54 297 506 1390 2470
2025-12-01 07:30 5.81 32 21200 (1986) 1 (1954) 666 4 7 10 15 54 297 506 1390 2470
2025-12-01 07:00 5.82 33 21200 (1986) 1 (1954) 666 4 7 10 15 54 297 506 1390 2470
2025-12-01 06:30 5.82 33 21200 (1986) 1 (1954) 666 4 7 10 15 54 297 506 1390 2470
2025-12-01 06:00 5.82 33 21200 (1986) 1 (1954) 666 4 7 10 15 54 297 506 1390 2470
2025-12-01 05:30 5.82 33 21200 (1986) 1 (1954) 666 4 7 10 15 54 297 506 1390 2470
2025-12-01 05:00 5.82 33 21200 (1986) 1 (1954) 666 4 7 10 15 54 297 506 1390 2470
2025-12-01 04:30 5.78 29 21200 (1986) 1 (1954) 666 4 7 10 15 54 297 506 1390 2470
2025-12-01 04:00 33 21200 (1986) 1 (1954) 666 4 7 10 15 54 297 506 1390 2470
2025-12-01 03:30 5.82 33 21200 (1986) 1 (1954) 666 4 7 10 15 54 297 506 1390 2470
2025-12-01 03:00 5.82 33 21200 (1986) 1 (1954) 666 4 7 10 15 54 297 506 1390 2470
2025-12-01 02:30 5.82 33 21200 (1986) 1 (1954) 666 4 7 10 15 54 297 506 1390 2470
2025-12-01 02:00 33 21200 (1986) 1 (1954) 666 4 7 10 15 54 297 506 1390 2470
2025-12-01 01:30 5.82 33 21200 (1986) 1 (1954) 666 4 7 10 15 54 297 506 1390 2470
2025-12-01 01:00 5.82 33 21200 (1986) 1 (1954) 666 4 7 10 15 54 297 506 1390 2470
2025-12-01 00:30 5.82 33 21200 (1986) 1 (1954) 666 4 7 10 15 54 297 506 1390 2470
2025-12-01 00:00 33 21200 (1986) 1 (1954) 666 4 7 10 15 54 297 506 1390 2470
2025-11-30 23:30 5.79 30 21200 (1986) 1 (1954) 666 4 7 10 15 54 297 506 1390 2470
2025-11-30 23:00 5.82 33 21200 (1986) 1 (1954) 666 4 7 10 15 54 297 506 1390 2470
2025-11-30 22:30 5.81 32 17500 (1928) 1 (1954) 597 4 6 11 16 63 268 348 1270 2460
2025-11-30 22:00 5.82 33 17500 (1928) 1 (1954) 597 4 6 11 16 63 268 348 1270 2460
2025-11-30 21:30 5.82 33 17500 (1928) 1 (1954) 597 4 6 11 16 63 268 348 1270 2460
2025-11-30 21:00 5.82 33 17500 (1928) 1 (1954) 597 4 6 11 16 63 268 348 1270 2460
2025-11-30 20:30 5.82 33 17500 (1928) 1 (1954) 597 4 6 11 16 63 268 348 1270 2460
2025-11-30 20:00 5.82 33 17500 (1928) 1 (1954) 597 4 6 11 16 63 268 348 1270 2460
2025-11-30 19:30 5.82 33 17500 (1928) 1 (1954) 597 4 6 11 16 63 268 348 1270 2460
2025-11-30 19:00 5.82 33 17500 (1928) 1 (1954) 597 4 6 11 16 63 268 348 1270 2460
2025-11-30 18:30 5.82 33 17500 (1928) 1 (1954) 597 4 6 11 16 63 268 348 1270 2460
2025-11-30 18:00 5.82 33 17500 (1928) 1 (1954) 597 4 6 11 16 63 268 348 1270 2460
2025-11-30 17:30 5.77 29 17500 (1928) 1 (1954) 597 4 6 11 16 63 268 348 1270 2460
2025-11-30 17:00 5.80 31 17500 (1928) 1 (1954) 597 4 6 11 16 63 268 348 1270 2460
2025-11-30 16:30 5.78 29 17500 (1928) 1 (1954) 597 4 6 11 16 63 268 348 1270 2460
2025-11-30 16:00 5.80 31 17500 (1928) 1 (1954) 597 4 6 11 16 63 268 348 1270 2460
2025-11-30 15:30 5.82 33 17500 (1928) 1 (1954) 597 4 6 11 16 63 268 348 1270 2460
2025-11-30 15:00 5.82 33 17500 (1928) 1 (1954) 597 4 6 11 16 63 268 348 1270 2460
2025-11-30 14:30 5.82 33 17500 (1928) 1 (1954) 597 4 6 11 16 63 268 348 1270 2460
2025-11-30 14:00 5.82 33 17500 (1928) 1 (1954) 597 4 6 11 16 63 268 348 1270 2460
2025-11-30 13:30 5.75 27 17500 (1928) 1 (1954) 597 4 6 11 16 63 268 348 1270 2460
2025-11-30 13:00 5.77 29 17500 (1928) 1 (1954) 597 4 6 11 16 63 268 348 1270 2460
2025-11-30 12:30 5.78 29 17500 (1928) 1 (1954) 597 4 6 11 16 63 268 348 1270 2460
2025-11-30 12:00 5.75 27 17500 (1928) 1 (1954) 597 4 6 11 16 63 268 348 1270 2460
2025-11-30 11:30 5.79 30 17500 (1928) 1 (1954) 597 4 6 11 16 63 268 348 1270 2460
2025-11-30 11:00 5.76 28 17500 (1928) 1 (1954) 597 4 6 11 16 63 268 348 1270 2460
2025-11-30 10:30 5.77 29 17500 (1928) 1 (1954) 597 4 6 11 16 63 268 348 1270 2460
2025-11-30 10:00 5.77 29 17500 (1928) 1 (1954) 597 4 6 11 16 63 268 348 1270 2460
2025-11-30 09:30 5.77 29 17500 (1928) 1 (1954) 597 4 6 11 16 63 268 348 1270 2460
2025-11-30 09:00 5.80 31 17500 (1928) 1 (1954) 597 4 6 11 16 63 268 348 1270 2460
2025-11-30 08:30 5.77 29 17500 (1928) 1 (1954) 597 4 6 11 16 63 268 348 1270 2460
2025-11-30 08:00 5.77 29 17500 (1928) 1 (1954) 597 4 6 11 16 63 268 348 1270 2460
2025-11-30 07:30 5.76 28 17500 (1928) 1 (1954) 597 4 6 11 16 63 268 348 1270 2460
2025-11-30 07:00 5.77 29 17500 (1928) 1 (1954) 597 4 6 11 16 63 268 348 1270 2460
2025-11-30 06:30 5.79 30 17500 (1928) 1 (1954) 597 4 6 11 16 63 268 348 1270 2460
2025-11-30 06:00 5.78 29 17500 (1928) 1 (1954) 597 4 6 11 16 63 268 348 1270 2460
2025-11-30 05:30 5.79 30 17500 (1928) 1 (1954) 597 4 6 11 16 63 268 348 1270 2460
2025-11-30 05:00 5.77 29 17500 (1928) 1 (1954) 597 4 6 11 16 63 268 348 1270 2460
2025-11-30 04:30 5.78 29 17500 (1928) 1 (1954) 597 4 6 11 16 63 268 348 1270 2460
2025-11-30 04:00 5.77 29 17500 (1928) 1 (1954) 597 4 6 11 16 63 268 348 1270 2460
2025-11-30 03:30 5.80 31 17500 (1928) 1 (1954) 597 4 6 11 16 63 268 348 1270 2460
2025-11-30 03:00 5.78 29 17500 (1928) 1 (1954) 597 4 6 11 16 63 268 348 1270 2460
2025-11-30 02:30 5.78 29 17500 (1928) 1 (1954) 597 4 6 11 16 63 268 348 1270 2460
2025-11-30 02:00 5.75 27 17500 (1928) 1 (1954) 597 4 6 11 16 63 268 348 1270 2460
2025-11-30 01:30 30 17500 (1928) 1 (1954) 597 4 6 11 16 63 268 348 1270 2460
2025-11-30 01:00 5.79 30 17500 (1928) 1 (1954) 597 4 6 11 16 63 268 348 1270 2460
2025-11-30 00:30 5.79 30 17500 (1928) 1 (1954) 597 4 6 11 16 63 268 348 1270 2460
2025-11-30 00:00 5.77 29 17500 (1928) 1 (1954) 597 4 6 11 16 63 268 348 1270 2460
2025-11-29 23:30 29 17500 (1928) 1 (1954) 597 4 6 11 16 63 268 348 1270 2460
2025-11-29 23:00 5.78 29 17500 (1928) 1 (1954) 597 4 6 11 16 63 268 348 1270 2460
2025-11-29 22:30 5.79 30 13800 (1969) 1 (1954) 455 3 6 10 13 53 215 322 854 2740
2025-11-29 22:00 5.77 29 13800 (1969) 1 (1954) 455 3 6 10 13 53 215 322 854 2740
2025-11-29 21:30 5.79 30 13800 (1969) 1 (1954) 455 3 6 10 13 53 215 322 854 2740
2025-11-29 21:00 5.77 29 13800 (1969) 1 (1954) 455 3 6 10 13 53 215 322 854 2740
2025-11-29 20:30 5.77 29 13800 (1969) 1 (1954) 455 3 6 10 13 53 215 322 854 2740
2025-11-29 20:00 5.77 29 13800 (1969) 1 (1954) 455 3 6 10 13 53 215 322 854 2740
2025-11-29 19:30 5.79 30 13800 (1969) 1 (1954) 455 3 6 10 13 53 215 322 854 2740
2025-11-29 19:00 5.79 30 13800 (1969) 1 (1954) 455 3 6 10 13 53 215 322 854 2740
2025-11-29 18:30 5.80 31 13800 (1969) 1 (1954) 455 3 6 10 13 53 215 322 854 2740
2025-11-29 18:00 5.84 35 13800 (1969) 1 (1954) 455 3 6 10 13 53 215 322 854 2740
2025-11-29 17:30 5.84 35 13800 (1969) 1 (1954) 455 3 6 10 13 53 215 322 854 2740
2025-11-29 17:00 5.83 34 13800 (1969) 1 (1954) 455 3 6 10 13 53 215 322 854 2740
2025-11-29 16:30 5.83 34 13800 (1969) 1 (1954) 455 3 6 10 13 53 215 322 854 2740
2025-11-29 16:00 5.84 35 13800 (1969) 1 (1954) 455 3 6 10 13 53 215 322 854 2740
2025-11-29 15:30 5.83 34 13800 (1969) 1 (1954) 455 3 6 10 13 53 215 322 854 2740
2025-11-29 15:00 5.82 33 13800 (1969) 1 (1954) 455 3 6 10 13 53 215 322 854 2740
2025-11-29 14:30 5.83 34 13800 (1969) 1 (1954) 455 3 6 10 13 53 215 322 854 2740
2025-11-29 14:00 5.82 33 13800 (1969) 1 (1954) 455 3 6 10 13 53 215 322 854 2740
2025-11-29 13:30 5.82 33 13800 (1969) 1 (1954) 455 3 6 10 13 53 215 322 854 2740
2025-11-29 13:00 5.81 32 13800 (1969) 1 (1954) 455 3 6 10 13 53 215 322 854 2740
2025-11-29 12:30 5.83 34 13800 (1969) 1 (1954) 455 3 6 10 13 53 215 322 854 2740
2025-11-29 12:00 5.77 29 13800 (1969) 1 (1954) 455 3 6 10 13 53 215 322 854 2740
2025-11-29 11:30 5.77 29 13800 (1969) 1 (1954) 455 3 6 10 13 53 215 322 854 2740
2025-11-29 11:00 5.77 29 13800 (1969) 1 (1954) 455 3 6 10 13 53 215 322 854 2740
2025-11-29 10:30 5.78 29 13800 (1969) 1 (1954) 455 3 6 10 13 53 215 322 854 2740
2025-11-29 10:00 5.78 29 13800 (1969) 1 (1954) 455 3 6 10 13 53 215 322 854 2740
2025-11-29 09:30 5.76 28 13800 (1969) 1 (1954) 455 3 6 10 13 53 215 322 854 2740
2025-11-29 09:00 5.75 27 13800 (1969) 1 (1954) 455 3 6 10 13 53 215 322 854 2740
2025-11-29 08:30 5.75 27 13800 (1969) 1 (1954) 455 3 6 10 13 53 215 322 854 2740
2025-11-29 08:00 5.77 29 13800 (1969) 1 (1954) 455 3 6 10 13 53 215 322 854 2740
2025-11-29 07:30 5.74 26 13800 (1969) 1 (1954) 455 3 6 10 13 53 215 322 854 2740
2025-11-29 07:00 5.78 29 13800 (1969) 1 (1954) 455 3 6 10 13 53 215 322 854 2740
2025-11-29 06:30 26 13800 (1969) 1 (1954) 455 3 6 10 13 53 215 322 854 2740
2025-11-29 06:00 5.74 26 13800 (1969) 1 (1954) 455 3 6 10 13 53 215 322 854 2740
2025-11-29 05:30 5.74 26 13800 (1969) 1 (1954) 455 3 6 10 13 53 215 322 854 2740
2025-11-29 05:00 5.72 24 13800 (1969) 1 (1954) 455 3 6 10 13 53 215 322 854 2740
2025-11-29 04:30 5.73 25 13800 (1969) 1 (1954) 455 3 6 10 13 53 215 322 854 2740
2025-11-29 04:00 25 13800 (1969) 1 (1954) 455 3 6 10 13 53 215 322 854 2740
2025-11-29 03:30 5.72 24 13800 (1969) 1 (1954) 455 3 6 10 13 53 215 322 854 2740
2025-11-29 03:00 25 13800 (1969) 1 (1954) 455 3 6 10 13 53 215 322 854 2740
2025-11-29 02:30 5.71 24 13800 (1969) 1 (1954) 455 3 6 10 13 53 215 322 854 2740
2025-11-29 02:00 23 13800 (1969) 1 (1954) 455 3 6 10 13 53 215 322 854 2740
2025-11-29 01:30 5.78 29 13800 (1969) 1 (1954) 455 3 6 10 13 53 215 322 854 2740
2025-11-29 01:00 5.74 26 13800 (1969) 1 (1954) 455 3 6 10 13 53 215 322 854 2740
2025-11-29 00:30 5.78 29 13800 (1969) 1 (1954) 455 3 6 10 13 53 215 322 854 2740
2025-11-29 00:00 5.74 26 13800 (1969) 1 (1954) 455 3 6 10 13 53 215 322 854 2740
2025-11-28 23:30 25 13800 (1969) 1 (1954) 455 3 6 10 13 53 215 322 854 2740
2025-11-28 23:00 5.72 24 13800 (1969) 1 (1954) 455 3 6 10 13 53 215 322 854 2740
2025-11-28 22:30 5.70 23 10600 (2016) 1 (1954) 639 3 6 9 14 49 261 361 1170 4760
2025-11-28 22:00 5.71 24 10600 (2016) 1 (1954) 639 3 6 9 14 49 261 361 1170 4760
2025-11-28 21:30 5.74 26 10600 (2016) 1 (1954) 639 3 6 9 14 49 261 361 1170 4760
2025-11-28 21:00 5.72 24 10600 (2016) 1 (1954) 639 3 6 9 14 49 261 361 1170 4760
2025-11-28 20:30 5.74 26 10600 (2016) 1 (1954) 639 3 6 9 14 49 261 361 1170 4760
2025-11-28 20:00 5.74 26 10600 (2016) 1 (1954) 639 3 6 9 14 49 261 361 1170 4760
2025-11-28 19:30 5.73 25 10600 (2016) 1 (1954) 639 3 6 9 14 49 261 361 1170 4760
2025-11-28 19:00 5.73 25 10600 (2016) 1 (1954) 639 3 6 9 14 49 261 361 1170 4760
2025-11-28 18:30 5.74 26 10600 (2016) 1 (1954) 639 3 6 9 14 49 261 361 1170 4760
2025-11-28 18:00 5.77 29 10600 (2016) 1 (1954) 639 3 6 9 14 49 261 361 1170 4760
2025-11-28 17:30 5.72 24 10600 (2016) 1 (1954) 639 3 6 9 14 49 261 361 1170 4760
2025-11-28 17:00 5.77 29 10600 (2016) 1 (1954) 639 3 6 9 14 49 261 361 1170 4760
2025-11-28 16:30 5.80 31 10600 (2016) 1 (1954) 639 3 6 9 14 49 261 361 1170 4760
2025-11-28 16:00 5.78 29 10600 (2016) 1 (1954) 639 3 6 9 14 49 261 361 1170 4760
2025-11-28 15:30 5.79 30 10600 (2016) 1 (1954) 639 3 6 9 14 49 261 361 1170 4760
2025-11-28 15:00 5.74 26 10600 (2016) 1 (1954) 639 3 6 9 14 49 261 361 1170 4760
2025-11-28 14:30 5.80 31 10600 (2016) 1 (1954) 639 3 6 9 14 49 261 361 1170 4760
2025-11-28 14:00 5.80 31 10600 (2016) 1 (1954) 639 3 6 9 14 49 261 361 1170 4760
2025-11-28 13:30 5.81 32 10600 (2016) 1 (1954) 639 3 6 9 14 49 261 361 1170 4760
2025-11-28 13:00 5.81 32 10600 (2016) 1 (1954) 639 3 6 9 14 49 261 361 1170 4760
2025-11-28 12:30 5.80 31 10600 (2016) 1 (1954) 639 3 6 9 14 49 261 361 1170 4760
2025-11-28 12:00 5.81 32 10600 (2016) 1 (1954) 639 3 6 9 14 49 261 361 1170 4760
2025-11-28 11:30 5.81 32 10600 (2016) 1 (1954) 639 3 6 9 14 49 261 361 1170 4760
2025-11-28 11:00 5.77 29 10600 (2016) 1 (1954) 639 3 6 9 14 49 261 361 1170 4760
2025-11-28 10:30 5.81 32 10600 (2016) 1 (1954) 639 3 6 9 14 49 261 361 1170 4760
2025-11-28 10:00 5.81 32 10600 (2016) 1 (1954) 639 3 6 9 14 49 261 361 1170 4760
2025-11-28 09:30 5.81 32 10600 (2016) 1 (1954) 639 3 6 9 14 49 261 361 1170 4760
2025-11-28 09:00 5.81 32 10600 (2016) 1 (1954) 639 3 6 9 14 49 261 361 1170 4760
2025-11-28 08:30 5.81 32 10600 (2016) 1 (1954) 639 3 6 9 14 49 261 361 1170 4760
2025-11-28 08:00 5.81 32 10600 (2016) 1 (1954) 639 3 6 9 14 49 261 361 1170 4760
2025-11-28 07:30 5.82 33 10600 (2016) 1 (1954) 639 3 6 9 14 49 261 361 1170 4760
2025-11-28 07:00 5.82 33 10600 (2016) 1 (1954) 639 3 6 9 14 49 261 361 1170 4760
2025-11-28 06:30 5.82 33 10600 (2016) 1 (1954) 639 3 6 9 14 49 261 361 1170 4760
2025-11-28 06:00 5.83 34 10600 (2016) 1 (1954) 639 3 6 9 14 49 261 361 1170 4760
2025-11-28 05:30 5.83 34 10600 (2016) 1 (1954) 639 3 6 9 14 49 261 361 1170 4760
2025-11-28 05:00 5.83 34 10600 (2016) 1 (1954) 639 3 6 9 14 49 261 361 1170 4760
2025-11-28 04:30 5.83 34 10600 (2016) 1 (1954) 639 3 6 9 14 49 261 361 1170 4760
2025-11-28 04:00 5.83 34 10600 (2016) 1 (1954) 639 3 6 9 14 49 261 361 1170 4760
2025-11-28 03:30 5.83 34 10600 (2016) 1 (1954) 639 3 6 9 14 49 261 361 1170 4760
2025-11-28 03:00 5.83 34 10600 (2016) 1 (1954) 639 3 6 9 14 49 261 361 1170 4760
2025-11-28 02:30 5.83 34 10600 (2016) 1 (1954) 639 3 6 9 14 49 261 361 1170 4760
2025-11-28 02:00 34 10600 (2016) 1 (1954) 639 3 6 9 14 49 261 361 1170 4760
2025-11-28 01:30 5.83 34 10600 (2016) 1 (1954) 639 3 6 9 14 49 261 361 1170 4760
2025-11-28 01:00 35 10600 (2016) 1 (1954) 639 3 6 9 14 49 261 361 1170 4760
2025-11-28 00:30 5.84 35 10600 (2016) 1 (1954) 639 3 6 9 14 49 261 361 1170 4760
2025-11-28 00:00 5.84 35 10600 (2016) 1 (1954) 639 3 6 9 14 49 261 361 1170 4760
2025-11-27 23:30 35 10600 (2016) 1 (1954) 639 3 6 9 14 49 261 361 1170 4760
2025-11-27 23:00 5.84 35 10600 (2016) 1 (1954) 639 3 6 9 14 49 261 361 1170 4760
2025-11-27 22:30 5.84 35 13900 (1986) 2 (1954) 607 4 7 9 11 45 253 367 1160 4200
2025-11-27 22:00 5.84 35 13900 (1986) 2 (1954) 607 4 7 9 11 45 253 367 1160 4200
2025-11-27 21:30 5.84 35 13900 (1986) 2 (1954) 607 4 7 9 11 45 253 367 1160 4200
2025-11-27 21:00 5.84 35 13900 (1986) 2 (1954) 607 4 7 9 11 45 253 367 1160 4200
2025-11-27 20:30 5.85 36 13900 (1986) 2 (1954) 607 4 7 9 11 45 253 367 1160 4200
2025-11-27 20:00 5.85 36 13900 (1986) 2 (1954) 607 4 7 9 11 45 253 367 1160 4200
2025-11-27 19:30 5.85 36 13900 (1986) 2 (1954) 607 4 7 9 11 45 253 367 1160 4200
2025-11-27 19:00 5.85 36 13900 (1986) 2 (1954) 607 4 7 9 11 45 253 367 1160 4200
2025-11-27 18:30 5.85 36 13900 (1986) 2 (1954) 607 4 7 9 11 45 253 367 1160 4200
2025-11-27 18:00 5.85 36 13900 (1986) 2 (1954) 607 4 7 9 11 45 253 367 1160 4200
2025-11-27 17:30 5.85 36 13900 (1986) 2 (1954) 607 4 7 9 11 45 253 367 1160 4200
2025-11-27 17:00 5.85 36 13900 (1986) 2 (1954) 607 4 7 9 11 45 253 367 1160 4200
2025-11-27 16:30 5.85 36 13900 (1986) 2 (1954) 607 4 7 9 11 45 253 367 1160 4200
2025-11-27 16:00 5.81 32 13900 (1986) 2 (1954) 607 4 7 9 11 45 253 367 1160 4200
2025-11-27 15:30 5.85 36 13900 (1986) 2 (1954) 607 4 7 9 11 45 253 367 1160 4200
2025-11-27 15:00 5.78 29 13900 (1986) 2 (1954) 607 4 7 9 11 45 253 367 1160 4200
2025-11-27 14:30 5.85 36 13900 (1986) 2 (1954) 607 4 7 9 11 45 253 367 1160 4200
2025-11-27 14:00 5.85 36 13900 (1986) 2 (1954) 607 4 7 9 11 45 253 367 1160 4200
2025-11-27 13:30 5.80 31 13900 (1986) 2 (1954) 607 4 7 9 11 45 253 367 1160 4200
2025-11-27 13:00 5.80 31 13900 (1986) 2 (1954) 607 4 7 9 11 45 253 367 1160 4200
2025-11-27 12:30 5.80 31 13900 (1986) 2 (1954) 607 4 7 9 11 45 253 367 1160 4200
2025-11-27 12:00 5.82 33 13900 (1986) 2 (1954) 607 4 7 9 11 45 253 367 1160 4200
2025-11-27 11:30 5.80 31 13900 (1986) 2 (1954) 607 4 7 9 11 45 253 367 1160 4200
2025-11-27 11:00 5.79 30 13900 (1986) 2 (1954) 607 4 7 9 11 45 253 367 1160 4200
2025-11-27 10:30 5.83 34 13900 (1986) 2 (1954) 607 4 7 9 11 45 253 367 1160 4200
2025-11-27 10:00 5.80 31 13900 (1986) 2 (1954) 607 4 7 9 11 45 253 367 1160 4200
2025-11-27 09:30 5.79 13900 (1986) 2 (1954) 607 4 7 9 11 45 253 367 1160 4200
2025-11-27 09:00 5.84 13900 (1986) 2 (1954) 607 4 7 9 11 45 253 367 1160 4200
2025-11-27 08:30 5.79 13900 (1986) 2 (1954) 607 4 7 9 11 45 253 367 1160 4200
2025-11-27 08:00 5.84 13900 (1986) 2 (1954) 607 4 7 9 11 45 253 367 1160 4200
2025-11-27 07:30 5.84 35 13900 (1986) 2 (1954) 607 4 7 9 11 45 253 367 1160 4200
2025-11-27 07:00 5.79 13900 (1986) 2 (1954) 607 4 7 9 11 45 253 367 1160 4200
2025-11-27 06:30 5.84 13900 (1986) 2 (1954) 607 4 7 9 11 45 253 367 1160 4200
2025-11-27 06:00 5.84 13900 (1986) 2 (1954) 607 4 7 9 11 45 253 367 1160 4200
2025-11-27 05:30 5.83 34 13900 (1986) 2 (1954) 607 4 7 9 11 45 253 367 1160 4200
2025-11-27 05:00 5.83 34 13900 (1986) 2 (1954) 607 4 7 9 11 45 253 367 1160 4200
2025-11-27 04:30 5.83 34 13900 (1986) 2 (1954) 607 4 7 9 11 45 253 367 1160 4200
2025-11-27 04:00 5.83 34 13900 (1986) 2 (1954) 607 4 7 9 11 45 253 367 1160 4200
2025-11-27 03:30 5.83 34 13900 (1986) 2 (1954) 607 4 7 9 11 45 253 367 1160 4200
2025-11-27 03:00 5.83 34 13900 (1986) 2 (1954) 607 4 7 9 11 45 253 367 1160 4200
2025-11-27 02:30 5.83 34 13900 (1986) 2 (1954) 607 4 7 9 11 45 253 367 1160 4200
2025-11-27 02:00 34 13900 (1986) 2 (1954) 607 4 7 9 11 45 253 367 1160 4200
2025-11-27 01:30 5.84 35 13900 (1986) 2 (1954) 607 4 7 9 11 45 253 367 1160 4200
2025-11-27 01:00 5.83 34 13900 (1986) 2 (1954) 607 4 7 9 11 45 253 367 1160 4200
2025-11-27 00:30 5.83 34 13900 (1986) 2 (1954) 607 4 7 9 11 45 253 367 1160 4200
2025-11-27 00:00 5.81 32 13900 (1986) 2 (1954) 607 4 7 9 11 45 253 367 1160 4200
2025-11-26 23:30 35 13900 (1986) 2 (1954) 607 4 7 9 11 45 253 367 1160 4200
2025-11-26 23:00 5.84 35 13900 (1986) 2 (1954) 607 4 7 9 11 45 253 367 1160 4200
2025-11-26 22:30 5.84 35 18400 (1927) 2 (1954) 525 3 6 9 10 43 216 395 839 2000
2025-11-26 22:00 5.84 35 18400 (1927) 2 (1954) 525 3 6 9 10 43 216 395 839 2000
2025-11-26 21:30 5.84 35 18400 (1927) 2 (1954) 525 3 6 9 10 43 216 395 839 2000
2025-11-26 21:00 5.85 36 18400 (1927) 2 (1954) 525 3 6 9 10 43 216 395 839 2000
2025-11-26 20:30 5.83 34 18400 (1927) 2 (1954) 525 3 6 9 10 43 216 395 839 2000
2025-11-26 20:00 5.85 36 18400 (1927) 2 (1954) 525 3 6 9 10 43 216 395 839 2000
2025-11-26 19:30 5.80 31 18400 (1927) 2 (1954) 525 3 6 9 10 43 216 395 839 2000
2025-11-26 19:00 5.79 30 18400 (1927) 2 (1954) 525 3 6 9 10 43 216 395 839 2000
2025-11-26 18:30 5.79 30 18400 (1927) 2 (1954) 525 3 6 9 10 43 216 395 839 2000
2025-11-26 18:00 5.81 32 18400 (1927) 2 (1954) 525 3 6 9 10 43 216 395 839 2000
2025-11-26 17:30 5.80 31 18400 (1927) 2 (1954) 525 3 6 9 10 43 216 395 839 2000
2025-11-26 17:00 5.81 32 18400 (1927) 2 (1954) 525 3 6 9 10 43 216 395 839 2000
2025-11-26 16:30 5.81 32 18400 (1927) 2 (1954) 525 3 6 9 10 43 216 395 839 2000
2025-11-26 16:00 5.81 32 18400 (1927) 2 (1954) 525 3 6 9 10 43 216 395 839 2000
2025-11-26 15:30 5.79 30 18400 (1927) 2 (1954) 525 3 6 9 10 43 216 395 839 2000
2025-11-26 15:00 5.79 30 18400 (1927) 2 (1954) 525 3 6 9 10 43 216 395 839 2000
2025-11-26 14:30 5.80 31 18400 (1927) 2 (1954) 525 3 6 9 10 43 216 395 839 2000
2025-11-26 14:00 5.82 33 18400 (1927) 2 (1954) 525 3 6 9 10 43 216 395 839 2000
2025-11-26 13:30 5.81 32 18400 (1927) 2 (1954) 525 3 6 9 10 43 216 395 839 2000
2025-11-26 13:00 5.84 35 18400 (1927) 2 (1954) 525 3 6 9 10 43 216 395 839 2000
2025-11-26 12:30 5.83 34 18400 (1927) 2 (1954) 525 3 6 9 10 43 216 395 839 2000
2025-11-26 12:00 5.81 32 18400 (1927) 2 (1954) 525 3 6 9 10 43 216 395 839 2000
2025-11-26 11:30 5.84 35 18400 (1927) 2 (1954) 525 3 6 9 10 43 216 395 839 2000
2025-11-26 11:00 5.84 35 18400 (1927) 2 (1954) 525 3 6 9 10 43 216 395 839 2000
2025-11-26 10:30 5.83 34 18400 (1927) 2 (1954) 525 3 6 9 10 43 216 395 839 2000
2025-11-26 10:00 5.86 37 18400 (1927) 2 (1954) 525 3 6 9 10 43 216 395 839 2000
2025-11-26 09:30 5.82 33 18400 (1927) 2 (1954) 525 3 6 9 10 43 216 395 839 2000
2025-11-26 09:00 5.84 35 18400 (1927) 2 (1954) 525 3 6 9 10 43 216 395 839 2000
2025-11-26 08:30 5.84 35 18400 (1927) 2 (1954) 525 3 6 9 10 43 216 395 839 2000
2025-11-26 08:00 5.85 36 18400 (1927) 2 (1954) 525 3 6 9 10 43 216 395 839 2000
2025-11-26 07:30 5.85 36 18400 (1927) 2 (1954) 525 3 6 9 10 43 216 395 839 2000
2025-11-26 07:00 5.85 36 18400 (1927) 2 (1954) 525 3 6 9 10 43 216 395 839 2000
2025-11-26 06:30 5.86 37 18400 (1927) 2 (1954) 525 3 6 9 10 43 216 395 839 2000
2025-11-26 06:00 5.86 37 18400 (1927) 2 (1954) 525 3 6 9 10 43 216 395 839 2000
2025-11-26 05:30 5.86 37 18400 (1927) 2 (1954) 525 3 6 9 10 43 216 395 839 2000
2025-11-26 05:00 5.85 36 18400 (1927) 2 (1954) 525 3 6 9 10 43 216 395 839 2000
2025-11-26 04:30 5.84 35 18400 (1927) 2 (1954) 525 3 6 9 10 43 216 395 839 2000
2025-11-26 04:00 5.85 36 18400 (1927) 2 (1954) 525 3 6 9 10 43 216 395 839 2000
2025-11-26 03:30 5.86 37 18400 (1927) 2 (1954) 525 3 6 9 10 43 216 395 839 2000
2025-11-26 03:00 5.87 38 18400 (1927) 2 (1954) 525 3 6 9 10 43 216 395 839 2000
2025-11-26 02:30 5.88 39 18400 (1927) 2 (1954) 525 3 6 9 10 43 216 395 839 2000
2025-11-26 02:00 39 18400 (1927) 2 (1954) 525 3 6 9 10 43 216 395 839 2000
2025-11-26 01:30 5.88 39 18400 (1927) 2 (1954) 525 3 6 9 10 43 216 395 839 2000
2025-11-26 01:00 5.87 38 18400 (1927) 2 (1954) 525 3 6 9 10 43 216 395 839 2000
2025-11-26 00:30 5.86 37 18400 (1927) 2 (1954) 525 3 6 9 10 43 216 395 839 2000
2025-11-26 00:00 5.87 38 18400 (1927) 2 (1954) 525 3 6 9 10 43 216 395 839 2000
2025-11-25 23:30 5.84 35 18400 (1927) 2 (1954) 525 3 6 9 10 43 216 395 839 2000
2025-11-25 23:00 5.87 38 18400 (1927) 2 (1954) 525 3 6 9 10 43 216 395 839 2000
2025-11-25 22:30 5.85 36 12000 (2005) 2 (1964) 398 4 6 9 10 41 186 304 1130 1940
2025-11-25 22:00 5.82 33 12000 (2005) 2 (1964) 398 4 6 9 10 41 186 304 1130 1940
2025-11-25 21:30 5.84 35 12000 (2005) 2 (1964) 398 4 6 9 10 41 186 304 1130 1940
2025-11-25 21:00 5.86 37 12000 (2005) 2 (1964) 398 4 6 9 10 41 186 304 1130 1940
2025-11-25 20:30 5.83 34 12000 (2005) 2 (1964) 398 4 6 9 10 41 186 304 1130 1940
2025-11-25 20:00 5.79 30 12000 (2005) 2 (1964) 398 4 6 9 10 41 186 304 1130 1940
2025-11-25 19:30 5.82 33 12000 (2005) 2 (1964) 398 4 6 9 10 41 186 304 1130 1940
2025-11-25 19:00 5.78 29 12000 (2005) 2 (1964) 398 4 6 9 10 41 186 304 1130 1940
2025-11-25 18:30 5.78 29 12000 (2005) 2 (1964) 398 4 6 9 10 41 186 304 1130 1940
2025-11-25 18:00 5.82 33 12000 (2005) 2 (1964) 398 4 6 9 10 41 186 304 1130 1940
2025-11-25 17:30 5.82 33 12000 (2005) 2 (1964) 398 4 6 9 10 41 186 304 1130 1940
2025-11-25 17:00 5.81 32 12000 (2005) 2 (1964) 398 4 6 9 10 41 186 304 1130 1940
2025-11-25 16:30 5.80 31 12000 (2005) 2 (1964) 398 4 6 9 10 41 186 304 1130 1940
2025-11-25 16:00 5.78 29 12000 (2005) 2 (1964) 398 4 6 9 10 41 186 304 1130 1940
2025-11-25 15:30 5.76 28 12000 (2005) 2 (1964) 398 4 6 9 10 41 186 304 1130 1940
2025-11-25 15:00 28 12000 (2005) 2 (1964) 398 4 6 9 10 41 186 304 1130 1940
2025-11-25 14:30 5.76 28 12000 (2005) 2 (1964) 398 4 6 9 10 41 186 304 1130 1940
2025-11-25 14:00 5.76 28 12000 (2005) 2 (1964) 398 4 6 9 10 41 186 304 1130 1940
2025-11-25 13:30 5.76 28 12000 (2005) 2 (1964) 398 4 6 9 10 41 186 304 1130 1940
2025-11-25 13:00 5.78 29 12000 (2005) 2 (1964) 398 4 6 9 10 41 186 304 1130 1940
2025-11-25 12:30 5.77 29 12000 (2005) 2 (1964) 398 4 6 9 10 41 186 304 1130 1940
2025-11-25 12:00 5.82 33 12000 (2005) 2 (1964) 398 4 6 9 10 41 186 304 1130 1940
2025-11-25 11:30 5.78 29 12000 (2005) 2 (1964) 398 4 6 9 10 41 186 304 1130 1940
2025-11-25 11:00 5.82 33 12000 (2005) 2 (1964) 398 4 6 9 10 41 186 304 1130 1940
2025-11-25 10:30 5.81 32 12000 (2005) 2 (1964) 398 4 6 9 10 41 186 304 1130 1940
2025-11-25 10:00 5.82 33 12000 (2005) 2 (1964) 398 4 6 9 10 41 186 304 1130 1940
2025-11-25 09:30 5.82 33 12000 (2005) 2 (1964) 398 4 6 9 10 41 186 304 1130 1940
2025-11-25 09:00 5.82 33 12000 (2005) 2 (1964) 398 4 6 9 10 41 186 304 1130 1940
2025-11-25 08:30 5.82 33 12000 (2005) 2 (1964) 398 4 6 9 10 41 186 304 1130 1940
2025-11-25 08:00 5.82 33 12000 (2005) 2 (1964) 398 4 6 9 10 41 186 304 1130 1940
2025-11-25 07:30 5.82 33 12000 (2005) 2 (1964) 398 4 6 9 10 41 186 304 1130 1940
2025-11-25 07:00 5.82 33 12000 (2005) 2 (1964) 398 4 6 9 10 41 186 304 1130 1940
2025-11-25 06:30 5.82 33 12000 (2005) 2 (1964) 398 4 6 9 10 41 186 304 1130 1940
2025-11-25 06:00 5.82 33 12000 (2005) 2 (1964) 398 4 6 9 10 41 186 304 1130 1940
2025-11-25 05:30 5.82 33 12000 (2005) 2 (1964) 398 4 6 9 10 41 186 304 1130 1940
2025-11-25 05:00 5.82 33 12000 (2005) 2 (1964) 398 4 6 9 10 41 186 304 1130 1940
2025-11-25 04:30 5.83 34 12000 (2005) 2 (1964) 398 4 6 9 10 41 186 304 1130 1940
2025-11-25 04:00 5.83 34 12000 (2005) 2 (1964) 398 4 6 9 10 41 186 304 1130 1940
2025-11-25 03:30 5.83 34 12000 (2005) 2 (1964) 398 4 6 9 10 41 186 304 1130 1940
2025-11-25 03:00 5.83 34 12000 (2005) 2 (1964) 398 4 6 9 10 41 186 304 1130 1940
2025-11-25 02:30 5.83 34 12000 (2005) 2 (1964) 398 4 6 9 10 41 186 304 1130 1940
2025-11-25 02:00 5.83 34 12000 (2005) 2 (1964) 398 4 6 9 10 41 186 304 1130 1940
2025-11-25 01:30 5.83 34 12000 (2005) 2 (1964) 398 4 6 9 10 41 186 304 1130 1940
2025-11-25 01:00 35 12000 (2005) 2 (1964) 398 4 6 9 10 41 186 304 1130 1940
2025-11-25 00:30 5.84 35 12000 (2005) 2 (1964) 398 4 6 9 10 41 186 304 1130 1940
2025-11-25 00:00 5.84 35 12000 (2005) 2 (1964) 398 4 6 9 10 41 186 304 1130 1940
2025-11-24 23:30 5.84 35 12000 (2005) 2 (1964) 398 4 6 9 10 41 186 304 1130 1940
2025-11-24 23:00 5.84 35 12000 (2005) 2 (1964) 398 4 6 9 10 41 186 304 1130 1940
2025-11-24 22:30 34 7420 (2005) 2 (1964) 426 3 6 9 12 41 161 235 2040 2840
2025-11-24 22:00 5.84 35 7420 (2005) 2 (1964) 426 3 6 9 12 41 161 235 2040 2840
2025-11-24 21:30 5.85 36 7420 (2005) 2 (1964) 426 3 6 9 12 41 161 235 2040 2840
2025-11-24 21:00 5.84 35 7420 (2005) 2 (1964) 426 3 6 9 12 41 161 235 2040 2840
2025-11-24 20:30 33 7420 (2005) 2 (1964) 426 3 6 9 12 41 161 235 2040 2840
2025-11-24 20:00 5.84 35 7420 (2005) 2 (1964) 426 3 6 9 12 41 161 235 2040 2840
2025-11-24 19:30 5.85 36 7420 (2005) 2 (1964) 426 3 6 9 12 41 161 235 2040 2840
2025-11-24 19:00 5.83 34 7420 (2005) 2 (1964) 426 3 6 9 12 41 161 235 2040 2840
2025-11-24 18:30 5.83 34 7420 (2005) 2 (1964) 426 3 6 9 12 41 161 235 2040 2840
2025-11-24 18:00 5.81 32 7420 (2005) 2 (1964) 426 3 6 9 12 41 161 235 2040 2840
2025-11-24 17:30 5.86 37 7420 (2005) 2 (1964) 426 3 6 9 12 41 161 235 2040 2840
2025-11-24 17:00 5.85 36 7420 (2005) 2 (1964) 426 3 6 9 12 41 161 235 2040 2840
2025-11-24 16:30 5.80 31 7420 (2005) 2 (1964) 426 3 6 9 12 41 161 235 2040 2840
2025-11-24 16:00 5.82 33 7420 (2005) 2 (1964) 426 3 6 9 12 41 161 235 2040 2840
2025-11-24 15:30 5.86 37 7420 (2005) 2 (1964) 426 3 6 9 12 41 161 235 2040 2840
2025-11-24 15:00 5.78 29 7420 (2005) 2 (1964) 426 3 6 9 12 41 161 235 2040 2840
2025-11-24 14:30 32 7420 (2005) 2 (1964) 426 3 6 9 12 41 161 235 2040 2840
2025-11-24 14:00 5.81 32 7420 (2005) 2 (1964) 426 3 6 9 12 41 161 235 2040 2840
2025-11-24 13:30 33 7420 (2005) 2 (1964) 426 3 6 9 12 41 161 235 2040 2840
2025-11-24 13:00 5.80 31 7420 (2005) 2 (1964) 426 3 6 9 12 41 161 235 2040 2840
2025-11-24 12:30 5.88 39 7420 (2005) 2 (1964) 426 3 6 9 12 41 161 235 2040 2840
2025-11-24 12:00 5.88 39 7420 (2005) 2 (1964) 426 3 6 9 12 41 161 235 2040 2840
2025-11-24 11:30 5.84 35 7420 (2005) 2 (1964) 426 3 6 9 12 41 161 235 2040 2840
2025-11-24 11:00 5.82 33 7420 (2005) 2 (1964) 426 3 6 9 12 41 161 235 2040 2840
2025-11-24 10:30 5.84 35 7420 (2005) 2 (1964) 426 3 6 9 12 41 161 235 2040 2840
2025-11-24 10:00 5.84 35 7420 (2005) 2 (1964) 426 3 6 9 12 41 161 235 2040 2840
2025-11-24 09:30 5.88 39 7420 (2005) 2 (1964) 426 3 6 9 12 41 161 235 2040 2840
2025-11-24 09:00 5.89 40 7420 (2005) 2 (1964) 426 3 6 9 12 41 161 235 2040 2840
2025-11-24 08:30 5.90 41 7420 (2005) 2 (1964) 426 3 6 9 12 41 161 235 2040 2840
2025-11-24 08:00 5.90 41 7420 (2005) 2 (1964) 426 3 6 9 12 41 161 235 2040 2840
2025-11-24 07:30 5.87 38 7420 (2005) 2 (1964) 426 3 6 9 12 41 161 235 2040 2840
2025-11-24 07:00 5.89 40 7420 (2005) 2 (1964) 426 3 6 9 12 41 161 235 2040 2840
2025-11-24 06:30 5.90 41 7420 (2005) 2 (1964) 426 3 6 9 12 41 161 235 2040 2840
2025-11-24 06:00 5.91 42 7420 (2005) 2 (1964) 426 3 6 9 12 41 161 235 2040 2840
2025-11-24 05:30 5.88 39 7420 (2005) 2 (1964) 426 3 6 9 12 41 161 235 2040 2840
2025-11-24 05:00 5.91 42 7420 (2005) 2 (1964) 426 3 6 9 12 41 161 235 2040 2840
2025-11-24 04:30 5.92 43 7420 (2005) 2 (1964) 426 3 6 9 12 41 161 235 2040 2840
2025-11-24 04:00 5.92 43 7420 (2005) 2 (1964) 426 3 6 9 12 41 161 235 2040 2840
2025-11-24 03:30 5.92 43 7420 (2005) 2 (1964) 426 3 6 9 12 41 161 235 2040 2840
2025-11-24 03:00 5.92 43 7420 (2005) 2 (1964) 426 3 6 9 12 41 161 235 2040 2840
2025-11-24 02:30 5.92 43 7420 (2005) 2 (1964) 426 3 6 9 12 41 161 235 2040 2840
2025-11-24 02:00 45 7420 (2005) 2 (1964) 426 3 6 9 12 41 161 235 2040 2840
2025-11-24 01:30 5.93 45 7420 (2005) 2 (1964) 426 3 6 9 12 41 161 235 2040 2840
2025-11-24 01:00 5.93 45 7420 (2005) 2 (1964) 426 3 6 9 12 41 161 235 2040 2840
2025-11-24 00:30 5.93 45 7420 (2005) 2 (1964) 426 3 6 9 12 41 161 235 2040 2840
2025-11-24 00:00 5.93 45 7420 (2005) 2 (1964) 426 3 6 9 12 41 161 235 2040 2840
2025-11-23 23:30 43 7420 (2005) 2 (1964) 426 3 6 9 12 41 161 235 2040 2840
2025-11-23 23:00 5.92 43 7420 (2005) 2 (1964) 426 3 6 9 12 41 161 235 2040 2840
2025-11-23 22:30 5.92 43 12900 (1993) 2 (1990) 433 3 6 9 10 42 160 219 674 1480
2025-11-23 22:00 5.92 43 12900 (1993) 2 (1990) 433 3 6 9 10 42 160 219 674 1480
2025-11-23 21:30 5.91 42 12900 (1993) 2 (1990) 433 3 6 9 10 42 160 219 674 1480
2025-11-23 21:00 5.91 42 12900 (1993) 2 (1990) 433 3 6 9 10 42 160 219 674 1480
2025-11-23 20:30 5.90 41 12900 (1993) 2 (1990) 433 3 6 9 10 42 160 219 674 1480
2025-11-23 20:00 5.89 40 12900 (1993) 2 (1990) 433 3 6 9 10 42 160 219 674 1480
2025-11-23 19:30 5.89 40 12900 (1993) 2 (1990) 433 3 6 9 10 42 160 219 674 1480
2025-11-23 19:00 5.88 39 12900 (1993) 2 (1990) 433 3 6 9 10 42 160 219 674 1480
2025-11-23 18:30 5.88 39 12900 (1993) 2 (1990) 433 3 6 9 10 42 160 219 674 1480
2025-11-23 18:00 5.87 38 12900 (1993) 2 (1990) 433 3 6 9 10 42 160 219 674 1480
2025-11-23 17:30 5.87 38 12900 (1993) 2 (1990) 433 3 6 9 10 42 160 219 674 1480
2025-11-23 17:00 5.86 37 12900 (1993) 2 (1990) 433 3 6 9 10 42 160 219 674 1480
2025-11-23 16:30 5.86 37 12900 (1993) 2 (1990) 433 3 6 9 10 42 160 219 674 1480
2025-11-23 16:00 5.86 37 12900 (1993) 2 (1990) 433 3 6 9 10 42 160 219 674 1480
2025-11-23 15:30 5.86 37 12900 (1993) 2 (1990) 433 3 6 9 10 42 160 219 674 1480
2025-11-23 15:00 5.87 38 12900 (1993) 2 (1990) 433 3 6 9 10 42 160 219 674 1480
2025-11-23 14:30 5.87 38 12900 (1993) 2 (1990) 433 3 6 9 10 42 160 219 674 1480
2025-11-23 14:00 5.87 38 12900 (1993) 2 (1990) 433 3 6 9 10 42 160 219 674 1480
2025-11-23 13:30 5.88 39 12900 (1993) 2 (1990) 433 3 6 9 10 42 160 219 674 1480
2025-11-23 13:00 5.88 39 12900 (1993) 2 (1990) 433 3 6 9 10 42 160 219 674 1480
2025-11-23 12:30 5.89 40 12900 (1993) 2 (1990) 433 3 6 9 10 42 160 219 674 1480
2025-11-23 12:00 5.89 40 12900 (1993) 2 (1990) 433 3 6 9 10 42 160 219 674 1480
2025-11-23 11:30 5.90 41 12900 (1993) 2 (1990) 433 3 6 9 10 42 160 219 674 1480
2025-11-23 11:00 5.90 41 12900 (1993) 2 (1990) 433 3 6 9 10 42 160 219 674 1480
2025-11-23 10:30 5.91 42 12900 (1993) 2 (1990) 433 3 6 9 10 42 160 219 674 1480
2025-11-23 10:00 5.91 42 12900 (1993) 2 (1990) 433 3 6 9 10 42 160 219 674 1480
2025-11-23 09:30 5.92 43 12900 (1993) 2 (1990) 433 3 6 9 10 42 160 219 674 1480
2025-11-23 09:00 5.92 43 12900 (1993) 2 (1990) 433 3 6 9 10 42 160 219 674 1480
2025-11-23 08:30 5.93 45 12900 (1993) 2 (1990) 433 3 6 9 10 42 160 219 674 1480
2025-11-23 08:00 5.93 45 12900 (1993) 2 (1990) 433 3 6 9 10 42 160 219 674 1480
2025-11-23 07:30 5.94 46 12900 (1993) 2 (1990) 433 3 6 9 10 42 160 219 674 1480
2025-11-23 07:00 5.95 47 12900 (1993) 2 (1990) 433 3 6 9 10 42 160 219 674 1480
2025-11-23 06:30 5.95 47 12900 (1993) 2 (1990) 433 3 6 9 10 42 160 219 674 1480
2025-11-23 06:00 5.96 48 12900 (1993) 2 (1990) 433 3 6 9 10 42 160 219 674 1480
2025-11-23 05:30 5.96 48 12900 (1993) 2 (1990) 433 3 6 9 10 42 160 219 674 1480
2025-11-23 05:00 5.97 49 12900 (1993) 2 (1990) 433 3 6 9 10 42 160 219 674 1480
2025-11-23 04:30 5.97 49 12900 (1993) 2 (1990) 433 3 6 9 10 42 160 219 674 1480
2025-11-23 04:00 5.98 51 12900 (1993) 2 (1990) 433 3 6 9 10 42 160 219 674 1480
2025-11-23 03:30 5.99 52 12900 (1993) 2 (1990) 433 3 6 9 10 42 160 219 674 1480
2025-11-23 03:00 6.00 53 12900 (1993) 2 (1990) 433 3 6 9 10 42 160 219 674 1480
2025-11-23 02:30 6.01 55 12900 (1993) 2 (1990) 433 3 6 9 10 42 160 219 674 1480
2025-11-23 02:00 6.01 55 12900 (1993) 2 (1990) 433 3 6 9 10 42 160 219 674 1480
2025-11-23 01:30 6.02 56 12900 (1993) 2 (1990) 433 3 6 9 10 42 160 219 674 1480
2025-11-23 01:00 6.03 57 12900 (1993) 2 (1990) 433 3 6 9 10 42 160 219 674 1480
2025-11-23 00:30 57 12900 (1993) 2 (1990) 433 3 6 9 10 42 160 219 674 1480
2025-11-23 00:00 59 12900 (1993) 2 (1990) 433 3 6 9 10 42 160 219 674 1480
2025-11-22 23:30 60 12900 (1993) 2 (1990) 433 3 6 9 10 42 160 219 674 1480
2025-11-22 23:00 6.05 60 12900 (1993) 2 (1990) 433 3 6 9 10 42 160 219 674 1480
2025-11-22 22:30 6.04 59 9640 (1993) 2 (1990) 368 3 4 9 11 42 166 263 639 2200
2025-11-22 22:00 56 9640 (1993) 2 (1990) 368 3 4 9 11 42 166 263 639 2200
2025-11-22 21:30 5.97 49 9640 (1993) 2 (1990) 368 3 4 9 11 42 166 263 639 2200
2025-11-22 21:00 5.90 41 9640 (1993) 2 (1990) 368 3 4 9 11 42 166 263 639 2200
2025-11-22 20:30 35 9640 (1993) 2 (1990) 368 3 4 9 11 42 166 263 639 2200
2025-11-22 20:00 5.80 31 9640 (1993) 2 (1990) 368 3 4 9 11 42 166 263 639 2200
2025-11-22 19:30 5.78 29 9640 (1993) 2 (1990) 368 3 4 9 11 42 166 263 639 2200
2025-11-22 19:00 5.78 29 9640 (1993) 2 (1990) 368 3 4 9 11 42 166 263 639 2200
2025-11-22 18:30 5.79 30 9640 (1993) 2 (1990) 368 3 4 9 11 42 166 263 639 2200
2025-11-22 18:00 5.79 30 9640 (1993) 2 (1990) 368 3 4 9 11 42 166 263 639 2200
2025-11-22 17:30 5.80 31 9640 (1993) 2 (1990) 368 3 4 9 11 42 166 263 639 2200
2025-11-22 17:00 5.80 31 9640 (1993) 2 (1990) 368 3 4 9 11 42 166 263 639 2200
2025-11-22 16:30 5.81 32 9640 (1993) 2 (1990) 368 3 4 9 11 42 166 263 639 2200
2025-11-22 16:00 5.81 32 9640 (1993) 2 (1990) 368 3 4 9 11 42 166 263 639 2200
2025-11-22 15:30 5.82 33 9640 (1993) 2 (1990) 368 3 4 9 11 42 166 263 639 2200
2025-11-22 15:00 5.83 34 9640 (1993) 2 (1990) 368 3 4 9 11 42 166 263 639 2200
2025-11-22 14:30 5.83 34 9640 (1993) 2 (1990) 368 3 4 9 11 42 166 263 639 2200
2025-11-22 14:00 5.84 35 9640 (1993) 2 (1990) 368 3 4 9 11 42 166 263 639 2200
2025-11-22 13:30 5.84 35 9640 (1993) 2 (1990) 368 3 4 9 11 42 166 263 639 2200
2025-11-22 13:00 5.84 35 9640 (1993) 2 (1990) 368 3 4 9 11 42 166 263 639 2200
2025-11-22 12:30 5.83 34 9640 (1993) 2 (1990) 368 3 4 9 11 42 166 263 639 2200
2025-11-22 12:00 33 9640 (1993) 2 (1990) 368 3 4 9 11 42 166 263 639 2200
2025-11-22 11:30 5.81 32 9640 (1993) 2 (1990) 368 3 4 9 11 42 166 263 639 2200
2025-11-22 11:00 5.80 31 9640 (1993) 2 (1990) 368 3 4 9 11 42 166 263 639 2200
2025-11-22 10:30 5.79 30 9640 (1993) 2 (1990) 368 3 4 9 11 42 166 263 639 2200
2025-11-22 10:00 5.78 29 9640 (1993) 2 (1990) 368 3 4 9 11 42 166 263 639 2200
2025-11-22 09:30 5.78 29 9640 (1993) 2 (1990) 368 3 4 9 11 42 166 263 639 2200
2025-11-22 09:00 5.78 29 9640 (1993) 2 (1990) 368 3 4 9 11 42 166 263 639 2200
2025-11-22 08:30 5.78 29 9640 (1993) 2 (1990) 368 3 4 9 11 42 166 263 639 2200
2025-11-22 08:00 5.78 29 9640 (1993) 2 (1990) 368 3 4 9 11 42 166 263 639 2200
2025-11-22 07:30 5.78 29 9640 (1993) 2 (1990) 368 3 4 9 11 42 166 263 639 2200
2025-11-22 07:00 5.78 29 9640 (1993) 2 (1990) 368 3 4 9 11 42 166 263 639 2200
2025-11-22 06:30 5.79 30 9640 (1993) 2 (1990) 368 3 4 9 11 42 166 263 639 2200
2025-11-22 06:00 5.79 30 9640 (1993) 2 (1990) 368 3 4 9 11 42 166 263 639 2200
2025-11-22 05:30 5.79 30 9640 (1993) 2 (1990) 368 3 4 9 11 42 166 263 639 2200
2025-11-22 05:00 5.80 31 9640 (1993) 2 (1990) 368 3 4 9 11 42 166 263 639 2200
2025-11-22 04:30 5.80 31 9640 (1993) 2 (1990) 368 3 4 9 11 42 166 263 639 2200
2025-11-22 04:00 5.80 31 9640 (1993) 2 (1990) 368 3 4 9 11 42 166 263 639 2200
2025-11-22 03:30 5.80 31 9640 (1993) 2 (1990) 368 3 4 9 11 42 166 263 639 2200
2025-11-22 03:00 5.80 31 9640 (1993) 2 (1990) 368 3 4 9 11 42 166 263 639 2200
2025-11-22 02:30 31 9640 (1993) 2 (1990) 368 3 4 9 11 42 166 263 639 2200
2025-11-22 02:00 29 9640 (1993) 2 (1990) 368 3 4 9 11 42 166 263 639 2200
2025-11-22 01:30 5.77 29 9640 (1993) 2 (1990) 368 3 4 9 11 42 166 263 639 2200
2025-11-22 01:00 27 9640 (1993) 2 (1990) 368 3 4 9 11 42 166 263 639 2200
2025-11-22 00:30 25 9640 (1993) 2 (1990) 368 3 4 9 11 42 166 263 639 2200
2025-11-22 00:00 24 9640 (1993) 2 (1990) 368 3 4 9 11 42 166 263 639 2200
2025-11-21 23:30 5.71 24 9640 (1993) 2 (1990) 368 3 4 9 11 42 166 263 639 2200
2025-11-21 23:00 24 9640 (1993) 2 (1990) 368 3 4 9 11 42 166 263 639 2200
2025-11-21 22:30 5.70 23 13100 (1993) 2 (1964) 476 4 5 9 11 52 197 315 648 1150
2025-11-21 22:00 23 13100 (1993) 2 (1964) 476 4 5 9 11 52 197 315 648 1150
2025-11-21 21:30 5.69 22 13100 (1993) 2 (1964) 476 4 5 9 11 52 197 315 648 1150
2025-11-21 21:00 5.69 22 13100 (1993) 2 (1964) 476 4 5 9 11 52 197 315 648 1150
2025-11-21 20:30 22 13100 (1993) 2 (1964) 476 4 5 9 11 52 197 315 648 1150
2025-11-21 20:00 5.69 22 13100 (1993) 2 (1964) 476 4 5 9 11 52 197 315 648 1150
2025-11-21 19:30 5.70 23 13100 (1993) 2 (1964) 476 4 5 9 11 52 197 315 648 1150
2025-11-21 19:00 5.67 21 13100 (1993) 2 (1964) 476 4 5 9 11 52 197 315 648 1150
2025-11-21 18:30 5.71 24 13100 (1993) 2 (1964) 476 4 5 9 11 52 197 315 648 1150
2025-11-21 18:00 5.71 24 13100 (1993) 2 (1964) 476 4 5 9 11 52 197 315 648 1150
2025-11-21 17:30 5.72 24 13100 (1993) 2 (1964) 476 4 5 9 11 52 197 315 648 1150
2025-11-21 17:00 5.73 25 13100 (1993) 2 (1964) 476 4 5 9 11 52 197 315 648 1150
2025-11-21 16:30 5.74 26 13100 (1993) 2 (1964) 476 4 5 9 11 52 197 315 648 1150
2025-11-21 16:00 5.75 27 13100 (1993) 2 (1964) 476 4 5 9 11 52 197 315 648 1150
2025-11-21 15:30 5.75 27 13100 (1993) 2 (1964) 476 4 5 9 11 52 197 315 648 1150
2025-11-21 15:00 5.76 28 13100 (1993) 2 (1964) 476 4 5 9 11 52 197 315 648 1150
2025-11-21 14:30 29 13100 (1993) 2 (1964) 476 4 5 9 11 52 197 315 648 1150
2025-11-21 14:00 5.79 30 13100 (1993) 2 (1964) 476 4 5 9 11 52 197 315 648 1150
2025-11-21 13:30 5.79 30 13100 (1993) 2 (1964) 476 4 5 9 11 52 197 315 648 1150
2025-11-21 13:00 5.80 31 13100 (1993) 2 (1964) 476 4 5 9 11 52 197 315 648 1150
2025-11-21 12:30 5.78 29 13100 (1993) 2 (1964) 476 4 5 9 11 52 197 315 648 1150
2025-11-21 12:00 5.71 24 13100 (1993) 2 (1964) 476 4 5 9 11 52 197 315 648 1150
2025-11-21 11:30 24 13100 (1993) 2 (1964) 476 4 5 9 11 52 197 315 648 1150
2025-11-21 11:00 5.69 22 13100 (1993) 2 (1964) 476 4 5 9 11 52 197 315 648 1150
2025-11-21 10:30 5.68 21 13100 (1993) 2 (1964) 476 4 5 9 11 52 197 315 648 1150
2025-11-21 10:00 5.69 22 13100 (1993) 2 (1964) 476 4 5 9 11 52 197 315 648 1150
2025-11-21 09:30 5.63 18 13100 (1993) 2 (1964) 476 4 5 9 11 52 197 315 648 1150
2025-11-21 09:00 5.65 19 13100 (1993) 2 (1964) 476 4 5 9 11 52 197 315 648 1150
2025-11-21 08:30 5.63 18 13100 (1993) 2 (1964) 476 4 5 9 11 52 197 315 648 1150
2025-11-21 08:00 5.59 16 13100 (1993) 2 (1964) 476 4 5 9 11 52 197 315 648 1150
2025-11-21 07:30 5.57 15 13100 (1993) 2 (1964) 476 4 5 9 11 52 197 315 648 1150
2025-11-21 07:00 5.58 15 13100 (1993) 2 (1964) 476 4 5 9 11 52 197 315 648 1150
2025-11-21 06:30 5.56 14 13100 (1993) 2 (1964) 476 4 5 9 11 52 197 315 648 1150
2025-11-21 06:00 5.58 15 13100 (1993) 2 (1964) 476 4 5 9 11 52 197 315 648 1150
2025-11-21 05:30 5.55 14 13100 (1993) 2 (1964) 476 4 5 9 11 52 197 315 648 1150
2025-11-21 05:00 5.56 14 13100 (1993) 2 (1964) 476 4 5 9 11 52 197 315 648 1150
2025-11-21 04:30 5.54 13 13100 (1993) 2 (1964) 476 4 5 9 11 52 197 315 648 1150
2025-11-21 04:00 5.56 14 13100 (1993) 2 (1964) 476 4 5 9 11 52 197 315 648 1150
2025-11-21 03:30 5.56 14 13100 (1993) 2 (1964) 476 4 5 9 11 52 197 315 648 1150
2025-11-21 03:00 14 13100 (1993) 2 (1964) 476 4 5 9 11 52 197 315 648 1150
2025-11-21 02:30 5.55 14 13100 (1993) 2 (1964) 476 4 5 9 11 52 197 315 648 1150
2025-11-21 02:00 14 13100 (1993) 2 (1964) 476 4 5 9 11 52 197 315 648 1150
2025-11-21 01:30 5.56 14 13100 (1993) 2 (1964) 476 4 5 9 11 52 197 315 648 1150
2025-11-21 01:00 5.56 14 13100 (1993) 2 (1964) 476 4 5 9 11 52 197 315 648 1150
2025-11-21 00:30 5.56 14 13100 (1993) 2 (1964) 476 4 5 9 11 52 197 315 648 1150
2025-11-21 00:00 5.56 14 13100 (1993) 2 (1964) 476 4 5 9 11 52 197 315 648 1150
2025-11-20 23:30 14 13100 (1993) 2 (1964) 476 4 5 9 11 52 197 315 648 1150
2025-11-20 23:00 5.56 14 13100 (1993) 2 (1964) 476 4 5 9 11 52 197 315 648 1150
2025-11-20 22:30 5.55 14 17200 (1986) 2 (1964) 441 3 5 9 12 52 197 297 927 1530
2025-11-20 22:00 5.55 14 17200 (1986) 2 (1964) 441 3 5 9 12 52 197 297 927 1530
2025-11-20 21:30 5.55 14 17200 (1986) 2 (1964) 441 3 5 9 12 52 197 297 927 1530
2025-11-20 21:00 5.55 14 17200 (1986) 2 (1964) 441 3 5 9 12 52 197 297 927 1530
2025-11-20 20:30 5.54 13 17200 (1986) 2 (1964) 441 3 5 9 12 52 197 297 927 1530
2025-11-20 20:00 5.54 13 17200 (1986) 2 (1964) 441 3 5 9 12 52 197 297 927 1530
2025-11-20 19:30 5.53 13 17200 (1986) 2 (1964) 441 3 5 9 12 52 197 297 927 1530
2025-11-20 19:00 5.53 13 17200 (1986) 2 (1964) 441 3 5 9 12 52 197 297 927 1530
2025-11-20 18:30 5.53 13 17200 (1986) 2 (1964) 441 3 5 9 12 52 197 297 927 1530
2025-11-20 18:00 5.52 12 17200 (1986) 2 (1964) 441 3 5 9 12 52 197 297 927 1530
2025-11-20 17:30 5.51 12 17200 (1986) 2 (1964) 441 3 5 9 12 52 197 297 927 1530
2025-11-20 17:00 5.52 12 17200 (1986) 2 (1964) 441 3 5 9 12 52 197 297 927 1530
2025-11-20 16:30 5.51 12 17200 (1986) 2 (1964) 441 3 5 9 12 52 197 297 927 1530
2025-11-20 16:00 5.51 12 17200 (1986) 2 (1964) 441 3 5 9 12 52 197 297 927 1530
2025-11-20 15:30 5.51 12 17200 (1986) 2 (1964) 441 3 5 9 12 52 197 297 927 1530
2025-11-20 15:00 5.51 12 17200 (1986) 2 (1964) 441 3 5 9 12 52 197 297 927 1530
2025-11-20 14:30 5.51 12 17200 (1986) 2 (1964) 441 3 5 9 12 52 197 297 927 1530
2025-11-20 14:00 5.49 11 17200 (1986) 2 (1964) 441 3 5 9 12 52 197 297 927 1530
2025-11-20 13:30 5.49 11 17200 (1986) 2 (1964) 441 3 5 9 12 52 197 297 927 1530
2025-11-20 13:00 5.51 12 17200 (1986) 2 (1964) 441 3 5 9 12 52 197 297 927 1530
2025-11-20 12:30 12 17200 (1986) 2 (1964) 441 3 5 9 12 52 197 297 927 1530
2025-11-20 12:00 5.51 12 17200 (1986) 2 (1964) 441 3 5 9 12 52 197 297 927 1530
2025-11-20 11:30 12 17200 (1986) 2 (1964) 441 3 5 9 12 52 197 297 927 1530
2025-11-20 11:00 5.51 12 17200 (1986) 2 (1964) 441 3 5 9 12 52 197 297 927 1530
2025-11-20 10:30 5.45 9 17200 (1986) 2 (1964) 441 3 5 9 12 52 197 297 927 1530
2025-11-20 10:00 5.51 12 17200 (1986) 2 (1964) 441 3 5 9 12 52 197 297 927 1530
2025-11-20 09:30 5.45 9 17200 (1986) 2 (1964) 441 3 5 9 12 52 197 297 927 1530
2025-11-20 09:00 5.48 10 17200 (1986) 2 (1964) 441 3 5 9 12 52 197 297 927 1530
2025-11-20 08:30 5.51 12 17200 (1986) 2 (1964) 441 3 5 9 12 52 197 297 927 1530
2025-11-20 08:00 5.48 10 17200 (1986) 2 (1964) 441 3 5 9 12 52 197 297 927 1530
2025-11-20 07:30 5.44 9 17200 (1986) 2 (1964) 441 3 5 9 12 52 197 297 927 1530
2025-11-20 07:00 5.46 9 17200 (1986) 2 (1964) 441 3 5 9 12 52 197 297 927 1530
2025-11-20 06:30 5.51 12 17200 (1986) 2 (1964) 441 3 5 9 12 52 197 297 927 1530
2025-11-20 06:00 5.51 12 17200 (1986) 2 (1964) 441 3 5 9 12 52 197 297 927 1530
2025-11-20 05:30 5.51 12 17200 (1986) 2 (1964) 441 3 5 9 12 52 197 297 927 1530
2025-11-20 05:00 5.51 12 17200 (1986) 2 (1964) 441 3 5 9 12 52 197 297 927 1530
2025-11-20 04:30 5.51 12 17200 (1986) 2 (1964) 441 3 5 9 12 52 197 297 927 1530
2025-11-20 04:00 5.47 10 17200 (1986) 2 (1964) 441 3 5 9 12 52 197 297 927 1530
2025-11-20 03:30 5.50 11 17200 (1986) 2 (1964) 441 3 5 9 12 52 197 297 927 1530
2025-11-20 03:00 5.51 12 17200 (1986) 2 (1964) 441 3 5 9 12 52 197 297 927 1530
2025-11-20 02:30 5.51 12 17200 (1986) 2 (1964) 441 3 5 9 12 52 197 297 927 1530
2025-11-20 02:00 5.51 12 17200 (1986) 2 (1964) 441 3 5 9 12 52 197 297 927 1530
2025-11-20 01:30 5.52 12 17200 (1986) 2 (1964) 441 3 5 9 12 52 197 297 927 1530
2025-11-20 01:00 12 17200 (1986) 2 (1964) 441 3 5 9 12 52 197 297 927 1530
2025-11-20 00:30 5.52 12 17200 (1986) 2 (1964) 441 3 5 9 12 52 197 297 927 1530
2025-11-20 00:00 5.51 12 17200 (1986) 2 (1964) 441 3 5 9 12 52 197 297 927 1530
2025-11-19 23:30 12 17200 (1986) 2 (1964) 441 3 5 9 12 52 197 297 927 1530
2025-11-19 23:00 5.51 12 17200 (1986) 2 (1964) 441 3 5 9 12 52 197 297 927 1530
2025-11-19 22:30 5.52 12 28100 (1986) 1 (1964) 632 2 5 11 13 42 190 283 1140 2780
2025-11-19 22:00 5.52 12 28100 (1986) 1 (1964) 632 2 5 11 13 42 190 283 1140 2780
2025-11-19 21:30 5.52 12 28100 (1986) 1 (1964) 632 2 5 11 13 42 190 283 1140 2780
2025-11-19 21:00 5.47 10 28100 (1986) 1 (1964) 632 2 5 11 13 42 190 283 1140 2780
2025-11-19 20:30 5.52 12 28100 (1986) 1 (1964) 632 2 5 11 13 42 190 283 1140 2780
2025-11-19 20:00 5.52 12 28100 (1986) 1 (1964) 632 2 5 11 13 42 190 283 1140 2780
2025-11-19 19:30 5.52 12 28100 (1986) 1 (1964) 632 2 5 11 13 42 190 283 1140 2780
2025-11-19 19:00 5.52 12 28100 (1986) 1 (1964) 632 2 5 11 13 42 190 283 1140 2780
2025-11-19 18:30 5.52 12 28100 (1986) 1 (1964) 632 2 5 11 13 42 190 283 1140 2780
2025-11-19 18:00 5.52 12 28100 (1986) 1 (1964) 632 2 5 11 13 42 190 283 1140 2780
2025-11-19 17:30 5.52 12 28100 (1986) 1 (1964) 632 2 5 11 13 42 190 283 1140 2780
2025-11-19 17:00 5.52 12 28100 (1986) 1 (1964) 632 2 5 11 13 42 190 283 1140 2780
2025-11-19 16:30 5.52 12 28100 (1986) 1 (1964) 632 2 5 11 13 42 190 283 1140 2780
2025-11-19 16:00 5.52 12 28100 (1986) 1 (1964) 632 2 5 11 13 42 190 283 1140 2780
2025-11-19 15:30 5.52 12 28100 (1986) 1 (1964) 632 2 5 11 13 42 190 283 1140 2780
2025-11-19 15:00 5.52 12 28100 (1986) 1 (1964) 632 2 5 11 13 42 190 283 1140 2780
2025-11-19 14:30 5.52 12 28100 (1986) 1 (1964) 632 2 5 11 13 42 190 283 1140 2780
2025-11-19 14:00 5.52 12 28100 (1986) 1 (1964) 632 2 5 11 13 42 190 283 1140 2780
2025-11-19 13:30 5.52 12 28100 (1986) 1 (1964) 632 2 5 11 13 42 190 283 1140 2780
2025-11-19 13:00 5.52 12 28100 (1986) 1 (1964) 632 2 5 11 13 42 190 283 1140 2780
2025-11-19 12:30 5.52 12 28100 (1986) 1 (1964) 632 2 5 11 13 42 190 283 1140 2780
2025-11-19 12:00 5.52 12 28100 (1986) 1 (1964) 632 2 5 11 13 42 190 283 1140 2780
2025-11-19 11:30 5.51 12 28100 (1986) 1 (1964) 632 2 5 11 13 42 190 283 1140 2780
2025-11-19 11:00 5.51 12 28100 (1986) 1 (1964) 632 2 5 11 13 42 190 283 1140 2780
2025-11-19 10:30 5.51 12 28100 (1986) 1 (1964) 632 2 5 11 13 42 190 283 1140 2780
2025-11-19 10:00 5.51 12 28100 (1986) 1 (1964) 632 2 5 11 13 42 190 283 1140 2780
2025-11-19 09:30 5.51 12 28100 (1986) 1 (1964) 632 2 5 11 13 42 190 283 1140 2780
2025-11-19 09:00 5.51 12 28100 (1986) 1 (1964) 632 2 5 11 13 42 190 283 1140 2780
2025-11-19 08:30 5.51 12 28100 (1986) 1 (1964) 632 2 5 11 13 42 190 283 1140 2780
2025-11-19 08:00 5.51 12 28100 (1986) 1 (1964) 632 2 5 11 13 42 190 283 1140 2780
2025-11-19 07:30 5.51 12 28100 (1986) 1 (1964) 632 2 5 11 13 42 190 283 1140 2780
2025-11-19 07:00 5.51 12 28100 (1986) 1 (1964) 632 2 5 11 13 42 190 283 1140 2780
2025-11-19 06:30 5.51 12 28100 (1986) 1 (1964) 632 2 5 11 13 42 190 283 1140 2780
2025-11-19 06:00 5.51 12 28100 (1986) 1 (1964) 632 2 5 11 13 42 190 283 1140 2780
2025-11-19 05:30 5.51 12 28100 (1986) 1 (1964) 632 2 5 11 13 42 190 283 1140 2780
2025-11-19 05:00 5.51 12 28100 (1986) 1 (1964) 632 2 5 11 13 42 190 283 1140 2780
2025-11-19 04:30 5.51 12 28100 (1986) 1 (1964) 632 2 5 11 13 42 190 283 1140 2780
2025-11-19 04:00 5.51 12 28100 (1986) 1 (1964) 632 2 5 11 13 42 190 283 1140 2780
2025-11-19 03:30 5.51 12 28100 (1986) 1 (1964) 632 2 5 11 13 42 190 283 1140 2780
2025-11-19 03:00 5.51 12 28100 (1986) 1 (1964) 632 2 5 11 13 42 190 283 1140 2780
2025-11-19 02:30 5.51 12 28100 (1986) 1 (1964) 632 2 5 11 13 42 190 283 1140 2780
2025-11-19 02:00 12 28100 (1986) 1 (1964) 632 2 5 11 13 42 190 283 1140 2780
2025-11-19 01:30 5.51 12 28100 (1986) 1 (1964) 632 2 5 11 13 42 190 283 1140 2780
2025-11-19 01:00 5.51 12 28100 (1986) 1 (1964) 632 2 5 11 13 42 190 283 1140 2780
2025-11-19 00:30 5.51 12 28100 (1986) 1 (1964) 632 2 5 11 13 42 190 283 1140 2780
2025-11-19 00:00 5.51 12 28100 (1986) 1 (1964) 632 2 5 11 13 42 190 283 1140 2780
2025-11-18 23:30 5.51 12 28100 (1986) 1 (1964) 632 2 5 11 13 42 190 283 1140 2780
2025-11-18 23:00 12 28100 (1986) 1 (1964) 632 2 5 11 13 42 190 283 1140 2780
2025-11-18 22:30 5.51 12 17400 (1994) 1 (1964) 754 2 4 9 11 42 196 231 1080 3970
2025-11-18 22:00 5.51 12 17400 (1994) 1 (1964) 754 2 4 9 11 42 196 231 1080 3970
2025-11-18 21:30 12 17400 (1994) 1 (1964) 754 2 4 9 11 42 196 231 1080 3970
2025-11-18 21:00 5.51 12 17400 (1994) 1 (1964) 754 2 4 9 11 42 196 231 1080 3970
2025-11-18 20:30 5.51 12 17400 (1994) 1 (1964) 754 2 4 9 11 42 196 231 1080 3970
2025-11-18 20:00 12 17400 (1994) 1 (1964) 754 2 4 9 11 42 196 231 1080 3970
2025-11-18 19:30 5.51 12 17400 (1994) 1 (1964) 754 2 4 9 11 42 196 231 1080 3970
2025-11-18 19:00 5.51 12 17400 (1994) 1 (1964) 754 2 4 9 11 42 196 231 1080 3970
2025-11-18 18:30 5.51 12 17400 (1994) 1 (1964) 754 2 4 9 11 42 196 231 1080 3970
2025-11-18 18:00 5.51 12 17400 (1994) 1 (1964) 754 2 4 9 11 42 196 231 1080 3970
2025-11-18 17:30 5.51 12 17400 (1994) 1 (1964) 754 2 4 9 11 42 196 231 1080 3970
2025-11-18 17:00 5.51 12 17400 (1994) 1 (1964) 754 2 4 9 11 42 196 231 1080 3970
2025-11-18 16:30 5.51 12 17400 (1994) 1 (1964) 754 2 4 9 11 42 196 231 1080 3970
2025-11-18 16:00 5.51 12 17400 (1994) 1 (1964) 754 2 4 9 11 42 196 231 1080 3970
2025-11-18 15:30 5.51 12 17400 (1994) 1 (1964) 754 2 4 9 11 42 196 231 1080 3970
2025-11-18 15:00 5.51 12 17400 (1994) 1 (1964) 754 2 4 9 11 42 196 231 1080 3970
2025-11-18 14:30 5.51 12 17400 (1994) 1 (1964) 754 2 4 9 11 42 196 231 1080 3970
2025-11-18 14:00 5.51 12 17400 (1994) 1 (1964) 754 2 4 9 11 42 196 231 1080 3970
2025-11-18 13:30 5.52 12 17400 (1994) 1 (1964) 754 2 4 9 11 42 196 231 1080 3970
2025-11-18 13:00 12 17400 (1994) 1 (1964) 754 2 4 9 11 42 196 231 1080 3970
2025-11-18 12:30 5.52 12 17400 (1994) 1 (1964) 754 2 4 9 11 42 196 231 1080 3970
2025-11-18 12:00 5.52 12 17400 (1994) 1 (1964) 754 2 4 9 11 42 196 231 1080 3970
2025-11-18 11:30 12 17400 (1994) 1 (1964) 754 2 4 9 11 42 196 231 1080 3970
2025-11-18 11:00 5.52 12 17400 (1994) 1 (1964) 754 2 4 9 11 42 196 231 1080 3970
2025-11-18 10:30 5.52 12 17400 (1994) 1 (1964) 754 2 4 9 11 42 196 231 1080 3970
2025-11-18 10:00 5.52 12 17400 (1994) 1 (1964) 754 2 4 9 11 42 196 231 1080 3970
2025-11-18 09:30 5.52 12 17400 (1994) 1 (1964) 754 2 4 9 11 42 196 231 1080 3970
2025-11-18 09:00 5.52 12 17400 (1994) 1 (1964) 754 2 4 9 11 42 196 231 1080 3970
2025-11-18 08:30 5.52 12 17400 (1994) 1 (1964) 754 2 4 9 11 42 196 231 1080 3970
2025-11-18 08:00 5.52 12 17400 (1994) 1 (1964) 754 2 4 9 11 42 196 231 1080 3970
2025-11-18 07:30 5.52 12 17400 (1994) 1 (1964) 754 2 4 9 11 42 196 231 1080 3970
2025-11-18 07:00 5.52 12 17400 (1994) 1 (1964) 754 2 4 9 11 42 196 231 1080 3970
2025-11-18 06:30 5.51 12 17400 (1994) 1 (1964) 754 2 4 9 11 42 196 231 1080 3970
2025-11-18 06:00 5.51 12 17400 (1994) 1 (1964) 754 2 4 9 11 42 196 231 1080 3970
2025-11-18 05:30 5.47 10 17400 (1994) 1 (1964) 754 2 4 9 11 42 196 231 1080 3970
2025-11-18 05:00 5.50 11 17400 (1994) 1 (1964) 754 2 4 9 11 42 196 231 1080 3970
2025-11-18 04:30 5.50 11 17400 (1994) 1 (1964) 754 2 4 9 11 42 196 231 1080 3970
2025-11-18 04:00 5.50 11 17400 (1994) 1 (1964) 754 2 4 9 11 42 196 231 1080 3970
2025-11-18 03:30 5.50 11 17400 (1994) 1 (1964) 754 2 4 9 11 42 196 231 1080 3970
2025-11-18 03:00 5.50 11 17400 (1994) 1 (1964) 754 2 4 9 11 42 196 231 1080 3970
2025-11-18 02:30 5.49 11 17400 (1994) 1 (1964) 754 2 4 9 11 42 196 231 1080 3970
2025-11-18 02:00 5.47 10 17400 (1994) 1 (1964) 754 2 4 9 11 42 196 231 1080 3970
2025-11-18 01:30 5.48 10 17400 (1994) 1 (1964) 754 2 4 9 11 42 196 231 1080 3970
2025-11-18 01:00 10 17400 (1994) 1 (1964) 754 2 4 9 11 42 196 231 1080 3970
2025-11-18 00:30 5.48 10 17400 (1994) 1 (1964) 754 2 4 9 11 42 196 231 1080 3970
2025-11-18 00:00 5.48 10 17400 (1994) 1 (1964) 754 2 4 9 11 42 196 231 1080 3970
2025-11-17 23:30 10 17400 (1994) 1 (1964) 754 2 4 9 11 42 196 231 1080 3970
2025-11-17 23:00 5.43 8 17400 (1994) 1 (1964) 754 2 4 9 11 42 196 231 1080 3970
2025-11-17 22:30 5.43 8 19900 (2010) 2 (1964) 587 2 4 9 12 44 202 224 1100 2510
2025-11-17 22:00 10 19900 (2010) 2 (1964) 587 2 4 9 12 44 202 224 1100 2510
2025-11-17 21:30 5.46 9 19900 (2010) 2 (1964) 587 2 4 9 12 44 202 224 1100 2510
2025-11-17 21:00 9 19900 (2010) 2 (1964) 587 2 4 9 12 44 202 224 1100 2510
2025-11-17 20:30 5.43 8 19900 (2010) 2 (1964) 587 2 4 9 12 44 202 224 1100 2510
2025-11-17 20:00 8 19900 (2010) 2 (1964) 587 2 4 9 12 44 202 224 1100 2510
2025-11-17 19:30 5.41 8 19900 (2010) 2 (1964) 587 2 4 9 12 44 202 224 1100 2510
2025-11-17 19:00 5.41 8 19900 (2010) 2 (1964) 587 2 4 9 12 44 202 224 1100 2510
2025-11-17 18:30 5.44 9 19900 (2010) 2 (1964) 587 2 4 9 12 44 202 224 1100 2510
2025-11-17 18:00 6 19900 (2010) 2 (1964) 587 2 4 9 12 44 202 224 1100 2510
2025-11-17 17:30 5.37 6 19900 (2010) 2 (1964) 587 2 4 9 12 44 202 224 1100 2510
2025-11-17 17:00 5.39 7 19900 (2010) 2 (1964) 587 2 4 9 12 44 202 224 1100 2510
2025-11-17 16:30 5.38 7 19900 (2010) 2 (1964) 587 2 4 9 12 44 202 224 1100 2510
2025-11-17 16:00 5.38 7 19900 (2010) 2 (1964) 587 2 4 9 12 44 202 224 1100 2510
2025-11-17 15:30 5.38 7 19900 (2010) 2 (1964) 587 2 4 9 12 44 202 224 1100 2510
2025-11-17 15:00 5.37 6 19900 (2010) 2 (1964) 587 2 4 9 12 44 202 224 1100 2510
2025-11-17 14:30 5.38 7 19900 (2010) 2 (1964) 587 2 4 9 12 44 202 224 1100 2510
2025-11-17 14:00 5.39 7 19900 (2010) 2 (1964) 587 2 4 9 12 44 202 224 1100 2510
2025-11-17 13:30 5.37 6 19900 (2010) 2 (1964) 587 2 4 9 12 44 202 224 1100 2510
2025-11-17 13:00 5.38 7 19900 (2010) 2 (1964) 587 2 4 9 12 44 202 224 1100 2510
2025-11-17 12:30 5.39 7 19900 (2010) 2 (1964) 587 2 4 9 12 44 202 224 1100 2510
2025-11-17 12:00 5.38 7 19900 (2010) 2 (1964) 587 2 4 9 12 44 202 224 1100 2510
2025-11-17 11:30 7 19900 (2010) 2 (1964) 587 2 4 9 12 44 202 224 1100 2510
2025-11-17 11:00 5.38 7 19900 (2010) 2 (1964) 587 2 4 9 12 44 202 224 1100 2510
2025-11-17 10:30 5.39 7 19900 (2010) 2 (1964) 587 2 4 9 12 44 202 224 1100 2510
2025-11-17 10:00 5.39 7 19900 (2010) 2 (1964) 587 2 4 9 12 44 202 224 1100 2510
2025-11-17 09:30 5.45 9 19900 (2010) 2 (1964) 587 2 4 9 12 44 202 224 1100 2510
2025-11-17 09:00 5.46 9 19900 (2010) 2 (1964) 587 2 4 9 12 44 202 224 1100 2510
2025-11-17 08:30 5.46 9 19900 (2010) 2 (1964) 587 2 4 9 12 44 202 224 1100 2510
2025-11-17 08:00 5.46 9 19900 (2010) 2 (1964) 587 2 4 9 12 44 202 224 1100 2510
2025-11-17 07:30 5.46 9 19900 (2010) 2 (1964) 587 2 4 9 12 44 202 224 1100 2510
2025-11-17 07:00 5.46 9 19900 (2010) 2 (1964) 587 2 4 9 12 44 202 224 1100 2510
2025-11-17 06:30 5.46 9 19900 (2010) 2 (1964) 587 2 4 9 12 44 202 224 1100 2510
2025-11-17 06:00 5.46 9 19900 (2010) 2 (1964) 587 2 4 9 12 44 202 224 1100 2510
2025-11-17 05:30 5.46 9 19900 (2010) 2 (1964) 587 2 4 9 12 44 202 224 1100 2510
2025-11-17 05:00 5.46 9 19900 (2010) 2 (1964) 587 2 4 9 12 44 202 224 1100 2510
2025-11-17 04:30 5.46 9 19900 (2010) 2 (1964) 587 2 4 9 12 44 202 224 1100 2510
2025-11-17 04:00 5.46 9 19900 (2010) 2 (1964) 587 2 4 9 12 44 202 224 1100 2510
2025-11-17 03:30 5.46 9 19900 (2010) 2 (1964) 587 2 4 9 12 44 202 224 1100 2510
2025-11-17 03:00 9 19900 (2010) 2 (1964) 587 2 4 9 12 44 202 224 1100 2510
2025-11-17 02:30 5.46 9 19900 (2010) 2 (1964) 587 2 4 9 12 44 202 224 1100 2510
2025-11-17 02:00 9 19900 (2010) 2 (1964) 587 2 4 9 12 44 202 224 1100 2510
2025-11-17 01:30 5.46 9 19900 (2010) 2 (1964) 587 2 4 9 12 44 202 224 1100 2510
2025-11-17 01:00 5.46 9 19900 (2010) 2 (1964) 587 2 4 9 12 44 202 224 1100 2510
2025-11-17 00:30 5.46 9 19900 (2010) 2 (1964) 587 2 4 9 12 44 202 224 1100 2510
2025-11-17 00:00 5.46 9 19900 (2010) 2 (1964) 587 2 4 9 12 44 202 224 1100 2510
2025-11-16 23:30 9 19900 (2010) 2 (1964) 587 2 4 9 12 44 202 224 1100 2510
2025-11-16 23:00 5.46 9 19900 (2010) 2 (1964) 587 2 4 9 12 44 202 224 1100 2510
2025-11-16 22:30 5.46 9 21200 (2010) 1 (1954) 643 2 4 8 11 47 180 255 621 2420
2025-11-16 22:00 5.46 9 21200 (2010) 1 (1954) 643 2 4 8 11 47 180 255 621 2420
2025-11-16 21:30 5.47 10 21200 (2010) 1 (1954) 643 2 4 8 11 47 180 255 621 2420
2025-11-16 21:00 5.47 10 21200 (2010) 1 (1954) 643 2 4 8 11 47 180 255 621 2420
2025-11-16 20:30 5.47 10 21200 (2010) 1 (1954) 643 2 4 8 11 47 180 255 621 2420
2025-11-16 20:00 5.47 10 21200 (2010) 1 (1954) 643 2 4 8 11 47 180 255 621 2420
2025-11-16 19:30 5.47 10 21200 (2010) 1 (1954) 643 2 4 8 11 47 180 255 621 2420
2025-11-16 19:00 5.48 10 21200 (2010) 1 (1954) 643 2 4 8 11 47 180 255 621 2420
2025-11-16 18:30 5.48 10 21200 (2010) 1 (1954) 643 2 4 8 11 47 180 255 621 2420
2025-11-16 18:00 5.48 10 21200 (2010) 1 (1954) 643 2 4 8 11 47 180 255 621 2420
2025-11-16 17:30 5.48 10 21200 (2010) 1 (1954) 643 2 4 8 11 47 180 255 621 2420
2025-11-16 17:00 5.49 11 21200 (2010) 1 (1954) 643 2 4 8 11 47 180 255 621 2420
2025-11-16 16:30 5.49 11 21200 (2010) 1 (1954) 643 2 4 8 11 47 180 255 621 2420
2025-11-16 16:00 5.50 11 21200 (2010) 1 (1954) 643 2 4 8 11 47 180 255 621 2420
2025-11-16 15:30 5.51 12 21200 (2010) 1 (1954) 643 2 4 8 11 47 180 255 621 2420
2025-11-16 15:00 5.51 12 21200 (2010) 1 (1954) 643 2 4 8 11 47 180 255 621 2420
2025-11-16 14:30 5.51 12 21200 (2010) 1 (1954) 643 2 4 8 11 47 180 255 621 2420
2025-11-16 14:00 5.51 12 21200 (2010) 1 (1954) 643 2 4 8 11 47 180 255 621 2420
2025-11-16 13:30 5.51 12 21200 (2010) 1 (1954) 643 2 4 8 11 47 180 255 621 2420
2025-11-16 13:00 5.51 12 21200 (2010) 1 (1954) 643 2 4 8 11 47 180 255 621 2420
2025-11-16 12:30 5.51 12 21200 (2010) 1 (1954) 643 2 4 8 11 47 180 255 621 2420
2025-11-16 12:00 5.51 12 21200 (2010) 1 (1954) 643 2 4 8 11 47 180 255 621 2420
2025-11-16 11:30 5.51 12 21200 (2010) 1 (1954) 643 2 4 8 11 47 180 255 621 2420
2025-11-16 11:00 5.51 12 21200 (2010) 1 (1954) 643 2 4 8 11 47 180 255 621 2420
2025-11-16 10:30 5.51 12 21200 (2010) 1 (1954) 643 2 4 8 11 47 180 255 621 2420
2025-11-16 10:00 5.51 12 21200 (2010) 1 (1954) 643 2 4 8 11 47 180 255 621 2420
2025-11-16 09:30 5.51 12 21200 (2010) 1 (1954) 643 2 4 8 11 47 180 255 621 2420
2025-11-16 09:00 5.51 12 21200 (2010) 1 (1954) 643 2 4 8 11 47 180 255 621 2420
2025-11-16 08:30 5.51 12 21200 (2010) 1 (1954) 643 2 4 8 11 47 180 255 621 2420
2025-11-16 08:00 5.51 12 21200 (2010) 1 (1954) 643 2 4 8 11 47 180 255 621 2420
2025-11-16 07:30 5.51 12 21200 (2010) 1 (1954) 643 2 4 8 11 47 180 255 621 2420
2025-11-16 07:00 5.51 12 21200 (2010) 1 (1954) 643 2 4 8 11 47 180 255 621 2420
2025-11-16 06:30 5.51 12 21200 (2010) 1 (1954) 643 2 4 8 11 47 180 255 621 2420
2025-11-16 06:00 5.51 12 21200 (2010) 1 (1954) 643 2 4 8 11 47 180 255 621 2420
2025-11-16 05:30 5.51 12 21200 (2010) 1 (1954) 643 2 4 8 11 47 180 255 621 2420
2025-11-16 05:00 5.51 12 21200 (2010) 1 (1954) 643 2 4 8 11 47 180 255 621 2420
2025-11-16 04:30 5.51 12 21200 (2010) 1 (1954) 643 2 4 8 11 47 180 255 621 2420
2025-11-16 04:00 5.51 12 21200 (2010) 1 (1954) 643 2 4 8 11 47 180 255 621 2420
2025-11-16 03:30 5.50 11 21200 (2010) 1 (1954) 643 2 4 8 11 47 180 255 621 2420
2025-11-16 03:00 5.50 11 21200 (2010) 1 (1954) 643 2 4 8 11 47 180 255 621 2420
2025-11-16 02:30 5.50 11 21200 (2010) 1 (1954) 643 2 4 8 11 47 180 255 621 2420
2025-11-16 02:00 11 21200 (2010) 1 (1954) 643 2 4 8 11 47 180 255 621 2420
2025-11-16 01:30 5.49 11 21200 (2010) 1 (1954) 643 2 4 8 11 47 180 255 621 2420
2025-11-16 01:00 5.49 11 21200 (2010) 1 (1954) 643 2 4 8 11 47 180 255 621 2420
2025-11-16 00:30 11 21200 (2010) 1 (1954) 643 2 4 8 11 47 180 255 621 2420
2025-11-16 00:00 5.49 11 21200 (2010) 1 (1954) 643 2 4 8 11 47 180 255 621 2420
2025-11-15 23:30 5.49 11 21200 (2010) 1 (1954) 643 2 4 8 11 47 180 255 621 2420
2025-11-15 23:00 11 21200 (2010) 1 (1954) 643 2 4 8 11 47 180 255 621 2420
2025-11-15 22:30 5.49 11 11200 (1986) 0 (1965) 447 2 3 7 10 41 136 268 506 2070
2025-11-15 22:00 5.49 11 11200 (1986) 0 (1965) 447 2 3 7 10 41 136 268 506 2070
2025-11-15 21:30 11 11200 (1986) 0 (1965) 447 2 3 7 10 41 136 268 506 2070
2025-11-15 21:00 5.50 11 11200 (1986) 0 (1965) 447 2 3 7 10 41 136 268 506 2070
2025-11-15 20:30 5.49 11 11200 (1986) 0 (1965) 447 2 3 7 10 41 136 268 506 2070
2025-11-15 20:00 5.50 11 11200 (1986) 0 (1965) 447 2 3 7 10 41 136 268 506 2070
2025-11-15 19:30 5.50 11 11200 (1986) 0 (1965) 447 2 3 7 10 41 136 268 506 2070
2025-11-15 19:00 5.50 11 11200 (1986) 0 (1965) 447 2 3 7 10 41 136 268 506 2070
2025-11-15 18:30 5.50 11 11200 (1986) 0 (1965) 447 2 3 7 10 41 136 268 506 2070
2025-11-15 18:00 5.50 11 11200 (1986) 0 (1965) 447 2 3 7 10 41 136 268 506 2070
2025-11-15 17:30 5.50 11 11200 (1986) 0 (1965) 447 2 3 7 10 41 136 268 506 2070
2025-11-15 17:00 5.50 11 11200 (1986) 0 (1965) 447 2 3 7 10 41 136 268 506 2070
2025-11-15 16:30 5.50 11 11200 (1986) 0 (1965) 447 2 3 7 10 41 136 268 506 2070
2025-11-15 16:00 5.50 11 11200 (1986) 0 (1965) 447 2 3 7 10 41 136 268 506 2070
2025-11-15 15:30 5.51 12 11200 (1986) 0 (1965) 447 2 3 7 10 41 136 268 506 2070
2025-11-15 15:00 5.50 11 11200 (1986) 0 (1965) 447 2 3 7 10 41 136 268 506 2070
2025-11-15 14:30 5.51 12 11200 (1986) 0 (1965) 447 2 3 7 10 41 136 268 506 2070
2025-11-15 14:00 5.46 9 11200 (1986) 0 (1965) 447 2 3 7 10 41 136 268 506 2070
2025-11-15 13:30 5.46 9 11200 (1986) 0 (1965) 447 2 3 7 10 41 136 268 506 2070
2025-11-15 13:00 5.51 12 11200 (1986) 0 (1965) 447 2 3 7 10 41 136 268 506 2070
2025-11-15 12:30 5.45 9 11200 (1986) 0 (1965) 447 2 3 7 10 41 136 268 506 2070
2025-11-15 12:00 5.47 10 11200 (1986) 0 (1965) 447 2 3 7 10 41 136 268 506 2070
2025-11-15 11:30 5.45 9 11200 (1986) 0 (1965) 447 2 3 7 10 41 136 268 506 2070
2025-11-15 11:00 5.46 9 11200 (1986) 0 (1965) 447 2 3 7 10 41 136 268 506 2070
2025-11-15 10:30 5.45 9 11200 (1986) 0 (1965) 447 2 3 7 10 41 136 268 506 2070
2025-11-15 10:00 5.49 11 11200 (1986) 0 (1965) 447 2 3 7 10 41 136 268 506 2070
2025-11-15 09:30 5.47 10 11200 (1986) 0 (1965) 447 2 3 7 10 41 136 268 506 2070
2025-11-15 09:00 5.48 10 11200 (1986) 0 (1965) 447 2 3 7 10 41 136 268 506 2070
2025-11-15 08:30 5.53 13 11200 (1986) 0 (1965) 447 2 3 7 10 41 136 268 506 2070
2025-11-15 08:00 5.53 13 11200 (1986) 0 (1965) 447 2 3 7 10 41 136 268 506 2070
2025-11-15 07:30 5.53 13 11200 (1986) 0 (1965) 447 2 3 7 10 41 136 268 506 2070
2025-11-15 07:00 5.53 13 11200 (1986) 0 (1965) 447 2 3 7 10 41 136 268 506 2070
2025-11-15 06:30 5.53 13 11200 (1986) 0 (1965) 447 2 3 7 10 41 136 268 506 2070
2025-11-15 06:00 5.53 13 11200 (1986) 0 (1965) 447 2 3 7 10 41 136 268 506 2070
2025-11-15 05:30 5.54 13 11200 (1986) 0 (1965) 447 2 3 7 10 41 136 268 506 2070
2025-11-15 05:00 5.54 13 11200 (1986) 0 (1965) 447 2 3 7 10 41 136 268 506 2070
2025-11-15 04:30 5.54 13 11200 (1986) 0 (1965) 447 2 3 7 10 41 136 268 506 2070
2025-11-15 04:00 5.54 13 11200 (1986) 0 (1965) 447 2 3 7 10 41 136 268 506 2070
2025-11-15 03:30 5.54 13 11200 (1986) 0 (1965) 447 2 3 7 10 41 136 268 506 2070
2025-11-15 03:00 5.54 13 11200 (1986) 0 (1965) 447 2 3 7 10 41 136 268 506 2070
2025-11-15 02:30 5.55 14 11200 (1986) 0 (1965) 447 2 3 7 10 41 136 268 506 2070
2025-11-15 02:00 14 11200 (1986) 0 (1965) 447 2 3 7 10 41 136 268 506 2070
2025-11-15 01:30 14 11200 (1986) 0 (1965) 447 2 3 7 10 41 136 268 506 2070
2025-11-15 01:00 5.55 14 11200 (1986) 0 (1965) 447 2 3 7 10 41 136 268 506 2070
2025-11-15 00:30 14 11200 (1986) 0 (1965) 447 2 3 7 10 41 136 268 506 2070
2025-11-15 00:00 5.55 14 11200 (1986) 0 (1965) 447 2 3 7 10 41 136 268 506 2070
2025-11-14 23:30 14 11200 (1986) 0 (1965) 447 2 3 7 10 41 136 268 506 2070
2025-11-14 23:00 5.56 14 11200 (1986) 0 (1965) 447 2 3 7 10 41 136 268 506 2070
2025-11-14 22:30 5.55 14 21600 (1927) 0 (1965) 555 2 3 7 10 32 147 211 635 2700
2025-11-14 22:00 14 21600 (1927) 0 (1965) 555 2 3 7 10 32 147 211 635 2700
2025-11-14 21:30 5.56 14 21600 (1927) 0 (1965) 555 2 3 7 10 32 147 211 635 2700
2025-11-14 21:00 14 21600 (1927) 0 (1965) 555 2 3 7 10 32 147 211 635 2700
2025-11-14 20:30 5.57 15 21600 (1927) 0 (1965) 555 2 3 7 10 32 147 211 635 2700
2025-11-14 20:00 5.57 15 21600 (1927) 0 (1965) 555 2 3 7 10 32 147 211 635 2700
2025-11-14 19:30 5.57 15 21600 (1927) 0 (1965) 555 2 3 7 10 32 147 211 635 2700
2025-11-14 19:00 15 21600 (1927) 0 (1965) 555 2 3 7 10 32 147 211 635 2700
2025-11-14 18:30 5.58 15 21600 (1927) 0 (1965) 555 2 3 7 10 32 147 211 635 2700
2025-11-14 18:00 5.58 15 21600 (1927) 0 (1965) 555 2 3 7 10 32 147 211 635 2700
2025-11-14 17:30 5.58 15 21600 (1927) 0 (1965) 555 2 3 7 10 32 147 211 635 2700
2025-11-14 17:00 5.58 15 21600 (1927) 0 (1965) 555 2 3 7 10 32 147 211 635 2700
2025-11-14 16:30 5.59 16 21600 (1927) 0 (1965) 555 2 3 7 10 32 147 211 635 2700
2025-11-14 16:00 5.59 16 21600 (1927) 0 (1965) 555 2 3 7 10 32 147 211 635 2700
2025-11-14 15:30 5.59 16 21600 (1927) 0 (1965) 555 2 3 7 10 32 147 211 635 2700
2025-11-14 15:00 16 21600 (1927) 0 (1965) 555 2 3 7 10 32 147 211 635 2700
2025-11-14 14:30 5.58 15 21600 (1927) 0 (1965) 555 2 3 7 10 32 147 211 635 2700
2025-11-14 14:00 17 21600 (1927) 0 (1965) 555 2 3 7 10 32 147 211 635 2700
2025-11-14 13:30 5.61 17 21600 (1927) 0 (1965) 555 2 3 7 10 32 147 211 635 2700
2025-11-14 13:00 5.62 18 21600 (1927) 0 (1965) 555 2 3 7 10 32 147 211 635 2700
2025-11-14 12:30 5.62 18 21600 (1927) 0 (1965) 555 2 3 7 10 32 147 211 635 2700
2025-11-14 12:00 5.62 18 21600 (1927) 0 (1965) 555 2 3 7 10 32 147 211 635 2700
2025-11-14 11:30 15 21600 (1927) 0 (1965) 555 2 3 7 10 32 147 211 635 2700
2025-11-14 11:00 5.61 17 21600 (1927) 0 (1965) 555 2 3 7 10 32 147 211 635 2700
2025-11-14 10:30 18 21600 (1927) 0 (1965) 555 2 3 7 10 32 147 211 635 2700
2025-11-14 10:00 5.63 18 21600 (1927) 0 (1965) 555 2 3 7 10 32 147 211 635 2700
2025-11-14 09:30 5.63 18 21600 (1927) 0 (1965) 555 2 3 7 10 32 147 211 635 2700
2025-11-14 09:00 5.63 18 21600 (1927) 0 (1965) 555 2 3 7 10 32 147 211 635 2700
2025-11-14 08:30 18 21600 (1927) 0 (1965) 555 2 3 7 10 32 147 211 635 2700
2025-11-14 08:00 5.63 18 21600 (1927) 0 (1965) 555 2 3 7 10 32 147 211 635 2700
2025-11-14 07:30 5.61 17 21600 (1927) 0 (1965) 555 2 3 7 10 32 147 211 635 2700
2025-11-14 07:00 5.60 16 21600 (1927) 0 (1965) 555 2 3 7 10 32 147 211 635 2700
2025-11-14 06:30 5.58 15 21600 (1927) 0 (1965) 555 2 3 7 10 32 147 211 635 2700
2025-11-14 06:00 5.56 14 21600 (1927) 0 (1965) 555 2 3 7 10 32 147 211 635 2700
2025-11-14 05:30 5.54 13 21600 (1927) 0 (1965) 555 2 3 7 10 32 147 211 635 2700
2025-11-14 05:00 5.52 12 21600 (1927) 0 (1965) 555 2 3 7 10 32 147 211 635 2700
2025-11-14 04:30 5.51 12 21600 (1927) 0 (1965) 555 2 3 7 10 32 147 211 635 2700
2025-11-14 04:00 5.50 11 21600 (1927) 0 (1965) 555 2 3 7 10 32 147 211 635 2700
2025-11-14 03:30 5.49 11 21600 (1927) 0 (1965) 555 2 3 7 10 32 147 211 635 2700
2025-11-14 03:00 5.49 11 21600 (1927) 0 (1965) 555 2 3 7 10 32 147 211 635 2700
2025-11-14 02:30 5.48 10 21600 (1927) 0 (1965) 555 2 3 7 10 32 147 211 635 2700
2025-11-14 02:00 5.48 10 21600 (1927) 0 (1965) 555 2 3 7 10 32 147 211 635 2700
2025-11-14 01:30 5.48 10 21600 (1927) 0 (1965) 555 2 3 7 10 32 147 211 635 2700
2025-11-14 01:00 5.48 10 21600 (1927) 0 (1965) 555 2 3 7 10 32 147 211 635 2700
2025-11-14 00:30 10 21600 (1927) 0 (1965) 555 2 3 7 10 32 147 211 635 2700
2025-11-14 00:00 5.48 10 21600 (1927) 0 (1965) 555 2 3 7 10 32 147 211 635 2700
2025-11-13 23:30 5.48 10 21600 (1927) 0 (1965) 555 2 3 7 10 32 147 211 635 2700
2025-11-13 23:00 10 21600 (1927) 0 (1965) 555 2 3 7 10 32 147 211 635 2700
2025-11-13 22:30 5.49 11 6530 (1993) 0 (1965) 267 2 3 8 10 37 128 206 576 1100
2025-11-13 22:00 11 6530 (1993) 0 (1965) 267 2 3 8 10 37 128 206 576 1100
2025-11-13 21:30 5.48 10 6530 (1993) 0 (1965) 267 2 3 8 10 37 128 206 576 1100
2025-11-13 21:00 11 6530 (1993) 0 (1965) 267 2 3 8 10 37 128 206 576 1100
2025-11-13 20:30 5.49 11 6530 (1993) 0 (1965) 267 2 3 8 10 37 128 206 576 1100
2025-11-13 20:00 11 6530 (1993) 0 (1965) 267 2 3 8 10 37 128 206 576 1100
2025-11-13 19:30 5.49 11 6530 (1993) 0 (1965) 267 2 3 8 10 37 128 206 576 1100
2025-11-13 19:00 5.48 10 6530 (1993) 0 (1965) 267 2 3 8 10 37 128 206 576 1100
2025-11-13 18:30 5.48 10 6530 (1993) 0 (1965) 267 2 3 8 10 37 128 206 576 1100
2025-11-13 18:00 10 6530 (1993) 0 (1965) 267 2 3 8 10 37 128 206 576 1100
2025-11-13 17:30 5.48 10 6530 (1993) 0 (1965) 267 2 3 8 10 37 128 206 576 1100
2025-11-13 17:00 10 6530 (1993) 0 (1965) 267 2 3 8 10 37 128 206 576 1100
2025-11-13 16:30 5.48 10 6530 (1993) 0 (1965) 267 2 3 8 10 37 128 206 576 1100
2025-11-13 16:00 5.48 10 6530 (1993) 0 (1965) 267 2 3 8 10 37 128 206 576 1100
2025-11-13 15:30 5.49 11 6530 (1993) 0 (1965) 267 2 3 8 10 37 128 206 576 1100
2025-11-13 15:00 10 6530 (1993) 0 (1965) 267 2 3 8 10 37 128 206 576 1100
2025-11-13 14:30 5.45 9 6530 (1993) 0 (1965) 267 2 3 8 10 37 128 206 576 1100
2025-11-13 14:00 5.42 8 6530 (1993) 0 (1965) 267 2 3 8 10 37 128 206 576 1100
2025-11-13 13:30 5.49 11 6530 (1993) 0 (1965) 267 2 3 8 10 37 128 206 576 1100
2025-11-13 13:00 5.44 9 6530 (1993) 0 (1965) 267 2 3 8 10 37 128 206 576 1100
2025-11-13 12:30 5.48 10 6530 (1993) 0 (1965) 267 2 3 8 10 37 128 206 576 1100
2025-11-13 12:00 5.45 9 6530 (1993) 0 (1965) 267 2 3 8 10 37 128 206 576 1100
2025-11-13 11:30 5.42 8 6530 (1993) 0 (1965) 267 2 3 8 10 37 128 206 576 1100
2025-11-13 11:00 5.45 9 6530 (1993) 0 (1965) 267 2 3 8 10 37 128 206 576 1100
2025-11-13 10:30 5.44 9 6530 (1993) 0 (1965) 267 2 3 8 10 37 128 206 576 1100
2025-11-13 10:00 5.48 10 6530 (1993) 0 (1965) 267 2 3 8 10 37 128 206 576 1100
2025-11-13 09:30 5.50 11 6530 (1993) 0 (1965) 267 2 3 8 10 37 128 206 576 1100
2025-11-13 09:00 5.50 11 6530 (1993) 0 (1965) 267 2 3 8 10 37 128 206 576 1100
2025-11-13 08:30 11 6530 (1993) 0 (1965) 267 2 3 8 10 37 128 206 576 1100
2025-11-13 08:00 5.50 11 6530 (1993) 0 (1965) 267 2 3 8 10 37 128 206 576 1100
2025-11-13 07:30 5.50 11 6530 (1993) 0 (1965) 267 2 3 8 10 37 128 206 576 1100
2025-11-13 07:00 5.51 12 6530 (1993) 0 (1965) 267 2 3 8 10 37 128 206 576 1100
2025-11-13 06:30 5.51 12 6530 (1993) 0 (1965) 267 2 3 8 10 37 128 206 576 1100
2025-11-13 06:00 5.50 11 6530 (1993) 0 (1965) 267 2 3 8 10 37 128 206 576 1100
2025-11-13 05:30 5.50 11 6530 (1993) 0 (1965) 267 2 3 8 10 37 128 206 576 1100
2025-11-13 05:00 5.51 12 6530 (1993) 0 (1965) 267 2 3 8 10 37 128 206 576 1100
2025-11-13 04:30 5.51 12 6530 (1993) 0 (1965) 267 2 3 8 10 37 128 206 576 1100
2025-11-13 04:00 5.51 12 6530 (1993) 0 (1965) 267 2 3 8 10 37 128 206 576 1100
2025-11-13 03:30 5.51 12 6530 (1993) 0 (1965) 267 2 3 8 10 37 128 206 576 1100
2025-11-13 03:00 12 6530 (1993) 0 (1965) 267 2 3 8 10 37 128 206 576 1100
2025-11-13 02:30 5.51 12 6530 (1993) 0 (1965) 267 2 3 8 10 37 128 206 576 1100
2025-11-13 02:00 5.51 12 6530 (1993) 0 (1965) 267 2 3 8 10 37 128 206 576 1100
2025-11-13 01:30 5.51 12 6530 (1993) 0 (1965) 267 2 3 8 10 37 128 206 576 1100
2025-11-13 01:00 5.51 12 6530 (1993) 0 (1965) 267 2 3 8 10 37 128 206 576 1100
2025-11-13 00:30 5.51 12 6530 (1993) 0 (1965) 267 2 3 8 10 37 128 206 576 1100
2025-11-13 00:00 5.51 12 6530 (1993) 0 (1965) 267 2 3 8 10 37 128 206 576 1100
2025-11-12 23:30 12 6530 (1993) 0 (1965) 267 2 3 8 10 37 128 206 576 1100
2025-11-12 23:00 5.51 12 6530 (1993) 0 (1965) 267 2 3 8 10 37 128 206 576 1100
2025-11-12 22:30 5.51 12 4360 (1993) 0 (1965) 233 2 3 8 12 39 144 258 472 1270
2025-11-12 22:00 5.51 12 4360 (1993) 0 (1965) 233 2 3 8 12 39 144 258 472 1270
2025-11-12 21:30 5.51 12 4360 (1993) 0 (1965) 233 2 3 8 12 39 144 258 472 1270
2025-11-12 21:00 5.51 12 4360 (1993) 0 (1965) 233 2 3 8 12 39 144 258 472 1270
2025-11-12 20:30 5.51 12 4360 (1993) 0 (1965) 233 2 3 8 12 39 144 258 472 1270
2025-11-12 20:00 5.51 12 4360 (1993) 0 (1965) 233 2 3 8 12 39 144 258 472 1270
2025-11-12 19:30 5.51 12 4360 (1993) 0 (1965) 233 2 3 8 12 39 144 258 472 1270
2025-11-12 19:00 5.51 12 4360 (1993) 0 (1965) 233 2 3 8 12 39 144 258 472 1270
2025-11-12 18:30 5.51 12 4360 (1993) 0 (1965) 233 2 3 8 12 39 144 258 472 1270
2025-11-12 18:00 5.51 12 4360 (1993) 0 (1965) 233 2 3 8 12 39 144 258 472 1270
2025-11-12 17:30 5.51 12 4360 (1993) 0 (1965) 233 2 3 8 12 39 144 258 472 1270
2025-11-12 17:00 5.51 12 4360 (1993) 0 (1965) 233 2 3 8 12 39 144 258 472 1270
2025-11-12 16:30 5.51 12 4360 (1993) 0 (1965) 233 2 3 8 12 39 144 258 472 1270
2025-11-12 16:00 5.51 12 4360 (1993) 0 (1965) 233 2 3 8 12 39 144 258 472 1270
2025-11-12 15:30 5.51 12 4360 (1993) 0 (1965) 233 2 3 8 12 39 144 258 472 1270
2025-11-12 15:00 5.51 12 4360 (1993) 0 (1965) 233 2 3 8 12 39 144 258 472 1270
2025-11-12 14:30 5.52 12 4360 (1993) 0 (1965) 233 2 3 8 12 39 144 258 472 1270
2025-11-12 14:00 5.47 10 4360 (1993) 0 (1965) 233 2 3 8 12 39 144 258 472 1270
2025-11-12 13:30 5.52 12 4360 (1993) 0 (1965) 233 2 3 8 12 39 144 258 472 1270
2025-11-12 13:00 5.52 12 4360 (1993) 0 (1965) 233 2 3 8 12 39 144 258 472 1270
2025-11-12 12:30 5.52 12 4360 (1993) 0 (1965) 233 2 3 8 12 39 144 258 472 1270
2025-11-12 12:00 5.52 12 4360 (1993) 0 (1965) 233 2 3 8 12 39 144 258 472 1270
2025-11-12 11:30 5.53 13 4360 (1993) 0 (1965) 233 2 3 8 12 39 144 258 472 1270
2025-11-12 11:00 5.52 12 4360 (1993) 0 (1965) 233 2 3 8 12 39 144 258 472 1270
2025-11-12 10:30 5.52 12 4360 (1993) 0 (1965) 233 2 3 8 12 39 144 258 472 1270
2025-11-12 10:00 5.53 13 4360 (1993) 0 (1965) 233 2 3 8 12 39 144 258 472 1270
2025-11-12 09:30 5.53 13 4360 (1993) 0 (1965) 233 2 3 8 12 39 144 258 472 1270
2025-11-12 09:00 5.53 13 4360 (1993) 0 (1965) 233 2 3 8 12 39 144 258 472 1270
2025-11-12 08:30 5.53 13 4360 (1993) 0 (1965) 233 2 3 8 12 39 144 258 472 1270
2025-11-12 08:00 5.53 13 4360 (1993) 0 (1965) 233 2 3 8 12 39 144 258 472 1270
2025-11-12 07:30 5.53 13 4360 (1993) 0 (1965) 233 2 3 8 12 39 144 258 472 1270
2025-11-12 07:00 5.53 13 4360 (1993) 0 (1965) 233 2 3 8 12 39 144 258 472 1270
2025-11-12 06:30 5.53 13 4360 (1993) 0 (1965) 233 2 3 8 12 39 144 258 472 1270
2025-11-12 06:00 5.53 13 4360 (1993) 0 (1965) 233 2 3 8 12 39 144 258 472 1270
2025-11-12 05:30 5.53 13 4360 (1993) 0 (1965) 233 2 3 8 12 39 144 258 472 1270
2025-11-12 05:00 5.53 13 4360 (1993) 0 (1965) 233 2 3 8 12 39 144 258 472 1270
2025-11-12 04:30 5.53 13 4360 (1993) 0 (1965) 233 2 3 8 12 39 144 258 472 1270
2025-11-12 04:00 5.53 13 4360 (1993) 0 (1965) 233 2 3 8 12 39 144 258 472 1270
2025-11-12 03:30 5.53 13 4360 (1993) 0 (1965) 233 2 3 8 12 39 144 258 472 1270
2025-11-12 03:00 5.53 13 4360 (1993) 0 (1965) 233 2 3 8 12 39 144 258 472 1270
2025-11-12 02:30 5.53 13 4360 (1993) 0 (1965) 233 2 3 8 12 39 144 258 472 1270
2025-11-12 02:00 5.53 13 4360 (1993) 0 (1965) 233 2 3 8 12 39 144 258 472 1270
2025-11-12 01:30 5.53 13 4360 (1993) 0 (1965) 233 2 3 8 12 39 144 258 472 1270
2025-11-12 01:00 5.53 13 4360 (1993) 0 (1965) 233 2 3 8 12 39 144 258 472 1270
2025-11-12 00:30 5.52 12 4360 (1993) 0 (1965) 233 2 3 8 12 39 144 258 472 1270
2025-11-12 00:00 12 4360 (1993) 0 (1965) 233 2 3 8 12 39 144 258 472 1270
2025-11-11 23:30 5.52 12 4360 (1993) 0 (1965) 233 2 3 8 12 39 144 258 472 1270
2025-11-11 23:00 5.51 12 4360 (1993) 0 (1965) 233 2 3 8 12 39 144 258 472 1270
2025-11-11 22:30 5.51 12 5020 (1999) 0 (1965) 237 2 3 8 11 38 152 237 565 1090
2025-11-11 22:00 5.51 12 5020 (1999) 0 (1965) 237 2 3 8 11 38 152 237 565 1090
2025-11-11 21:30 5.50 11 5020 (1999) 0 (1965) 237 2 3 8 11 38 152 237 565 1090
2025-11-11 21:00 5.50 11 5020 (1999) 0 (1965) 237 2 3 8 11 38 152 237 565 1090
2025-11-11 20:30 5.50 11 5020 (1999) 0 (1965) 237 2 3 8 11 38 152 237 565 1090
2025-11-11 20:00 5.50 11 5020 (1999) 0 (1965) 237 2 3 8 11 38 152 237 565 1090
2025-11-11 19:30 5.49 11 5020 (1999) 0 (1965) 237 2 3 8 11 38 152 237 565 1090
2025-11-11 19:00 5.50 11 5020 (1999) 0 (1965) 237 2 3 8 11 38 152 237 565 1090
2025-11-11 18:30 5.49 11 5020 (1999) 0 (1965) 237 2 3 8 11 38 152 237 565 1090
2025-11-11 18:00 5.49 11 5020 (1999) 0 (1965) 237 2 3 8 11 38 152 237 565 1090
2025-11-11 17:30 5.49 11 5020 (1999) 0 (1965) 237 2 3 8 11 38 152 237 565 1090
2025-11-11 17:00 5.49 11 5020 (1999) 0 (1965) 237 2 3 8 11 38 152 237 565 1090
2025-11-11 16:30 5.49 11 5020 (1999) 0 (1965) 237 2 3 8 11 38 152 237 565 1090
2025-11-11 16:00 5.47 10 5020 (1999) 0 (1965) 237 2 3 8 11 38 152 237 565 1090
2025-11-11 15:30 5.44 9 5020 (1999) 0 (1965) 237 2 3 8 11 38 152 237 565 1090
2025-11-11 15:00 5.43 8 5020 (1999) 0 (1965) 237 2 3 8 11 38 152 237 565 1090
2025-11-11 14:30 5.42 8 5020 (1999) 0 (1965) 237 2 3 8 11 38 152 237 565 1090
2025-11-11 14:00 5.42 8 5020 (1999) 0 (1965) 237 2 3 8 11 38 152 237 565 1090
2025-11-11 13:30 5.43 8 5020 (1999) 0 (1965) 237 2 3 8 11 38 152 237 565 1090
2025-11-11 13:00 5.44 9 5020 (1999) 0 (1965) 237 2 3 8 11 38 152 237 565 1090
2025-11-11 12:30 5.42 8 5020 (1999) 0 (1965) 237 2 3 8 11 38 152 237 565 1090
2025-11-11 12:00 5.47 10 5020 (1999) 0 (1965) 237 2 3 8 11 38 152 237 565 1090
2025-11-11 11:30 5.46 9 5020 (1999) 0 (1965) 237 2 3 8 11 38 152 237 565 1090
2025-11-11 11:00 5.48 10 5020 (1999) 0 (1965) 237 2 3 8 11 38 152 237 565 1090
2025-11-11 10:30 5.49 11 5020 (1999) 0 (1965) 237 2 3 8 11 38 152 237 565 1090
2025-11-11 10:00 5.51 12 5020 (1999) 0 (1965) 237 2 3 8 11 38 152 237 565 1090
2025-11-11 09:30 5.51 12 5020 (1999) 0 (1965) 237 2 3 8 11 38 152 237 565 1090
2025-11-11 09:00 5.51 12 5020 (1999) 0 (1965) 237 2 3 8 11 38 152 237 565 1090
2025-11-11 08:30 5.51 12 5020 (1999) 0 (1965) 237 2 3 8 11 38 152 237 565 1090
2025-11-11 08:00 5.51 12 5020 (1999) 0 (1965) 237 2 3 8 11 38 152 237 565 1090
2025-11-11 07:30 5.51 12 5020 (1999) 0 (1965) 237 2 3 8 11 38 152 237 565 1090
2025-11-11 07:00 5.51 12 5020 (1999) 0 (1965) 237 2 3 8 11 38 152 237 565 1090
2025-11-11 06:30 5.51 12 5020 (1999) 0 (1965) 237 2 3 8 11 38 152 237 565 1090
2025-11-11 06:00 5.51 12 5020 (1999) 0 (1965) 237 2 3 8 11 38 152 237 565 1090
2025-11-11 05:30 5.51 12 5020 (1999) 0 (1965) 237 2 3 8 11 38 152 237 565 1090
2025-11-11 05:00 5.51 12 5020 (1999) 0 (1965) 237 2 3 8 11 38 152 237 565 1090
2025-11-11 04:30 5.51 12 5020 (1999) 0 (1965) 237 2 3 8 11 38 152 237 565 1090
2025-11-11 04:00 5.51 12 5020 (1999) 0 (1965) 237 2 3 8 11 38 152 237 565 1090
2025-11-11 03:30 5.51 12 5020 (1999) 0 (1965) 237 2 3 8 11 38 152 237 565 1090
2025-11-11 03:00 12 5020 (1999) 0 (1965) 237 2 3 8 11 38 152 237 565 1090
2025-11-11 02:30 5.51 12 5020 (1999) 0 (1965) 237 2 3 8 11 38 152 237 565 1090
2025-11-11 02:00 12 5020 (1999) 0 (1965) 237 2 3 8 11 38 152 237 565 1090
2025-11-11 01:30 5.51 12 5020 (1999) 0 (1965) 237 2 3 8 11 38 152 237 565 1090
2025-11-11 01:00 5.51 12 5020 (1999) 0 (1965) 237 2 3 8 11 38 152 237 565 1090
2025-11-11 00:30 12 5020 (1999) 0 (1965) 237 2 3 8 11 38 152 237 565 1090
2025-11-11 00:00 5.51 12 5020 (1999) 0 (1965) 237 2 3 8 11 38 152 237 565 1090
2025-11-10 23:30 5.51 12 5020 (1999) 0 (1965) 237 2 3 8 11 38 152 237 565 1090
2025-11-10 23:00 5.51 12 5020 (1999) 0 (1965) 237 2 3 8 11 38 152 237 565 1090
2025-11-10 22:30 5.51 12 9370 (1999) 0 (1965) 375 2 4 7 11 37 152 187 701 1380
2025-11-10 22:00 5.51 12 9370 (1999) 0 (1965) 375 2 4 7 11 37 152 187 701 1380
2025-11-10 21:30 5.51 12 9370 (1999) 0 (1965) 375 2 4 7 11 37 152 187 701 1380
2025-11-10 21:00 5.51 12 9370 (1999) 0 (1965) 375 2 4 7 11 37 152 187 701 1380
2025-11-10 20:30 5.51 12 9370 (1999) 0 (1965) 375 2 4 7 11 37 152 187 701 1380
2025-11-10 20:00 5.51 12 9370 (1999) 0 (1965) 375 2 4 7 11 37 152 187 701 1380
2025-11-10 19:30 5.51 12 9370 (1999) 0 (1965) 375 2 4 7 11 37 152 187 701 1380
2025-11-10 19:00 5.51 12 9370 (1999) 0 (1965) 375 2 4 7 11 37 152 187 701 1380
2025-11-10 18:30 5.51 12 9370 (1999) 0 (1965) 375 2 4 7 11 37 152 187 701 1380
2025-11-10 18:00 5.51 12 9370 (1999) 0 (1965) 375 2 4 7 11 37 152 187 701 1380
2025-11-10 17:30 5.51 12 9370 (1999) 0 (1965) 375 2 4 7 11 37 152 187 701 1380
2025-11-10 17:00 5.51 12 9370 (1999) 0 (1965) 375 2 4 7 11 37 152 187 701 1380
2025-11-10 16:30 5.47 10 9370 (1999) 0 (1965) 375 2 4 7 11 37 152 187 701 1380
2025-11-10 16:00 5.48 10 9370 (1999) 0 (1965) 375 2 4 7 11 37 152 187 701 1380
2025-11-10 15:30 5.47 10 9370 (1999) 0 (1965) 375 2 4 7 11 37 152 187 701 1380
2025-11-10 15:00 5.45 9 9370 (1999) 0 (1965) 375 2 4 7 11 37 152 187 701 1380
2025-11-10 14:30 5.52 12 9370 (1999) 0 (1965) 375 2 4 7 11 37 152 187 701 1380
2025-11-10 14:00 5.45 9 9370 (1999) 0 (1965) 375 2 4 7 11 37 152 187 701 1380
2025-11-10 13:30 5.47 10 9370 (1999) 0 (1965) 375 2 4 7 11 37 152 187 701 1380
2025-11-10 13:00 5.46 9 9370 (1999) 0 (1965) 375 2 4 7 11 37 152 187 701 1380
2025-11-10 12:30 5.46 9 9370 (1999) 0 (1965) 375 2 4 7 11 37 152 187 701 1380
2025-11-10 12:00 5.49 11 9370 (1999) 0 (1965) 375 2 4 7 11 37 152 187 701 1380
2025-11-10 11:30 5.44 9 9370 (1999) 0 (1965) 375 2 4 7 11 37 152 187 701 1380
2025-11-10 11:00 5.50 11 9370 (1999) 0 (1965) 375 2 4 7 11 37 152 187 701 1380
2025-11-10 10:30 5.49 11 9370 (1999) 0 (1965) 375 2 4 7 11 37 152 187 701 1380
2025-11-10 10:00 5.51 12 9370 (1999) 0 (1965) 375 2 4 7 11 37 152 187 701 1380
2025-11-10 09:30 5.51 12 9370 (1999) 0 (1965) 375 2 4 7 11 37 152 187 701 1380
2025-11-10 09:00 5.49 11 9370 (1999) 0 (1965) 375 2 4 7 11 37 152 187 701 1380
2025-11-10 08:30 5.46 9 9370 (1999) 0 (1965) 375 2 4 7 11 37 152 187 701 1380
2025-11-10 08:00 5.45 9 9370 (1999) 0 (1965) 375 2 4 7 11 37 152 187 701 1380
2025-11-10 07:30 5.44 9 9370 (1999) 0 (1965) 375 2 4 7 11 37 152 187 701 1380
2025-11-10 07:00 5.51 12 9370 (1999) 0 (1965) 375 2 4 7 11 37 152 187 701 1380
2025-11-10 06:30 5.44 9 9370 (1999) 0 (1965) 375 2 4 7 11 37 152 187 701 1380
2025-11-10 06:00 5.52 12 9370 (1999) 0 (1965) 375 2 4 7 11 37 152 187 701 1380
2025-11-10 05:30 5.51 12 9370 (1999) 0 (1965) 375 2 4 7 11 37 152 187 701 1380
2025-11-10 05:00 5.51 12 9370 (1999) 0 (1965) 375 2 4 7 11 37 152 187 701 1380
2025-11-10 04:30 5.52 12 9370 (1999) 0 (1965) 375 2 4 7 11 37 152 187 701 1380
2025-11-10 04:00 5.47 10 9370 (1999) 0 (1965) 375 2 4 7 11 37 152 187 701 1380
2025-11-10 03:30 5.50 11 9370 (1999) 0 (1965) 375 2 4 7 11 37 152 187 701 1380
2025-11-10 03:00 5.52 12 9370 (1999) 0 (1965) 375 2 4 7 11 37 152 187 701 1380
2025-11-10 02:30 5.52 12 9370 (1999) 0 (1965) 375 2 4 7 11 37 152 187 701 1380
2025-11-10 02:00 12 9370 (1999) 0 (1965) 375 2 4 7 11 37 152 187 701 1380
2025-11-10 01:30 5.51 12 9370 (1999) 0 (1965) 375 2 4 7 11 37 152 187 701 1380
2025-11-10 01:00 5.50 11 9370 (1999) 0 (1965) 375 2 4 7 11 37 152 187 701 1380
2025-11-10 00:30 5.51 12 9370 (1999) 0 (1965) 375 2 4 7 11 37 152 187 701 1380
2025-11-10 00:00 5.45 9 9370 (1999) 0 (1965) 375 2 4 7 11 37 152 187 701 1380
2025-11-09 23:30 12 9370 (1999) 0 (1965) 375 2 4 7 11 37 152 187 701 1380
2025-11-09 23:00 5.51 12 9370 (1999) 0 (1965) 375 2 4 7 11 37 152 187 701 1380
2025-11-09 22:30 5.52 12 7620 (1936) 0 (1965) 262 2 4 6 9 39 129 175 438 678
2025-11-09 22:00 5.52 12 7620 (1936) 0 (1965) 262 2 4 6 9 39 129 175 438 678
2025-11-09 21:30 5.51 12 7620 (1936) 0 (1965) 262 2 4 6 9 39 129 175 438 678
2025-11-09 21:00 5.51 12 7620 (1936) 0 (1965) 262 2 4 6 9 39 129 175 438 678
2025-11-09 20:30 5.51 12 7620 (1936) 0 (1965) 262 2 4 6 9 39 129 175 438 678
2025-11-09 20:00 5.51 12 7620 (1936) 0 (1965) 262 2 4 6 9 39 129 175 438 678
2025-11-09 19:30 5.51 12 7620 (1936) 0 (1965) 262 2 4 6 9 39 129 175 438 678
2025-11-09 19:00 5.51 12 7620 (1936) 0 (1965) 262 2 4 6 9 39 129 175 438 678
2025-11-09 18:30 5.51 12 7620 (1936) 0 (1965) 262 2 4 6 9 39 129 175 438 678
2025-11-09 18:00 5.51 12 7620 (1936) 0 (1965) 262 2 4 6 9 39 129 175 438 678
2025-11-09 17:30 5.51 12 7620 (1936) 0 (1965) 262 2 4 6 9 39 129 175 438 678
2025-11-09 17:00 5.51 12 7620 (1936) 0 (1965) 262 2 4 6 9 39 129 175 438 678
2025-11-09 16:30 5.49 11 7620 (1936) 0 (1965) 262 2 4 6 9 39 129 175 438 678
2025-11-09 16:00 5.45 9 7620 (1936) 0 (1965) 262 2 4 6 9 39 129 175 438 678
2025-11-09 15:30 5.50 11 7620 (1936) 0 (1965) 262 2 4 6 9 39 129 175 438 678
2025-11-09 15:00 5.51 12 7620 (1936) 0 (1965) 262 2 4 6 9 39 129 175 438 678
2025-11-09 14:30 5.46 9 7620 (1936) 0 (1965) 262 2 4 6 9 39 129 175 438 678
2025-11-09 14:00 5.46 9 7620 (1936) 0 (1965) 262 2 4 6 9 39 129 175 438 678
2025-11-09 13:30 5.46 9 7620 (1936) 0 (1965) 262 2 4 6 9 39 129 175 438 678
2025-11-09 13:00 5.43 8 7620 (1936) 0 (1965) 262 2 4 6 9 39 129 175 438 678
2025-11-09 12:30 5.46 9 7620 (1936) 0 (1965) 262 2 4 6 9 39 129 175 438 678
2025-11-09 12:00 5.44 9 7620 (1936) 0 (1965) 262 2 4 6 9 39 129 175 438 678
2025-11-09 11:30 5.47 10 7620 (1936) 0 (1965) 262 2 4 6 9 39 129 175 438 678
2025-11-09 11:00 5.50 11 7620 (1936) 0 (1965) 262 2 4 6 9 39 129 175 438 678
2025-11-09 10:30 5.48 10 7620 (1936) 0 (1965) 262 2 4 6 9 39 129 175 438 678
2025-11-09 10:00 5.46 9 7620 (1936) 0 (1965) 262 2 4 6 9 39 129 175 438 678
2025-11-09 09:30 5.47 10 7620 (1936) 0 (1965) 262 2 4 6 9 39 129 175 438 678
2025-11-09 09:00 5.46 9 7620 (1936) 0 (1965) 262 2 4 6 9 39 129 175 438 678
2025-11-09 08:30 5.52 12 7620 (1936) 0 (1965) 262 2 4 6 9 39 129 175 438 678
2025-11-09 08:00 5.50 11 7620 (1936) 0 (1965) 262 2 4 6 9 39 129 175 438 678
2025-11-09 07:30 5.47 10 7620 (1936) 0 (1965) 262 2 4 6 9 39 129 175 438 678
2025-11-09 07:00 5.47 10 7620 (1936) 0 (1965) 262 2 4 6 9 39 129 175 438 678
2025-11-09 06:30 5.53 13 7620 (1936) 0 (1965) 262 2 4 6 9 39 129 175 438 678
2025-11-09 06:00 5.48 10 7620 (1936) 0 (1965) 262 2 4 6 9 39 129 175 438 678
2025-11-09 05:30 5.52 12 7620 (1936) 0 (1965) 262 2 4 6 9 39 129 175 438 678
2025-11-09 05:00 5.52 12 7620 (1936) 0 (1965) 262 2 4 6 9 39 129 175 438 678
2025-11-09 04:30 5.51 12 7620 (1936) 0 (1965) 262 2 4 6 9 39 129 175 438 678
2025-11-09 04:00 5.48 10 7620 (1936) 0 (1965) 262 2 4 6 9 39 129 175 438 678
2025-11-09 03:30 5.52 12 7620 (1936) 0 (1965) 262 2 4 6 9 39 129 175 438 678
2025-11-09 03:00 5.51 12 7620 (1936) 0 (1965) 262 2 4 6 9 39 129 175 438 678
2025-11-09 02:30 5.50 11 7620 (1936) 0 (1965) 262 2 4 6 9 39 129 175 438 678
2025-11-09 02:00 5.47 10 7620 (1936) 0 (1965) 262 2 4 6 9 39 129 175 438 678
2025-11-09 01:30 11 7620 (1936) 0 (1965) 262 2 4 6 9 39 129 175 438 678
2025-11-09 01:00 5.49 11 7620 (1936) 0 (1965) 262 2 4 6 9 39 129 175 438 678
2025-11-09 00:30 10 7620 (1936) 0 (1965) 262 2 4 6 9 39 129 175 438 678
2025-11-09 00:00 5.49 11 7620 (1936) 0 (1965) 262 2 4 6 9 39 129 175 438 678
2025-11-08 23:30 11 7620 (1936) 0 (1965) 262 2 4 6 9 39 129 175 438 678
2025-11-08 23:00 14 7620 (1936) 0 (1965) 262 2 4 6 9 39 129 175 438 678
2025-11-08 22:30 5.48 10 24000 (1926) 0 (1965) 405 2 3 5 10 37 140 195 354 1030
2025-11-08 22:00 5.50 11 24000 (1926) 0 (1965) 405 2 3 5 10 37 140 195 354 1030
2025-11-08 21:30 11 24000 (1926) 0 (1965) 405 2 3 5 10 37 140 195 354 1030
2025-11-08 21:00 5.48 10 24000 (1926) 0 (1965) 405 2 3 5 10 37 140 195 354 1030
2025-11-08 20:30 5.50 11 24000 (1926) 0 (1965) 405 2 3 5 10 37 140 195 354 1030
2025-11-08 20:00 5.50 11 24000 (1926) 0 (1965) 405 2 3 5 10 37 140 195 354 1030
2025-11-08 19:30 5.50 11 24000 (1926) 0 (1965) 405 2 3 5 10 37 140 195 354 1030
2025-11-08 19:00 5.55 14 24000 (1926) 0 (1965) 405 2 3 5 10 37 140 195 354 1030
2025-11-08 18:30 5.56 14 24000 (1926) 0 (1965) 405 2 3 5 10 37 140 195 354 1030
2025-11-08 18:00 5.56 14 24000 (1926) 0 (1965) 405 2 3 5 10 37 140 195 354 1030
2025-11-08 17:30 5.56 14 24000 (1926) 0 (1965) 405 2 3 5 10 37 140 195 354 1030
2025-11-08 17:00 5.56 14 24000 (1926) 0 (1965) 405 2 3 5 10 37 140 195 354 1030
2025-11-08 16:30 5.56 14 24000 (1926) 0 (1965) 405 2 3 5 10 37 140 195 354 1030
2025-11-08 16:00 5.56 14 24000 (1926) 0 (1965) 405 2 3 5 10 37 140 195 354 1030
2025-11-08 15:30 5.56 14 24000 (1926) 0 (1965) 405 2 3 5 10 37 140 195 354 1030
2025-11-08 15:00 5.56 14 24000 (1926) 0 (1965) 405 2 3 5 10 37 140 195 354 1030
2025-11-08 14:30 5.56 14 24000 (1926) 0 (1965) 405 2 3 5 10 37 140 195 354 1030
2025-11-08 14:00 5.55 14 24000 (1926) 0 (1965) 405 2 3 5 10 37 140 195 354 1030
2025-11-08 13:30 5.54 13 24000 (1926) 0 (1965) 405 2 3 5 10 37 140 195 354 1030
2025-11-08 13:00 5.54 13 24000 (1926) 0 (1965) 405 2 3 5 10 37 140 195 354 1030
2025-11-08 12:30 5.56 14 24000 (1926) 0 (1965) 405 2 3 5 10 37 140 195 354 1030
2025-11-08 12:00 5.56 14 24000 (1926) 0 (1965) 405 2 3 5 10 37 140 195 354 1030
2025-11-08 11:30 5.56 14 24000 (1926) 0 (1965) 405 2 3 5 10 37 140 195 354 1030
2025-11-08 11:00 5.56 14 24000 (1926) 0 (1965) 405 2 3 5 10 37 140 195 354 1030
2025-11-08 10:30 5.56 14 24000 (1926) 0 (1965) 405 2 3 5 10 37 140 195 354 1030
2025-11-08 10:00 5.56 14 24000 (1926) 0 (1965) 405 2 3 5 10 37 140 195 354 1030
2025-11-08 09:30 5.56 14 24000 (1926) 0 (1965) 405 2 3 5 10 37 140 195 354 1030
2025-11-08 09:00 5.56 14 24000 (1926) 0 (1965) 405 2 3 5 10 37 140 195 354 1030
2025-11-08 08:30 5.56 14 24000 (1926) 0 (1965) 405 2 3 5 10 37 140 195 354 1030
2025-11-08 08:00 5.56 14 24000 (1926) 0 (1965) 405 2 3 5 10 37 140 195 354 1030
2025-11-08 07:30 5.57 15 24000 (1926) 0 (1965) 405 2 3 5 10 37 140 195 354 1030
2025-11-08 07:00 5.57 15 24000 (1926) 0 (1965) 405 2 3 5 10 37 140 195 354 1030
2025-11-08 06:30 5.57 15 24000 (1926) 0 (1965) 405 2 3 5 10 37 140 195 354 1030
2025-11-08 06:00 5.57 15 24000 (1926) 0 (1965) 405 2 3 5 10 37 140 195 354 1030
2025-11-08 05:30 5.57 15 24000 (1926) 0 (1965) 405 2 3 5 10 37 140 195 354 1030
2025-11-08 05:00 5.57 15 24000 (1926) 0 (1965) 405 2 3 5 10 37 140 195 354 1030
2025-11-08 04:30 5.57 15 24000 (1926) 0 (1965) 405 2 3 5 10 37 140 195 354 1030
2025-11-08 04:00 5.56 14 24000 (1926) 0 (1965) 405 2 3 5 10 37 140 195 354 1030
2025-11-08 03:30 5.56 14 24000 (1926) 0 (1965) 405 2 3 5 10 37 140 195 354 1030
2025-11-08 03:00 5.56 14 24000 (1926) 0 (1965) 405 2 3 5 10 37 140 195 354 1030
2025-11-08 02:30 14 24000 (1926) 0 (1965) 405 2 3 5 10 37 140 195 354 1030
2025-11-08 02:00 14 24000 (1926) 0 (1965) 405 2 3 5 10 37 140 195 354 1030
2025-11-08 01:30 14 24000 (1926) 0 (1965) 405 2 3 5 10 37 140 195 354 1030
2025-11-08 01:00 5.56 14 24000 (1926) 0 (1965) 405 2 3 5 10 37 140 195 354 1030
2025-11-08 00:30 14 24000 (1926) 0 (1965) 405 2 3 5 10 37 140 195 354 1030
2025-11-08 00:00 14 24000 (1926) 0 (1965) 405 2 3 5 10 37 140 195 354 1030
2025-11-07 23:30 5.56 14 24000 (1926) 0 (1965) 405 2 3 5 10 37 140 195 354 1030
2025-11-07 23:00 14 24000 (1926) 0 (1965) 405 2 3 5 10 37 140 195 354 1030
2025-11-07 22:30 5.56 14 12800 (1926) 0 (1965) 427 1 3 5 9 41 215 265 589 1350
2025-11-07 22:00 14 12800 (1926) 0 (1965) 427 1 3 5 9 41 215 265 589 1350
2025-11-07 21:30 5.56 14 12800 (1926) 0 (1965) 427 1 3 5 9 41 215 265 589 1350
2025-11-07 21:00 5.56 14 12800 (1926) 0 (1965) 427 1 3 5 9 41 215 265 589 1350
2025-11-07 20:30 14 12800 (1926) 0 (1965) 427 1 3 5 9 41 215 265 589 1350
2025-11-07 20:00 5.56 14 12800 (1926) 0 (1965) 427 1 3 5 9 41 215 265 589 1350
2025-11-07 19:30 5.56 14 12800 (1926) 0 (1965) 427 1 3 5 9 41 215 265 589 1350
2025-11-07 19:00 5.56 14 12800 (1926) 0 (1965) 427 1 3 5 9 41 215 265 589 1350
2025-11-07 18:30 5.56 14 12800 (1926) 0 (1965) 427 1 3 5 9 41 215 265 589 1350
2025-11-07 18:00 5.56 14 12800 (1926) 0 (1965) 427 1 3 5 9 41 215 265 589 1350
2025-11-07 17:30 5.57 15 12800 (1926) 0 (1965) 427 1 3 5 9 41 215 265 589 1350
2025-11-07 17:00 5.56 14 12800 (1926) 0 (1965) 427 1 3 5 9 41 215 265 589 1350
2025-11-07 16:30 5.54 13 12800 (1926) 0 (1965) 427 1 3 5 9 41 215 265 589 1350
2025-11-07 16:00 5.53 13 12800 (1926) 0 (1965) 427 1 3 5 9 41 215 265 589 1350
2025-11-07 15:30 5.51 12 12800 (1926) 0 (1965) 427 1 3 5 9 41 215 265 589 1350
2025-11-07 15:00 5.55 14 12800 (1926) 0 (1965) 427 1 3 5 9 41 215 265 589 1350
2025-11-07 14:30 5.52 12 12800 (1926) 0 (1965) 427 1 3 5 9 41 215 265 589 1350
2025-11-07 14:00 5.57 15 12800 (1926) 0 (1965) 427 1 3 5 9 41 215 265 589 1350
2025-11-07 13:30 5.51 12 12800 (1926) 0 (1965) 427 1 3 5 9 41 215 265 589 1350
2025-11-07 13:00 5.52 12 12800 (1926) 0 (1965) 427 1 3 5 9 41 215 265 589 1350
2025-11-07 12:30 5.53 13 12800 (1926) 0 (1965) 427 1 3 5 9 41 215 265 589 1350
2025-11-07 12:00 5.58 15 12800 (1926) 0 (1965) 427 1 3 5 9 41 215 265 589 1350
2025-11-07 11:30 5.53 13 12800 (1926) 0 (1965) 427 1 3 5 9 41 215 265 589 1350
2025-11-07 11:00 5.58 15 12800 (1926) 0 (1965) 427 1 3 5 9 41 215 265 589 1350
2025-11-07 10:30 5.54 13 12800 (1926) 0 (1965) 427 1 3 5 9 41 215 265 589 1350
2025-11-07 10:00 5.56 14 12800 (1926) 0 (1965) 427 1 3 5 9 41 215 265 589 1350
2025-11-07 09:30 5.54 13 12800 (1926) 0 (1965) 427 1 3 5 9 41 215 265 589 1350
2025-11-07 09:00 5.52 12 12800 (1926) 0 (1965) 427 1 3 5 9 41 215 265 589 1350
2025-11-07 08:30 5.53 13 12800 (1926) 0 (1965) 427 1 3 5 9 41 215 265 589 1350
2025-11-07 08:00 5.57 15 12800 (1926) 0 (1965) 427 1 3 5 9 41 215 265 589 1350
2025-11-07 07:30 5.57 15 12800 (1926) 0 (1965) 427 1 3 5 9 41 215 265 589 1350
2025-11-07 07:00 5.57 15 12800 (1926) 0 (1965) 427 1 3 5 9 41 215 265 589 1350
2025-11-07 06:30 5.53 13 12800 (1926) 0 (1965) 427 1 3 5 9 41 215 265 589 1350
2025-11-07 06:00 5.51 12 12800 (1926) 0 (1965) 427 1 3 5 9 41 215 265 589 1350
2025-11-07 05:30 5.52 12 12800 (1926) 0 (1965) 427 1 3 5 9 41 215 265 589 1350
2025-11-07 05:00 5.53 13 12800 (1926) 0 (1965) 427 1 3 5 9 41 215 265 589 1350
2025-11-07 04:30 5.53 13 12800 (1926) 0 (1965) 427 1 3 5 9 41 215 265 589 1350
2025-11-07 04:00 5.54 13 12800 (1926) 0 (1965) 427 1 3 5 9 41 215 265 589 1350
2025-11-07 03:30 5.57 15 12800 (1926) 0 (1965) 427 1 3 5 9 41 215 265 589 1350
2025-11-07 03:00 5.57 15 12800 (1926) 0 (1965) 427 1 3 5 9 41 215 265 589 1350
2025-11-07 02:30 5.58 15 12800 (1926) 0 (1965) 427 1 3 5 9 41 215 265 589 1350
2025-11-07 02:00 5.57 15 12800 (1926) 0 (1965) 427 1 3 5 9 41 215 265 589 1350
2025-11-07 01:30 15 12800 (1926) 0 (1965) 427 1 3 5 9 41 215 265 589 1350
2025-11-07 01:00 5.57 15 12800 (1926) 0 (1965) 427 1 3 5 9 41 215 265 589 1350
2025-11-07 00:30 5.57 15 12800 (1926) 0 (1965) 427 1 3 5 9 41 215 265 589 1350
2025-11-07 00:00 5.58 15 12800 (1926) 0 (1965) 427 1 3 5 9 41 215 265 589 1350
2025-11-06 23:30 15 12800 (1926) 0 (1965) 427 1 3 5 9 41 215 265 589 1350
2025-11-06 23:00 5.58 15 12800 (1926) 0 (1965) 427 1 3 5 9 41 215 265 589 1350
2025-11-06 22:30 5.57 15 3570 (1942) 0 (1965) 235 2 3 4 7 37 159 301 613 1000
2025-11-06 22:00 5.57 15 3570 (1942) 0 (1965) 235 2 3 4 7 37 159 301 613 1000
2025-11-06 21:30 5.57 15 3570 (1942) 0 (1965) 235 2 3 4 7 37 159 301 613 1000
2025-11-06 21:00 5.57 15 3570 (1942) 0 (1965) 235 2 3 4 7 37 159 301 613 1000
2025-11-06 20:30 5.57 15 3570 (1942) 0 (1965) 235 2 3 4 7 37 159 301 613 1000
2025-11-06 20:00 5.57 15 3570 (1942) 0 (1965) 235 2 3 4 7 37 159 301 613 1000
2025-11-06 19:30 5.57 15 3570 (1942) 0 (1965) 235 2 3 4 7 37 159 301 613 1000
2025-11-06 19:00 5.57 15 3570 (1942) 0 (1965) 235 2 3 4 7 37 159 301 613 1000
2025-11-06 18:30 5.57 15 3570 (1942) 0 (1965) 235 2 3 4 7 37 159 301 613 1000
2025-11-06 18:00 15 3570 (1942) 0 (1965) 235 2 3 4 7 37 159 301 613 1000
2025-11-06 17:30 5.57 15 3570 (1942) 0 (1965) 235 2 3 4 7 37 159 301 613 1000
2025-11-06 17:00 5.57 15 3570 (1942) 0 (1965) 235 2 3 4 7 37 159 301 613 1000
2025-11-06 16:30 5.57 15 3570 (1942) 0 (1965) 235 2 3 4 7 37 159 301 613 1000
2025-11-06 16:00 5.52 12 3570 (1942) 0 (1965) 235 2 3 4 7 37 159 301 613 1000
2025-11-06 15:30 5.57 15 3570 (1942) 0 (1965) 235 2 3 4 7 37 159 301 613 1000
2025-11-06 15:00 5.52 12 3570 (1942) 0 (1965) 235 2 3 4 7 37 159 301 613 1000
2025-11-06 14:30 5.53 13 3570 (1942) 0 (1965) 235 2 3 4 7 37 159 301 613 1000
2025-11-06 14:00 5.53 13 3570 (1942) 0 (1965) 235 2 3 4 7 37 159 301 613 1000
2025-11-06 13:30 5.52 12 3570 (1942) 0 (1965) 235 2 3 4 7 37 159 301 613 1000
2025-11-06 13:00 5.56 14 3570 (1942) 0 (1965) 235 2 3 4 7 37 159 301 613 1000
2025-11-06 12:30 5.53 13 3570 (1942) 0 (1965) 235 2 3 4 7 37 159 301 613 1000
2025-11-06 12:00 5.51 12 3570 (1942) 0 (1965) 235 2 3 4 7 37 159 301 613 1000
2025-11-06 11:30 5.55 14 3570 (1942) 0 (1965) 235 2 3 4 7 37 159 301 613 1000
2025-11-06 11:00 5.50 11 3570 (1942) 0 (1965) 235 2 3 4 7 37 159 301 613 1000
2025-11-06 10:30 5.52 12 3570 (1942) 0 (1965) 235 2 3 4 7 37 159 301 613 1000
2025-11-06 10:00 5.53 13 3570 (1942) 0 (1965) 235 2 3 4 7 37 159 301 613 1000
2025-11-06 09:30 5.57 15 3570 (1942) 0 (1965) 235 2 3 4 7 37 159 301 613 1000
2025-11-06 09:00 5.59 16 3570 (1942) 0 (1965) 235 2 3 4 7 37 159 301 613 1000
2025-11-06 08:30 5.59 16 3570 (1942) 0 (1965) 235 2 3 4 7 37 159 301 613 1000
2025-11-06 08:00 5.59 16 3570 (1942) 0 (1965) 235 2 3 4 7 37 159 301 613 1000
2025-11-06 07:30 5.60 16 3570 (1942) 0 (1965) 235 2 3 4 7 37 159 301 613 1000
2025-11-06 07:00 5.60 16 3570 (1942) 0 (1965) 235 2 3 4 7 37 159 301 613 1000
2025-11-06 06:30 5.60 16 3570 (1942) 0 (1965) 235 2 3 4 7 37 159 301 613 1000
2025-11-06 06:00 5.60 16 3570 (1942) 0 (1965) 235 2 3 4 7 37 159 301 613 1000
2025-11-06 05:30 5.60 16 3570 (1942) 0 (1965) 235 2 3 4 7 37 159 301 613 1000
2025-11-06 05:00 5.60 16 3570 (1942) 0 (1965) 235 2 3 4 7 37 159 301 613 1000
2025-11-06 04:30 5.60 16 3570 (1942) 0 (1965) 235 2 3 4 7 37 159 301 613 1000
2025-11-06 04:00 5.60 16 3570 (1942) 0 (1965) 235 2 3 4 7 37 159 301 613 1000
2025-11-06 03:30 5.60 16 3570 (1942) 0 (1965) 235 2 3 4 7 37 159 301 613 1000
2025-11-06 03:00 5.60 16 3570 (1942) 0 (1965) 235 2 3 4 7 37 159 301 613 1000
2025-11-06 02:30 5.60 16 3570 (1942) 0 (1965) 235 2 3 4 7 37 159 301 613 1000
2025-11-06 02:00 5.60 16 3570 (1942) 0 (1965) 235 2 3 4 7 37 159 301 613 1000
2025-11-06 01:30 16 3570 (1942) 0 (1965) 235 2 3 4 7 37 159 301 613 1000
2025-11-06 01:00 5.60 16 3570 (1942) 0 (1965) 235 2 3 4 7 37 159 301 613 1000
2025-11-06 00:30 5.60 16 3570 (1942) 0 (1965) 235 2 3 4 7 37 159 301 613 1000
2025-11-06 00:00 5.60 16 3570 (1942) 0 (1965) 235 2 3 4 7 37 159 301 613 1000
2025-11-05 23:30 16 3570 (1942) 0 (1965) 235 2 3 4 7 37 159 301 613 1000
2025-11-05 23:00 5.60 16 3570 (1942) 0 (1965) 235 2 3 4 7 37 159 301 613 1000
2025-11-05 22:30 5.60 16 10600 (2025) 0 (1965) 439 2 2 5 9 36 143 333 1030 1780
2025-11-05 22:00 5.60 16 10600 (2025) 0 (1965) 439 2 2 5 9 36 143 333 1030 1780
2025-11-05 21:30 5.60 16 10600 (2025) 0 (1965) 439 2 2 5 9 36 143 333 1030 1780
2025-11-05 21:00 5.60 16 10600 (2025) 0 (1965) 439 2 2 5 9 36 143 333 1030 1780
2025-11-05 20:30 5.60 16 10600 (2025) 0 (1965) 439 2 2 5 9 36 143 333 1030 1780
2025-11-05 20:00 5.60 16 10600 (2025) 0 (1965) 439 2 2 5 9 36 143 333 1030 1780
2025-11-05 19:30 5.60 16 10600 (2025) 0 (1965) 439 2 2 5 9 36 143 333 1030 1780
2025-11-05 19:00 5.60 16 10600 (2025) 0 (1965) 439 2 2 5 9 36 143 333 1030 1780
2025-11-05 18:30 5.60 16 10600 (2025) 0 (1965) 439 2 2 5 9 36 143 333 1030 1780
2025-11-05 18:00 5.60 16 10600 (2025) 0 (1965) 439 2 2 5 9 36 143 333 1030 1780
2025-11-05 17:30 5.60 16 10600 (2025) 0 (1965) 439 2 2 5 9 36 143 333 1030 1780
2025-11-05 17:00 5.60 16 10600 (2025) 0 (1965) 439 2 2 5 9 36 143 333 1030 1780
2025-11-05 16:30 5.60 16 10600 (2025) 0 (1965) 439 2 2 5 9 36 143 333 1030 1780
2025-11-05 16:00 5.61 17 10600 (2025) 0 (1965) 439 2 2 5 9 36 143 333 1030 1780
2025-11-05 15:30 5.60 16 10600 (2025) 0 (1965) 439 2 2 5 9 36 143 333 1030 1780
2025-11-05 15:00 5.60 16 10600 (2025) 0 (1965) 439 2 2 5 9 36 143 333 1030 1780
2025-11-05 14:30 5.61 17 10600 (2025) 0 (1965) 439 2 2 5 9 36 143 333 1030 1780
2025-11-05 14:00 5.56 14 10600 (2025) 0 (1965) 439 2 2 5 9 36 143 333 1030 1780
2025-11-05 13:30 5.61 17 10600 (2025) 0 (1965) 439 2 2 5 9 36 143 333 1030 1780
2025-11-05 13:00 5.62 18 10600 (2025) 0 (1965) 439 2 2 5 9 36 143 333 1030 1780
2025-11-05 12:30 5.60 16 10600 (2025) 0 (1965) 439 2 2 5 9 36 143 333 1030 1780
2025-11-05 12:00 5.62 18 10600 (2025) 0 (1965) 439 2 2 5 9 36 143 333 1030 1780
2025-11-05 11:30 5.58 15 10600 (2025) 0 (1965) 439 2 2 5 9 36 143 333 1030 1780
2025-11-05 11:00 5.62 18 10600 (2025) 0 (1965) 439 2 2 5 9 36 143 333 1030 1780
2025-11-05 10:30 5.58 15 10600 (2025) 0 (1965) 439 2 2 5 9 36 143 333 1030 1780
2025-11-05 10:00 5.62 18 10600 (2025) 0 (1965) 439 2 2 5 9 36 143 333 1030 1780
2025-11-05 09:30 5.62 18 10600 (2025) 0 (1965) 439 2 2 5 9 36 143 333 1030 1780
2025-11-05 09:00 5.58 15 10600 (2025) 0 (1965) 439 2 2 5 9 36 143 333 1030 1780
2025-11-05 08:30 5.56 14 10600 (2025) 0 (1965) 439 2 2 5 9 36 143 333 1030 1780
2025-11-05 08:00 5.57 15 10600 (2025) 0 (1965) 439 2 2 5 9 36 143 333 1030 1780
2025-11-05 07:30 5.63 18 10600 (2025) 0 (1965) 439 2 2 5 9 36 143 333 1030 1780
2025-11-05 07:00 5.63 18 10600 (2025) 0 (1965) 439 2 2 5 9 36 143 333 1030 1780
2025-11-05 06:30 5.63 18 10600 (2025) 0 (1965) 439 2 2 5 9 36 143 333 1030 1780
2025-11-05 06:00 5.63 18 10600 (2025) 0 (1965) 439 2 2 5 9 36 143 333 1030 1780
2025-11-05 05:30 5.63 18 10600 (2025) 0 (1965) 439 2 2 5 9 36 143 333 1030 1780
2025-11-05 05:00 5.63 18 10600 (2025) 0 (1965) 439 2 2 5 9 36 143 333 1030 1780
2025-11-05 04:30 5.63 18 10600 (2025) 0 (1965) 439 2 2 5 9 36 143 333 1030 1780
2025-11-05 04:00 5.63 18 10600 (2025) 0 (1965) 439 2 2 5 9 36 143 333 1030 1780
2025-11-05 03:30 5.64 19 10600 (2025) 0 (1965) 439 2 2 5 9 36 143 333 1030 1780
2025-11-05 03:00 5.64 19 10600 (2025) 0 (1965) 439 2 2 5 9 36 143 333 1030 1780
2025-11-05 02:30 5.64 19 10600 (2025) 0 (1965) 439 2 2 5 9 36 143 333 1030 1780
2025-11-05 02:00 5.64 19 10600 (2025) 0 (1965) 439 2 2 5 9 36 143 333 1030 1780
2025-11-05 01:30 19 10600 (2025) 0 (1965) 439 2 2 5 9 36 143 333 1030 1780
2025-11-05 01:00 5.64 19 10600 (2025) 0 (1965) 439 2 2 5 9 36 143 333 1030 1780
2025-11-05 00:30 5.64 19 10600 (2025) 0 (1965) 439 2 2 5 9 36 143 333 1030 1780
2025-11-05 00:00 5.64 19 10600 (2025) 0 (1965) 439 2 2 5 9 36 143 333 1030 1780
2025-11-04 23:30 19 10600 (2025) 0 (1965) 439 2 2 5 9 36 143 333 1030 1780
2025-11-04 23:00 5.64 19 10600 (2025) 0 (1965) 439 2 2 5 9 36 143 333 1030 1780
2025-11-04 22:30 5.63 18 8470 (1947) 0 (1965) 531 1 3 4 6 34 141 241 1290 3500
2025-11-04 22:00 5.64 19 8470 (1947) 0 (1965) 531 1 3 4 6 34 141 241 1290 3500
2025-11-04 21:30 5.64 19 8470 (1947) 0 (1965) 531 1 3 4 6 34 141 241 1290 3500
2025-11-04 21:00 5.64 19 8470 (1947) 0 (1965) 531 1 3 4 6 34 141 241 1290 3500
2025-11-04 20:30 5.64 19 8470 (1947) 0 (1965) 531 1 3 4 6 34 141 241 1290 3500
2025-11-04 20:00 5.64 19 8470 (1947) 0 (1965) 531 1 3 4 6 34 141 241 1290 3500
2025-11-04 19:30 5.64 19 8470 (1947) 0 (1965) 531 1 3 4 6 34 141 241 1290 3500
2025-11-04 19:00 5.64 19 8470 (1947) 0 (1965) 531 1 3 4 6 34 141 241 1290 3500
2025-11-04 18:30 5.64 19 8470 (1947) 0 (1965) 531 1 3 4 6 34 141 241 1290 3500
2025-11-04 18:00 5.64 19 8470 (1947) 0 (1965) 531 1 3 4 6 34 141 241 1290 3500
2025-11-04 17:30 5.64 19 8470 (1947) 0 (1965) 531 1 3 4 6 34 141 241 1290 3500
2025-11-04 17:00 5.64 19 8470 (1947) 0 (1965) 531 1 3 4 6 34 141 241 1290 3500
2025-11-04 16:30 5.64 19 8470 (1947) 0 (1965) 531 1 3 4 6 34 141 241 1290 3500
2025-11-04 16:00 5.64 19 8470 (1947) 0 (1965) 531 1 3 4 6 34 141 241 1290 3500
2025-11-04 15:30 5.64 19 8470 (1947) 0 (1965) 531 1 3 4 6 34 141 241 1290 3500
2025-11-04 15:00 5.64 19 8470 (1947) 0 (1965) 531 1 3 4 6 34 141 241 1290 3500
2025-11-04 14:30 5.64 19 8470 (1947) 0 (1965) 531 1 3 4 6 34 141 241 1290 3500
2025-11-04 14:00 5.65 19 8470 (1947) 0 (1965) 531 1 3 4 6 34 141 241 1290 3500
2025-11-04 13:30 5.65 19 8470 (1947) 0 (1965) 531 1 3 4 6 34 141 241 1290 3500
2025-11-04 13:00 5.65 19 8470 (1947) 0 (1965) 531 1 3 4 6 34 141 241 1290 3500
2025-11-04 12:30 5.65 19 8470 (1947) 0 (1965) 531 1 3 4 6 34 141 241 1290 3500
2025-11-04 12:00 5.65 19 8470 (1947) 0 (1965) 531 1 3 4 6 34 141 241 1290 3500
2025-11-04 11:30 5.65 19 8470 (1947) 0 (1965) 531 1 3 4 6 34 141 241 1290 3500
2025-11-04 11:00 5.66 20 8470 (1947) 0 (1965) 531 1 3 4 6 34 141 241 1290 3500
2025-11-04 10:30 5.66 20 8470 (1947) 0 (1965) 531 1 3 4 6 34 141 241 1290 3500
2025-11-04 10:00 5.65 19 8470 (1947) 0 (1965) 531 1 3 4 6 34 141 241 1290 3500
2025-11-04 09:30 5.64 19 8470 (1947) 0 (1965) 531 1 3 4 6 34 141 241 1290 3500
2025-11-04 09:00 5.63 18 8470 (1947) 0 (1965) 531 1 3 4 6 34 141 241 1290 3500
2025-11-04 08:30 5.66 20 8470 (1947) 0 (1965) 531 1 3 4 6 34 141 241 1290 3500
2025-11-04 08:00 5.66 20 8470 (1947) 0 (1965) 531 1 3 4 6 34 141 241 1290 3500
2025-11-04 07:30 5.66 20 8470 (1947) 0 (1965) 531 1 3 4 6 34 141 241 1290 3500
2025-11-04 07:00 5.67 21 8470 (1947) 0 (1965) 531 1 3 4 6 34 141 241 1290 3500
2025-11-04 06:30 5.66 20 8470 (1947) 0 (1965) 531 1 3 4 6 34 141 241 1290 3500
2025-11-04 06:00 5.66 20 8470 (1947) 0 (1965) 531 1 3 4 6 34 141 241 1290 3500
2025-11-04 05:30 5.67 21 8470 (1947) 0 (1965) 531 1 3 4 6 34 141 241 1290 3500
2025-11-04 05:00 5.67 21 8470 (1947) 0 (1965) 531 1 3 4 6 34 141 241 1290 3500
2025-11-04 04:30 5.67 21 8470 (1947) 0 (1965) 531 1 3 4 6 34 141 241 1290 3500
2025-11-04 04:00 5.67 21 8470 (1947) 0 (1965) 531 1 3 4 6 34 141 241 1290 3500
2025-11-04 03:30 5.67 21 8470 (1947) 0 (1965) 531 1 3 4 6 34 141 241 1290 3500
2025-11-04 03:00 5.67 21 8470 (1947) 0 (1965) 531 1 3 4 6 34 141 241 1290 3500
2025-11-04 02:30 5.67 21 8470 (1947) 0 (1965) 531 1 3 4 6 34 141 241 1290 3500
2025-11-04 02:00 5.67 21 8470 (1947) 0 (1965) 531 1 3 4 6 34 141 241 1290 3500
2025-11-04 01:30 21 8470 (1947) 0 (1965) 531 1 3 4 6 34 141 241 1290 3500
2025-11-04 01:00 5.67 21 8470 (1947) 0 (1965) 531 1 3 4 6 34 141 241 1290 3500
2025-11-04 00:30 5.67 21 8470 (1947) 0 (1965) 531 1 3 4 6 34 141 241 1290 3500
2025-11-04 00:00 5.67 21 8470 (1947) 0 (1965) 531 1 3 4 6 34 141 241 1290 3500
2025-11-03 23:30 21 8470 (1947) 0 (1965) 531 1 3 4 6 34 141 241 1290 3500
2025-11-03 23:00 5.67 21 8470 (1947) 0 (1965) 531 1 3 4 6 34 141 241 1290 3500
2025-11-03 22:30 5.67 21 19100 (1937) 0 (1965) 809 2 3 4 5 31 139 289 1230 4310
2025-11-03 22:00 5.67 21 19100 (1937) 0 (1965) 809 2 3 4 5 31 139 289 1230 4310
2025-11-03 21:30 5.67 21 19100 (1937) 0 (1965) 809 2 3 4 5 31 139 289 1230 4310
2025-11-03 21:00 5.68 21 19100 (1937) 0 (1965) 809 2 3 4 5 31 139 289 1230 4310
2025-11-03 20:30 5.67 21 19100 (1937) 0 (1965) 809 2 3 4 5 31 139 289 1230 4310
2025-11-03 20:00 5.68 21 19100 (1937) 0 (1965) 809 2 3 4 5 31 139 289 1230 4310
2025-11-03 19:30 5.68 21 19100 (1937) 0 (1965) 809 2 3 4 5 31 139 289 1230 4310
2025-11-03 19:00 5.68 21 19100 (1937) 0 (1965) 809 2 3 4 5 31 139 289 1230 4310
2025-11-03 18:30 5.68 21 19100 (1937) 0 (1965) 809 2 3 4 5 31 139 289 1230 4310
2025-11-03 18:00 5.68 21 19100 (1937) 0 (1965) 809 2 3 4 5 31 139 289 1230 4310
2025-11-03 17:30 5.67 21 19100 (1937) 0 (1965) 809 2 3 4 5 31 139 289 1230 4310
2025-11-03 17:00 5.67 21 19100 (1937) 0 (1965) 809 2 3 4 5 31 139 289 1230 4310
2025-11-03 16:30 5.68 21 19100 (1937) 0 (1965) 809 2 3 4 5 31 139 289 1230 4310
2025-11-03 16:00 5.68 21 19100 (1937) 0 (1965) 809 2 3 4 5 31 139 289 1230 4310
2025-11-03 15:30 5.68 21 19100 (1937) 0 (1965) 809 2 3 4 5 31 139 289 1230 4310
2025-11-03 15:00 5.68 21 19100 (1937) 0 (1965) 809 2 3 4 5 31 139 289 1230 4310
2025-11-03 14:30 5.68 21 19100 (1937) 0 (1965) 809 2 3 4 5 31 139 289 1230 4310
2025-11-03 14:00 5.68 21 19100 (1937) 0 (1965) 809 2 3 4 5 31 139 289 1230 4310
2025-11-03 13:30 5.69 22 19100 (1937) 0 (1965) 809 2 3 4 5 31 139 289 1230 4310
2025-11-03 13:00 5.63 18 19100 (1937) 0 (1965) 809 2 3 4 5 31 139 289 1230 4310
2025-11-03 12:30 5.65 19 19100 (1937) 0 (1965) 809 2 3 4 5 31 139 289 1230 4310
2025-11-03 12:00 5.69 22 19100 (1937) 0 (1965) 809 2 3 4 5 31 139 289 1230 4310
2025-11-03 11:30 5.68 21 19100 (1937) 0 (1965) 809 2 3 4 5 31 139 289 1230 4310
2025-11-03 11:00 5.69 22 19100 (1937) 0 (1965) 809 2 3 4 5 31 139 289 1230 4310
2025-11-03 10:30 5.70 23 19100 (1937) 0 (1965) 809 2 3 4 5 31 139 289 1230 4310
2025-11-03 10:00 5.70 23 19100 (1937) 0 (1965) 809 2 3 4 5 31 139 289 1230 4310
2025-11-03 09:30 5.70 23 19100 (1937) 0 (1965) 809 2 3 4 5 31 139 289 1230 4310
2025-11-03 09:00 5.70 23 19100 (1937) 0 (1965) 809 2 3 4 5 31 139 289 1230 4310
2025-11-03 08:30 5.70 23 19100 (1937) 0 (1965) 809 2 3 4 5 31 139 289 1230 4310
2025-11-03 08:00 5.70 23 19100 (1937) 0 (1965) 809 2 3 4 5 31 139 289 1230 4310
2025-11-03 07:30 5.70 23 19100 (1937) 0 (1965) 809 2 3 4 5 31 139 289 1230 4310
2025-11-03 07:00 5.70 23 19100 (1937) 0 (1965) 809 2 3 4 5 31 139 289 1230 4310
2025-11-03 06:30 5.69 22 19100 (1937) 0 (1965) 809 2 3 4 5 31 139 289 1230 4310
2025-11-03 06:00 5.68 21 19100 (1937) 0 (1965) 809 2 3 4 5 31 139 289 1230 4310
2025-11-03 05:30 5.67 21 19100 (1937) 0 (1965) 809 2 3 4 5 31 139 289 1230 4310
2025-11-03 05:00 5.66 20 19100 (1937) 0 (1965) 809 2 3 4 5 31 139 289 1230 4310
2025-11-03 04:30 5.64 19 19100 (1937) 0 (1965) 809 2 3 4 5 31 139 289 1230 4310
2025-11-03 04:00 5.62 18 19100 (1937) 0 (1965) 809 2 3 4 5 31 139 289 1230 4310
2025-11-03 03:30 5.60 16 19100 (1937) 0 (1965) 809 2 3 4 5 31 139 289 1230 4310
2025-11-03 03:00 5.58 15 19100 (1937) 0 (1965) 809 2 3 4 5 31 139 289 1230 4310
2025-11-03 02:30 5.57 15 19100 (1937) 0 (1965) 809 2 3 4 5 31 139 289 1230 4310
2025-11-03 02:00 5.57 15 19100 (1937) 0 (1965) 809 2 3 4 5 31 139 289 1230 4310
2025-11-03 01:30 5.56 14 19100 (1937) 0 (1965) 809 2 3 4 5 31 139 289 1230 4310
2025-11-03 01:00 5.56 14 19100 (1937) 0 (1965) 809 2 3 4 5 31 139 289 1230 4310
2025-11-03 00:30 5.56 14 19100 (1937) 0 (1965) 809 2 3 4 5 31 139 289 1230 4310
2025-11-03 00:00 14 19100 (1937) 0 (1965) 809 2 3 4 5 31 139 289 1230 4310
2025-11-02 23:30 5.56 14 19100 (1937) 0 (1965) 809 2 3 4 5 31 139 289 1230 4310
2025-11-02 23:00 5.56 14 19100 (1937) 0 (1965) 809 2 3 4 5 31 139 289 1230 4310
2025-11-02 22:30 5.56 14 17800 (2005) 0 (1965) 797 2 3 5 6 28 126 232 1440 5130
2025-11-02 22:00 5.56 14 17800 (2005) 0 (1965) 797 2 3 5 6 28 126 232 1440 5130
2025-11-02 21:30 5.56 14 17800 (2005) 0 (1965) 797 2 3 5 6 28 126 232 1440 5130
2025-11-02 21:00 5.56 14 17800 (2005) 0 (1965) 797 2 3 5 6 28 126 232 1440 5130
2025-11-02 20:30 5.56 14 17800 (2005) 0 (1965) 797 2 3 5 6 28 126 232 1440 5130
2025-11-02 20:00 5.56 14 17800 (2005) 0 (1965) 797 2 3 5 6 28 126 232 1440 5130
2025-11-02 19:30 5.56 14 17800 (2005) 0 (1965) 797 2 3 5 6 28 126 232 1440 5130
2025-11-02 19:00 5.56 14 17800 (2005) 0 (1965) 797 2 3 5 6 28 126 232 1440 5130
2025-11-02 18:30 5.56 14 17800 (2005) 0 (1965) 797 2 3 5 6 28 126 232 1440 5130
2025-11-02 18:00 5.56 14 17800 (2005) 0 (1965) 797 2 3 5 6 28 126 232 1440 5130
2025-11-02 17:30 5.56 14 17800 (2005) 0 (1965) 797 2 3 5 6 28 126 232 1440 5130
2025-11-02 17:00 5.56 14 17800 (2005) 0 (1965) 797 2 3 5 6 28 126 232 1440 5130
2025-11-02 16:30 5.56 14 17800 (2005) 0 (1965) 797 2 3 5 6 28 126 232 1440 5130
2025-11-02 16:00 5.56 14 17800 (2005) 0 (1965) 797 2 3 5 6 28 126 232 1440 5130
2025-11-02 15:30 5.56 14 17800 (2005) 0 (1965) 797 2 3 5 6 28 126 232 1440 5130
2025-11-02 15:00 5.56 14 17800 (2005) 0 (1965) 797 2 3 5 6 28 126 232 1440 5130
2025-11-02 14:30 5.52 12 17800 (2005) 0 (1965) 797 2 3 5 6 28 126 232 1440 5130
2025-11-02 14:00 5.56 14 17800 (2005) 0 (1965) 797 2 3 5 6 28 126 232 1440 5130
2025-11-02 13:30 5.56 14 17800 (2005) 0 (1965) 797 2 3 5 6 28 126 232 1440 5130
2025-11-02 13:00 5.56 14 17800 (2005) 0 (1965) 797 2 3 5 6 28 126 232 1440 5130
2025-11-02 12:30 5.56 14 17800 (2005) 0 (1965) 797 2 3 5 6 28 126 232 1440 5130
2025-11-02 12:00 5.55 14 17800 (2005) 0 (1965) 797 2 3 5 6 28 126 232 1440 5130
2025-11-02 11:30 5.51 12 17800 (2005) 0 (1965) 797 2 3 5 6 28 126 232 1440 5130
2025-11-02 11:00 5.56 14 17800 (2005) 0 (1965) 797 2 3 5 6 28 126 232 1440 5130
2025-11-02 10:30 5.55 14 17800 (2005) 0 (1965) 797 2 3 5 6 28 126 232 1440 5130
2025-11-02 10:00 5.56 14 17800 (2005) 0 (1965) 797 2 3 5 6 28 126 232 1440 5130
2025-11-02 09:30 5.56 14 17800 (2005) 0 (1965) 797 2 3 5 6 28 126 232 1440 5130
2025-11-02 09:00 5.56 14 17800 (2005) 0 (1965) 797 2 3 5 6 28 126 232 1440 5130
2025-11-02 08:30 5.56 14 17800 (2005) 0 (1965) 797 2 3 5 6 28 126 232 1440 5130
2025-11-02 08:00 5.55 14 17800 (2005) 0 (1965) 797 2 3 5 6 28 126 232 1440 5130
2025-11-02 07:30 5.55 14 17800 (2005) 0 (1965) 797 2 3 5 6 28 126 232 1440 5130
2025-11-02 07:00 5.55 14 17800 (2005) 0 (1965) 797 2 3 5 6 28 126 232 1440 5130
2025-11-02 06:30 5.55 14 17800 (2005) 0 (1965) 797 2 3 5 6 28 126 232 1440 5130
2025-11-02 06:00 5.54 13 17800 (2005) 0 (1965) 797 2 3 5 6 28 126 232 1440 5130
2025-11-02 05:30 5.54 13 17800 (2005) 0 (1965) 797 2 3 5 6 28 126 232 1440 5130
2025-11-02 05:00 5.54 13 17800 (2005) 0 (1965) 797 2 3 5 6 28 126 232 1440 5130
2025-11-02 04:30 5.54 13 17800 (2005) 0 (1965) 797 2 3 5 6 28 126 232 1440 5130
2025-11-02 04:00 5.53 13 17800 (2005) 0 (1965) 797 2 3 5 6 28 126 232 1440 5130
2025-11-02 03:30 5.53 13 17800 (2005) 0 (1965) 797 2 3 5 6 28 126 232 1440 5130
2025-11-02 03:00 5.53 13 17800 (2005) 0 (1965) 797 2 3 5 6 28 126 232 1440 5130
2025-11-02 02:30 13 17800 (2005) 0 (1965) 797 2 3 5 6 28 126 232 1440 5130
2025-11-02 02:00 5.53 13 17800 (2005) 0 (1965) 797 2 3 5 6 28 126 232 1440 5130
2025-11-02 01:30 13 17800 (2005) 0 (1965) 797 2 3 5 6 28 126 232 1440 5130
2025-11-02 01:00 13 17800 (2005) 0 (1965) 797 2 3 5 6 28 126 232 1440 5130
2025-11-02 01:30 13 17800 (2005) 0 (1965) 797 2 3 5 6 28 126 232 1440 5130
2025-11-02 01:00 5.53 13 17800 (2005) 0 (1965) 797 2 3 5 6 28 126 232 1440 5130
2025-11-02 00:30 13 17800 (2005) 0 (1965) 797 2 3 5 6 28 126 232 1440 5130
2025-11-02 00:00 13 17800 (2005) 0 (1965) 797 2 3 5 6 28 126 232 1440 5130
2025-11-01 23:30 5.53 13 17800 (2005) 0 (1965) 797 2 3 5 6 28 126 232 1440 5130
2025-11-01 23:00 5.53 13 17800 (2005) 0 (1965) 797 2 3 5 6 28 126 232 1440 5130
2025-11-01 22:30 13 19600 (1947) 0 (1965) 665 2 3 5 6 21 102 171 1090 3970
2025-11-01 22:00 5.53 13 19600 (1947) 0 (1965) 665 2 3 5 6 21 102 171 1090 3970
2025-11-01 21:30 5.53 13 19600 (1947) 0 (1965) 665 2 3 5 6 21 102 171 1090 3970
2025-11-01 21:00 5.53 13 19600 (1947) 0 (1965) 665 2 3 5 6 21 102 171 1090 3970
2025-11-01 20:30 5.53 13 19600 (1947) 0 (1965) 665 2 3 5 6 21 102 171 1090 3970
2025-11-01 20:00 5.53 13 19600 (1947) 0 (1965) 665 2 3 5 6 21 102 171 1090 3970
2025-11-01 19:30 5.53 13 19600 (1947) 0 (1965) 665 2 3 5 6 21 102 171 1090 3970
2025-11-01 19:00 5.53 13 19600 (1947) 0 (1965) 665 2 3 5 6 21 102 171 1090 3970
2025-11-01 18:30 5.53 13 19600 (1947) 0 (1965) 665 2 3 5 6 21 102 171 1090 3970
2025-11-01 18:00 5.52 12 19600 (1947) 0 (1965) 665 2 3 5 6 21 102 171 1090 3970
2025-11-01 17:30 5.53 13 19600 (1947) 0 (1965) 665 2 3 5 6 21 102 171 1090 3970
2025-11-01 17:00 5.53 13 19600 (1947) 0 (1965) 665 2 3 5 6 21 102 171 1090 3970
2025-11-01 16:30 5.50 11 19600 (1947) 0 (1965) 665 2 3 5 6 21 102 171 1090 3970
2025-11-01 16:00 5.52 12 19600 (1947) 0 (1965) 665 2 3 5 6 21 102 171 1090 3970
2025-11-01 15:30 5.49 11 19600 (1947) 0 (1965) 665 2 3 5 6 21 102 171 1090 3970
2025-11-01 15:00 5.53 13 19600 (1947) 0 (1965) 665 2 3 5 6 21 102 171 1090 3970
2025-11-01 14:30 5.54 13 19600 (1947) 0 (1965) 665 2 3 5 6 21 102 171 1090 3970
2025-11-01 14:00 5.49 11 19600 (1947) 0 (1965) 665 2 3 5 6 21 102 171 1090 3970
2025-11-01 13:30 5.49 11 19600 (1947) 0 (1965) 665 2 3 5 6 21 102 171 1090 3970
2025-11-01 13:00 5.54 13 19600 (1947) 0 (1965) 665 2 3 5 6 21 102 171 1090 3970
2025-11-01 12:30 5.51 12 19600 (1947) 0 (1965) 665 2 3 5 6 21 102 171 1090 3970
2025-11-01 12:00 5.51 12 19600 (1947) 0 (1965) 665 2 3 5 6 21 102 171 1090 3970
2025-11-01 11:30 5.50 11 19600 (1947) 0 (1965) 665 2 3 5 6 21 102 171 1090 3970
2025-11-01 11:00 5.54 13 19600 (1947) 0 (1965) 665 2 3 5 6 21 102 171 1090 3970
2025-11-01 10:30 5.51 12 19600 (1947) 0 (1965) 665 2 3 5 6 21 102 171 1090 3970
2025-11-01 10:00 5.54 13 19600 (1947) 0 (1965) 665 2 3 5 6 21 102 171 1090 3970
2025-11-01 09:30 5.55 14 19600 (1947) 0 (1965) 665 2 3 5 6 21 102 171 1090 3970
2025-11-01 09:00 5.55 14 19600 (1947) 0 (1965) 665 2 3 5 6 21 102 171 1090 3970
2025-11-01 08:30 5.55 14 19600 (1947) 0 (1965) 665 2 3 5 6 21 102 171 1090 3970
2025-11-01 08:00 5.55 14 19600 (1947) 0 (1965) 665 2 3 5 6 21 102 171 1090 3970
2025-11-01 07:30 5.55 14 19600 (1947) 0 (1965) 665 2 3 5 6 21 102 171 1090 3970
2025-11-01 07:00 5.55 14 19600 (1947) 0 (1965) 665 2 3 5 6 21 102 171 1090 3970
2025-11-01 06:30 5.55 14 19600 (1947) 0 (1965) 665 2 3 5 6 21 102 171 1090 3970
2025-11-01 06:00 5.55 14 19600 (1947) 0 (1965) 665 2 3 5 6 21 102 171 1090 3970
2025-11-01 05:30 5.55 14 19600 (1947) 0 (1965) 665 2 3 5 6 21 102 171 1090 3970
2025-11-01 05:00 5.55 14 19600 (1947) 0 (1965) 665 2 3 5 6 21 102 171 1090 3970
2025-11-01 04:30 5.55 14 19600 (1947) 0 (1965) 665 2 3 5 6 21 102 171 1090 3970
2025-11-01 04:00 5.55 14 19600 (1947) 0 (1965) 665 2 3 5 6 21 102 171 1090 3970
2025-11-01 03:30 5.55 14 19600 (1947) 0 (1965) 665 2 3 5 6 21 102 171 1090 3970
2025-11-01 03:00 5.55 14 19600 (1947) 0 (1965) 665 2 3 5 6 21 102 171 1090 3970
2025-11-01 02:30 14 19600 (1947) 0 (1965) 665 2 3 5 6 21 102 171 1090 3970
2025-11-01 02:00 5.55 14 19600 (1947) 0 (1965) 665 2 3 5 6 21 102 171 1090 3970
2025-11-01 01:30 5.55 14 19600 (1947) 0 (1965) 665 2 3 5 6 21 102 171 1090 3970
2025-11-01 01:00 5.55 14 19600 (1947) 0 (1965) 665 2 3 5 6 21 102 171 1090 3970
2025-11-01 00:30 14 19600 (1947) 0 (1965) 665 2 3 5 6 21 102 171 1090 3970
2025-11-01 00:00 5.55 14 19600 (1947) 0 (1965) 665 2 3 5 6 21 102 171 1090 3970
2025-10-31 23:30 5.55 14 19600 (1947) 0 (1965) 665 2 3 5 6 21 102 171 1090 3970
2025-10-31 23:00 5.55 14 19600 (1947) 0 (1965) 665 2 3 5 6 21 102 171 1090 3970
2025-10-31 22:30 5.55 14 22600 (2010) 0 (1965) 608 2 3 5 7 21 77 121 817 1630
2025-10-31 22:00 5.55 14 22600 (2010) 0 (1965) 608 2 3 5 7 21 77 121 817 1630
2025-10-31 21:30 5.55 14 22600 (2010) 0 (1965) 608 2 3 5 7 21 77 121 817 1630
2025-10-31 21:00 5.56 14 22600 (2010) 0 (1965) 608 2 3 5 7 21 77 121 817 1630
2025-10-31 20:30 5.56 14 22600 (2010) 0 (1965) 608 2 3 5 7 21 77 121 817 1630
2025-10-31 20:00 5.56 14 22600 (2010) 0 (1965) 608 2 3 5 7 21 77 121 817 1630
2025-10-31 19:30 5.56 14 22600 (2010) 0 (1965) 608 2 3 5 7 21 77 121 817 1630
2025-10-31 19:00 5.56 14 22600 (2010) 0 (1965) 608 2 3 5 7 21 77 121 817 1630
2025-10-31 18:30 5.56 14 22600 (2010) 0 (1965) 608 2 3 5 7 21 77 121 817 1630
2025-10-31 18:00 5.56 14 22600 (2010) 0 (1965) 608 2 3 5 7 21 77 121 817 1630
2025-10-31 17:30 5.56 14 22600 (2010) 0 (1965) 608 2 3 5 7 21 77 121 817 1630
2025-10-31 17:00 5.54 13 22600 (2010) 0 (1965) 608 2 3 5 7 21 77 121 817 1630
2025-10-31 16:30 5.54 13 22600 (2010) 0 (1965) 608 2 3 5 7 21 77 121 817 1630
2025-10-31 16:00 13 22600 (2010) 0 (1965) 608 2 3 5 7 21 77 121 817 1630
2025-10-31 15:30 5.51 12 22600 (2010) 0 (1965) 608 2 3 5 7 21 77 121 817 1630
2025-10-31 15:00 5.49 11 22600 (2010) 0 (1965) 608 2 3 5 7 21 77 121 817 1630
2025-10-31 14:30 5.52 12 22600 (2010) 0 (1965) 608 2 3 5 7 21 77 121 817 1630
2025-10-31 14:00 5.49 11 22600 (2010) 0 (1965) 608 2 3 5 7 21 77 121 817 1630
2025-10-31 13:30 5.51 12 22600 (2010) 0 (1965) 608 2 3 5 7 21 77 121 817 1630
2025-10-31 13:00 5.52 12 22600 (2010) 0 (1965) 608 2 3 5 7 21 77 121 817 1630
2025-10-31 12:30 5.51 12 22600 (2010) 0 (1965) 608 2 3 5 7 21 77 121 817 1630
2025-10-31 12:00 5.52 12 22600 (2010) 0 (1965) 608 2 3 5 7 21 77 121 817 1630
2025-10-31 11:30 5.49 11 22600 (2010) 0 (1965) 608 2 3 5 7 21 77 121 817 1630
2025-10-31 11:00 5.52 12 22600 (2010) 0 (1965) 608 2 3 5 7 21 77 121 817 1630
2025-10-31 10:30 5.56 14 22600 (2010) 0 (1965) 608 2 3 5 7 21 77 121 817 1630
2025-10-31 10:00 5.56 14 22600 (2010) 0 (1965) 608 2 3 5 7 21 77 121 817 1630
2025-10-31 09:30 5.57 15 22600 (2010) 0 (1965) 608 2 3 5 7 21 77 121 817 1630
2025-10-31 09:00 5.57 15 22600 (2010) 0 (1965) 608 2 3 5 7 21 77 121 817 1630
2025-10-31 08:30 5.57 15 22600 (2010) 0 (1965) 608 2 3 5 7 21 77 121 817 1630
2025-10-31 08:00 5.57 15 22600 (2010) 0 (1965) 608 2 3 5 7 21 77 121 817 1630
2025-10-31 07:30 5.57 15 22600 (2010) 0 (1965) 608 2 3 5 7 21 77 121 817 1630
2025-10-31 07:00 5.57 15 22600 (2010) 0 (1965) 608 2 3 5 7 21 77 121 817 1630
2025-10-31 06:30 5.57 15 22600 (2010) 0 (1965) 608 2 3 5 7 21 77 121 817 1630
2025-10-31 06:00 5.57 15 22600 (2010) 0 (1965) 608 2 3 5 7 21 77 121 817 1630
2025-10-31 05:30 5.57 15 22600 (2010) 0 (1965) 608 2 3 5 7 21 77 121 817 1630
2025-10-31 05:00 5.57 15 22600 (2010) 0 (1965) 608 2 3 5 7 21 77 121 817 1630
2025-10-31 04:30 5.57 15 22600 (2010) 0 (1965) 608 2 3 5 7 21 77 121 817 1630
2025-10-31 04:00 5.57 15 22600 (2010) 0 (1965) 608 2 3 5 7 21 77 121 817 1630
2025-10-31 03:30 5.57 15 22600 (2010) 0 (1965) 608 2 3 5 7 21 77 121 817 1630
2025-10-31 03:00 5.57 15 22600 (2010) 0 (1965) 608 2 3 5 7 21 77 121 817 1630
2025-10-31 02:30 15 22600 (2010) 0 (1965) 608 2 3 5 7 21 77 121 817 1630
2025-10-31 02:00 5.57 15 22600 (2010) 0 (1965) 608 2 3 5 7 21 77 121 817 1630
2025-10-31 01:30 5.57 15 22600 (2010) 0 (1965) 608 2 3 5 7 21 77 121 817 1630
2025-10-31 01:00 5.57 15 22600 (2010) 0 (1965) 608 2 3 5 7 21 77 121 817 1630
2025-10-31 00:30 15 22600 (2010) 0 (1965) 608 2 3 5 7 21 77 121 817 1630
2025-10-31 00:00 5.57 15 22600 (2010) 0 (1965) 608 2 3 5 7 21 77 121 817 1630
2025-10-30 23:30 5.57 15 22600 (2010) 0 (1965) 608 2 3 5 7 21 77 121 817 1630
2025-10-30 23:00 5.57 15 22600 (2010) 0 (1965) 608 2 3 5 7 21 77 121 817 1630
2025-10-30 22:30 5.57 15 40300 (2010) 0 (1965) 604 1 3 5 6 18 68 98 213 1220
2025-10-30 22:00 5.57 15 40300 (2010) 0 (1965) 604 1 3 5 6 18 68 98 213 1220
2025-10-30 21:30 5.57 15 40300 (2010) 0 (1965) 604 1 3 5 6 18 68 98 213 1220
2025-10-30 21:00 5.57 15 40300 (2010) 0 (1965) 604 1 3 5 6 18 68 98 213 1220
2025-10-30 20:30 5.57 15 40300 (2010) 0 (1965) 604 1 3 5 6 18 68 98 213 1220
2025-10-30 20:00 5.57 15 40300 (2010) 0 (1965) 604 1 3 5 6 18 68 98 213 1220
2025-10-30 19:30 5.57 15 40300 (2010) 0 (1965) 604 1 3 5 6 18 68 98 213 1220
2025-10-30 19:00 5.57 15 40300 (2010) 0 (1965) 604 1 3 5 6 18 68 98 213 1220
2025-10-30 18:30 5.57 15 40300 (2010) 0 (1965) 604 1 3 5 6 18 68 98 213 1220
2025-10-30 18:00 5.57 15 40300 (2010) 0 (1965) 604 1 3 5 6 18 68 98 213 1220
2025-10-30 17:30 5.57 15 40300 (2010) 0 (1965) 604 1 3 5 6 18 68 98 213 1220
2025-10-30 17:00 5.57 15 40300 (2010) 0 (1965) 604 1 3 5 6 18 68 98 213 1220
2025-10-30 16:30 5.48 10 40300 (2010) 0 (1965) 604 1 3 5 6 18 68 98 213 1220
2025-10-30 16:00 5.55 14 40300 (2010) 0 (1965) 604 1 3 5 6 18 68 98 213 1220
2025-10-30 15:30 5.57 15 40300 (2010) 0 (1965) 604 1 3 5 6 18 68 98 213 1220
2025-10-30 15:00 5.51 12 40300 (2010) 0 (1965) 604 1 3 5 6 18 68 98 213 1220
2025-10-30 14:30 5.57 15 40300 (2010) 0 (1965) 604 1 3 5 6 18 68 98 213 1220
2025-10-30 14:00 5.57 15 40300 (2010) 0 (1965) 604 1 3 5 6 18 68 98 213 1220
2025-10-30 13:30 5.53 13 40300 (2010) 0 (1965) 604 1 3 5 6 18 68 98 213 1220
2025-10-30 13:00 5.57 15 40300 (2010) 0 (1965) 604 1 3 5 6 18 68 98 213 1220
2025-10-30 12:30 5.58 15 40300 (2010) 0 (1965) 604 1 3 5 6 18 68 98 213 1220
2025-10-30 12:00 5.58 15 40300 (2010) 0 (1965) 604 1 3 5 6 18 68 98 213 1220
2025-10-30 11:30 5.58 15 40300 (2010) 0 (1965) 604 1 3 5 6 18 68 98 213 1220
2025-10-30 11:00 5.54 13 40300 (2010) 0 (1965) 604 1 3 5 6 18 68 98 213 1220
2025-10-30 10:30 5.57 15 40300 (2010) 0 (1965) 604 1 3 5 6 18 68 98 213 1220
2025-10-30 10:00 5.58 15 40300 (2010) 0 (1965) 604 1 3 5 6 18 68 98 213 1220
2025-10-30 09:30 5.57 15 40300 (2010) 0 (1965) 604 1 3 5 6 18 68 98 213 1220
2025-10-30 09:00 5.58 15 40300 (2010) 0 (1965) 604 1 3 5 6 18 68 98 213 1220
2025-10-30 08:30 5.58 15 40300 (2010) 0 (1965) 604 1 3 5 6 18 68 98 213 1220
2025-10-30 08:00 5.58 15 40300 (2010) 0 (1965) 604 1 3 5 6 18 68 98 213 1220
2025-10-30 07:30 5.58 15 40300 (2010) 0 (1965) 604 1 3 5 6 18 68 98 213 1220
2025-10-30 07:00 5.58 15 40300 (2010) 0 (1965) 604 1 3 5 6 18 68 98 213 1220
2025-10-30 06:30 5.58 15 40300 (2010) 0 (1965) 604 1 3 5 6 18 68 98 213 1220
2025-10-30 06:00 5.58 15 40300 (2010) 0 (1965) 604 1 3 5 6 18 68 98 213 1220
2025-10-30 05:30 5.58 15 40300 (2010) 0 (1965) 604 1 3 5 6 18 68 98 213 1220
2025-10-30 05:00 5.58 15 40300 (2010) 0 (1965) 604 1 3 5 6 18 68 98 213 1220
2025-10-30 04:30 5.58 15 40300 (2010) 0 (1965) 604 1 3 5 6 18 68 98 213 1220
2025-10-30 04:00 5.58 15 40300 (2010) 0 (1965) 604 1 3 5 6 18 68 98 213 1220
2025-10-30 03:30 5.58 15 40300 (2010) 0 (1965) 604 1 3 5 6 18 68 98 213 1220
2025-10-30 03:00 15 40300 (2010) 0 (1965) 604 1 3 5 6 18 68 98 213 1220
2025-10-30 02:30 5.58 15 40300 (2010) 0 (1965) 604 1 3 5 6 18 68 98 213 1220
2025-10-30 02:00 5.59 16 40300 (2010) 0 (1965) 604 1 3 5 6 18 68 98 213 1220
2025-10-30 01:30 5.59 16 40300 (2010) 0 (1965) 604 1 3 5 6 18 68 98 213 1220
2025-10-30 01:00 16 40300 (2010) 0 (1965) 604 1 3 5 6 18 68 98 213 1220
2025-10-30 00:30 5.59 16 40300 (2010) 0 (1965) 604 1 3 5 6 18 68 98 213 1220
2025-10-30 00:00 16 40300 (2010) 0 (1965) 604 1 3 5 6 18 68 98 213 1220
2025-10-29 23:30 5.59 16 40300 (2010) 0 (1965) 604 1 3 5 6 18 68 98 213 1220
2025-10-29 23:00 5.59 16 40300 (2010) 0 (1965) 604 1 3 5 6 18 68 98 213 1220
2025-10-29 22:30 5.59 16 4630 (2010) 0 (1965) 158 1 2 4 6 18 60 73 179 358
2025-10-29 22:00 5.59 16 4630 (2010) 0 (1965) 158 1 2 4 6 18 60 73 179 358
2025-10-29 21:30 5.59 16 4630 (2010) 0 (1965) 158 1 2 4 6 18 60 73 179 358
2025-10-29 21:00 5.59 16 4630 (2010) 0 (1965) 158 1 2 4 6 18 60 73 179 358
2025-10-29 20:30 5.59 16 4630 (2010) 0 (1965) 158 1 2 4 6 18 60 73 179 358
2025-10-29 20:00 5.60 16 4630 (2010) 0 (1965) 158 1 2 4 6 18 60 73 179 358
2025-10-29 19:30 5.60 16 4630 (2010) 0 (1965) 158 1 2 4 6 18 60 73 179 358
2025-10-29 19:00 5.60 16 4630 (2010) 0 (1965) 158 1 2 4 6 18 60 73 179 358
2025-10-29 18:30 5.60 16 4630 (2010) 0 (1965) 158 1 2 4 6 18 60 73 179 358
2025-10-29 18:00 5.59 16 4630 (2010) 0 (1965) 158 1 2 4 6 18 60 73 179 358
2025-10-29 17:30 5.60 16 4630 (2010) 0 (1965) 158 1 2 4 6 18 60 73 179 358
2025-10-29 17:00 5.59 16 4630 (2010) 0 (1965) 158 1 2 4 6 18 60 73 179 358
2025-10-29 16:30 5.58 15 4630 (2010) 0 (1965) 158 1 2 4 6 18 60 73 179 358
2025-10-29 16:00 5.54 13 4630 (2010) 0 (1965) 158 1 2 4 6 18 60 73 179 358
2025-10-29 15:30 5.59 16 4630 (2010) 0 (1965) 158 1 2 4 6 18 60 73 179 358
2025-10-29 15:00 5.53 13 4630 (2010) 0 (1965) 158 1 2 4 6 18 60 73 179 358
2025-10-29 14:30 5.55 14 4630 (2010) 0 (1965) 158 1 2 4 6 18 60 73 179 358
2025-10-29 14:00 5.58 15 4630 (2010) 0 (1965) 158 1 2 4 6 18 60 73 179 358
2025-10-29 13:30 5.58 15 4630 (2010) 0 (1965) 158 1 2 4 6 18 60 73 179 358
2025-10-29 13:00 5.59 16 4630 (2010) 0 (1965) 158 1 2 4 6 18 60 73 179 358
2025-10-29 12:30 5.57 15 4630 (2010) 0 (1965) 158 1 2 4 6 18 60 73 179 358
2025-10-29 12:00 5.55 14 4630 (2010) 0 (1965) 158 1 2 4 6 18 60 73 179 358
2025-10-29 11:30 5.57 15 4630 (2010) 0 (1965) 158 1 2 4 6 18 60 73 179 358
2025-10-29 11:00 5.55 14 4630 (2010) 0 (1965) 158 1 2 4 6 18 60 73 179 358
2025-10-29 10:30 5.57 15 4630 (2010) 0 (1965) 158 1 2 4 6 18 60 73 179 358
2025-10-29 10:00 5.55 14 4630 (2010) 0 (1965) 158 1 2 4 6 18 60 73 179 358
2025-10-29 09:30 5.55 14 4630 (2010) 0 (1965) 158 1 2 4 6 18 60 73 179 358
2025-10-29 09:00 5.54 13 4630 (2010) 0 (1965) 158 1 2 4 6 18 60 73 179 358
2025-10-29 08:30 5.54 13 4630 (2010) 0 (1965) 158 1 2 4 6 18 60 73 179 358
2025-10-29 08:00 5.52 12 4630 (2010) 0 (1965) 158 1 2 4 6 18 60 73 179 358
2025-10-29 07:30 5.55 14 4630 (2010) 0 (1965) 158 1 2 4 6 18 60 73 179 358
2025-10-29 07:00 5.53 13 4630 (2010) 0 (1965) 158 1 2 4 6 18 60 73 179 358
2025-10-29 06:30 5.52 12 4630 (2010) 0 (1965) 158 1 2 4 6 18 60 73 179 358
2025-10-29 06:00 5.52 12 4630 (2010) 0 (1965) 158 1 2 4 6 18 60 73 179 358
2025-10-29 05:30 5.53 13 4630 (2010) 0 (1965) 158 1 2 4 6 18 60 73 179 358
2025-10-29 05:00 5.53 13 4630 (2010) 0 (1965) 158 1 2 4 6 18 60 73 179 358
2025-10-29 04:30 5.54 13 4630 (2010) 0 (1965) 158 1 2 4 6 18 60 73 179 358
2025-10-29 04:00 5.57 15 4630 (2010) 0 (1965) 158 1 2 4 6 18 60 73 179 358
2025-10-29 03:30 5.57 15 4630 (2010) 0 (1965) 158 1 2 4 6 18 60 73 179 358
2025-10-29 03:00 5.57 15 4630 (2010) 0 (1965) 158 1 2 4 6 18 60 73 179 358
2025-10-29 02:30 15 4630 (2010) 0 (1965) 158 1 2 4 6 18 60 73 179 358
2025-10-29 02:00 5.58 15 4630 (2010) 0 (1965) 158 1 2 4 6 18 60 73 179 358
2025-10-29 01:30 5.56 14 4630 (2010) 0 (1965) 158 1 2 4 6 18 60 73 179 358
2025-10-29 01:00 5.56 14 4630 (2010) 0 (1965) 158 1 2 4 6 18 60 73 179 358
2025-10-29 00:30 14 4630 (2010) 0 (1965) 158 1 2 4 6 18 60 73 179 358
2025-10-29 00:00 5.55 14 4630 (2010) 0 (1965) 158 1 2 4 6 18 60 73 179 358
2025-10-28 23:30 5.56 14 4630 (2010) 0 (1965) 158 1 2 4 6 18 60 73 179 358
2025-10-28 23:00 5.56 14 4630 (2010) 0 (1965) 158 1 2 4 6 18 60 73 179 358
2025-10-28 22:30 5.57 15 8750 (1971) 0 (1965) 181 1 3 4 6 19 67 78 197 445
2025-10-28 22:00 5.57 15 8750 (1971) 0 (1965) 181 1 3 4 6 19 67 78 197 445
2025-10-28 21:30 5.58 15 8750 (1971) 0 (1965) 181 1 3 4 6 19 67 78 197 445
2025-10-28 21:00 5.58 15 8750 (1971) 0 (1965) 181 1 3 4 6 19 67 78 197 445
2025-10-28 20:30 5.59 16 8750 (1971) 0 (1965) 181 1 3 4 6 19 67 78 197 445
2025-10-28 20:00 5.59 16 8750 (1971) 0 (1965) 181 1 3 4 6 19 67 78 197 445
2025-10-28 19:30 5.59 16 8750 (1971) 0 (1965) 181 1 3 4 6 19 67 78 197 445
2025-10-28 19:00 5.60 16 8750 (1971) 0 (1965) 181 1 3 4 6 19 67 78 197 445
2025-10-28 18:30 5.60 16 8750 (1971) 0 (1965) 181 1 3 4 6 19 67 78 197 445
2025-10-28 18:00 5.60 16 8750 (1971) 0 (1965) 181 1 3 4 6 19 67 78 197 445
2025-10-28 17:30 5.61 17 8750 (1971) 0 (1965) 181 1 3 4 6 19 67 78 197 445
2025-10-28 17:00 5.61 17 8750 (1971) 0 (1965) 181 1 3 4 6 19 67 78 197 445
2025-10-28 16:30 5.61 17 8750 (1971) 0 (1965) 181 1 3 4 6 19 67 78 197 445
2025-10-28 16:00 5.62 18 8750 (1971) 0 (1965) 181 1 3 4 6 19 67 78 197 445
2025-10-28 15:30 5.62 18 8750 (1971) 0 (1965) 181 1 3 4 6 19 67 78 197 445
2025-10-28 15:00 5.62 18 8750 (1971) 0 (1965) 181 1 3 4 6 19 67 78 197 445
2025-10-28 14:30 5.63 18 8750 (1971) 0 (1965) 181 1 3 4 6 19 67 78 197 445
2025-10-28 14:00 5.63 18 8750 (1971) 0 (1965) 181 1 3 4 6 19 67 78 197 445
2025-10-28 13:30 5.63 18 8750 (1971) 0 (1965) 181 1 3 4 6 19 67 78 197 445
2025-10-28 13:00 5.64 19 8750 (1971) 0 (1965) 181 1 3 4 6 19 67 78 197 445
2025-10-28 12:30 5.64 19 8750 (1971) 0 (1965) 181 1 3 4 6 19 67 78 197 445
2025-10-28 12:00 5.63 18 8750 (1971) 0 (1965) 181 1 3 4 6 19 67 78 197 445
2025-10-28 11:30 5.58 15 8750 (1971) 0 (1965) 181 1 3 4 6 19 67 78 197 445
2025-10-28 11:00 5.61 17 8750 (1971) 0 (1965) 181 1 3 4 6 19 67 78 197 445
2025-10-28 10:30 5.61 17 8750 (1971) 0 (1965) 181 1 3 4 6 19 67 78 197 445
2025-10-28 10:00 5.68 21 8750 (1971) 0 (1965) 181 1 3 4 6 19 67 78 197 445
2025-10-28 09:30 5.69 22 8750 (1971) 0 (1965) 181 1 3 4 6 19 67 78 197 445
2025-10-28 09:00 21 8750 (1971) 0 (1965) 181 1 3 4 6 19 67 78 197 445
2025-10-28 08:00 5.53 13 8750 (1971) 0 (1965) 181 1 3 4 6 19 67 78 197 445
2025-10-28 07:30 5.53 13 8750 (1971) 0 (1965) 181 1 3 4 6 19 67 78 197 445
2025-10-28 07:00 5.53 13 8750 (1971) 0 (1965) 181 1 3 4 6 19 67 78 197 445
2025-10-28 06:30 5.52 12 8750 (1971) 0 (1965) 181 1 3 4 6 19 67 78 197 445
2025-10-28 06:00 5.52 12 8750 (1971) 0 (1965) 181 1 3 4 6 19 67 78 197 445
2025-10-28 05:30 5.52 12 8750 (1971) 0 (1965) 181 1 3 4 6 19 67 78 197 445
2025-10-28 05:00 5.52 12 8750 (1971) 0 (1965) 181 1 3 4 6 19 67 78 197 445
2025-10-28 04:30 5.52 12 8750 (1971) 0 (1965) 181 1 3 4 6 19 67 78 197 445
2025-10-28 04:00 5.48 10 8750 (1971) 0 (1965) 181 1 3 4 6 19 67 78 197 445
2025-10-28 03:30 5.53 13 8750 (1971) 0 (1965) 181 1 3 4 6 19 67 78 197 445
2025-10-28 03:00 5.51 12 8750 (1971) 0 (1965) 181 1 3 4 6 19 67 78 197 445
2025-10-28 02:30 5.52 12 8750 (1971) 0 (1965) 181 1 3 4 6 19 67 78 197 445
2025-10-28 02:00 9 8750 (1971) 0 (1965) 181 1 3 4 6 19 67 78 197 445
2025-10-28 01:30 5.47 10 8750 (1971) 0 (1965) 181 1 3 4 6 19 67 78 197 445
2025-10-28 01:00 5.52 12 8750 (1971) 0 (1965) 181 1 3 4 6 19 67 78 197 445
2025-10-28 00:30 5.52 12 8750 (1971) 0 (1965) 181 1 3 4 6 19 67 78 197 445
2025-10-28 00:00 12 8750 (1971) 0 (1965) 181 1 3 4 6 19 67 78 197 445
2025-10-27 23:30 5.52 12 8750 (1971) 0 (1965) 181 1 3 4 6 19 67 78 197 445
2025-10-27 23:00 5.52 12 8750 (1971) 0 (1965) 181 1 3 4 6 19 67 78 197 445
2025-10-27 22:30 5.52 12 8410 (1942) 1 (1957) 198 1 3 4 6 19 80 89 278 592
2025-10-27 22:00 5.52 12 8410 (1942) 1 (1957) 198 1 3 4 6 19 80 89 278 592
2025-10-27 21:30 5.52 12 8410 (1942) 1 (1957) 198 1 3 4 6 19 80 89 278 592
2025-10-27 21:00 5.52 12 8410 (1942) 1 (1957) 198 1 3 4 6 19 80 89 278 592
2025-10-27 20:30 5.52 12 8410 (1942) 1 (1957) 198 1 3 4 6 19 80 89 278 592
2025-10-27 20:00 5.52 12 8410 (1942) 1 (1957) 198 1 3 4 6 19 80 89 278 592
2025-10-27 19:30 5.52 12 8410 (1942) 1 (1957) 198 1 3 4 6 19 80 89 278 592
2025-10-27 19:00 5.52 12 8410 (1942) 1 (1957) 198 1 3 4 6 19 80 89 278 592
2025-10-27 18:30 5.52 12 8410 (1942) 1 (1957) 198 1 3 4 6 19 80 89 278 592
2025-10-27 18:00 5.51 12 8410 (1942) 1 (1957) 198 1 3 4 6 19 80 89 278 592
2025-10-27 17:30 5.49 11 8410 (1942) 1 (1957) 198 1 3 4 6 19 80 89 278 592
2025-10-27 17:00 5.52 12 8410 (1942) 1 (1957) 198 1 3 4 6 19 80 89 278 592
2025-10-27 16:30 5.52 12 8410 (1942) 1 (1957) 198 1 3 4 6 19 80 89 278 592
2025-10-27 16:00 5.52 12 8410 (1942) 1 (1957) 198 1 3 4 6 19 80 89 278 592
2025-10-27 15:30 5.52 12 8410 (1942) 1 (1957) 198 1 3 4 6 19 80 89 278 592
2025-10-27 15:00 5.51 12 8410 (1942) 1 (1957) 198 1 3 4 6 19 80 89 278 592
2025-10-27 14:30 5.52 12 8410 (1942) 1 (1957) 198 1 3 4 6 19 80 89 278 592
2025-10-27 14:00 5.52 12 8410 (1942) 1 (1957) 198 1 3 4 6 19 80 89 278 592
2025-10-27 13:30 5.51 12 8410 (1942) 1 (1957) 198 1 3 4 6 19 80 89 278 592
2025-10-27 13:00 5.48 10 8410 (1942) 1 (1957) 198 1 3 4 6 19 80 89 278 592
2025-10-27 12:30 5.45 9 8410 (1942) 1 (1957) 198 1 3 4 6 19 80 89 278 592
2025-10-27 12:00 5.46 9 8410 (1942) 1 (1957) 198 1 3 4 6 19 80 89 278 592
2025-10-27 11:30 5.46 9 8410 (1942) 1 (1957) 198 1 3 4 6 19 80 89 278 592
2025-10-27 11:00 5.48 10 8410 (1942) 1 (1957) 198 1 3 4 6 19 80 89 278 592
2025-10-27 10:30 5.48 10 8410 (1942) 1 (1957) 198 1 3 4 6 19 80 89 278 592
2025-10-27 10:00 5.48 10 8410 (1942) 1 (1957) 198 1 3 4 6 19 80 89 278 592
2025-10-27 09:30 5.51 12 8410 (1942) 1 (1957) 198 1 3 4 6 19 80 89 278 592
2025-10-27 09:00 5.48 10 8410 (1942) 1 (1957) 198 1 3 4 6 19 80 89 278 592
2025-10-27 08:30 5.46 9 8410 (1942) 1 (1957) 198 1 3 4 6 19 80 89 278 592
2025-10-27 08:00 5.51 12 8410 (1942) 1 (1957) 198 1 3 4 6 19 80 89 278 592
2025-10-27 07:30 5.48 10 8410 (1942) 1 (1957) 198 1 3 4 6 19 80 89 278 592
2025-10-27 07:00 5.47 10 8410 (1942) 1 (1957) 198 1 3 4 6 19 80 89 278 592
2025-10-27 06:30 5.48 10 8410 (1942) 1 (1957) 198 1 3 4 6 19 80 89 278 592
2025-10-27 06:00 5.50 11 8410 (1942) 1 (1957) 198 1 3 4 6 19 80 89 278 592
2025-10-27 05:30 5.46 9 8410 (1942) 1 (1957) 198 1 3 4 6 19 80 89 278 592
2025-10-27 05:00 9 8410 (1942) 1 (1957) 198 1 3 4 6 19 80 89 278 592
2025-10-27 04:30 5.46 9 8410 (1942) 1 (1957) 198 1 3 4 6 19 80 89 278 592
2025-10-27 04:00 9 8410 (1942) 1 (1957) 198 1 3 4 6 19 80 89 278 592
2025-10-27 03:30 5.49 11 8410 (1942) 1 (1957) 198 1 3 4 6 19 80 89 278 592
2025-10-27 03:00 10 8410 (1942) 1 (1957) 198 1 3 4 6 19 80 89 278 592
2025-10-27 02:30 5.51 12 8410 (1942) 1 (1957) 198 1 3 4 6 19 80 89 278 592
2025-10-27 02:00 5.49 11 8410 (1942) 1 (1957) 198 1 3 4 6 19 80 89 278 592
2025-10-27 01:30 5.48 10 8410 (1942) 1 (1957) 198 1 3 4 6 19 80 89 278 592
2025-10-27 01:00 5.51 12 8410 (1942) 1 (1957) 198 1 3 4 6 19 80 89 278 592
2025-10-27 00:30 11 8410 (1942) 1 (1957) 198 1 3 4 6 19 80 89 278 592
2025-10-27 00:00 5.49 11 8410 (1942) 1 (1957) 198 1 3 4 6 19 80 89 278 592
2025-10-26 23:30 5.50 11 8410 (1942) 1 (1957) 198 1 3 4 6 19 80 89 278 592
2025-10-26 23:00 11 8410 (1942) 1 (1957) 198 1 3 4 6 19 80 89 278 592
2025-10-26 22:30 5.47 10 2050 (1937) 0 (1965) 132 1 2 5 6 19 72 113 284 705
2025-10-26 22:00 8 2050 (1937) 0 (1965) 132 1 2 5 6 19 72 113 284 705
2025-10-26 21:30 5.44 9 2050 (1937) 0 (1965) 132 1 2 5 6 19 72 113 284 705
2025-10-26 21:00 8 2050 (1937) 0 (1965) 132 1 2 5 6 19 72 113 284 705
2025-10-26 20:30 5.44 9 2050 (1937) 0 (1965) 132 1 2 5 6 19 72 113 284 705
2025-10-26 20:00 9 2050 (1937) 0 (1965) 132 1 2 5 6 19 72 113 284 705
2025-10-26 19:30 5.50 11 2050 (1937) 0 (1965) 132 1 2 5 6 19 72 113 284 705
2025-10-26 19:00 5.50 11 2050 (1937) 0 (1965) 132 1 2 5 6 19 72 113 284 705
2025-10-26 18:30 5.45 9 2050 (1937) 0 (1965) 132 1 2 5 6 19 72 113 284 705
2025-10-26 18:00 5.44 9 2050 (1937) 0 (1965) 132 1 2 5 6 19 72 113 284 705
2025-10-26 17:30 5.44 9 2050 (1937) 0 (1965) 132 1 2 5 6 19 72 113 284 705
2025-10-26 17:00 5.42 8 2050 (1937) 0 (1965) 132 1 2 5 6 19 72 113 284 705
2025-10-26 16:30 5.42 8 2050 (1937) 0 (1965) 132 1 2 5 6 19 72 113 284 705
2025-10-26 16:00 5.43 8 2050 (1937) 0 (1965) 132 1 2 5 6 19 72 113 284 705
2025-10-26 15:30 5.49 11 2050 (1937) 0 (1965) 132 1 2 5 6 19 72 113 284 705
2025-10-26 15:00 5.49 11 2050 (1937) 0 (1965) 132 1 2 5 6 19 72 113 284 705
2025-10-26 14:30 5.48 10 2050 (1937) 0 (1965) 132 1 2 5 6 19 72 113 284 705
2025-10-26 14:00 5.46 9 2050 (1937) 0 (1965) 132 1 2 5 6 19 72 113 284 705
2025-10-26 13:30 5.45 9 2050 (1937) 0 (1965) 132 1 2 5 6 19 72 113 284 705
2025-10-26 13:00 5.45 9 2050 (1937) 0 (1965) 132 1 2 5 6 19 72 113 284 705
2025-10-26 12:30 5.45 9 2050 (1937) 0 (1965) 132 1 2 5 6 19 72 113 284 705
2025-10-26 12:00 5.45 9 2050 (1937) 0 (1965) 132 1 2 5 6 19 72 113 284 705
2025-10-26 11:30 5.43 8 2050 (1937) 0 (1965) 132 1 2 5 6 19 72 113 284 705
2025-10-26 11:00 5.43 8 2050 (1937) 0 (1965) 132 1 2 5 6 19 72 113 284 705
2025-10-26 10:30 5.44 9 2050 (1937) 0 (1965) 132 1 2 5 6 19 72 113 284 705
2025-10-26 10:00 5.44 9 2050 (1937) 0 (1965) 132 1 2 5 6 19 72 113 284 705
2025-10-26 09:30 5.44 9 2050 (1937) 0 (1965) 132 1 2 5 6 19 72 113 284 705
2025-10-26 09:00 5.48 10 2050 (1937) 0 (1965) 132 1 2 5 6 19 72 113 284 705
2025-10-26 08:30 5.49 11 2050 (1937) 0 (1965) 132 1 2 5 6 19 72 113 284 705
2025-10-26 08:00 5.48 10 2050 (1937) 0 (1965) 132 1 2 5 6 19 72 113 284 705
2025-10-26 07:30 5.48 10 2050 (1937) 0 (1965) 132 1 2 5 6 19 72 113 284 705
2025-10-26 07:00 5.48 10 2050 (1937) 0 (1965) 132 1 2 5 6 19 72 113 284 705
2025-10-26 06:30 5.48 10 2050 (1937) 0 (1965) 132 1 2 5 6 19 72 113 284 705
2025-10-26 06:00 5.48 10 2050 (1937) 0 (1965) 132 1 2 5 6 19 72 113 284 705
2025-10-26 05:30 5.48 10 2050 (1937) 0 (1965) 132 1 2 5 6 19 72 113 284 705
2025-10-26 05:00 5.48 10 2050 (1937) 0 (1965) 132 1 2 5 6 19 72 113 284 705
2025-10-26 04:30 5.48 10 2050 (1937) 0 (1965) 132 1 2 5 6 19 72 113 284 705
2025-10-26 04:00 5.48 10 2050 (1937) 0 (1965) 132 1 2 5 6 19 72 113 284 705
2025-10-26 03:30 10 2050 (1937) 0 (1965) 132 1 2 5 6 19 72 113 284 705
2025-10-26 03:00 5.48 10 2050 (1937) 0 (1965) 132 1 2 5 6 19 72 113 284 705
2025-10-26 02:30 5.46 9 2050 (1937) 0 (1965) 132 1 2 5 6 19 72 113 284 705
2025-10-26 02:00 8 2050 (1937) 0 (1965) 132 1 2 5 6 19 72 113 284 705
2025-10-26 01:30 5.48 10 2050 (1937) 0 (1965) 132 1 2 5 6 19 72 113 284 705
2025-10-26 01:00 10 2050 (1937) 0 (1965) 132 1 2 5 6 19 72 113 284 705
2025-10-26 00:30 10 2050 (1937) 0 (1965) 132 1 2 5 6 19 72 113 284 705
2025-10-26 00:00 5.47 10 2050 (1937) 0 (1965) 132 1 2 5 6 19 72 113 284 705
2025-10-25 23:30 10 2050 (1937) 0 (1965) 132 1 2 5 6 19 72 113 284 705
2025-10-25 23:00 10 2050 (1937) 0 (1965) 132 1 2 5 6 19 72 113 284 705
2025-10-25 22:30 5.47 10 4560 (1935) 0 (1965) 152 1 2 5 6 19 72 95 242 973
2025-10-25 22:00 5.47 10 4560 (1935) 0 (1965) 152 1 2 5 6 19 72 95 242 973
2025-10-25 21:30 10 4560 (1935) 0 (1965) 152 1 2 5 6 19 72 95 242 973
2025-10-25 21:00 5.42 8 4560 (1935) 0 (1965) 152 1 2 5 6 19 72 95 242 973
2025-10-25 20:30 5.41 8 4560 (1935) 0 (1965) 152 1 2 5 6 19 72 95 242 973
2025-10-25 20:00 5.42 8 4560 (1935) 0 (1965) 152 1 2 5 6 19 72 95 242 973
2025-10-25 19:30 5.41 8 4560 (1935) 0 (1965) 152 1 2 5 6 19 72 95 242 973
2025-10-25 19:00 5.43 8 4560 (1935) 0 (1965) 152 1 2 5 6 19 72 95 242 973
2025-10-25 18:30 5.41 8 4560 (1935) 0 (1965) 152 1 2 5 6 19 72 95 242 973
2025-10-25 18:00 5.41 8 4560 (1935) 0 (1965) 152 1 2 5 6 19 72 95 242 973
2025-10-25 17:30 5.43 8 4560 (1935) 0 (1965) 152 1 2 5 6 19 72 95 242 973
2025-10-25 17:00 5.39 7 4560 (1935) 0 (1965) 152 1 2 5 6 19 72 95 242 973
2025-10-25 16:30 5.41 8 4560 (1935) 0 (1965) 152 1 2 5 6 19 72 95 242 973
2025-10-25 16:00 5.39 7 4560 (1935) 0 (1965) 152 1 2 5 6 19 72 95 242 973
2025-10-25 15:30 5.40 7 4560 (1935) 0 (1965) 152 1 2 5 6 19 72 95 242 973
2025-10-25 15:00 5.41 8 4560 (1935) 0 (1965) 152 1 2 5 6 19 72 95 242 973
2025-10-25 14:30 5.43 8 4560 (1935) 0 (1965) 152 1 2 5 6 19 72 95 242 973
2025-10-25 14:00 5.40 7 4560 (1935) 0 (1965) 152 1 2 5 6 19 72 95 242 973
2025-10-25 13:30 5.41 8 4560 (1935) 0 (1965) 152 1 2 5 6 19 72 95 242 973
2025-10-25 13:00 5.41 8 4560 (1935) 0 (1965) 152 1 2 5 6 19 72 95 242 973
2025-10-25 12:30 5.41 8 4560 (1935) 0 (1965) 152 1 2 5 6 19 72 95 242 973
2025-10-25 12:00 5.42 8 4560 (1935) 0 (1965) 152 1 2 5 6 19 72 95 242 973
2025-10-25 11:30 5.44 9 4560 (1935) 0 (1965) 152 1 2 5 6 19 72 95 242 973
2025-10-25 11:00 5.45 9 4560 (1935) 0 (1965) 152 1 2 5 6 19 72 95 242 973
2025-10-25 10:30 5.44 9 4560 (1935) 0 (1965) 152 1 2 5 6 19 72 95 242 973
2025-10-25 10:00 5.42 8 4560 (1935) 0 (1965) 152 1 2 5 6 19 72 95 242 973
2025-10-25 09:30 5.42 8 4560 (1935) 0 (1965) 152 1 2 5 6 19 72 95 242 973
2025-10-25 09:00 5.47 10 4560 (1935) 0 (1965) 152 1 2 5 6 19 72 95 242 973
2025-10-25 08:30 5.48 10 4560 (1935) 0 (1965) 152 1 2 5 6 19 72 95 242 973
2025-10-25 08:00 5.42 8 4560 (1935) 0 (1965) 152 1 2 5 6 19 72 95 242 973
2025-10-25 07:30 5.48 10 4560 (1935) 0 (1965) 152 1 2 5 6 19 72 95 242 973
2025-10-25 07:00 5.48 10 4560 (1935) 0 (1965) 152 1 2 5 6 19 72 95 242 973
2025-10-25 06:30 5.42 8 4560 (1935) 0 (1965) 152 1 2 5 6 19 72 95 242 973
2025-10-25 06:00 5.48 10 4560 (1935) 0 (1965) 152 1 2 5 6 19 72 95 242 973
2025-10-25 05:30 5.48 10 4560 (1935) 0 (1965) 152 1 2 5 6 19 72 95 242 973
2025-10-25 05:00 5.48 10 4560 (1935) 0 (1965) 152 1 2 5 6 19 72 95 242 973
2025-10-25 04:30 5.48 10 4560 (1935) 0 (1965) 152 1 2 5 6 19 72 95 242 973
2025-10-25 04:00 5.48 10 4560 (1935) 0 (1965) 152 1 2 5 6 19 72 95 242 973
2025-10-25 03:30 5.48 10 4560 (1935) 0 (1965) 152 1 2 5 6 19 72 95 242 973
2025-10-25 03:00 10 4560 (1935) 0 (1965) 152 1 2 5 6 19 72 95 242 973
2025-10-25 02:30 10 4560 (1935) 0 (1965) 152 1 2 5 6 19 72 95 242 973
2025-10-25 02:00 10 4560 (1935) 0 (1965) 152 1 2 5 6 19 72 95 242 973
2025-10-25 01:30 5.48 10 4560 (1935) 0 (1965) 152 1 2 5 6 19 72 95 242 973
2025-10-25 01:00 10 4560 (1935) 0 (1965) 152 1 2 5 6 19 72 95 242 973
2025-10-25 00:30 10 4560 (1935) 0 (1965) 152 1 2 5 6 19 72 95 242 973
2025-10-25 00:00 5.48 10 4560 (1935) 0 (1965) 152 1 2 5 6 19 72 95 242 973
2025-10-24 23:30 10 4560 (1935) 0 (1965) 152 1 2 5 6 19 72 95 242 973
2025-10-24 23:00 5.48 10 4560 (1935) 0 (1965) 152 1 2 5 6 19 72 95 242 973
2025-10-24 22:30 5.48 10 4350 (2010) 0 (1965) 207 1 2 4 6 18 72 82 226 1250
2025-10-24 22:00 10 4350 (2010) 0 (1965) 207 1 2 4 6 18 72 82 226 1250
2025-10-24 21:30 5.48 10 4350 (2010) 0 (1965) 207 1 2 4 6 18 72 82 226 1250
2025-10-24 21:00 5.48 10 4350 (2010) 0 (1965) 207 1 2 4 6 18 72 82 226 1250
2025-10-24 20:30 5.48 10 4350 (2010) 0 (1965) 207 1 2 4 6 18 72 82 226 1250
2025-10-24 20:00 5.48 10 4350 (2010) 0 (1965) 207 1 2 4 6 18 72 82 226 1250
2025-10-24 19:30 5.48 10 4350 (2010) 0 (1965) 207 1 2 4 6 18 72 82 226 1250
2025-10-24 19:00 5.48 10 4350 (2010) 0 (1965) 207 1 2 4 6 18 72 82 226 1250
2025-10-24 18:30 5.48 10 4350 (2010) 0 (1965) 207 1 2 4 6 18 72 82 226 1250
2025-10-24 18:00 5.47 10 4350 (2010) 0 (1965) 207 1 2 4 6 18 72 82 226 1250
2025-10-24 17:30 5.48 10 4350 (2010) 0 (1965) 207 1 2 4 6 18 72 82 226 1250
2025-10-24 17:00 5.48 10 4350 (2010) 0 (1965) 207 1 2 4 6 18 72 82 226 1250
2025-10-24 16:30 5.48 10 4350 (2010) 0 (1965) 207 1 2 4 6 18 72 82 226 1250
2025-10-24 16:00 5.48 10 4350 (2010) 0 (1965) 207 1 2 4 6 18 72 82 226 1250
2025-10-24 15:30 5.47 10 4350 (2010) 0 (1965) 207 1 2 4 6 18 72 82 226 1250
2025-10-24 15:00 5.48 10 4350 (2010) 0 (1965) 207 1 2 4 6 18 72 82 226 1250
2025-10-24 14:30 5.48 10 4350 (2010) 0 (1965) 207 1 2 4 6 18 72 82 226 1250
2025-10-24 14:00 5.48 10 4350 (2010) 0 (1965) 207 1 2 4 6 18 72 82 226 1250
2025-10-24 13:30 5.48 10 4350 (2010) 0 (1965) 207 1 2 4 6 18 72 82 226 1250
2025-10-24 13:00 5.48 10 4350 (2010) 0 (1965) 207 1 2 4 6 18 72 82 226 1250
2025-10-24 12:30 5.45 9 4350 (2010) 0 (1965) 207 1 2 4 6 18 72 82 226 1250
2025-10-24 12:00 5.48 10 4350 (2010) 0 (1965) 207 1 2 4 6 18 72 82 226 1250
2025-10-24 11:30 5.48 10 4350 (2010) 0 (1965) 207 1 2 4 6 18 72 82 226 1250
2025-10-24 11:00 5.48 10 4350 (2010) 0 (1965) 207 1 2 4 6 18 72 82 226 1250
2025-10-24 10:30 5.48 10 4350 (2010) 0 (1965) 207 1 2 4 6 18 72 82 226 1250
2025-10-24 10:00 5.48 10 4350 (2010) 0 (1965) 207 1 2 4 6 18 72 82 226 1250
2025-10-24 09:30 5.48 10 4350 (2010) 0 (1965) 207 1 2 4 6 18 72 82 226 1250
2025-10-24 09:00 5.48 10 4350 (2010) 0 (1965) 207 1 2 4 6 18 72 82 226 1250
2025-10-24 08:30 5.48 10 4350 (2010) 0 (1965) 207 1 2 4 6 18 72 82 226 1250
2025-10-24 08:00 5.49 11 4350 (2010) 0 (1965) 207 1 2 4 6 18 72 82 226 1250
2025-10-24 07:30 5.49 11 4350 (2010) 0 (1965) 207 1 2 4 6 18 72 82 226 1250
2025-10-24 07:00 5.49 11 4350 (2010) 0 (1965) 207 1 2 4 6 18 72 82 226 1250
2025-10-24 06:30 5.49 11 4350 (2010) 0 (1965) 207 1 2 4 6 18 72 82 226 1250
2025-10-24 06:00 5.49 11 4350 (2010) 0 (1965) 207 1 2 4 6 18 72 82 226 1250
2025-10-24 05:30 5.49 11 4350 (2010) 0 (1965) 207 1 2 4 6 18 72 82 226 1250
2025-10-24 05:00 5.49 11 4350 (2010) 0 (1965) 207 1 2 4 6 18 72 82 226 1250
2025-10-24 04:30 11 4350 (2010) 0 (1965) 207 1 2 4 6 18 72 82 226 1250
2025-10-24 04:00 5.49 11 4350 (2010) 0 (1965) 207 1 2 4 6 18 72 82 226 1250
2025-10-24 03:30 11 4350 (2010) 0 (1965) 207 1 2 4 6 18 72 82 226 1250
2025-10-24 03:00 5.49 11 4350 (2010) 0 (1965) 207 1 2 4 6 18 72 82 226 1250
2025-10-24 02:30 5.49 11 4350 (2010) 0 (1965) 207 1 2 4 6 18 72 82 226 1250
2025-10-24 02:00 10 4350 (2010) 0 (1965) 207 1 2 4 6 18 72 82 226 1250
2025-10-24 01:30 5.48 10 4350 (2010) 0 (1965) 207 1 2 4 6 18 72 82 226 1250
2025-10-24 01:00 5.49 11 4350 (2010) 0 (1965) 207 1 2 4 6 18 72 82 226 1250
2025-10-24 00:30 10 4350 (2010) 0 (1965) 207 1 2 4 6 18 72 82 226 1250
2025-10-24 00:00 5.48 10 4350 (2010) 0 (1965) 207 1 2 4 6 18 72 82 226 1250
2025-10-23 23:30 5.48 10 4350 (2010) 0 (1965) 207 1 2 4 6 18 72 82 226 1250
2025-10-23 23:00 5.48 10 4350 (2010) 0 (1965) 207 1 2 4 6 18 72 82 226 1250
2025-10-23 22:30 5.48 10 11700 (2010) 0 (1965) 343 1 2 4 5 21 74 99 263 1110
2025-10-23 22:00 5.48 10 11700 (2010) 0 (1965) 343 1 2 4 5 21 74 99 263 1110
2025-10-23 21:30 5.48 10 11700 (2010) 0 (1965) 343 1 2 4 5 21 74 99 263 1110
2025-10-23 21:00 5.48 10 11700 (2010) 0 (1965) 343 1 2 4 5 21 74 99 263 1110
2025-10-23 20:30 5.48 10 11700 (2010) 0 (1965) 343 1 2 4 5 21 74 99 263 1110
2025-10-23 20:00 5.48 10 11700 (2010) 0 (1965) 343 1 2 4 5 21 74 99 263 1110
2025-10-23 19:30 5.48 10 11700 (2010) 0 (1965) 343 1 2 4 5 21 74 99 263 1110
2025-10-23 19:00 5.48 10 11700 (2010) 0 (1965) 343 1 2 4 5 21 74 99 263 1110
2025-10-23 18:30 5.48 10 11700 (2010) 0 (1965) 343 1 2 4 5 21 74 99 263 1110
2025-10-23 18:00 5.48 10 11700 (2010) 0 (1965) 343 1 2 4 5 21 74 99 263 1110
2025-10-23 17:30 5.48 10 11700 (2010) 0 (1965) 343 1 2 4 5 21 74 99 263 1110
2025-10-23 17:00 5.48 10 11700 (2010) 0 (1965) 343 1 2 4 5 21 74 99 263 1110
2025-10-23 16:30 5.48 10 11700 (2010) 0 (1965) 343 1 2 4 5 21 74 99 263 1110
2025-10-23 16:00 5.47 10 11700 (2010) 0 (1965) 343 1 2 4 5 21 74 99 263 1110
2025-10-23 15:30 5.43 8 11700 (2010) 0 (1965) 343 1 2 4 5 21 74 99 263 1110
2025-10-23 15:00 5.44 9 11700 (2010) 0 (1965) 343 1 2 4 5 21 74 99 263 1110
2025-10-23 14:30 5.44 9 11700 (2010) 0 (1965) 343 1 2 4 5 21 74 99 263 1110
2025-10-23 14:00 5.49 11 11700 (2010) 0 (1965) 343 1 2 4 5 21 74 99 263 1110
2025-10-23 13:30 5.45 9 11700 (2010) 0 (1965) 343 1 2 4 5 21 74 99 263 1110
2025-10-23 13:00 5.48 10 11700 (2010) 0 (1965) 343 1 2 4 5 21 74 99 263 1110
2025-10-23 12:30 5.49 11 11700 (2010) 0 (1965) 343 1 2 4 5 21 74 99 263 1110
2025-10-23 12:00 5.48 10 11700 (2010) 0 (1965) 343 1 2 4 5 21 74 99 263 1110
2025-10-23 11:30 5.49 11 11700 (2010) 0 (1965) 343 1 2 4 5 21 74 99 263 1110
2025-10-23 11:00 5.49 11 11700 (2010) 0 (1965) 343 1 2 4 5 21 74 99 263 1110
2025-10-23 10:30 5.49 11 11700 (2010) 0 (1965) 343 1 2 4 5 21 74 99 263 1110
2025-10-23 10:00 5.49 11 11700 (2010) 0 (1965) 343 1 2 4 5 21 74 99 263 1110
2025-10-23 09:30 5.48 10 11700 (2010) 0 (1965) 343 1 2 4 5 21 74 99 263 1110
2025-10-23 09:00 5.49 11 11700 (2010) 0 (1965) 343 1 2 4 5 21 74 99 263 1110
2025-10-23 08:30 5.49 11 11700 (2010) 0 (1965) 343 1 2 4 5 21 74 99 263 1110
2025-10-23 08:00 5.50 11 11700 (2010) 0 (1965) 343 1 2 4 5 21 74 99 263 1110
2025-10-23 07:30 5.50 11 11700 (2010) 0 (1965) 343 1 2 4 5 21 74 99 263 1110
2025-10-23 07:00 5.50 11 11700 (2010) 0 (1965) 343 1 2 4 5 21 74 99 263 1110
2025-10-23 06:30 5.50 11 11700 (2010) 0 (1965) 343 1 2 4 5 21 74 99 263 1110
2025-10-23 06:00 5.50 11 11700 (2010) 0 (1965) 343 1 2 4 5 21 74 99 263 1110
2025-10-23 05:30 5.50 11 11700 (2010) 0 (1965) 343 1 2 4 5 21 74 99 263 1110
2025-10-23 05:00 11 11700 (2010) 0 (1965) 343 1 2 4 5 21 74 99 263 1110
2025-10-23 04:30 5.50 11 11700 (2010) 0 (1965) 343 1 2 4 5 21 74 99 263 1110
2025-10-23 04:00 5.50 11 11700 (2010) 0 (1965) 343 1 2 4 5 21 74 99 263 1110
2025-10-23 03:30 5.50 11 11700 (2010) 0 (1965) 343 1 2 4 5 21 74 99 263 1110
2025-10-23 03:00 5.50 11 11700 (2010) 0 (1965) 343 1 2 4 5 21 74 99 263 1110
2025-10-23 02:30 11 11700 (2010) 0 (1965) 343 1 2 4 5 21 74 99 263 1110
2025-10-23 02:00 5.50 11 11700 (2010) 0 (1965) 343 1 2 4 5 21 74 99 263 1110
2025-10-23 01:30 5.50 11 11700 (2010) 0 (1965) 343 1 2 4 5 21 74 99 263 1110
2025-10-23 01:00 5.50 11 11700 (2010) 0 (1965) 343 1 2 4 5 21 74 99 263 1110
2025-10-23 00:30 11 11700 (2010) 0 (1965) 343 1 2 4 5 21 74 99 263 1110
2025-10-23 00:00 5.50 11 11700 (2010) 0 (1965) 343 1 2 4 5 21 74 99 263 1110
2025-10-22 23:30 5.50 11 11700 (2010) 0 (1965) 343 1 2 4 5 21 74 99 263 1110
2025-10-22 23:00 5.50 11 11700 (2010) 0 (1965) 343 1 2 4 5 21 74 99 263 1110
2025-10-22 22:30 5.50 11 15500 (1942) 0 (1965) 428 1 2 4 5 21 75 99 313 508
2025-10-22 22:00 5.50 11 15500 (1942) 0 (1965) 428 1 2 4 5 21 75 99 313 508
2025-10-22 21:30 5.50 11 15500 (1942) 0 (1965) 428 1 2 4 5 21 75 99 313 508
2025-10-22 21:00 5.50 11 15500 (1942) 0 (1965) 428 1 2 4 5 21 75 99 313 508
2025-10-22 20:30 5.50 11 15500 (1942) 0 (1965) 428 1 2 4 5 21 75 99 313 508
2025-10-22 20:00 5.50 11 15500 (1942) 0 (1965) 428 1 2 4 5 21 75 99 313 508
2025-10-22 19:30 5.50 11 15500 (1942) 0 (1965) 428 1 2 4 5 21 75 99 313 508
2025-10-22 19:00 5.50 11 15500 (1942) 0 (1965) 428 1 2 4 5 21 75 99 313 508
2025-10-22 18:30 5.50 11 15500 (1942) 0 (1965) 428 1 2 4 5 21 75 99 313 508
2025-10-22 18:00 5.50 11 15500 (1942) 0 (1965) 428 1 2 4 5 21 75 99 313 508
2025-10-22 17:30 5.48 10 15500 (1942) 0 (1965) 428 1 2 4 5 21 75 99 313 508
2025-10-22 17:00 5.46 9 15500 (1942) 0 (1965) 428 1 2 4 5 21 75 99 313 508
2025-10-22 16:30 5.49 11 15500 (1942) 0 (1965) 428 1 2 4 5 21 75 99 313 508
2025-10-22 16:00 5.45 9 15500 (1942) 0 (1965) 428 1 2 4 5 21 75 99 313 508
2025-10-22 15:30 5.42 8 15500 (1942) 0 (1965) 428 1 2 4 5 21 75 99 313 508
2025-10-22 15:00 5.47 10 15500 (1942) 0 (1965) 428 1 2 4 5 21 75 99 313 508
2025-10-22 14:30 5.47 10 15500 (1942) 0 (1965) 428 1 2 4 5 21 75 99 313 508
2025-10-22 14:00 5.44 9 15500 (1942) 0 (1965) 428 1 2 4 5 21 75 99 313 508
2025-10-22 13:30 5.46 9 15500 (1942) 0 (1965) 428 1 2 4 5 21 75 99 313 508
2025-10-22 13:00 5.46 9 15500 (1942) 0 (1965) 428 1 2 4 5 21 75 99 313 508
2025-10-22 12:30 5.47 10 15500 (1942) 0 (1965) 428 1 2 4 5 21 75 99 313 508
2025-10-22 12:00 5.44 9 15500 (1942) 0 (1965) 428 1 2 4 5 21 75 99 313 508
2025-10-22 11:30 5.45 9 15500 (1942) 0 (1965) 428 1 2 4 5 21 75 99 313 508
2025-10-22 11:00 5.44 9 15500 (1942) 0 (1965) 428 1 2 4 5 21 75 99 313 508
2025-10-22 10:30 5.46 9 15500 (1942) 0 (1965) 428 1 2 4 5 21 75 99 313 508
2025-10-22 10:00 5.43 8 15500 (1942) 0 (1965) 428 1 2 4 5 21 75 99 313 508
2025-10-22 09:30 5.46 9 15500 (1942) 0 (1965) 428 1 2 4 5 21 75 99 313 508
2025-10-22 09:00 5.51 12 15500 (1942) 0 (1965) 428 1 2 4 5 21 75 99 313 508
2025-10-22 08:30 5.52 12 15500 (1942) 0 (1965) 428 1 2 4 5 21 75 99 313 508
2025-10-22 08:00 5.52 12 15500 (1942) 0 (1965) 428 1 2 4 5 21 75 99 313 508
2025-10-22 07:30 5.53 13 15500 (1942) 0 (1965) 428 1 2 4 5 21 75 99 313 508
2025-10-22 07:00 5.53 13 15500 (1942) 0 (1965) 428 1 2 4 5 21 75 99 313 508
2025-10-22 06:30 5.53 13 15500 (1942) 0 (1965) 428 1 2 4 5 21 75 99 313 508
2025-10-22 06:00 5.53 13 15500 (1942) 0 (1965) 428 1 2 4 5 21 75 99 313 508
2025-10-22 05:30 5.53 13 15500 (1942) 0 (1965) 428 1 2 4 5 21 75 99 313 508
2025-10-22 05:00 5.53 13 15500 (1942) 0 (1965) 428 1 2 4 5 21 75 99 313 508
2025-10-22 04:30 5.53 13 15500 (1942) 0 (1965) 428 1 2 4 5 21 75 99 313 508
2025-10-22 04:00 5.53 13 15500 (1942) 0 (1965) 428 1 2 4 5 21 75 99 313 508
2025-10-22 03:30 5.53 13 15500 (1942) 0 (1965) 428 1 2 4 5 21 75 99 313 508
2025-10-22 03:00 5.53 13 15500 (1942) 0 (1965) 428 1 2 4 5 21 75 99 313 508
2025-10-22 02:30 5.53 13 15500 (1942) 0 (1965) 428 1 2 4 5 21 75 99 313 508
2025-10-22 02:00 5.53 13 15500 (1942) 0 (1965) 428 1 2 4 5 21 75 99 313 508
2025-10-22 01:30 5.53 13 15500 (1942) 0 (1965) 428 1 2 4 5 21 75 99 313 508
2025-10-22 01:00 5.53 13 15500 (1942) 0 (1965) 428 1 2 4 5 21 75 99 313 508
2025-10-22 00:30 5.53 13 15500 (1942) 0 (1965) 428 1 2 4 5 21 75 99 313 508
2025-10-22 00:00 5.53 13 15500 (1942) 0 (1965) 428 1 2 4 5 21 75 99 313 508
2025-10-21 23:30 5.53 13 15500 (1942) 0 (1965) 428 1 2 4 5 21 75 99 313 508
2025-10-21 23:00 5.53 13 15500 (1942) 0 (1965) 428 1 2 4 5 21 75 99 313 508
2025-10-21 22:30 5.53 13 9030 (1950) 0 (1965) 245 1 3 4 5 21 74 113 351 583
2025-10-21 22:00 5.53 13 9030 (1950) 0 (1965) 245 1 3 4 5 21 74 113 351 583
2025-10-21 21:30 5.53 13 9030 (1950) 0 (1965) 245 1 3 4 5 21 74 113 351 583
2025-10-21 21:00 5.53 13 9030 (1950) 0 (1965) 245 1 3 4 5 21 74 113 351 583
2025-10-21 20:30 5.53 13 9030 (1950) 0 (1965) 245 1 3 4 5 21 74 113 351 583
2025-10-21 20:00 5.54 13 9030 (1950) 0 (1965) 245 1 3 4 5 21 74 113 351 583
2025-10-21 19:30 5.54 13 9030 (1950) 0 (1965) 245 1 3 4 5 21 74 113 351 583
2025-10-21 19:00 5.54 13 9030 (1950) 0 (1965) 245 1 3 4 5 21 74 113 351 583
2025-10-21 18:30 5.50 11 9030 (1950) 0 (1965) 245 1 3 4 5 21 74 113 351 583
2025-10-21 18:00 5.51 12 9030 (1950) 0 (1965) 245 1 3 4 5 21 74 113 351 583
2025-10-21 17:30 5.48 10 9030 (1950) 0 (1965) 245 1 3 4 5 21 74 113 351 583
2025-10-21 17:00 5.49 11 9030 (1950) 0 (1965) 245 1 3 4 5 21 74 113 351 583
2025-10-21 16:30 5.46 9 9030 (1950) 0 (1965) 245 1 3 4 5 21 74 113 351 583
2025-10-21 16:00 5.49 11 9030 (1950) 0 (1965) 245 1 3 4 5 21 74 113 351 583
2025-10-21 15:30 5.47 10 9030 (1950) 0 (1965) 245 1 3 4 5 21 74 113 351 583
2025-10-21 15:00 5.45 9 9030 (1950) 0 (1965) 245 1 3 4 5 21 74 113 351 583
2025-10-21 14:30 5.48 10 9030 (1950) 0 (1965) 245 1 3 4 5 21 74 113 351 583
2025-10-21 14:00 5.47 10 9030 (1950) 0 (1965) 245 1 3 4 5 21 74 113 351 583
2025-10-21 13:30 5.48 10 9030 (1950) 0 (1965) 245 1 3 4 5 21 74 113 351 583
2025-10-21 13:00 5.50 11 9030 (1950) 0 (1965) 245 1 3 4 5 21 74 113 351 583
2025-10-21 12:30 5.47 10 9030 (1950) 0 (1965) 245 1 3 4 5 21 74 113 351 583
2025-10-21 12:00 5.48 10 9030 (1950) 0 (1965) 245 1 3 4 5 21 74 113 351 583
2025-10-21 11:30 5.49 11 9030 (1950) 0 (1965) 245 1 3 4 5 21 74 113 351 583
2025-10-21 11:00 5.46 9 9030 (1950) 0 (1965) 245 1 3 4 5 21 74 113 351 583
2025-10-21 10:30 5.48 10 9030 (1950) 0 (1965) 245 1 3 4 5 21 74 113 351 583
2025-10-21 10:00 5.50 11 9030 (1950) 0 (1965) 245 1 3 4 5 21 74 113 351 583
2025-10-21 09:30 5.49 11 9030 (1950) 0 (1965) 245 1 3 4 5 21 74 113 351 583
2025-10-21 09:00 5.47 10 9030 (1950) 0 (1965) 245 1 3 4 5 21 74 113 351 583
2025-10-21 08:30 5.53 13 9030 (1950) 0 (1965) 245 1 3 4 5 21 74 113 351 583
2025-10-21 08:00 5.56 14 9030 (1950) 0 (1965) 245 1 3 4 5 21 74 113 351 583
2025-10-21 07:30 5.56 14 9030 (1950) 0 (1965) 245 1 3 4 5 21 74 113 351 583
2025-10-21 07:00 5.56 14 9030 (1950) 0 (1965) 245 1 3 4 5 21 74 113 351 583
2025-10-21 06:30 5.56 14 9030 (1950) 0 (1965) 245 1 3 4 5 21 74 113 351 583
2025-10-21 06:00 5.56 14 9030 (1950) 0 (1965) 245 1 3 4 5 21 74 113 351 583
2025-10-21 05:30 5.56 14 9030 (1950) 0 (1965) 245 1 3 4 5 21 74 113 351 583
2025-10-21 05:00 5.56 14 9030 (1950) 0 (1965) 245 1 3 4 5 21 74 113 351 583
2025-10-21 04:30 5.56 14 9030 (1950) 0 (1965) 245 1 3 4 5 21 74 113 351 583
2025-10-21 04:00 5.56 14 9030 (1950) 0 (1965) 245 1 3 4 5 21 74 113 351 583
2025-10-21 03:30 5.56 14 9030 (1950) 0 (1965) 245 1 3 4 5 21 74 113 351 583
2025-10-21 03:00 5.56 14 9030 (1950) 0 (1965) 245 1 3 4 5 21 74 113 351 583
2025-10-21 02:30 5.56 14 9030 (1950) 0 (1965) 245 1 3 4 5 21 74 113 351 583
2025-10-21 02:00 5.56 14 9030 (1950) 0 (1965) 245 1 3 4 5 21 74 113 351 583
2025-10-21 01:30 5.56 14 9030 (1950) 0 (1965) 245 1 3 4 5 21 74 113 351 583
2025-10-21 01:00 5.56 14 9030 (1950) 0 (1965) 245 1 3 4 5 21 74 113 351 583
2025-10-21 00:30 5.56 14 9030 (1950) 0 (1965) 245 1 3 4 5 21 74 113 351 583
2025-10-21 00:00 5.55 14 9030 (1950) 0 (1965) 245 1 3 4 5 21 74 113 351 583
2025-10-20 23:30 5.56 14 9030 (1950) 0 (1965) 245 1 3 4 5 21 74 113 351 583
2025-10-20 23:00 5.55 14 9030 (1950) 0 (1965) 245 1 3 4 5 21 74 113 351 583
2025-10-20 22:30 5.56 14 2490 (1983) 0 (1965) 142 1 3 4 6 22 88 139 284 973
2025-10-20 22:00 5.52 12 2490 (1983) 0 (1965) 142 1 3 4 6 22 88 139 284 973
2025-10-20 21:30 5.55 14 2490 (1983) 0 (1965) 142 1 3 4 6 22 88 139 284 973
2025-10-20 21:00 5.52 12 2490 (1983) 0 (1965) 142 1 3 4 6 22 88 139 284 973
2025-10-20 20:30 5.57 15 2490 (1983) 0 (1965) 142 1 3 4 6 22 88 139 284 973
2025-10-20 20:00 5.57 15 2490 (1983) 0 (1965) 142 1 3 4 6 22 88 139 284 973
2025-10-20 19:30 5.57 15 2490 (1983) 0 (1965) 142 1 3 4 6 22 88 139 284 973
2025-10-20 19:00 5.57 15 2490 (1983) 0 (1965) 142 1 3 4 6 22 88 139 284 973
2025-10-20 18:30 5.57 15 2490 (1983) 0 (1965) 142 1 3 4 6 22 88 139 284 973
2025-10-20 18:00 5.56 14 2490 (1983) 0 (1965) 142 1 3 4 6 22 88 139 284 973
2025-10-20 17:30 5.57 15 2490 (1983) 0 (1965) 142 1 3 4 6 22 88 139 284 973
2025-10-20 17:00 5.52 12 2490 (1983) 0 (1965) 142 1 3 4 6 22 88 139 284 973
2025-10-20 16:30 5.52 12 2490 (1983) 0 (1965) 142 1 3 4 6 22 88 139 284 973
2025-10-20 16:00 5.55 14 2490 (1983) 0 (1965) 142 1 3 4 6 22 88 139 284 973
2025-10-20 15:30 5.55 14 2490 (1983) 0 (1965) 142 1 3 4 6 22 88 139 284 973
2025-10-20 15:00 5.53 13 2490 (1983) 0 (1965) 142 1 3 4 6 22 88 139 284 973
2025-10-20 14:30 5.51 12 2490 (1983) 0 (1965) 142 1 3 4 6 22 88 139 284 973
2025-10-20 14:00 5.55 14 2490 (1983) 0 (1965) 142 1 3 4 6 22 88 139 284 973
2025-10-20 13:30 5.53 13 2490 (1983) 0 (1965) 142 1 3 4 6 22 88 139 284 973
2025-10-20 13:00 5.56 14 2490 (1983) 0 (1965) 142 1 3 4 6 22 88 139 284 973
2025-10-20 12:30 5.57 15 2490 (1983) 0 (1965) 142 1 3 4 6 22 88 139 284 973
2025-10-20 12:00 5.53 13 2490 (1983) 0 (1965) 142 1 3 4 6 22 88 139 284 973
2025-10-20 11:30 5.53 13 2490 (1983) 0 (1965) 142 1 3 4 6 22 88 139 284 973
2025-10-20 11:00 5.53 13 2490 (1983) 0 (1965) 142 1 3 4 6 22 88 139 284 973
2025-10-20 10:30 5.53 13 2490 (1983) 0 (1965) 142 1 3 4 6 22 88 139 284 973
2025-10-20 10:00 5.57 15 2490 (1983) 0 (1965) 142 1 3 4 6 22 88 139 284 973
2025-10-20 09:30 5.55 14 2490 (1983) 0 (1965) 142 1 3 4 6 22 88 139 284 973
2025-10-20 09:00 5.54 13 2490 (1983) 0 (1965) 142 1 3 4 6 22 88 139 284 973
2025-10-20 08:30 5.57 15 2490 (1983) 0 (1965) 142 1 3 4 6 22 88 139 284 973
2025-10-20 08:00 5.58 15 2490 (1983) 0 (1965) 142 1 3 4 6 22 88 139 284 973
2025-10-20 07:30 5.58 15 2490 (1983) 0 (1965) 142 1 3 4 6 22 88 139 284 973
2025-10-20 07:00 5.58 15 2490 (1983) 0 (1965) 142 1 3 4 6 22 88 139 284 973
2025-10-20 06:30 5.58 15 2490 (1983) 0 (1965) 142 1 3 4 6 22 88 139 284 973
2025-10-20 06:00 5.58 15 2490 (1983) 0 (1965) 142 1 3 4 6 22 88 139 284 973
2025-10-20 05:30 5.57 15 2490 (1983) 0 (1965) 142 1 3 4 6 22 88 139 284 973
2025-10-20 05:00 5.58 15 2490 (1983) 0 (1965) 142 1 3 4 6 22 88 139 284 973
2025-10-20 04:30 5.58 15 2490 (1983) 0 (1965) 142 1 3 4 6 22 88 139 284 973
2025-10-20 04:00 5.58 15 2490 (1983) 0 (1965) 142 1 3 4 6 22 88 139 284 973
2025-10-20 03:30 5.58 15 2490 (1983) 0 (1965) 142 1 3 4 6 22 88 139 284 973
2025-10-20 03:00 5.58 15 2490 (1983) 0 (1965) 142 1 3 4 6 22 88 139 284 973
2025-10-20 02:30 5.58 15 2490 (1983) 0 (1965) 142 1 3 4 6 22 88 139 284 973
2025-10-20 02:00 5.58 15 2490 (1983) 0 (1965) 142 1 3 4 6 22 88 139 284 973
2025-10-20 01:30 5.58 15 2490 (1983) 0 (1965) 142 1 3 4 6 22 88 139 284 973
2025-10-20 01:00 5.58 15 2490 (1983) 0 (1965) 142 1 3 4 6 22 88 139 284 973
2025-10-20 00:30 5.58 15 2490 (1983) 0 (1965) 142 1 3 4 6 22 88 139 284 973
2025-10-20 00:00 5.58 15 2490 (1983) 0 (1965) 142 1 3 4 6 22 88 139 284 973
2025-10-19 23:30 5.58 15 2490 (1983) 0 (1965) 142 1 3 4 6 22 88 139 284 973
2025-10-19 23:00 5.58 15 2490 (1983) 0 (1965) 142 1 3 4 6 22 88 139 284 973
2025-10-19 22:30 5.58 15 3670 (2005) 0 (1965) 136 1 2 5 5 20 73 133 301 556
2025-10-19 22:00 5.58 15 3670 (2005) 0 (1965) 136 1 2 5 5 20 73 133 301 556
2025-10-19 21:30 5.58 15 3670 (2005) 0 (1965) 136 1 2 5 5 20 73 133 301 556
2025-10-19 21:00 5.58 15 3670 (2005) 0 (1965) 136 1 2 5 5 20 73 133 301 556
2025-10-19 20:30 5.58 15 3670 (2005) 0 (1965) 136 1 2 5 5 20 73 133 301 556
2025-10-19 20:00 5.59 16 3670 (2005) 0 (1965) 136 1 2 5 5 20 73 133 301 556
2025-10-19 19:30 5.59 16 3670 (2005) 0 (1965) 136 1 2 5 5 20 73 133 301 556
2025-10-19 19:00 5.59 16 3670 (2005) 0 (1965) 136 1 2 5 5 20 73 133 301 556
2025-10-19 18:30 5.59 16 3670 (2005) 0 (1965) 136 1 2 5 5 20 73 133 301 556
2025-10-19 18:00 5.54 13 3670 (2005) 0 (1965) 136 1 2 5 5 20 73 133 301 556
2025-10-19 17:30 5.54 13 3670 (2005) 0 (1965) 136 1 2 5 5 20 73 133 301 556
2025-10-19 17:00 5.55 14 3670 (2005) 0 (1965) 136 1 2 5 5 20 73 133 301 556
2025-10-19 16:30 5.53 13 3670 (2005) 0 (1965) 136 1 2 5 5 20 73 133 301 556
2025-10-19 16:00 5.58 15 3670 (2005) 0 (1965) 136 1 2 5 5 20 73 133 301 556
2025-10-19 15:30 5.55 14 3670 (2005) 0 (1965) 136 1 2 5 5 20 73 133 301 556
2025-10-19 15:00 5.52 12 3670 (2005) 0 (1965) 136 1 2 5 5 20 73 133 301 556
2025-10-19 14:30 5.55 14 3670 (2005) 0 (1965) 136 1 2 5 5 20 73 133 301 556
2025-10-19 14:00 5.55 14 3670 (2005) 0 (1965) 136 1 2 5 5 20 73 133 301 556
2025-10-19 13:30 5.56 14 3670 (2005) 0 (1965) 136 1 2 5 5 20 73 133 301 556
2025-10-19 13:00 5.55 14 3670 (2005) 0 (1965) 136 1 2 5 5 20 73 133 301 556
2025-10-19 12:30 5.55 14 3670 (2005) 0 (1965) 136 1 2 5 5 20 73 133 301 556
2025-10-19 12:00 5.56 14 3670 (2005) 0 (1965) 136 1 2 5 5 20 73 133 301 556
2025-10-19 11:30 5.55 14 3670 (2005) 0 (1965) 136 1 2 5 5 20 73 133 301 556
2025-10-19 11:00 5.57 15 3670 (2005) 0 (1965) 136 1 2 5 5 20 73 133 301 556
2025-10-19 10:30 5.55 14 3670 (2005) 0 (1965) 136 1 2 5 5 20 73 133 301 556
2025-10-19 10:00 5.55 14 3670 (2005) 0 (1965) 136 1 2 5 5 20 73 133 301 556
2025-10-19 09:30 5.62 18 3670 (2005) 0 (1965) 136 1 2 5 5 20 73 133 301 556
2025-10-19 09:00 5.57 15 3670 (2005) 0 (1965) 136 1 2 5 5 20 73 133 301 556
2025-10-19 08:30 5.59 16 3670 (2005) 0 (1965) 136 1 2 5 5 20 73 133 301 556
2025-10-19 08:00 5.55 14 3670 (2005) 0 (1965) 136 1 2 5 5 20 73 133 301 556
2025-10-19 07:30 5.62 18 3670 (2005) 0 (1965) 136 1 2 5 5 20 73 133 301 556
2025-10-19 07:00 5.61 17 3670 (2005) 0 (1965) 136 1 2 5 5 20 73 133 301 556
2025-10-19 06:30 5.59 16 3670 (2005) 0 (1965) 136 1 2 5 5 20 73 133 301 556
2025-10-19 06:00 5.60 16 3670 (2005) 0 (1965) 136 1 2 5 5 20 73 133 301 556
2025-10-19 05:30 5.59 16 3670 (2005) 0 (1965) 136 1 2 5 5 20 73 133 301 556
2025-10-19 05:00 5.60 16 3670 (2005) 0 (1965) 136 1 2 5 5 20 73 133 301 556
2025-10-19 04:30 5.57 15 3670 (2005) 0 (1965) 136 1 2 5 5 20 73 133 301 556
2025-10-19 04:00 5.59 16 3670 (2005) 0 (1965) 136 1 2 5 5 20 73 133 301 556
2025-10-19 03:30 5.59 16 3670 (2005) 0 (1965) 136 1 2 5 5 20 73 133 301 556
2025-10-19 03:00 5.60 16 3670 (2005) 0 (1965) 136 1 2 5 5 20 73 133 301 556
2025-10-19 02:30 18 3670 (2005) 0 (1965) 136 1 2 5 5 20 73 133 301 556
2025-10-19 02:00 5.59 16 3670 (2005) 0 (1965) 136 1 2 5 5 20 73 133 301 556
2025-10-19 01:30 16 3670 (2005) 0 (1965) 136 1 2 5 5 20 73 133 301 556
2025-10-19 01:00 5.63 18 3670 (2005) 0 (1965) 136 1 2 5 5 20 73 133 301 556
2025-10-19 00:30 5.58 15 3670 (2005) 0 (1965) 136 1 2 5 5 20 73 133 301 556
2025-10-19 00:00 5.57 15 3670 (2005) 0 (1965) 136 1 2 5 5 20 73 133 301 556
2025-10-18 23:30 5.63 18 3670 (2005) 0 (1965) 136 1 2 5 5 20 73 133 301 556
2025-10-18 23:00 5.60 16 3670 (2005) 0 (1965) 136 1 2 5 5 20 73 133 301 556
2025-10-18 22:30 5.57 15 8690 (1942) 0 (1965) 235 1 2 4 5 22 77 120 372 1210
2025-10-18 22:00 5.63 18 8690 (1942) 0 (1965) 235 1 2 4 5 22 77 120 372 1210
2025-10-18 21:30 5.63 18 8690 (1942) 0 (1965) 235 1 2 4 5 22 77 120 372 1210
2025-10-18 21:00 5.63 18 8690 (1942) 0 (1965) 235 1 2 4 5 22 77 120 372 1210
2025-10-18 20:30 5.63 18 8690 (1942) 0 (1965) 235 1 2 4 5 22 77 120 372 1210
2025-10-18 20:00 5.63 18 8690 (1942) 0 (1965) 235 1 2 4 5 22 77 120 372 1210
2025-10-18 19:30 5.62 18 8690 (1942) 0 (1965) 235 1 2 4 5 22 77 120 372 1210
2025-10-18 19:00 5.60 16 8690 (1942) 0 (1965) 235 1 2 4 5 22 77 120 372 1210
2025-10-18 18:30 5.59 16 8690 (1942) 0 (1965) 235 1 2 4 5 22 77 120 372 1210
2025-10-18 18:00 5.61 17 8690 (1942) 0 (1965) 235 1 2 4 5 22 77 120 372 1210
2025-10-18 17:30 5.56 14 8690 (1942) 0 (1965) 235 1 2 4 5 22 77 120 372 1210
2025-10-18 17:00 5.56 14 8690 (1942) 0 (1965) 235 1 2 4 5 22 77 120 372 1210
2025-10-18 16:30 5.56 14 8690 (1942) 0 (1965) 235 1 2 4 5 22 77 120 372 1210
2025-10-18 16:00 5.55 14 8690 (1942) 0 (1965) 235 1 2 4 5 22 77 120 372 1210
2025-10-18 15:30 5.46 9 8690 (1942) 0 (1965) 235 1 2 4 5 22 77 120 372 1210
2025-10-18 15:00 5.53 13 8690 (1942) 0 (1965) 235 1 2 4 5 22 77 120 372 1210
2025-10-18 14:30 5.54 13 8690 (1942) 0 (1965) 235 1 2 4 5 22 77 120 372 1210
2025-10-18 14:00 5.53 13 8690 (1942) 0 (1965) 235 1 2 4 5 22 77 120 372 1210
2025-10-18 13:30 5.54 13 8690 (1942) 0 (1965) 235 1 2 4 5 22 77 120 372 1210
2025-10-18 13:00 5.53 13 8690 (1942) 0 (1965) 235 1 2 4 5 22 77 120 372 1210
2025-10-18 12:30 5.53 13 8690 (1942) 0 (1965) 235 1 2 4 5 22 77 120 372 1210
2025-10-18 12:00 5.53 13 8690 (1942) 0 (1965) 235 1 2 4 5 22 77 120 372 1210
2025-10-18 11:30 5.53 13 8690 (1942) 0 (1965) 235 1 2 4 5 22 77 120 372 1210
2025-10-18 11:00 5.51 12 8690 (1942) 0 (1965) 235 1 2 4 5 22 77 120 372 1210
2025-10-18 10:30 5.52 12 8690 (1942) 0 (1965) 235 1 2 4 5 22 77 120 372 1210
2025-10-18 10:00 5.52 12 8690 (1942) 0 (1965) 235 1 2 4 5 22 77 120 372 1210
2025-10-18 09:30 5.52 12 8690 (1942) 0 (1965) 235 1 2 4 5 22 77 120 372 1210
2025-10-18 09:00 5.52 12 8690 (1942) 0 (1965) 235 1 2 4 5 22 77 120 372 1210
2025-10-18 08:30 5.53 13 8690 (1942) 0 (1965) 235 1 2 4 5 22 77 120 372 1210
2025-10-18 08:00 5.53 13 8690 (1942) 0 (1965) 235 1 2 4 5 22 77 120 372 1210
2025-10-18 07:30 5.53 13 8690 (1942) 0 (1965) 235 1 2 4 5 22 77 120 372 1210
2025-10-18 07:00 5.53 13 8690 (1942) 0 (1965) 235 1 2 4 5 22 77 120 372 1210
2025-10-18 06:30 5.53 13 8690 (1942) 0 (1965) 235 1 2 4 5 22 77 120 372 1210
2025-10-18 06:00 5.53 13 8690 (1942) 0 (1965) 235 1 2 4 5 22 77 120 372 1210
2025-10-18 05:30 5.53 13 8690 (1942) 0 (1965) 235 1 2 4 5 22 77 120 372 1210
2025-10-18 05:00 5.53 13 8690 (1942) 0 (1965) 235 1 2 4 5 22 77 120 372 1210
2025-10-18 04:30 5.53 13 8690 (1942) 0 (1965) 235 1 2 4 5 22 77 120 372 1210
2025-10-18 04:00 5.53 13 8690 (1942) 0 (1965) 235 1 2 4 5 22 77 120 372 1210
2025-10-18 03:30 5.53 13 8690 (1942) 0 (1965) 235 1 2 4 5 22 77 120 372 1210
2025-10-18 03:00 5.53 13 8690 (1942) 0 (1965) 235 1 2 4 5 22 77 120 372 1210
2025-10-18 02:30 5.53 13 8690 (1942) 0 (1965) 235 1 2 4 5 22 77 120 372 1210
2025-10-18 02:00 5.53 13 8690 (1942) 0 (1965) 235 1 2 4 5 22 77 120 372 1210
2025-10-18 01:30 5.53 13 8690 (1942) 0 (1965) 235 1 2 4 5 22 77 120 372 1210
2025-10-18 01:00 13 8690 (1942) 0 (1965) 235 1 2 4 5 22 77 120 372 1210
2025-10-18 00:30 5.53 13 8690 (1942) 0 (1965) 235 1 2 4 5 22 77 120 372 1210
2025-10-18 00:00 5.53 13 8690 (1942) 0 (1965) 235 1 2 4 5 22 77 120 372 1210
2025-10-17 23:30 13 8690 (1942) 0 (1965) 235 1 2 4 5 22 77 120 372 1210
2025-10-17 23:00 5.53 13 8690 (1942) 0 (1965) 235 1 2 4 5 22 77 120 372 1210
2025-10-17 22:30 5.53 13 3100 (1926) 0 (1965) 189 1 2 4 5 14 84 147 603 1040
2025-10-17 22:00 5.53 13 3100 (1926) 0 (1965) 189 1 2 4 5 14 84 147 603 1040
2025-10-17 21:30 5.53 13 3100 (1926) 0 (1965) 189 1 2 4 5 14 84 147 603 1040
2025-10-17 21:00 5.53 13 3100 (1926) 0 (1965) 189 1 2 4 5 14 84 147 603 1040
2025-10-17 20:30 5.53 13 3100 (1926) 0 (1965) 189 1 2 4 5 14 84 147 603 1040
2025-10-17 20:00 5.53 13 3100 (1926) 0 (1965) 189 1 2 4 5 14 84 147 603 1040
2025-10-17 19:30 5.53 13 3100 (1926) 0 (1965) 189 1 2 4 5 14 84 147 603 1040
2025-10-17 19:00 5.53 13 3100 (1926) 0 (1965) 189 1 2 4 5 14 84 147 603 1040
2025-10-17 18:30 5.53 13 3100 (1926) 0 (1965) 189 1 2 4 5 14 84 147 603 1040
2025-10-17 18:00 5.53 13 3100 (1926) 0 (1965) 189 1 2 4 5 14 84 147 603 1040
2025-10-17 17:30 5.53 13 3100 (1926) 0 (1965) 189 1 2 4 5 14 84 147 603 1040
2025-10-17 17:00 5.53 13 3100 (1926) 0 (1965) 189 1 2 4 5 14 84 147 603 1040
2025-10-17 16:30 5.53 13 3100 (1926) 0 (1965) 189 1 2 4 5 14 84 147 603 1040
2025-10-17 16:00 5.53 13 3100 (1926) 0 (1965) 189 1 2 4 5 14 84 147 603 1040
2025-10-17 15:30 5.53 13 3100 (1926) 0 (1965) 189 1 2 4 5 14 84 147 603 1040
2025-10-17 15:00 5.53 13 3100 (1926) 0 (1965) 189 1 2 4 5 14 84 147 603 1040
2025-10-17 14:30 5.49 11 3100 (1926) 0 (1965) 189 1 2 4 5 14 84 147 603 1040
2025-10-17 14:00 5.49 11 3100 (1926) 0 (1965) 189 1 2 4 5 14 84 147 603 1040
2025-10-17 13:30 5.53 13 3100 (1926) 0 (1965) 189 1 2 4 5 14 84 147 603 1040
2025-10-17 13:00 5.53 13 3100 (1926) 0 (1965) 189 1 2 4 5 14 84 147 603 1040
2025-10-17 12:30 5.53 13 3100 (1926) 0 (1965) 189 1 2 4 5 14 84 147 603 1040
2025-10-17 12:00 5.50 11 3100 (1926) 0 (1965) 189 1 2 4 5 14 84 147 603 1040
2025-10-17 11:30 5.53 13 3100 (1926) 0 (1965) 189 1 2 4 5 14 84 147 603 1040
2025-10-17 11:00 5.52 12 3100 (1926) 0 (1965) 189 1 2 4 5 14 84 147 603 1040
2025-10-17 10:30 5.52 12 3100 (1926) 0 (1965) 189 1 2 4 5 14 84 147 603 1040
2025-10-17 10:00 5.53 13 3100 (1926) 0 (1965) 189 1 2 4 5 14 84 147 603 1040
2025-10-17 09:30 5.53 13 3100 (1926) 0 (1965) 189 1 2 4 5 14 84 147 603 1040
2025-10-17 09:00 5.53 13 3100 (1926) 0 (1965) 189 1 2 4 5 14 84 147 603 1040
2025-10-17 08:30 5.53 13 3100 (1926) 0 (1965) 189 1 2 4 5 14 84 147 603 1040
2025-10-17 08:00 5.53 13 3100 (1926) 0 (1965) 189 1 2 4 5 14 84 147 603 1040
2025-10-17 07:30 5.53 13 3100 (1926) 0 (1965) 189 1 2 4 5 14 84 147 603 1040
2025-10-17 07:00 5.53 13 3100 (1926) 0 (1965) 189 1 2 4 5 14 84 147 603 1040
2025-10-17 06:30 5.53 13 3100 (1926) 0 (1965) 189 1 2 4 5 14 84 147 603 1040
2025-10-17 06:00 5.53 13 3100 (1926) 0 (1965) 189 1 2 4 5 14 84 147 603 1040
2025-10-17 05:30 5.53 13 3100 (1926) 0 (1965) 189 1 2 4 5 14 84 147 603 1040
2025-10-17 05:00 5.53 13 3100 (1926) 0 (1965) 189 1 2 4 5 14 84 147 603 1040
2025-10-17 04:30 5.52 12 3100 (1926) 0 (1965) 189 1 2 4 5 14 84 147 603 1040
2025-10-17 04:00 5.52 12 3100 (1926) 0 (1965) 189 1 2 4 5 14 84 147 603 1040
2025-10-17 03:30 5.52 12 3100 (1926) 0 (1965) 189 1 2 4 5 14 84 147 603 1040
2025-10-17 03:00 5.52 12 3100 (1926) 0 (1965) 189 1 2 4 5 14 84 147 603 1040
2025-10-17 02:30 5.52 12 3100 (1926) 0 (1965) 189 1 2 4 5 14 84 147 603 1040
2025-10-17 02:00 5.52 12 3100 (1926) 0 (1965) 189 1 2 4 5 14 84 147 603 1040
2025-10-17 01:30 5.52 12 3100 (1926) 0 (1965) 189 1 2 4 5 14 84 147 603 1040
2025-10-17 01:00 5.52 12 3100 (1926) 0 (1965) 189 1 2 4 5 14 84 147 603 1040
2025-10-17 00:30 5.52 12 3100 (1926) 0 (1965) 189 1 2 4 5 14 84 147 603 1040
2025-10-17 00:00 5.52 12 3100 (1926) 0 (1965) 189 1 2 4 5 14 84 147 603 1040
2025-10-16 23:30 5.52 12 3100 (1926) 0 (1965) 189 1 2 4 5 14 84 147 603 1040
2025-10-16 23:00 5.52 12 3100 (1926) 0 (1965) 189 1 2 4 5 14 84 147 603 1040
2025-10-16 22:30 5.52 12 5200 (1929) 0 (1965) 270 1 2 4 5 16 96 170 541 1780
2025-10-16 22:00 5.52 12 5200 (1929) 0 (1965) 270 1 2 4 5 16 96 170 541 1780
2025-10-16 21:30 5.52 12 5200 (1929) 0 (1965) 270 1 2 4 5 16 96 170 541 1780
2025-10-16 21:00 5.52 12 5200 (1929) 0 (1965) 270 1 2 4 5 16 96 170 541 1780
2025-10-16 20:30 5.52 12 5200 (1929) 0 (1965) 270 1 2 4 5 16 96 170 541 1780
2025-10-16 20:00 5.51 12 5200 (1929) 0 (1965) 270 1 2 4 5 16 96 170 541 1780
2025-10-16 19:30 5.52 12 5200 (1929) 0 (1965) 270 1 2 4 5 16 96 170 541 1780
2025-10-16 19:00 5.52 12 5200 (1929) 0 (1965) 270 1 2 4 5 16 96 170 541 1780
2025-10-16 18:30 5.52 12 5200 (1929) 0 (1965) 270 1 2 4 5 16 96 170 541 1780
2025-10-16 18:00 5.49 11 5200 (1929) 0 (1965) 270 1 2 4 5 16 96 170 541 1780
2025-10-16 17:30 5.44 9 5200 (1929) 0 (1965) 270 1 2 4 5 16 96 170 541 1780
2025-10-16 17:00 5.47 10 5200 (1929) 0 (1965) 270 1 2 4 5 16 96 170 541 1780
2025-10-16 16:30 5.46 9 5200 (1929) 0 (1965) 270 1 2 4 5 16 96 170 541 1780
2025-10-16 16:00 5.43 8 5200 (1929) 0 (1965) 270 1 2 4 5 16 96 170 541 1780
2025-10-16 15:30 5.45 9 5200 (1929) 0 (1965) 270 1 2 4 5 16 96 170 541 1780
2025-10-16 15:00 5.44 9 5200 (1929) 0 (1965) 270 1 2 4 5 16 96 170 541 1780
2025-10-16 14:30 5.46 9 5200 (1929) 0 (1965) 270 1 2 4 5 16 96 170 541 1780
2025-10-16 14:00 5.48 10 5200 (1929) 0 (1965) 270 1 2 4 5 16 96 170 541 1780
2025-10-16 13:30 5.46 9 5200 (1929) 0 (1965) 270 1 2 4 5 16 96 170 541 1780
2025-10-16 13:00 5.43 8 5200 (1929) 0 (1965) 270 1 2 4 5 16 96 170 541 1780
2025-10-16 12:30 5.51 12 5200 (1929) 0 (1965) 270 1 2 4 5 16 96 170 541 1780
2025-10-16 12:00 5.46 9 5200 (1929) 0 (1965) 270 1 2 4 5 16 96 170 541 1780
2025-10-16 11:30 5.51 12 5200 (1929) 0 (1965) 270 1 2 4 5 16 96 170 541 1780
2025-10-16 11:00 5.51 12 5200 (1929) 0 (1965) 270 1 2 4 5 16 96 170 541 1780
2025-10-16 10:30 5.51 12 5200 (1929) 0 (1965) 270 1 2 4 5 16 96 170 541 1780
2025-10-16 10:00 5.51 12 5200 (1929) 0 (1965) 270 1 2 4 5 16 96 170 541 1780
2025-10-16 09:30 5.51 12 5200 (1929) 0 (1965) 270 1 2 4 5 16 96 170 541 1780
2025-10-16 09:00 5.51 12 5200 (1929) 0 (1965) 270 1 2 4 5 16 96 170 541 1780
2025-10-16 08:30 5.51 12 5200 (1929) 0 (1965) 270 1 2 4 5 16 96 170 541 1780
2025-10-16 08:00 5.51 12 5200 (1929) 0 (1965) 270 1 2 4 5 16 96 170 541 1780
2025-10-16 07:30 5.52 12 5200 (1929) 0 (1965) 270 1 2 4 5 16 96 170 541 1780
2025-10-16 07:00 5.51 12 5200 (1929) 0 (1965) 270 1 2 4 5 16 96 170 541 1780
2025-10-16 06:30 5.52 12 5200 (1929) 0 (1965) 270 1 2 4 5 16 96 170 541 1780
2025-10-16 06:00 5.51 12 5200 (1929) 0 (1965) 270 1 2 4 5 16 96 170 541 1780
2025-10-16 05:30 5.51 12 5200 (1929) 0 (1965) 270 1 2 4 5 16 96 170 541 1780
2025-10-16 05:00 5.52 12 5200 (1929) 0 (1965) 270 1 2 4 5 16 96 170 541 1780
2025-10-16 04:30 5.52 12 5200 (1929) 0 (1965) 270 1 2 4 5 16 96 170 541 1780
2025-10-16 04:00 5.52 12 5200 (1929) 0 (1965) 270 1 2 4 5 16 96 170 541 1780
2025-10-16 03:30 5.52 12 5200 (1929) 0 (1965) 270 1 2 4 5 16 96 170 541 1780
2025-10-16 03:00 5.52 12 5200 (1929) 0 (1965) 270 1 2 4 5 16 96 170 541 1780
2025-10-16 02:30 5.52 12 5200 (1929) 0 (1965) 270 1 2 4 5 16 96 170 541 1780
2025-10-16 02:00 5.52 12 5200 (1929) 0 (1965) 270 1 2 4 5 16 96 170 541 1780
2025-10-16 01:30 5.52 12 5200 (1929) 0 (1965) 270 1 2 4 5 16 96 170 541 1780
2025-10-16 01:00 5.52 12 5200 (1929) 0 (1965) 270 1 2 4 5 16 96 170 541 1780
2025-10-16 00:30 5.52 12 5200 (1929) 0 (1965) 270 1 2 4 5 16 96 170 541 1780
2025-10-16 00:00 5.52 12 5200 (1929) 0 (1965) 270 1 2 4 5 16 96 170 541 1780
2025-10-15 23:30 5.52 12 5200 (1929) 0 (1965) 270 1 2 4 5 16 96 170 541 1780
2025-10-15 23:00 5.51 12 5200 (1929) 0 (1965) 270 1 2 4 5 16 96 170 541 1780
2025-10-15 22:30 5.52 12 8200 (1970) 0 (1965) 272 1 2 3 4 15 82 112 522 1040
2025-10-15 22:00 5.52 12 8200 (1970) 0 (1965) 272 1 2 3 4 15 82 112 522 1040
2025-10-15 21:30 5.52 12 8200 (1970) 0 (1965) 272 1 2 3 4 15 82 112 522 1040
2025-10-15 21:00 5.52 12 8200 (1970) 0 (1965) 272 1 2 3 4 15 82 112 522 1040
2025-10-15 20:30 5.52 12 8200 (1970) 0 (1965) 272 1 2 3 4 15 82 112 522 1040
2025-10-15 20:00 5.52 12 8200 (1970) 0 (1965) 272 1 2 3 4 15 82 112 522 1040
2025-10-15 19:30 5.52 12 8200 (1970) 0 (1965) 272 1 2 3 4 15 82 112 522 1040
2025-10-15 19:00 5.52 12 8200 (1970) 0 (1965) 272 1 2 3 4 15 82 112 522 1040
2025-10-15 18:30 5.52 12 8200 (1970) 0 (1965) 272 1 2 3 4 15 82 112 522 1040
2025-10-15 18:00 5.52 12 8200 (1970) 0 (1965) 272 1 2 3 4 15 82 112 522 1040
2025-10-15 17:30 5.52 12 8200 (1970) 0 (1965) 272 1 2 3 4 15 82 112 522 1040
2025-10-15 17:00 5.52 12 8200 (1970) 0 (1965) 272 1 2 3 4 15 82 112 522 1040
2025-10-15 16:30 5.52 12 8200 (1970) 0 (1965) 272 1 2 3 4 15 82 112 522 1040
2025-10-15 16:00 5.52 12 8200 (1970) 0 (1965) 272 1 2 3 4 15 82 112 522 1040
2025-10-15 15:30 5.52 12 8200 (1970) 0 (1965) 272 1 2 3 4 15 82 112 522 1040
2025-10-15 15:00 5.52 12 8200 (1970) 0 (1965) 272 1 2 3 4 15 82 112 522 1040
2025-10-15 14:30 5.52 12 8200 (1970) 0 (1965) 272 1 2 3 4 15 82 112 522 1040
2025-10-15 14:00 5.52 12 8200 (1970) 0 (1965) 272 1 2 3 4 15 82 112 522 1040
2025-10-15 13:30 5.52 12 8200 (1970) 0 (1965) 272 1 2 3 4 15 82 112 522 1040
2025-10-15 13:00 5.52 12 8200 (1970) 0 (1965) 272 1 2 3 4 15 82 112 522 1040
2025-10-15 12:30 5.52 12 8200 (1970) 0 (1965) 272 1 2 3 4 15 82 112 522 1040
2025-10-15 12:00 5.52 12 8200 (1970) 0 (1965) 272 1 2 3 4 15 82 112 522 1040
2025-10-15 11:30 5.52 12 8200 (1970) 0 (1965) 272 1 2 3 4 15 82 112 522 1040
2025-10-15 11:00 5.52 12 8200 (1970) 0 (1965) 272 1 2 3 4 15 82 112 522 1040
2025-10-15 10:30 5.52 12 8200 (1970) 0 (1965) 272 1 2 3 4 15 82 112 522 1040
2025-10-15 10:00 5.52 12 8200 (1970) 0 (1965) 272 1 2 3 4 15 82 112 522 1040
2025-10-15 09:30 5.52 12 8200 (1970) 0 (1965) 272 1 2 3 4 15 82 112 522 1040
2025-10-15 09:00 5.52 12 8200 (1970) 0 (1965) 272 1 2 3 4 15 82 112 522 1040
2025-10-15 08:30 5.52 12 8200 (1970) 0 (1965) 272 1 2 3 4 15 82 112 522 1040
2025-10-15 08:00 5.52 12 8200 (1970) 0 (1965) 272 1 2 3 4 15 82 112 522 1040
2025-10-15 07:30 5.52 12 8200 (1970) 0 (1965) 272 1 2 3 4 15 82 112 522 1040
2025-10-15 07:00 5.52 12 8200 (1970) 0 (1965) 272 1 2 3 4 15 82 112 522 1040
2025-10-15 06:30 5.52 12 8200 (1970) 0 (1965) 272 1 2 3 4 15 82 112 522 1040
2025-10-15 06:00 5.52 12 8200 (1970) 0 (1965) 272 1 2 3 4 15 82 112 522 1040
2025-10-15 05:30 5.52 12 8200 (1970) 0 (1965) 272 1 2 3 4 15 82 112 522 1040
2025-10-15 05:00 5.52 12 8200 (1970) 0 (1965) 272 1 2 3 4 15 82 112 522 1040
2025-10-15 04:30 5.53 13 8200 (1970) 0 (1965) 272 1 2 3 4 15 82 112 522 1040
2025-10-15 04:00 5.52 12 8200 (1970) 0 (1965) 272 1 2 3 4 15 82 112 522 1040
2025-10-15 03:30 5.53 13 8200 (1970) 0 (1965) 272 1 2 3 4 15 82 112 522 1040
2025-10-15 03:00 5.53 13 8200 (1970) 0 (1965) 272 1 2 3 4 15 82 112 522 1040
2025-10-15 02:30 5.53 13 8200 (1970) 0 (1965) 272 1 2 3 4 15 82 112 522 1040
2025-10-15 02:00 5.53 13 8200 (1970) 0 (1965) 272 1 2 3 4 15 82 112 522 1040
2025-10-15 01:30 5.53 13 8200 (1970) 0 (1965) 272 1 2 3 4 15 82 112 522 1040
2025-10-15 01:00 5.53 13 8200 (1970) 0 (1965) 272 1 2 3 4 15 82 112 522 1040
2025-10-15 00:30 5.53 13 8200 (1970) 0 (1965) 272 1 2 3 4 15 82 112 522 1040
2025-10-15 00:00 5.53 13 8200 (1970) 0 (1965) 272 1 2 3 4 15 82 112 522 1040
2025-10-14 23:30 5.53 13 8200 (1970) 0 (1965) 272 1 2 3 4 15 82 112 522 1040
2025-10-14 23:00 5.53 13 8200 (1970) 0 (1965) 272 1 2 3 4 15 82 112 522 1040
2025-10-14 22:30 5.53 13 22800 (1970) 0 (1965) 475 1 2 3 4 14 85 114 402 2490
2025-10-14 22:00 5.53 13 22800 (1970) 0 (1965) 475 1 2 3 4 14 85 114 402 2490
2025-10-14 21:30 5.53 13 22800 (1970) 0 (1965) 475 1 2 3 4 14 85 114 402 2490
2025-10-14 21:00 5.53 13 22800 (1970) 0 (1965) 475 1 2 3 4 14 85 114 402 2490
2025-10-14 20:30 5.53 13 22800 (1970) 0 (1965) 475 1 2 3 4 14 85 114 402 2490
2025-10-14 20:00 5.52 12 22800 (1970) 0 (1965) 475 1 2 3 4 14 85 114 402 2490
2025-10-14 19:30 5.53 13 22800 (1970) 0 (1965) 475 1 2 3 4 14 85 114 402 2490
2025-10-14 19:00 5.52 12 22800 (1970) 0 (1965) 475 1 2 3 4 14 85 114 402 2490
2025-10-14 18:30 5.52 12 22800 (1970) 0 (1965) 475 1 2 3 4 14 85 114 402 2490
2025-10-14 18:00 5.53 13 22800 (1970) 0 (1965) 475 1 2 3 4 14 85 114 402 2490
2025-10-14 17:30 5.52 12 22800 (1970) 0 (1965) 475 1 2 3 4 14 85 114 402 2490
2025-10-14 17:00 5.53 13 22800 (1970) 0 (1965) 475 1 2 3 4 14 85 114 402 2490
2025-10-14 16:30 5.53 13 22800 (1970) 0 (1965) 475 1 2 3 4 14 85 114 402 2490
2025-10-14 16:00 5.53 13 22800 (1970) 0 (1965) 475 1 2 3 4 14 85 114 402 2490
2025-10-14 15:30 5.52 12 22800 (1970) 0 (1965) 475 1 2 3 4 14 85 114 402 2490
2025-10-14 15:00 5.53 13 22800 (1970) 0 (1965) 475 1 2 3 4 14 85 114 402 2490
2025-10-14 14:30 5.53 13 22800 (1970) 0 (1965) 475 1 2 3 4 14 85 114 402 2490
2025-10-14 14:00 5.53 13 22800 (1970) 0 (1965) 475 1 2 3 4 14 85 114 402 2490
2025-10-14 13:30 5.52 12 22800 (1970) 0 (1965) 475 1 2 3 4 14 85 114 402 2490
2025-10-14 13:00 5.53 13 22800 (1970) 0 (1965) 475 1 2 3 4 14 85 114 402 2490
2025-10-14 12:30 5.53 13 22800 (1970) 0 (1965) 475 1 2 3 4 14 85 114 402 2490
2025-10-14 12:00 5.49 11 22800 (1970) 0 (1965) 475 1 2 3 4 14 85 114 402 2490
2025-10-14 11:30 5.49 11 22800 (1970) 0 (1965) 475 1 2 3 4 14 85 114 402 2490
2025-10-14 11:00 5.53 13 22800 (1970) 0 (1965) 475 1 2 3 4 14 85 114 402 2490
2025-10-14 10:30 5.50 11 22800 (1970) 0 (1965) 475 1 2 3 4 14 85 114 402 2490
2025-10-14 10:00 5.49 11 22800 (1970) 0 (1965) 475 1 2 3 4 14 85 114 402 2490
2025-10-14 09:30 5.54 13 22800 (1970) 0 (1965) 475 1 2 3 4 14 85 114 402 2490
2025-10-14 09:00 5.54 13 22800 (1970) 0 (1965) 475 1 2 3 4 14 85 114 402 2490
2025-10-14 08:30 5.54 13 22800 (1970) 0 (1965) 475 1 2 3 4 14 85 114 402 2490
2025-10-14 08:00 5.54 13 22800 (1970) 0 (1965) 475 1 2 3 4 14 85 114 402 2490
2025-10-14 07:30 5.54 13 22800 (1970) 0 (1965) 475 1 2 3 4 14 85 114 402 2490
2025-10-14 07:00 5.54 13 22800 (1970) 0 (1965) 475 1 2 3 4 14 85 114 402 2490
2025-10-14 06:30 5.54 13 22800 (1970) 0 (1965) 475 1 2 3 4 14 85 114 402 2490
2025-10-14 06:00 5.54 13 22800 (1970) 0 (1965) 475 1 2 3 4 14 85 114 402 2490
2025-10-14 05:30 5.54 13 22800 (1970) 0 (1965) 475 1 2 3 4 14 85 114 402 2490
2025-10-14 05:00 5.54 13 22800 (1970) 0 (1965) 475 1 2 3 4 14 85 114 402 2490
2025-10-14 04:30 5.54 13 22800 (1970) 0 (1965) 475 1 2 3 4 14 85 114 402 2490
2025-10-14 04:00 5.54 13 22800 (1970) 0 (1965) 475 1 2 3 4 14 85 114 402 2490
2025-10-14 03:30 5.54 13 22800 (1970) 0 (1965) 475 1 2 3 4 14 85 114 402 2490
2025-10-14 03:00 5.53 13 22800 (1970) 0 (1965) 475 1 2 3 4 14 85 114 402 2490
2025-10-14 02:30 5.53 13 22800 (1970) 0 (1965) 475 1 2 3 4 14 85 114 402 2490
2025-10-14 02:00 5.53 13 22800 (1970) 0 (1965) 475 1 2 3 4 14 85 114 402 2490
2025-10-14 01:30 5.53 13 22800 (1970) 0 (1965) 475 1 2 3 4 14 85 114 402 2490
2025-10-14 01:00 5.53 13 22800 (1970) 0 (1965) 475 1 2 3 4 14 85 114 402 2490
2025-10-14 00:30 5.53 13 22800 (1970) 0 (1965) 475 1 2 3 4 14 85 114 402 2490
2025-10-14 00:00 5.53 13 22800 (1970) 0 (1965) 475 1 2 3 4 14 85 114 402 2490
2025-10-13 23:30 5.53 13 22800 (1970) 0 (1965) 475 1 2 3 4 14 85 114 402 2490
2025-10-13 23:00 5.53 13 22800 (1970) 0 (1965) 475 1 2 3 4 14 85 114 402 2490
2025-10-13 22:30 5.53 13 59500 (1970) 0 (1965) 772 1 2 3 4 14 87 129 342 898
2025-10-13 22:00 5.53 13 59500 (1970) 0 (1965) 772 1 2 3 4 14 87 129 342 898
2025-10-13 21:30 5.53 13 59500 (1970) 0 (1965) 772 1 2 3 4 14 87 129 342 898
2025-10-13 21:00 5.53 13 59500 (1970) 0 (1965) 772 1 2 3 4 14 87 129 342 898
2025-10-13 20:30 5.53 13 59500 (1970) 0 (1965) 772 1 2 3 4 14 87 129 342 898
2025-10-13 20:00 5.53 13 59500 (1970) 0 (1965) 772 1 2 3 4 14 87 129 342 898
2025-10-13 19:30 5.53 13 59500 (1970) 0 (1965) 772 1 2 3 4 14 87 129 342 898
2025-10-13 19:00 5.53 13 59500 (1970) 0 (1965) 772 1 2 3 4 14 87 129 342 898
2025-10-13 18:30 5.53 13 59500 (1970) 0 (1965) 772 1 2 3 4 14 87 129 342 898
2025-10-13 18:00 5.53 13 59500 (1970) 0 (1965) 772 1 2 3 4 14 87 129 342 898
2025-10-13 17:30 5.53 13 59500 (1970) 0 (1965) 772 1 2 3 4 14 87 129 342 898
2025-10-13 17:00 5.53 13 59500 (1970) 0 (1965) 772 1 2 3 4 14 87 129 342 898
2025-10-13 16:30 5.53 13 59500 (1970) 0 (1965) 772 1 2 3 4 14 87 129 342 898
2025-10-13 16:00 5.53 13 59500 (1970) 0 (1965) 772 1 2 3 4 14 87 129 342 898
2025-10-13 15:30 5.53 13 59500 (1970) 0 (1965) 772 1 2 3 4 14 87 129 342 898
2025-10-13 15:00 5.53 13 59500 (1970) 0 (1965) 772 1 2 3 4 14 87 129 342 898
2025-10-13 14:30 5.53 13 59500 (1970) 0 (1965) 772 1 2 3 4 14 87 129 342 898
2025-10-13 14:00 5.53 13 59500 (1970) 0 (1965) 772 1 2 3 4 14 87 129 342 898
2025-10-13 13:30 5.53 13 59500 (1970) 0 (1965) 772 1 2 3 4 14 87 129 342 898
2025-10-13 13:00 5.53 13 59500 (1970) 0 (1965) 772 1 2 3 4 14 87 129 342 898
2025-10-13 12:30 5.53 13 59500 (1970) 0 (1965) 772 1 2 3 4 14 87 129 342 898
2025-10-13 12:00 5.53 13 59500 (1970) 0 (1965) 772 1 2 3 4 14 87 129 342 898
2025-10-13 11:30 5.54 13 59500 (1970) 0 (1965) 772 1 2 3 4 14 87 129 342 898
2025-10-13 11:00 5.52 12 59500 (1970) 0 (1965) 772 1 2 3 4 14 87 129 342 898
2025-10-13 10:30 5.53 13 59500 (1970) 0 (1965) 772 1 2 3 4 14 87 129 342 898
2025-10-13 10:00 5.54 13 59500 (1970) 0 (1965) 772 1 2 3 4 14 87 129 342 898
2025-10-13 09:30 5.54 13 59500 (1970) 0 (1965) 772 1 2 3 4 14 87 129 342 898
2025-10-13 09:00 5.54 13 59500 (1970) 0 (1965) 772 1 2 3 4 14 87 129 342 898
2025-10-13 08:30 5.54 13 59500 (1970) 0 (1965) 772 1 2 3 4 14 87 129 342 898
2025-10-13 08:00 5.54 13 59500 (1970) 0 (1965) 772 1 2 3 4 14 87 129 342 898
2025-10-13 07:30 5.54 13 59500 (1970) 0 (1965) 772 1 2 3 4 14 87 129 342 898
2025-10-13 07:00 5.54 13 59500 (1970) 0 (1965) 772 1 2 3 4 14 87 129 342 898
2025-10-13 06:30 5.54 13 59500 (1970) 0 (1965) 772 1 2 3 4 14 87 129 342 898
2025-10-13 06:00 5.54 13 59500 (1970) 0 (1965) 772 1 2 3 4 14 87 129 342 898
2025-10-13 05:30 5.54 13 59500 (1970) 0 (1965) 772 1 2 3 4 14 87 129 342 898
2025-10-13 05:00 5.54 13 59500 (1970) 0 (1965) 772 1 2 3 4 14 87 129 342 898
2025-10-13 04:30 5.54 13 59500 (1970) 0 (1965) 772 1 2 3 4 14 87 129 342 898
2025-10-13 04:00 5.54 13 59500 (1970) 0 (1965) 772 1 2 3 4 14 87 129 342 898
2025-10-13 03:30 5.54 13 59500 (1970) 0 (1965) 772 1 2 3 4 14 87 129 342 898
2025-10-13 03:00 5.54 13 59500 (1970) 0 (1965) 772 1 2 3 4 14 87 129 342 898
2025-10-13 02:30 13 59500 (1970) 0 (1965) 772 1 2 3 4 14 87 129 342 898
2025-10-13 02:00 5.54 13 59500 (1970) 0 (1965) 772 1 2 3 4 14 87 129 342 898
2025-10-13 01:30 5.54 13 59500 (1970) 0 (1965) 772 1 2 3 4 14 87 129 342 898
2025-10-13 01:00 5.54 13 59500 (1970) 0 (1965) 772 1 2 3 4 14 87 129 342 898
2025-10-13 00:30 5.53 13 59500 (1970) 0 (1965) 772 1 2 3 4 14 87 129 342 898
2025-10-13 00:00 5.53 13 59500 (1970) 0 (1965) 772 1 2 3 4 14 87 129 342 898
2025-10-12 23:30 5.53 13 59500 (1970) 0 (1965) 772 1 2 3 4 14 87 129 342 898
2025-10-12 23:00 5.53 13 59500 (1970) 0 (1965) 772 1 2 3 4 14 87 129 342 898
2025-10-12 22:30 5.53 13 44800 (1970) 0 (1965) 669 1 2 3 4 16 97 129 421 1030
2025-10-12 22:00 5.53 13 44800 (1970) 0 (1965) 669 1 2 3 4 16 97 129 421 1030
2025-10-12 21:30 5.53 13 44800 (1970) 0 (1965) 669 1 2 3 4 16 97 129 421 1030
2025-10-12 21:00 5.53 13 44800 (1970) 0 (1965) 669 1 2 3 4 16 97 129 421 1030
2025-10-12 20:30 5.53 13 44800 (1970) 0 (1965) 669 1 2 3 4 16 97 129 421 1030
2025-10-12 20:00 5.53 13 44800 (1970) 0 (1965) 669 1 2 3 4 16 97 129 421 1030
2025-10-12 19:30 5.53 13 44800 (1970) 0 (1965) 669 1 2 3 4 16 97 129 421 1030
2025-10-12 19:00 5.53 13 44800 (1970) 0 (1965) 669 1 2 3 4 16 97 129 421 1030
2025-10-12 18:30 5.53 13 44800 (1970) 0 (1965) 669 1 2 3 4 16 97 129 421 1030
2025-10-12 18:00 5.53 13 44800 (1970) 0 (1965) 669 1 2 3 4 16 97 129 421 1030
2025-10-12 17:30 5.52 12 44800 (1970) 0 (1965) 669 1 2 3 4 16 97 129 421 1030
2025-10-12 17:00 5.52 12 44800 (1970) 0 (1965) 669 1 2 3 4 16 97 129 421 1030
2025-10-12 16:30 5.49 11 44800 (1970) 0 (1965) 669 1 2 3 4 16 97 129 421 1030
2025-10-12 16:00 5.51 12 44800 (1970) 0 (1965) 669 1 2 3 4 16 97 129 421 1030
2025-10-12 15:30 5.51 12 44800 (1970) 0 (1965) 669 1 2 3 4 16 97 129 421 1030
2025-10-12 15:00 5.53 13 44800 (1970) 0 (1965) 669 1 2 3 4 16 97 129 421 1030
2025-10-12 14:30 5.45 9 44800 (1970) 0 (1965) 669 1 2 3 4 16 97 129 421 1030
2025-10-12 14:00 5.54 13 44800 (1970) 0 (1965) 669 1 2 3 4 16 97 129 421 1030
2025-10-12 13:30 5.52 12 44800 (1970) 0 (1965) 669 1 2 3 4 16 97 129 421 1030
2025-10-12 13:00 5.54 13 44800 (1970) 0 (1965) 669 1 2 3 4 16 97 129 421 1030
2025-10-12 12:30 5.47 10 44800 (1970) 0 (1965) 669 1 2 3 4 16 97 129 421 1030
2025-10-12 12:00 5.53 13 44800 (1970) 0 (1965) 669 1 2 3 4 16 97 129 421 1030
2025-10-12 11:30 5.53 13 44800 (1970) 0 (1965) 669 1 2 3 4 16 97 129 421 1030
2025-10-12 11:00 5.54 13 44800 (1970) 0 (1965) 669 1 2 3 4 16 97 129 421 1030
2025-10-12 10:30 5.54 13 44800 (1970) 0 (1965) 669 1 2 3 4 16 97 129 421 1030
2025-10-12 10:00 5.51 12 44800 (1970) 0 (1965) 669 1 2 3 4 16 97 129 421 1030
2025-10-12 09:30 5.54 13 44800 (1970) 0 (1965) 669 1 2 3 4 16 97 129 421 1030
2025-10-12 09:00 5.53 13 44800 (1970) 0 (1965) 669 1 2 3 4 16 97 129 421 1030
2025-10-12 08:30 5.54 13 44800 (1970) 0 (1965) 669 1 2 3 4 16 97 129 421 1030
2025-10-12 08:00 5.54 13 44800 (1970) 0 (1965) 669 1 2 3 4 16 97 129 421 1030
2025-10-12 07:30 5.54 13 44800 (1970) 0 (1965) 669 1 2 3 4 16 97 129 421 1030
2025-10-12 07:00 5.54 13 44800 (1970) 0 (1965) 669 1 2 3 4 16 97 129 421 1030
2025-10-12 06:30 5.55 14 44800 (1970) 0 (1965) 669 1 2 3 4 16 97 129 421 1030
2025-10-12 06:00 5.54 13 44800 (1970) 0 (1965) 669 1 2 3 4 16 97 129 421 1030
2025-10-12 05:30 5.54 13 44800 (1970) 0 (1965) 669 1 2 3 4 16 97 129 421 1030
2025-10-12 05:00 5.54 13 44800 (1970) 0 (1965) 669 1 2 3 4 16 97 129 421 1030
2025-10-12 04:30 5.54 13 44800 (1970) 0 (1965) 669 1 2 3 4 16 97 129 421 1030
2025-10-12 04:00 5.54 13 44800 (1970) 0 (1965) 669 1 2 3 4 16 97 129 421 1030
2025-10-12 03:30 5.54 13 44800 (1970) 0 (1965) 669 1 2 3 4 16 97 129 421 1030
2025-10-12 03:00 5.54 13 44800 (1970) 0 (1965) 669 1 2 3 4 16 97 129 421 1030
2025-10-12 02:30 5.54 13 44800 (1970) 0 (1965) 669 1 2 3 4 16 97 129 421 1030
2025-10-12 02:00 5.54 13 44800 (1970) 0 (1965) 669 1 2 3 4 16 97 129 421 1030
2025-10-12 01:30 5.54 13 44800 (1970) 0 (1965) 669 1 2 3 4 16 97 129 421 1030
2025-10-12 01:00 13 44800 (1970) 0 (1965) 669 1 2 3 4 16 97 129 421 1030
2025-10-12 00:30 5.54 13 44800 (1970) 0 (1965) 669 1 2 3 4 16 97 129 421 1030
2025-10-12 00:00 13 44800 (1970) 0 (1965) 669 1 2 3 4 16 97 129 421 1030
2025-10-11 23:30 13 44800 (1970) 0 (1965) 669 1 2 3 4 16 97 129 421 1030
2025-10-11 23:00 5.53 13 44800 (1970) 0 (1965) 669 1 2 3 4 16 97 129 421 1030
2025-10-11 22:30 5.53 13 16600 (1960) 0 (1965) 445 1 2 3 5 18 120 141 628 1840
2025-10-11 22:00 5.53 13 16600 (1960) 0 (1965) 445 1 2 3 5 18 120 141 628 1840
2025-10-11 21:30 5.53 13 16600 (1960) 0 (1965) 445 1 2 3 5 18 120 141 628 1840
2025-10-11 21:00 5.53 13 16600 (1960) 0 (1965) 445 1 2 3 5 18 120 141 628 1840
2025-10-11 20:30 5.53 13 16600 (1960) 0 (1965) 445 1 2 3 5 18 120 141 628 1840
2025-10-11 20:00 5.53 13 16600 (1960) 0 (1965) 445 1 2 3 5 18 120 141 628 1840
2025-10-11 19:30 5.53 13 16600 (1960) 0 (1965) 445 1 2 3 5 18 120 141 628 1840
2025-10-11 19:00 5.53 13 16600 (1960) 0 (1965) 445 1 2 3 5 18 120 141 628 1840
2025-10-11 18:30 5.53 13 16600 (1960) 0 (1965) 445 1 2 3 5 18 120 141 628 1840
2025-10-11 18:00 5.53 13 16600 (1960) 0 (1965) 445 1 2 3 5 18 120 141 628 1840
2025-10-11 17:30 5.53 13 16600 (1960) 0 (1965) 445 1 2 3 5 18 120 141 628 1840
2025-10-11 17:00 5.51 12 16600 (1960) 0 (1965) 445 1 2 3 5 18 120 141 628 1840
2025-10-11 16:30 5.53 13 16600 (1960) 0 (1965) 445 1 2 3 5 18 120 141 628 1840
2025-10-11 16:00 5.53 13 16600 (1960) 0 (1965) 445 1 2 3 5 18 120 141 628 1840
2025-10-11 15:30 5.53 13 16600 (1960) 0 (1965) 445 1 2 3 5 18 120 141 628 1840
2025-10-11 15:00 5.53 13 16600 (1960) 0 (1965) 445 1 2 3 5 18 120 141 628 1840
2025-10-11 14:30 5.53 13 16600 (1960) 0 (1965) 445 1 2 3 5 18 120 141 628 1840
2025-10-11 14:00 5.53 13 16600 (1960) 0 (1965) 445 1 2 3 5 18 120 141 628 1840
2025-10-11 13:30 5.51 12 16600 (1960) 0 (1965) 445 1 2 3 5 18 120 141 628 1840
2025-10-11 13:00 5.49 11 16600 (1960) 0 (1965) 445 1 2 3 5 18 120 141 628 1840
2025-10-11 12:30 5.48 10 16600 (1960) 0 (1965) 445 1 2 3 5 18 120 141 628 1840
2025-10-11 12:00 5.51 12 16600 (1960) 0 (1965) 445 1 2 3 5 18 120 141 628 1840
2025-10-11 11:30 5.50 11 16600 (1960) 0 (1965) 445 1 2 3 5 18 120 141 628 1840
2025-10-11 11:00 5.53 13 16600 (1960) 0 (1965) 445 1 2 3 5 18 120 141 628 1840
2025-10-11 10:30 5.54 13 16600 (1960) 0 (1965) 445 1 2 3 5 18 120 141 628 1840
2025-10-11 10:00 5.54 13 16600 (1960) 0 (1965) 445 1 2 3 5 18 120 141 628 1840
2025-10-11 09:30 5.54 13 16600 (1960) 0 (1965) 445 1 2 3 5 18 120 141 628 1840
2025-10-11 09:00 5.54 13 16600 (1960) 0 (1965) 445 1 2 3 5 18 120 141 628 1840
2025-10-11 08:30 5.54 13 16600 (1960) 0 (1965) 445 1 2 3 5 18 120 141 628 1840
2025-10-11 08:00 5.54 13 16600 (1960) 0 (1965) 445 1 2 3 5 18 120 141 628 1840
2025-10-11 07:30 5.54 13 16600 (1960) 0 (1965) 445 1 2 3 5 18 120 141 628 1840
2025-10-11 07:00 5.55 14 16600 (1960) 0 (1965) 445 1 2 3 5 18 120 141 628 1840
2025-10-11 06:30 5.55 14 16600 (1960) 0 (1965) 445 1 2 3 5 18 120 141 628 1840
2025-10-11 06:00 5.55 14 16600 (1960) 0 (1965) 445 1 2 3 5 18 120 141 628 1840
2025-10-11 05:30 5.55 14 16600 (1960) 0 (1965) 445 1 2 3 5 18 120 141 628 1840
2025-10-11 05:00 5.55 14 16600 (1960) 0 (1965) 445 1 2 3 5 18 120 141 628 1840
2025-10-11 04:30 5.55 14 16600 (1960) 0 (1965) 445 1 2 3 5 18 120 141 628 1840
2025-10-11 04:00 5.55 14 16600 (1960) 0 (1965) 445 1 2 3 5 18 120 141 628 1840
2025-10-11 03:30 5.55 14 16600 (1960) 0 (1965) 445 1 2 3 5 18 120 141 628 1840
2025-10-11 03:00 5.55 14 16600 (1960) 0 (1965) 445 1 2 3 5 18 120 141 628 1840
2025-10-11 02:30 5.55 14 16600 (1960) 0 (1965) 445 1 2 3 5 18 120 141 628 1840
2025-10-11 02:00 14 16600 (1960) 0 (1965) 445 1 2 3 5 18 120 141 628 1840
2025-10-11 01:30 5.55 14 16600 (1960) 0 (1965) 445 1 2 3 5 18 120 141 628 1840
2025-10-11 01:00 14 16600 (1960) 0 (1965) 445 1 2 3 5 18 120 141 628 1840
2025-10-11 00:30 5.55 14 16600 (1960) 0 (1965) 445 1 2 3 5 18 120 141 628 1840
2025-10-11 00:00 5.55 14 16600 (1960) 0 (1965) 445 1 2 3 5 18 120 141 628 1840
2025-10-10 23:30 14 16600 (1960) 0 (1965) 445 1 2 3 5 18 120 141 628 1840
2025-10-10 23:00 5.55 14 16600 (1960) 0 (1965) 445 1 2 3 5 18 120 141 628 1840
2025-10-10 22:30 5.55 14 15400 (2010) 0 (1965) 372 1 2 3 5 18 129 185 510 2170
2025-10-10 22:00 5.55 14 15400 (2010) 0 (1965) 372 1 2 3 5 18 129 185 510 2170
2025-10-10 21:30 5.55 14 15400 (2010) 0 (1965) 372 1 2 3 5 18 129 185 510 2170
2025-10-10 21:00 5.55 14 15400 (2010) 0 (1965) 372 1 2 3 5 18 129 185 510 2170
2025-10-10 20:30 5.55 14 15400 (2010) 0 (1965) 372 1 2 3 5 18 129 185 510 2170
2025-10-10 20:00 5.55 14 15400 (2010) 0 (1965) 372 1 2 3 5 18 129 185 510 2170
2025-10-10 19:30 5.55 14 15400 (2010) 0 (1965) 372 1 2 3 5 18 129 185 510 2170
2025-10-10 19:00 5.55 14 15400 (2010) 0 (1965) 372 1 2 3 5 18 129 185 510 2170
2025-10-10 18:30 5.55 14 15400 (2010) 0 (1965) 372 1 2 3 5 18 129 185 510 2170
2025-10-10 18:00 5.55 14 15400 (2010) 0 (1965) 372 1 2 3 5 18 129 185 510 2170
2025-10-10 17:30 5.55 14 15400 (2010) 0 (1965) 372 1 2 3 5 18 129 185 510 2170
2025-10-10 17:00 5.54 13 15400 (2010) 0 (1965) 372 1 2 3 5 18 129 185 510 2170
2025-10-10 16:30 5.54 13 15400 (2010) 0 (1965) 372 1 2 3 5 18 129 185 510 2170
2025-10-10 16:00 5.54 13 15400 (2010) 0 (1965) 372 1 2 3 5 18 129 185 510 2170
2025-10-10 15:30 5.54 13 15400 (2010) 0 (1965) 372 1 2 3 5 18 129 185 510 2170
2025-10-10 15:00 5.54 13 15400 (2010) 0 (1965) 372 1 2 3 5 18 129 185 510 2170
2025-10-10 14:30 5.50 11 15400 (2010) 0 (1965) 372 1 2 3 5 18 129 185 510 2170
2025-10-10 14:00 5.50 11 15400 (2010) 0 (1965) 372 1 2 3 5 18 129 185 510 2170
2025-10-10 13:30 5.54 13 15400 (2010) 0 (1965) 372 1 2 3 5 18 129 185 510 2170
2025-10-10 13:00 5.53 13 15400 (2010) 0 (1965) 372 1 2 3 5 18 129 185 510 2170
2025-10-10 12:30 5.54 13 15400 (2010) 0 (1965) 372 1 2 3 5 18 129 185 510 2170
2025-10-10 12:00 5.48 10 15400 (2010) 0 (1965) 372 1 2 3 5 18 129 185 510 2170
2025-10-10 11:30 5.49 11 15400 (2010) 0 (1965) 372 1 2 3 5 18 129 185 510 2170
2025-10-10 11:00 5.50 11 15400 (2010) 0 (1965) 372 1 2 3 5 18 129 185 510 2170
2025-10-10 10:30 5.53 13 15400 (2010) 0 (1965) 372 1 2 3 5 18 129 185 510 2170
2025-10-10 10:00 5.53 13 15400 (2010) 0 (1965) 372 1 2 3 5 18 129 185 510 2170
2025-10-10 09:30 5.48 10 15400 (2010) 0 (1965) 372 1 2 3 5 18 129 185 510 2170
2025-10-10 09:00 5.50 11 15400 (2010) 0 (1965) 372 1 2 3 5 18 129 185 510 2170
2025-10-10 08:30 5.52 12 15400 (2010) 0 (1965) 372 1 2 3 5 18 129 185 510 2170
2025-10-10 08:00 5.51 12 15400 (2010) 0 (1965) 372 1 2 3 5 18 129 185 510 2170
2025-10-10 07:30 5.50 11 15400 (2010) 0 (1965) 372 1 2 3 5 18 129 185 510 2170
2025-10-10 07:00 5.52 12 15400 (2010) 0 (1965) 372 1 2 3 5 18 129 185 510 2170
2025-10-10 06:30 5.52 12 15400 (2010) 0 (1965) 372 1 2 3 5 18 129 185 510 2170
2025-10-10 06:00 5.52 12 15400 (2010) 0 (1965) 372 1 2 3 5 18 129 185 510 2170
2025-10-10 05:30 5.52 12 15400 (2010) 0 (1965) 372 1 2 3 5 18 129 185 510 2170
2025-10-10 05:00 5.52 12 15400 (2010) 0 (1965) 372 1 2 3 5 18 129 185 510 2170
2025-10-10 04:30 5.52 12 15400 (2010) 0 (1965) 372 1 2 3 5 18 129 185 510 2170
2025-10-10 04:00 5.52 12 15400 (2010) 0 (1965) 372 1 2 3 5 18 129 185 510 2170
2025-10-10 03:30 5.52 12 15400 (2010) 0 (1965) 372 1 2 3 5 18 129 185 510 2170
2025-10-10 03:00 5.52 12 15400 (2010) 0 (1965) 372 1 2 3 5 18 129 185 510 2170
2025-10-10 02:30 5.52 12 15400 (2010) 0 (1965) 372 1 2 3 5 18 129 185 510 2170
2025-10-10 02:00 5.52 12 15400 (2010) 0 (1965) 372 1 2 3 5 18 129 185 510 2170
2025-10-10 01:30 5.52 12 15400 (2010) 0 (1965) 372 1 2 3 5 18 129 185 510 2170
2025-10-10 01:00 5.52 12 15400 (2010) 0 (1965) 372 1 2 3 5 18 129 185 510 2170
2025-10-10 00:30 5.52 12 15400 (2010) 0 (1965) 372 1 2 3 5 18 129 185 510 2170
2025-10-10 00:00 5.52 12 15400 (2010) 0 (1965) 372 1 2 3 5 18 129 185 510 2170
2025-10-09 23:30 5.52 12 15400 (2010) 0 (1965) 372 1 2 3 5 18 129 185 510 2170
2025-10-09 23:00 5.52 12 15400 (2010) 0 (1965) 372 1 2 3 5 18 129 185 510 2170
2025-10-09 22:30 5.52 12 31900 (2010) 0 (1965) 555 1 2 3 4 16 142 238 451 865
2025-10-09 22:00 5.52 12 31900 (2010) 0 (1965) 555 1 2 3 4 16 142 238 451 865
2025-10-09 21:30 5.52 12 31900 (2010) 0 (1965) 555 1 2 3 4 16 142 238 451 865
2025-10-09 21:00 5.52 12 31900 (2010) 0 (1965) 555 1 2 3 4 16 142 238 451 865
2025-10-09 20:30 5.52 12 31900 (2010) 0 (1965) 555 1 2 3 4 16 142 238 451 865
2025-10-09 20:00 5.52 12 31900 (2010) 0 (1965) 555 1 2 3 4 16 142 238 451 865
2025-10-09 19:30 5.52 12 31900 (2010) 0 (1965) 555 1 2 3 4 16 142 238 451 865
2025-10-09 19:00 5.52 12 31900 (2010) 0 (1965) 555 1 2 3 4 16 142 238 451 865
2025-10-09 18:30 5.52 12 31900 (2010) 0 (1965) 555 1 2 3 4 16 142 238 451 865
2025-10-09 18:00 5.52 12 31900 (2010) 0 (1965) 555 1 2 3 4 16 142 238 451 865
2025-10-09 17:30 5.52 12 31900 (2010) 0 (1965) 555 1 2 3 4 16 142 238 451 865
2025-10-09 17:00 5.47 10 31900 (2010) 0 (1965) 555 1 2 3 4 16 142 238 451 865
2025-10-09 16:30 5.52 12 31900 (2010) 0 (1965) 555 1 2 3 4 16 142 238 451 865
2025-10-09 16:00 5.47 10 31900 (2010) 0 (1965) 555 1 2 3 4 16 142 238 451 865
2025-10-09 15:30 5.47 10 31900 (2010) 0 (1965) 555 1 2 3 4 16 142 238 451 865
2025-10-09 15:00 5.52 12 31900 (2010) 0 (1965) 555 1 2 3 4 16 142 238 451 865
2025-10-09 14:30 5.50 11 31900 (2010) 0 (1965) 555 1 2 3 4 16 142 238 451 865
2025-10-09 14:00 5.52 12 31900 (2010) 0 (1965) 555 1 2 3 4 16 142 238 451 865
2025-10-09 13:30 5.47 10 31900 (2010) 0 (1965) 555 1 2 3 4 16 142 238 451 865
2025-10-09 13:00 5.52 12 31900 (2010) 0 (1965) 555 1 2 3 4 16 142 238 451 865
2025-10-09 12:30 5.51 12 31900 (2010) 0 (1965) 555 1 2 3 4 16 142 238 451 865
2025-10-09 12:00 5.50 11 31900 (2010) 0 (1965) 555 1 2 3 4 16 142 238 451 865
2025-10-09 11:30 5.52 12 31900 (2010) 0 (1965) 555 1 2 3 4 16 142 238 451 865
2025-10-09 11:00 5.46 9 31900 (2010) 0 (1965) 555 1 2 3 4 16 142 238 451 865
2025-10-09 10:30 5.52 12 31900 (2010) 0 (1965) 555 1 2 3 4 16 142 238 451 865
2025-10-09 10:00 5.52 12 31900 (2010) 0 (1965) 555 1 2 3 4 16 142 238 451 865
2025-10-09 09:30 5.52 12 31900 (2010) 0 (1965) 555 1 2 3 4 16 142 238 451 865
2025-10-09 09:00 5.52 12 31900 (2010) 0 (1965) 555 1 2 3 4 16 142 238 451 865
2025-10-09 08:30 5.52 12 31900 (2010) 0 (1965) 555 1 2 3 4 16 142 238 451 865
2025-10-09 08:00 5.53 13 31900 (2010) 0 (1965) 555 1 2 3 4 16 142 238 451 865
2025-10-09 07:30 5.53 13 31900 (2010) 0 (1965) 555 1 2 3 4 16 142 238 451 865
2025-10-09 07:00 5.53 13 31900 (2010) 0 (1965) 555 1 2 3 4 16 142 238 451 865
2025-10-09 06:30 5.52 12 31900 (2010) 0 (1965) 555 1 2 3 4 16 142 238 451 865
2025-10-09 06:00 5.53 13 31900 (2010) 0 (1965) 555 1 2 3 4 16 142 238 451 865
2025-10-09 05:30 5.53 13 31900 (2010) 0 (1965) 555 1 2 3 4 16 142 238 451 865
2025-10-09 05:00 5.52 12 31900 (2010) 0 (1965) 555 1 2 3 4 16 142 238 451 865
2025-10-09 04:30 5.52 12 31900 (2010) 0 (1965) 555 1 2 3 4 16 142 238 451 865
2025-10-09 04:00 5.53 13 31900 (2010) 0 (1965) 555 1 2 3 4 16 142 238 451 865
2025-10-09 03:30 5.52 12 31900 (2010) 0 (1965) 555 1 2 3 4 16 142 238 451 865
2025-10-09 03:00 5.52 12 31900 (2010) 0 (1965) 555 1 2 3 4 16 142 238 451 865
2025-10-09 02:30 5.52 12 31900 (2010) 0 (1965) 555 1 2 3 4 16 142 238 451 865
2025-10-09 02:00 5.52 12 31900 (2010) 0 (1965) 555 1 2 3 4 16 142 238 451 865
2025-10-09 01:30 12 31900 (2010) 0 (1965) 555 1 2 3 4 16 142 238 451 865
2025-10-09 01:00 5.52 12 31900 (2010) 0 (1965) 555 1 2 3 4 16 142 238 451 865
2025-10-09 00:30 5.52 12 31900 (2010) 0 (1965) 555 1 2 3 4 16 142 238 451 865
2025-10-09 00:00 5.52 12 31900 (2010) 0 (1965) 555 1 2 3 4 16 142 238 451 865
2025-10-08 23:30 5.52 12 31900 (2010) 0 (1965) 555 1 2 3 4 16 142 238 451 865
2025-10-08 23:00 5.52 12 31900 (2010) 0 (1965) 555 1 2 3 4 16 142 238 451 865
2025-10-08 22:30 5.52 12 10100 (1929) 0 (1965) 417 1 2 3 4 15 155 219 910 1550
2025-10-08 22:00 5.52 12 10100 (1929) 0 (1965) 417 1 2 3 4 15 155 219 910 1550
2025-10-08 21:30 5.52 12 10100 (1929) 0 (1965) 417 1 2 3 4 15 155 219 910 1550
2025-10-08 21:00 5.52 12 10100 (1929) 0 (1965) 417 1 2 3 4 15 155 219 910 1550
2025-10-08 20:30 5.52 12 10100 (1929) 0 (1965) 417 1 2 3 4 15 155 219 910 1550
2025-10-08 20:00 5.52 12 10100 (1929) 0 (1965) 417 1 2 3 4 15 155 219 910 1550
2025-10-08 19:30 5.52 12 10100 (1929) 0 (1965) 417 1 2 3 4 15 155 219 910 1550
2025-10-08 19:00 5.52 12 10100 (1929) 0 (1965) 417 1 2 3 4 15 155 219 910 1550
2025-10-08 18:30 5.52 12 10100 (1929) 0 (1965) 417 1 2 3 4 15 155 219 910 1550
2025-10-08 18:00 5.52 12 10100 (1929) 0 (1965) 417 1 2 3 4 15 155 219 910 1550
2025-10-08 17:30 5.47 10 10100 (1929) 0 (1965) 417 1 2 3 4 15 155 219 910 1550
2025-10-08 17:00 5.47 10 10100 (1929) 0 (1965) 417 1 2 3 4 15 155 219 910 1550
2025-10-08 16:30 5.45 9 10100 (1929) 0 (1965) 417 1 2 3 4 15 155 219 910 1550
2025-10-08 16:00 5.51 12 10100 (1929) 0 (1965) 417 1 2 3 4 15 155 219 910 1550
2025-10-08 15:30 5.44 9 10100 (1929) 0 (1965) 417 1 2 3 4 15 155 219 910 1550
2025-10-08 15:00 5.46 9 10100 (1929) 0 (1965) 417 1 2 3 4 15 155 219 910 1550
2025-10-08 14:30 5.51 12 10100 (1929) 0 (1965) 417 1 2 3 4 15 155 219 910 1550
2025-10-08 14:00 5.51 12 10100 (1929) 0 (1965) 417 1 2 3 4 15 155 219 910 1550
2025-10-08 13:30 5.51 12 10100 (1929) 0 (1965) 417 1 2 3 4 15 155 219 910 1550
2025-10-08 13:00 5.45 9 10100 (1929) 0 (1965) 417 1 2 3 4 15 155 219 910 1550
2025-10-08 12:30 5.46 9 10100 (1929) 0 (1965) 417 1 2 3 4 15 155 219 910 1550
2025-10-08 12:00 5.49 11 10100 (1929) 0 (1965) 417 1 2 3 4 15 155 219 910 1550
2025-10-08 11:30 5.46 9 10100 (1929) 0 (1965) 417 1 2 3 4 15 155 219 910 1550
2025-10-08 11:00 5.47 10 10100 (1929) 0 (1965) 417 1 2 3 4 15 155 219 910 1550
2025-10-08 10:30 5.52 12 10100 (1929) 0 (1965) 417 1 2 3 4 15 155 219 910 1550
2025-10-08 10:00 5.52 12 10100 (1929) 0 (1965) 417 1 2 3 4 15 155 219 910 1550
2025-10-08 09:30 5.52 12 10100 (1929) 0 (1965) 417 1 2 3 4 15 155 219 910 1550
2025-10-08 09:00 5.50 11 10100 (1929) 0 (1965) 417 1 2 3 4 15 155 219 910 1550
2025-10-08 08:30 5.52 12 10100 (1929) 0 (1965) 417 1 2 3 4 15 155 219 910 1550
2025-10-08 08:00 5.53 13 10100 (1929) 0 (1965) 417 1 2 3 4 15 155 219 910 1550
2025-10-08 07:30 5.53 13 10100 (1929) 0 (1965) 417 1 2 3 4 15 155 219 910 1550
2025-10-08 07:00 5.53 13 10100 (1929) 0 (1965) 417 1 2 3 4 15 155 219 910 1550
2025-10-08 06:30 5.53 13 10100 (1929) 0 (1965) 417 1 2 3 4 15 155 219 910 1550
2025-10-08 06:00 5.53 13 10100 (1929) 0 (1965) 417 1 2 3 4 15 155 219 910 1550
2025-10-08 05:30 5.53 13 10100 (1929) 0 (1965) 417 1 2 3 4 15 155 219 910 1550
2025-10-08 05:00 5.53 13 10100 (1929) 0 (1965) 417 1 2 3 4 15 155 219 910 1550
2025-10-08 04:30 5.53 13 10100 (1929) 0 (1965) 417 1 2 3 4 15 155 219 910 1550
2025-10-08 04:00 5.53 13 10100 (1929) 0 (1965) 417 1 2 3 4 15 155 219 910 1550
2025-10-08 03:30 5.53 13 10100 (1929) 0 (1965) 417 1 2 3 4 15 155 219 910 1550
2025-10-08 03:00 5.53 13 10100 (1929) 0 (1965) 417 1 2 3 4 15 155 219 910 1550
2025-10-08 02:30 5.53 13 10100 (1929) 0 (1965) 417 1 2 3 4 15 155 219 910 1550
2025-10-08 02:00 5.53 13 10100 (1929) 0 (1965) 417 1 2 3 4 15 155 219 910 1550
2025-10-08 01:30 5.53 13 10100 (1929) 0 (1965) 417 1 2 3 4 15 155 219 910 1550
2025-10-08 01:00 5.53 13 10100 (1929) 0 (1965) 417 1 2 3 4 15 155 219 910 1550
2025-10-08 00:30 5.53 13 10100 (1929) 0 (1965) 417 1 2 3 4 15 155 219 910 1550
2025-10-08 00:00 5.53 13 10100 (1929) 0 (1965) 417 1 2 3 4 15 155 219 910 1550
2025-10-07 23:30 5.53 13 10100 (1929) 0 (1965) 417 1 2 3 4 15 155 219 910 1550
2025-10-07 23:00 5.53 13 10100 (1929) 0 (1965) 417 1 2 3 4 15 155 219 910 1550
2025-10-07 22:30 5.53 13 5810 (1956) 0 (1965) 341 1 2 4 4 14 80 186 560 3240
2025-10-07 22:00 5.53 13 5810 (1956) 0 (1965) 341 1 2 4 4 14 80 186 560 3240
2025-10-07 21:30 5.53 13 5810 (1956) 0 (1965) 341 1 2 4 4 14 80 186 560 3240
2025-10-07 21:00 5.53 13 5810 (1956) 0 (1965) 341 1 2 4 4 14 80 186 560 3240
2025-10-07 20:30 5.53 13 5810 (1956) 0 (1965) 341 1 2 4 4 14 80 186 560 3240
2025-10-07 20:00 5.53 13 5810 (1956) 0 (1965) 341 1 2 4 4 14 80 186 560 3240
2025-10-07 19:30 5.53 13 5810 (1956) 0 (1965) 341 1 2 4 4 14 80 186 560 3240
2025-10-07 19:00 5.53 13 5810 (1956) 0 (1965) 341 1 2 4 4 14 80 186 560 3240
2025-10-07 18:30 5.53 13 5810 (1956) 0 (1965) 341 1 2 4 4 14 80 186 560 3240
2025-10-07 18:00 5.53 13 5810 (1956) 0 (1965) 341 1 2 4 4 14 80 186 560 3240
2025-10-07 17:30 5.50 11 5810 (1956) 0 (1965) 341 1 2 4 4 14 80 186 560 3240
2025-10-07 17:00 5.53 13 5810 (1956) 0 (1965) 341 1 2 4 4 14 80 186 560 3240
2025-10-07 16:30 5.53 13 5810 (1956) 0 (1965) 341 1 2 4 4 14 80 186 560 3240
2025-10-07 16:00 5.51 12 5810 (1956) 0 (1965) 341 1 2 4 4 14 80 186 560 3240
2025-10-07 15:30 5.53 13 5810 (1956) 0 (1965) 341 1 2 4 4 14 80 186 560 3240
2025-10-07 15:00 5.50 11 5810 (1956) 0 (1965) 341 1 2 4 4 14 80 186 560 3240
2025-10-07 14:30 5.53 13 5810 (1956) 0 (1965) 341 1 2 4 4 14 80 186 560 3240
2025-10-07 14:00 5.53 13 5810 (1956) 0 (1965) 341 1 2 4 4 14 80 186 560 3240
2025-10-07 13:30 5.50 11 5810 (1956) 0 (1965) 341 1 2 4 4 14 80 186 560 3240
2025-10-07 13:00 5.54 13 5810 (1956) 0 (1965) 341 1 2 4 4 14 80 186 560 3240
2025-10-07 12:30 5.54 13 5810 (1956) 0 (1965) 341 1 2 4 4 14 80 186 560 3240
2025-10-07 12:00 5.54 13 5810 (1956) 0 (1965) 341 1 2 4 4 14 80 186 560 3240
2025-10-07 11:30 5.53 13 5810 (1956) 0 (1965) 341 1 2 4 4 14 80 186 560 3240
2025-10-07 11:00 5.54 13 5810 (1956) 0 (1965) 341 1 2 4 4 14 80 186 560 3240
2025-10-07 10:30 5.54 13 5810 (1956) 0 (1965) 341 1 2 4 4 14 80 186 560 3240
2025-10-07 10:00 5.53 13 5810 (1956) 0 (1965) 341 1 2 4 4 14 80 186 560 3240
2025-10-07 09:30 5.55 14 5810 (1956) 0 (1965) 341 1 2 4 4 14 80 186 560 3240
2025-10-07 09:00 5.53 13 5810 (1956) 0 (1965) 341 1 2 4 4 14 80 186 560 3240
2025-10-07 08:30 5.55 14 5810 (1956) 0 (1965) 341 1 2 4 4 14 80 186 560 3240
2025-10-07 08:00 5.54 13 5810 (1956) 0 (1965) 341 1 2 4 4 14 80 186 560 3240
2025-10-07 07:30 5.54 13 5810 (1956) 0 (1965) 341 1 2 4 4 14 80 186 560 3240
2025-10-07 07:00 5.55 14 5810 (1956) 0 (1965) 341 1 2 4 4 14 80 186 560 3240
2025-10-07 06:30 5.54 13 5810 (1956) 0 (1965) 341 1 2 4 4 14 80 186 560 3240
2025-10-07 06:00 5.54 13 5810 (1956) 0 (1965) 341 1 2 4 4 14 80 186 560 3240
2025-10-07 05:30 5.55 14 5810 (1956) 0 (1965) 341 1 2 4 4 14 80 186 560 3240
2025-10-07 05:00 5.55 14 5810 (1956) 0 (1965) 341 1 2 4 4 14 80 186 560 3240
2025-10-07 04:30 5.54 13 5810 (1956) 0 (1965) 341 1 2 4 4 14 80 186 560 3240
2025-10-07 04:00 5.54 13 5810 (1956) 0 (1965) 341 1 2 4 4 14 80 186 560 3240
2025-10-07 03:30 5.54 13 5810 (1956) 0 (1965) 341 1 2 4 4 14 80 186 560 3240
2025-10-07 03:00 5.55 14 5810 (1956) 0 (1965) 341 1 2 4 4 14 80 186 560 3240
2025-10-07 02:30 5.55 14 5810 (1956) 0 (1965) 341 1 2 4 4 14 80 186 560 3240
2025-10-07 02:00 5.55 14 5810 (1956) 0 (1965) 341 1 2 4 4 14 80 186 560 3240
2025-10-07 01:30 5.55 14 5810 (1956) 0 (1965) 341 1 2 4 4 14 80 186 560 3240
2025-10-07 01:00 5.55 14 5810 (1956) 0 (1965) 341 1 2 4 4 14 80 186 560 3240
2025-10-07 00:30 5.55 14 5810 (1956) 0 (1965) 341 1 2 4 4 14 80 186 560 3240
2025-10-07 00:00 5.55 14 5810 (1956) 0 (1965) 341 1 2 4 4 14 80 186 560 3240
2025-10-06 23:30 5.55 14 5810 (1956) 0 (1965) 341 1 2 4 4 14 80 186 560 3240
2025-10-06 23:00 5.55 14 5810 (1956) 0 (1965) 341 1 2 4 4 14 80 186 560 3240
2025-10-06 22:30 5.55 14 23400 (1942) 0 (1965) 602 1 2 4 4 13 97 160 913 3990
2025-10-06 22:00 5.55 14 23400 (1942) 0 (1965) 602 1 2 4 4 13 97 160 913 3990
2025-10-06 21:30 5.55 14 23400 (1942) 0 (1965) 602 1 2 4 4 13 97 160 913 3990
2025-10-06 21:00 5.55 14 23400 (1942) 0 (1965) 602 1 2 4 4 13 97 160 913 3990
2025-10-06 20:30 5.55 14 23400 (1942) 0 (1965) 602 1 2 4 4 13 97 160 913 3990
2025-10-06 20:00 5.55 14 23400 (1942) 0 (1965) 602 1 2 4 4 13 97 160 913 3990
2025-10-06 19:30 5.55 14 23400 (1942) 0 (1965) 602 1 2 4 4 13 97 160 913 3990
2025-10-06 19:00 5.54 13 23400 (1942) 0 (1965) 602 1 2 4 4 13 97 160 913 3990
2025-10-06 18:30 5.54 13 23400 (1942) 0 (1965) 602 1 2 4 4 13 97 160 913 3990
2025-10-06 18:00 5.55 14 23400 (1942) 0 (1965) 602 1 2 4 4 13 97 160 913 3990
2025-10-06 17:30 5.55 14 23400 (1942) 0 (1965) 602 1 2 4 4 13 97 160 913 3990
2025-10-06 17:00 5.54 13 23400 (1942) 0 (1965) 602 1 2 4 4 13 97 160 913 3990
2025-10-06 16:30 5.53 13 23400 (1942) 0 (1965) 602 1 2 4 4 13 97 160 913 3990
2025-10-06 16:00 5.49 11 23400 (1942) 0 (1965) 602 1 2 4 4 13 97 160 913 3990
2025-10-06 15:30 5.48 10 23400 (1942) 0 (1965) 602 1 2 4 4 13 97 160 913 3990
2025-10-06 15:00 5.55 14 23400 (1942) 0 (1965) 602 1 2 4 4 13 97 160 913 3990
2025-10-06 14:30 5.55 14 23400 (1942) 0 (1965) 602 1 2 4 4 13 97 160 913 3990
2025-10-06 14:00 5.55 14 23400 (1942) 0 (1965) 602 1 2 4 4 13 97 160 913 3990
2025-10-06 13:30 5.55 14 23400 (1942) 0 (1965) 602 1 2 4 4 13 97 160 913 3990
2025-10-06 13:00 5.55 14 23400 (1942) 0 (1965) 602 1 2 4 4 13 97 160 913 3990
2025-10-06 12:30 5.56 14 23400 (1942) 0 (1965) 602 1 2 4 4 13 97 160 913 3990
2025-10-06 12:00 5.51 12 23400 (1942) 0 (1965) 602 1 2 4 4 13 97 160 913 3990
2025-10-06 11:30 5.55 14 23400 (1942) 0 (1965) 602 1 2 4 4 13 97 160 913 3990
2025-10-06 11:00 5.56 14 23400 (1942) 0 (1965) 602 1 2 4 4 13 97 160 913 3990
2025-10-06 10:30 5.56 14 23400 (1942) 0 (1965) 602 1 2 4 4 13 97 160 913 3990
2025-10-06 10:00 5.55 14 23400 (1942) 0 (1965) 602 1 2 4 4 13 97 160 913 3990
2025-10-06 09:30 5.56 14 23400 (1942) 0 (1965) 602 1 2 4 4 13 97 160 913 3990
2025-10-06 09:00 5.56 14 23400 (1942) 0 (1965) 602 1 2 4 4 13 97 160 913 3990
2025-10-06 08:30 5.56 14 23400 (1942) 0 (1965) 602 1 2 4 4 13 97 160 913 3990
2025-10-06 08:00 5.56 14 23400 (1942) 0 (1965) 602 1 2 4 4 13 97 160 913 3990
2025-10-06 07:30 5.56 14 23400 (1942) 0 (1965) 602 1 2 4 4 13 97 160 913 3990
2025-10-06 07:00 5.56 14 23400 (1942) 0 (1965) 602 1 2 4 4 13 97 160 913 3990
2025-10-06 06:30 5.56 14 23400 (1942) 0 (1965) 602 1 2 4 4 13 97 160 913 3990
2025-10-06 06:00 5.56 14 23400 (1942) 0 (1965) 602 1 2 4 4 13 97 160 913 3990
2025-10-06 05:30 5.56 14 23400 (1942) 0 (1965) 602 1 2 4 4 13 97 160 913 3990
2025-10-06 05:00 5.56 14 23400 (1942) 0 (1965) 602 1 2 4 4 13 97 160 913 3990
2025-10-06 04:30 5.56 14 23400 (1942) 0 (1965) 602 1 2 4 4 13 97 160 913 3990
2025-10-06 04:00 5.56 14 23400 (1942) 0 (1965) 602 1 2 4 4 13 97 160 913 3990
2025-10-06 03:30 5.56 14 23400 (1942) 0 (1965) 602 1 2 4 4 13 97 160 913 3990
2025-10-06 03:00 5.56 14 23400 (1942) 0 (1965) 602 1 2 4 4 13 97 160 913 3990
2025-10-06 02:30 5.56 14 23400 (1942) 0 (1965) 602 1 2 4 4 13 97 160 913 3990
2025-10-06 02:00 5.56 14 23400 (1942) 0 (1965) 602 1 2 4 4 13 97 160 913 3990
2025-10-06 01:30 5.56 14 23400 (1942) 0 (1965) 602 1 2 4 4 13 97 160 913 3990
2025-10-06 01:00 5.56 14 23400 (1942) 0 (1965) 602 1 2 4 4 13 97 160 913 3990
2025-10-06 00:30 5.57 15 23400 (1942) 0 (1965) 602 1 2 4 4 13 97 160 913 3990
2025-10-06 00:00 5.57 15 23400 (1942) 0 (1965) 602 1 2 4 4 13 97 160 913 3990
2025-10-05 23:30 5.56 14 23400 (1942) 0 (1965) 602 1 2 4 4 13 97 160 913 3990
2025-10-05 23:00 5.56 14 23400 (1942) 0 (1965) 602 1 2 4 4 13 97 160 913 3990
2025-10-05 22:30 5.57 15 76400 (1942) 0 (1965) 1060 1 2 4 4 13 78 113 876 2150
2025-10-05 22:00 5.57 15 76400 (1942) 0 (1965) 1060 1 2 4 4 13 78 113 876 2150
2025-10-05 21:30 5.56 14 76400 (1942) 0 (1965) 1060 1 2 4 4 13 78 113 876 2150
2025-10-05 21:00 5.56 14 76400 (1942) 0 (1965) 1060 1 2 4 4 13 78 113 876 2150
2025-10-05 20:30 5.56 14 76400 (1942) 0 (1965) 1060 1 2 4 4 13 78 113 876 2150
2025-10-05 20:00 15 76400 (1942) 0 (1965) 1060 1 2 4 4 13 78 113 876 2150
2025-10-05 19:30 5.56 14 76400 (1942) 0 (1965) 1060 1 2 4 4 13 78 113 876 2150
2025-10-05 19:00 5.56 14 76400 (1942) 0 (1965) 1060 1 2 4 4 13 78 113 876 2150
2025-10-05 18:30 5.56 14 76400 (1942) 0 (1965) 1060 1 2 4 4 13 78 113 876 2150
2025-10-05 18:00 5.56 14 76400 (1942) 0 (1965) 1060 1 2 4 4 13 78 113 876 2150
2025-10-05 17:30 5.53 13 76400 (1942) 0 (1965) 1060 1 2 4 4 13 78 113 876 2150
2025-10-05 17:00 5.55 14 76400 (1942) 0 (1965) 1060 1 2 4 4 13 78 113 876 2150
2025-10-05 16:30 5.56 14 76400 (1942) 0 (1965) 1060 1 2 4 4 13 78 113 876 2150
2025-10-05 16:00 5.56 14 76400 (1942) 0 (1965) 1060 1 2 4 4 13 78 113 876 2150
2025-10-05 15:30 5.54 13 76400 (1942) 0 (1965) 1060 1 2 4 4 13 78 113 876 2150
2025-10-05 15:00 5.56 14 76400 (1942) 0 (1965) 1060 1 2 4 4 13 78 113 876 2150
2025-10-05 14:30 5.51 12 76400 (1942) 0 (1965) 1060 1 2 4 4 13 78 113 876 2150
2025-10-05 14:00 5.54 13 76400 (1942) 0 (1965) 1060 1 2 4 4 13 78 113 876 2150
2025-10-05 13:30 5.56 14 76400 (1942) 0 (1965) 1060 1 2 4 4 13 78 113 876 2150
2025-10-05 13:00 5.57 15 76400 (1942) 0 (1965) 1060 1 2 4 4 13 78 113 876 2150
2025-10-05 12:30 5.57 15 76400 (1942) 0 (1965) 1060 1 2 4 4 13 78 113 876 2150
2025-10-05 12:00 5.57 15 76400 (1942) 0 (1965) 1060 1 2 4 4 13 78 113 876 2150
2025-10-05 11:30 5.52 12 76400 (1942) 0 (1965) 1060 1 2 4 4 13 78 113 876 2150
2025-10-05 11:00 5.57 15 76400 (1942) 0 (1965) 1060 1 2 4 4 13 78 113 876 2150
2025-10-05 10:30 5.56 14 76400 (1942) 0 (1965) 1060 1 2 4 4 13 78 113 876 2150
2025-10-05 10:00 5.57 15 76400 (1942) 0 (1965) 1060 1 2 4 4 13 78 113 876 2150
2025-10-05 09:30 5.57 15 76400 (1942) 0 (1965) 1060 1 2 4 4 13 78 113 876 2150
2025-10-05 09:00 5.57 15 76400 (1942) 0 (1965) 1060 1 2 4 4 13 78 113 876 2150
2025-10-05 08:30 5.57 15 76400 (1942) 0 (1965) 1060 1 2 4 4 13 78 113 876 2150
2025-10-05 08:00 5.58 15 76400 (1942) 0 (1965) 1060 1 2 4 4 13 78 113 876 2150
2025-10-05 07:30 5.58 15 76400 (1942) 0 (1965) 1060 1 2 4 4 13 78 113 876 2150
2025-10-05 07:00 5.58 15 76400 (1942) 0 (1965) 1060 1 2 4 4 13 78 113 876 2150
2025-10-05 06:30 5.58 15 76400 (1942) 0 (1965) 1060 1 2 4 4 13 78 113 876 2150
2025-10-05 06:00 5.58 15 76400 (1942) 0 (1965) 1060 1 2 4 4 13 78 113 876 2150
2025-10-05 05:30 5.58 15 76400 (1942) 0 (1965) 1060 1 2 4 4 13 78 113 876 2150
2025-10-05 05:00 5.58 15 76400 (1942) 0 (1965) 1060 1 2 4 4 13 78 113 876 2150
2025-10-05 04:30 5.58 15 76400 (1942) 0 (1965) 1060 1 2 4 4 13 78 113 876 2150
2025-10-05 04:00 5.57 15 76400 (1942) 0 (1965) 1060 1 2 4 4 13 78 113 876 2150
2025-10-05 03:30 5.58 15 76400 (1942) 0 (1965) 1060 1 2 4 4 13 78 113 876 2150
2025-10-05 03:00 5.57 15 76400 (1942) 0 (1965) 1060 1 2 4 4 13 78 113 876 2150
2025-10-05 02:30 5.57 15 76400 (1942) 0 (1965) 1060 1 2 4 4 13 78 113 876 2150
2025-10-05 02:00 5.57 15 76400 (1942) 0 (1965) 1060 1 2 4 4 13 78 113 876 2150
2025-10-05 01:30 5.57 15 76400 (1942) 0 (1965) 1060 1 2 4 4 13 78 113 876 2150
2025-10-05 01:00 5.57 15 76400 (1942) 0 (1965) 1060 1 2 4 4 13 78 113 876 2150
2025-10-05 00:30 5.57 15 76400 (1942) 0 (1965) 1060 1 2 4 4 13 78 113 876 2150
2025-10-05 00:00 5.57 15 76400 (1942) 0 (1965) 1060 1 2 4 4 13 78 113 876 2150
2025-10-04 23:30 5.57 15 76400 (1942) 0 (1965) 1060 1 2 4 4 13 78 113 876 2150
2025-10-04 23:00 5.57 15 76400 (1942) 0 (1965) 1060 1 2 4 4 13 78 113 876 2150
2025-10-04 22:30 5.57 15 13500 (1927) 0 (1965) 610 2 2 4 5 14 60 103 806 5960
2025-10-04 22:00 5.57 15 13500 (1927) 0 (1965) 610 2 2 4 5 14 60 103 806 5960
2025-10-04 21:30 5.57 15 13500 (1927) 0 (1965) 610 2 2 4 5 14 60 103 806 5960
2025-10-04 21:00 5.57 15 13500 (1927) 0 (1965) 610 2 2 4 5 14 60 103 806 5960
2025-10-04 20:30 5.57 15 13500 (1927) 0 (1965) 610 2 2 4 5 14 60 103 806 5960
2025-10-04 20:00 5.57 15 13500 (1927) 0 (1965) 610 2 2 4 5 14 60 103 806 5960
2025-10-04 19:30 5.57 15 13500 (1927) 0 (1965) 610 2 2 4 5 14 60 103 806 5960
2025-10-04 19:00 5.57 15 13500 (1927) 0 (1965) 610 2 2 4 5 14 60 103 806 5960
2025-10-04 18:30 5.57 15 13500 (1927) 0 (1965) 610 2 2 4 5 14 60 103 806 5960
2025-10-04 18:00 5.57 15 13500 (1927) 0 (1965) 610 2 2 4 5 14 60 103 806 5960
2025-10-04 17:30 5.56 14 13500 (1927) 0 (1965) 610 2 2 4 5 14 60 103 806 5960
2025-10-04 17:00 5.54 13 13500 (1927) 0 (1965) 610 2 2 4 5 14 60 103 806 5960
2025-10-04 16:30 5.55 14 13500 (1927) 0 (1965) 610 2 2 4 5 14 60 103 806 5960
2025-10-04 16:00 5.55 14 13500 (1927) 0 (1965) 610 2 2 4 5 14 60 103 806 5960
2025-10-04 15:30 5.50 11 13500 (1927) 0 (1965) 610 2 2 4 5 14 60 103 806 5960
2025-10-04 15:00 5.50 11 13500 (1927) 0 (1965) 610 2 2 4 5 14 60 103 806 5960
2025-10-04 14:30 5.57 15 13500 (1927) 0 (1965) 610 2 2 4 5 14 60 103 806 5960
2025-10-04 14:00 5.57 15 13500 (1927) 0 (1965) 610 2 2 4 5 14 60 103 806 5960
2025-10-04 13:30 5.57 15 13500 (1927) 0 (1965) 610 2 2 4 5 14 60 103 806 5960
2025-10-04 13:00 5.56 14 13500 (1927) 0 (1965) 610 2 2 4 5 14 60 103 806 5960
2025-10-04 12:30 5.53 13 13500 (1927) 0 (1965) 610 2 2 4 5 14 60 103 806 5960
2025-10-04 12:00 5.57 15 13500 (1927) 0 (1965) 610 2 2 4 5 14 60 103 806 5960
2025-10-04 11:30 5.55 14 13500 (1927) 0 (1965) 610 2 2 4 5 14 60 103 806 5960
2025-10-04 11:00 5.57 15 13500 (1927) 0 (1965) 610 2 2 4 5 14 60 103 806 5960
2025-10-04 10:30 5.57 15 13500 (1927) 0 (1965) 610 2 2 4 5 14 60 103 806 5960
2025-10-04 10:00 5.57 15 13500 (1927) 0 (1965) 610 2 2 4 5 14 60 103 806 5960
2025-10-04 09:30 5.57 15 13500 (1927) 0 (1965) 610 2 2 4 5 14 60 103 806 5960
2025-10-04 09:00 5.57 15 13500 (1927) 0 (1965) 610 2 2 4 5 14 60 103 806 5960
2025-10-04 08:30 5.57 15 13500 (1927) 0 (1965) 610 2 2 4 5 14 60 103 806 5960
2025-10-04 08:00 5.57 15 13500 (1927) 0 (1965) 610 2 2 4 5 14 60 103 806 5960
2025-10-04 07:30 5.57 15 13500 (1927) 0 (1965) 610 2 2 4 5 14 60 103 806 5960
2025-10-04 07:00 5.57 15 13500 (1927) 0 (1965) 610 2 2 4 5 14 60 103 806 5960
2025-10-04 06:30 5.58 15 13500 (1927) 0 (1965) 610 2 2 4 5 14 60 103 806 5960
2025-10-04 06:00 5.58 15 13500 (1927) 0 (1965) 610 2 2 4 5 14 60 103 806 5960
2025-10-04 05:30 5.58 15 13500 (1927) 0 (1965) 610 2 2 4 5 14 60 103 806 5960
2025-10-04 05:00 5.58 15 13500 (1927) 0 (1965) 610 2 2 4 5 14 60 103 806 5960
2025-10-04 04:30 5.58 15 13500 (1927) 0 (1965) 610 2 2 4 5 14 60 103 806 5960
2025-10-04 04:00 5.58 15 13500 (1927) 0 (1965) 610 2 2 4 5 14 60 103 806 5960
2025-10-04 03:30 5.58 15 13500 (1927) 0 (1965) 610 2 2 4 5 14 60 103 806 5960
2025-10-04 03:00 5.57 15 13500 (1927) 0 (1965) 610 2 2 4 5 14 60 103 806 5960
2025-10-04 02:30 5.58 15 13500 (1927) 0 (1965) 610 2 2 4 5 14 60 103 806 5960
2025-10-04 02:00 5.58 15 13500 (1927) 0 (1965) 610 2 2 4 5 14 60 103 806 5960
2025-10-04 01:30 5.58 15 13500 (1927) 0 (1965) 610 2 2 4 5 14 60 103 806 5960
2025-10-04 01:00 5.57 15 13500 (1927) 0 (1965) 610 2 2 4 5 14 60 103 806 5960
2025-10-04 00:30 5.57 15 13500 (1927) 0 (1965) 610 2 2 4 5 14 60 103 806 5960
2025-10-04 00:00 5.57 15 13500 (1927) 0 (1965) 610 2 2 4 5 14 60 103 806 5960
2025-10-03 23:30 5.57 15 13500 (1927) 0 (1965) 610 2 2 4 5 14 60 103 806 5960
2025-10-03 23:00 5.57 15 13500 (1927) 0 (1965) 610 2 2 4 5 14 60 103 806 5960
2025-10-03 22:30 5.57 15 21400 (2015) 0 (1965) 670 1 2 4 5 13 61 107 486 4020
2025-10-03 22:00 5.57 15 21400 (2015) 0 (1965) 670 1 2 4 5 13 61 107 486 4020
2025-10-03 21:30 5.57 15 21400 (2015) 0 (1965) 670 1 2 4 5 13 61 107 486 4020
2025-10-03 21:00 5.57 15 21400 (2015) 0 (1965) 670 1 2 4 5 13 61 107 486 4020
2025-10-03 20:30 5.58 15 21400 (2015) 0 (1965) 670 1 2 4 5 13 61 107 486 4020
2025-10-03 20:00 5.57 15 21400 (2015) 0 (1965) 670 1 2 4 5 13 61 107 486 4020
2025-10-03 19:30 5.58 15 21400 (2015) 0 (1965) 670 1 2 4 5 13 61 107 486 4020
2025-10-03 19:00 5.58 15 21400 (2015) 0 (1965) 670 1 2 4 5 13 61 107 486 4020
2025-10-03 18:30 5.58 15 21400 (2015) 0 (1965) 670 1 2 4 5 13 61 107 486 4020
2025-10-03 18:00 5.58 15 21400 (2015) 0 (1965) 670 1 2 4 5 13 61 107 486 4020
2025-10-03 17:30 5.58 15 21400 (2015) 0 (1965) 670 1 2 4 5 13 61 107 486 4020
2025-10-03 17:00 5.58 15 21400 (2015) 0 (1965) 670 1 2 4 5 13 61 107 486 4020
2025-10-03 16:30 5.58 15 21400 (2015) 0 (1965) 670 1 2 4 5 13 61 107 486 4020
2025-10-03 16:00 5.58 15 21400 (2015) 0 (1965) 670 1 2 4 5 13 61 107 486 4020
2025-10-03 15:30 5.52 12 21400 (2015) 0 (1965) 670 1 2 4 5 13 61 107 486 4020
2025-10-03 15:00 5.58 15 21400 (2015) 0 (1965) 670 1 2 4 5 13 61 107 486 4020
2025-10-03 14:30 5.56 14 21400 (2015) 0 (1965) 670 1 2 4 5 13 61 107 486 4020
2025-10-03 14:00 5.58 15 21400 (2015) 0 (1965) 670 1 2 4 5 13 61 107 486 4020
2025-10-03 13:30 5.58 15 21400 (2015) 0 (1965) 670 1 2 4 5 13 61 107 486 4020
2025-10-03 13:00 5.53 13 21400 (2015) 0 (1965) 670 1 2 4 5 13 61 107 486 4020
2025-10-03 12:30 5.53 13 21400 (2015) 0 (1965) 670 1 2 4 5 13 61 107 486 4020
2025-10-03 12:00 5.58 15 21400 (2015) 0 (1965) 670 1 2 4 5 13 61 107 486 4020
2025-10-03 11:30 5.58 15 21400 (2015) 0 (1965) 670 1 2 4 5 13 61 107 486 4020
2025-10-03 11:00 5.58 15 21400 (2015) 0 (1965) 670 1 2 4 5 13 61 107 486 4020
2025-10-03 10:30 5.58 15 21400 (2015) 0 (1965) 670 1 2 4 5 13 61 107 486 4020
2025-10-03 10:00 5.59 16 21400 (2015) 0 (1965) 670 1 2 4 5 13 61 107 486 4020
2025-10-03 09:30 5.59 16 21400 (2015) 0 (1965) 670 1 2 4 5 13 61 107 486 4020
2025-10-03 09:00 5.59 16 21400 (2015) 0 (1965) 670 1 2 4 5 13 61 107 486 4020
2025-10-03 08:30 5.59 16 21400 (2015) 0 (1965) 670 1 2 4 5 13 61 107 486 4020
2025-10-03 08:00 5.59 16 21400 (2015) 0 (1965) 670 1 2 4 5 13 61 107 486 4020
2025-10-03 07:30 5.59 16 21400 (2015) 0 (1965) 670 1 2 4 5 13 61 107 486 4020
2025-10-03 07:00 5.59 16 21400 (2015) 0 (1965) 670 1 2 4 5 13 61 107 486 4020
2025-10-03 06:30 5.59 16 21400 (2015) 0 (1965) 670 1 2 4 5 13 61 107 486 4020
2025-10-03 06:00 5.59 16 21400 (2015) 0 (1965) 670 1 2 4 5 13 61 107 486 4020
2025-10-03 05:30 5.59 16 21400 (2015) 0 (1965) 670 1 2 4 5 13 61 107 486 4020
2025-10-03 05:00 5.59 16 21400 (2015) 0 (1965) 670 1 2 4 5 13 61 107 486 4020
2025-10-03 04:30 5.59 16 21400 (2015) 0 (1965) 670 1 2 4 5 13 61 107 486 4020
2025-10-03 04:00 5.59 16 21400 (2015) 0 (1965) 670 1 2 4 5 13 61 107 486 4020
2025-10-03 03:30 5.59 16 21400 (2015) 0 (1965) 670 1 2 4 5 13 61 107 486 4020
2025-10-03 03:00 5.60 16 21400 (2015) 0 (1965) 670 1 2 4 5 13 61 107 486 4020
2025-10-03 02:30 5.59 16 21400 (2015) 0 (1965) 670 1 2 4 5 13 61 107 486 4020
2025-10-03 02:00 5.60 16 21400 (2015) 0 (1965) 670 1 2 4 5 13 61 107 486 4020
2025-10-03 01:30 5.59 16 21400 (2015) 0 (1965) 670 1 2 4 5 13 61 107 486 4020
2025-10-03 01:00 5.59 16 21400 (2015) 0 (1965) 670 1 2 4 5 13 61 107 486 4020
2025-10-03 00:30 5.60 16 21400 (2015) 0 (1965) 670 1 2 4 5 13 61 107 486 4020
2025-10-03 00:00 5.60 16 21400 (2015) 0 (1965) 670 1 2 4 5 13 61 107 486 4020
2025-10-02 23:30 5.60 16 21400 (2015) 0 (1965) 670 1 2 4 5 13 61 107 486 4020
2025-10-02 23:00 5.60 16 21400 (2015) 0 (1965) 670 1 2 4 5 13 61 107 486 4020
2025-10-02 22:30 5.60 16 14200 (2015) 0 (1965) 382 1 2 4 4 12 61 99 340 862
2025-10-02 22:00 5.60 16 14200 (2015) 0 (1965) 382 1 2 4 4 12 61 99 340 862
2025-10-02 21:30 5.60 16 14200 (2015) 0 (1965) 382 1 2 4 4 12 61 99 340 862
2025-10-02 21:00 5.60 16 14200 (2015) 0 (1965) 382 1 2 4 4 12 61 99 340 862
2025-10-02 20:30 5.60 16 14200 (2015) 0 (1965) 382 1 2 4 4 12 61 99 340 862
2025-10-02 20:00 5.60 16 14200 (2015) 0 (1965) 382 1 2 4 4 12 61 99 340 862
2025-10-02 19:30 5.60 16 14200 (2015) 0 (1965) 382 1 2 4 4 12 61 99 340 862
2025-10-02 19:00 5.60 16 14200 (2015) 0 (1965) 382 1 2 4 4 12 61 99 340 862
2025-10-02 18:30 5.60 16 14200 (2015) 0 (1965) 382 1 2 4 4 12 61 99 340 862
2025-10-02 18:00 5.60 16 14200 (2015) 0 (1965) 382 1 2 4 4 12 61 99 340 862
2025-10-02 17:30 5.60 16 14200 (2015) 0 (1965) 382 1 2 4 4 12 61 99 340 862
2025-10-02 17:00 5.60 16 14200 (2015) 0 (1965) 382 1 2 4 4 12 61 99 340 862
2025-10-02 16:30 5.60 16 14200 (2015) 0 (1965) 382 1 2 4 4 12 61 99 340 862
2025-10-02 16:00 5.60 16 14200 (2015) 0 (1965) 382 1 2 4 4 12 61 99 340 862
2025-10-02 15:30 5.60 16 14200 (2015) 0 (1965) 382 1 2 4 4 12 61 99 340 862
2025-10-02 15:00 5.60 16 14200 (2015) 0 (1965) 382 1 2 4 4 12 61 99 340 862
2025-10-02 14:30 5.55 14 14200 (2015) 0 (1965) 382 1 2 4 4 12 61 99 340 862
2025-10-02 14:00 5.60 16 14200 (2015) 0 (1965) 382 1 2 4 4 12 61 99 340 862
2025-10-02 13:30 5.61 17 14200 (2015) 0 (1965) 382 1 2 4 4 12 61 99 340 862
2025-10-02 13:00 5.60 16 14200 (2015) 0 (1965) 382 1 2 4 4 12 61 99 340 862
2025-10-02 12:30 5.60 16 14200 (2015) 0 (1965) 382 1 2 4 4 12 61 99 340 862
2025-10-02 12:00 5.61 17 14200 (2015) 0 (1965) 382 1 2 4 4 12 61 99 340 862
2025-10-02 11:30 5.60 16 14200 (2015) 0 (1965) 382 1 2 4 4 12 61 99 340 862
2025-10-02 11:00 5.61 17 14200 (2015) 0 (1965) 382 1 2 4 4 12 61 99 340 862
2025-10-02 10:30 5.61 17 14200 (2015) 0 (1965) 382 1 2 4 4 12 61 99 340 862
2025-10-02 10:00 5.61 17 14200 (2015) 0 (1965) 382 1 2 4 4 12 61 99 340 862
2025-10-02 09:30 5.61 17 14200 (2015) 0 (1965) 382 1 2 4 4 12 61 99 340 862
2025-10-02 09:00 5.61 17 14200 (2015) 0 (1965) 382 1 2 4 4 12 61 99 340 862
2025-10-02 08:30 5.61 14200 (2015) 0 (1965) 382 1 2 4 4 12 61 99 340 862
2025-10-02 08:00 5.62 14200 (2015) 0 (1965) 382 1 2 4 4 12 61 99 340 862
2025-10-02 07:30 5.62 18 14200 (2015) 0 (1965) 382 1 2 4 4 12 61 99 340 862
2025-10-02 07:00 5.62 14200 (2015) 0 (1965) 382 1 2 4 4 12 61 99 340 862
2025-10-02 06:30 5.61 14200 (2015) 0 (1965) 382 1 2 4 4 12 61 99 340 862
2025-10-02 06:00 5.62 18 14200 (2015) 0 (1965) 382 1 2 4 4 12 61 99 340 862
2025-10-02 04:30 5.62 14200 (2015) 0 (1965) 382 1 2 4 4 12 61 99 340 862
2025-10-02 04:00 18 14200 (2015) 0 (1965) 382 1 2 4 4 12 61 99 340 862
2025-10-02 03:30 5.62 18 14200 (2015) 0 (1965) 382 1 2 4 4 12 61 99 340 862
2025-10-02 02:00 5.62 18 14200 (2015) 0 (1965) 382 1 2 4 4 12 61 99 340 862
2025-10-02 01:00 5.62 14200 (2015) 0 (1965) 382 1 2 4 4 12 61 99 340 862
2025-10-02 00:30 18 14200 (2015) 0 (1965) 382 1 2 4 4 12 61 99 340 862
2025-10-02 00:00 5.62 14200 (2015) 0 (1965) 382 1 2 4 4 12 61 99 340 862
2025-10-01 23:30 18 14200 (2015) 0 (1965) 382 1 2 4 4 12 61 99 340 862
2025-10-01 23:00 5.62 14200 (2015) 0 (1965) 382 1 2 4 4 12 61 99 340 862
2025-10-01 22:00 5.62 18 24800 (1927) 0 (1965) 382 1 2 4 5 13 78 103 224 549
2025-10-01 21:30 5.62 18 24800 (1927) 0 (1965) 382 1 2 4 5 13 78 103 224 549
2025-10-01 20:30 5.62 24800 (1927) 0 (1965) 382 1 2 4 5 13 78 103 224 549
2025-10-01 20:00 5.62 18 24800 (1927) 0 (1965) 382 1 2 4 5 13 78 103 224 549
2025-10-01 19:30 5.62 18 24800 (1927) 0 (1965) 382 1 2 4 5 13 78 103 224 549
2025-10-01 19:00 5.62 24800 (1927) 0 (1965) 382 1 2 4 5 13 78 103 224 549
2025-10-01 18:00 5.62 24800 (1927) 0 (1965) 382 1 2 4 5 13 78 103 224 549
2025-10-01 17:30 5.62 18 24800 (1927) 0 (1965) 382 1 2 4 5 13 78 103 224 549
2025-10-01 16:30 5.58 15 24800 (1927) 0 (1965) 382 1 2 4 5 13 78 103 224 549
2025-10-01 16:00 5.62 24800 (1927) 0 (1965) 382 1 2 4 5 13 78 103 224 549
2025-10-01 15:00 5.59 24800 (1927) 0 (1965) 382 1 2 4 5 13 78 103 224 549
2025-10-01 14:30 16 24800 (1927) 0 (1965) 382 1 2 4 5 13 78 103 224 549
2025-10-01 14:00 5.63 18 24800 (1927) 0 (1965) 382 1 2 4 5 13 78 103 224 549
2025-10-01 13:00 5.59 24800 (1927) 0 (1965) 382 1 2 4 5 13 78 103 224 549
2025-10-01 12:30 5.62 24800 (1927) 0 (1965) 382 1 2 4 5 13 78 103 224 549
2025-10-01 12:00 5.63 18 24800 (1927) 0 (1965) 382 1 2 4 5 13 78 103 224 549
2025-10-01 11:30 5.58 24800 (1927) 0 (1965) 382 1 2 4 5 13 78 103 224 549
2025-10-01 10:30 5.63 18 24800 (1927) 0 (1965) 382 1 2 4 5 13 78 103 224 549
2025-10-01 10:00 5.63 24800 (1927) 0 (1965) 382 1 2 4 5 13 78 103 224 549
2025-10-01 09:00 5.63 18 24800 (1927) 0 (1965) 382 1 2 4 5 13 78 103 224 549
2025-10-01 08:00 5.63 24800 (1927) 0 (1965) 382 1 2 4 5 13 78 103 224 549
2025-10-01 07:00 18 24800 (1927) 0 (1965) 382 1 2 4 5 13 78 103 224 549
2025-10-01 05:30 19 24800 (1927) 0 (1965) 382 1 2 4 5 13 78 103 224 549
2025-10-01 03:30 19 24800 (1927) 0 (1965) 382 1 2 4 5 13 78 103 224 549
2025-10-01 01:00 19 24800 (1927) 0 (1965) 382 1 2 4 5 13 78 103 224 549
2025-10-01 00:30 19 24800 (1927) 0 (1965) 382 1 2 4 5 13 78 103 224 549
2025-09-30 23:30 19 24800 (1927) 0 (1965) 382 1 2 4 5 13 78 103 224 549
2025-09-30 21:30 19 9720 (1926) 0 (1964) 260 1 2 4 5 14 90 115 379 1200
2025-09-30 20:00 19 9720 (1926) 0 (1964) 260 1 2 4 5 14 90 115 379 1200
2025-09-30 19:00 19 9720 (1926) 0 (1964) 260 1 2 4 5 14 90 115 379 1200
2025-09-30 18:00 5.64 19 9720 (1926) 0 (1964) 260 1 2 4 5 14 90 115 379 1200
2025-09-30 16:30 19 9720 (1926) 0 (1964) 260 1 2 4 5 14 90 115 379 1200
2025-09-30 15:30 16 9720 (1926) 0 (1964) 260 1 2 4 5 14 90 115 379 1200
2025-09-30 15:00 15 9720 (1926) 0 (1964) 260 1 2 4 5 14 90 115 379 1200
2025-09-30 13:30 17 9720 (1926) 0 (1964) 260 1 2 4 5 14 90 115 379 1200
2025-09-30 13:00 16 9720 (1926) 0 (1964) 260 1 2 4 5 14 90 115 379 1200
2025-09-30 12:30 19 9720 (1926) 0 (1964) 260 1 2 4 5 14 90 115 379 1200
2025-09-30 12:00 19 9720 (1926) 0 (1964) 260 1 2 4 5 14 90 115 379 1200
2025-09-30 11:30 19 9720 (1926) 0 (1964) 260 1 2 4 5 14 90 115 379 1200
2025-09-30 11:00 19 9720 (1926) 0 (1964) 260 1 2 4 5 14 90 115 379 1200
2025-09-30 10:30 19 9720 (1926) 0 (1964) 260 1 2 4 5 14 90 115 379 1200
2025-09-30 10:00 19 9720 (1926) 0 (1964) 260 1 2 4 5 14 90 115 379 1200
2025-09-30 09:30 19 9720 (1926) 0 (1964) 260 1 2 4 5 14 90 115 379 1200
2025-09-30 09:00 19 9720 (1926) 0 (1964) 260 1 2 4 5 14 90 115 379 1200
2025-09-30 08:30 20 9720 (1926) 0 (1964) 260 1 2 4 5 14 90 115 379 1200
2025-09-30 08:00 20 9720 (1926) 0 (1964) 260 1 2 4 5 14 90 115 379 1200
2025-09-30 07:30 5.66 20 9720 (1926) 0 (1964) 260 1 2 4 5 14 90 115 379 1200
2025-09-30 07:00 5.66 20 9720 (1926) 0 (1964) 260 1 2 4 5 14 90 115 379 1200
2025-09-29 19:00 5.67 21 14500 (1945) 0 (1964) 534 1 2 4 6 15 84 128 351 2390
2025-09-29 18:30 5.67 21 14500 (1945) 0 (1964) 534 1 2 4 6 15 84 128 351 2390
2025-09-29 18:00 5.67 21 14500 (1945) 0 (1964) 534 1 2 4 6 15 84 128 351 2390
2025-09-29 17:30 5.68 21 14500 (1945) 0 (1964) 534 1 2 4 6 15 84 128 351 2390
2025-09-29 17:00 5.68 21 14500 (1945) 0 (1964) 534 1 2 4 6 15 84 128 351 2390
2025-09-29 16:30 5.68 21 14500 (1945) 0 (1964) 534 1 2 4 6 15 84 128 351 2390
2025-09-29 16:00 5.60 16 14500 (1945) 0 (1964) 534 1 2 4 6 15 84 128 351 2390
2025-09-29 15:30 5.67 21 14500 (1945) 0 (1964) 534 1 2 4 6 15 84 128 351 2390
2025-09-29 15:00 5.68 21 14500 (1945) 0 (1964) 534 1 2 4 6 15 84 128 351 2390
2025-09-29 14:30 5.67 21 14500 (1945) 0 (1964) 534 1 2 4 6 15 84 128 351 2390
2025-09-29 14:00 5.67 21 14500 (1945) 0 (1964) 534 1 2 4 6 15 84 128 351 2390
2025-09-29 13:30 5.68 21 14500 (1945) 0 (1964) 534 1 2 4 6 15 84 128 351 2390
2025-09-29 13:00 5.68 21 14500 (1945) 0 (1964) 534 1 2 4 6 15 84 128 351 2390
2025-09-29 12:30 5.64 19 14500 (1945) 0 (1964) 534 1 2 4 6 15 84 128 351 2390
2025-09-29 12:00 5.68 21 14500 (1945) 0 (1964) 534 1 2 4 6 15 84 128 351 2390
2025-09-29 11:30 5.68 21 14500 (1945) 0 (1964) 534 1 2 4 6 15 84 128 351 2390
2025-09-29 11:00 5.68 21 14500 (1945) 0 (1964) 534 1 2 4 6 15 84 128 351 2390
2025-09-29 10:30 5.68 21 14500 (1945) 0 (1964) 534 1 2 4 6 15 84 128 351 2390
2025-09-29 10:00 5.68 21 14500 (1945) 0 (1964) 534 1 2 4 6 15 84 128 351 2390
2025-09-29 09:30 5.68 21 14500 (1945) 0 (1964) 534 1 2 4 6 15 84 128 351 2390
2025-09-29 09:00 5.68 21 14500 (1945) 0 (1964) 534 1 2 4 6 15 84 128 351 2390
2025-09-29 08:30 5.69 22 14500 (1945) 0 (1964) 534 1 2 4 6 15 84 128 351 2390
2025-09-29 08:00 5.69 22 14500 (1945) 0 (1964) 534 1 2 4 6 15 84 128 351 2390
2025-09-29 07:30 5.69 22 14500 (1945) 0 (1964) 534 1 2 4 6 15 84 128 351 2390
2025-09-29 07:00 5.69 22 14500 (1945) 0 (1964) 534 1 2 4 6 15 84 128 351 2390
2025-09-29 06:30 5.69 22 14500 (1945) 0 (1964) 534 1 2 4 6 15 84 128 351 2390
2025-09-29 06:00 5.69 22 14500 (1945) 0 (1964) 534 1 2 4 6 15 84 128 351 2390
2025-09-29 05:30 5.69 22 14500 (1945) 0 (1964) 534 1 2 4 6 15 84 128 351 2390
2025-09-29 05:00 5.69 22 14500 (1945) 0 (1964) 534 1 2 4 6 15 84 128 351 2390
2025-09-29 04:30 5.69 22 14500 (1945) 0 (1964) 534 1 2 4 6 15 84 128 351 2390
2025-09-29 04:00 5.69 22 14500 (1945) 0 (1964) 534 1 2 4 6 15 84 128 351 2390
2025-09-29 03:30 5.69 22 14500 (1945) 0 (1964) 534 1 2 4 6 15 84 128 351 2390
2025-09-29 03:00 5.69 22 14500 (1945) 0 (1964) 534 1 2 4 6 15 84 128 351 2390
2025-09-29 02:30 5.69 22 14500 (1945) 0 (1964) 534 1 2 4 6 15 84 128 351 2390
2025-09-29 02:00 5.69 22 14500 (1945) 0 (1964) 534 1 2 4 6 15 84 128 351 2390
2025-09-29 01:30 5.69 22 14500 (1945) 0 (1964) 534 1 2 4 6 15 84 128 351 2390
2025-09-29 01:00 5.69 22 14500 (1945) 0 (1964) 534 1 2 4 6 15 84 128 351 2390
2025-09-29 00:30 5.69 22 14500 (1945) 0 (1964) 534 1 2 4 6 15 84 128 351 2390
2025-09-29 00:00 5.69 22 14500 (1945) 0 (1964) 534 1 2 4 6 15 84 128 351 2390
2025-09-28 23:30 22 14500 (1945) 0 (1964) 534 1 2 4 6 15 84 128 351 2390
2025-09-28 23:00 5.70 23 14500 (1945) 0 (1964) 534 1 2 4 6 15 84 128 351 2390
2025-09-28 22:30 5.70 23 15300 (1926) 0 (1964) 483 2 2 5 6 16 71 133 375 1380
2025-09-28 22:00 5.70 23 15300 (1926) 0 (1964) 483 2 2 5 6 16 71 133 375 1380
2025-09-28 21:30 5.70 23 15300 (1926) 0 (1964) 483 2 2 5 6 16 71 133 375 1380
2025-09-28 21:00 5.70 23 15300 (1926) 0 (1964) 483 2 2 5 6 16 71 133 375 1380
2025-09-28 20:30 5.70 23 15300 (1926) 0 (1964) 483 2 2 5 6 16 71 133 375 1380
2025-09-28 20:00 5.70 23 15300 (1926) 0 (1964) 483 2 2 5 6 16 71 133 375 1380
2025-09-28 19:30 5.70 23 15300 (1926) 0 (1964) 483 2 2 5 6 16 71 133 375 1380
2025-09-28 19:00 5.70 23 15300 (1926) 0 (1964) 483 2 2 5 6 16 71 133 375 1380
2025-09-28 18:30 5.70 23 15300 (1926) 0 (1964) 483 2 2 5 6 16 71 133 375 1380
2025-09-28 18:00 5.70 23 15300 (1926) 0 (1964) 483 2 2 5 6 16 71 133 375 1380
2025-09-28 17:30 5.69 22 15300 (1926) 0 (1964) 483 2 2 5 6 16 71 133 375 1380
2025-09-28 17:00 5.69 22 15300 (1926) 0 (1964) 483 2 2 5 6 16 71 133 375 1380
2025-09-28 16:30 5.64 19 15300 (1926) 0 (1964) 483 2 2 5 6 16 71 133 375 1380
2025-09-28 16:00 5.66 20 15300 (1926) 0 (1964) 483 2 2 5 6 16 71 133 375 1380
2025-09-28 15:30 5.68 21 15300 (1926) 0 (1964) 483 2 2 5 6 16 71 133 375 1380
2025-09-28 15:00 5.70 23 15300 (1926) 0 (1964) 483 2 2 5 6 16 71 133 375 1380
2025-09-28 14:30 5.70 23 15300 (1926) 0 (1964) 483 2 2 5 6 16 71 133 375 1380
2025-09-28 14:00 5.71 24 15300 (1926) 0 (1964) 483 2 2 5 6 16 71 133 375 1380
2025-09-28 13:30 5.67 21 15300 (1926) 0 (1964) 483 2 2 5 6 16 71 133 375 1380
2025-09-28 13:00 5.71 24 15300 (1926) 0 (1964) 483 2 2 5 6 16 71 133 375 1380
2025-09-28 12:30 5.71 24 15300 (1926) 0 (1964) 483 2 2 5 6 16 71 133 375 1380
2025-09-28 12:00 5.70 23 15300 (1926) 0 (1964) 483 2 2 5 6 16 71 133 375 1380
2025-09-28 11:30 5.71 24 15300 (1926) 0 (1964) 483 2 2 5 6 16 71 133 375 1380
2025-09-28 11:00 5.70 23 15300 (1926) 0 (1964) 483 2 2 5 6 16 71 133 375 1380
2025-09-28 10:30 5.70 23 15300 (1926) 0 (1964) 483 2 2 5 6 16 71 133 375 1380
2025-09-28 10:00 5.70 23 15300 (1926) 0 (1964) 483 2 2 5 6 16 71 133 375 1380
2025-09-28 09:30 5.70 23 15300 (1926) 0 (1964) 483 2 2 5 6 16 71 133 375 1380
2025-09-28 09:00 5.70 23 15300 (1926) 0 (1964) 483 2 2 5 6 16 71 133 375 1380
2025-09-28 08:30 5.70 23 15300 (1926) 0 (1964) 483 2 2 5 6 16 71 133 375 1380
2025-09-28 08:00 5.70 23 15300 (1926) 0 (1964) 483 2 2 5 6 16 71 133 375 1380
2025-09-28 07:30 5.70 23 15300 (1926) 0 (1964) 483 2 2 5 6 16 71 133 375 1380
2025-09-28 07:00 5.70 23 15300 (1926) 0 (1964) 483 2 2 5 6 16 71 133 375 1380
2025-09-28 06:30 5.70 23 15300 (1926) 0 (1964) 483 2 2 5 6 16 71 133 375 1380
2025-09-28 06:00 5.70 23 15300 (1926) 0 (1964) 483 2 2 5 6 16 71 133 375 1380
2025-09-28 05:30 5.69 22 15300 (1926) 0 (1964) 483 2 2 5 6 16 71 133 375 1380
2025-09-28 05:00 5.69 22 15300 (1926) 0 (1964) 483 2 2 5 6 16 71 133 375 1380
2025-09-28 04:30 5.69 22 15300 (1926) 0 (1964) 483 2 2 5 6 16 71 133 375 1380
2025-09-28 04:00 5.69 22 15300 (1926) 0 (1964) 483 2 2 5 6 16 71 133 375 1380
2025-09-28 03:30 5.69 22 15300 (1926) 0 (1964) 483 2 2 5 6 16 71 133 375 1380
2025-09-28 03:00 5.69 22 15300 (1926) 0 (1964) 483 2 2 5 6 16 71 133 375 1380
2025-09-28 02:30 5.69 22 15300 (1926) 0 (1964) 483 2 2 5 6 16 71 133 375 1380
2025-09-28 02:00 5.69 22 15300 (1926) 0 (1964) 483 2 2 5 6 16 71 133 375 1380
2025-09-28 01:30 5.69 22 15300 (1926) 0 (1964) 483 2 2 5 6 16 71 133 375 1380
2025-09-28 01:00 5.69 22 15300 (1926) 0 (1964) 483 2 2 5 6 16 71 133 375 1380
2025-09-28 00:30 5.69 22 15300 (1926) 0 (1964) 483 2 2 5 6 16 71 133 375 1380
2025-09-28 00:00 5.68 21 15300 (1926) 0 (1964) 483 2 2 5 6 16 71 133 375 1380
2025-09-27 23:30 5.68 21 15300 (1926) 0 (1964) 483 2 2 5 6 16 71 133 375 1380
2025-09-27 23:00 5.69 22 15300 (1926) 0 (1964) 483 2 2 5 6 16 71 133 375 1380
2025-09-27 22:30 22 12900 (1936) 0 (1964) 363 2 2 5 6 13 56 87 653 1660
2025-09-27 22:00 5.69 22 12900 (1936) 0 (1964) 363 2 2 5 6 13 56 87 653 1660
2025-09-27 21:30 5.69 22 12900 (1936) 0 (1964) 363 2 2 5 6 13 56 87 653 1660
2025-09-27 21:00 5.69 22 12900 (1936) 0 (1964) 363 2 2 5 6 13 56 87 653 1660
2025-09-27 20:30 5.69 22 12900 (1936) 0 (1964) 363 2 2 5 6 13 56 87 653 1660
2025-09-27 20:00 5.69 22 12900 (1936) 0 (1964) 363 2 2 5 6 13 56 87 653 1660
2025-09-27 19:30 5.69 22 12900 (1936) 0 (1964) 363 2 2 5 6 13 56 87 653 1660
2025-09-27 19:00 5.69 22 12900 (1936) 0 (1964) 363 2 2 5 6 13 56 87 653 1660
2025-09-27 18:30 5.69 22 12900 (1936) 0 (1964) 363 2 2 5 6 13 56 87 653 1660
2025-09-27 18:00 5.69 22 12900 (1936) 0 (1964) 363 2 2 5 6 13 56 87 653 1660
2025-09-27 17:30 5.69 22 12900 (1936) 0 (1964) 363 2 2 5 6 13 56 87 653 1660
2025-09-27 17:00 5.69 22 12900 (1936) 0 (1964) 363 2 2 5 6 13 56 87 653 1660
2025-09-27 16:30 5.69 22 12900 (1936) 0 (1964) 363 2 2 5 6 13 56 87 653 1660
2025-09-27 16:00 5.70 23 12900 (1936) 0 (1964) 363 2 2 5 6 13 56 87 653 1660
2025-09-27 15:30 5.69 22 12900 (1936) 0 (1964) 363 2 2 5 6 13 56 87 653 1660
2025-09-27 15:00 5.69 22 12900 (1936) 0 (1964) 363 2 2 5 6 13 56 87 653 1660
2025-09-27 14:30 5.65 19 12900 (1936) 0 (1964) 363 2 2 5 6 13 56 87 653 1660
2025-09-27 14:00 5.69 22 12900 (1936) 0 (1964) 363 2 2 5 6 13 56 87 653 1660
2025-09-27 13:30 5.69 22 12900 (1936) 0 (1964) 363 2 2 5 6 13 56 87 653 1660
2025-09-27 13:00 5.69 22 12900 (1936) 0 (1964) 363 2 2 5 6 13 56 87 653 1660
2025-09-27 12:30 5.70 23 12900 (1936) 0 (1964) 363 2 2 5 6 13 56 87 653 1660
2025-09-27 12:00 5.70 23 12900 (1936) 0 (1964) 363 2 2 5 6 13 56 87 653 1660
2025-09-27 11:30 5.70 23 12900 (1936) 0 (1964) 363 2 2 5 6 13 56 87 653 1660
2025-09-27 11:00 5.70 23 12900 (1936) 0 (1964) 363 2 2 5 6 13 56 87 653 1660
2025-09-27 10:30 5.70 23 12900 (1936) 0 (1964) 363 2 2 5 6 13 56 87 653 1660
2025-09-27 10:00 5.70 23 12900 (1936) 0 (1964) 363 2 2 5 6 13 56 87 653 1660
2025-09-27 09:30 5.70 23 12900 (1936) 0 (1964) 363 2 2 5 6 13 56 87 653 1660
2025-09-27 09:00 5.71 24 12900 (1936) 0 (1964) 363 2 2 5 6 13 56 87 653 1660
2025-09-27 08:30 5.71 24 12900 (1936) 0 (1964) 363 2 2 5 6 13 56 87 653 1660
2025-09-27 08:00 5.71 24 12900 (1936) 0 (1964) 363 2 2 5 6 13 56 87 653 1660
2025-09-27 07:30 5.72 24 12900 (1936) 0 (1964) 363 2 2 5 6 13 56 87 653 1660
2025-09-27 07:00 5.72 24 12900 (1936) 0 (1964) 363 2 2 5 6 13 56 87 653 1660
2025-09-27 06:30 5.72 24 12900 (1936) 0 (1964) 363 2 2 5 6 13 56 87 653 1660
2025-09-27 06:00 5.72 24 12900 (1936) 0 (1964) 363 2 2 5 6 13 56 87 653 1660
2025-09-27 05:30 5.72 24 12900 (1936) 0 (1964) 363 2 2 5 6 13 56 87 653 1660
2025-09-27 05:00 5.72 24 12900 (1936) 0 (1964) 363 2 2 5 6 13 56 87 653 1660
2025-09-27 04:30 5.72 24 12900 (1936) 0 (1964) 363 2 2 5 6 13 56 87 653 1660
2025-09-27 04:00 5.72 24 12900 (1936) 0 (1964) 363 2 2 5 6 13 56 87 653 1660
2025-09-27 03:30 5.72 24 12900 (1936) 0 (1964) 363 2 2 5 6 13 56 87 653 1660
2025-09-27 03:00 5.72 24 12900 (1936) 0 (1964) 363 2 2 5 6 13 56 87 653 1660
2025-09-27 02:30 5.72 24 12900 (1936) 0 (1964) 363 2 2 5 6 13 56 87 653 1660
2025-09-27 02:00 5.73 25 12900 (1936) 0 (1964) 363 2 2 5 6 13 56 87 653 1660
2025-09-27 01:30 5.72 24 12900 (1936) 0 (1964) 363 2 2 5 6 13 56 87 653 1660
2025-09-27 01:00 25 12900 (1936) 0 (1964) 363 2 2 5 6 13 56 87 653 1660
2025-09-27 00:30 5.73 25 12900 (1936) 0 (1964) 363 2 2 5 6 13 56 87 653 1660
2025-09-27 00:00 5.73 25 12900 (1936) 0 (1964) 363 2 2 5 6 13 56 87 653 1660
2025-09-26 23:30 25 12900 (1936) 0 (1964) 363 2 2 5 6 13 56 87 653 1660
2025-09-26 23:00 5.73 25 12900 (1936) 0 (1964) 363 2 2 5 6 13 56 87 653 1660
2025-09-26 22:30 5.73 25 10000 (1970) 0 (1964) 338 1 2 4 6 13 52 77 458 2090
2025-09-26 22:00 5.73 25 10000 (1970) 0 (1964) 338 1 2 4 6 13 52 77 458 2090
2025-09-26 21:30 5.73 25 10000 (1970) 0 (1964) 338 1 2 4 6 13 52 77 458 2090
2025-09-26 21:00 5.73 25 10000 (1970) 0 (1964) 338 1 2 4 6 13 52 77 458 2090
2025-09-26 20:30 5.73 25 10000 (1970) 0 (1964) 338 1 2 4 6 13 52 77 458 2090
2025-09-26 20:00 5.73 25 10000 (1970) 0 (1964) 338 1 2 4 6 13 52 77 458 2090
2025-09-26 19:30 5.73 25 10000 (1970) 0 (1964) 338 1 2 4 6 13 52 77 458 2090
2025-09-26 19:00 5.73 25 10000 (1970) 0 (1964) 338 1 2 4 6 13 52 77 458 2090
2025-09-26 18:30 5.74 26 10000 (1970) 0 (1964) 338 1 2 4 6 13 52 77 458 2090
2025-09-26 18:00 5.74 26 10000 (1970) 0 (1964) 338 1 2 4 6 13 52 77 458 2090
2025-09-26 17:30 5.74 26 10000 (1970) 0 (1964) 338 1 2 4 6 13 52 77 458 2090
2025-09-26 17:00 5.74 26 10000 (1970) 0 (1964) 338 1 2 4 6 13 52 77 458 2090
2025-09-26 16:30 5.75 27 10000 (1970) 0 (1964) 338 1 2 4 6 13 52 77 458 2090
2025-09-26 16:00 5.70 23 10000 (1970) 0 (1964) 338 1 2 4 6 13 52 77 458 2090
2025-09-26 15:30 5.75 27 10000 (1970) 0 (1964) 338 1 2 4 6 13 52 77 458 2090
2025-09-26 15:00 5.75 27 10000 (1970) 0 (1964) 338 1 2 4 6 13 52 77 458 2090
2025-09-26 14:30 5.75 27 10000 (1970) 0 (1964) 338 1 2 4 6 13 52 77 458 2090
2025-09-26 14:00 5.72 24 10000 (1970) 0 (1964) 338 1 2 4 6 13 52 77 458 2090
2025-09-26 13:30 5.74 26 10000 (1970) 0 (1964) 338 1 2 4 6 13 52 77 458 2090
2025-09-26 13:00 5.76 28 10000 (1970) 0 (1964) 338 1 2 4 6 13 52 77 458 2090
2025-09-26 12:30 5.76 28 10000 (1970) 0 (1964) 338 1 2 4 6 13 52 77 458 2090
2025-09-26 12:00 5.76 28 10000 (1970) 0 (1964) 338 1 2 4 6 13 52 77 458 2090
2025-09-26 11:30 5.75 27 10000 (1970) 0 (1964) 338 1 2 4 6 13 52 77 458 2090
2025-09-26 11:00 5.76 28 10000 (1970) 0 (1964) 338 1 2 4 6 13 52 77 458 2090
2025-09-26 10:30 5.76 28 10000 (1970) 0 (1964) 338 1 2 4 6 13 52 77 458 2090
2025-09-26 10:00 5.76 28 10000 (1970) 0 (1964) 338 1 2 4 6 13 52 77 458 2090
2025-09-26 09:30 5.76 28 10000 (1970) 0 (1964) 338 1 2 4 6 13 52 77 458 2090
2025-09-26 09:00 5.77 29 10000 (1970) 0 (1964) 338 1 2 4 6 13 52 77 458 2090
2025-09-26 08:30 5.77 29 10000 (1970) 0 (1964) 338 1 2 4 6 13 52 77 458 2090
2025-09-26 08:00 5.77 29 10000 (1970) 0 (1964) 338 1 2 4 6 13 52 77 458 2090
2025-09-26 07:30 5.78 29 10000 (1970) 0 (1964) 338 1 2 4 6 13 52 77 458 2090
2025-09-26 07:00 5.78 29 10000 (1970) 0 (1964) 338 1 2 4 6 13 52 77 458 2090
2025-09-26 06:30 5.78 29 10000 (1970) 0 (1964) 338 1 2 4 6 13 52 77 458 2090
2025-09-26 06:00 5.78 29 10000 (1970) 0 (1964) 338 1 2 4 6 13 52 77 458 2090
2025-09-26 05:30 5.78 29 10000 (1970) 0 (1964) 338 1 2 4 6 13 52 77 458 2090
2025-09-26 05:00 5.79 30 10000 (1970) 0 (1964) 338 1 2 4 6 13 52 77 458 2090
2025-09-26 04:30 5.79 30 10000 (1970) 0 (1964) 338 1 2 4 6 13 52 77 458 2090
2025-09-26 04:00 5.79 30 10000 (1970) 0 (1964) 338 1 2 4 6 13 52 77 458 2090
2025-09-26 03:30 5.79 30 10000 (1970) 0 (1964) 338 1 2 4 6 13 52 77 458 2090
2025-09-26 03:00 5.79 30 10000 (1970) 0 (1964) 338 1 2 4 6 13 52 77 458 2090
2025-09-26 02:30 5.79 30 10000 (1970) 0 (1964) 338 1 2 4 6 13 52 77 458 2090
2025-09-26 02:00 5.80 31 10000 (1970) 0 (1964) 338 1 2 4 6 13 52 77 458 2090
2025-09-26 01:30 5.80 31 10000 (1970) 0 (1964) 338 1 2 4 6 13 52 77 458 2090
2025-09-26 01:00 5.80 31 10000 (1970) 0 (1964) 338 1 2 4 6 13 52 77 458 2090
2025-09-26 00:30 5.80 31 10000 (1970) 0 (1964) 338 1 2 4 6 13 52 77 458 2090
2025-09-26 00:00 5.80 31 10000 (1970) 0 (1964) 338 1 2 4 6 13 52 77 458 2090
2025-09-25 23:30 5.80 31 10000 (1970) 0 (1964) 338 1 2 4 6 13 52 77 458 2090
2025-09-25 23:00 5.81 32 10000 (1970) 0 (1964) 338 1 2 4 6 13 52 77 458 2090
2025-09-25 22:30 5.81 32 18700 (1970) 0 (1964) 701 2 3 4 5 15 54 89 590 6970
2025-09-25 22:00 5.81 32 18700 (1970) 0 (1964) 701 2 3 4 5 15 54 89 590 6970
2025-09-25 21:30 5.81 32 18700 (1970) 0 (1964) 701 2 3 4 5 15 54 89 590 6970
2025-09-25 21:00 5.81 32 18700 (1970) 0 (1964) 701 2 3 4 5 15 54 89 590 6970
2025-09-25 20:30 5.82 33 18700 (1970) 0 (1964) 701 2 3 4 5 15 54 89 590 6970
2025-09-25 20:00 5.82 33 18700 (1970) 0 (1964) 701 2 3 4 5 15 54 89 590 6970
2025-09-25 19:30 5.82 33 18700 (1970) 0 (1964) 701 2 3 4 5 15 54 89 590 6970
2025-09-25 19:00 5.83 34 18700 (1970) 0 (1964) 701 2 3 4 5 15 54 89 590 6970
2025-09-25 18:30 5.83 34 18700 (1970) 0 (1964) 701 2 3 4 5 15 54 89 590 6970
2025-09-25 18:00 5.83 34 18700 (1970) 0 (1964) 701 2 3 4 5 15 54 89 590 6970
2025-09-25 17:30 5.84 35 18700 (1970) 0 (1964) 701 2 3 4 5 15 54 89 590 6970
2025-09-25 17:00 5.84 35 18700 (1970) 0 (1964) 701 2 3 4 5 15 54 89 590 6970
2025-09-25 16:30 5.85 36 18700 (1970) 0 (1964) 701 2 3 4 5 15 54 89 590 6970
2025-09-25 16:00 5.85 36 18700 (1970) 0 (1964) 701 2 3 4 5 15 54 89 590 6970
2025-09-25 15:30 5.85 36 18700 (1970) 0 (1964) 701 2 3 4 5 15 54 89 590 6970
2025-09-25 15:00 5.86 37 18700 (1970) 0 (1964) 701 2 3 4 5 15 54 89 590 6970
2025-09-25 14:30 5.81 32 18700 (1970) 0 (1964) 701 2 3 4 5 15 54 89 590 6970
2025-09-25 14:00 5.86 37 18700 (1970) 0 (1964) 701 2 3 4 5 15 54 89 590 6970
2025-09-25 13:30 5.84 35 18700 (1970) 0 (1964) 701 2 3 4 5 15 54 89 590 6970
2025-09-25 13:00 5.84 35 18700 (1970) 0 (1964) 701 2 3 4 5 15 54 89 590 6970
2025-09-25 12:30 5.88 39 18700 (1970) 0 (1964) 701 2 3 4 5 15 54 89 590 6970
2025-09-25 12:00 5.88 39 18700 (1970) 0 (1964) 701 2 3 4 5 15 54 89 590 6970
2025-09-25 11:30 5.88 39 18700 (1970) 0 (1964) 701 2 3 4 5 15 54 89 590 6970
2025-09-25 11:00 5.83 34 18700 (1970) 0 (1964) 701 2 3 4 5 15 54 89 590 6970
2025-09-25 10:30 5.87 38 18700 (1970) 0 (1964) 701 2 3 4 5 15 54 89 590 6970
2025-09-25 10:00 5.90 41 18700 (1970) 0 (1964) 701 2 3 4 5 15 54 89 590 6970
2025-09-25 09:30 5.87 38 18700 (1970) 0 (1964) 701 2 3 4 5 15 54 89 590 6970
2025-09-25 09:00 5.91 42 18700 (1970) 0 (1964) 701 2 3 4 5 15 54 89 590 6970
2025-09-25 08:30 5.91 42 18700 (1970) 0 (1964) 701 2 3 4 5 15 54 89 590 6970
2025-09-25 08:00 5.93 45 18700 (1970) 0 (1964) 701 2 3 4 5 15 54 89 590 6970
2025-09-25 07:30 5.94 46 18700 (1970) 0 (1964) 701 2 3 4 5 15 54 89 590 6970
2025-09-25 07:00 5.95 47 18700 (1970) 0 (1964) 701 2 3 4 5 15 54 89 590 6970
2025-09-25 06:30 5.95 47 18700 (1970) 0 (1964) 701 2 3 4 5 15 54 89 590 6970
2025-09-25 06:00 5.95 47 18700 (1970) 0 (1964) 701 2 3 4 5 15 54 89 590 6970
2025-09-25 05:30 5.96 48 18700 (1970) 0 (1964) 701 2 3 4 5 15 54 89 590 6970
2025-09-25 05:00 5.97 49 18700 (1970) 0 (1964) 701 2 3 4 5 15 54 89 590 6970
2025-09-25 04:30 5.98 51 18700 (1970) 0 (1964) 701 2 3 4 5 15 54 89 590 6970
2025-09-25 04:00 5.99 52 18700 (1970) 0 (1964) 701 2 3 4 5 15 54 89 590 6970
2025-09-25 03:30 5.99 52 18700 (1970) 0 (1964) 701 2 3 4 5 15 54 89 590 6970
2025-09-25 03:00 6.00 53 18700 (1970) 0 (1964) 701 2 3 4 5 15 54 89 590 6970
2025-09-25 02:30 6.01 55 18700 (1970) 0 (1964) 701 2 3 4 5 15 54 89 590 6970
2025-09-25 02:00 6.01 55 18700 (1970) 0 (1964) 701 2 3 4 5 15 54 89 590 6970
2025-09-25 01:30 6.02 56 18700 (1970) 0 (1964) 701 2 3 4 5 15 54 89 590 6970
2025-09-25 01:00 6.02 56 18700 (1970) 0 (1964) 701 2 3 4 5 15 54 89 590 6970
2025-09-25 00:30 6.02 56 18700 (1970) 0 (1964) 701 2 3 4 5 15 54 89 590 6970
2025-09-25 00:00 6.01 55 18700 (1970) 0 (1964) 701 2 3 4 5 15 54 89 590 6970
2025-09-24 23:30 6.01 55 18700 (1970) 0 (1964) 701 2 3 4 5 15 54 89 590 6970
2025-09-24 23:00 5.99 52 18700 (1970) 0 (1964) 701 2 3 4 5 15 54 89 590 6970
2025-09-24 22:30 5.97 49 51500 (1993) 0 (1964) 1090 2 3 4 5 19 54 85 419 2040
2025-09-24 22:00 5.95 47 51500 (1993) 0 (1964) 1090 2 3 4 5 19 54 85 419 2040
2025-09-24 21:30 5.92 43 51500 (1993) 0 (1964) 1090 2 3 4 5 19 54 85 419 2040
2025-09-24 21:00 5.89 40 51500 (1993) 0 (1964) 1090 2 3 4 5 19 54 85 419 2040
2025-09-24 20:30 5.86 37 51500 (1993) 0 (1964) 1090 2 3 4 5 19 54 85 419 2040
2025-09-24 20:00 5.83 34 51500 (1993) 0 (1964) 1090 2 3 4 5 19 54 85 419 2040
2025-09-24 19:30 5.82 33 51500 (1993) 0 (1964) 1090 2 3 4 5 19 54 85 419 2040
2025-09-24 19:00 5.81 32 51500 (1993) 0 (1964) 1090 2 3 4 5 19 54 85 419 2040
2025-09-24 18:30 5.80 31 51500 (1993) 0 (1964) 1090 2 3 4 5 19 54 85 419 2040
2025-09-24 18:00 5.79 30 51500 (1993) 0 (1964) 1090 2 3 4 5 19 54 85 419 2040
2025-09-24 17:30 5.79 30 51500 (1993) 0 (1964) 1090 2 3 4 5 19 54 85 419 2040
2025-09-24 17:00 5.79 30 51500 (1993) 0 (1964) 1090 2 3 4 5 19 54 85 419 2040
2025-09-24 16:30 5.77 29 51500 (1993) 0 (1964) 1090 2 3 4 5 19 54 85 419 2040
2025-09-24 16:00 5.79 30 51500 (1993) 0 (1964) 1090 2 3 4 5 19 54 85 419 2040
2025-09-24 15:30 5.79 30 51500 (1993) 0 (1964) 1090 2 3 4 5 19 54 85 419 2040
2025-09-24 15:00 5.79 30 51500 (1993) 0 (1964) 1090 2 3 4 5 19 54 85 419 2040
2025-09-24 14:30 5.79 30 51500 (1993) 0 (1964) 1090 2 3 4 5 19 54 85 419 2040
2025-09-24 14:00 5.79 30 51500 (1993) 0 (1964) 1090 2 3 4 5 19 54 85 419 2040
2025-09-24 13:30 5.76 28 51500 (1993) 0 (1964) 1090 2 3 4 5 19 54 85 419 2040
2025-09-24 13:00 5.79 30 51500 (1993) 0 (1964) 1090 2 3 4 5 19 54 85 419 2040
2025-09-24 12:30 5.79 30 51500 (1993) 0 (1964) 1090 2 3 4 5 19 54 85 419 2040
2025-09-24 12:00 5.79 30 51500 (1993) 0 (1964) 1090 2 3 4 5 19 54 85 419 2040
2025-09-24 11:30 5.80 31 51500 (1993) 0 (1964) 1090 2 3 4 5 19 54 85 419 2040
2025-09-24 11:00 5.80 31 51500 (1993) 0 (1964) 1090 2 3 4 5 19 54 85 419 2040
2025-09-24 10:30 5.80 31 51500 (1993) 0 (1964) 1090 2 3 4 5 19 54 85 419 2040
2025-09-24 10:00 5.80 31 51500 (1993) 0 (1964) 1090 2 3 4 5 19 54 85 419 2040
2025-09-24 09:30 5.80 31 51500 (1993) 0 (1964) 1090 2 3 4 5 19 54 85 419 2040
2025-09-24 09:00 5.80 31 51500 (1993) 0 (1964) 1090 2 3 4 5 19 54 85 419 2040
2025-09-24 08:30 5.80 31 51500 (1993) 0 (1964) 1090 2 3 4 5 19 54 85 419 2040
2025-09-24 08:00 5.81 32 51500 (1993) 0 (1964) 1090 2 3 4 5 19 54 85 419 2040
2025-09-24 07:30 5.81 32 51500 (1993) 0 (1964) 1090 2 3 4 5 19 54 85 419 2040
2025-09-24 07:00 5.81 32 51500 (1993) 0 (1964) 1090 2 3 4 5 19 54 85 419 2040
2025-09-24 06:30 5.81 32 51500 (1993) 0 (1964) 1090 2 3 4 5 19 54 85 419 2040
2025-09-24 06:00 5.82 33 51500 (1993) 0 (1964) 1090 2 3 4 5 19 54 85 419 2040
2025-09-24 05:30 5.82 33 51500 (1993) 0 (1964) 1090 2 3 4 5 19 54 85 419 2040
2025-09-24 05:00 5.82 33 51500 (1993) 0 (1964) 1090 2 3 4 5 19 54 85 419 2040
2025-09-24 04:30 5.83 34 51500 (1993) 0 (1964) 1090 2 3 4 5 19 54 85 419 2040
2025-09-24 04:00 5.83 34 51500 (1993) 0 (1964) 1090 2 3 4 5 19 54 85 419 2040
2025-09-24 03:30 5.83 34 51500 (1993) 0 (1964) 1090 2 3 4 5 19 54 85 419 2040
2025-09-24 03:00 5.84 35 51500 (1993) 0 (1964) 1090 2 3 4 5 19 54 85 419 2040
2025-09-24 02:30 5.84 35 51500 (1993) 0 (1964) 1090 2 3 4 5 19 54 85 419 2040
2025-09-24 02:00 5.85 36 51500 (1993) 0 (1964) 1090 2 3 4 5 19 54 85 419 2040
2025-09-24 01:30 5.85 36 51500 (1993) 0 (1964) 1090 2 3 4 5 19 54 85 419 2040
2025-09-24 01:00 5.85 36 51500 (1993) 0 (1964) 1090 2 3 4 5 19 54 85 419 2040
2025-09-24 00:30 5.86 37 51500 (1993) 0 (1964) 1090 2 3 4 5 19 54 85 419 2040
2025-09-24 00:00 5.86 37 51500 (1993) 0 (1964) 1090 2 3 4 5 19 54 85 419 2040
2025-09-23 23:30 5.87 38 51500 (1993) 0 (1964) 1090 2 3 4 5 19 54 85 419 2040
2025-09-23 23:00 5.87 38 51500 (1993) 0 (1964) 1090 2 3 4 5 19 54 85 419 2040
2025-09-23 22:30 5.87 38 72200 (1993) 0 (1964) 1300 2 3 5 6 17 61 77 234 3090
2025-09-23 22:00 5.88 39 72200 (1993) 0 (1964) 1300 2 3 5 6 17 61 77 234 3090
2025-09-23 21:30 5.88 39 72200 (1993) 0 (1964) 1300 2 3 5 6 17 61 77 234 3090
2025-09-23 21:00 5.88 39 72200 (1993) 0 (1964) 1300 2 3 5 6 17 61 77 234 3090
2025-09-23 20:30 5.89 40 72200 (1993) 0 (1964) 1300 2 3 5 6 17 61 77 234 3090
2025-09-23 20:00 5.89 40 72200 (1993) 0 (1964) 1300 2 3 5 6 17 61 77 234 3090
2025-09-23 19:30 5.89 40 72200 (1993) 0 (1964) 1300 2 3 5 6 17 61 77 234 3090
2025-09-23 19:00 5.90 41 72200 (1993) 0 (1964) 1300 2 3 5 6 17 61 77 234 3090
2025-09-23 18:30 5.90 41 72200 (1993) 0 (1964) 1300 2 3 5 6 17 61 77 234 3090
2025-09-23 18:00 5.91 42 72200 (1993) 0 (1964) 1300 2 3 5 6 17 61 77 234 3090
2025-09-23 17:30 5.91 42 72200 (1993) 0 (1964) 1300 2 3 5 6 17 61 77 234 3090
2025-09-23 17:00 5.92 43 72200 (1993) 0 (1964) 1300 2 3 5 6 17 61 77 234 3090
2025-09-23 16:30 5.92 43 72200 (1993) 0 (1964) 1300 2 3 5 6 17 61 77 234 3090
2025-09-23 16:00 5.92 43 72200 (1993) 0 (1964) 1300 2 3 5 6 17 61 77 234 3090
2025-09-23 15:30 5.93 45 72200 (1993) 0 (1964) 1300 2 3 5 6 17 61 77 234 3090
2025-09-23 15:00 5.93 45 72200 (1993) 0 (1964) 1300 2 3 5 6 17 61 77 234 3090
2025-09-23 14:30 5.92 43 72200 (1993) 0 (1964) 1300 2 3 5 6 17 61 77 234 3090
2025-09-23 14:00 5.91 42 72200 (1993) 0 (1964) 1300 2 3 5 6 17 61 77 234 3090
2025-09-23 13:30 5.91 42 72200 (1993) 0 (1964) 1300 2 3 5 6 17 61 77 234 3090
2025-09-23 13:00 5.90 41 72200 (1993) 0 (1964) 1300 2 3 5 6 17 61 77 234 3090
2025-09-23 12:30 5.90 41 72200 (1993) 0 (1964) 1300 2 3 5 6 17 61 77 234 3090
2025-09-23 12:00 5.91 42 72200 (1993) 0 (1964) 1300 2 3 5 6 17 61 77 234 3090
2025-09-23 11:30 5.92 43 72200 (1993) 0 (1964) 1300 2 3 5 6 17 61 77 234 3090
2025-09-23 11:00 5.92 43 72200 (1993) 0 (1964) 1300 2 3 5 6 17 61 77 234 3090
2025-09-23 10:00 5.94 46 72200 (1993) 0 (1964) 1300 2 3 5 6 17 61 77 234 3090
2025-09-23 09:30 5.94 46 72200 (1993) 0 (1964) 1300 2 3 5 6 17 61 77 234 3090
2025-09-23 09:00 5.95 47 72200 (1993) 0 (1964) 1300 2 3 5 6 17 61 77 234 3090
2025-09-23 08:30 5.96 48 72200 (1993) 0 (1964) 1300 2 3 5 6 17 61 77 234 3090
2025-09-23 08:00 5.97 49 72200 (1993) 0 (1964) 1300 2 3 5 6 17 61 77 234 3090
2025-09-23 07:30 5.98 51 72200 (1993) 0 (1964) 1300 2 3 5 6 17 61 77 234 3090
2025-09-23 07:00 5.98 51 72200 (1993) 0 (1964) 1300 2 3 5 6 17 61 77 234 3090
2025-09-23 06:30 5.99 52 72200 (1993) 0 (1964) 1300 2 3 5 6 17 61 77 234 3090
2025-09-23 06:00 6.00 53 72200 (1993) 0 (1964) 1300 2 3 5 6 17 61 77 234 3090
2025-09-23 05:30 6.01 55 72200 (1993) 0 (1964) 1300 2 3 5 6 17 61 77 234 3090
2025-09-23 05:00 6.02 56 72200 (1993) 0 (1964) 1300 2 3 5 6 17 61 77 234 3090
2025-09-23 04:30 6.02 56 72200 (1993) 0 (1964) 1300 2 3 5 6 17 61 77 234 3090
2025-09-23 04:00 6.04 59 72200 (1993) 0 (1964) 1300 2 3 5 6 17 61 77 234 3090
2025-09-23 03:30 6.04 59 72200 (1993) 0 (1964) 1300 2 3 5 6 17 61 77 234 3090
2025-09-23 03:00 6.05 60 72200 (1993) 0 (1964) 1300 2 3 5 6 17 61 77 234 3090
2025-09-23 02:30 6.06 62 72200 (1993) 0 (1964) 1300 2 3 5 6 17 61 77 234 3090
2025-09-23 02:00 6.06 62 72200 (1993) 0 (1964) 1300 2 3 5 6 17 61 77 234 3090
2025-09-23 01:30 6.07 63 72200 (1993) 0 (1964) 1300 2 3 5 6 17 61 77 234 3090
2025-09-23 01:00 6.07 63 72200 (1993) 0 (1964) 1300 2 3 5 6 17 61 77 234 3090
2025-09-23 00:30 6.08 65 72200 (1993) 0 (1964) 1300 2 3 5 6 17 61 77 234 3090
2025-09-23 00:00 6.08 65 72200 (1993) 0 (1964) 1300 2 3 5 6 17 61 77 234 3090
2025-09-22 23:30 6.08 65 72200 (1993) 0 (1964) 1300 2 3 5 6 17 61 77 234 3090
2025-09-22 23:00 6.07 63 72200 (1993) 0 (1964) 1300 2 3 5 6 17 61 77 234 3090
2025-09-22 22:30 6.07 63 12000 (1993) 0 (1964) 420 2 3 4 5 15 62 85 219 1360
2025-09-22 22:00 6.06 62 12000 (1993) 0 (1964) 420 2 3 4 5 15 62 85 219 1360
2025-09-22 21:30 6.05 60 12000 (1993) 0 (1964) 420 2 3 4 5 15 62 85 219 1360
2025-09-22 21:00 6.04 59 12000 (1993) 0 (1964) 420 2 3 4 5 15 62 85 219 1360
2025-09-22 20:30 6.03 57 12000 (1993) 0 (1964) 420 2 3 4 5 15 62 85 219 1360
2025-09-22 20:00 6.02 56 12000 (1993) 0 (1964) 420 2 3 4 5 15 62 85 219 1360
2025-09-22 19:30 6.01 55 12000 (1993) 0 (1964) 420 2 3 4 5 15 62 85 219 1360
2025-09-22 19:00 6.01 55 12000 (1993) 0 (1964) 420 2 3 4 5 15 62 85 219 1360
2025-09-22 18:30 6.01 55 12000 (1993) 0 (1964) 420 2 3 4 5 15 62 85 219 1360
2025-09-22 18:00 6.01 55 12000 (1993) 0 (1964) 420 2 3 4 5 15 62 85 219 1360
2025-09-22 17:30 5.96 48 12000 (1993) 0 (1964) 420 2 3 4 5 15 62 85 219 1360
2025-09-22 17:00 6.02 56 12000 (1993) 0 (1964) 420 2 3 4 5 15 62 85 219 1360
2025-09-22 16:30 6.03 57 12000 (1993) 0 (1964) 420 2 3 4 5 15 62 85 219 1360
2025-09-22 16:00 6.03 57 12000 (1993) 0 (1964) 420 2 3 4 5 15 62 85 219 1360
2025-09-22 15:30 6.04 59 12000 (1993) 0 (1964) 420 2 3 4 5 15 62 85 219 1360
2025-09-22 15:00 6.05 60 12000 (1993) 0 (1964) 420 2 3 4 5 15 62 85 219 1360
2025-09-22 14:30 6.06 62 12000 (1993) 0 (1964) 420 2 3 4 5 15 62 85 219 1360
2025-09-22 14:00 6.07 63 12000 (1993) 0 (1964) 420 2 3 4 5 15 62 85 219 1360
2025-09-22 13:30 6.05 60 12000 (1993) 0 (1964) 420 2 3 4 5 15 62 85 219 1360
2025-09-22 13:00 6.08 65 12000 (1993) 0 (1964) 420 2 3 4 5 15 62 85 219 1360
2025-09-22 12:30 6.09 66 12000 (1993) 0 (1964) 420 2 3 4 5 15 62 85 219 1360
2025-09-22 12:00 6.10 68 12000 (1993) 0 (1964) 420 2 3 4 5 15 62 85 219 1360
2025-09-22 11:30 6.11 69 12000 (1993) 0 (1964) 420 2 3 4 5 15 62 85 219 1360
2025-09-22 11:00 6.11 69 12000 (1993) 0 (1964) 420 2 3 4 5 15 62 85 219 1360
2025-09-22 10:30 6.11 69 12000 (1993) 0 (1964) 420 2 3 4 5 15 62 85 219 1360
2025-09-22 10:00 6.12 71 12000 (1993) 0 (1964) 420 2 3 4 5 15 62 85 219 1360
2025-09-22 09:30 6.12 71 12000 (1993) 0 (1964) 420 2 3 4 5 15 62 85 219 1360
2025-09-22 09:00 6.11 69 12000 (1993) 0 (1964) 420 2 3 4 5 15 62 85 219 1360
2025-09-22 08:30 6.11 69 12000 (1993) 0 (1964) 420 2 3 4 5 15 62 85 219 1360
2025-09-22 08:00 6.10 68 12000 (1993) 0 (1964) 420 2 3 4 5 15 62 85 219 1360
2025-09-22 07:30 6.09 66 12000 (1993) 0 (1964) 420 2 3 4 5 15 62 85 219 1360
2025-09-22 07:00 6.09 66 12000 (1993) 0 (1964) 420 2 3 4 5 15 62 85 219 1360
2025-09-22 06:30 6.08 65 12000 (1993) 0 (1964) 420 2 3 4 5 15 62 85 219 1360
2025-09-22 06:00 6.08 65 12000 (1993) 0 (1964) 420 2 3 4 5 15 62 85 219 1360
2025-09-22 05:30 6.08 65 12000 (1993) 0 (1964) 420 2 3 4 5 15 62 85 219 1360
2025-09-22 05:00 6.08 65 12000 (1993) 0 (1964) 420 2 3 4 5 15 62 85 219 1360
2025-09-22 04:30 6.09 66 12000 (1993) 0 (1964) 420 2 3 4 5 15 62 85 219 1360
2025-09-22 04:00 6.09 66 12000 (1993) 0 (1964) 420 2 3 4 5 15 62 85 219 1360
2025-09-22 03:30 6.10 68 12000 (1993) 0 (1964) 420 2 3 4 5 15 62 85 219 1360
2025-09-22 03:00 6.12 71 12000 (1993) 0 (1964) 420 2 3 4 5 15 62 85 219 1360
2025-09-22 02:30 6.13 72 12000 (1993) 0 (1964) 420 2 3 4 5 15 62 85 219 1360
2025-09-22 02:00 6.14 74 12000 (1993) 0 (1964) 420 2 3 4 5 15 62 85 219 1360
2025-09-22 01:30 6.15 76 12000 (1993) 0 (1964) 420 2 3 4 5 15 62 85 219 1360
2025-09-22 01:00 6.16 77 12000 (1993) 0 (1964) 420 2 3 4 5 15 62 85 219 1360
2025-09-22 00:30 6.16 77 12000 (1993) 0 (1964) 420 2 3 4 5 15 62 85 219 1360
2025-09-22 00:00 6.16 77 12000 (1993) 0 (1964) 420 2 3 4 5 15 62 85 219 1360
2025-09-21 23:30 6.15 76 12000 (1993) 0 (1964) 420 2 3 4 5 15 62 85 219 1360
2025-09-21 23:00 6.13 72 12000 (1993) 0 (1964) 420 2 3 4 5 15 62 85 219 1360
2025-09-21 22:30 6.07 63 5260 (2010) 0 (1964) 174 2 3 5 7 15 78 99 268 792
2025-09-21 22:00 5.96 48 5260 (2010) 0 (1964) 174 2 3 5 7 15 78 99 268 792
2025-09-21 21:30 5.81 32 5260 (2010) 0 (1964) 174 2 3 5 7 15 78 99 268 792
2025-09-21 21:00 5.66 20 5260 (2010) 0 (1964) 174 2 3 5 7 15 78 99 268 792
2025-09-21 20:30 5.58 15 5260 (2010) 0 (1964) 174 2 3 5 7 15 78 99 268 792
2025-09-21 20:00 5.57 15 5260 (2010) 0 (1964) 174 2 3 5 7 15 78 99 268 792
2025-09-21 19:30 5.57 15 5260 (2010) 0 (1964) 174 2 3 5 7 15 78 99 268 792
2025-09-21 19:00 5.55 14 5260 (2010) 0 (1964) 174 2 3 5 7 15 78 99 268 792
2025-09-21 18:30 5.53 13 5260 (2010) 0 (1964) 174 2 3 5 7 15 78 99 268 792
2025-09-21 18:00 5.49 11 5260 (2010) 0 (1964) 174 2 3 5 7 15 78 99 268 792
2025-09-21 17:30 5.48 10 5260 (2010) 0 (1964) 174 2 3 5 7 15 78 99 268 792
2025-09-21 17:00 5.54 13 5260 (2010) 0 (1964) 174 2 3 5 7 15 78 99 268 792
2025-09-21 16:30 5.54 13 5260 (2010) 0 (1964) 174 2 3 5 7 15 78 99 268 792
2025-09-21 16:00 5.54 13 5260 (2010) 0 (1964) 174 2 3 5 7 15 78 99 268 792
2025-09-21 15:30 5.54 13 5260 (2010) 0 (1964) 174 2 3 5 7 15 78 99 268 792
2025-09-21 15:00 5.51 12 5260 (2010) 0 (1964) 174 2 3 5 7 15 78 99 268 792
2025-09-21 14:30 5.51 12 5260 (2010) 0 (1964) 174 2 3 5 7 15 78 99 268 792
2025-09-21 14:00 5.53 13 5260 (2010) 0 (1964) 174 2 3 5 7 15 78 99 268 792
2025-09-21 13:30 5.51 12 5260 (2010) 0 (1964) 174 2 3 5 7 15 78 99 268 792
2025-09-21 13:00 5.53 13 5260 (2010) 0 (1964) 174 2 3 5 7 15 78 99 268 792
2025-09-21 12:30 5.53 13 5260 (2010) 0 (1964) 174 2 3 5 7 15 78 99 268 792
2025-09-21 12:00 5.55 14 5260 (2010) 0 (1964) 174 2 3 5 7 15 78 99 268 792
2025-09-21 11:30 5.53 13 5260 (2010) 0 (1964) 174 2 3 5 7 15 78 99 268 792
2025-09-21 11:00 5.47 10 5260 (2010) 0 (1964) 174 2 3 5 7 15 78 99 268 792
2025-09-21 10:30 5.50 11 5260 (2010) 0 (1964) 174 2 3 5 7 15 78 99 268 792
2025-09-21 10:00 5.54 13 5260 (2010) 0 (1964) 174 2 3 5 7 15 78 99 268 792
2025-09-21 09:30 5.54 13 5260 (2010) 0 (1964) 174 2 3 5 7 15 78 99 268 792
2025-09-21 09:00 5.54 13 5260 (2010) 0 (1964) 174 2 3 5 7 15 78 99 268 792
2025-09-21 08:30 5.54 13 5260 (2010) 0 (1964) 174 2 3 5 7 15 78 99 268 792
2025-09-21 08:00 5.55 14 5260 (2010) 0 (1964) 174 2 3 5 7 15 78 99 268 792
2025-09-21 07:30 5.55 14 5260 (2010) 0 (1964) 174 2 3 5 7 15 78 99 268 792
2025-09-21 07:00 5.55 14 5260 (2010) 0 (1964) 174 2 3 5 7 15 78 99 268 792
2025-09-21 06:30 5.55 14 5260 (2010) 0 (1964) 174 2 3 5 7 15 78 99 268 792
2025-09-21 06:00 5.55 14 5260 (2010) 0 (1964) 174 2 3 5 7 15 78 99 268 792
2025-09-21 05:30 5.54 13 5260 (2010) 0 (1964) 174 2 3 5 7 15 78 99 268 792
2025-09-21 05:00 5.55 14 5260 (2010) 0 (1964) 174 2 3 5 7 15 78 99 268 792
2025-09-21 04:30 5.54 13 5260 (2010) 0 (1964) 174 2 3 5 7 15 78 99 268 792
2025-09-21 04:00 5.54 13 5260 (2010) 0 (1964) 174 2 3 5 7 15 78 99 268 792
2025-09-21 03:30 5.55 14 5260 (2010) 0 (1964) 174 2 3 5 7 15 78 99 268 792
2025-09-21 03:00 5.54 13 5260 (2010) 0 (1964) 174 2 3 5 7 15 78 99 268 792
2025-09-21 02:30 5.54 13 5260 (2010) 0 (1964) 174 2 3 5 7 15 78 99 268 792
2025-09-21 02:00 5.54 13 5260 (2010) 0 (1964) 174 2 3 5 7 15 78 99 268 792
2025-09-21 01:30 5.54 13 5260 (2010) 0 (1964) 174 2 3 5 7 15 78 99 268 792
2025-09-21 01:00 5.54 13 5260 (2010) 0 (1964) 174 2 3 5 7 15 78 99 268 792
2025-09-21 00:30 5.54 13 5260 (2010) 0 (1964) 174 2 3 5 7 15 78 99 268 792
2025-09-21 00:00 5.54 13 5260 (2010) 0 (1964) 174 2 3 5 7 15 78 99 268 792
2025-09-20 23:30 5.54 13 5260 (2010) 0 (1964) 174 2 3 5 7 15 78 99 268 792
2025-09-20 23:00 5.54 13 5260 (2010) 0 (1964) 174 2 3 5 7 15 78 99 268 792
2025-09-20 22:30 5.54 13 20000 (2010) 0 (1964) 428 2 3 5 6 16 66 97 267 685
2025-09-20 22:00 5.54 13 20000 (2010) 0 (1964) 428 2 3 5 6 16 66 97 267 685
2025-09-20 21:30 5.54 13 20000 (2010) 0 (1964) 428 2 3 5 6 16 66 97 267 685
2025-09-20 21:00 5.51 12 20000 (2010) 0 (1964) 428 2 3 5 6 16 66 97 267 685
2025-09-20 20:30 5.54 13 20000 (2010) 0 (1964) 428 2 3 5 6 16 66 97 267 685
2025-09-20 20:00 5.54 13 20000 (2010) 0 (1964) 428 2 3 5 6 16 66 97 267 685
2025-09-20 19:30 5.49 11 20000 (2010) 0 (1964) 428 2 3 5 6 16 66 97 267 685
2025-09-20 19:00 5.49 11 20000 (2010) 0 (1964) 428 2 3 5 6 16 66 97 267 685
2025-09-20 18:30 5.53 13 20000 (2010) 0 (1964) 428 2 3 5 6 16 66 97 267 685
2025-09-20 18:00 5.54 13 20000 (2010) 0 (1964) 428 2 3 5 6 16 66 97 267 685
2025-09-20 17:30 5.54 13 20000 (2010) 0 (1964) 428 2 3 5 6 16 66 97 267 685
2025-09-20 17:00 5.51 12 20000 (2010) 0 (1964) 428 2 3 5 6 16 66 97 267 685
2025-09-20 16:30 5.48 10 20000 (2010) 0 (1964) 428 2 3 5 6 16 66 97 267 685
2025-09-20 16:00 5.49 11 20000 (2010) 0 (1964) 428 2 3 5 6 16 66 97 267 685
2025-09-20 15:30 5.54 13 20000 (2010) 0 (1964) 428 2 3 5 6 16 66 97 267 685
2025-09-20 15:00 5.52 12 20000 (2010) 0 (1964) 428 2 3 5 6 16 66 97 267 685
2025-09-20 14:30 5.54 13 20000 (2010) 0 (1964) 428 2 3 5 6 16 66 97 267 685
2025-09-20 14:00 5.55 14 20000 (2010) 0 (1964) 428 2 3 5 6 16 66 97 267 685
2025-09-20 13:30 5.54 13 20000 (2010) 0 (1964) 428 2 3 5 6 16 66 97 267 685
2025-09-20 13:00 5.55 14 20000 (2010) 0 (1964) 428 2 3 5 6 16 66 97 267 685
2025-09-20 12:30 5.55 14 20000 (2010) 0 (1964) 428 2 3 5 6 16 66 97 267 685
2025-09-20 12:00 5.54 13 20000 (2010) 0 (1964) 428 2 3 5 6 16 66 97 267 685
2025-09-20 11:30 5.49 11 20000 (2010) 0 (1964) 428 2 3 5 6 16 66 97 267 685
2025-09-20 11:00 5.55 14 20000 (2010) 0 (1964) 428 2 3 5 6 16 66 97 267 685
2025-09-20 10:30 5.54 13 20000 (2010) 0 (1964) 428 2 3 5 6 16 66 97 267 685
2025-09-20 10:00 5.55 14 20000 (2010) 0 (1964) 428 2 3 5 6 16 66 97 267 685
2025-09-20 09:30 5.55 14 20000 (2010) 0 (1964) 428 2 3 5 6 16 66 97 267 685
2025-09-20 09:00 5.55 14 20000 (2010) 0 (1964) 428 2 3 5 6 16 66 97 267 685
2025-09-20 08:30 5.55 14 20000 (2010) 0 (1964) 428 2 3 5 6 16 66 97 267 685
2025-09-20 08:00 5.55 14 20000 (2010) 0 (1964) 428 2 3 5 6 16 66 97 267 685
2025-09-20 07:30 5.56 14 20000 (2010) 0 (1964) 428 2 3 5 6 16 66 97 267 685
2025-09-20 07:00 5.55 14 20000 (2010) 0 (1964) 428 2 3 5 6 16 66 97 267 685
2025-09-20 06:30 5.55 14 20000 (2010) 0 (1964) 428 2 3 5 6 16 66 97 267 685
2025-09-20 06:00 5.55 14 20000 (2010) 0 (1964) 428 2 3 5 6 16 66 97 267 685
2025-09-20 05:30 5.55 14 20000 (2010) 0 (1964) 428 2 3 5 6 16 66 97 267 685
2025-09-20 05:00 5.55 14 20000 (2010) 0 (1964) 428 2 3 5 6 16 66 97 267 685
2025-09-20 04:30 5.55 14 20000 (2010) 0 (1964) 428 2 3 5 6 16 66 97 267 685
2025-09-20 04:00 5.55 14 20000 (2010) 0 (1964) 428 2 3 5 6 16 66 97 267 685
2025-09-20 03:30 5.55 14 20000 (2010) 0 (1964) 428 2 3 5 6 16 66 97 267 685
2025-09-20 03:00 5.55 14 20000 (2010) 0 (1964) 428 2 3 5 6 16 66 97 267 685
2025-09-20 02:30 5.55 14 20000 (2010) 0 (1964) 428 2 3 5 6 16 66 97 267 685
2025-09-20 02:00 14 20000 (2010) 0 (1964) 428 2 3 5 6 16 66 97 267 685
2025-09-20 01:30 5.55 14 20000 (2010) 0 (1964) 428 2 3 5 6 16 66 97 267 685
2025-09-20 01:00 14 20000 (2010) 0 (1964) 428 2 3 5 6 16 66 97 267 685
2025-09-20 00:30 5.55 14 20000 (2010) 0 (1964) 428 2 3 5 6 16 66 97 267 685
2025-09-20 00:00 5.55 14 20000 (2010) 0 (1964) 428 2 3 5 6 16 66 97 267 685
2025-09-19 23:30 14 20000 (2010) 0 (1964) 428 2 3 5 6 16 66 97 267 685
2025-09-19 23:00 5.55 14 20000 (2010) 0 (1964) 428 2 3 5 6 16 66 97 267 685
2025-09-19 22:30 5.55 14 5960 (2010) 0 (1954) 186 2 3 5 6 16 54 119 464 1070
2025-09-19 22:00 5.55 14 5960 (2010) 0 (1954) 186 2 3 5 6 16 54 119 464 1070
2025-09-19 21:30 5.55 14 5960 (2010) 0 (1954) 186 2 3 5 6 16 54 119 464 1070
2025-09-19 21:00 5.55 14 5960 (2010) 0 (1954) 186 2 3 5 6 16 54 119 464 1070
2025-09-19 20:30 5.55 14 5960 (2010) 0 (1954) 186 2 3 5 6 16 54 119 464 1070
2025-09-19 20:00 5.55 14 5960 (2010) 0 (1954) 186 2 3 5 6 16 54 119 464 1070
2025-09-19 19:30 5.55 14 5960 (2010) 0 (1954) 186 2 3 5 6 16 54 119 464 1070
2025-09-19 19:00 5.55 14 5960 (2010) 0 (1954) 186 2 3 5 6 16 54 119 464 1070
2025-09-19 18:30 5.55 14 5960 (2010) 0 (1954) 186 2 3 5 6 16 54 119 464 1070
2025-09-19 18:00 5.55 14 5960 (2010) 0 (1954) 186 2 3 5 6 16 54 119 464 1070
2025-09-19 17:30 5.55 14 5960 (2010) 0 (1954) 186 2 3 5 6 16 54 119 464 1070
2025-09-19 17:00 5.53 13 5960 (2010) 0 (1954) 186 2 3 5 6 16 54 119 464 1070
2025-09-19 16:30 5.52 12 5960 (2010) 0 (1954) 186 2 3 5 6 16 54 119 464 1070
2025-09-19 16:00 5.55 14 5960 (2010) 0 (1954) 186 2 3 5 6 16 54 119 464 1070
2025-09-19 15:30 5.53 13 5960 (2010) 0 (1954) 186 2 3 5 6 16 54 119 464 1070
2025-09-19 15:00 5.51 12 5960 (2010) 0 (1954) 186 2 3 5 6 16 54 119 464 1070
2025-09-19 14:30 5.49 11 5960 (2010) 0 (1954) 186 2 3 5 6 16 54 119 464 1070
2025-09-19 14:00 5.55 14 5960 (2010) 0 (1954) 186 2 3 5 6 16 54 119 464 1070
2025-09-19 13:30 5.50 11 5960 (2010) 0 (1954) 186 2 3 5 6 16 54 119 464 1070
2025-09-19 13:00 5.55 14 5960 (2010) 0 (1954) 186 2 3 5 6 16 54 119 464 1070
2025-09-19 12:30 5.52 12 5960 (2010) 0 (1954) 186 2 3 5 6 16 54 119 464 1070
2025-09-19 12:00 5.53 13 5960 (2010) 0 (1954) 186 2 3 5 6 16 54 119 464 1070
2025-09-19 11:30 5.54 13 5960 (2010) 0 (1954) 186 2 3 5 6 16 54 119 464 1070
2025-09-19 11:00 5.51 12 5960 (2010) 0 (1954) 186 2 3 5 6 16 54 119 464 1070
2025-09-19 10:30 5.55 14 5960 (2010) 0 (1954) 186 2 3 5 6 16 54 119 464 1070
2025-09-19 10:00 5.56 14 5960 (2010) 0 (1954) 186 2 3 5 6 16 54 119 464 1070
2025-09-19 09:30 5.56 14 5960 (2010) 0 (1954) 186 2 3 5 6 16 54 119 464 1070
2025-09-19 09:00 5.56 14 5960 (2010) 0 (1954) 186 2 3 5 6 16 54 119 464 1070
2025-09-19 08:30 5.56 14 5960 (2010) 0 (1954) 186 2 3 5 6 16 54 119 464 1070
2025-09-19 08:00 5.56 14 5960 (2010) 0 (1954) 186 2 3 5 6 16 54 119 464 1070
2025-09-19 07:30 5.56 14 5960 (2010) 0 (1954) 186 2 3 5 6 16 54 119 464 1070
2025-09-19 07:00 5.56 14 5960 (2010) 0 (1954) 186 2 3 5 6 16 54 119 464 1070
2025-09-19 06:30 5.56 14 5960 (2010) 0 (1954) 186 2 3 5 6 16 54 119 464 1070
2025-09-19 06:00 5.56 14 5960 (2010) 0 (1954) 186 2 3 5 6 16 54 119 464 1070
2025-09-19 05:30 5.56 14 5960 (2010) 0 (1954) 186 2 3 5 6 16 54 119 464 1070
2025-09-19 05:00 5.56 14 5960 (2010) 0 (1954) 186 2 3 5 6 16 54 119 464 1070
2025-09-19 04:30 5.56 14 5960 (2010) 0 (1954) 186 2 3 5 6 16 54 119 464 1070
2025-09-19 04:00 5.57 15 5960 (2010) 0 (1954) 186 2 3 5 6 16 54 119 464 1070
2025-09-19 03:30 5.57 15 5960 (2010) 0 (1954) 186 2 3 5 6 16 54 119 464 1070
2025-09-19 03:00 5.57 15 5960 (2010) 0 (1954) 186 2 3 5 6 16 54 119 464 1070
2025-09-19 02:30 5.57 15 5960 (2010) 0 (1954) 186 2 3 5 6 16 54 119 464 1070
2025-09-19 02:00 5.57 15 5960 (2010) 0 (1954) 186 2 3 5 6 16 54 119 464 1070
2025-09-19 01:30 5.57 15 5960 (2010) 0 (1954) 186 2 3 5 6 16 54 119 464 1070
2025-09-19 01:00 5.57 15 5960 (2010) 0 (1954) 186 2 3 5 6 16 54 119 464 1070
2025-09-19 00:30 5.57 15 5960 (2010) 0 (1954) 186 2 3 5 6 16 54 119 464 1070
2025-09-19 00:00 5.58 15 5960 (2010) 0 (1954) 186 2 3 5 6 16 54 119 464 1070
2025-09-18 23:30 5.54 13 5960 (2010) 0 (1954) 186 2 3 5 6 16 54 119 464 1070
2025-09-18 23:00 5.58 15 5960 (2010) 0 (1954) 186 2 3 5 6 16 54 119 464 1070
2025-09-18 22:30 5.58 15 8400 (1982) 0 (1954) 253 2 3 5 6 17 60 119 378 1340
2025-09-18 22:00 5.49 11 8400 (1982) 0 (1954) 253 2 3 5 6 17 60 119 378 1340
2025-09-18 21:30 5.50 11 8400 (1982) 0 (1954) 253 2 3 5 6 17 60 119 378 1340
2025-09-18 21:00 5.57 15 8400 (1982) 0 (1954) 253 2 3 5 6 17 60 119 378 1340
2025-09-18 20:30 5.57 15 8400 (1982) 0 (1954) 253 2 3 5 6 17 60 119 378 1340
2025-09-18 20:00 5.57 15 8400 (1982) 0 (1954) 253 2 3 5 6 17 60 119 378 1340
2025-09-18 19:30 5.57 15 8400 (1982) 0 (1954) 253 2 3 5 6 17 60 119 378 1340
2025-09-18 19:00 5.57 15 8400 (1982) 0 (1954) 253 2 3 5 6 17 60 119 378 1340
2025-09-18 18:30 5.57 15 8400 (1982) 0 (1954) 253 2 3 5 6 17 60 119 378 1340
2025-09-18 18:00 5.57 15 8400 (1982) 0 (1954) 253 2 3 5 6 17 60 119 378 1340
2025-09-18 17:30 5.57 15 8400 (1982) 0 (1954) 253 2 3 5 6 17 60 119 378 1340
2025-09-18 17:00 5.57 15 8400 (1982) 0 (1954) 253 2 3 5 6 17 60 119 378 1340
2025-09-18 16:30 5.57 15 8400 (1982) 0 (1954) 253 2 3 5 6 17 60 119 378 1340
2025-09-18 16:00 5.57 15 8400 (1982) 0 (1954) 253 2 3 5 6 17 60 119 378 1340
2025-09-18 15:30 5.57 15 8400 (1982) 0 (1954) 253 2 3 5 6 17 60 119 378 1340
2025-09-18 15:00 5.57 15 8400 (1982) 0 (1954) 253 2 3 5 6 17 60 119 378 1340
2025-09-18 14:30 5.57 15 8400 (1982) 0 (1954) 253 2 3 5 6 17 60 119 378 1340
2025-09-18 14:00 5.57 15 8400 (1982) 0 (1954) 253 2 3 5 6 17 60 119 378 1340
2025-09-18 13:30 5.57 15 8400 (1982) 0 (1954) 253 2 3 5 6 17 60 119 378 1340
2025-09-18 13:00 5.57 15 8400 (1982) 0 (1954) 253 2 3 5 6 17 60 119 378 1340
2025-09-18 12:30 5.54 13 8400 (1982) 0 (1954) 253 2 3 5 6 17 60 119 378 1340
2025-09-18 12:00 5.57 15 8400 (1982) 0 (1954) 253 2 3 5 6 17 60 119 378 1340
2025-09-18 11:30 5.57 15 8400 (1982) 0 (1954) 253 2 3 5 6 17 60 119 378 1340
2025-09-18 11:00 5.57 15 8400 (1982) 0 (1954) 253 2 3 5 6 17 60 119 378 1340
2025-09-18 10:30 5.57 15 8400 (1982) 0 (1954) 253 2 3 5 6 17 60 119 378 1340
2025-09-18 10:00 5.56 14 8400 (1982) 0 (1954) 253 2 3 5 6 17 60 119 378 1340
2025-09-18 09:30 5.57 15 8400 (1982) 0 (1954) 253 2 3 5 6 17 60 119 378 1340
2025-09-18 09:00 5.55 14 8400 (1982) 0 (1954) 253 2 3 5 6 17 60 119 378 1340
2025-09-18 08:30 5.57 15 8400 (1982) 0 (1954) 253 2 3 5 6 17 60 119 378 1340
2025-09-18 08:00 5.57 15 8400 (1982) 0 (1954) 253 2 3 5 6 17 60 119 378 1340
2025-09-18 07:30 5.57 15 8400 (1982) 0 (1954) 253 2 3 5 6 17 60 119 378 1340
2025-09-18 07:00 5.57 15 8400 (1982) 0 (1954) 253 2 3 5 6 17 60 119 378 1340
2025-09-18 06:30 5.57 15 8400 (1982) 0 (1954) 253 2 3 5 6 17 60 119 378 1340
2025-09-18 06:00 5.57 15 8400 (1982) 0 (1954) 253 2 3 5 6 17 60 119 378 1340
2025-09-18 05:30 5.57 15 8400 (1982) 0 (1954) 253 2 3 5 6 17 60 119 378 1340
2025-09-18 05:00 5.57 15 8400 (1982) 0 (1954) 253 2 3 5 6 17 60 119 378 1340
2025-09-18 04:30 5.57 15 8400 (1982) 0 (1954) 253 2 3 5 6 17 60 119 378 1340
2025-09-18 04:00 5.57 15 8400 (1982) 0 (1954) 253 2 3 5 6 17 60 119 378 1340
2025-09-18 03:30 5.57 15 8400 (1982) 0 (1954) 253 2 3 5 6 17 60 119 378 1340
2025-09-18 03:00 5.57 15 8400 (1982) 0 (1954) 253 2 3 5 6 17 60 119 378 1340
2025-09-18 02:30 5.57 15 8400 (1982) 0 (1954) 253 2 3 5 6 17 60 119 378 1340
2025-09-18 02:00 5.57 15 8400 (1982) 0 (1954) 253 2 3 5 6 17 60 119 378 1340
2025-09-18 01:30 5.57 15 8400 (1982) 0 (1954) 253 2 3 5 6 17 60 119 378 1340
2025-09-18 01:00 5.57 15 8400 (1982) 0 (1954) 253 2 3 5 6 17 60 119 378 1340
2025-09-18 00:30 5.57 15 8400 (1982) 0 (1954) 253 2 3 5 6 17 60 119 378 1340
2025-09-18 00:00 5.57 15 8400 (1982) 0 (1954) 253 2 3 5 6 17 60 119 378 1340
2025-09-17 23:30 5.57 15 8400 (1982) 0 (1954) 253 2 3 5 6 17 60 119 378 1340
2025-09-17 23:00 5.57 15 8400 (1982) 0 (1954) 253 2 3 5 6 17 60 119 378 1340
2025-09-17 22:30 5.57 15 10700 (1965) 0 (1954) 355 2 3 5 6 17 79 156 929 1490
2025-09-17 22:00 5.57 15 10700 (1965) 0 (1954) 355 2 3 5 6 17 79 156 929 1490
2025-09-17 21:30 5.57 15 10700 (1965) 0 (1954) 355 2 3 5 6 17 79 156 929 1490
2025-09-17 21:00 5.57 15 10700 (1965) 0 (1954) 355 2 3 5 6 17 79 156 929 1490
2025-09-17 20:30 14 10700 (1965) 0 (1954) 355 2 3 5 6 17 79 156 929 1490
2025-09-17 20:00 5.56 14 10700 (1965) 0 (1954) 355 2 3 5 6 17 79 156 929 1490
2025-09-17 19:30 5.56 14 10700 (1965) 0 (1954) 355 2 3 5 6 17 79 156 929 1490
2025-09-17 19:00 5.57 15 10700 (1965) 0 (1954) 355 2 3 5 6 17 79 156 929 1490
2025-09-17 18:30 5.57 15 10700 (1965) 0 (1954) 355 2 3 5 6 17 79 156 929 1490
2025-09-17 18:00 5.57 15 10700 (1965) 0 (1954) 355 2 3 5 6 17 79 156 929 1490
2025-09-17 17:30 5.57 15 10700 (1965) 0 (1954) 355 2 3 5 6 17 79 156 929 1490
2025-09-17 17:00 5.57 15 10700 (1965) 0 (1954) 355 2 3 5 6 17 79 156 929 1490
2025-09-17 16:30 5.57 15 10700 (1965) 0 (1954) 355 2 3 5 6 17 79 156 929 1490
2025-09-17 16:00 5.57 15 10700 (1965) 0 (1954) 355 2 3 5 6 17 79 156 929 1490
2025-09-17 15:30 5.57 15 10700 (1965) 0 (1954) 355 2 3 5 6 17 79 156 929 1490
2025-09-17 15:00 5.57 15 10700 (1965) 0 (1954) 355 2 3 5 6 17 79 156 929 1490
2025-09-17 14:30 5.58 15 10700 (1965) 0 (1954) 355 2 3 5 6 17 79 156 929 1490
2025-09-17 14:00 5.57 15 10700 (1965) 0 (1954) 355 2 3 5 6 17 79 156 929 1490
2025-09-17 13:30 5.54 13 10700 (1965) 0 (1954) 355 2 3 5 6 17 79 156 929 1490
2025-09-17 13:00 5.58 15 10700 (1965) 0 (1954) 355 2 3 5 6 17 79 156 929 1490
2025-09-17 12:30 5.58 15 10700 (1965) 0 (1954) 355 2 3 5 6 17 79 156 929 1490
2025-09-17 12:00 5.56 14 10700 (1965) 0 (1954) 355 2 3 5 6 17 79 156 929 1490
2025-09-17 11:30 5.58 15 10700 (1965) 0 (1954) 355 2 3 5 6 17 79 156 929 1490
2025-09-17 11:00 5.58 15 10700 (1965) 0 (1954) 355 2 3 5 6 17 79 156 929 1490
2025-09-17 10:30 5.58 15 10700 (1965) 0 (1954) 355 2 3 5 6 17 79 156 929 1490
2025-09-17 10:00 5.58 15 10700 (1965) 0 (1954) 355 2 3 5 6 17 79 156 929 1490
2025-09-17 09:30 5.58 15 10700 (1965) 0 (1954) 355 2 3 5 6 17 79 156 929 1490
2025-09-17 09:00 5.58 15 10700 (1965) 0 (1954) 355 2 3 5 6 17 79 156 929 1490
2025-09-17 08:30 5.58 15 10700 (1965) 0 (1954) 355 2 3 5 6 17 79 156 929 1490
2025-09-17 08:00 5.58 15 10700 (1965) 0 (1954) 355 2 3 5 6 17 79 156 929 1490
2025-09-17 07:30 5.58 15 10700 (1965) 0 (1954) 355 2 3 5 6 17 79 156 929 1490
2025-09-17 07:00 5.58 15 10700 (1965) 0 (1954) 355 2 3 5 6 17 79 156 929 1490
2025-09-17 06:30 5.58 15 10700 (1965) 0 (1954) 355 2 3 5 6 17 79 156 929 1490
2025-09-17 06:00 5.58 15 10700 (1965) 0 (1954) 355 2 3 5 6 17 79 156 929 1490
2025-09-17 05:30 5.58 15 10700 (1965) 0 (1954) 355 2 3 5 6 17 79 156 929 1490
2025-09-17 05:00 5.58 15 10700 (1965) 0 (1954) 355 2 3 5 6 17 79 156 929 1490
2025-09-17 04:30 5.58 15 10700 (1965) 0 (1954) 355 2 3 5 6 17 79 156 929 1490
2025-09-17 04:00 5.58 15 10700 (1965) 0 (1954) 355 2 3 5 6 17 79 156 929 1490
2025-09-17 03:30 5.58 15 10700 (1965) 0 (1954) 355 2 3 5 6 17 79 156 929 1490
2025-09-17 03:00 5.58 15 10700 (1965) 0 (1954) 355 2 3 5 6 17 79 156 929 1490
2025-09-17 02:30 5.58 15 10700 (1965) 0 (1954) 355 2 3 5 6 17 79 156 929 1490
2025-09-17 02:00 5.57 15 10700 (1965) 0 (1954) 355 2 3 5 6 17 79 156 929 1490
2025-09-17 01:30 5.58 15 10700 (1965) 0 (1954) 355 2 3 5 6 17 79 156 929 1490
2025-09-17 01:00 5.58 15 10700 (1965) 0 (1954) 355 2 3 5 6 17 79 156 929 1490
2025-09-17 00:30 5.57 15 10700 (1965) 0 (1954) 355 2 3 5 6 17 79 156 929 1490
2025-09-17 00:00 5.57 15 10700 (1965) 0 (1954) 355 2 3 5 6 17 79 156 929 1490
2025-09-16 23:30 5.57 15 10700 (1965) 0 (1954) 355 2 3 5 6 17 79 156 929 1490
2025-09-16 23:00 5.57 15 10700 (1965) 0 (1954) 355 2 3 5 6 17 79 156 929 1490
2025-09-16 22:30 5.57 15 10100 (2008) 0 (1954) 413 2 3 5 6 18 84 128 875 2390
2025-09-16 22:00 5.57 15 10100 (2008) 0 (1954) 413 2 3 5 6 18 84 128 875 2390
2025-09-16 21:30 5.57 15 10100 (2008) 0 (1954) 413 2 3 5 6 18 84 128 875 2390
2025-09-16 21:00 5.57 15 10100 (2008) 0 (1954) 413 2 3 5 6 18 84 128 875 2390
2025-09-16 20:30 5.57 15 10100 (2008) 0 (1954) 413 2 3 5 6 18 84 128 875 2390
2025-09-16 20:00 5.57 15 10100 (2008) 0 (1954) 413 2 3 5 6 18 84 128 875 2390
2025-09-16 19:30 5.57 15 10100 (2008) 0 (1954) 413 2 3 5 6 18 84 128 875 2390
2025-09-16 19:00 5.57 15 10100 (2008) 0 (1954) 413 2 3 5 6 18 84 128 875 2390
2025-09-16 18:30 5.57 15 10100 (2008) 0 (1954) 413 2 3 5 6 18 84 128 875 2390
2025-09-16 18:00 5.57 15 10100 (2008) 0 (1954) 413 2 3 5 6 18 84 128 875 2390
2025-09-16 17:30 5.58 15 10100 (2008) 0 (1954) 413 2 3 5 6 18 84 128 875 2390
2025-09-16 17:00 5.57 15 10100 (2008) 0 (1954) 413 2 3 5 6 18 84 128 875 2390
2025-09-16 16:30 5.55 14 10100 (2008) 0 (1954) 413 2 3 5 6 18 84 128 875 2390
2025-09-16 16:00 5.54 13 10100 (2008) 0 (1954) 413 2 3 5 6 18 84 128 875 2390
2025-09-16 15:30 5.55 14 10100 (2008) 0 (1954) 413 2 3 5 6 18 84 128 875 2390
2025-09-16 15:00 5.53 13 10100 (2008) 0 (1954) 413 2 3 5 6 18 84 128 875 2390
2025-09-16 14:30 5.58 15 10100 (2008) 0 (1954) 413 2 3 5 6 18 84 128 875 2390
2025-09-16 14:00 5.55 14 10100 (2008) 0 (1954) 413 2 3 5 6 18 84 128 875 2390
2025-09-16 13:30 5.58 15 10100 (2008) 0 (1954) 413 2 3 5 6 18 84 128 875 2390
2025-09-16 13:00 5.59 16 10100 (2008) 0 (1954) 413 2 3 5 6 18 84 128 875 2390
2025-09-16 12:30 5.58 15 10100 (2008) 0 (1954) 413 2 3 5 6 18 84 128 875 2390
2025-09-16 12:00 5.57 15 10100 (2008) 0 (1954) 413 2 3 5 6 18 84 128 875 2390
2025-09-16 11:30 5.58 15 10100 (2008) 0 (1954) 413 2 3 5 6 18 84 128 875 2390
2025-09-16 11:00 5.58 15 10100 (2008) 0 (1954) 413 2 3 5 6 18 84 128 875 2390
2025-09-16 10:30 5.59 16 10100 (2008) 0 (1954) 413 2 3 5 6 18 84 128 875 2390
2025-09-16 10:00 5.58 15 10100 (2008) 0 (1954) 413 2 3 5 6 18 84 128 875 2390
2025-09-16 09:30 5.59 16 10100 (2008) 0 (1954) 413 2 3 5 6 18 84 128 875 2390
2025-09-16 09:00 5.59 16 10100 (2008) 0 (1954) 413 2 3 5 6 18 84 128 875 2390
2025-09-16 08:30 5.59 16 10100 (2008) 0 (1954) 413 2 3 5 6 18 84 128 875 2390
2025-09-16 08:00 5.59 16 10100 (2008) 0 (1954) 413 2 3 5 6 18 84 128 875 2390
2025-09-16 07:30 5.59 16 10100 (2008) 0 (1954) 413 2 3 5 6 18 84 128 875 2390
2025-09-16 07:00 5.59 16 10100 (2008) 0 (1954) 413 2 3 5 6 18 84 128 875 2390
2025-09-16 06:30 5.59 16 10100 (2008) 0 (1954) 413 2 3 5 6 18 84 128 875 2390
2025-09-16 06:00 5.59 16 10100 (2008) 0 (1954) 413 2 3 5 6 18 84 128 875 2390
2025-09-16 05:30 5.59 16 10100 (2008) 0 (1954) 413 2 3 5 6 18 84 128 875 2390
2025-09-16 05:00 5.60 16 10100 (2008) 0 (1954) 413 2 3 5 6 18 84 128 875 2390
2025-09-16 04:30 5.59 16 10100 (2008) 0 (1954) 413 2 3 5 6 18 84 128 875 2390
2025-09-16 04:00 5.60 16 10100 (2008) 0 (1954) 413 2 3 5 6 18 84 128 875 2390
2025-09-16 03:30 5.60 16 10100 (2008) 0 (1954) 413 2 3 5 6 18 84 128 875 2390
2025-09-16 03:00 5.60 16 10100 (2008) 0 (1954) 413 2 3 5 6 18 84 128 875 2390
2025-09-16 02:30 5.60 16 10100 (2008) 0 (1954) 413 2 3 5 6 18 84 128 875 2390
2025-09-16 02:00 5.60 16 10100 (2008) 0 (1954) 413 2 3 5 6 18 84 128 875 2390
2025-09-16 01:30 5.60 16 10100 (2008) 0 (1954) 413 2 3 5 6 18 84 128 875 2390
2025-09-16 01:00 5.60 16 10100 (2008) 0 (1954) 413 2 3 5 6 18 84 128 875 2390
2025-09-16 00:30 5.60 16 10100 (2008) 0 (1954) 413 2 3 5 6 18 84 128 875 2390
2025-09-16 00:00 5.60 16 10100 (2008) 0 (1954) 413 2 3 5 6 18 84 128 875 2390
2025-09-15 23:30 5.60 16 10100 (2008) 0 (1954) 413 2 3 5 6 18 84 128 875 2390
2025-09-15 23:00 5.60 16 10100 (2008) 0 (1954) 413 2 3 5 6 18 84 128 875 2390
2025-09-15 22:30 5.59 16 50600 (1993) 0 (1954) 1260 2 3 5 6 20 46 109 489 2600
2025-09-15 22:00 5.60 16 50600 (1993) 0 (1954) 1260 2 3 5 6 20 46 109 489 2600
2025-09-15 21:30 5.60 16 50600 (1993) 0 (1954) 1260 2 3 5 6 20 46 109 489 2600
2025-09-15 21:00 5.60 16 50600 (1993) 0 (1954) 1260 2 3 5 6 20 46 109 489 2600
2025-09-15 20:30 5.60 16 50600 (1993) 0 (1954) 1260 2 3 5 6 20 46 109 489 2600
2025-09-15 20:00 5.60 16 50600 (1993) 0 (1954) 1260 2 3 5 6 20 46 109 489 2600
2025-09-15 19:30 5.54 13 50600 (1993) 0 (1954) 1260 2 3 5 6 20 46 109 489 2600
2025-09-15 19:00 5.60 16 50600 (1993) 0 (1954) 1260 2 3 5 6 20 46 109 489 2600
2025-09-15 18:30 5.60 16 50600 (1993) 0 (1954) 1260 2 3 5 6 20 46 109 489 2600
2025-09-15 18:00 5.60 16 50600 (1993) 0 (1954) 1260 2 3 5 6 20 46 109 489 2600
2025-09-15 17:30 5.60 16 50600 (1993) 0 (1954) 1260 2 3 5 6 20 46 109 489 2600
2025-09-15 17:00 5.60 16 50600 (1993) 0 (1954) 1260 2 3 5 6 20 46 109 489 2600
2025-09-15 16:30 5.60 16 50600 (1993) 0 (1954) 1260 2 3 5 6 20 46 109 489 2600
2025-09-15 16:00 5.54 13 50600 (1993) 0 (1954) 1260 2 3 5 6 20 46 109 489 2600
2025-09-15 15:30 5.56 14 50600 (1993) 0 (1954) 1260 2 3 5 6 20 46 109 489 2600
2025-09-15 15:00 5.55 14 50600 (1993) 0 (1954) 1260 2 3 5 6 20 46 109 489 2600
2025-09-15 14:30 5.54 13 50600 (1993) 0 (1954) 1260 2 3 5 6 20 46 109 489 2600
2025-09-15 14:00 5.56 14 50600 (1993) 0 (1954) 1260 2 3 5 6 20 46 109 489 2600
2025-09-15 13:30 5.60 16 50600 (1993) 0 (1954) 1260 2 3 5 6 20 46 109 489 2600
2025-09-15 13:00 5.60 16 50600 (1993) 0 (1954) 1260 2 3 5 6 20 46 109 489 2600
2025-09-15 12:30 5.55 14 50600 (1993) 0 (1954) 1260 2 3 5 6 20 46 109 489 2600
2025-09-15 12:00 5.55 14 50600 (1993) 0 (1954) 1260 2 3 5 6 20 46 109 489 2600
2025-09-15 11:30 5.60 16 50600 (1993) 0 (1954) 1260 2 3 5 6 20 46 109 489 2600
2025-09-15 11:00 5.60 16 50600 (1993) 0 (1954) 1260 2 3 5 6 20 46 109 489 2600
2025-09-15 10:00 5.53 13 50600 (1993) 0 (1954) 1260 2 3 5 6 20 46 109 489 2600
2025-09-15 08:30 5.60 16 50600 (1993) 0 (1954) 1260 2 3 5 6 20 46 109 489 2600
2025-09-15 08:00 5.60 16 50600 (1993) 0 (1954) 1260 2 3 5 6 20 46 109 489 2600
2025-09-15 07:30 5.60 16 50600 (1993) 0 (1954) 1260 2 3 5 6 20 46 109 489 2600
2025-09-15 07:00 5.60 16 50600 (1993) 0 (1954) 1260 2 3 5 6 20 46 109 489 2600
2025-09-15 06:30 5.60 16 50600 (1993) 0 (1954) 1260 2 3 5 6 20 46 109 489 2600
2025-09-15 06:00 5.60 16 50600 (1993) 0 (1954) 1260 2 3 5 6 20 46 109 489 2600
2025-09-15 05:30 5.60 16 50600 (1993) 0 (1954) 1260 2 3 5 6 20 46 109 489 2600
2025-09-15 05:00 5.61 17 50600 (1993) 0 (1954) 1260 2 3 5 6 20 46 109 489 2600
2025-09-15 04:30 5.60 16 50600 (1993) 0 (1954) 1260 2 3 5 6 20 46 109 489 2600
2025-09-15 04:00 5.60 16 50600 (1993) 0 (1954) 1260 2 3 5 6 20 46 109 489 2600
2025-09-15 03:30 5.60 16 50600 (1993) 0 (1954) 1260 2 3 5 6 20 46 109 489 2600
2025-09-15 03:00 5.60 16 50600 (1993) 0 (1954) 1260 2 3 5 6 20 46 109 489 2600
2025-09-15 02:30 5.60 16 50600 (1993) 0 (1954) 1260 2 3 5 6 20 46 109 489 2600
2025-09-15 02:00 5.60 16 50600 (1993) 0 (1954) 1260 2 3 5 6 20 46 109 489 2600
2025-09-15 01:30 5.60 16 50600 (1993) 0 (1954) 1260 2 3 5 6 20 46 109 489 2600
2025-09-15 01:00 5.60 16 50600 (1993) 0 (1954) 1260 2 3 5 6 20 46 109 489 2600
2025-09-15 00:30 5.60 16 50600 (1993) 0 (1954) 1260 2 3 5 6 20 46 109 489 2600
2025-09-15 00:00 5.60 16 50600 (1993) 0 (1954) 1260 2 3 5 6 20 46 109 489 2600
2025-09-14 23:30 5.60 16 50600 (1993) 0 (1954) 1260 2 3 5 6 20 46 109 489 2600
2025-09-14 23:00 5.60 16 50600 (1993) 0 (1954) 1260 2 3 5 6 20 46 109 489 2600
2025-09-14 22:30 5.60 16 21100 (2008) 0 (1954) 793 2 3 5 6 19 46 165 1030 3870
2025-09-14 22:00 5.60 16 21100 (2008) 0 (1954) 793 2 3 5 6 19 46 165 1030 3870
2025-09-14 21:30 5.60 16 21100 (2008) 0 (1954) 793 2 3 5 6 19 46 165 1030 3870
2025-09-14 21:00 5.60 16 21100 (2008) 0 (1954) 793 2 3 5 6 19 46 165 1030 3870
2025-09-14 20:30 5.60 16 21100 (2008) 0 (1954) 793 2 3 5 6 19 46 165 1030 3870
2025-09-14 20:00 5.60 16 21100 (2008) 0 (1954) 793 2 3 5 6 19 46 165 1030 3870
2025-09-14 19:30 5.60 16 21100 (2008) 0 (1954) 793 2 3 5 6 19 46 165 1030 3870
2025-09-14 19:00 5.60 16 21100 (2008) 0 (1954) 793 2 3 5 6 19 46 165 1030 3870
2025-09-14 18:30 5.60 16 21100 (2008) 0 (1954) 793 2 3 5 6 19 46 165 1030 3870
2025-09-14 18:00 5.60 16 21100 (2008) 0 (1954) 793 2 3 5 6 19 46 165 1030 3870
2025-09-14 17:30 5.60 16 21100 (2008) 0 (1954) 793 2 3 5 6 19 46 165 1030 3870
2025-09-14 17:00 5.60 16 21100 (2008) 0 (1954) 793 2 3 5 6 19 46 165 1030 3870
2025-09-14 16:30 5.61 17 21100 (2008) 0 (1954) 793 2 3 5 6 19 46 165 1030 3870
2025-09-14 16:00 5.56 14 21100 (2008) 0 (1954) 793 2 3 5 6 19 46 165 1030 3870
2025-09-14 15:30 5.61 17 21100 (2008) 0 (1954) 793 2 3 5 6 19 46 165 1030 3870
2025-09-14 15:00 5.60 16 21100 (2008) 0 (1954) 793 2 3 5 6 19 46 165 1030 3870
2025-09-14 14:30 5.58 15 21100 (2008) 0 (1954) 793 2 3 5 6 19 46 165 1030 3870
2025-09-14 14:00 5.61 17 21100 (2008) 0 (1954) 793 2 3 5 6 19 46 165 1030 3870
2025-09-14 13:30 5.61 17 21100 (2008) 0 (1954) 793 2 3 5 6 19 46 165 1030 3870
2025-09-14 13:00 5.61 17 21100 (2008) 0 (1954) 793 2 3 5 6 19 46 165 1030 3870
2025-09-14 12:30 5.61 17 21100 (2008) 0 (1954) 793 2 3 5 6 19 46 165 1030 3870
2025-09-14 12:00 5.61 17 21100 (2008) 0 (1954) 793 2 3 5 6 19 46 165 1030 3870
2025-09-14 11:30 5.61 17 21100 (2008) 0 (1954) 793 2 3 5 6 19 46 165 1030 3870
2025-09-14 11:00 5.61 17 21100 (2008) 0 (1954) 793 2 3 5 6 19 46 165 1030 3870
2025-09-14 10:30 5.60 16 21100 (2008) 0 (1954) 793 2 3 5 6 19 46 165 1030 3870
2025-09-14 10:00 5.61 17 21100 (2008) 0 (1954) 793 2 3 5 6 19 46 165 1030 3870
2025-09-14 09:30 5.61 17 21100 (2008) 0 (1954) 793 2 3 5 6 19 46 165 1030 3870
2025-09-14 09:00 5.61 17 21100 (2008) 0 (1954) 793 2 3 5 6 19 46 165 1030 3870
2025-09-14 08:30 5.61 17 21100 (2008) 0 (1954) 793 2 3 5 6 19 46 165 1030 3870
2025-09-14 08:00 5.61 17 21100 (2008) 0 (1954) 793 2 3 5 6 19 46 165 1030 3870
2025-09-14 07:30 5.62 18 21100 (2008) 0 (1954) 793 2 3 5 6 19 46 165 1030 3870
2025-09-14 07:00 5.62 18 21100 (2008) 0 (1954) 793 2 3 5 6 19 46 165 1030 3870
2025-09-14 06:30 5.61 17 21100 (2008) 0 (1954) 793 2 3 5 6 19 46 165 1030 3870
2025-09-14 06:00 5.62 18 21100 (2008) 0 (1954) 793 2 3 5 6 19 46 165 1030 3870
2025-09-14 05:30 5.62 18 21100 (2008) 0 (1954) 793 2 3 5 6 19 46 165 1030 3870
2025-09-14 05:00 5.62 18 21100 (2008) 0 (1954) 793 2 3 5 6 19 46 165 1030 3870
2025-09-14 04:30 5.62 18 21100 (2008) 0 (1954) 793 2 3 5 6 19 46 165 1030 3870
2025-09-14 04:00 5.62 18 21100 (2008) 0 (1954) 793 2 3 5 6 19 46 165 1030 3870
2025-09-14 03:30 5.62 18 21100 (2008) 0 (1954) 793 2 3 5 6 19 46 165 1030 3870
2025-09-14 03:00 5.62 18 21100 (2008) 0 (1954) 793 2 3 5 6 19 46 165 1030 3870
2025-09-14 02:30 5.62 18 21100 (2008) 0 (1954) 793 2 3 5 6 19 46 165 1030 3870
2025-09-14 02:00 18 21100 (2008) 0 (1954) 793 2 3 5 6 19 46 165 1030 3870
2025-09-14 01:30 5.62 18 21100 (2008) 0 (1954) 793 2 3 5 6 19 46 165 1030 3870
2025-09-14 01:00 18 21100 (2008) 0 (1954) 793 2 3 5 6 19 46 165 1030 3870
2025-09-14 00:30 5.62 18 21100 (2008) 0 (1954) 793 2 3 5 6 19 46 165 1030 3870
2025-09-14 00:00 5.62 18 21100 (2008) 0 (1954) 793 2 3 5 6 19 46 165 1030 3870
2025-09-13 23:30 18 21100 (2008) 0 (1954) 793 2 3 5 6 19 46 165 1030 3870
2025-09-13 23:00 5.62 18 21100 (2008) 0 (1954) 793 2 3 5 6 19 46 165 1030 3870
2025-09-13 22:30 5.62 18 13000 (1949) 0 (1954) 360 2 3 5 6 20 53 88 702 1080
2025-09-13 22:00 5.62 18 13000 (1949) 0 (1954) 360 2 3 5 6 20 53 88 702 1080
2025-09-13 21:30 5.62 18 13000 (1949) 0 (1954) 360 2 3 5 6 20 53 88 702 1080
2025-09-13 21:00 5.62 18 13000 (1949) 0 (1954) 360 2 3 5 6 20 53 88 702 1080
2025-09-13 20:30 5.62 18 13000 (1949) 0 (1954) 360 2 3 5 6 20 53 88 702 1080
2025-09-13 20:00 5.61 17 13000 (1949) 0 (1954) 360 2 3 5 6 20 53 88 702 1080
2025-09-13 19:30 5.62 18 13000 (1949) 0 (1954) 360 2 3 5 6 20 53 88 702 1080
2025-09-13 19:00 5.62 18 13000 (1949) 0 (1954) 360 2 3 5 6 20 53 88 702 1080
2025-09-13 18:30 5.62 18 13000 (1949) 0 (1954) 360 2 3 5 6 20 53 88 702 1080
2025-09-13 18:00 5.62 18 13000 (1949) 0 (1954) 360 2 3 5 6 20 53 88 702 1080
2025-09-13 17:30 5.62 18 13000 (1949) 0 (1954) 360 2 3 5 6 20 53 88 702 1080
2025-09-13 17:00 5.62 18 13000 (1949) 0 (1954) 360 2 3 5 6 20 53 88 702 1080
2025-09-13 16:30 5.62 18 13000 (1949) 0 (1954) 360 2 3 5 6 20 53 88 702 1080
2025-09-13 16:00 5.63 18 13000 (1949) 0 (1954) 360 2 3 5 6 20 53 88 702 1080
2025-09-13 15:30 5.61 17 13000 (1949) 0 (1954) 360 2 3 5 6 20 53 88 702 1080
2025-09-13 15:00 5.63 18 13000 (1949) 0 (1954) 360 2 3 5 6 20 53 88 702 1080
2025-09-13 14:30 5.58 15 13000 (1949) 0 (1954) 360 2 3 5 6 20 53 88 702 1080
2025-09-13 14:00 5.62 18 13000 (1949) 0 (1954) 360 2 3 5 6 20 53 88 702 1080
2025-09-13 13:30 5.63 18 13000 (1949) 0 (1954) 360 2 3 5 6 20 53 88 702 1080
2025-09-13 13:00 5.63 18 13000 (1949) 0 (1954) 360 2 3 5 6 20 53 88 702 1080
2025-09-13 12:30 5.63 18 13000 (1949) 0 (1954) 360 2 3 5 6 20 53 88 702 1080
2025-09-13 12:00 5.63 18 13000 (1949) 0 (1954) 360 2 3 5 6 20 53 88 702 1080
2025-09-13 11:30 5.62 18 13000 (1949) 0 (1954) 360 2 3 5 6 20 53 88 702 1080
2025-09-13 11:00 5.62 18 13000 (1949) 0 (1954) 360 2 3 5 6 20 53 88 702 1080
2025-09-13 10:30 5.62 18 13000 (1949) 0 (1954) 360 2 3 5 6 20 53 88 702 1080
2025-09-13 10:00 5.62 18 13000 (1949) 0 (1954) 360 2 3 5 6 20 53 88 702 1080
2025-09-13 09:30 5.62 18 13000 (1949) 0 (1954) 360 2 3 5 6 20 53 88 702 1080
2025-09-13 09:00 5.62 18 13000 (1949) 0 (1954) 360 2 3 5 6 20 53 88 702 1080
2025-09-13 08:30 5.63 18 13000 (1949) 0 (1954) 360 2 3 5 6 20 53 88 702 1080
2025-09-13 08:00 5.63 18 13000 (1949) 0 (1954) 360 2 3 5 6 20 53 88 702 1080
2025-09-13 07:30 5.63 18 13000 (1949) 0 (1954) 360 2 3 5 6 20 53 88 702 1080
2025-09-13 07:00 5.63 18 13000 (1949) 0 (1954) 360 2 3 5 6 20 53 88 702 1080
2025-09-13 06:30 5.63 18 13000 (1949) 0 (1954) 360 2 3 5 6 20 53 88 702 1080
2025-09-13 06:00 5.63 18 13000 (1949) 0 (1954) 360 2 3 5 6 20 53 88 702 1080
2025-09-13 05:30 5.63 18 13000 (1949) 0 (1954) 360 2 3 5 6 20 53 88 702 1080
2025-09-13 05:00 18 13000 (1949) 0 (1954) 360 2 3 5 6 20 53 88 702 1080
2025-09-13 04:30 5.63 18 13000 (1949) 0 (1954) 360 2 3 5 6 20 53 88 702 1080
2025-09-13 04:00 5.63 18 13000 (1949) 0 (1954) 360 2 3 5 6 20 53 88 702 1080
2025-09-13 03:30 18 13000 (1949) 0 (1954) 360 2 3 5 6 20 53 88 702 1080
2025-09-13 03:00 18 13000 (1949) 0 (1954) 360 2 3 5 6 20 53 88 702 1080
2025-09-13 02:30 18 13000 (1949) 0 (1954) 360 2 3 5 6 20 53 88 702 1080
2025-09-13 02:00 18 13000 (1949) 0 (1954) 360 2 3 5 6 20 53 88 702 1080
2025-09-13 01:30 18 13000 (1949) 0 (1954) 360 2 3 5 6 20 53 88 702 1080
2025-09-13 01:00 5.63 18 13000 (1949) 0 (1954) 360 2 3 5 6 20 53 88 702 1080
2025-09-13 00:30 18 13000 (1949) 0 (1954) 360 2 3 5 6 20 53 88 702 1080
2025-09-13 00:00 18 13000 (1949) 0 (1954) 360 2 3 5 6 20 53 88 702 1080
2025-09-12 23:30 5.63 18 13000 (1949) 0 (1954) 360 2 3 5 6 20 53 88 702 1080
2025-09-12 23:00 18 13000 (1949) 0 (1954) 360 2 3 5 6 20 53 88 702 1080
2025-09-12 22:30 18 7900 (2008) 0 (1954) 238 2 3 5 6 16 40 53 220 1530
2025-09-12 22:00 5.63 18 7900 (2008) 0 (1954) 238 2 3 5 6 16 40 53 220 1530
2025-09-12 21:30 5.63 18 7900 (2008) 0 (1954) 238 2 3 5 6 16 40 53 220 1530
2025-09-12 21:00 5.63 18 7900 (2008) 0 (1954) 238 2 3 5 6 16 40 53 220 1530
2025-09-12 20:30 5.62 18 7900 (2008) 0 (1954) 238 2 3 5 6 16 40 53 220 1530
2025-09-12 20:00 5.63 18 7900 (2008) 0 (1954) 238 2 3 5 6 16 40 53 220 1530
2025-09-12 19:30 5.63 18 7900 (2008) 0 (1954) 238 2 3 5 6 16 40 53 220 1530
2025-09-12 19:00 5.62 18 7900 (2008) 0 (1954) 238 2 3 5 6 16 40 53 220 1530
2025-09-12 18:30 5.63 18 7900 (2008) 0 (1954) 238 2 3 5 6 16 40 53 220 1530
2025-09-12 18:00 5.63 18 7900 (2008) 0 (1954) 238 2 3 5 6 16 40 53 220 1530
2025-09-12 17:30 5.58 15 7900 (2008) 0 (1954) 238 2 3 5 6 16 40 53 220 1530
2025-09-12 17:00 5.63 18 7900 (2008) 0 (1954) 238 2 3 5 6 16 40 53 220 1530
2025-09-12 16:30 5.58 15 7900 (2008) 0 (1954) 238 2 3 5 6 16 40 53 220 1530
2025-09-12 16:00 5.59 16 7900 (2008) 0 (1954) 238 2 3 5 6 16 40 53 220 1530
2025-09-12 15:30 5.58 15 7900 (2008) 0 (1954) 238 2 3 5 6 16 40 53 220 1530
2025-09-12 15:00 5.63 18 7900 (2008) 0 (1954) 238 2 3 5 6 16 40 53 220 1530
2025-09-12 14:30 5.59 16 7900 (2008) 0 (1954) 238 2 3 5 6 16 40 53 220 1530
2025-09-12 14:00 5.63 18 7900 (2008) 0 (1954) 238 2 3 5 6 16 40 53 220 1530
2025-09-12 13:30 5.64 19 7900 (2008) 0 (1954) 238 2 3 5 6 16 40 53 220 1530
2025-09-12 13:00 5.63 18 7900 (2008) 0 (1954) 238 2 3 5 6 16 40 53 220 1530
2025-09-12 12:30 5.59 16 7900 (2008) 0 (1954) 238 2 3 5 6 16 40 53 220 1530
2025-09-12 12:00 5.60 16 7900 (2008) 0 (1954) 238 2 3 5 6 16 40 53 220 1530
2025-09-12 11:30 5.63 18 7900 (2008) 0 (1954) 238 2 3 5 6 16 40 53 220 1530
2025-09-12 11:00 5.63 18 7900 (2008) 0 (1954) 238 2 3 5 6 16 40 53 220 1530
2025-09-12 10:30 5.63 18 7900 (2008) 0 (1954) 238 2 3 5 6 16 40 53 220 1530
2025-09-12 10:00 5.62 18 7900 (2008) 0 (1954) 238 2 3 5 6 16 40 53 220 1530
2025-09-12 09:30 5.62 18 7900 (2008) 0 (1954) 238 2 3 5 6 16 40 53 220 1530
2025-09-12 09:00 5.63 18 7900 (2008) 0 (1954) 238 2 3 5 6 16 40 53 220 1530
2025-09-12 08:30 5.64 19 7900 (2008) 0 (1954) 238 2 3 5 6 16 40 53 220 1530
2025-09-12 08:00 5.64 19 7900 (2008) 0 (1954) 238 2 3 5 6 16 40 53 220 1530
2025-09-12 07:30 5.64 19 7900 (2008) 0 (1954) 238 2 3 5 6 16 40 53 220 1530
2025-09-12 07:00 5.64 19 7900 (2008) 0 (1954) 238 2 3 5 6 16 40 53 220 1530
2025-09-12 06:30 5.64 19 7900 (2008) 0 (1954) 238 2 3 5 6 16 40 53 220 1530
2025-09-12 06:00 5.64 19 7900 (2008) 0 (1954) 238 2 3 5 6 16 40 53 220 1530
2025-09-12 05:30 5.64 19 7900 (2008) 0 (1954) 238 2 3 5 6 16 40 53 220 1530
2025-09-12 05:00 5.64 19 7900 (2008) 0 (1954) 238 2 3 5 6 16 40 53 220 1530
2025-09-12 04:30 5.64 19 7900 (2008) 0 (1954) 238 2 3 5 6 16 40 53 220 1530
2025-09-12 04:00 5.64 19 7900 (2008) 0 (1954) 238 2 3 5 6 16 40 53 220 1530
2025-09-12 03:30 5.64 19 7900 (2008) 0 (1954) 238 2 3 5 6 16 40 53 220 1530
2025-09-12 03:00 5.64 19 7900 (2008) 0 (1954) 238 2 3 5 6 16 40 53 220 1530
2025-09-12 02:30 5.64 19 7900 (2008) 0 (1954) 238 2 3 5 6 16 40 53 220 1530
2025-09-12 02:00 5.64 19 7900 (2008) 0 (1954) 238 2 3 5 6 16 40 53 220 1530
2025-09-12 01:30 5.64 19 7900 (2008) 0 (1954) 238 2 3 5 6 16 40 53 220 1530
2025-09-12 01:00 5.63 18 7900 (2008) 0 (1954) 238 2 3 5 6 16 40 53 220 1530
2025-09-12 00:30 5.64 19 7900 (2008) 0 (1954) 238 2 3 5 6 16 40 53 220 1530
2025-09-12 00:00 5.64 19 7900 (2008) 0 (1954) 238 2 3 5 6 16 40 53 220 1530
2025-09-11 23:30 5.64 19 7900 (2008) 0 (1954) 238 2 3 5 6 16 40 53 220 1530
2025-09-11 23:00 5.64 19 7900 (2008) 0 (1954) 238 2 3 5 6 16 40 53 220 1530
2025-09-11 22:30 5.63 18 9800 (1984) 0 (1954) 388 2 3 4 6 17 47 60 164 2440
2025-09-11 22:00 5.63 18 9800 (1984) 0 (1954) 388 2 3 4 6 17 47 60 164 2440
2025-09-11 21:30 5.64 19 9800 (1984) 0 (1954) 388 2 3 4 6 17 47 60 164 2440
2025-09-11 21:00 5.64 19 9800 (1984) 0 (1954) 388 2 3 4 6 17 47 60 164 2440
2025-09-11 20:30 5.63 18 9800 (1984) 0 (1954) 388 2 3 4 6 17 47 60 164 2440
2025-09-11 20:00 5.63 18 9800 (1984) 0 (1954) 388 2 3 4 6 17 47 60 164 2440
2025-09-11 19:30 5.63 18 9800 (1984) 0 (1954) 388 2 3 4 6 17 47 60 164 2440
2025-09-11 19:00 5.63 18 9800 (1984) 0 (1954) 388 2 3 4 6 17 47 60 164 2440
2025-09-11 18:30 5.63 18 9800 (1984) 0 (1954) 388 2 3 4 6 17 47 60 164 2440
2025-09-11 18:00 5.64 19 9800 (1984) 0 (1954) 388 2 3 4 6 17 47 60 164 2440
2025-09-11 17:30 5.64 19 9800 (1984) 0 (1954) 388 2 3 4 6 17 47 60 164 2440
2025-09-11 17:00 5.64 19 9800 (1984) 0 (1954) 388 2 3 4 6 17 47 60 164 2440
2025-09-11 16:30 5.60 16 9800 (1984) 0 (1954) 388 2 3 4 6 17 47 60 164 2440
2025-09-11 16:00 5.60 16 9800 (1984) 0 (1954) 388 2 3 4 6 17 47 60 164 2440
2025-09-11 15:30 5.64 19 9800 (1984) 0 (1954) 388 2 3 4 6 17 47 60 164 2440
2025-09-11 15:00 5.64 19 9800 (1984) 0 (1954) 388 2 3 4 6 17 47 60 164 2440
2025-09-11 14:30 5.64 19 9800 (1984) 0 (1954) 388 2 3 4 6 17 47 60 164 2440
2025-09-11 14:00 5.64 19 9800 (1984) 0 (1954) 388 2 3 4 6 17 47 60 164 2440
2025-09-11 13:30 5.64 19 9800 (1984) 0 (1954) 388 2 3 4 6 17 47 60 164 2440
2025-09-11 13:00 5.64 19 9800 (1984) 0 (1954) 388 2 3 4 6 17 47 60 164 2440
2025-09-11 12:30 5.64 19 9800 (1984) 0 (1954) 388 2 3 4 6 17 47 60 164 2440
2025-09-11 12:00 5.64 19 9800 (1984) 0 (1954) 388 2 3 4 6 17 47 60 164 2440
2025-09-11 11:30 5.64 19 9800 (1984) 0 (1954) 388 2 3 4 6 17 47 60 164 2440
2025-09-11 11:00 5.64 19 9800 (1984) 0 (1954) 388 2 3 4 6 17 47 60 164 2440
2025-09-11 10:30 5.64 19 9800 (1984) 0 (1954) 388 2 3 4 6 17 47 60 164 2440
2025-09-11 10:00 5.64 19 9800 (1984) 0 (1954) 388 2 3 4 6 17 47 60 164 2440
2025-09-11 09:30 5.64 19 9800 (1984) 0 (1954) 388 2 3 4 6 17 47 60 164 2440
2025-09-11 09:00 5.64 19 9800 (1984) 0 (1954) 388 2 3 4 6 17 47 60 164 2440
2025-09-11 08:30 5.65 19 9800 (1984) 0 (1954) 388 2 3 4 6 17 47 60 164 2440
2025-09-11 08:00 5.65 19 9800 (1984) 0 (1954) 388 2 3 4 6 17 47 60 164 2440
2025-09-11 07:30 5.65 19 9800 (1984) 0 (1954) 388 2 3 4 6 17 47 60 164 2440
2025-09-11 07:00 5.65 19 9800 (1984) 0 (1954) 388 2 3 4 6 17 47 60 164 2440
2025-09-11 06:30 5.65 19 9800 (1984) 0 (1954) 388 2 3 4 6 17 47 60 164 2440
2025-09-11 06:00 5.65 19 9800 (1984) 0 (1954) 388 2 3 4 6 17 47 60 164 2440
2025-09-11 05:30 5.65 19 9800 (1984) 0 (1954) 388 2 3 4 6 17 47 60 164 2440
2025-09-11 05:00 5.65 19 9800 (1984) 0 (1954) 388 2 3 4 6 17 47 60 164 2440
2025-09-11 04:30 5.65 19 9800 (1984) 0 (1954) 388 2 3 4 6 17 47 60 164 2440
2025-09-11 04:00 5.65 19 9800 (1984) 0 (1954) 388 2 3 4 6 17 47 60 164 2440
2025-09-11 03:30 5.65 19 9800 (1984) 0 (1954) 388 2 3 4 6 17 47 60 164 2440
2025-09-11 03:00 5.65 19 9800 (1984) 0 (1954) 388 2 3 4 6 17 47 60 164 2440
2025-09-11 02:30 5.65 19 9800 (1984) 0 (1954) 388 2 3 4 6 17 47 60 164 2440
2025-09-11 02:00 5.65 19 9800 (1984) 0 (1954) 388 2 3 4 6 17 47 60 164 2440
2025-09-11 01:30 19 9800 (1984) 0 (1954) 388 2 3 4 6 17 47 60 164 2440
2025-09-11 01:00 5.64 19 9800 (1984) 0 (1954) 388 2 3 4 6 17 47 60 164 2440
2025-09-11 00:30 19 9800 (1984) 0 (1954) 388 2 3 4 6 17 47 60 164 2440
2025-09-11 00:00 5.64 19 9800 (1984) 0 (1954) 388 2 3 4 6 17 47 60 164 2440
2025-09-10 23:30 5.64 19 9800 (1984) 0 (1954) 388 2 3 4 6 17 47 60 164 2440
2025-09-10 23:00 5.64 19 9800 (1984) 0 (1954) 388 2 3 4 6 17 47 60 164 2440
2025-09-10 22:30 5.64 19 11400 (2016) 0 (1964) 273 2 3 4 5 18 42 56 176 592
2025-09-10 22:00 5.64 19 11400 (2016) 0 (1964) 273 2 3 4 5 18 42 56 176 592
2025-09-10 21:30 5.64 19 11400 (2016) 0 (1964) 273 2 3 4 5 18 42 56 176 592
2025-09-10 21:00 5.64 19 11400 (2016) 0 (1964) 273 2 3 4 5 18 42 56 176 592
2025-09-10 20:30 5.64 19 11400 (2016) 0 (1964) 273 2 3 4 5 18 42 56 176 592
2025-09-10 20:00 5.64 19 11400 (2016) 0 (1964) 273 2 3 4 5 18 42 56 176 592
2025-09-10 19:30 5.64 19 11400 (2016) 0 (1964) 273 2 3 4 5 18 42 56 176 592
2025-09-10 19:00 5.64 19 11400 (2016) 0 (1964) 273 2 3 4 5 18 42 56 176 592
2025-09-10 18:30 5.64 19 11400 (2016) 0 (1964) 273 2 3 4 5 18 42 56 176 592
2025-09-10 18:00 5.64 19 11400 (2016) 0 (1964) 273 2 3 4 5 18 42 56 176 592
2025-09-10 17:30 5.64 19 11400 (2016) 0 (1964) 273 2 3 4 5 18 42 56 176 592
2025-09-10 17:00 5.64 19 11400 (2016) 0 (1964) 273 2 3 4 5 18 42 56 176 592
2025-09-10 16:30 5.64 19 11400 (2016) 0 (1964) 273 2 3 4 5 18 42 56 176 592
2025-09-10 16:00 5.65 19 11400 (2016) 0 (1964) 273 2 3 4 5 18 42 56 176 592
2025-09-10 15:30 5.65 19 11400 (2016) 0 (1964) 273 2 3 4 5 18 42 56 176 592
2025-09-10 15:00 5.64 19 11400 (2016) 0 (1964) 273 2 3 4 5 18 42 56 176 592
2025-09-10 14:30 5.58 15 11400 (2016) 0 (1964) 273 2 3 4 5 18 42 56 176 592
2025-09-10 14:00 19 11400 (2016) 0 (1964) 273 2 3 4 5 18 42 56 176 592
2025-09-10 13:30 5.65 19 11400 (2016) 0 (1964) 273 2 3 4 5 18 42 56 176 592
2025-09-10 13:00 5.64 19 11400 (2016) 0 (1964) 273 2 3 4 5 18 42 56 176 592
2025-09-10 12:30 5.65 19 11400 (2016) 0 (1964) 273 2 3 4 5 18 42 56 176 592
2025-09-10 12:00 19 11400 (2016) 0 (1964) 273 2 3 4 5 18 42 56 176 592
2025-09-10 11:30 5.65 19 11400 (2016) 0 (1964) 273 2 3 4 5 18 42 56 176 592
2025-09-10 11:00 5.65 19 11400 (2016) 0 (1964) 273 2 3 4 5 18 42 56 176 592
2025-09-10 10:30 5.65 19 11400 (2016) 0 (1964) 273 2 3 4 5 18 42 56 176 592
2025-09-10 10:00 5.65 19 11400 (2016) 0 (1964) 273 2 3 4 5 18 42 56 176 592
2025-09-10 09:30 5.65 19 11400 (2016) 0 (1964) 273 2 3 4 5 18 42 56 176 592
2025-09-10 09:00 5.65 19 11400 (2016) 0 (1964) 273 2 3 4 5 18 42 56 176 592
2025-09-10 08:30 5.65 19 11400 (2016) 0 (1964) 273 2 3 4 5 18 42 56 176 592
2025-09-10 08:00 5.65 19 11400 (2016) 0 (1964) 273 2 3 4 5 18 42 56 176 592
2025-09-10 07:30 19 11400 (2016) 0 (1964) 273 2 3 4 5 18 42 56 176 592
2025-09-10 07:00 5.65 19 11400 (2016) 0 (1964) 273 2 3 4 5 18 42 56 176 592
2025-09-10 06:30 19 11400 (2016) 0 (1964) 273 2 3 4 5 18 42 56 176 592
2025-09-10 06:00 5.65 19 11400 (2016) 0 (1964) 273 2 3 4 5 18 42 56 176 592
2025-09-10 05:30 5.65 19 11400 (2016) 0 (1964) 273 2 3 4 5 18 42 56 176 592
2025-09-10 05:00 5.65 19 11400 (2016) 0 (1964) 273 2 3 4 5 18 42 56 176 592
2025-09-10 04:30 5.65 19 11400 (2016) 0 (1964) 273 2 3 4 5 18 42 56 176 592
2025-09-10 04:00 5.65 19 11400 (2016) 0 (1964) 273 2 3 4 5 18 42 56 176 592
2025-09-10 03:30 5.65 19 11400 (2016) 0 (1964) 273 2 3 4 5 18 42 56 176 592
2025-09-10 03:00 5.65 19 11400 (2016) 0 (1964) 273 2 3 4 5 18 42 56 176 592
2025-09-10 02:30 19 11400 (2016) 0 (1964) 273 2 3 4 5 18 42 56 176 592
2025-09-10 02:00 19 11400 (2016) 0 (1964) 273 2 3 4 5 18 42 56 176 592
2025-09-10 01:30 5.65 19 11400 (2016) 0 (1964) 273 2 3 4 5 18 42 56 176 592
2025-09-10 01:00 19 11400 (2016) 0 (1964) 273 2 3 4 5 18 42 56 176 592
2025-09-10 00:30 5.65 19 11400 (2016) 0 (1964) 273 2 3 4 5 18 42 56 176 592
2025-09-10 00:00 5.65 19 11400 (2016) 0 (1964) 273 2 3 4 5 18 42 56 176 592
2025-09-09 23:30 19 11400 (2016) 0 (1964) 273 2 3 4 5 18 42 56 176 592
2025-09-09 23:00 5.65 19 11400 (2016) 0 (1964) 273 2 3 4 5 18 42 56 176 592
2025-09-09 22:30 5.65 19 15300 (1926) 0 (1964) 216 2 3 4 6 20 49 57 197 318
2025-09-09 22:00 5.65 19 15300 (1926) 0 (1964) 216 2 3 4 6 20 49 57 197 318
2025-09-09 21:30 5.65 19 15300 (1926) 0 (1964) 216 2 3 4 6 20 49 57 197 318
2025-09-09 21:00 5.65 19 15300 (1926) 0 (1964) 216 2 3 4 6 20 49 57 197 318
2025-09-09 20:30 5.65 19 15300 (1926) 0 (1964) 216 2 3 4 6 20 49 57 197 318
2025-09-09 20:00 5.65 19 15300 (1926) 0 (1964) 216 2 3 4 6 20 49 57 197 318
2025-09-09 19:30 5.65 19 15300 (1926) 0 (1964) 216 2 3 4 6 20 49 57 197 318
2025-09-09 19:00 5.65 19 15300 (1926) 0 (1964) 216 2 3 4 6 20 49 57 197 318
2025-09-09 18:30 5.65 19 15300 (1926) 0 (1964) 216 2 3 4 6 20 49 57 197 318
2025-09-09 18:00 5.65 19 15300 (1926) 0 (1964) 216 2 3 4 6 20 49 57 197 318
2025-09-09 17:30 5.65 19 15300 (1926) 0 (1964) 216 2 3 4 6 20 49 57 197 318
2025-09-09 17:00 5.64 19 15300 (1926) 0 (1964) 216 2 3 4 6 20 49 57 197 318
2025-09-09 16:30 5.61 17 15300 (1926) 0 (1964) 216 2 3 4 6 20 49 57 197 318
2025-09-09 16:00 5.65 19 15300 (1926) 0 (1964) 216 2 3 4 6 20 49 57 197 318
2025-09-09 15:30 5.65 19 15300 (1926) 0 (1964) 216 2 3 4 6 20 49 57 197 318
2025-09-09 15:00 19 15300 (1926) 0 (1964) 216 2 3 4 6 20 49 57 197 318
2025-09-09 14:30 5.59 16 15300 (1926) 0 (1964) 216 2 3 4 6 20 49 57 197 318
2025-09-09 14:00 5.65 19 15300 (1926) 0 (1964) 216 2 3 4 6 20 49 57 197 318
2025-09-09 13:30 19 15300 (1926) 0 (1964) 216 2 3 4 6 20 49 57 197 318
2025-09-09 13:00 5.65 19 15300 (1926) 0 (1964) 216 2 3 4 6 20 49 57 197 318
2025-09-09 12:30 5.65 19 15300 (1926) 0 (1964) 216 2 3 4 6 20 49 57 197 318
2025-09-09 12:00 5.66 20 15300 (1926) 0 (1964) 216 2 3 4 6 20 49 57 197 318
2025-09-09 11:30 5.66 20 15300 (1926) 0 (1964) 216 2 3 4 6 20 49 57 197 318
2025-09-09 11:00 5.66 20 15300 (1926) 0 (1964) 216 2 3 4 6 20 49 57 197 318
2025-09-09 10:30 5.66 20 15300 (1926) 0 (1964) 216 2 3 4 6 20 49 57 197 318
2025-09-09 10:00 5.66 20 15300 (1926) 0 (1964) 216 2 3 4 6 20 49 57 197 318
2025-09-09 09:30 5.66 20 15300 (1926) 0 (1964) 216 2 3 4 6 20 49 57 197 318
2025-09-09 09:00 5.66 20 15300 (1926) 0 (1964) 216 2 3 4 6 20 49 57 197 318
2025-09-09 08:30 5.66 20 15300 (1926) 0 (1964) 216 2 3 4 6 20 49 57 197 318
2025-09-09 08:00 5.66 20 15300 (1926) 0 (1964) 216 2 3 4 6 20 49 57 197 318
2025-09-09 07:30 5.66 20 15300 (1926) 0 (1964) 216 2 3 4 6 20 49 57 197 318
2025-09-09 07:00 5.66 20 15300 (1926) 0 (1964) 216 2 3 4 6 20 49 57 197 318
2025-09-09 06:30 5.66 20 15300 (1926) 0 (1964) 216 2 3 4 6 20 49 57 197 318
2025-09-09 06:00 5.66 20 15300 (1926) 0 (1964) 216 2 3 4 6 20 49 57 197 318
2025-09-09 05:30 5.66 20 15300 (1926) 0 (1964) 216 2 3 4 6 20 49 57 197 318
2025-09-09 05:00 5.66 20 15300 (1926) 0 (1964) 216 2 3 4 6 20 49 57 197 318
2025-09-09 04:30 5.66 20 15300 (1926) 0 (1964) 216 2 3 4 6 20 49 57 197 318
2025-09-09 04:00 5.66 20 15300 (1926) 0 (1964) 216 2 3 4 6 20 49 57 197 318
2025-09-09 03:30 5.66 20 15300 (1926) 0 (1964) 216 2 3 4 6 20 49 57 197 318
2025-09-09 03:00 5.66 20 15300 (1926) 0 (1964) 216 2 3 4 6 20 49 57 197 318
2025-09-09 02:30 5.66 20 15300 (1926) 0 (1964) 216 2 3 4 6 20 49 57 197 318
2025-09-09 02:00 20 15300 (1926) 0 (1964) 216 2 3 4 6 20 49 57 197 318
2025-09-09 01:30 5.66 20 15300 (1926) 0 (1964) 216 2 3 4 6 20 49 57 197 318
2025-09-09 01:00 5.66 20 15300 (1926) 0 (1964) 216 2 3 4 6 20 49 57 197 318
2025-09-09 00:30 19 15300 (1926) 0 (1964) 216 2 3 4 6 20 49 57 197 318
2025-09-09 00:00 5.65 19 15300 (1926) 0 (1964) 216 2 3 4 6 20 49 57 197 318
2025-09-08 23:30 5.65 19 15300 (1926) 0 (1964) 216 2 3 4 6 20 49 57 197 318
2025-09-08 23:00 5.65 19 15300 (1926) 0 (1964) 216 2 3 4 6 20 49 57 197 318
2025-09-08 22:30 5.65 19 890 (1926) 0 (1964) 52 2 3 4 5 17 46 58 133 222
2025-09-08 22:00 5.65 19 890 (1926) 0 (1964) 52 2 3 4 5 17 46 58 133 222
2025-09-08 21:30 5.65 19 890 (1926) 0 (1964) 52 2 3 4 5 17 46 58 133 222
2025-09-08 21:00 5.65 19 890 (1926) 0 (1964) 52 2 3 4 5 17 46 58 133 222
2025-09-08 20:30 5.65 19 890 (1926) 0 (1964) 52 2 3 4 5 17 46 58 133 222
2025-09-08 20:00 5.65 19 890 (1926) 0 (1964) 52 2 3 4 5 17 46 58 133 222
2025-09-08 19:30 5.65 19 890 (1926) 0 (1964) 52 2 3 4 5 17 46 58 133 222
2025-09-08 19:00 5.65 19 890 (1926) 0 (1964) 52 2 3 4 5 17 46 58 133 222
2025-09-08 18:30 5.65 19 890 (1926) 0 (1964) 52 2 3 4 5 17 46 58 133 222
2025-09-08 18:00 5.65 19 890 (1926) 0 (1964) 52 2 3 4 5 17 46 58 133 222
2025-09-08 17:30 5.65 19 890 (1926) 0 (1964) 52 2 3 4 5 17 46 58 133 222
2025-09-08 17:00 5.66 20 890 (1926) 0 (1964) 52 2 3 4 5 17 46 58 133 222
2025-09-08 16:30 5.63 18 890 (1926) 0 (1964) 52 2 3 4 5 17 46 58 133 222
2025-09-08 16:00 5.63 18 890 (1926) 0 (1964) 52 2 3 4 5 17 46 58 133 222
2025-09-08 15:30 5.66 20 890 (1926) 0 (1964) 52 2 3 4 5 17 46 58 133 222
2025-09-08 15:00 19 890 (1926) 0 (1964) 52 2 3 4 5 17 46 58 133 222
2025-09-08 14:30 5.64 19 890 (1926) 0 (1964) 52 2 3 4 5 17 46 58 133 222
2025-09-08 14:00 5.65 19 890 (1926) 0 (1964) 52 2 3 4 5 17 46 58 133 222
2025-09-08 13:30 5.61 17 890 (1926) 0 (1964) 52 2 3 4 5 17 46 58 133 222
2025-09-08 13:00 5.66 20 890 (1926) 0 (1964) 52 2 3 4 5 17 46 58 133 222
2025-09-08 12:30 5.63 18 890 (1926) 0 (1964) 52 2 3 4 5 17 46 58 133 222
2025-09-08 12:00 5.65 19 890 (1926) 0 (1964) 52 2 3 4 5 17 46 58 133 222
2025-09-08 11:30 5.60 16 890 (1926) 0 (1964) 52 2 3 4 5 17 46 58 133 222
2025-09-08 11:00 5.62 18 890 (1926) 0 (1964) 52 2 3 4 5 17 46 58 133 222
2025-09-08 10:30 5.64 19 890 (1926) 0 (1964) 52 2 3 4 5 17 46 58 133 222
2025-09-08 10:00 5.62 18 890 (1926) 0 (1964) 52 2 3 4 5 17 46 58 133 222
2025-09-08 09:30 5.65 19 890 (1926) 0 (1964) 52 2 3 4 5 17 46 58 133 222
2025-09-08 09:00 5.63 18 890 (1926) 0 (1964) 52 2 3 4 5 17 46 58 133 222
2025-09-08 08:30 5.66 20 890 (1926) 0 (1964) 52 2 3 4 5 17 46 58 133 222
2025-09-08 08:00 5.66 20 890 (1926) 0 (1964) 52 2 3 4 5 17 46 58 133 222
2025-09-08 07:30 5.66 20 890 (1926) 0 (1964) 52 2 3 4 5 17 46 58 133 222
2025-09-08 07:00 5.66 20 890 (1926) 0 (1964) 52 2 3 4 5 17 46 58 133 222
2025-09-08 06:30 5.66 20 890 (1926) 0 (1964) 52 2 3 4 5 17 46 58 133 222
2025-09-08 06:00 5.66 20 890 (1926) 0 (1964) 52 2 3 4 5 17 46 58 133 222
2025-09-08 05:30 5.66 20 890 (1926) 0 (1964) 52 2 3 4 5 17 46 58 133 222
2025-09-08 05:00 5.66 20 890 (1926) 0 (1964) 52 2 3 4 5 17 46 58 133 222
2025-09-08 04:30 5.66 20 890 (1926) 0 (1964) 52 2 3 4 5 17 46 58 133 222
2025-09-08 04:00 5.66 20 890 (1926) 0 (1964) 52 2 3 4 5 17 46 58 133 222
2025-09-08 03:30 5.66 20 890 (1926) 0 (1964) 52 2 3 4 5 17 46 58 133 222
2025-09-08 03:00 5.66 20 890 (1926) 0 (1964) 52 2 3 4 5 17 46 58 133 222
2025-09-08 02:30 5.66 20 890 (1926) 0 (1964) 52 2 3 4 5 17 46 58 133 222
2025-09-08 02:00 5.66 20 890 (1926) 0 (1964) 52 2 3 4 5 17 46 58 133 222
2025-09-08 01:30 5.66 20 890 (1926) 0 (1964) 52 2 3 4 5 17 46 58 133 222
2025-09-08 01:00 5.66 20 890 (1926) 0 (1964) 52 2 3 4 5 17 46 58 133 222
2025-09-08 00:30 5.66 20 890 (1926) 0 (1964) 52 2 3 4 5 17 46 58 133 222
2025-09-08 00:00 5.66 20 890 (1926) 0 (1964) 52 2 3 4 5 17 46 58 133 222
2025-09-07 23:30 5.66 20 890 (1926) 0 (1964) 52 2 3 4 5 17 46 58 133 222
2025-09-07 23:00 5.66 20 890 (1926) 0 (1964) 52 2 3 4 5 17 46 58 133 222
2025-09-07 22:30 5.66 20 1240 (1923) 0 (1964) 71 2 3 4 6 18 47 68 103 266
2025-09-07 22:00 5.66 20 1240 (1923) 0 (1964) 71 2 3 4 6 18 47 68 103 266
2025-09-07 21:30 5.66 20 1240 (1923) 0 (1964) 71 2 3 4 6 18 47 68 103 266
2025-09-07 21:00 5.66 20 1240 (1923) 0 (1964) 71 2 3 4 6 18 47 68 103 266
2025-09-07 20:30 5.66 20 1240 (1923) 0 (1964) 71 2 3 4 6 18 47 68 103 266
2025-09-07 20:00 5.66 20 1240 (1923) 0 (1964) 71 2 3 4 6 18 47 68 103 266
2025-09-07 19:30 5.66 20 1240 (1923) 0 (1964) 71 2 3 4 6 18 47 68 103 266
2025-09-07 19:00 5.66 20 1240 (1923) 0 (1964) 71 2 3 4 6 18 47 68 103 266
2025-09-07 18:30 5.66 20 1240 (1923) 0 (1964) 71 2 3 4 6 18 47 68 103 266
2025-09-07 18:00 5.66 20 1240 (1923) 0 (1964) 71 2 3 4 6 18 47 68 103 266
2025-09-07 17:30 5.66 20 1240 (1923) 0 (1964) 71 2 3 4 6 18 47 68 103 266
2025-09-07 17:00 5.62 18 1240 (1923) 0 (1964) 71 2 3 4 6 18 47 68 103 266
2025-09-07 16:30 5.62 18 1240 (1923) 0 (1964) 71 2 3 4 6 18 47 68 103 266
2025-09-07 16:00 5.67 21 1240 (1923) 0 (1964) 71 2 3 4 6 18 47 68 103 266
2025-09-07 15:30 5.67 21 1240 (1923) 0 (1964) 71 2 3 4 6 18 47 68 103 266
2025-09-07 15:00 5.62 18 1240 (1923) 0 (1964) 71 2 3 4 6 18 47 68 103 266
2025-09-07 14:30 5.66 20 1240 (1923) 0 (1964) 71 2 3 4 6 18 47 68 103 266
2025-09-07 14:00 5.67 21 1240 (1923) 0 (1964) 71 2 3 4 6 18 47 68 103 266
2025-09-07 13:30 5.61 17 1240 (1923) 0 (1964) 71 2 3 4 6 18 47 68 103 266
2025-09-07 13:00 5.65 19 1240 (1923) 0 (1964) 71 2 3 4 6 18 47 68 103 266
2025-09-07 12:30 5.67 21 1240 (1923) 0 (1964) 71 2 3 4 6 18 47 68 103 266
2025-09-07 12:00 5.61 17 1240 (1923) 0 (1964) 71 2 3 4 6 18 47 68 103 266
2025-09-07 11:30 5.62 18 1240 (1923) 0 (1964) 71 2 3 4 6 18 47 68 103 266
2025-09-07 11:00 5.62 18 1240 (1923) 0 (1964) 71 2 3 4 6 18 47 68 103 266
2025-09-07 10:30 5.66 20 1240 (1923) 0 (1964) 71 2 3 4 6 18 47 68 103 266
2025-09-07 10:00 5.66 20 1240 (1923) 0 (1964) 71 2 3 4 6 18 47 68 103 266
2025-09-07 09:30 5.66 20 1240 (1923) 0 (1964) 71 2 3 4 6 18 47 68 103 266
2025-09-07 09:00 5.62 18 1240 (1923) 0 (1964) 71 2 3 4 6 18 47 68 103 266
2025-09-07 08:30 5.66 20 1240 (1923) 0 (1964) 71 2 3 4 6 18 47 68 103 266
2025-09-07 08:00 5.66 20 1240 (1923) 0 (1964) 71 2 3 4 6 18 47 68 103 266
2025-09-07 07:30 5.67 21 1240 (1923) 0 (1964) 71 2 3 4 6 18 47 68 103 266
2025-09-07 07:00 5.67 21 1240 (1923) 0 (1964) 71 2 3 4 6 18 47 68 103 266
2025-09-07 06:30 5.67 21 1240 (1923) 0 (1964) 71 2 3 4 6 18 47 68 103 266
2025-09-07 06:00 5.67 21 1240 (1923) 0 (1964) 71 2 3 4 6 18 47 68 103 266
2025-09-07 05:30 5.67 21 1240 (1923) 0 (1964) 71 2 3 4 6 18 47 68 103 266
2025-09-07 05:00 5.67 21 1240 (1923) 0 (1964) 71 2 3 4 6 18 47 68 103 266
2025-09-07 04:30 5.67 21 1240 (1923) 0 (1964) 71 2 3 4 6 18 47 68 103 266
2025-09-07 04:00 5.67 21 1240 (1923) 0 (1964) 71 2 3 4 6 18 47 68 103 266
2025-09-07 03:30 5.67 21 1240 (1923) 0 (1964) 71 2 3 4 6 18 47 68 103 266
2025-09-07 03:00 5.67 21 1240 (1923) 0 (1964) 71 2 3 4 6 18 47 68 103 266
2025-09-07 02:30 21 1240 (1923) 0 (1964) 71 2 3 4 6 18 47 68 103 266
2025-09-07 02:00 21 1240 (1923) 0 (1964) 71 2 3 4 6 18 47 68 103 266
2025-09-07 01:30 21 1240 (1923) 0 (1964) 71 2 3 4 6 18 47 68 103 266
2025-09-07 01:00 21 1240 (1923) 0 (1964) 71 2 3 4 6 18 47 68 103 266
2025-09-07 00:30 21 1240 (1923) 0 (1964) 71 2 3 4 6 18 47 68 103 266
2025-09-07 00:00 5.67 21 1240 (1923) 0 (1964) 71 2 3 4 6 18 47 68 103 266
2025-09-06 23:30 21 1240 (1923) 0 (1964) 71 2 3 4 6 18 47 68 103 266
2025-09-06 23:00 5.67 21 1240 (1923) 0 (1964) 71 2 3 4 6 18 47 68 103 266
2025-09-06 22:30 20 10000 (1926) 0 (1964) 208 2 3 5 6 20 49 58 144 416
2025-09-06 22:00 5.66 20 10000 (1926) 0 (1964) 208 2 3 5 6 20 49 58 144 416
2025-09-06 21:30 5.66 20 10000 (1926) 0 (1964) 208 2 3 5 6 20 49 58 144 416
2025-09-06 21:00 5.67 21 10000 (1926) 0 (1964) 208 2 3 5 6 20 49 58 144 416
2025-09-06 20:30 5.67 21 10000 (1926) 0 (1964) 208 2 3 5 6 20 49 58 144 416
2025-09-06 20:00 5.67 21 10000 (1926) 0 (1964) 208 2 3 5 6 20 49 58 144 416
2025-09-06 19:30 5.67 21 10000 (1926) 0 (1964) 208 2 3 5 6 20 49 58 144 416
2025-09-06 19:00 5.67 21 10000 (1926) 0 (1964) 208 2 3 5 6 20 49 58 144 416
2025-09-06 18:30 5.67 21 10000 (1926) 0 (1964) 208 2 3 5 6 20 49 58 144 416
2025-09-06 18:00 5.67 21 10000 (1926) 0 (1964) 208 2 3 5 6 20 49 58 144 416
2025-09-06 17:30 5.67 21 10000 (1926) 0 (1964) 208 2 3 5 6 20 49 58 144 416
2025-09-06 17:00 5.60 16 10000 (1926) 0 (1964) 208 2 3 5 6 20 49 58 144 416
2025-09-06 16:30 5.67 21 10000 (1926) 0 (1964) 208 2 3 5 6 20 49 58 144 416
2025-09-06 16:00 5.61 17 10000 (1926) 0 (1964) 208 2 3 5 6 20 49 58 144 416
2025-09-06 15:30 5.66 20 10000 (1926) 0 (1964) 208 2 3 5 6 20 49 58 144 416
2025-09-06 15:00 5.65 19 10000 (1926) 0 (1964) 208 2 3 5 6 20 49 58 144 416
2025-09-06 14:30 5.63 18 10000 (1926) 0 (1964) 208 2 3 5 6 20 49 58 144 416
2025-09-06 14:00 5.62 18 10000 (1926) 0 (1964) 208 2 3 5 6 20 49 58 144 416
2025-09-06 13:30 5.66 20 10000 (1926) 0 (1964) 208 2 3 5 6 20 49 58 144 416
2025-09-06 13:00 5.65 19 10000 (1926) 0 (1964) 208 2 3 5 6 20 49 58 144 416
2025-09-06 12:30 5.61 17 10000 (1926) 0 (1964) 208 2 3 5 6 20 49 58 144 416
2025-09-06 12:00 5.68 21 10000 (1926) 0 (1964) 208 2 3 5 6 20 49 58 144 416
2025-09-06 11:30 5.68 21 10000 (1926) 0 (1964) 208 2 3 5 6 20 49 58 144 416
2025-09-06 11:00 5.63 18 10000 (1926) 0 (1964) 208 2 3 5 6 20 49 58 144 416
2025-09-06 10:30 5.66 20 10000 (1926) 0 (1964) 208 2 3 5 6 20 49 58 144 416
2025-09-06 10:00 5.68 21 10000 (1926) 0 (1964) 208 2 3 5 6 20 49 58 144 416
2025-09-06 09:30 5.68 21 10000 (1926) 0 (1964) 208 2 3 5 6 20 49 58 144 416
2025-09-06 09:00 5.68 21 10000 (1926) 0 (1964) 208 2 3 5 6 20 49 58 144 416
2025-09-06 08:30 5.68 21 10000 (1926) 0 (1964) 208 2 3 5 6 20 49 58 144 416
2025-09-06 08:00 5.68 21 10000 (1926) 0 (1964) 208 2 3 5 6 20 49 58 144 416
2025-09-06 07:30 5.68 21 10000 (1926) 0 (1964) 208 2 3 5 6 20 49 58 144 416
2025-09-06 07:00 5.69 22 10000 (1926) 0 (1964) 208 2 3 5 6 20 49 58 144 416
2025-09-06 06:30 5.68 21 10000 (1926) 0 (1964) 208 2 3 5 6 20 49 58 144 416
2025-09-06 06:00 5.68 21 10000 (1926) 0 (1964) 208 2 3 5 6 20 49 58 144 416
2025-09-06 05:30 5.68 21 10000 (1926) 0 (1964) 208 2 3 5 6 20 49 58 144 416
2025-09-06 05:00 5.68 21 10000 (1926) 0 (1964) 208 2 3 5 6 20 49 58 144 416
2025-09-06 04:30 5.68 21 10000 (1926) 0 (1964) 208 2 3 5 6 20 49 58 144 416
2025-09-06 04:00 21 10000 (1926) 0 (1964) 208 2 3 5 6 20 49 58 144 416
2025-09-06 03:30 5.68 21 10000 (1926) 0 (1964) 208 2 3 5 6 20 49 58 144 416
2025-09-06 03:00 5.68 21 10000 (1926) 0 (1964) 208 2 3 5 6 20 49 58 144 416
2025-09-06 02:30 21 10000 (1926) 0 (1964) 208 2 3 5 6 20 49 58 144 416
2025-09-06 02:00 21 10000 (1926) 0 (1964) 208 2 3 5 6 20 49 58 144 416
2025-09-06 01:30 5.68 21 10000 (1926) 0 (1964) 208 2 3 5 6 20 49 58 144 416
2025-09-06 01:00 21 10000 (1926) 0 (1964) 208 2 3 5 6 20 49 58 144 416
2025-09-06 00:30 5.68 21 10000 (1926) 0 (1964) 208 2 3 5 6 20 49 58 144 416
2025-09-06 00:00 21 10000 (1926) 0 (1964) 208 2 3 5 6 20 49 58 144 416
2025-09-05 23:30 5.68 21 10000 (1926) 0 (1964) 208 2 3 5 6 20 49 58 144 416
2025-09-05 23:00 5.68 21 10000 (1926) 0 (1964) 208 2 3 5 6 20 49 58 144 416
2025-09-05 22:30 21 47400 (1926) 0 (1964) 723 3 3 5 7 20 56 85 370 747
2025-09-05 22:00 5.68 21 47400 (1926) 0 (1964) 723 3 3 5 7 20 56 85 370 747
2025-09-05 21:30 5.68 21 47400 (1926) 0 (1964) 723 3 3 5 7 20 56 85 370 747
2025-09-05 21:00 5.68 21 47400 (1926) 0 (1964) 723 3 3 5 7 20 56 85 370 747
2025-09-05 20:30 5.68 21 47400 (1926) 0 (1964) 723 3 3 5 7 20 56 85 370 747
2025-09-05 20:00 5.68 21 47400 (1926) 0 (1964) 723 3 3 5 7 20 56 85 370 747
2025-09-05 19:30 5.68 21 47400 (1926) 0 (1964) 723 3 3 5 7 20 56 85 370 747
2025-09-05 19:00 5.68 21 47400 (1926) 0 (1964) 723 3 3 5 7 20 56 85 370 747
2025-09-05 18:30 5.68 21 47400 (1926) 0 (1964) 723 3 3 5 7 20 56 85 370 747
2025-09-05 18:00 5.68 21 47400 (1926) 0 (1964) 723 3 3 5 7 20 56 85 370 747
2025-09-05 17:30 5.68 21 47400 (1926) 0 (1964) 723 3 3 5 7 20 56 85 370 747
2025-09-05 17:00 5.64 19 47400 (1926) 0 (1964) 723 3 3 5 7 20 56 85 370 747
2025-09-05 16:30 5.64 19 47400 (1926) 0 (1964) 723 3 3 5 7 20 56 85 370 747
2025-09-05 16:00 5.64 19 47400 (1926) 0 (1964) 723 3 3 5 7 20 56 85 370 747
2025-09-05 15:30 5.66 20 47400 (1926) 0 (1964) 723 3 3 5 7 20 56 85 370 747
2025-09-05 15:00 5.66 20 47400 (1926) 0 (1964) 723 3 3 5 7 20 56 85 370 747
2025-09-05 14:30 5.63 18 47400 (1926) 0 (1964) 723 3 3 5 7 20 56 85 370 747
2025-09-05 14:00 5.68 21 47400 (1926) 0 (1964) 723 3 3 5 7 20 56 85 370 747
2025-09-05 13:30 5.68 21 47400 (1926) 0 (1964) 723 3 3 5 7 20 56 85 370 747
2025-09-05 13:00 5.67 21 47400 (1926) 0 (1964) 723 3 3 5 7 20 56 85 370 747
2025-09-05 12:30 5.68 21 47400 (1926) 0 (1964) 723 3 3 5 7 20 56 85 370 747
2025-09-05 12:00 5.69 22 47400 (1926) 0 (1964) 723 3 3 5 7 20 56 85 370 747
2025-09-05 11:30 5.69 22 47400 (1926) 0 (1964) 723 3 3 5 7 20 56 85 370 747
2025-09-05 11:00 5.68 21 47400 (1926) 0 (1964) 723 3 3 5 7 20 56 85 370 747
2025-09-05 10:30 5.69 22 47400 (1926) 0 (1964) 723 3 3 5 7 20 56 85 370 747
2025-09-05 10:00 5.69 22 47400 (1926) 0 (1964) 723 3 3 5 7 20 56 85 370 747
2025-09-05 09:30 5.69 22 47400 (1926) 0 (1964) 723 3 3 5 7 20 56 85 370 747
2025-09-05 09:00 5.69 22 47400 (1926) 0 (1964) 723 3 3 5 7 20 56 85 370 747
2025-09-05 08:30 5.69 22 47400 (1926) 0 (1964) 723 3 3 5 7 20 56 85 370 747
2025-09-05 08:00 5.69 22 47400 (1926) 0 (1964) 723 3 3 5 7 20 56 85 370 747
2025-09-05 07:30 5.69 22 47400 (1926) 0 (1964) 723 3 3 5 7 20 56 85 370 747
2025-09-05 07:00 5.69 22 47400 (1926) 0 (1964) 723 3 3 5 7 20 56 85 370 747
2025-09-05 06:30 5.69 22 47400 (1926) 0 (1964) 723 3 3 5 7 20 56 85 370 747
2025-09-05 06:00 5.69 22 47400 (1926) 0 (1964) 723 3 3 5 7 20 56 85 370 747
2025-09-05 05:30 5.69 22 47400 (1926) 0 (1964) 723 3 3 5 7 20 56 85 370 747
2025-09-05 05:00 5.69 22 47400 (1926) 0 (1964) 723 3 3 5 7 20 56 85 370 747
2025-09-05 04:30 5.69 22 47400 (1926) 0 (1964) 723 3 3 5 7 20 56 85 370 747
2025-09-05 04:00 5.69 22 47400 (1926) 0 (1964) 723 3 3 5 7 20 56 85 370 747
2025-09-05 03:30 5.69 22 47400 (1926) 0 (1964) 723 3 3 5 7 20 56 85 370 747
2025-09-05 03:00 5.69 22 47400 (1926) 0 (1964) 723 3 3 5 7 20 56 85 370 747
2025-09-05 02:30 5.69 22 47400 (1926) 0 (1964) 723 3 3 5 7 20 56 85 370 747
2025-09-05 02:00 5.69 22 47400 (1926) 0 (1964) 723 3 3 5 7 20 56 85 370 747
2025-09-05 01:30 5.69 22 47400 (1926) 0 (1964) 723 3 3 5 7 20 56 85 370 747
2025-09-05 01:00 5.69 22 47400 (1926) 0 (1964) 723 3 3 5 7 20 56 85 370 747
2025-09-05 00:30 5.68 21 47400 (1926) 0 (1964) 723 3 3 5 7 20 56 85 370 747
2025-09-05 00:00 5.68 21 47400 (1926) 0 (1964) 723 3 3 5 7 20 56 85 370 747
2025-09-04 23:30 5.69 22 47400 (1926) 0 (1964) 723 3 3 5 7 20 56 85 370 747
2025-09-04 23:00 5.68 21 47400 (1926) 0 (1964) 723 3 3 5 7 20 56 85 370 747
2025-09-04 22:30 5.68 21 23200 (1926) 0 (1964) 448 3 3 6 7 23 73 104 315 2330
2025-09-04 22:00 5.68 21 23200 (1926) 0 (1964) 448 3 3 6 7 23 73 104 315 2330
2025-09-04 21:30 5.68 21 23200 (1926) 0 (1964) 448 3 3 6 7 23 73 104 315 2330
2025-09-04 21:00 5.68 21 23200 (1926) 0 (1964) 448 3 3 6 7 23 73 104 315 2330
2025-09-04 20:30 5.68 21 23200 (1926) 0 (1964) 448 3 3 6 7 23 73 104 315 2330
2025-09-04 20:00 5.68 21 23200 (1926) 0 (1964) 448 3 3 6 7 23 73 104 315 2330
2025-09-04 19:30 5.68 21 23200 (1926) 0 (1964) 448 3 3 6 7 23 73 104 315 2330
2025-09-04 19:00 5.68 21 23200 (1926) 0 (1964) 448 3 3 6 7 23 73 104 315 2330
2025-09-04 18:30 5.68 21 23200 (1926) 0 (1964) 448 3 3 6 7 23 73 104 315 2330
2025-09-04 18:00 5.68 21 23200 (1926) 0 (1964) 448 3 3 6 7 23 73 104 315 2330
2025-09-04 17:30 5.68 21 23200 (1926) 0 (1964) 448 3 3 6 7 23 73 104 315 2330
2025-09-04 17:00 5.68 21 23200 (1926) 0 (1964) 448 3 3 6 7 23 73 104 315 2330
2025-09-04 16:30 5.68 21 23200 (1926) 0 (1964) 448 3 3 6 7 23 73 104 315 2330
2025-09-04 16:00 5.68 21 23200 (1926) 0 (1964) 448 3 3 6 7 23 73 104 315 2330
2025-09-04 15:30 5.65 19 23200 (1926) 0 (1964) 448 3 3 6 7 23 73 104 315 2330
2025-09-04 15:00 5.64 19 23200 (1926) 0 (1964) 448 3 3 6 7 23 73 104 315 2330
2025-09-04 14:30 5.69 22 23200 (1926) 0 (1964) 448 3 3 6 7 23 73 104 315 2330
2025-09-04 14:00 5.69 22 23200 (1926) 0 (1964) 448 3 3 6 7 23 73 104 315 2330
2025-09-04 13:30 5.64 19 23200 (1926) 0 (1964) 448 3 3 6 7 23 73 104 315 2330
2025-09-04 13:00 5.69 22 23200 (1926) 0 (1964) 448 3 3 6 7 23 73 104 315 2330
2025-09-04 12:30 5.62 18 23200 (1926) 0 (1964) 448 3 3 6 7 23 73 104 315 2330
2025-09-04 12:00 5.65 19 23200 (1926) 0 (1964) 448 3 3 6 7 23 73 104 315 2330
2025-09-04 11:30 5.67 21 23200 (1926) 0 (1964) 448 3 3 6 7 23 73 104 315 2330
2025-09-04 11:00 5.67 21 23200 (1926) 0 (1964) 448 3 3 6 7 23 73 104 315 2330
2025-09-04 10:30 5.68 21 23200 (1926) 0 (1964) 448 3 3 6 7 23 73 104 315 2330
2025-09-04 10:00 5.69 22 23200 (1926) 0 (1964) 448 3 3 6 7 23 73 104 315 2330
2025-09-04 09:30 5.67 21 23200 (1926) 0 (1964) 448 3 3 6 7 23 73 104 315 2330
2025-09-04 09:00 5.65 19 23200 (1926) 0 (1964) 448 3 3 6 7 23 73 104 315 2330
2025-09-04 08:30 5.69 22 23200 (1926) 0 (1964) 448 3 3 6 7 23 73 104 315 2330
2025-09-04 08:00 5.69 22 23200 (1926) 0 (1964) 448 3 3 6 7 23 73 104 315 2330
2025-09-04 07:30 5.69 22 23200 (1926) 0 (1964) 448 3 3 6 7 23 73 104 315 2330
2025-09-04 07:00 5.69 22 23200 (1926) 0 (1964) 448 3 3 6 7 23 73 104 315 2330
2025-09-04 06:30 5.69 22 23200 (1926) 0 (1964) 448 3 3 6 7 23 73 104 315 2330
2025-09-04 06:00 5.69 22 23200 (1926) 0 (1964) 448 3 3 6 7 23 73 104 315 2330
2025-09-04 05:30 5.69 22 23200 (1926) 0 (1964) 448 3 3 6 7 23 73 104 315 2330
2025-09-04 05:00 5.69 22 23200 (1926) 0 (1964) 448 3 3 6 7 23 73 104 315 2330
2025-09-04 04:30 5.69 22 23200 (1926) 0 (1964) 448 3 3 6 7 23 73 104 315 2330
2025-09-04 04:00 5.69 22 23200 (1926) 0 (1964) 448 3 3 6 7 23 73 104 315 2330
2025-09-04 03:30 5.69 22 23200 (1926) 0 (1964) 448 3 3 6 7 23 73 104 315 2330
2025-09-04 03:00 22 23200 (1926) 0 (1964) 448 3 3 6 7 23 73 104 315 2330
2025-09-04 02:30 5.69 22 23200 (1926) 0 (1964) 448 3 3 6 7 23 73 104 315 2330
2025-09-04 02:00 5.69 22 23200 (1926) 0 (1964) 448 3 3 6 7 23 73 104 315 2330
2025-09-04 01:30 22 23200 (1926) 0 (1964) 448 3 3 6 7 23 73 104 315 2330
2025-09-04 01:00 5.69 22 23200 (1926) 0 (1964) 448 3 3 6 7 23 73 104 315 2330
2025-09-04 00:30 5.69 22 23200 (1926) 0 (1964) 448 3 3 6 7 23 73 104 315 2330
2025-09-04 00:00 5.69 22 23200 (1926) 0 (1964) 448 3 3 6 7 23 73 104 315 2330
2025-09-03 23:30 5.69 22 23200 (1926) 0 (1964) 448 3 3 6 7 23 73 104 315 2330
2025-09-03 23:00 5.64 19 23200 (1926) 0 (1964) 448 3 3 6 7 23 73 104 315 2330
2025-09-03 22:30 5.69 22 9390 (1993) 0 (1964) 320 3 4 6 7 28 81 140 322 1100
2025-09-03 22:00 5.69 22 9390 (1993) 0 (1964) 320 3 4 6 7 28 81 140 322 1100
2025-09-03 21:30 5.69 22 9390 (1993) 0 (1964) 320 3 4 6 7 28 81 140 322 1100
2025-09-03 21:00 5.68 21 9390 (1993) 0 (1964) 320 3 4 6 7 28 81 140 322 1100
2025-09-03 20:30 5.69 22 9390 (1993) 0 (1964) 320 3 4 6 7 28 81 140 322 1100
2025-09-03 20:00 5.69 22 9390 (1993) 0 (1964) 320 3 4 6 7 28 81 140 322 1100
2025-09-03 19:30 5.69 22 9390 (1993) 0 (1964) 320 3 4 6 7 28 81 140 322 1100
2025-09-03 19:00 5.69 22 9390 (1993) 0 (1964) 320 3 4 6 7 28 81 140 322 1100
2025-09-03 18:30 5.69 22 9390 (1993) 0 (1964) 320 3 4 6 7 28 81 140 322 1100
2025-09-03 18:00 5.69 22 9390 (1993) 0 (1964) 320 3 4 6 7 28 81 140 322 1100
2025-09-03 17:30 5.69 22 9390 (1993) 0 (1964) 320 3 4 6 7 28 81 140 322 1100
2025-09-03 17:00 5.64 19 9390 (1993) 0 (1964) 320 3 4 6 7 28 81 140 322 1100
2025-09-03 16:30 5.70 23 9390 (1993) 0 (1964) 320 3 4 6 7 28 81 140 322 1100
2025-09-03 16:00 5.66 20 9390 (1993) 0 (1964) 320 3 4 6 7 28 81 140 322 1100
2025-09-03 15:30 5.68 21 9390 (1993) 0 (1964) 320 3 4 6 7 28 81 140 322 1100
2025-09-03 15:00 5.67 21 9390 (1993) 0 (1964) 320 3 4 6 7 28 81 140 322 1100
2025-09-03 14:30 5.66 20 9390 (1993) 0 (1964) 320 3 4 6 7 28 81 140 322 1100
2025-09-03 14:00 5.67 21 9390 (1993) 0 (1964) 320 3 4 6 7 28 81 140 322 1100
2025-09-03 13:30 5.64 19 9390 (1993) 0 (1964) 320 3 4 6 7 28 81 140 322 1100
2025-09-03 13:00 5.67 21 9390 (1993) 0 (1964) 320 3 4 6 7 28 81 140 322 1100
2025-09-03 12:30 5.65 19 9390 (1993) 0 (1964) 320 3 4 6 7 28 81 140 322 1100
2025-09-03 12:00 5.67 21 9390 (1993) 0 (1964) 320 3 4 6 7 28 81 140 322 1100
2025-09-03 11:30 5.63 18 9390 (1993) 0 (1964) 320 3 4 6 7 28 81 140 322 1100
2025-09-03 11:00 5.66 20 9390 (1993) 0 (1964) 320 3 4 6 7 28 81 140 322 1100
2025-09-03 10:30 5.70 23 9390 (1993) 0 (1964) 320 3 4 6 7 28 81 140 322 1100
2025-09-03 10:00 5.70 23 9390 (1993) 0 (1964) 320 3 4 6 7 28 81 140 322 1100
2025-09-03 09:30 5.69 22 9390 (1993) 0 (1964) 320 3 4 6 7 28 81 140 322 1100
2025-09-03 09:00 5.70 23 9390 (1993) 0 (1964) 320 3 4 6 7 28 81 140 322 1100
2025-09-03 08:30 5.70 23 9390 (1993) 0 (1964) 320 3 4 6 7 28 81 140 322 1100
2025-09-03 08:00 5.70 23 9390 (1993) 0 (1964) 320 3 4 6 7 28 81 140 322 1100
2025-09-03 07:30 5.70 23 9390 (1993) 0 (1964) 320 3 4 6 7 28 81 140 322 1100
2025-09-03 07:00 5.70 23 9390 (1993) 0 (1964) 320 3 4 6 7 28 81 140 322 1100
2025-09-03 06:30 5.70 23 9390 (1993) 0 (1964) 320 3 4 6 7 28 81 140 322 1100
2025-09-03 06:00 5.70 23 9390 (1993) 0 (1964) 320 3 4 6 7 28 81 140 322 1100
2025-09-03 05:30 5.70 23 9390 (1993) 0 (1964) 320 3 4 6 7 28 81 140 322 1100
2025-09-03 05:00 5.70 23 9390 (1993) 0 (1964) 320 3 4 6 7 28 81 140 322 1100
2025-09-03 04:30 5.70 23 9390 (1993) 0 (1964) 320 3 4 6 7 28 81 140 322 1100
2025-09-03 04:00 5.70 23 9390 (1993) 0 (1964) 320 3 4 6 7 28 81 140 322 1100
2025-09-03 03:30 5.70 23 9390 (1993) 0 (1964) 320 3 4 6 7 28 81 140 322 1100
2025-09-03 03:00 5.70 23 9390 (1993) 0 (1964) 320 3 4 6 7 28 81 140 322 1100
2025-09-03 02:30 5.70 23 9390 (1993) 0 (1964) 320 3 4 6 7 28 81 140 322 1100
2025-09-03 02:00 5.70 23 9390 (1993) 0 (1964) 320 3 4 6 7 28 81 140 322 1100
2025-09-03 01:30 5.70 23 9390 (1993) 0 (1964) 320 3 4 6 7 28 81 140 322 1100
2025-09-03 01:00 5.70 23 9390 (1993) 0 (1964) 320 3 4 6 7 28 81 140 322 1100
2025-09-03 00:30 5.70 23 9390 (1993) 0 (1964) 320 3 4 6 7 28 81 140 322 1100
2025-09-03 00:00 5.70 23 9390 (1993) 0 (1964) 320 3 4 6 7 28 81 140 322 1100
2025-09-02 23:30 5.70 23 9390 (1993) 0 (1964) 320 3 4 6 7 28 81 140 322 1100
2025-09-02 23:00 5.70 23 9390 (1993) 0 (1964) 320 3 4 6 7 28 81 140 322 1100
2025-09-02 22:30 5.70 23 8870 (2014) 0 (1964) 326 3 3 6 8 28 74 131 358 1300
2025-09-02 22:00 5.70 23 8870 (2014) 0 (1964) 326 3 3 6 8 28 74 131 358 1300
2025-09-02 21:30 5.70 23 8870 (2014) 0 (1964) 326 3 3 6 8 28 74 131 358 1300
2025-09-02 21:00 5.70 23 8870 (2014) 0 (1964) 326 3 3 6 8 28 74 131 358 1300
2025-09-02 20:30 5.70 23 8870 (2014) 0 (1964) 326 3 3 6 8 28 74 131 358 1300
2025-09-02 20:00 5.70 23 8870 (2014) 0 (1964) 326 3 3 6 8 28 74 131 358 1300
2025-09-02 19:30 5.70 23 8870 (2014) 0 (1964) 326 3 3 6 8 28 74 131 358 1300
2025-09-02 19:00 5.70 23 8870 (2014) 0 (1964) 326 3 3 6 8 28 74 131 358 1300
2025-09-02 18:30 5.70 23 8870 (2014) 0 (1964) 326 3 3 6 8 28 74 131 358 1300
2025-09-02 18:00 5.70 23 8870 (2014) 0 (1964) 326 3 3 6 8 28 74 131 358 1300
2025-09-02 17:30 5.70 23 8870 (2014) 0 (1964) 326 3 3 6 8 28 74 131 358 1300
2025-09-02 17:00 5.70 23 8870 (2014) 0 (1964) 326 3 3 6 8 28 74 131 358 1300
2025-09-02 16:30 5.70 23 8870 (2014) 0 (1964) 326 3 3 6 8 28 74 131 358 1300
2025-09-02 16:00 5.71 24 8870 (2014) 0 (1964) 326 3 3 6 8 28 74 131 358 1300
2025-09-02 15:30 5.67 21 8870 (2014) 0 (1964) 326 3 3 6 8 28 74 131 358 1300
2025-09-02 15:00 5.71 24 8870 (2014) 0 (1964) 326 3 3 6 8 28 74 131 358 1300
2025-09-02 14:30 5.70 23 8870 (2014) 0 (1964) 326 3 3 6 8 28 74 131 358 1300
2025-09-02 14:00 5.68 21 8870 (2014) 0 (1964) 326 3 3 6 8 28 74 131 358 1300
2025-09-02 13:30 5.64 19 8870 (2014) 0 (1964) 326 3 3 6 8 28 74 131 358 1300
2025-09-02 13:00 5.67 21 8870 (2014) 0 (1964) 326 3 3 6 8 28 74 131 358 1300
2025-09-02 12:30 5.69 22 8870 (2014) 0 (1964) 326 3 3 6 8 28 74 131 358 1300
2025-09-02 12:00 5.71 24 8870 (2014) 0 (1964) 326 3 3 6 8 28 74 131 358 1300
2025-09-02 11:30 5.70 23 8870 (2014) 0 (1964) 326 3 3 6 8 28 74 131 358 1300
2025-09-02 11:00 24 8870 (2014) 0 (1964) 326 3 3 6 8 28 74 131 358 1300
2025-09-02 10:30 5.71 24 8870 (2014) 0 (1964) 326 3 3 6 8 28 74 131 358 1300
2025-09-02 10:00 5.71 24 8870 (2014) 0 (1964) 326 3 3 6 8 28 74 131 358 1300
2025-09-02 09:30 5.69 22 8870 (2014) 0 (1964) 326 3 3 6 8 28 74 131 358 1300
2025-09-02 09:00 5.71 24 8870 (2014) 0 (1964) 326 3 3 6 8 28 74 131 358 1300
2025-09-02 08:30 5.71 24 8870 (2014) 0 (1964) 326 3 3 6 8 28 74 131 358 1300
2025-09-02 08:00 5.71 24 8870 (2014) 0 (1964) 326 3 3 6 8 28 74 131 358 1300
2025-09-02 07:30 5.71 24 8870 (2014) 0 (1964) 326 3 3 6 8 28 74 131 358 1300
2025-09-02 07:00 5.71 24 8870 (2014) 0 (1964) 326 3 3 6 8 28 74 131 358 1300
2025-09-02 06:30 5.71 24 8870 (2014) 0 (1964) 326 3 3 6 8 28 74 131 358 1300
2025-09-02 06:00 5.71 24 8870 (2014) 0 (1964) 326 3 3 6 8 28 74 131 358 1300
2025-09-02 05:30 5.71 24 8870 (2014) 0 (1964) 326 3 3 6 8 28 74 131 358 1300
2025-09-02 05:00 5.71 24 8870 (2014) 0 (1964) 326 3 3 6 8 28 74 131 358 1300
2025-09-02 04:30 5.71 24 8870 (2014) 0 (1964) 326 3 3 6 8 28 74 131 358 1300
2025-09-02 04:00 5.71 24 8870 (2014) 0 (1964) 326 3 3 6 8 28 74 131 358 1300
2025-09-02 03:30 5.71 24 8870 (2014) 0 (1964) 326 3 3 6 8 28 74 131 358 1300
2025-09-02 03:00 5.67 21 8870 (2014) 0 (1964) 326 3 3 6 8 28 74 131 358 1300
2025-09-02 02:30 5.71 24 8870 (2014) 0 (1964) 326 3 3 6 8 28 74 131 358 1300
2025-09-02 02:00 5.71 24 8870 (2014) 0 (1964) 326 3 3 6 8 28 74 131 358 1300
2025-09-02 01:30 23 8870 (2014) 0 (1964) 326 3 3 6 8 28 74 131 358 1300
2025-09-02 01:00 5.70 23 8870 (2014) 0 (1964) 326 3 3 6 8 28 74 131 358 1300
2025-09-02 00:30 5.71 24 8870 (2014) 0 (1964) 326 3 3 6 8 28 74 131 358 1300
2025-09-02 00:00 5.70 23 8870 (2014) 0 (1964) 326 3 3 6 8 28 74 131 358 1300
2025-09-01 23:30 5.70 23 8870 (2014) 0 (1964) 326 3 3 6 8 28 74 131 358 1300
2025-09-01 23:00 5.70 23 8870 (2014) 0 (1964) 326 3 3 6 8 28 74 131 358 1300
2025-09-01 22:30 5.70 23 9130 (2003) 0 (1936) 261 1 3 6 8 28 69 98 514 957
2025-09-01 22:00 5.70 23 9130 (2003) 0 (1936) 261 1 3 6 8 28 69 98 514 957
2025-09-01 21:30 5.70 23 9130 (2003) 0 (1936) 261 1 3 6 8 28 69 98 514 957
2025-09-01 21:00 5.70 23 9130 (2003) 0 (1936) 261 1 3 6 8 28 69 98 514 957
2025-09-01 20:30 5.70 23 9130 (2003) 0 (1936) 261 1 3 6 8 28 69 98 514 957
2025-09-01 20:00 5.70 23 9130 (2003) 0 (1936) 261 1 3 6 8 28 69 98 514 957
2025-09-01 19:30 5.70 23 9130 (2003) 0 (1936) 261 1 3 6 8 28 69 98 514 957
2025-09-01 19:00 5.70 23 9130 (2003) 0 (1936) 261 1 3 6 8 28 69 98 514 957
2025-09-01 18:30 5.70 23 9130 (2003) 0 (1936) 261 1 3 6 8 28 69 98 514 957
2025-09-01 18:00 5.70 23 9130 (2003) 0 (1936) 261 1 3 6 8 28 69 98 514 957
2025-09-01 17:30 5.66 20 9130 (2003) 0 (1936) 261 1 3 6 8 28 69 98 514 957
2025-09-01 17:00 5.71 24 9130 (2003) 0 (1936) 261 1 3 6 8 28 69 98 514 957
2025-09-01 16:30 5.70 23 9130 (2003) 0 (1936) 261 1 3 6 8 28 69 98 514 957
2025-09-01 16:00 5.68 21 9130 (2003) 0 (1936) 261 1 3 6 8 28 69 98 514 957
2025-09-01 15:30 5.69 22 9130 (2003) 0 (1936) 261 1 3 6 8 28 69 98 514 957
2025-09-01 15:00 5.70 23 9130 (2003) 0 (1936) 261 1 3 6 8 28 69 98 514 957
2025-09-01 14:30 5.70 23 9130 (2003) 0 (1936) 261 1 3 6 8 28 69 98 514 957
2025-09-01 14:00 5.70 23 9130 (2003) 0 (1936) 261 1 3 6 8 28 69 98 514 957
2025-09-01 13:30 5.68 21 9130 (2003) 0 (1936) 261 1 3 6 8 28 69 98 514 957
2025-09-01 13:00 5.66 20 9130 (2003) 0 (1936) 261 1 3 6 8 28 69 98 514 957
2025-09-01 12:30 5.65 19 9130 (2003) 0 (1936) 261 1 3 6 8 28 69 98 514 957
2025-09-01 12:00 5.66 20 9130 (2003) 0 (1936) 261 1 3 6 8 28 69 98 514 957
2025-09-01 11:30 5.71 24 9130 (2003) 0 (1936) 261 1 3 6 8 28 69 98 514 957
2025-09-01 11:00 5.71 24 9130 (2003) 0 (1936) 261 1 3 6 8 28 69 98 514 957
2025-09-01 10:30 5.71 24 9130 (2003) 0 (1936) 261 1 3 6 8 28 69 98 514 957
2025-09-01 10:00 5.69 22 9130 (2003) 0 (1936) 261 1 3 6 8 28 69 98 514 957
2025-09-01 09:30 5.71 24 9130 (2003) 0 (1936) 261 1 3 6 8 28 69 98 514 957
2025-09-01 09:00 5.71 24 9130 (2003) 0 (1936) 261 1 3 6 8 28 69 98 514 957
2025-09-01 08:30 5.70 23 9130 (2003) 0 (1936) 261 1 3 6 8 28 69 98 514 957
2025-09-01 08:00 5.71 24 9130 (2003) 0 (1936) 261 1 3 6 8 28 69 98 514 957
2025-09-01 07:30 5.71 24 9130 (2003) 0 (1936) 261 1 3 6 8 28 69 98 514 957
2025-09-01 07:00 5.71 24 9130 (2003) 0 (1936) 261 1 3 6 8 28 69 98 514 957
2025-09-01 06:30 5.71 24 9130 (2003) 0 (1936) 261 1 3 6 8 28 69 98 514 957
2025-09-01 06:00 5.71 24 9130 (2003) 0 (1936) 261 1 3 6 8 28 69 98 514 957
2025-09-01 05:30 5.71 24 9130 (2003) 0 (1936) 261 1 3 6 8 28 69 98 514 957
2025-09-01 05:00 5.71 24 9130 (2003) 0 (1936) 261 1 3 6 8 28 69 98 514 957
2025-09-01 04:30 5.71 24 9130 (2003) 0 (1936) 261 1 3 6 8 28 69 98 514 957
2025-09-01 04:00 5.71 24 9130 (2003) 0 (1936) 261 1 3 6 8 28 69 98 514 957
2025-09-01 03:30 5.71 24 9130 (2003) 0 (1936) 261 1 3 6 8 28 69 98 514 957
2025-09-01 03:00 5.71 24 9130 (2003) 0 (1936) 261 1 3 6 8 28 69 98 514 957
2025-09-01 02:30 5.71 24 9130 (2003) 0 (1936) 261 1 3 6 8 28 69 98 514 957
2025-09-01 02:00 5.71 24 9130 (2003) 0 (1936) 261 1 3 6 8 28 69 98 514 957
2025-09-01 01:30 24 9130 (2003) 0 (1936) 261 1 3 6 8 28 69 98 514 957
2025-09-01 01:00 5.71 24 9130 (2003) 0 (1936) 261 1 3 6 8 28 69 98 514 957
2025-09-01 00:30 5.71 24 9130 (2003) 0 (1936) 261 1 3 6 8 28 69 98 514 957
2025-09-01 00:00 5.71 24 9130 (2003) 0 (1936) 261 1 3 6 8 28 69 98 514 957
2025-08-31 23:30 5.71 24 9130 (2003) 0 (1936) 261 1 3 6 8 28 69 98 514 957
2025-08-31 23:00 5.71 24 9130 (2003) 0 (1936) 261 1 3 6 8 28 69 98 514 957
2025-08-31 22:30 5.71 24 3420 (1926) 0 (1936) 190 2 4 7 9 26 73 97 280 1590
2025-08-31 22:00 5.71 24 3420 (1926) 0 (1936) 190 2 4 7 9 26 73 97 280 1590
2025-08-31 21:30 5.71 24 3420 (1926) 0 (1936) 190 2 4 7 9 26 73 97 280 1590
2025-08-31 21:00 5.71 24 3420 (1926) 0 (1936) 190 2 4 7 9 26 73 97 280 1590
2025-08-31 20:30 5.71 24 3420 (1926) 0 (1936) 190 2 4 7 9 26 73 97 280 1590
2025-08-31 20:00 5.71 24 3420 (1926) 0 (1936) 190 2 4 7 9 26 73 97 280 1590
2025-08-31 19:30 5.71 24 3420 (1926) 0 (1936) 190 2 4 7 9 26 73 97 280 1590
2025-08-31 19:00 5.66 20 3420 (1926) 0 (1936) 190 2 4 7 9 26 73 97 280 1590
2025-08-31 18:30 5.67 21 3420 (1926) 0 (1936) 190 2 4 7 9 26 73 97 280 1590
2025-08-31 18:00 5.65 19 3420 (1926) 0 (1936) 190 2 4 7 9 26 73 97 280 1590
2025-08-31 17:30 5.64 19 3420 (1926) 0 (1936) 190 2 4 7 9 26 73 97 280 1590
2025-08-31 17:00 5.65 19 3420 (1926) 0 (1936) 190 2 4 7 9 26 73 97 280 1590
2025-08-31 16:30 5.66 20 3420 (1926) 0 (1936) 190 2 4 7 9 26 73 97 280 1590
2025-08-31 16:00 5.65 19 3420 (1926) 0 (1936) 190 2 4 7 9 26 73 97 280 1590
2025-08-31 15:30 5.67 21 3420 (1926) 0 (1936) 190 2 4 7 9 26 73 97 280 1590
2025-08-31 15:00 5.67 21 3420 (1926) 0 (1936) 190 2 4 7 9 26 73 97 280 1590
2025-08-31 14:30 5.67 21 3420 (1926) 0 (1936) 190 2 4 7 9 26 73 97 280 1590
2025-08-31 14:00 5.68 21 3420 (1926) 0 (1936) 190 2 4 7 9 26 73 97 280 1590
2025-08-31 13:30 5.64 19 3420 (1926) 0 (1936) 190 2 4 7 9 26 73 97 280 1590
2025-08-31 13:00 5.67 21 3420 (1926) 0 (1936) 190 2 4 7 9 26 73 97 280 1590
2025-08-31 12:30 5.71 24 3420 (1926) 0 (1936) 190 2 4 7 9 26 73 97 280 1590
2025-08-31 12:00 5.71 24 3420 (1926) 0 (1936) 190 2 4 7 9 26 73 97 280 1590
2025-08-31 11:30 5.71 24 3420 (1926) 0 (1936) 190 2 4 7 9 26 73 97 280 1590
2025-08-31 11:00 5.69 22 3420 (1926) 0 (1936) 190 2 4 7 9 26 73 97 280 1590
2025-08-31 10:30 5.72 24 3420 (1926) 0 (1936) 190 2 4 7 9 26 73 97 280 1590
2025-08-31 10:00 5.70 23 3420 (1926) 0 (1936) 190 2 4 7 9 26 73 97 280 1590
2025-08-31 09:30 5.71 24 3420 (1926) 0 (1936) 190 2 4 7 9 26 73 97 280 1590
2025-08-31 09:00 5.72 24 3420 (1926) 0 (1936) 190 2 4 7 9 26 73 97 280 1590
2025-08-31 08:30 5.71 24 3420 (1926) 0 (1936) 190 2 4 7 9 26 73 97 280 1590
2025-08-31 08:00 5.71 24 3420 (1926) 0 (1936) 190 2 4 7 9 26 73 97 280 1590
2025-08-31 07:30 5.71 24 3420 (1926) 0 (1936) 190 2 4 7 9 26 73 97 280 1590
2025-08-31 07:00 5.72 24 3420 (1926) 0 (1936) 190 2 4 7 9 26 73 97 280 1590
2025-08-31 06:30 5.72 24 3420 (1926) 0 (1936) 190 2 4 7 9 26 73 97 280 1590
2025-08-31 06:00 5.72 24 3420 (1926) 0 (1936) 190 2 4 7 9 26 73 97 280 1590
2025-08-31 05:30 5.72 24 3420 (1926) 0 (1936) 190 2 4 7 9 26 73 97 280 1590
2025-08-31 05:00 5.72 24 3420 (1926) 0 (1936) 190 2 4 7 9 26 73 97 280 1590
2025-08-31 04:30 5.72 24 3420 (1926) 0 (1936) 190 2 4 7 9 26 73 97 280 1590
2025-08-31 04:00 5.72 24 3420 (1926) 0 (1936) 190 2 4 7 9 26 73 97 280 1590
2025-08-31 03:30 5.72 24 3420 (1926) 0 (1936) 190 2 4 7 9 26 73 97 280 1590
2025-08-31 03:00 24 3420 (1926) 0 (1936) 190 2 4 7 9 26 73 97 280 1590
2025-08-31 02:30 5.72 24 3420 (1926) 0 (1936) 190 2 4 7 9 26 73 97 280 1590
2025-08-31 02:00 24 3420 (1926) 0 (1936) 190 2 4 7 9 26 73 97 280 1590
2025-08-31 01:30 5.72 24 3420 (1926) 0 (1936) 190 2 4 7 9 26 73 97 280 1590
2025-08-31 01:00 5.72 24 3420 (1926) 0 (1936) 190 2 4 7 9 26 73 97 280 1590
2025-08-31 00:30 24 3420 (1926) 0 (1936) 190 2 4 7 9 26 73 97 280 1590
2025-08-31 00:00 5.72 24 3420 (1926) 0 (1936) 190 2 4 7 9 26 73 97 280 1590
2025-08-30 23:30 5.72 24 3420 (1926) 0 (1936) 190 2 4 7 9 26 73 97 280 1590
2025-08-30 23:00 5.72 24 3420 (1926) 0 (1936) 190 2 4 7 9 26 73 97 280 1590
2025-08-30 22:30 5.72 24 3670 (1985) 0 (1936) 147 2 4 7 9 25 72 87 200 630
2025-08-30 22:00 5.72 24 3670 (1985) 0 (1936) 147 2 4 7 9 25 72 87 200 630
2025-08-30 21:30 5.72 24 3670 (1985) 0 (1936) 147 2 4 7 9 25 72 87 200 630
2025-08-30 21:00 5.72 24 3670 (1985) 0 (1936) 147 2 4 7 9 25 72 87 200 630
2025-08-30 20:30 5.72 24 3670 (1985) 0 (1936) 147 2 4 7 9 25 72 87 200 630
2025-08-30 20:00 5.72 24 3670 (1985) 0 (1936) 147 2 4 7 9 25 72 87 200 630
2025-08-30 19:30 5.72 24 3670 (1985) 0 (1936) 147 2 4 7 9 25 72 87 200 630
2025-08-30 19:00 5.71 24 3670 (1985) 0 (1936) 147 2 4 7 9 25 72 87 200 630
2025-08-30 18:30 5.66 20 3670 (1985) 0 (1936) 147 2 4 7 9 25 72 87 200 630
2025-08-30 18:00 5.66 20 3670 (1985) 0 (1936) 147 2 4 7 9 25 72 87 200 630
2025-08-30 17:30 5.67 21 3670 (1985) 0 (1936) 147 2 4 7 9 25 72 87 200 630
2025-08-30 17:00 5.64 19 3670 (1985) 0 (1936) 147 2 4 7 9 25 72 87 200 630
2025-08-30 16:30 5.66 20 3670 (1985) 0 (1936) 147 2 4 7 9 25 72 87 200 630
2025-08-30 16:00 5.62 18 3670 (1985) 0 (1936) 147 2 4 7 9 25 72 87 200 630
2025-08-30 15:30 5.65 19 3670 (1985) 0 (1936) 147 2 4 7 9 25 72 87 200 630
2025-08-30 15:00 5.67 21 3670 (1985) 0 (1936) 147 2 4 7 9 25 72 87 200 630
2025-08-30 14:30 5.72 24 3670 (1985) 0 (1936) 147 2 4 7 9 25 72 87 200 630
2025-08-30 14:00 5.67 21 3670 (1985) 0 (1936) 147 2 4 7 9 25 72 87 200 630
2025-08-30 13:30 5.72 24 3670 (1985) 0 (1936) 147 2 4 7 9 25 72 87 200 630
2025-08-30 13:00 5.72 24 3670 (1985) 0 (1936) 147 2 4 7 9 25 72 87 200 630
2025-08-30 12:30 5.72 24 3670 (1985) 0 (1936) 147 2 4 7 9 25 72 87 200 630
2025-08-30 12:00 5.70 23 3670 (1985) 0 (1936) 147 2 4 7 9 25 72 87 200 630
2025-08-30 11:30 5.70 23 3670 (1985) 0 (1936) 147 2 4 7 9 25 72 87 200 630
2025-08-30 11:00 5.70 23 3670 (1985) 0 (1936) 147 2 4 7 9 25 72 87 200 630
2025-08-30 10:30 5.72 24 3670 (1985) 0 (1936) 147 2 4 7 9 25 72 87 200 630
2025-08-30 10:00 5.72 24 3670 (1985) 0 (1936) 147 2 4 7 9 25 72 87 200 630
2025-08-30 09:30 5.72 24 3670 (1985) 0 (1936) 147 2 4 7 9 25 72 87 200 630
2025-08-30 09:00 5.72 24 3670 (1985) 0 (1936) 147 2 4 7 9 25 72 87 200 630
2025-08-30 08:30 5.69 22 3670 (1985) 0 (1936) 147 2 4 7 9 25 72 87 200 630
2025-08-30 08:00 5.72 24 3670 (1985) 0 (1936) 147 2 4 7 9 25 72 87 200 630
2025-08-30 07:30 5.73 25 3670 (1985) 0 (1936) 147 2 4 7 9 25 72 87 200 630
2025-08-30 07:00 5.73 25 3670 (1985) 0 (1936) 147 2 4 7 9 25 72 87 200 630
2025-08-30 06:30 5.73 25 3670 (1985) 0 (1936) 147 2 4 7 9 25 72 87 200 630
2025-08-30 06:00 5.73 25 3670 (1985) 0 (1936) 147 2 4 7 9 25 72 87 200 630
2025-08-30 05:30 5.73 25 3670 (1985) 0 (1936) 147 2 4 7 9 25 72 87 200 630
2025-08-30 05:00 5.73 25 3670 (1985) 0 (1936) 147 2 4 7 9 25 72 87 200 630
2025-08-30 04:30 5.73 25 3670 (1985) 0 (1936) 147 2 4 7 9 25 72 87 200 630
2025-08-30 04:00 5.73 25 3670 (1985) 0 (1936) 147 2 4 7 9 25 72 87 200 630
2025-08-30 03:30 5.73 25 3670 (1985) 0 (1936) 147 2 4 7 9 25 72 87 200 630
2025-08-30 03:00 5.73 25 3670 (1985) 0 (1936) 147 2 4 7 9 25 72 87 200 630
2025-08-30 02:30 5.73 25 3670 (1985) 0 (1936) 147 2 4 7 9 25 72 87 200 630
2025-08-30 02:00 5.73 25 3670 (1985) 0 (1936) 147 2 4 7 9 25 72 87 200 630
2025-08-30 01:30 5.73 25 3670 (1985) 0 (1936) 147 2 4 7 9 25 72 87 200 630
2025-08-30 01:00 5.73 25 3670 (1985) 0 (1936) 147 2 4 7 9 25 72 87 200 630
2025-08-30 00:30 5.73 25 3670 (1985) 0 (1936) 147 2 4 7 9 25 72 87 200 630
2025-08-30 00:00 5.73 25 3670 (1985) 0 (1936) 147 2 4 7 9 25 72 87 200 630
2025-08-29 23:30 5.73 25 3670 (1985) 0 (1936) 147 2 4 7 9 25 72 87 200 630
2025-08-29 23:00 5.73 25 3670 (1985) 0 (1936) 147 2 4 7 9 25 72 87 200 630
2025-08-29 22:30 5.73 25 1120 (1982) 0 (1936) 84 2 4 6 8 21 74 82 199 500
2025-08-29 22:00 5.73 25 1120 (1982) 0 (1936) 84 2 4 6 8 21 74 82 199 500
2025-08-29 21:30 5.73 25 1120 (1982) 0 (1936) 84 2 4 6 8 21 74 82 199 500
2025-08-29 21:00 5.73 25 1120 (1982) 0 (1936) 84 2 4 6 8 21 74 82 199 500
2025-08-29 20:30 5.73 25 1120 (1982) 0 (1936) 84 2 4 6 8 21 74 82 199 500
2025-08-29 20:00 5.73 25 1120 (1982) 0 (1936) 84 2 4 6 8 21 74 82 199 500
2025-08-29 19:30 5.73 25 1120 (1982) 0 (1936) 84 2 4 6 8 21 74 82 199 500
2025-08-29 19:00 5.73 25 1120 (1982) 0 (1936) 84 2 4 6 8 21 74 82 199 500
2025-08-29 18:30 5.73 25 1120 (1982) 0 (1936) 84 2 4 6 8 21 74 82 199 500
2025-08-29 18:00 5.73 25 1120 (1982) 0 (1936) 84 2 4 6 8 21 74 82 199 500
2025-08-29 17:30 5.73 25 1120 (1982) 0 (1936) 84 2 4 6 8 21 74 82 199 500
2025-08-29 17:00 5.73 25 1120 (1982) 0 (1936) 84 2 4 6 8 21 74 82 199 500
2025-08-29 16:30 5.73 25 1120 (1982) 0 (1936) 84 2 4 6 8 21 74 82 199 500
2025-08-29 16:00 5.73 25 1120 (1982) 0 (1936) 84 2 4 6 8 21 74 82 199 500
2025-08-29 15:30 5.73 25 1120 (1982) 0 (1936) 84 2 4 6 8 21 74 82 199 500
2025-08-29 15:00 5.73 25 1120 (1982) 0 (1936) 84 2 4 6 8 21 74 82 199 500
2025-08-29 14:30 5.73 25 1120 (1982) 0 (1936) 84 2 4 6 8 21 74 82 199 500
2025-08-29 14:00 5.73 25 1120 (1982) 0 (1936) 84 2 4 6 8 21 74 82 199 500
2025-08-29 13:30 5.74 26 1120 (1982) 0 (1936) 84 2 4 6 8 21 74 82 199 500
2025-08-29 13:00 5.73 25 1120 (1982) 0 (1936) 84 2 4 6 8 21 74 82 199 500
2025-08-29 12:30 5.73 25 1120 (1982) 0 (1936) 84 2 4 6 8 21 74 82 199 500
2025-08-29 12:00 5.73 25 1120 (1982) 0 (1936) 84 2 4 6 8 21 74 82 199 500
2025-08-29 11:30 25 1120 (1982) 0 (1936) 84 2 4 6 8 21 74 82 199 500
2025-08-29 11:00 5.73 25 1120 (1982) 0 (1936) 84 2 4 6 8 21 74 82 199 500
2025-08-29 10:30 5.73 25 1120 (1982) 0 (1936) 84 2 4 6 8 21 74 82 199 500
2025-08-29 10:00 5.70 23 1120 (1982) 0 (1936) 84 2 4 6 8 21 74 82 199 500
2025-08-29 09:30 5.72 24 1120 (1982) 0 (1936) 84 2 4 6 8 21 74 82 199 500
2025-08-29 09:00 5.73 25 1120 (1982) 0 (1936) 84 2 4 6 8 21 74 82 199 500
2025-08-29 08:30 5.73 25 1120 (1982) 0 (1936) 84 2 4 6 8 21 74 82 199 500
2025-08-29 08:00 5.74 26 1120 (1982) 0 (1936) 84 2 4 6 8 21 74 82 199 500
2025-08-29 07:30 5.74 26 1120 (1982) 0 (1936) 84 2 4 6 8 21 74 82 199 500
2025-08-29 07:00 5.74 26 1120 (1982) 0 (1936) 84 2 4 6 8 21 74 82 199 500
2025-08-29 06:30 5.74 26 1120 (1982) 0 (1936) 84 2 4 6 8 21 74 82 199 500
2025-08-29 06:00 5.74 26 1120 (1982) 0 (1936) 84 2 4 6 8 21 74 82 199 500
2025-08-29 05:30 5.74 26 1120 (1982) 0 (1936) 84 2 4 6 8 21 74 82 199 500
2025-08-29 05:00 5.74 26 1120 (1982) 0 (1936) 84 2 4 6 8 21 74 82 199 500
2025-08-29 04:30 5.74 26 1120 (1982) 0 (1936) 84 2 4 6 8 21 74 82 199 500
2025-08-29 04:00 5.74 26 1120 (1982) 0 (1936) 84 2 4 6 8 21 74 82 199 500
2025-08-29 03:30 26 1120 (1982) 0 (1936) 84 2 4 6 8 21 74 82 199 500
2025-08-29 03:00 5.74 26 1120 (1982) 0 (1936) 84 2 4 6 8 21 74 82 199 500
2025-08-29 02:30 5.74 26 1120 (1982) 0 (1936) 84 2 4 6 8 21 74 82 199 500
2025-08-29 02:00 5.74 26 1120 (1982) 0 (1936) 84 2 4 6 8 21 74 82 199 500
2025-08-29 01:30 5.74 26 1120 (1982) 0 (1936) 84 2 4 6 8 21 74 82 199 500
2025-08-29 01:00 5.74 26 1120 (1982) 0 (1936) 84 2 4 6 8 21 74 82 199 500
2025-08-29 00:30 5.74 26 1120 (1982) 0 (1936) 84 2 4 6 8 21 74 82 199 500
2025-08-29 00:00 5.74 26 1120 (1982) 0 (1936) 84 2 4 6 8 21 74 82 199 500
2025-08-28 23:30 5.74 26 1120 (1982) 0 (1936) 84 2 4 6 8 21 74 82 199 500
2025-08-28 23:00 5.74 26 1120 (1982) 0 (1936) 84 2 4 6 8 21 74 82 199 500
2025-08-28 22:30 5.74 26 2710 (1982) 0 (1936) 149 2 4 7 9 26 85 103 313 646
2025-08-28 22:00 5.74 26 2710 (1982) 0 (1936) 149 2 4 7 9 26 85 103 313 646
2025-08-28 21:30 5.74 26 2710 (1982) 0 (1936) 149 2 4 7 9 26 85 103 313 646
2025-08-28 21:00 5.74 26 2710 (1982) 0 (1936) 149 2 4 7 9 26 85 103 313 646
2025-08-28 20:30 5.74 26 2710 (1982) 0 (1936) 149 2 4 7 9 26 85 103 313 646
2025-08-28 20:00 5.74 26 2710 (1982) 0 (1936) 149 2 4 7 9 26 85 103 313 646
2025-08-28 19:30 5.74 26 2710 (1982) 0 (1936) 149 2 4 7 9 26 85 103 313 646
2025-08-28 19:00 5.74 26 2710 (1982) 0 (1936) 149 2 4 7 9 26 85 103 313 646
2025-08-28 18:30 5.74 26 2710 (1982) 0 (1936) 149 2 4 7 9 26 85 103 313 646
2025-08-28 18:00 5.74 26 2710 (1982) 0 (1936) 149 2 4 7 9 26 85 103 313 646
2025-08-28 17:30 5.74 26 2710 (1982) 0 (1936) 149 2 4 7 9 26 85 103 313 646
2025-08-28 17:00 5.74 26 2710 (1982) 0 (1936) 149 2 4 7 9 26 85 103 313 646
2025-08-28 16:30 26 2710 (1982) 0 (1936) 149 2 4 7 9 26 85 103 313 646
2025-08-28 16:00 5.74 26 2710 (1982) 0 (1936) 149 2 4 7 9 26 85 103 313 646
2025-08-28 15:30 5.74 26 2710 (1982) 0 (1936) 149 2 4 7 9 26 85 103 313 646
2025-08-28 15:00 5.74 26 2710 (1982) 0 (1936) 149 2 4 7 9 26 85 103 313 646
2025-08-28 14:30 5.71 24 2710 (1982) 0 (1936) 149 2 4 7 9 26 85 103 313 646
2025-08-28 14:00 5.74 26 2710 (1982) 0 (1936) 149 2 4 7 9 26 85 103 313 646
2025-08-28 13:30 5.74 26 2710 (1982) 0 (1936) 149 2 4 7 9 26 85 103 313 646
2025-08-28 13:00 5.74 26 2710 (1982) 0 (1936) 149 2 4 7 9 26 85 103 313 646
2025-08-28 12:30 5.74 26 2710 (1982) 0 (1936) 149 2 4 7 9 26 85 103 313 646
2025-08-28 12:00 5.74 26 2710 (1982) 0 (1936) 149 2 4 7 9 26 85 103 313 646
2025-08-28 11:30 5.74 26 2710 (1982) 0 (1936) 149 2 4 7 9 26 85 103 313 646
2025-08-28 11:00 5.74 26 2710 (1982) 0 (1936) 149 2 4 7 9 26 85 103 313 646
2025-08-28 10:30 5.74 26 2710 (1982) 0 (1936) 149 2 4 7 9 26 85 103 313 646
2025-08-28 10:00 5.74 26 2710 (1982) 0 (1936) 149 2 4 7 9 26 85 103 313 646
2025-08-28 09:30 5.74 26 2710 (1982) 0 (1936) 149 2 4 7 9 26 85 103 313 646
2025-08-28 09:00 5.74 26 2710 (1982) 0 (1936) 149 2 4 7 9 26 85 103 313 646
2025-08-28 08:30 5.74 26 2710 (1982) 0 (1936) 149 2 4 7 9 26 85 103 313 646
2025-08-28 08:00 5.75 27 2710 (1982) 0 (1936) 149 2 4 7 9 26 85 103 313 646
2025-08-28 07:30 5.75 27 2710 (1982) 0 (1936) 149 2 4 7 9 26 85 103 313 646
2025-08-28 07:00 5.75 27 2710 (1982) 0 (1936) 149 2 4 7 9 26 85 103 313 646
2025-08-28 06:30 5.75 27 2710 (1982) 0 (1936) 149 2 4 7 9 26 85 103 313 646
2025-08-28 06:00 5.75 27 2710 (1982) 0 (1936) 149 2 4 7 9 26 85 103 313 646
2025-08-28 05:30 5.75 27 2710 (1982) 0 (1936) 149 2 4 7 9 26 85 103 313 646
2025-08-28 05:00 5.75 27 2710 (1982) 0 (1936) 149 2 4 7 9 26 85 103 313 646
2025-08-28 04:30 5.75 27 2710 (1982) 0 (1936) 149 2 4 7 9 26 85 103 313 646
2025-08-28 04:00 5.75 27 2710 (1982) 0 (1936) 149 2 4 7 9 26 85 103 313 646
2025-08-28 03:30 5.75 27 2710 (1982) 0 (1936) 149 2 4 7 9 26 85 103 313 646
2025-08-28 03:00 5.75 27 2710 (1982) 0 (1936) 149 2 4 7 9 26 85 103 313 646
2025-08-28 02:30 5.75 27 2710 (1982) 0 (1936) 149 2 4 7 9 26 85 103 313 646
2025-08-28 02:00 5.75 27 2710 (1982) 0 (1936) 149 2 4 7 9 26 85 103 313 646
2025-08-28 01:30 27 2710 (1982) 0 (1936) 149 2 4 7 9 26 85 103 313 646
2025-08-28 01:00 5.75 27 2710 (1982) 0 (1936) 149 2 4 7 9 26 85 103 313 646
2025-08-28 00:30 5.75 27 2710 (1982) 0 (1936) 149 2 4 7 9 26 85 103 313 646
2025-08-28 00:00 5.75 27 2710 (1982) 0 (1936) 149 2 4 7 9 26 85 103 313 646
2025-08-27 23:30 5.75 27 2710 (1982) 0 (1936) 149 2 4 7 9 26 85 103 313 646
2025-08-27 23:00 5.75 27 2710 (1982) 0 (1936) 149 2 4 7 9 26 85 103 313 646
2025-08-27 22:30 5.75 27 9170 (1982) 0 (1936) 241 2 4 7 9 26 78 117 396 868
2025-08-27 22:00 5.75 27 9170 (1982) 0 (1936) 241 2 4 7 9 26 78 117 396 868
2025-08-27 21:30 5.75 27 9170 (1982) 0 (1936) 241 2 4 7 9 26 78 117 396 868
2025-08-27 21:00 5.75 27 9170 (1982) 0 (1936) 241 2 4 7 9 26 78 117 396 868
2025-08-27 20:30 5.75 27 9170 (1982) 0 (1936) 241 2 4 7 9 26 78 117 396 868
2025-08-27 20:00 5.75 27 9170 (1982) 0 (1936) 241 2 4 7 9 26 78 117 396 868
2025-08-27 19:30 5.75 27 9170 (1982) 0 (1936) 241 2 4 7 9 26 78 117 396 868
2025-08-27 19:00 5.75 27 9170 (1982) 0 (1936) 241 2 4 7 9 26 78 117 396 868
2025-08-27 18:30 5.75 27 9170 (1982) 0 (1936) 241 2 4 7 9 26 78 117 396 868
2025-08-27 18:00 5.75 27 9170 (1982) 0 (1936) 241 2 4 7 9 26 78 117 396 868
2025-08-27 17:30 5.75 27 9170 (1982) 0 (1936) 241 2 4 7 9 26 78 117 396 868
2025-08-27 17:00 5.75 27 9170 (1982) 0 (1936) 241 2 4 7 9 26 78 117 396 868
2025-08-27 16:30 5.75 27 9170 (1982) 0 (1936) 241 2 4 7 9 26 78 117 396 868
2025-08-27 16:00 5.75 27 9170 (1982) 0 (1936) 241 2 4 7 9 26 78 117 396 868
2025-08-27 15:30 5.75 27 9170 (1982) 0 (1936) 241 2 4 7 9 26 78 117 396 868
2025-08-27 15:00 5.71 24 9170 (1982) 0 (1936) 241 2 4 7 9 26 78 117 396 868
2025-08-27 14:30 5.75 27 9170 (1982) 0 (1936) 241 2 4 7 9 26 78 117 396 868
2025-08-27 14:00 5.68 21 9170 (1982) 0 (1936) 241 2 4 7 9 26 78 117 396 868
2025-08-27 13:30 5.75 27 9170 (1982) 0 (1936) 241 2 4 7 9 26 78 117 396 868
2025-08-27 13:00 5.75 27 9170 (1982) 0 (1936) 241 2 4 7 9 26 78 117 396 868
2025-08-27 12:30 5.75 27 9170 (1982) 0 (1936) 241 2 4 7 9 26 78 117 396 868
2025-08-27 12:00 5.75 27 9170 (1982) 0 (1936) 241 2 4 7 9 26 78 117 396 868
2025-08-27 11:30 5.75 27 9170 (1982) 0 (1936) 241 2 4 7 9 26 78 117 396 868
2025-08-27 11:00 27 9170 (1982) 0 (1936) 241 2 4 7 9 26 78 117 396 868
2025-08-27 10:30 5.75 27 9170 (1982) 0 (1936) 241 2 4 7 9 26 78 117 396 868
2025-08-27 10:00 5.75 27 9170 (1982) 0 (1936) 241 2 4 7 9 26 78 117 396 868
2025-08-27 09:30 5.74 26 9170 (1982) 0 (1936) 241 2 4 7 9 26 78 117 396 868
2025-08-27 09:00 27 9170 (1982) 0 (1936) 241 2 4 7 9 26 78 117 396 868
2025-08-27 08:30 5.75 27 9170 (1982) 0 (1936) 241 2 4 7 9 26 78 117 396 868
2025-08-27 08:00 5.75 27 9170 (1982) 0 (1936) 241 2 4 7 9 26 78 117 396 868
2025-08-27 07:30 5.76 28 9170 (1982) 0 (1936) 241 2 4 7 9 26 78 117 396 868
2025-08-27 07:00 5.76 28 9170 (1982) 0 (1936) 241 2 4 7 9 26 78 117 396 868
2025-08-27 06:30 5.76 28 9170 (1982) 0 (1936) 241 2 4 7 9 26 78 117 396 868
2025-08-27 06:00 5.76 28 9170 (1982) 0 (1936) 241 2 4 7 9 26 78 117 396 868
2025-08-27 05:30 5.76 28 9170 (1982) 0 (1936) 241 2 4 7 9 26 78 117 396 868
2025-08-27 05:00 5.76 28 9170 (1982) 0 (1936) 241 2 4 7 9 26 78 117 396 868
2025-08-27 04:30 5.76 28 9170 (1982) 0 (1936) 241 2 4 7 9 26 78 117 396 868
2025-08-27 04:00 5.76 28 9170 (1982) 0 (1936) 241 2 4 7 9 26 78 117 396 868
2025-08-27 03:30 5.75 27 9170 (1982) 0 (1936) 241 2 4 7 9 26 78 117 396 868
2025-08-27 03:00 5.76 28 9170 (1982) 0 (1936) 241 2 4 7 9 26 78 117 396 868
2025-08-27 02:30 5.75 27 9170 (1982) 0 (1936) 241 2 4 7 9 26 78 117 396 868
2025-08-27 02:00 27 9170 (1982) 0 (1936) 241 2 4 7 9 26 78 117 396 868
2025-08-27 01:30 28 9170 (1982) 0 (1936) 241 2 4 7 9 26 78 117 396 868
2025-08-27 01:00 5.75 27 9170 (1982) 0 (1936) 241 2 4 7 9 26 78 117 396 868
2025-08-27 00:30 5.75 27 9170 (1982) 0 (1936) 241 2 4 7 9 26 78 117 396 868
2025-08-27 00:00 5.76 28 9170 (1982) 0 (1936) 241 2 4 7 9 26 78 117 396 868
2025-08-26 23:30 5.75 27 9170 (1982) 0 (1936) 241 2 4 7 9 26 78 117 396 868
2025-08-26 23:00 5.75 27 9170 (1982) 0 (1936) 241 2 4 7 9 26 78 117 396 868
2025-08-26 22:30 5.75 27 9390 (2004) 0 (1936) 321 2 5 7 10 26 83 116 304 1300
2025-08-26 22:00 5.75 27 9390 (2004) 0 (1936) 321 2 5 7 10 26 83 116 304 1300
2025-08-26 21:30 5.75 27 9390 (2004) 0 (1936) 321 2 5 7 10 26 83 116 304 1300
2025-08-26 21:00 5.75 27 9390 (2004) 0 (1936) 321 2 5 7 10 26 83 116 304 1300
2025-08-26 20:30 5.75 27 9390 (2004) 0 (1936) 321 2 5 7 10 26 83 116 304 1300
2025-08-26 20:00 5.75 27 9390 (2004) 0 (1936) 321 2 5 7 10 26 83 116 304 1300
2025-08-26 19:30 5.75 27 9390 (2004) 0 (1936) 321 2 5 7 10 26 83 116 304 1300
2025-08-26 19:00 5.75 27 9390 (2004) 0 (1936) 321 2 5 7 10 26 83 116 304 1300
2025-08-26 18:30 5.75 27 9390 (2004) 0 (1936) 321 2 5 7 10 26 83 116 304 1300
2025-08-26 18:00 5.75 27 9390 (2004) 0 (1936) 321 2 5 7 10 26 83 116 304 1300
2025-08-26 17:30 5.76 28 9390 (2004) 0 (1936) 321 2 5 7 10 26 83 116 304 1300
2025-08-26 17:00 5.76 28 9390 (2004) 0 (1936) 321 2 5 7 10 26 83 116 304 1300
2025-08-26 16:30 5.72 24 9390 (2004) 0 (1936) 321 2 5 7 10 26 83 116 304 1300
2025-08-26 16:00 5.76 28 9390 (2004) 0 (1936) 321 2 5 7 10 26 83 116 304 1300
2025-08-26 15:30 5.75 27 9390 (2004) 0 (1936) 321 2 5 7 10 26 83 116 304 1300
2025-08-26 15:00 5.74 26 9390 (2004) 0 (1936) 321 2 5 7 10 26 83 116 304 1300
2025-08-26 14:30 5.74 26 9390 (2004) 0 (1936) 321 2 5 7 10 26 83 116 304 1300
2025-08-26 14:00 5.76 28 9390 (2004) 0 (1936) 321 2 5 7 10 26 83 116 304 1300
2025-08-26 13:30 5.72 24 9390 (2004) 0 (1936) 321 2 5 7 10 26 83 116 304 1300
2025-08-26 13:00 5.76 28 9390 (2004) 0 (1936) 321 2 5 7 10 26 83 116 304 1300
2025-08-26 12:30 5.72 24 9390 (2004) 0 (1936) 321 2 5 7 10 26 83 116 304 1300
2025-08-26 12:00 5.76 28 9390 (2004) 0 (1936) 321 2 5 7 10 26 83 116 304 1300
2025-08-26 11:30 5.75 27 9390 (2004) 0 (1936) 321 2 5 7 10 26 83 116 304 1300
2025-08-26 11:00 5.75 27 9390 (2004) 0 (1936) 321 2 5 7 10 26 83 116 304 1300
2025-08-26 10:30 5.76 28 9390 (2004) 0 (1936) 321 2 5 7 10 26 83 116 304 1300
2025-08-26 10:00 5.75 27 9390 (2004) 0 (1936) 321 2 5 7 10 26 83 116 304 1300
2025-08-26 09:30 5.73 25 9390 (2004) 0 (1936) 321 2 5 7 10 26 83 116 304 1300
2025-08-26 09:00 5.76 28 9390 (2004) 0 (1936) 321 2 5 7 10 26 83 116 304 1300
2025-08-26 08:30 5.76 28 9390 (2004) 0 (1936) 321 2 5 7 10 26 83 116 304 1300
2025-08-26 08:00 5.77 29 9390 (2004) 0 (1936) 321 2 5 7 10 26 83 116 304 1300
2025-08-26 07:15 5.77 29 9390 (2004) 0 (1936) 321 2 5 7 10 26 83 116 304 1300
2025-08-26 07:00 5.77 29 9390 (2004) 0 (1936) 321 2 5 7 10 26 83 116 304 1300
2025-08-26 06:30 5.77 69 9390 (2004) 0 (1936) 321 2 5 7 10 26 83 116 304 1300
2025-08-26 06:00 5.77 69 9390 (2004) 0 (1936) 321 2 5 7 10 26 83 116 304 1300
2025-08-26 05:30 5.77 69 9390 (2004) 0 (1936) 321 2 5 7 10 26 83 116 304 1300
2025-08-26 05:00 5.77 69 9390 (2004) 0 (1936) 321 2 5 7 10 26 83 116 304 1300
2025-08-26 04:30 5.77 69 9390 (2004) 0 (1936) 321 2 5 7 10 26 83 116 304 1300
2025-08-26 04:00 5.77 69 9390 (2004) 0 (1936) 321 2 5 7 10 26 83 116 304 1300
2025-08-26 03:30 5.77 69 9390 (2004) 0 (1936) 321 2 5 7 10 26 83 116 304 1300
2025-08-26 03:00 5.77 69 9390 (2004) 0 (1936) 321 2 5 7 10 26 83 116 304 1300
2025-08-26 02:30 5.77 69 9390 (2004) 0 (1936) 321 2 5 7 10 26 83 116 304 1300
2025-08-26 02:00 5.77 69 9390 (2004) 0 (1936) 321 2 5 7 10 26 83 116 304 1300
2025-08-26 01:30 69 9390 (2004) 0 (1936) 321 2 5 7 10 26 83 116 304 1300
2025-08-26 01:00 5.77 69 9390 (2004) 0 (1936) 321 2 5 7 10 26 83 116 304 1300
2025-08-26 00:30 5.77 69 9390 (2004) 0 (1936) 321 2 5 7 10 26 83 116 304 1300
2025-08-26 00:00 5.77 69 9390 (2004) 0 (1936) 321 2 5 7 10 26 83 116 304 1300
2025-08-25 23:30 5.77 69 9390 (2004) 0 (1936) 321 2 5 7 10 26 83 116 304 1300
2025-08-25 23:00 5.77 69 9390 (2004) 0 (1936) 321 2 5 7 10 26 83 116 304 1300
2025-08-25 22:30 5.76 68 10300 (2000) 0 (1936) 213 2 4 8 10 27 86 111 283 598
2025-08-25 22:00 5.77 69 10300 (2000) 0 (1936) 213 2 4 8 10 27 86 111 283 598
2025-08-25 21:30 5.76 68 10300 (2000) 0 (1936) 213 2 4 8 10 27 86 111 283 598
2025-08-25 21:00 5.76 68 10300 (2000) 0 (1936) 213 2 4 8 10 27 86 111 283 598
2025-08-25 20:30 5.76 68 10300 (2000) 0 (1936) 213 2 4 8 10 27 86 111 283 598
2025-08-25 20:00 5.76 68 10300 (2000) 0 (1936) 213 2 4 8 10 27 86 111 283 598
2025-08-25 19:30 5.76 68 10300 (2000) 0 (1936) 213 2 4 8 10 27 86 111 283 598
2025-08-25 19:00 5.76 68 10300 (2000) 0 (1936) 213 2 4 8 10 27 86 111 283 598
2025-08-25 18:30 5.77 69 10300 (2000) 0 (1936) 213 2 4 8 10 27 86 111 283 598
2025-08-25 18:00 5.76 68 10300 (2000) 0 (1936) 213 2 4 8 10 27 86 111 283 598
2025-08-25 17:30 5.77 69 10300 (2000) 0 (1936) 213 2 4 8 10 27 86 111 283 598
2025-08-25 17:00 5.77 69 10300 (2000) 0 (1936) 213 2 4 8 10 27 86 111 283 598
2025-08-25 16:30 5.74 65 10300 (2000) 0 (1936) 213 2 4 8 10 27 86 111 283 598
2025-08-25 16:00 5.77 69 10300 (2000) 0 (1936) 213 2 4 8 10 27 86 111 283 598
2025-08-25 15:30 5.77 69 10300 (2000) 0 (1936) 213 2 4 8 10 27 86 111 283 598
2025-08-25 15:00 5.77 69 10300 (2000) 0 (1936) 213 2 4 8 10 27 86 111 283 598
2025-08-25 14:30 5.72 62 10300 (2000) 0 (1936) 213 2 4 8 10 27 86 111 283 598
2025-08-25 14:00 5.74 65 10300 (2000) 0 (1936) 213 2 4 8 10 27 86 111 283 598
2025-08-25 13:30 5.72 62 10300 (2000) 0 (1936) 213 2 4 8 10 27 86 111 283 598
2025-08-25 13:00 5.77 69 10300 (2000) 0 (1936) 213 2 4 8 10 27 86 111 283 598
2025-08-25 12:30 5.77 69 10300 (2000) 0 (1936) 213 2 4 8 10 27 86 111 283 598
2025-08-25 12:00 5.73 63 10300 (2000) 0 (1936) 213 2 4 8 10 27 86 111 283 598
2025-08-25 11:30 5.75 66 10300 (2000) 0 (1936) 213 2 4 8 10 27 86 111 283 598
2025-08-25 11:00 5.77 69 10300 (2000) 0 (1936) 213 2 4 8 10 27 86 111 283 598
2025-08-25 10:30 5.73 63 10300 (2000) 0 (1936) 213 2 4 8 10 27 86 111 283 598
2025-08-25 10:00 5.76 68 10300 (2000) 0 (1936) 213 2 4 8 10 27 86 111 283 598
2025-08-25 09:30 5.77 69 10300 (2000) 0 (1936) 213 2 4 8 10 27 86 111 283 598
2025-08-25 09:00 5.77 69 10300 (2000) 0 (1936) 213 2 4 8 10 27 86 111 283 598
2025-08-25 08:30 5.77 69 10300 (2000) 0 (1936) 213 2 4 8 10 27 86 111 283 598
2025-08-25 08:00 5.77 69 10300 (2000) 0 (1936) 213 2 4 8 10 27 86 111 283 598
2025-08-25 07:30 5.77 69 10300 (2000) 0 (1936) 213 2 4 8 10 27 86 111 283 598
2025-08-25 07:00 5.78 71 10300 (2000) 0 (1936) 213 2 4 8 10 27 86 111 283 598
2025-08-25 06:30 5.77 69 10300 (2000) 0 (1936) 213 2 4 8 10 27 86 111 283 598
2025-08-25 06:00 5.78 71 10300 (2000) 0 (1936) 213 2 4 8 10 27 86 111 283 598
2025-08-25 05:30 5.77 69 10300 (2000) 0 (1936) 213 2 4 8 10 27 86 111 283 598
2025-08-25 05:00 5.77 69 10300 (2000) 0 (1936) 213 2 4 8 10 27 86 111 283 598
2025-08-25 04:30 5.77 69 10300 (2000) 0 (1936) 213 2 4 8 10 27 86 111 283 598
2025-08-25 04:00 5.77 69 10300 (2000) 0 (1936) 213 2 4 8 10 27 86 111 283 598
2025-08-25 03:30 5.77 69 10300 (2000) 0 (1936) 213 2 4 8 10 27 86 111 283 598
2025-08-25 03:00 5.77 69 10300 (2000) 0 (1936) 213 2 4 8 10 27 86 111 283 598
2025-08-25 02:30 5.77 69 10300 (2000) 0 (1936) 213 2 4 8 10 27 86 111 283 598
2025-08-25 02:00 5.77 69 10300 (2000) 0 (1936) 213 2 4 8 10 27 86 111 283 598
2025-08-25 01:30 5.77 69 10300 (2000) 0 (1936) 213 2 4 8 10 27 86 111 283 598
2025-08-25 01:00 5.77 69 10300 (2000) 0 (1936) 213 2 4 8 10 27 86 111 283 598
2025-08-25 00:30 5.77 69 10300 (2000) 0 (1936) 213 2 4 8 10 27 86 111 283 598
2025-08-25 00:00 5.77 69 10300 (2000) 0 (1936) 213 2 4 8 10 27 86 111 283 598
2025-08-24 23:30 5.77 69 10300 (2000) 0 (1936) 213 2 4 8 10 27 86 111 283 598
2025-08-24 23:00 5.77 69 10300 (2000) 0 (1936) 213 2 4 8 10 27 86 111 283 598
2025-08-24 22:30 5.77 69 5590 (2000) 0 (1936) 170 1 4 9 12 33 91 129 329 701
2025-08-24 22:00 5.77 69 5590 (2000) 0 (1936) 170 1 4 9 12 33 91 129 329 701
2025-08-24 21:30 5.77 69 5590 (2000) 0 (1936) 170 1 4 9 12 33 91 129 329 701
2025-08-24 21:00 5.77 69 5590 (2000) 0 (1936) 170 1 4 9 12 33 91 129 329 701
2025-08-24 20:30 5.77 69 5590 (2000) 0 (1936) 170 1 4 9 12 33 91 129 329 701
2025-08-24 20:00 5.77 69 5590 (2000) 0 (1936) 170 1 4 9 12 33 91 129 329 701
2025-08-24 19:30 5.77 69 5590 (2000) 0 (1936) 170 1 4 9 12 33 91 129 329 701
2025-08-24 19:00 5.77 69 5590 (2000) 0 (1936) 170 1 4 9 12 33 91 129 329 701
2025-08-24 18:30 5.77 69 5590 (2000) 0 (1936) 170 1 4 9 12 33 91 129 329 701
2025-08-24 18:00 5.77 69 5590 (2000) 0 (1936) 170 1 4 9 12 33 91 129 329 701
2025-08-24 17:30 5.78 71 5590 (2000) 0 (1936) 170 1 4 9 12 33 91 129 329 701
2025-08-24 17:00 5.76 68 5590 (2000) 0 (1936) 170 1 4 9 12 33 91 129 329 701
2025-08-24 16:30 5.77 69 5590 (2000) 0 (1936) 170 1 4 9 12 33 91 129 329 701
2025-08-24 16:00 5.78 71 5590 (2000) 0 (1936) 170 1 4 9 12 33 91 129 329 701
2025-08-24 15:30 5.78 71 5590 (2000) 0 (1936) 170 1 4 9 12 33 91 129 329 701
2025-08-24 15:00 5.74 65 5590 (2000) 0 (1936) 170 1 4 9 12 33 91 129 329 701
2025-08-24 14:30 5.78 71 5590 (2000) 0 (1936) 170 1 4 9 12 33 91 129 329 701
2025-08-24 14:00 5.75 66 5590 (2000) 0 (1936) 170 1 4 9 12 33 91 129 329 701
2025-08-24 13:30 5.73 63 5590 (2000) 0 (1936) 170 1 4 9 12 33 91 129 329 701
2025-08-24 13:00 5.77 69 5590 (2000) 0 (1936) 170 1 4 9 12 33 91 129 329 701
2025-08-24 12:30 5.78 71 5590 (2000) 0 (1936) 170 1 4 9 12 33 91 129 329 701
2025-08-24 12:00 5.78 71 5590 (2000) 0 (1936) 170 1 4 9 12 33 91 129 329 701
2025-08-24 11:30 5.73 63 5590 (2000) 0 (1936) 170 1 4 9 12 33 91 129 329 701
2025-08-24 11:00 5.77 69 5590 (2000) 0 (1936) 170 1 4 9 12 33 91 129 329 701
2025-08-24 10:30 5.77 69 5590 (2000) 0 (1936) 170 1 4 9 12 33 91 129 329 701
2025-08-24 10:00 5.78 71 5590 (2000) 0 (1936) 170 1 4 9 12 33 91 129 329 701
2025-08-24 09:30 5.78 71 5590 (2000) 0 (1936) 170 1 4 9 12 33 91 129 329 701
2025-08-24 09:00 5.78 71 5590 (2000) 0 (1936) 170 1 4 9 12 33 91 129 329 701
2025-08-24 08:30 5.78 71 5590 (2000) 0 (1936) 170 1 4 9 12 33 91 129 329 701
2025-08-24 08:00 5.78 71 5590 (2000) 0 (1936) 170 1 4 9 12 33 91 129 329 701
2025-08-24 07:30 5.78 71 5590 (2000) 0 (1936) 170 1 4 9 12 33 91 129 329 701
2025-08-24 07:00 5.78 71 5590 (2000) 0 (1936) 170 1 4 9 12 33 91 129 329 701
2025-08-24 06:30 5.79 72 5590 (2000) 0 (1936) 170 1 4 9 12 33 91 129 329 701
2025-08-24 06:00 5.79 72 5590 (2000) 0 (1936) 170 1 4 9 12 33 91 129 329 701
2025-08-24 05:30 5.79 72 5590 (2000) 0 (1936) 170 1 4 9 12 33 91 129 329 701
2025-08-24 05:00 5.79 72 5590 (2000) 0 (1936) 170 1 4 9 12 33 91 129 329 701
2025-08-24 04:30 5.79 72 5590 (2000) 0 (1936) 170 1 4 9 12 33 91 129 329 701
2025-08-24 04:00 5.79 72 5590 (2000) 0 (1936) 170 1 4 9 12 33 91 129 329 701
2025-08-24 03:30 5.79 72 5590 (2000) 0 (1936) 170 1 4 9 12 33 91 129 329 701
2025-08-24 03:00 5.79 72 5590 (2000) 0 (1936) 170 1 4 9 12 33 91 129 329 701
2025-08-24 02:30 5.79 72 5590 (2000) 0 (1936) 170 1 4 9 12 33 91 129 329 701
2025-08-24 02:00 5.79 72 5590 (2000) 0 (1936) 170 1 4 9 12 33 91 129 329 701
2025-08-24 01:30 5.79 72 5590 (2000) 0 (1936) 170 1 4 9 12 33 91 129 329 701
2025-08-24 01:00 5.79 72 5590 (2000) 0 (1936) 170 1 4 9 12 33 91 129 329 701
2025-08-24 00:30 5.79 72 5590 (2000) 0 (1936) 170 1 4 9 12 33 91 129 329 701
2025-08-24 00:00 5.79 72 5590 (2000) 0 (1936) 170 1 4 9 12 33 91 129 329 701
2025-08-23 23:30 5.79 72 5590 (2000) 0 (1936) 170 1 4 9 12 33 91 129 329 701
2025-08-23 23:00 5.79 72 5590 (2000) 0 (1936) 170 1 4 9 12 33 91 129 329 701
2025-08-23 22:30 5.79 72 3610 (1939) 0 (1936) 132 2 5 10 12 28 91 111 259 590
2025-08-23 22:00 5.79 72 3610 (1939) 0 (1936) 132 2 5 10 12 28 91 111 259 590
2025-08-23 21:30 5.79 72 3610 (1939) 0 (1936) 132 2 5 10 12 28 91 111 259 590
2025-08-23 21:00 5.79 72 3610 (1939) 0 (1936) 132 2 5 10 12 28 91 111 259 590
2025-08-23 20:30 5.79 72 3610 (1939) 0 (1936) 132 2 5 10 12 28 91 111 259 590
2025-08-23 20:00 5.79 72 3610 (1939) 0 (1936) 132 2 5 10 12 28 91 111 259 590
2025-08-23 19:30 5.79 72 3610 (1939) 0 (1936) 132 2 5 10 12 28 91 111 259 590
2025-08-23 19:00 5.79 72 3610 (1939) 0 (1936) 132 2 5 10 12 28 91 111 259 590
2025-08-23 18:30 5.79 72 3610 (1939) 0 (1936) 132 2 5 10 12 28 91 111 259 590
2025-08-23 18:00 5.79 72 3610 (1939) 0 (1936) 132 2 5 10 12 28 91 111 259 590
2025-08-23 17:30 5.79 72 3610 (1939) 0 (1936) 132 2 5 10 12 28 91 111 259 590
2025-08-23 17:00 5.79 72 3610 (1939) 0 (1936) 132 2 5 10 12 28 91 111 259 590
2025-08-23 16:30 5.75 66 3610 (1939) 0 (1936) 132 2 5 10 12 28 91 111 259 590
2025-08-23 16:00 5.79 72 3610 (1939) 0 (1936) 132 2 5 10 12 28 91 111 259 590
2025-08-23 15:30 5.76 68 3610 (1939) 0 (1936) 132 2 5 10 12 28 91 111 259 590
2025-08-23 15:00 5.79 72 3610 (1939) 0 (1936) 132 2 5 10 12 28 91 111 259 590
2025-08-23 14:30 5.79 72 3610 (1939) 0 (1936) 132 2 5 10 12 28 91 111 259 590
2025-08-23 14:00 5.79 72 3610 (1939) 0 (1936) 132 2 5 10 12 28 91 111 259 590
2025-08-23 13:30 5.80 74 3610 (1939) 0 (1936) 132 2 5 10 12 28 91 111 259 590
2025-08-23 13:00 5.77 69 3610 (1939) 0 (1936) 132 2 5 10 12 28 91 111 259 590
2025-08-23 12:30 5.79 72 3610 (1939) 0 (1936) 132 2 5 10 12 28 91 111 259 590
2025-08-23 12:00 5.79 72 3610 (1939) 0 (1936) 132 2 5 10 12 28 91 111 259 590
2025-08-23 11:30 5.79 72 3610 (1939) 0 (1936) 132 2 5 10 12 28 91 111 259 590
2025-08-23 11:00 5.79 72 3610 (1939) 0 (1936) 132 2 5 10 12 28 91 111 259 590
2025-08-23 10:30 5.79 72 3610 (1939) 0 (1936) 132 2 5 10 12 28 91 111 259 590
2025-08-23 10:00 5.79 72 3610 (1939) 0 (1936) 132 2 5 10 12 28 91 111 259 590
2025-08-23 09:30 5.79 72 3610 (1939) 0 (1936) 132 2 5 10 12 28 91 111 259 590
2025-08-23 09:00 5.79 72 3610 (1939) 0 (1936) 132 2 5 10 12 28 91 111 259 590
2025-08-23 08:30 5.80 74 3610 (1939) 0 (1936) 132 2 5 10 12 28 91 111 259 590
2025-08-23 08:00 5.80 74 3610 (1939) 0 (1936) 132 2 5 10 12 28 91 111 259 590
2025-08-23 07:30 5.79 72 3610 (1939) 0 (1936) 132 2 5 10 12 28 91 111 259 590
2025-08-23 07:00 5.80 74 3610 (1939) 0 (1936) 132 2 5 10 12 28 91 111 259 590
2025-08-23 06:30 5.80 74 3610 (1939) 0 (1936) 132 2 5 10 12 28 91 111 259 590
2025-08-23 06:00 5.80 74 3610 (1939) 0 (1936) 132 2 5 10 12 28 91 111 259 590
2025-08-23 05:30 5.80 74 3610 (1939) 0 (1936) 132 2 5 10 12 28 91 111 259 590
2025-08-23 05:00 5.80 74 3610 (1939) 0 (1936) 132 2 5 10 12 28 91 111 259 590
2025-08-23 04:30 5.80 74 3610 (1939) 0 (1936) 132 2 5 10 12 28 91 111 259 590
2025-08-23 04:00 5.80 74 3610 (1939) 0 (1936) 132 2 5 10 12 28 91 111 259 590
2025-08-23 03:30 5.80 74 3610 (1939) 0 (1936) 132 2 5 10 12 28 91 111 259 590
2025-08-23 03:00 5.80 74 3610 (1939) 0 (1936) 132 2 5 10 12 28 91 111 259 590
2025-08-23 02:30 5.80 74 3610 (1939) 0 (1936) 132 2 5 10 12 28 91 111 259 590
2025-08-23 02:00 5.80 74 3610 (1939) 0 (1936) 132 2 5 10 12 28 91 111 259 590
2025-08-23 01:30 74 3610 (1939) 0 (1936) 132 2 5 10 12 28 91 111 259 590
2025-08-23 01:00 5.80 74 3610 (1939) 0 (1936) 132 2 5 10 12 28 91 111 259 590
2025-08-23 00:30 74 3610 (1939) 0 (1936) 132 2 5 10 12 28 91 111 259 590
2025-08-23 00:00 5.80 74 3610 (1939) 0 (1936) 132 2 5 10 12 28 91 111 259 590
2025-08-22 23:30 5.80 74 3610 (1939) 0 (1936) 132 2 5 10 12 28 91 111 259 590
2025-08-22 23:00 5.80 74 3610 (1939) 0 (1936) 132 2 5 10 12 28 91 111 259 590
2025-08-22 22:30 5.80 74 3820 (1944) 0 (1936) 134 2 5 9 13 29 110 128 268 422
2025-08-22 22:00 5.80 74 3820 (1944) 0 (1936) 134 2 5 9 13 29 110 128 268 422
2025-08-22 21:30 5.80 74 3820 (1944) 0 (1936) 134 2 5 9 13 29 110 128 268 422
2025-08-22 21:00 5.80 74 3820 (1944) 0 (1936) 134 2 5 9 13 29 110 128 268 422
2025-08-22 20:30 5.80 74 3820 (1944) 0 (1936) 134 2 5 9 13 29 110 128 268 422
2025-08-22 20:00 5.80 74 3820 (1944) 0 (1936) 134 2 5 9 13 29 110 128 268 422
2025-08-22 19:30 5.80 74 3820 (1944) 0 (1936) 134 2 5 9 13 29 110 128 268 422
2025-08-22 19:00 5.80 74 3820 (1944) 0 (1936) 134 2 5 9 13 29 110 128 268 422
2025-08-22 18:30 5.81 76 3820 (1944) 0 (1936) 134 2 5 9 13 29 110 128 268 422
2025-08-22 18:00 5.81 76 3820 (1944) 0 (1936) 134 2 5 9 13 29 110 128 268 422
2025-08-22 17:30 5.81 76 3820 (1944) 0 (1936) 134 2 5 9 13 29 110 128 268 422
2025-08-22 17:00 5.81 76 3820 (1944) 0 (1936) 134 2 5 9 13 29 110 128 268 422
2025-08-22 16:30 5.81 76 3820 (1944) 0 (1936) 134 2 5 9 13 29 110 128 268 422
2025-08-22 16:00 5.81 76 3820 (1944) 0 (1936) 134 2 5 9 13 29 110 128 268 422
2025-08-22 15:30 5.81 76 3820 (1944) 0 (1936) 134 2 5 9 13 29 110 128 268 422
2025-08-22 15:00 5.81 76 3820 (1944) 0 (1936) 134 2 5 9 13 29 110 128 268 422
2025-08-22 14:30 5.76 68 3820 (1944) 0 (1936) 134 2 5 9 13 29 110 128 268 422
2025-08-22 14:00 5.76 68 3820 (1944) 0 (1936) 134 2 5 9 13 29 110 128 268 422
2025-08-22 13:30 5.76 68 3820 (1944) 0 (1936) 134 2 5 9 13 29 110 128 268 422
2025-08-22 13:00 5.81 76 3820 (1944) 0 (1936) 134 2 5 9 13 29 110 128 268 422
2025-08-22 12:30 5.78 71 3820 (1944) 0 (1936) 134 2 5 9 13 29 110 128 268 422
2025-08-22 12:00 5.81 76 3820 (1944) 0 (1936) 134 2 5 9 13 29 110 128 268 422
2025-08-22 11:30 5.81 76 3820 (1944) 0 (1936) 134 2 5 9 13 29 110 128 268 422
2025-08-22 11:00 5.81 76 3820 (1944) 0 (1936) 134 2 5 9 13 29 110 128 268 422
2025-08-22 10:30 5.81 76 3820 (1944) 0 (1936) 134 2 5 9 13 29 110 128 268 422
2025-08-22 10:00 5.78 71 3820 (1944) 0 (1936) 134 2 5 9 13 29 110 128 268 422
2025-08-22 09:30 5.81 76 3820 (1944) 0 (1936) 134 2 5 9 13 29 110 128 268 422
2025-08-22 09:00 5.81 76 3820 (1944) 0 (1936) 134 2 5 9 13 29 110 128 268 422
2025-08-22 08:30 5.81 76 3820 (1944) 0 (1936) 134 2 5 9 13 29 110 128 268 422
2025-08-22 08:00 5.81 76 3820 (1944) 0 (1936) 134 2 5 9 13 29 110 128 268 422
2025-08-22 07:30 5.81 76 3820 (1944) 0 (1936) 134 2 5 9 13 29 110 128 268 422
2025-08-22 07:00 5.81 76 3820 (1944) 0 (1936) 134 2 5 9 13 29 110 128 268 422
2025-08-22 06:30 5.81 76 3820 (1944) 0 (1936) 134 2 5 9 13 29 110 128 268 422
2025-08-22 06:00 5.81 76 3820 (1944) 0 (1936) 134 2 5 9 13 29 110 128 268 422
2025-08-22 05:30 5.81 76 3820 (1944) 0 (1936) 134 2 5 9 13 29 110 128 268 422
2025-08-22 05:00 5.81 76 3820 (1944) 0 (1936) 134 2 5 9 13 29 110 128 268 422
2025-08-22 04:30 5.81 76 3820 (1944) 0 (1936) 134 2 5 9 13 29 110 128 268 422
2025-08-22 04:00 5.81 76 3820 (1944) 0 (1936) 134 2 5 9 13 29 110 128 268 422
2025-08-22 03:30 5.81 76 3820 (1944) 0 (1936) 134 2 5 9 13 29 110 128 268 422
2025-08-22 03:00 5.81 76 3820 (1944) 0 (1936) 134 2 5 9 13 29 110 128 268 422
2025-08-22 02:30 5.81 76 3820 (1944) 0 (1936) 134 2 5 9 13 29 110 128 268 422
2025-08-22 02:00 5.81 76 3820 (1944) 0 (1936) 134 2 5 9 13 29 110 128 268 422
2025-08-22 01:30 5.81 76 3820 (1944) 0 (1936) 134 2 5 9 13 29 110 128 268 422
2025-08-22 01:00 5.81 76 3820 (1944) 0 (1936) 134 2 5 9 13 29 110 128 268 422
2025-08-22 00:30 5.81 76 3820 (1944) 0 (1936) 134 2 5 9 13 29 110 128 268 422
2025-08-22 00:00 5.81 76 3820 (1944) 0 (1936) 134 2 5 9 13 29 110 128 268 422
2025-08-21 23:30 5.81 76 3820 (1944) 0 (1936) 134 2 5 9 13 29 110 128 268 422
2025-08-21 23:00 5.80 74 3820 (1944) 0 (1936) 134 2 5 9 13 29 110 128 268 422
2025-08-21 22:30 5.80 74 2040 (1958) 0 (1936) 128 2 5 10 14 31 116 167 334 522
2025-08-21 22:00 5.80 74 2040 (1958) 0 (1936) 128 2 5 10 14 31 116 167 334 522
2025-08-21 21:30 5.80 74 2040 (1958) 0 (1936) 128 2 5 10 14 31 116 167 334 522
2025-08-21 21:00 5.80 74 2040 (1958) 0 (1936) 128 2 5 10 14 31 116 167 334 522
2025-08-21 20:30 5.80 74 2040 (1958) 0 (1936) 128 2 5 10 14 31 116 167 334 522
2025-08-21 20:00 5.80 74 2040 (1958) 0 (1936) 128 2 5 10 14 31 116 167 334 522
2025-08-21 19:30 5.80 74 2040 (1958) 0 (1936) 128 2 5 10 14 31 116 167 334 522
2025-08-21 19:00 5.80 74 2040 (1958) 0 (1936) 128 2 5 10 14 31 116 167 334 522
2025-08-21 18:30 5.80 74 2040 (1958) 0 (1936) 128 2 5 10 14 31 116 167 334 522
2025-08-21 18:00 5.80 74 2040 (1958) 0 (1936) 128 2 5 10 14 31 116 167 334 522
2025-08-21 17:30 5.80 74 2040 (1958) 0 (1936) 128 2 5 10 14 31 116 167 334 522
2025-08-21 17:00 5.78 71 2040 (1958) 0 (1936) 128 2 5 10 14 31 116 167 334 522
2025-08-21 16:30 5.80 74 2040 (1958) 0 (1936) 128 2 5 10 14 31 116 167 334 522
2025-08-21 16:00 5.75 66 2040 (1958) 0 (1936) 128 2 5 10 14 31 116 167 334 522
2025-08-21 15:30 5.75 66 2040 (1958) 0 (1936) 128 2 5 10 14 31 116 167 334 522
2025-08-21 15:00 5.79 72 2040 (1958) 0 (1936) 128 2 5 10 14 31 116 167 334 522
2025-08-21 14:30 5.75 66 2040 (1958) 0 (1936) 128 2 5 10 14 31 116 167 334 522
2025-08-21 14:00 5.73 63 2040 (1958) 0 (1936) 128 2 5 10 14 31 116 167 334 522
2025-08-21 13:30 5.75 66 2040 (1958) 0 (1936) 128 2 5 10 14 31 116 167 334 522
2025-08-21 13:00 5.76 68 2040 (1958) 0 (1936) 128 2 5 10 14 31 116 167 334 522
2025-08-21 12:30 5.77 69 2040 (1958) 0 (1936) 128 2 5 10 14 31 116 167 334 522
2025-08-21 12:00 5.74 65 2040 (1958) 0 (1936) 128 2 5 10 14 31 116 167 334 522
2025-08-21 11:30 5.78 71 2040 (1958) 0 (1936) 128 2 5 10 14 31 116 167 334 522
2025-08-21 11:00 5.76 68 2040 (1958) 0 (1936) 128 2 5 10 14 31 116 167 334 522
2025-08-21 10:30 5.77 69 2040 (1958) 0 (1936) 128 2 5 10 14 31 116 167 334 522
2025-08-21 10:00 5.74 65 2040 (1958) 0 (1936) 128 2 5 10 14 31 116 167 334 522
2025-08-21 09:30 5.76 68 2040 (1958) 0 (1936) 128 2 5 10 14 31 116 167 334 522
2025-08-21 09:00 5.77 69 2040 (1958) 0 (1936) 128 2 5 10 14 31 116 167 334 522
2025-08-21 08:30 5.81 76 2040 (1958) 0 (1936) 128 2 5 10 14 31 116 167 334 522
2025-08-21 08:00 5.76 68 2040 (1958) 0 (1936) 128 2 5 10 14 31 116 167 334 522
2025-08-21 07:30 5.75 66 2040 (1958) 0 (1936) 128 2 5 10 14 31 116 167 334 522
2025-08-21 07:00 5.81 76 2040 (1958) 0 (1936) 128 2 5 10 14 31 116 167 334 522
2025-08-21 06:30 5.81 76 2040 (1958) 0 (1936) 128 2 5 10 14 31 116 167 334 522
2025-08-21 06:00 5.81 76 2040 (1958) 0 (1936) 128 2 5 10 14 31 116 167 334 522
2025-08-21 05:30 5.81 76 2040 (1958) 0 (1936) 128 2 5 10 14 31 116 167 334 522
2025-08-21 05:00 5.80 74 2040 (1958) 0 (1936) 128 2 5 10 14 31 116 167 334 522
2025-08-21 04:30 5.80 74 2040 (1958) 0 (1936) 128 2 5 10 14 31 116 167 334 522
2025-08-21 04:00 5.77 69 2040 (1958) 0 (1936) 128 2 5 10 14 31 116 167 334 522
2025-08-21 03:30 5.81 76 2040 (1958) 0 (1936) 128 2 5 10 14 31 116 167 334 522
2025-08-21 03:00 5.81 76 2040 (1958) 0 (1936) 128 2 5 10 14 31 116 167 334 522
2025-08-21 02:30 5.81 76 2040 (1958) 0 (1936) 128 2 5 10 14 31 116 167 334 522
2025-08-21 02:00 5.81 76 2040 (1958) 0 (1936) 128 2 5 10 14 31 116 167 334 522
2025-08-21 01:30 5.81 76 2040 (1958) 0 (1936) 128 2 5 10 14 31 116 167 334 522
2025-08-21 01:00 5.81 76 2040 (1958) 0 (1936) 128 2 5 10 14 31 116 167 334 522
2025-08-21 00:30 5.81 76 2040 (1958) 0 (1936) 128 2 5 10 14 31 116 167 334 522
2025-08-21 00:00 5.78 71 2040 (1958) 0 (1936) 128 2 5 10 14 31 116 167 334 522
2025-08-20 23:30 5.81 76 2040 (1958) 0 (1936) 128 2 5 10 14 31 116 167 334 522
2025-08-20 23:00 5.75 66 2040 (1958) 0 (1936) 128 2 5 10 14 31 116 167 334 522
2025-08-20 22:30 5.77 69 1860 (1931) 0 (1936) 147 2 5 11 13 33 133 165 327 854
2025-08-20 22:00 5.76 68 1860 (1931) 0 (1936) 147 2 5 11 13 33 133 165 327 854
2025-08-20 21:30 5.76 68 1860 (1931) 0 (1936) 147 2 5 11 13 33 133 165 327 854
2025-08-20 21:00 5.78 71 1860 (1931) 0 (1936) 147 2 5 11 13 33 133 165 327 854
2025-08-20 20:30 5.81 76 1860 (1931) 0 (1936) 147 2 5 11 13 33 133 165 327 854
2025-08-20 20:00 5.81 76 1860 (1931) 0 (1936) 147 2 5 11 13 33 133 165 327 854
2025-08-20 19:30 5.81 76 1860 (1931) 0 (1936) 147 2 5 11 13 33 133 165 327 854
2025-08-20 19:00 5.81 76 1860 (1931) 0 (1936) 147 2 5 11 13 33 133 165 327 854
2025-08-20 18:30 5.82 77 1860 (1931) 0 (1936) 147 2 5 11 13 33 133 165 327 854
2025-08-20 18:00 5.81 76 1860 (1931) 0 (1936) 147 2 5 11 13 33 133 165 327 854
2025-08-20 17:30 5.81 76 1860 (1931) 0 (1936) 147 2 5 11 13 33 133 165 327 854
2025-08-20 17:00 5.82 77 1860 (1931) 0 (1936) 147 2 5 11 13 33 133 165 327 854
2025-08-20 16:30 5.79 72 1860 (1931) 0 (1936) 147 2 5 11 13 33 133 165 327 854
2025-08-20 16:00 5.82 77 1860 (1931) 0 (1936) 147 2 5 11 13 33 133 165 327 854
2025-08-20 15:30 5.75 66 1860 (1931) 0 (1936) 147 2 5 11 13 33 133 165 327 854
2025-08-20 15:00 5.81 76 1860 (1931) 0 (1936) 147 2 5 11 13 33 133 165 327 854
2025-08-20 14:30 5.82 77 1860 (1931) 0 (1936) 147 2 5 11 13 33 133 165 327 854
2025-08-20 14:00 5.75 66 1860 (1931) 0 (1936) 147 2 5 11 13 33 133 165 327 854
2025-08-20 13:30 5.78 71 1860 (1931) 0 (1936) 147 2 5 11 13 33 133 165 327 854
2025-08-20 13:00 5.77 69 1860 (1931) 0 (1936) 147 2 5 11 13 33 133 165 327 854
2025-08-20 12:30 5.79 72 1860 (1931) 0 (1936) 147 2 5 11 13 33 133 165 327 854
2025-08-20 12:00 5.82 77 1860 (1931) 0 (1936) 147 2 5 11 13 33 133 165 327 854
2025-08-20 11:30 5.82 77 1860 (1931) 0 (1936) 147 2 5 11 13 33 133 165 327 854
2025-08-20 11:00 5.77 69 1860 (1931) 0 (1936) 147 2 5 11 13 33 133 165 327 854
2025-08-20 10:30 5.78 71 1860 (1931) 0 (1936) 147 2 5 11 13 33 133 165 327 854
2025-08-20 10:00 5.77 69 1860 (1931) 0 (1936) 147 2 5 11 13 33 133 165 327 854
2025-08-20 09:30 5.77 69 1860 (1931) 0 (1936) 147 2 5 11 13 33 133 165 327 854
2025-08-20 09:00 5.78 71 1860 (1931) 0 (1936) 147 2 5 11 13 33 133 165 327 854
2025-08-20 08:30 5.82 77 1860 (1931) 0 (1936) 147 2 5 11 13 33 133 165 327 854
2025-08-20 08:00 5.82 77 1860 (1931) 0 (1936) 147 2 5 11 13 33 133 165 327 854
2025-08-20 07:30 5.82 77 1860 (1931) 0 (1936) 147 2 5 11 13 33 133 165 327 854
2025-08-20 07:00 5.83 79 1860 (1931) 0 (1936) 147 2 5 11 13 33 133 165 327 854
2025-08-20 06:30 5.83 79 1860 (1931) 0 (1936) 147 2 5 11 13 33 133 165 327 854
2025-08-20 06:00 5.83 79 1860 (1931) 0 (1936) 147 2 5 11 13 33 133 165 327 854
2025-08-20 05:30 5.83 79 1860 (1931) 0 (1936) 147 2 5 11 13 33 133 165 327 854
2025-08-20 05:00 5.83 79 1860 (1931) 0 (1936) 147 2 5 11 13 33 133 165 327 854
2025-08-20 04:30 5.83 79 1860 (1931) 0 (1936) 147 2 5 11 13 33 133 165 327 854
2025-08-20 04:00 5.83 79 1860 (1931) 0 (1936) 147 2 5 11 13 33 133 165 327 854
2025-08-20 03:30 5.83 79 1860 (1931) 0 (1936) 147 2 5 11 13 33 133 165 327 854
2025-08-20 03:00 5.83 79 1860 (1931) 0 (1936) 147 2 5 11 13 33 133 165 327 854
2025-08-20 02:30 5.83 79 1860 (1931) 0 (1936) 147 2 5 11 13 33 133 165 327 854
2025-08-20 02:00 5.83 79 1860 (1931) 0 (1936) 147 2 5 11 13 33 133 165 327 854
2025-08-20 01:30 5.83 79 1860 (1931) 0 (1936) 147 2 5 11 13 33 133 165 327 854
2025-08-20 01:00 5.83 79 1860 (1931) 0 (1936) 147 2 5 11 13 33 133 165 327 854
2025-08-20 00:30 5.83 79 1860 (1931) 0 (1936) 147 2 5 11 13 33 133 165 327 854
2025-08-20 00:00 5.83 79 1860 (1931) 0 (1936) 147 2 5 11 13 33 133 165 327 854
2025-08-19 23:30 5.83 79 1860 (1931) 0 (1936) 147 2 5 11 13 33 133 165 327 854
2025-08-19 23:00 5.83 79 1860 (1931) 0 (1936) 147 2 5 11 13 33 133 165 327 854
2025-08-19 22:30 5.83 79 5820 (1939) 0 (1936) 211 2 5 10 13 42 155 208 466 893
2025-08-19 22:00 5.83 79 5820 (1939) 0 (1936) 211 2 5 10 13 42 155 208 466 893
2025-08-19 21:30 5.83 79 5820 (1939) 0 (1936) 211 2 5 10 13 42 155 208 466 893
2025-08-19 21:00 5.83 79 5820 (1939) 0 (1936) 211 2 5 10 13 42 155 208 466 893
2025-08-19 20:30 5.83 79 5820 (1939) 0 (1936) 211 2 5 10 13 42 155 208 466 893
2025-08-19 20:00 5.83 79 5820 (1939) 0 (1936) 211 2 5 10 13 42 155 208 466 893
2025-08-19 19:30 5.83 79 5820 (1939) 0 (1936) 211 2 5 10 13 42 155 208 466 893
2025-08-19 19:00 5.84 81 5820 (1939) 0 (1936) 211 2 5 10 13 42 155 208 466 893
2025-08-19 18:30 5.84 81 5820 (1939) 0 (1936) 211 2 5 10 13 42 155 208 466 893
2025-08-19 18:00 5.84 81 5820 (1939) 0 (1936) 211 2 5 10 13 42 155 208 466 893
2025-08-19 17:30 5.84 81 5820 (1939) 0 (1936) 211 2 5 10 13 42 155 208 466 893
2025-08-19 17:00 5.84 81 5820 (1939) 0 (1936) 211 2 5 10 13 42 155 208 466 893
2025-08-19 16:30 5.84 81 5820 (1939) 0 (1936) 211 2 5 10 13 42 155 208 466 893
2025-08-19 16:00 5.84 81 5820 (1939) 0 (1936) 211 2 5 10 13 42 155 208 466 893
2025-08-19 15:30 5.83 79 5820 (1939) 0 (1936) 211 2 5 10 13 42 155 208 466 893
2025-08-19 15:00 5.79 72 5820 (1939) 0 (1936) 211 2 5 10 13 42 155 208 466 893
2025-08-19 14:30 5.84 81 5820 (1939) 0 (1936) 211 2 5 10 13 42 155 208 466 893
2025-08-19 14:00 5.83 79 5820 (1939) 0 (1936) 211 2 5 10 13 42 155 208 466 893
2025-08-19 13:30 5.84 81 5820 (1939) 0 (1936) 211 2 5 10 13 42 155 208 466 893
2025-08-19 13:00 5.84 81 5820 (1939) 0 (1936) 211 2 5 10 13 42 155 208 466 893
2025-08-19 12:30 5.81 76 5820 (1939) 0 (1936) 211 2 5 10 13 42 155 208 466 893
2025-08-19 12:00 5.84 81 5820 (1939) 0 (1936) 211 2 5 10 13 42 155 208 466 893
2025-08-19 11:30 5.84 81 5820 (1939) 0 (1936) 211 2 5 10 13 42 155 208 466 893
2025-08-19 11:00 5.81 76 5820 (1939) 0 (1936) 211 2 5 10 13 42 155 208 466 893
2025-08-19 10:30 5.79 72 5820 (1939) 0 (1936) 211 2 5 10 13 42 155 208 466 893
2025-08-19 10:00 5.83 79 5820 (1939) 0 (1936) 211 2 5 10 13 42 155 208 466 893
2025-08-19 09:30 5.83 79 5820 (1939) 0 (1936) 211 2 5 10 13 42 155 208 466 893
2025-08-19 09:00 5.84 81 5820 (1939) 0 (1936) 211 2 5 10 13 42 155 208 466 893
2025-08-19 08:30 5.84 81 5820 (1939) 0 (1936) 211 2 5 10 13 42 155 208 466 893
2025-08-19 08:00 5.84 81 5820 (1939) 0 (1936) 211 2 5 10 13 42 155 208 466 893
2025-08-19 07:30 5.84 81 5820 (1939) 0 (1936) 211 2 5 10 13 42 155 208 466 893
2025-08-19 07:00 5.85 83 5820 (1939) 0 (1936) 211 2 5 10 13 42 155 208 466 893
2025-08-19 06:30 5.85 83 5820 (1939) 0 (1936) 211 2 5 10 13 42 155 208 466 893
2025-08-19 06:00 5.85 83 5820 (1939) 0 (1936) 211 2 5 10 13 42 155 208 466 893
2025-08-19 05:30 5.85 83 5820 (1939) 0 (1936) 211 2 5 10 13 42 155 208 466 893
2025-08-19 05:00 5.85 83 5820 (1939) 0 (1936) 211 2 5 10 13 42 155 208 466 893
2025-08-19 04:30 5.85 83 5820 (1939) 0 (1936) 211 2 5 10 13 42 155 208 466 893
2025-08-19 04:00 5.85 83 5820 (1939) 0 (1936) 211 2 5 10 13 42 155 208 466 893
2025-08-19 03:30 5.85 83 5820 (1939) 0 (1936) 211 2 5 10 13 42 155 208 466 893
2025-08-19 03:00 5.85 83 5820 (1939) 0 (1936) 211 2 5 10 13 42 155 208 466 893
2025-08-19 02:30 5.85 83 5820 (1939) 0 (1936) 211 2 5 10 13 42 155 208 466 893
2025-08-19 02:00 5.85 83 5820 (1939) 0 (1936) 211 2 5 10 13 42 155 208 466 893
2025-08-19 01:30 5.85 83 5820 (1939) 0 (1936) 211 2 5 10 13 42 155 208 466 893
2025-08-19 01:00 5.85 83 5820 (1939) 0 (1936) 211 2 5 10 13 42 155 208 466 893
2025-08-19 00:30 5.85 83 5820 (1939) 0 (1936) 211 2 5 10 13 42 155 208 466 893
2025-08-19 00:00 5.85 83 5820 (1939) 0 (1936) 211 2 5 10 13 42 155 208 466 893
2025-08-18 23:30 5.84 81 5820 (1939) 0 (1936) 211 2 5 10 13 42 155 208 466 893
2025-08-18 23:00 5.85 83 5820 (1939) 0 (1936) 211 2 5 10 13 42 155 208 466 893
2025-08-18 22:30 5.86 84 8780 (1939) 0 (1936) 274 1 5 9 12 39 126 174 742 1390
2025-08-18 22:00 5.85 83 8780 (1939) 0 (1936) 274 1 5 9 12 39 126 174 742 1390
2025-08-18 21:30 5.85 83 8780 (1939) 0 (1936) 274 1 5 9 12 39 126 174 742 1390
2025-08-18 21:00 5.85 83 8780 (1939) 0 (1936) 274 1 5 9 12 39 126 174 742 1390
2025-08-18 20:30 5.85 83 8780 (1939) 0 (1936) 274 1 5 9 12 39 126 174 742 1390
2025-08-18 20:00 5.85 83 8780 (1939) 0 (1936) 274 1 5 9 12 39 126 174 742 1390
2025-08-18 19:30 5.85 83 8780 (1939) 0 (1936) 274 1 5 9 12 39 126 174 742 1390
2025-08-18 19:00 5.85 83 8780 (1939) 0 (1936) 274 1 5 9 12 39 126 174 742 1390
2025-08-18 18:30 5.85 83 8780 (1939) 0 (1936) 274 1 5 9 12 39 126 174 742 1390
2025-08-18 18:00 5.85 83 8780 (1939) 0 (1936) 274 1 5 9 12 39 126 174 742 1390
2025-08-18 17:30 5.86 84 8780 (1939) 0 (1936) 274 1 5 9 12 39 126 174 742 1390
2025-08-18 17:00 5.86 84 8780 (1939) 0 (1936) 274 1 5 9 12 39 126 174 742 1390
2025-08-18 16:30 5.85 83 8780 (1939) 0 (1936) 274 1 5 9 12 39 126 174 742 1390
2025-08-18 16:00 5.85 83 8780 (1939) 0 (1936) 274 1 5 9 12 39 126 174 742 1390
2025-08-18 15:30 5.79 72 8780 (1939) 0 (1936) 274 1 5 9 12 39 126 174 742 1390
2025-08-18 15:00 5.85 83 8780 (1939) 0 (1936) 274 1 5 9 12 39 126 174 742 1390
2025-08-18 14:30 5.85 83 8780 (1939) 0 (1936) 274 1 5 9 12 39 126 174 742 1390
2025-08-18 14:00 5.86 84 8780 (1939) 0 (1936) 274 1 5 9 12 39 126 174 742 1390
2025-08-18 13:30 5.86 84 8780 (1939) 0 (1936) 274 1 5 9 12 39 126 174 742 1390
2025-08-18 13:00 5.86 84 8780 (1939) 0 (1936) 274 1 5 9 12 39 126 174 742 1390
2025-08-18 12:30 5.84 81 8780 (1939) 0 (1936) 274 1 5 9 12 39 126 174 742 1390
2025-08-18 12:00 5.86 84 8780 (1939) 0 (1936) 274 1 5 9 12 39 126 174 742 1390
2025-08-18 11:30 5.86 84 8780 (1939) 0 (1936) 274 1 5 9 12 39 126 174 742 1390
2025-08-18 11:00 5.85 83 8780 (1939) 0 (1936) 274 1 5 9 12 39 126 174 742 1390
2025-08-18 10:30 5.86 84 8780 (1939) 0 (1936) 274 1 5 9 12 39 126 174 742 1390
2025-08-18 10:00 5.86 84 8780 (1939) 0 (1936) 274 1 5 9 12 39 126 174 742 1390
2025-08-18 09:30 5.86 84 8780 (1939) 0 (1936) 274 1 5 9 12 39 126 174 742 1390
2025-08-18 09:00 5.85 83 8780 (1939) 0 (1936) 274 1 5 9 12 39 126 174 742 1390
2025-08-18 08:30 5.86 84 8780 (1939) 0 (1936) 274 1 5 9 12 39 126 174 742 1390
2025-08-18 08:00 5.86 84 8780 (1939) 0 (1936) 274 1 5 9 12 39 126 174 742 1390
2025-08-18 07:30 5.87 86 8780 (1939) 0 (1936) 274 1 5 9 12 39 126 174 742 1390
2025-08-18 07:00 5.87 86 8780 (1939) 0 (1936) 274 1 5 9 12 39 126 174 742 1390
2025-08-18 06:30 5.87 86 8780 (1939) 0 (1936) 274 1 5 9 12 39 126 174 742 1390
2025-08-18 06:00 5.87 86 8780 (1939) 0 (1936) 274 1 5 9 12 39 126 174 742 1390
2025-08-18 05:30 5.87 86 8780 (1939) 0 (1936) 274 1 5 9 12 39 126 174 742 1390
2025-08-18 05:00 5.87 86 8780 (1939) 0 (1936) 274 1 5 9 12 39 126 174 742 1390
2025-08-18 04:30 5.87 86 8780 (1939) 0 (1936) 274 1 5 9 12 39 126 174 742 1390
2025-08-18 04:00 5.88 88 8780 (1939) 0 (1936) 274 1 5 9 12 39 126 174 742 1390
2025-08-18 03:30 5.88 88 8780 (1939) 0 (1936) 274 1 5 9 12 39 126 174 742 1390
2025-08-18 03:00 5.88 88 8780 (1939) 0 (1936) 274 1 5 9 12 39 126 174 742 1390
2025-08-18 02:30 5.88 88 8780 (1939) 0 (1936) 274 1 5 9 12 39 126 174 742 1390
2025-08-18 02:00 5.88 88 8780 (1939) 0 (1936) 274 1 5 9 12 39 126 174 742 1390
2025-08-18 01:30 5.88 88 8780 (1939) 0 (1936) 274 1 5 9 12 39 126 174 742 1390
2025-08-18 01:00 5.88 88 8780 (1939) 0 (1936) 274 1 5 9 12 39 126 174 742 1390
2025-08-18 00:30 5.88 88 8780 (1939) 0 (1936) 274 1 5 9 12 39 126 174 742 1390
2025-08-18 00:00 5.88 88 8780 (1939) 0 (1936) 274 1 5 9 12 39 126 174 742 1390
2025-08-17 23:30 5.88 88 8780 (1939) 0 (1936) 274 1 5 9 12 39 126 174 742 1390
2025-08-17 23:00 5.88 88 8780 (1939) 0 (1936) 274 1 5 9 12 39 126 174 742 1390
2025-08-17 22:30 5.88 88 14600 (1923) 0 (1936) 453 1 4 9 12 33 117 238 848 2980
2025-08-17 22:00 5.88 88 14600 (1923) 0 (1936) 453 1 4 9 12 33 117 238 848 2980
2025-08-17 21:30 5.88 88 14600 (1923) 0 (1936) 453 1 4 9 12 33 117 238 848 2980
2025-08-17 21:00 5.89 90 14600 (1923) 0 (1936) 453 1 4 9 12 33 117 238 848 2980
2025-08-17 20:30 5.89 90 14600 (1923) 0 (1936) 453 1 4 9 12 33 117 238 848 2980
2025-08-17 20:00 5.89 90 14600 (1923) 0 (1936) 453 1 4 9 12 33 117 238 848 2980
2025-08-17 19:30 5.89 90 14600 (1923) 0 (1936) 453 1 4 9 12 33 117 238 848 2980
2025-08-17 19:00 5.89 90 14600 (1923) 0 (1936) 453 1 4 9 12 33 117 238 848 2980
2025-08-17 18:30 5.89 90 14600 (1923) 0 (1936) 453 1 4 9 12 33 117 238 848 2980
2025-08-17 18:00 5.89 90 14600 (1923) 0 (1936) 453 1 4 9 12 33 117 238 848 2980
2025-08-17 17:30 5.88 88 14600 (1923) 0 (1936) 453 1 4 9 12 33 117 238 848 2980
2025-08-17 17:00 5.89 90 14600 (1923) 0 (1936) 453 1 4 9 12 33 117 238 848 2980
2025-08-17 16:30 5.89 90 14600 (1923) 0 (1936) 453 1 4 9 12 33 117 238 848 2980
2025-08-17 16:00 5.88 88 14600 (1923) 0 (1936) 453 1 4 9 12 33 117 238 848 2980
2025-08-17 15:30 5.85 83 14600 (1923) 0 (1936) 453 1 4 9 12 33 117 238 848 2980
2025-08-17 15:00 5.87 86 14600 (1923) 0 (1936) 453 1 4 9 12 33 117 238 848 2980
2025-08-17 14:30 5.86 84 14600 (1923) 0 (1936) 453 1 4 9 12 33 117 238 848 2980
2025-08-17 14:00 5.81 76 14600 (1923) 0 (1936) 453 1 4 9 12 33 117 238 848 2980
2025-08-17 13:30 5.81 76 14600 (1923) 0 (1936) 453 1 4 9 12 33 117 238 848 2980
2025-08-17 13:00 5.88 88 14600 (1923) 0 (1936) 453 1 4 9 12 33 117 238 848 2980
2025-08-17 12:30 5.87 86 14600 (1923) 0 (1936) 453 1 4 9 12 33 117 238 848 2980
2025-08-17 12:00 5.87 86 14600 (1923) 0 (1936) 453 1 4 9 12 33 117 238 848 2980
2025-08-17 11:30 5.88 88 14600 (1923) 0 (1936) 453 1 4 9 12 33 117 238 848 2980
2025-08-17 11:00 5.87 86 14600 (1923) 0 (1936) 453 1 4 9 12 33 117 238 848 2980
2025-08-17 10:30 5.87 86 14600 (1923) 0 (1936) 453 1 4 9 12 33 117 238 848 2980
2025-08-17 10:00 5.87 86 14600 (1923) 0 (1936) 453 1 4 9 12 33 117 238 848 2980
2025-08-17 09:30 5.87 86 14600 (1923) 0 (1936) 453 1 4 9 12 33 117 238 848 2980
2025-08-17 09:00 5.87 86 14600 (1923) 0 (1936) 453 1 4 9 12 33 117 238 848 2980
2025-08-17 08:30 5.87 86 14600 (1923) 0 (1936) 453 1 4 9 12 33 117 238 848 2980
2025-08-17 08:00 5.88 88 14600 (1923) 0 (1936) 453 1 4 9 12 33 117 238 848 2980
2025-08-17 07:30 5.88 88 14600 (1923) 0 (1936) 453 1 4 9 12 33 117 238 848 2980
2025-08-17 07:00 5.88 88 14600 (1923) 0 (1936) 453 1 4 9 12 33 117 238 848 2980
2025-08-17 06:30 5.88 88 14600 (1923) 0 (1936) 453 1 4 9 12 33 117 238 848 2980
2025-08-17 06:00 5.88 88 14600 (1923) 0 (1936) 453 1 4 9 12 33 117 238 848 2980
2025-08-17 05:30 5.88 88 14600 (1923) 0 (1936) 453 1 4 9 12 33 117 238 848 2980
2025-08-17 05:00 5.88 88 14600 (1923) 0 (1936) 453 1 4 9 12 33 117 238 848 2980
2025-08-17 04:30 5.88 88 14600 (1923) 0 (1936) 453 1 4 9 12 33 117 238 848 2980
2025-08-17 04:00 5.88 88 14600 (1923) 0 (1936) 453 1 4 9 12 33 117 238 848 2980
2025-08-17 03:30 5.88 88 14600 (1923) 0 (1936) 453 1 4 9 12 33 117 238 848 2980
2025-08-17 03:00 5.88 88 14600 (1923) 0 (1936) 453 1 4 9 12 33 117 238 848 2980
2025-08-17 02:30 5.88 88 14600 (1923) 0 (1936) 453 1 4 9 12 33 117 238 848 2980
2025-08-17 02:00 5.89 90 14600 (1923) 0 (1936) 453 1 4 9 12 33 117 238 848 2980
2025-08-17 01:30 5.88 88 14600 (1923) 0 (1936) 453 1 4 9 12 33 117 238 848 2980
2025-08-17 01:00 5.89 90 14600 (1923) 0 (1936) 453 1 4 9 12 33 117 238 848 2980
2025-08-17 00:30 5.89 90 14600 (1923) 0 (1936) 453 1 4 9 12 33 117 238 848 2980
2025-08-17 00:00 5.87 86 14600 (1923) 0 (1936) 453 1 4 9 12 33 117 238 848 2980
2025-08-16 23:30 5.89 90 14600 (1923) 0 (1936) 453 1 4 9 12 33 117 238 848 2980
2025-08-16 23:00 5.89 90 14600 (1923) 0 (1936) 453 1 4 9 12 33 117 238 848 2980
2025-08-16 22:30 5.89 90 18000 (1923) 0 (1936) 515 1 5 9 13 32 106 184 762 2100
2025-08-16 22:00 5.89 90 18000 (1923) 0 (1936) 515 1 5 9 13 32 106 184 762 2100
2025-08-16 21:30 5.89 90 18000 (1923) 0 (1936) 515 1 5 9 13 32 106 184 762 2100
2025-08-16 21:00 5.89 90 18000 (1923) 0 (1936) 515 1 5 9 13 32 106 184 762 2100
2025-08-16 20:30 5.89 90 18000 (1923) 0 (1936) 515 1 5 9 13 32 106 184 762 2100
2025-08-16 20:00 5.89 90 18000 (1923) 0 (1936) 515 1 5 9 13 32 106 184 762 2100
2025-08-16 19:30 5.89 90 18000 (1923) 0 (1936) 515 1 5 9 13 32 106 184 762 2100
2025-08-16 19:00 5.89 90 18000 (1923) 0 (1936) 515 1 5 9 13 32 106 184 762 2100
2025-08-16 18:30 5.89 90 18000 (1923) 0 (1936) 515 1 5 9 13 32 106 184 762 2100
2025-08-16 18:00 5.89 90 18000 (1923) 0 (1936) 515 1 5 9 13 32 106 184 762 2100
2025-08-16 17:30 5.89 90 18000 (1923) 0 (1936) 515 1 5 9 13 32 106 184 762 2100
2025-08-16 17:00 5.89 90 18000 (1923) 0 (1936) 515 1 5 9 13 32 106 184 762 2100
2025-08-16 16:30 5.88 88 18000 (1923) 0 (1936) 515 1 5 9 13 32 106 184 762 2100
2025-08-16 16:00 5.86 84 18000 (1923) 0 (1936) 515 1 5 9 13 32 106 184 762 2100
2025-08-16 15:30 5.89 90 18000 (1923) 0 (1936) 515 1 5 9 13 32 106 184 762 2100
2025-08-16 15:00 5.90 92 18000 (1923) 0 (1936) 515 1 5 9 13 32 106 184 762 2100
2025-08-16 14:30 5.90 92 18000 (1923) 0 (1936) 515 1 5 9 13 32 106 184 762 2100
2025-08-16 14:00 5.90 92 18000 (1923) 0 (1936) 515 1 5 9 13 32 106 184 762 2100
2025-08-16 13:30 5.90 92 18000 (1923) 0 (1936) 515 1 5 9 13 32 106 184 762 2100
2025-08-16 13:00 5.90 92 18000 (1923) 0 (1936) 515 1 5 9 13 32 106 184 762 2100
2025-08-16 12:30 5.90 92 18000 (1923) 0 (1936) 515 1 5 9 13 32 106 184 762 2100
2025-08-16 12:00 5.90 92 18000 (1923) 0 (1936) 515 1 5 9 13 32 106 184 762 2100
2025-08-16 11:30 5.90 92 18000 (1923) 0 (1936) 515 1 5 9 13 32 106 184 762 2100
2025-08-16 11:00 5.90 92 18000 (1923) 0 (1936) 515 1 5 9 13 32 106 184 762 2100
2025-08-16 10:30 5.90 92 18000 (1923) 0 (1936) 515 1 5 9 13 32 106 184 762 2100
2025-08-16 10:00 5.90 92 18000 (1923) 0 (1936) 515 1 5 9 13 32 106 184 762 2100
2025-08-16 09:30 5.90 92 18000 (1923) 0 (1936) 515 1 5 9 13 32 106 184 762 2100
2025-08-16 09:00 5.90 92 18000 (1923) 0 (1936) 515 1 5 9 13 32 106 184 762 2100
2025-08-16 08:30 5.90 92 18000 (1923) 0 (1936) 515 1 5 9 13 32 106 184 762 2100
2025-08-16 08:00 5.90 92 18000 (1923) 0 (1936) 515 1 5 9 13 32 106 184 762 2100
2025-08-16 07:30 5.90 92 18000 (1923) 0 (1936) 515 1 5 9 13 32 106 184 762 2100
2025-08-16 07:00 5.91 94 18000 (1923) 0 (1936) 515 1 5 9 13 32 106 184 762 2100
2025-08-16 06:30 5.91 94 18000 (1923) 0 (1936) 515 1 5 9 13 32 106 184 762 2100
2025-08-16 06:00 5.91 94 18000 (1923) 0 (1936) 515 1 5 9 13 32 106 184 762 2100
2025-08-16 05:30 5.91 94 18000 (1923) 0 (1936) 515 1 5 9 13 32 106 184 762 2100
2025-08-16 05:00 5.91 94 18000 (1923) 0 (1936) 515 1 5 9 13 32 106 184 762 2100
2025-08-16 04:30 5.91 94 18000 (1923) 0 (1936) 515 1 5 9 13 32 106 184 762 2100
2025-08-16 04:00 94 18000 (1923) 0 (1936) 515 1 5 9 13 32 106 184 762 2100
2025-08-16 03:30 5.91 94 18000 (1923) 0 (1936) 515 1 5 9 13 32 106 184 762 2100
2025-08-16 03:00 5.91 94 18000 (1923) 0 (1936) 515 1 5 9 13 32 106 184 762 2100
2025-08-16 02:30 5.91 94 18000 (1923) 0 (1936) 515 1 5 9 13 32 106 184 762 2100
2025-08-16 02:00 5.91 94 18000 (1923) 0 (1936) 515 1 5 9 13 32 106 184 762 2100
2025-08-16 01:30 5.91 94 18000 (1923) 0 (1936) 515 1 5 9 13 32 106 184 762 2100
2025-08-16 01:00 5.91 94 18000 (1923) 0 (1936) 515 1 5 9 13 32 106 184 762 2100
2025-08-16 00:30 5.91 94 18000 (1923) 0 (1936) 515 1 5 9 13 32 106 184 762 2100
2025-08-16 00:00 5.91 94 18000 (1923) 0 (1936) 515 1 5 9 13 32 106 184 762 2100
2025-08-15 23:30 5.91 94 18000 (1923) 0 (1936) 515 1 5 9 13 32 106 184 762 2100
2025-08-15 23:00 5.91 94 18000 (1923) 0 (1936) 515 1 5 9 13 32 106 184 762 2100
2025-08-15 22:30 5.91 94 10200 (1985) 0 (1934) 314 1 3 10 14 31 94 134 588 1110
2025-08-15 22:00 5.92 96 10200 (1985) 0 (1934) 314 1 3 10 14 31 94 134 588 1110
2025-08-15 21:30 5.91 94 10200 (1985) 0 (1934) 314 1 3 10 14 31 94 134 588 1110
2025-08-15 21:00 5.92 96 10200 (1985) 0 (1934) 314 1 3 10 14 31 94 134 588 1110
2025-08-15 20:30 5.91 94 10200 (1985) 0 (1934) 314 1 3 10 14 31 94 134 588 1110
2025-08-15 20:00 5.92 96 10200 (1985) 0 (1934) 314 1 3 10 14 31 94 134 588 1110
2025-08-15 19:30 5.92 96 10200 (1985) 0 (1934) 314 1 3 10 14 31 94 134 588 1110
2025-08-15 19:00 5.91 94 10200 (1985) 0 (1934) 314 1 3 10 14 31 94 134 588 1110
2025-08-15 18:30 5.92 96 10200 (1985) 0 (1934) 314 1 3 10 14 31 94 134 588 1110
2025-08-15 18:00 5.92 96 10200 (1985) 0 (1934) 314 1 3 10 14 31 94 134 588 1110
2025-08-15 17:30 5.92 96 10200 (1985) 0 (1934) 314 1 3 10 14 31 94 134 588 1110
2025-08-15 17:00 5.91 94 10200 (1985) 0 (1934) 314 1 3 10 14 31 94 134 588 1110
2025-08-15 16:30 5.91 94 10200 (1985) 0 (1934) 314 1 3 10 14 31 94 134 588 1110
2025-08-15 16:00 5.92 96 10200 (1985) 0 (1934) 314 1 3 10 14 31 94 134 588 1110
2025-08-15 15:30 5.93 98 10200 (1985) 0 (1934) 314 1 3 10 14 31 94 134 588 1110
2025-08-15 15:00 5.93 98 10200 (1985) 0 (1934) 314 1 3 10 14 31 94 134 588 1110
2025-08-15 14:30 5.93 98 10200 (1985) 0 (1934) 314 1 3 10 14 31 94 134 588 1110
2025-08-15 14:00 5.93 98 10200 (1985) 0 (1934) 314 1 3 10 14 31 94 134 588 1110
2025-08-15 13:30 5.93 98 10200 (1985) 0 (1934) 314 1 3 10 14 31 94 134 588 1110
2025-08-15 13:00 5.93 98 10200 (1985) 0 (1934) 314 1 3 10 14 31 94 134 588 1110
2025-08-15 12:30 5.93 98 10200 (1985) 0 (1934) 314 1 3 10 14 31 94 134 588 1110
2025-08-15 12:00 5.93 98 10200 (1985) 0 (1934) 314 1 3 10 14 31 94 134 588 1110
2025-08-15 11:30 5.93 98 10200 (1985) 0 (1934) 314 1 3 10 14 31 94 134 588 1110
2025-08-15 11:00 5.93 98 10200 (1985) 0 (1934) 314 1 3 10 14 31 94 134 588 1110
2025-08-15 10:30 5.93 98 10200 (1985) 0 (1934) 314 1 3 10 14 31 94 134 588 1110
2025-08-15 10:00 5.93 98 10200 (1985) 0 (1934) 314 1 3 10 14 31 94 134 588 1110
2025-08-15 09:30 5.93 98 10200 (1985) 0 (1934) 314 1 3 10 14 31 94 134 588 1110
2025-08-15 09:00 5.93 98 10200 (1985) 0 (1934) 314 1 3 10 14 31 94 134 588 1110
2025-08-15 08:30 5.93 98 10200 (1985) 0 (1934) 314 1 3 10 14 31 94 134 588 1110
2025-08-15 08:00 5.93 98 10200 (1985) 0 (1934) 314 1 3 10 14 31 94 134 588 1110
2025-08-15 07:30 5.93 98 10200 (1985) 0 (1934) 314 1 3 10 14 31 94 134 588 1110
2025-08-15 07:00 5.94 100 10200 (1985) 0 (1934) 314 1 3 10 14 31 94 134 588 1110
2025-08-15 06:30 5.94 100 10200 (1985) 0 (1934) 314 1 3 10 14 31 94 134 588 1110
2025-08-15 06:00 5.93 98 10200 (1985) 0 (1934) 314 1 3 10 14 31 94 134 588 1110
2025-08-15 05:30 5.94 100 10200 (1985) 0 (1934) 314 1 3 10 14 31 94 134 588 1110
2025-08-15 05:00 5.94 100 10200 (1985) 0 (1934) 314 1 3 10 14 31 94 134 588 1110
2025-08-15 04:30 5.95 102 10200 (1985) 0 (1934) 314 1 3 10 14 31 94 134 588 1110
2025-08-15 04:00 5.94 100 10200 (1985) 0 (1934) 314 1 3 10 14 31 94 134 588 1110
2025-08-15 03:30 5.94 100 10200 (1985) 0 (1934) 314 1 3 10 14 31 94 134 588 1110
2025-08-15 03:00 5.94 100 10200 (1985) 0 (1934) 314 1 3 10 14 31 94 134 588 1110
2025-08-15 02:30 5.94 100 10200 (1985) 0 (1934) 314 1 3 10 14 31 94 134 588 1110
2025-08-15 02:00 5.95 102 10200 (1985) 0 (1934) 314 1 3 10 14 31 94 134 588 1110
2025-08-15 01:30 5.94 100 10200 (1985) 0 (1934) 314 1 3 10 14 31 94 134 588 1110
2025-08-15 01:00 5.95 102 10200 (1985) 0 (1934) 314 1 3 10 14 31 94 134 588 1110
2025-08-15 00:30 5.95 102 10200 (1985) 0 (1934) 314 1 3 10 14 31 94 134 588 1110
2025-08-15 00:00 5.95 102 10200 (1985) 0 (1934) 314 1 3 10 14 31 94 134 588 1110
2025-08-14 23:30 5.95 102 10200 (1985) 0 (1934) 314 1 3 10 14 31 94 134 588 1110
2025-08-14 23:00 5.95 102 10200 (1985) 0 (1934) 314 1 3 10 14 31 94 134 588 1110
2025-08-14 22:30 5.95 102 8700 (1927) 0 (1934) 300 1 3 9 12 33 106 136 754 1270
2025-08-14 22:00 5.95 102 8700 (1927) 0 (1934) 300 1 3 9 12 33 106 136 754 1270
2025-08-14 21:30 5.95 102 8700 (1927) 0 (1934) 300 1 3 9 12 33 106 136 754 1270
2025-08-14 21:00 5.95 102 8700 (1927) 0 (1934) 300 1 3 9 12 33 106 136 754 1270
2025-08-14 20:30 5.95 102 8700 (1927) 0 (1934) 300 1 3 9 12 33 106 136 754 1270
2025-08-14 20:00 5.95 102 8700 (1927) 0 (1934) 300 1 3 9 12 33 106 136 754 1270
2025-08-14 19:30 5.95 102 8700 (1927) 0 (1934) 300 1 3 9 12 33 106 136 754 1270
2025-08-14 19:00 5.95 102 8700 (1927) 0 (1934) 300 1 3 9 12 33 106 136 754 1270
2025-08-14 18:30 5.96 104 8700 (1927) 0 (1934) 300 1 3 9 12 33 106 136 754 1270
2025-08-14 18:00 5.95 102 8700 (1927) 0 (1934) 300 1 3 9 12 33 106 136 754 1270
2025-08-14 17:30 5.95 102 8700 (1927) 0 (1934) 300 1 3 9 12 33 106 136 754 1270
2025-08-14 17:00 5.96 104 8700 (1927) 0 (1934) 300 1 3 9 12 33 106 136 754 1270
2025-08-14 16:30 5.96 104 8700 (1927) 0 (1934) 300 1 3 9 12 33 106 136 754 1270
2025-08-14 16:00 5.96 104 8700 (1927) 0 (1934) 300 1 3 9 12 33 106 136 754 1270
2025-08-14 15:30 5.97 106 8700 (1927) 0 (1934) 300 1 3 9 12 33 106 136 754 1270
2025-08-14 15:00 5.97 106 8700 (1927) 0 (1934) 300 1 3 9 12 33 106 136 754 1270
2025-08-14 14:30 5.97 106 8700 (1927) 0 (1934) 300 1 3 9 12 33 106 136 754 1270
2025-08-14 14:00 5.97 106 8700 (1927) 0 (1934) 300 1 3 9 12 33 106 136 754 1270
2025-08-14 13:30 5.97 106 8700 (1927) 0 (1934) 300 1 3 9 12 33 106 136 754 1270
2025-08-14 13:00 5.97 106 8700 (1927) 0 (1934) 300 1 3 9 12 33 106 136 754 1270
2025-08-14 12:30 5.97 106 8700 (1927) 0 (1934) 300 1 3 9 12 33 106 136 754 1270
2025-08-14 12:00 5.97 106 8700 (1927) 0 (1934) 300 1 3 9 12 33 106 136 754 1270
2025-08-14 11:30 5.97 106 8700 (1927) 0 (1934) 300 1 3 9 12 33 106 136 754 1270
2025-08-14 11:00 5.97 106 8700 (1927) 0 (1934) 300 1 3 9 12 33 106 136 754 1270
2025-08-14 10:30 5.97 106 8700 (1927) 0 (1934) 300 1 3 9 12 33 106 136 754 1270
2025-08-14 10:00 5.97 106 8700 (1927) 0 (1934) 300 1 3 9 12 33 106 136 754 1270
2025-08-14 09:30 5.96 104 8700 (1927) 0 (1934) 300 1 3 9 12 33 106 136 754 1270
2025-08-14 09:00 5.97 106 8700 (1927) 0 (1934) 300 1 3 9 12 33 106 136 754 1270
2025-08-14 08:30 5.98 108 8700 (1927) 0 (1934) 300 1 3 9 12 33 106 136 754 1270
2025-08-14 08:00 5.98 108 8700 (1927) 0 (1934) 300 1 3 9 12 33 106 136 754 1270
2025-08-14 07:30 5.98 108 8700 (1927) 0 (1934) 300 1 3 9 12 33 106 136 754 1270
2025-08-14 07:00 5.98 108 8700 (1927) 0 (1934) 300 1 3 9 12 33 106 136 754 1270
2025-08-14 06:30 5.98 108 8700 (1927) 0 (1934) 300 1 3 9 12 33 106 136 754 1270
2025-08-14 06:00 5.98 108 8700 (1927) 0 (1934) 300 1 3 9 12 33 106 136 754 1270
2025-08-14 05:30 5.98 108 8700 (1927) 0 (1934) 300 1 3 9 12 33 106 136 754 1270
2025-08-14 05:00 5.98 108 8700 (1927) 0 (1934) 300 1 3 9 12 33 106 136 754 1270
2025-08-14 04:30 5.99 110 8700 (1927) 0 (1934) 300 1 3 9 12 33 106 136 754 1270
2025-08-14 04:00 5.99 110 8700 (1927) 0 (1934) 300 1 3 9 12 33 106 136 754 1270
2025-08-14 03:30 5.99 110 8700 (1927) 0 (1934) 300 1 3 9 12 33 106 136 754 1270
2025-08-14 03:00 5.99 110 8700 (1927) 0 (1934) 300 1 3 9 12 33 106 136 754 1270
2025-08-14 02:30 5.99 110 8700 (1927) 0 (1934) 300 1 3 9 12 33 106 136 754 1270
2025-08-14 02:00 5.99 110 8700 (1927) 0 (1934) 300 1 3 9 12 33 106 136 754 1270
2025-08-14 01:30 5.99 110 8700 (1927) 0 (1934) 300 1 3 9 12 33 106 136 754 1270
2025-08-14 01:00 5.99 110 8700 (1927) 0 (1934) 300 1 3 9 12 33 106 136 754 1270
2025-08-14 00:30 5.99 110 8700 (1927) 0 (1934) 300 1 3 9 12 33 106 136 754 1270
2025-08-14 00:00 5.99 110 8700 (1927) 0 (1934) 300 1 3 9 12 33 106 136 754 1270
2025-08-13 23:30 5.99 110 8700 (1927) 0 (1934) 300 1 3 9 12 33 106 136 754 1270
2025-08-13 23:00 5.99 110 8700 (1927) 0 (1934) 300 1 3 9 12 33 106 136 754 1270
2025-08-13 22:30 6.00 112 14300 (1993) 0 (1934) 470 1 3 8 11 39 109 162 485 3610
2025-08-13 22:00 6.00 112 14300 (1993) 0 (1934) 470 1 3 8 11 39 109 162 485 3610
2025-08-13 21:30 6.00 112 14300 (1993) 0 (1934) 470 1 3 8 11 39 109 162 485 3610
2025-08-13 21:00 6.00 112 14300 (1993) 0 (1934) 470 1 3 8 11 39 109 162 485 3610
2025-08-13 20:30 6.00 112 14300 (1993) 0 (1934) 470 1 3 8 11 39 109 162 485 3610
2025-08-13 20:00 6.00 112 14300 (1993) 0 (1934) 470 1 3 8 11 39 109 162 485 3610
2025-08-13 19:30 6.00 112 14300 (1993) 0 (1934) 470 1 3 8 11 39 109 162 485 3610
2025-08-13 19:00 6.00 112 14300 (1993) 0 (1934) 470 1 3 8 11 39 109 162 485 3610
2025-08-13 18:30 5.99 110 14300 (1993) 0 (1934) 470 1 3 8 11 39 109 162 485 3610
2025-08-13 18:00 6.01 114 14300 (1993) 0 (1934) 470 1 3 8 11 39 109 162 485 3610
2025-08-13 17:30 6.01 114 14300 (1993) 0 (1934) 470 1 3 8 11 39 109 162 485 3610
2025-08-13 17:00 6.01 114 14300 (1993) 0 (1934) 470 1 3 8 11 39 109 162 485 3610
2025-08-13 16:30 6.01 114 14300 (1993) 0 (1934) 470 1 3 8 11 39 109 162 485 3610
2025-08-13 16:00 6.01 114 14300 (1993) 0 (1934) 470 1 3 8 11 39 109 162 485 3610
2025-08-13 15:30 6.02 117 14300 (1993) 0 (1934) 470 1 3 8 11 39 109 162 485 3610
2025-08-13 15:00 5.98 108 14300 (1993) 0 (1934) 470 1 3 8 11 39 109 162 485 3610
2025-08-13 14:30 6.02 117 14300 (1993) 0 (1934) 470 1 3 8 11 39 109 162 485 3610
2025-08-13 14:00 6.02 117 14300 (1993) 0 (1934) 470 1 3 8 11 39 109 162 485 3610
2025-08-13 13:30 6.03 119 14300 (1993) 0 (1934) 470 1 3 8 11 39 109 162 485 3610
2025-08-13 13:00 6.02 117 14300 (1993) 0 (1934) 470 1 3 8 11 39 109 162 485 3610
2025-08-13 12:30 6.02 117 14300 (1993) 0 (1934) 470 1 3 8 11 39 109 162 485 3610
2025-08-13 12:00 6.03 119 14300 (1993) 0 (1934) 470 1 3 8 11 39 109 162 485 3610
2025-08-13 11:30 6.03 119 14300 (1993) 0 (1934) 470 1 3 8 11 39 109 162 485 3610
2025-08-13 11:00 6.03 119 14300 (1993) 0 (1934) 470 1 3 8 11 39 109 162 485 3610
2025-08-13 10:30 6.03 119 14300 (1993) 0 (1934) 470 1 3 8 11 39 109 162 485 3610
2025-08-13 10:00 6.03 119 14300 (1993) 0 (1934) 470 1 3 8 11 39 109 162 485 3610
2025-08-13 09:30 6.03 119 14300 (1993) 0 (1934) 470 1 3 8 11 39 109 162 485 3610
2025-08-13 09:00 6.03 119 14300 (1993) 0 (1934) 470 1 3 8 11 39 109 162 485 3610
2025-08-13 08:30 6.04 121 14300 (1993) 0 (1934) 470 1 3 8 11 39 109 162 485 3610
2025-08-13 08:00 6.03 119 14300 (1993) 0 (1934) 470 1 3 8 11 39 109 162 485 3610
2025-08-13 07:30 6.04 121 14300 (1993) 0 (1934) 470 1 3 8 11 39 109 162 485 3610
2025-08-13 07:00 6.04 121 14300 (1993) 0 (1934) 470 1 3 8 11 39 109 162 485 3610
2025-08-13 06:30 6.04 121 14300 (1993) 0 (1934) 470 1 3 8 11 39 109 162 485 3610
2025-08-13 06:00 6.05 123 14300 (1993) 0 (1934) 470 1 3 8 11 39 109 162 485 3610
2025-08-13 05:30 6.04 121 14300 (1993) 0 (1934) 470 1 3 8 11 39 109 162 485 3610
2025-08-13 05:00 6.04 121 14300 (1993) 0 (1934) 470 1 3 8 11 39 109 162 485 3610
2025-08-13 04:30 6.04 121 14300 (1993) 0 (1934) 470 1 3 8 11 39 109 162 485 3610
2025-08-13 04:00 6.05 123 14300 (1993) 0 (1934) 470 1 3 8 11 39 109 162 485 3610
2025-08-13 03:30 6.05 123 14300 (1993) 0 (1934) 470 1 3 8 11 39 109 162 485 3610
2025-08-13 03:00 6.05 123 14300 (1993) 0 (1934) 470 1 3 8 11 39 109 162 485 3610
2025-08-13 02:30 6.05 123 14300 (1993) 0 (1934) 470 1 3 8 11 39 109 162 485 3610
2025-08-13 02:00 6.05 123 14300 (1993) 0 (1934) 470 1 3 8 11 39 109 162 485 3610
2025-08-13 01:30 6.05 123 14300 (1993) 0 (1934) 470 1 3 8 11 39 109 162 485 3610
2025-08-13 01:00 6.06 126 14300 (1993) 0 (1934) 470 1 3 8 11 39 109 162 485 3610
2025-08-13 00:30 6.05 123 14300 (1993) 0 (1934) 470 1 3 8 11 39 109 162 485 3610
2025-08-13 00:00 6.05 123 14300 (1993) 0 (1934) 470 1 3 8 11 39 109 162 485 3610
2025-08-12 23:30 6.05 123 14300 (1993) 0 (1934) 470 1 3 8 11 39 109 162 485 3610
2025-08-12 23:00 6.06 126 14300 (1993) 0 (1934) 470 1 3 8 11 39 109 162 485 3610
2025-08-12 22:30 6.05 123 17500 (1993) 0 (1934) 447 1 3 8 10 39 123 169 411 1590
2025-08-12 22:00 6.05 123 17500 (1993) 0 (1934) 447 1 3 8 10 39 123 169 411 1590
2025-08-12 21:30 6.06 126 17500 (1993) 0 (1934) 447 1 3 8 10 39 123 169 411 1590
2025-08-12 21:00 6.06 126 17500 (1993) 0 (1934) 447 1 3 8 10 39 123 169 411 1590
2025-08-12 20:30 6.06 126 17500 (1993) 0 (1934) 447 1 3 8 10 39 123 169 411 1590
2025-08-12 20:00 6.06 126 17500 (1993) 0 (1934) 447 1 3 8 10 39 123 169 411 1590
2025-08-12 19:30 6.06 126 17500 (1993) 0 (1934) 447 1 3 8 10 39 123 169 411 1590
2025-08-12 19:00 6.06 126 17500 (1993) 0 (1934) 447 1 3 8 10 39 123 169 411 1590
2025-08-12 18:30 6.06 126 17500 (1993) 0 (1934) 447 1 3 8 10 39 123 169 411 1590
2025-08-12 18:00 6.07 128 17500 (1993) 0 (1934) 447 1 3 8 10 39 123 169 411 1590
2025-08-12 17:30 6.07 128 17500 (1993) 0 (1934) 447 1 3 8 10 39 123 169 411 1590
2025-08-12 17:00 6.07 128 17500 (1993) 0 (1934) 447 1 3 8 10 39 123 169 411 1590
2025-08-12 16:30 6.07 128 17500 (1993) 0 (1934) 447 1 3 8 10 39 123 169 411 1590
2025-08-12 16:00 6.08 131 17500 (1993) 0 (1934) 447 1 3 8 10 39 123 169 411 1590
2025-08-12 15:30 6.08 131 17500 (1993) 0 (1934) 447 1 3 8 10 39 123 169 411 1590
2025-08-12 15:00 6.07 128 17500 (1993) 0 (1934) 447 1 3 8 10 39 123 169 411 1590
2025-08-12 14:30 6.05 123 17500 (1993) 0 (1934) 447 1 3 8 10 39 123 169 411 1590
2025-08-12 14:00 6.09 133 17500 (1993) 0 (1934) 447 1 3 8 10 39 123 169 411 1590
2025-08-12 13:30 6.07 128 17500 (1993) 0 (1934) 447 1 3 8 10 39 123 169 411 1590
2025-08-12 13:00 6.08 131 17500 (1993) 0 (1934) 447 1 3 8 10 39 123 169 411 1590
2025-08-12 12:30 6.06 126 17500 (1993) 0 (1934) 447 1 3 8 10 39 123 169 411 1590
2025-08-12 12:00 6.09 133 17500 (1993) 0 (1934) 447 1 3 8 10 39 123 169 411 1590
2025-08-12 11:30 6.09 133 17500 (1993) 0 (1934) 447 1 3 8 10 39 123 169 411 1590
2025-08-12 11:00 6.09 133 17500 (1993) 0 (1934) 447 1 3 8 10 39 123 169 411 1590
2025-08-12 10:30 6.09 133 17500 (1993) 0 (1934) 447 1 3 8 10 39 123 169 411 1590
2025-08-12 10:00 6.09 133 17500 (1993) 0 (1934) 447 1 3 8 10 39 123 169 411 1590
2025-08-12 09:30 6.09 133 17500 (1993) 0 (1934) 447 1 3 8 10 39 123 169 411 1590
2025-08-12 09:00 6.08 131 17500 (1993) 0 (1934) 447 1 3 8 10 39 123 169 411 1590
2025-08-12 08:30 6.08 131 17500 (1993) 0 (1934) 447 1 3 8 10 39 123 169 411 1590
2025-08-12 08:00 6.08 131 17500 (1993) 0 (1934) 447 1 3 8 10 39 123 169 411 1590
2025-08-12 07:30 6.08 131 17500 (1993) 0 (1934) 447 1 3 8 10 39 123 169 411 1590
2025-08-12 07:00 6.07 128 17500 (1993) 0 (1934) 447 1 3 8 10 39 123 169 411 1590
2025-08-12 06:30 6.06 126 17500 (1993) 0 (1934) 447 1 3 8 10 39 123 169 411 1590
2025-08-12 06:00 6.06 126 17500 (1993) 0 (1934) 447 1 3 8 10 39 123 169 411 1590
2025-08-12 05:30 6.06 126 17500 (1993) 0 (1934) 447 1 3 8 10 39 123 169 411 1590
2025-08-12 05:00 6.05 123 17500 (1993) 0 (1934) 447 1 3 8 10 39 123 169 411 1590
2025-08-12 04:30 6.04 121 17500 (1993) 0 (1934) 447 1 3 8 10 39 123 169 411 1590
2025-08-12 04:00 6.04 121 17500 (1993) 0 (1934) 447 1 3 8 10 39 123 169 411 1590
2025-08-12 03:30 6.03 119 17500 (1993) 0 (1934) 447 1 3 8 10 39 123 169 411 1590
2025-08-12 03:00 6.03 119 17500 (1993) 0 (1934) 447 1 3 8 10 39 123 169 411 1590
2025-08-12 02:30 6.03 119 17500 (1993) 0 (1934) 447 1 3 8 10 39 123 169 411 1590
2025-08-12 02:00 6.03 119 17500 (1993) 0 (1934) 447 1 3 8 10 39 123 169 411 1590
2025-08-12 01:30 6.02 117 17500 (1993) 0 (1934) 447 1 3 8 10 39 123 169 411 1590
2025-08-12 01:00 6.02 117 17500 (1993) 0 (1934) 447 1 3 8 10 39 123 169 411 1590
2025-08-12 00:30 6.02 117 17500 (1993) 0 (1934) 447 1 3 8 10 39 123 169 411 1590
2025-08-12 00:00 6.02 117 17500 (1993) 0 (1934) 447 1 3 8 10 39 123 169 411 1590
2025-08-11 23:30 6.02 117 17500 (1993) 0 (1934) 447 1 3 8 10 39 123 169 411 1590
2025-08-11 23:00 6.02 117 17500 (1993) 0 (1934) 447 1 3 8 10 39 123 169 411 1590
2025-08-11 22:30 6.02 117 5000 (1993) 0 (1934) 279 1 4 7 11 34 127 162 399 2580
2025-08-11 22:00 6.02 117 5000 (1993) 0 (1934) 279 1 4 7 11 34 127 162 399 2580
2025-08-11 21:30 6.02 117 5000 (1993) 0 (1934) 279 1 4 7 11 34 127 162 399 2580
2025-08-11 21:00 6.02 117 5000 (1993) 0 (1934) 279 1 4 7 11 34 127 162 399 2580
2025-08-11 20:30 6.02 117 5000 (1993) 0 (1934) 279 1 4 7 11 34 127 162 399 2580
2025-08-11 20:00 6.02 117 5000 (1993) 0 (1934) 279 1 4 7 11 34 127 162 399 2580
2025-08-11 19:30 6.02 117 5000 (1993) 0 (1934) 279 1 4 7 11 34 127 162 399 2580
2025-08-11 19:00 6.02 117 5000 (1993) 0 (1934) 279 1 4 7 11 34 127 162 399 2580
2025-08-11 18:30 6.03 119 5000 (1993) 0 (1934) 279 1 4 7 11 34 127 162 399 2580
2025-08-11 18:00 6.03 119 5000 (1993) 0 (1934) 279 1 4 7 11 34 127 162 399 2580
2025-08-11 17:30 6.03 119 5000 (1993) 0 (1934) 279 1 4 7 11 34 127 162 399 2580
2025-08-11 17:00 5.99 110 5000 (1993) 0 (1934) 279 1 4 7 11 34 127 162 399 2580
2025-08-11 16:30 6.00 112 5000 (1993) 0 (1934) 279 1 4 7 11 34 127 162 399 2580
2025-08-11 16:00 6.00 112 5000 (1993) 0 (1934) 279 1 4 7 11 34 127 162 399 2580
2025-08-11 15:30 6.02 117 5000 (1993) 0 (1934) 279 1 4 7 11 34 127 162 399 2580
2025-08-11 15:00 6.04 121 5000 (1993) 0 (1934) 279 1 4 7 11 34 127 162 399 2580
2025-08-11 14:30 6.04 121 5000 (1993) 0 (1934) 279 1 4 7 11 34 127 162 399 2580
2025-08-11 14:00 6.04 121 5000 (1993) 0 (1934) 279 1 4 7 11 34 127 162 399 2580
2025-08-11 13:30 6.04 121 5000 (1993) 0 (1934) 279 1 4 7 11 34 127 162 399 2580
2025-08-11 13:00 6.04 121 5000 (1993) 0 (1934) 279 1 4 7 11 34 127 162 399 2580
2025-08-11 12:30 6.04 121 5000 (1993) 0 (1934) 279 1 4 7 11 34 127 162 399 2580
2025-08-11 12:00 6.04 121 5000 (1993) 0 (1934) 279 1 4 7 11 34 127 162 399 2580
2025-08-11 11:30 6.04 121 5000 (1993) 0 (1934) 279 1 4 7 11 34 127 162 399 2580
2025-08-11 11:00 6.04 121 5000 (1993) 0 (1934) 279 1 4 7 11 34 127 162 399 2580
2025-08-11 10:30 6.04 121 5000 (1993) 0 (1934) 279 1 4 7 11 34 127 162 399 2580
2025-08-11 10:00 6.04 121 5000 (1993) 0 (1934) 279 1 4 7 11 34 127 162 399 2580
2025-08-11 09:30 6.04 121 5000 (1993) 0 (1934) 279 1 4 7 11 34 127 162 399 2580
2025-08-11 09:00 6.04 121 5000 (1993) 0 (1934) 279 1 4 7 11 34 127 162 399 2580
2025-08-11 08:30 6.05 123 5000 (1993) 0 (1934) 279 1 4 7 11 34 127 162 399 2580
2025-08-11 08:00 6.05 123 5000 (1993) 0 (1934) 279 1 4 7 11 34 127 162 399 2580
2025-08-11 07:30 6.05 123 5000 (1993) 0 (1934) 279 1 4 7 11 34 127 162 399 2580
2025-08-11 07:00 6.05 123 5000 (1993) 0 (1934) 279 1 4 7 11 34 127 162 399 2580
2025-08-11 06:30 6.05 123 5000 (1993) 0 (1934) 279 1 4 7 11 34 127 162 399 2580
2025-08-11 06:00 6.05 123 5000 (1993) 0 (1934) 279 1 4 7 11 34 127 162 399 2580
2025-08-11 05:30 6.05 123 5000 (1993) 0 (1934) 279 1 4 7 11 34 127 162 399 2580
2025-08-11 05:00 6.05 123 5000 (1993) 0 (1934) 279 1 4 7 11 34 127 162 399 2580
2025-08-11 04:30 6.05 123 5000 (1993) 0 (1934) 279 1 4 7 11 34 127 162 399 2580
2025-08-11 04:00 6.05 123 5000 (1993) 0 (1934) 279 1 4 7 11 34 127 162 399 2580
2025-08-11 03:30 6.04 121 5000 (1993) 0 (1934) 279 1 4 7 11 34 127 162 399 2580
2025-08-11 03:00 6.04 121 5000 (1993) 0 (1934) 279 1 4 7 11 34 127 162 399 2580
2025-08-11 02:30 6.04 121 5000 (1993) 0 (1934) 279 1 4 7 11 34 127 162 399 2580
2025-08-11 02:00 6.04 121 5000 (1993) 0 (1934) 279 1 4 7 11 34 127 162 399 2580
2025-08-11 01:30 6.04 121 5000 (1993) 0 (1934) 279 1 4 7 11 34 127 162 399 2580
2025-08-11 01:00 6.04 121 5000 (1993) 0 (1934) 279 1 4 7 11 34 127 162 399 2580
2025-08-11 00:30 6.04 121 5000 (1993) 0 (1934) 279 1 4 7 11 34 127 162 399 2580
2025-08-11 00:00 6.04 121 5000 (1993) 0 (1934) 279 1 4 7 11 34 127 162 399 2580
2025-08-10 23:30 6.04 121 5000 (1993) 0 (1934) 279 1 4 7 11 34 127 162 399 2580
2025-08-10 23:00 6.03 119 5000 (1993) 0 (1934) 279 1 4 7 11 34 127 162 399 2580
2025-08-10 22:30 6.05 123 11000 (1970) 0 (1934) 300 1 4 7 11 41 141 186 507 1110
2025-08-10 22:00 6.04 121 11000 (1970) 0 (1934) 300 1 4 7 11 41 141 186 507 1110
2025-08-10 21:30 6.05 123 11000 (1970) 0 (1934) 300 1 4 7 11 41 141 186 507 1110
2025-08-10 21:00 6.05 123 11000 (1970) 0 (1934) 300 1 4 7 11 41 141 186 507 1110
2025-08-10 20:30 6.05 123 11000 (1970) 0 (1934) 300 1 4 7 11 41 141 186 507 1110
2025-08-10 20:00 6.05 123 11000 (1970) 0 (1934) 300 1 4 7 11 41 141 186 507 1110
2025-08-10 19:30 6.05 123 11000 (1970) 0 (1934) 300 1 4 7 11 41 141 186 507 1110
2025-08-10 19:00 6.05 123 11000 (1970) 0 (1934) 300 1 4 7 11 41 141 186 507 1110
2025-08-10 18:30 6.05 123 11000 (1970) 0 (1934) 300 1 4 7 11 41 141 186 507 1110
2025-08-10 18:00 6.05 123 11000 (1970) 0 (1934) 300 1 4 7 11 41 141 186 507 1110
2025-08-10 17:30 6.05 123 11000 (1970) 0 (1934) 300 1 4 7 11 41 141 186 507 1110
2025-08-10 17:00 6.00 112 11000 (1970) 0 (1934) 300 1 4 7 11 41 141 186 507 1110
2025-08-10 16:30 6.05 123 11000 (1970) 0 (1934) 300 1 4 7 11 41 141 186 507 1110
2025-08-10 16:00 6.04 121 11000 (1970) 0 (1934) 300 1 4 7 11 41 141 186 507 1110
2025-08-10 15:30 6.01 114 11000 (1970) 0 (1934) 300 1 4 7 11 41 141 186 507 1110
2025-08-10 15:00 6.01 114 11000 (1970) 0 (1934) 300 1 4 7 11 41 141 186 507 1110
2025-08-10 14:30 6.05 123 11000 (1970) 0 (1934) 300 1 4 7 11 41 141 186 507 1110
2025-08-10 14:00 6.05 123 11000 (1970) 0 (1934) 300 1 4 7 11 41 141 186 507 1110
2025-08-10 13:30 6.05 123 11000 (1970) 0 (1934) 300 1 4 7 11 41 141 186 507 1110
2025-08-10 13:00 6.02 117 11000 (1970) 0 (1934) 300 1 4 7 11 41 141 186 507 1110
2025-08-10 12:30 6.06 126 11000 (1970) 0 (1934) 300 1 4 7 11 41 141 186 507 1110
2025-08-10 12:00 6.06 126 11000 (1970) 0 (1934) 300 1 4 7 11 41 141 186 507 1110
2025-08-10 11:30 6.07 128 11000 (1970) 0 (1934) 300 1 4 7 11 41 141 186 507 1110
2025-08-10 11:00 6.07 128 11000 (1970) 0 (1934) 300 1 4 7 11 41 141 186 507 1110
2025-08-10 10:30 6.07 128 11000 (1970) 0 (1934) 300 1 4 7 11 41 141 186 507 1110
2025-08-10 10:00 6.05 123 11000 (1970) 0 (1934) 300 1 4 7 11 41 141 186 507 1110
2025-08-10 09:30 6.06 126 11000 (1970) 0 (1934) 300 1 4 7 11 41 141 186 507 1110
2025-08-10 09:00 6.05 123 11000 (1970) 0 (1934) 300 1 4 7 11 41 141 186 507 1110
2025-08-10 08:30 6.06 126 11000 (1970) 0 (1934) 300 1 4 7 11 41 141 186 507 1110
2025-08-10 08:00 6.05 123 11000 (1970) 0 (1934) 300 1 4 7 11 41 141 186 507 1110
2025-08-10 07:30 6.06 126 11000 (1970) 0 (1934) 300 1 4 7 11 41 141 186 507 1110
2025-08-10 07:00 6.06 126 11000 (1970) 0 (1934) 300 1 4 7 11 41 141 186 507 1110
2025-08-10 06:30 6.06 126 11000 (1970) 0 (1934) 300 1 4 7 11 41 141 186 507 1110
2025-08-10 06:00 6.06 126 11000 (1970) 0 (1934) 300 1 4 7 11 41 141 186 507 1110
2025-08-10 05:30 6.06 126 11000 (1970) 0 (1934) 300 1 4 7 11 41 141 186 507 1110
2025-08-10 05:00 6.06 126 11000 (1970) 0 (1934) 300 1 4 7 11 41 141 186 507 1110
2025-08-10 04:30 6.06 126 11000 (1970) 0 (1934) 300 1 4 7 11 41 141 186 507 1110
2025-08-10 04:00 6.06 126 11000 (1970) 0 (1934) 300 1 4 7 11 41 141 186 507 1110
2025-08-10 03:30 6.06 126 11000 (1970) 0 (1934) 300 1 4 7 11 41 141 186 507 1110
2025-08-10 03:00 6.06 126 11000 (1970) 0 (1934) 300 1 4 7 11 41 141 186 507 1110
2025-08-10 02:30 6.06 126 11000 (1970) 0 (1934) 300 1 4 7 11 41 141 186 507 1110
2025-08-10 02:00 6.06 126 11000 (1970) 0 (1934) 300 1 4 7 11 41 141 186 507 1110
2025-08-10 01:30 6.06 126 11000 (1970) 0 (1934) 300 1 4 7 11 41 141 186 507 1110
2025-08-10 01:00 6.07 128 11000 (1970) 0 (1934) 300 1 4 7 11 41 141 186 507 1110
2025-08-10 00:30 6.04 121 11000 (1970) 0 (1934) 300 1 4 7 11 41 141 186 507 1110
2025-08-10 00:00 6.07 128 11000 (1970) 0 (1934) 300 1 4 7 11 41 141 186 507 1110
2025-08-09 23:30 6.07 128 11000 (1970) 0 (1934) 300 1 4 7 11 41 141 186 507 1110
2025-08-09 23:00 6.07 128 11000 (1970) 0 (1934) 300 1 4 7 11 41 141 186 507 1110
2025-08-09 22:30 6.07 128 21600 (1970) 0 (1934) 418 0 4 7 9 37 120 210 610 981
2025-08-09 22:00 6.07 128 21600 (1970) 0 (1934) 418 0 4 7 9 37 120 210 610 981
2025-08-09 21:30 6.07 128 21600 (1970) 0 (1934) 418 0 4 7 9 37 120 210 610 981
2025-08-09 21:00 6.07 128 21600 (1970) 0 (1934) 418 0 4 7 9 37 120 210 610 981
2025-08-09 20:30 6.07 128 21600 (1970) 0 (1934) 418 0 4 7 9 37 120 210 610 981
2025-08-09 20:00 6.07 128 21600 (1970) 0 (1934) 418 0 4 7 9 37 120 210 610 981
2025-08-09 19:30 6.07 128 21600 (1970) 0 (1934) 418 0 4 7 9 37 120 210 610 981
2025-08-09 19:00 6.07 128 21600 (1970) 0 (1934) 418 0 4 7 9 37 120 210 610 981
2025-08-09 18:30 6.08 131 21600 (1970) 0 (1934) 418 0 4 7 9 37 120 210 610 981
2025-08-09 18:00 6.08 131 21600 (1970) 0 (1934) 418 0 4 7 9 37 120 210 610 981
2025-08-09 17:30 6.07 128 21600 (1970) 0 (1934) 418 0 4 7 9 37 120 210 610 981
2025-08-09 17:00 6.07 128 21600 (1970) 0 (1934) 418 0 4 7 9 37 120 210 610 981
2025-08-09 16:30 6.08 131 21600 (1970) 0 (1934) 418 0 4 7 9 37 120 210 610 981
2025-08-09 16:00 6.08 131 21600 (1970) 0 (1934) 418 0 4 7 9 37 120 210 610 981
2025-08-09 15:30 6.08 131 21600 (1970) 0 (1934) 418 0 4 7 9 37 120 210 610 981
2025-08-09 15:00 6.07 128 21600 (1970) 0 (1934) 418 0 4 7 9 37 120 210 610 981
2025-08-09 14:30 6.08 131 21600 (1970) 0 (1934) 418 0 4 7 9 37 120 210 610 981
2025-08-09 14:00 6.09 133 21600 (1970) 0 (1934) 418 0 4 7 9 37 120 210 610 981
2025-08-09 13:30 6.09 133 21600 (1970) 0 (1934) 418 0 4 7 9 37 120 210 610 981
2025-08-09 13:00 6.09 133 21600 (1970) 0 (1934) 418 0 4 7 9 37 120 210 610 981
2025-08-09 12:30 6.09 133 21600 (1970) 0 (1934) 418 0 4 7 9 37 120 210 610 981
2025-08-09 12:00 6.09 133 21600 (1970) 0 (1934) 418 0 4 7 9 37 120 210 610 981
2025-08-09 11:30 6.08 131 21600 (1970) 0 (1934) 418 0 4 7 9 37 120 210 610 981
2025-08-09 11:00 6.08 131 21600 (1970) 0 (1934) 418 0 4 7 9 37 120 210 610 981
2025-08-09 10:30 6.09 133 21600 (1970) 0 (1934) 418 0 4 7 9 37 120 210 610 981
2025-08-09 10:00 6.09 133 21600 (1970) 0 (1934) 418 0 4 7 9 37 120 210 610 981
2025-08-09 09:30 6.09 133 21600 (1970) 0 (1934) 418 0 4 7 9 37 120 210 610 981
2025-08-09 09:00 6.09 133 21600 (1970) 0 (1934) 418 0 4 7 9 37 120 210 610 981
2025-08-09 08:30 6.09 133 21600 (1970) 0 (1934) 418 0 4 7 9 37 120 210 610 981
2025-08-09 08:00 6.09 133 21600 (1970) 0 (1934) 418 0 4 7 9 37 120 210 610 981
2025-08-09 07:30 6.10 136 21600 (1970) 0 (1934) 418 0 4 7 9 37 120 210 610 981
2025-08-09 07:00 6.10 136 21600 (1970) 0 (1934) 418 0 4 7 9 37 120 210 610 981
2025-08-09 06:30 6.10 136 21600 (1970) 0 (1934) 418 0 4 7 9 37 120 210 610 981
2025-08-09 06:00 6.10 136 21600 (1970) 0 (1934) 418 0 4 7 9 37 120 210 610 981
2025-08-09 05:30 6.10 136 21600 (1970) 0 (1934) 418 0 4 7 9 37 120 210 610 981
2025-08-09 05:00 6.10 136 21600 (1970) 0 (1934) 418 0 4 7 9 37 120 210 610 981
2025-08-09 04:30 6.10 136 21600 (1970) 0 (1934) 418 0 4 7 9 37 120 210 610 981
2025-08-09 04:00 6.10 136 21600 (1970) 0 (1934) 418 0 4 7 9 37 120 210 610 981
2025-08-09 03:30 6.11 138 21600 (1970) 0 (1934) 418 0 4 7 9 37 120 210 610 981
2025-08-09 03:00 6.10 136 21600 (1970) 0 (1934) 418 0 4 7 9 37 120 210 610 981
2025-08-09 02:30 6.10 136 21600 (1970) 0 (1934) 418 0 4 7 9 37 120 210 610 981
2025-08-09 02:00 6.11 138 21600 (1970) 0 (1934) 418 0 4 7 9 37 120 210 610 981
2025-08-09 01:30 6.11 138 21600 (1970) 0 (1934) 418 0 4 7 9 37 120 210 610 981
2025-08-09 01:00 6.10 136 21600 (1970) 0 (1934) 418 0 4 7 9 37 120 210 610 981
2025-08-09 00:30 6.11 138 21600 (1970) 0 (1934) 418 0 4 7 9 37 120 210 610 981
2025-08-09 00:00 6.11 138 21600 (1970) 0 (1934) 418 0 4 7 9 37 120 210 610 981
2025-08-08 23:30 6.11 138 21600 (1970) 0 (1934) 418 0 4 7 9 37 120 210 610 981
2025-08-08 23:00 6.11 138 21600 (1970) 0 (1934) 418 0 4 7 9 37 120 210 610 981
2025-08-08 22:30 6.10 136 8200 (1970) 0 (1934) 299 0 4 7 10 38 134 215 500 1750
2025-08-08 22:00 6.11 138 8200 (1970) 0 (1934) 299 0 4 7 10 38 134 215 500 1750
2025-08-08 21:30 6.11 138 8200 (1970) 0 (1934) 299 0 4 7 10 38 134 215 500 1750
2025-08-08 21:00 6.11 138 8200 (1970) 0 (1934) 299 0 4 7 10 38 134 215 500 1750
2025-08-08 20:30 6.11 138 8200 (1970) 0 (1934) 299 0 4 7 10 38 134 215 500 1750
2025-08-08 20:00 6.12 141 8200 (1970) 0 (1934) 299 0 4 7 10 38 134 215 500 1750
2025-08-08 19:30 6.12 141 8200 (1970) 0 (1934) 299 0 4 7 10 38 134 215 500 1750
2025-08-08 19:00 6.11 138 8200 (1970) 0 (1934) 299 0 4 7 10 38 134 215 500 1750
2025-08-08 18:30 6.12 141 8200 (1970) 0 (1934) 299 0 4 7 10 38 134 215 500 1750
2025-08-08 18:00 6.12 141 8200 (1970) 0 (1934) 299 0 4 7 10 38 134 215 500 1750
2025-08-08 17:30 6.12 141 8200 (1970) 0 (1934) 299 0 4 7 10 38 134 215 500 1750
2025-08-08 17:00 6.12 141 8200 (1970) 0 (1934) 299 0 4 7 10 38 134 215 500 1750
2025-08-08 16:30 6.12 141 8200 (1970) 0 (1934) 299 0 4 7 10 38 134 215 500 1750
2025-08-08 16:00 6.12 141 8200 (1970) 0 (1934) 299 0 4 7 10 38 134 215 500 1750
2025-08-08 15:30 6.13 143 8200 (1970) 0 (1934) 299 0 4 7 10 38 134 215 500 1750
2025-08-08 15:00 6.05 123 8200 (1970) 0 (1934) 299 0 4 7 10 38 134 215 500 1750
2025-08-08 14:30 6.06 126 8200 (1970) 0 (1934) 299 0 4 7 10 38 134 215 500 1750
2025-08-08 14:00 6.13 143 8200 (1970) 0 (1934) 299 0 4 7 10 38 134 215 500 1750
2025-08-08 13:30 6.13 143 8200 (1970) 0 (1934) 299 0 4 7 10 38 134 215 500 1750
2025-08-08 13:00 6.13 143 8200 (1970) 0 (1934) 299 0 4 7 10 38 134 215 500 1750
2025-08-08 12:30 6.09 133 8200 (1970) 0 (1934) 299 0 4 7 10 38 134 215 500 1750
2025-08-08 12:00 6.13 143 8200 (1970) 0 (1934) 299 0 4 7 10 38 134 215 500 1750
2025-08-08 11:30 6.12 141 8200 (1970) 0 (1934) 299 0 4 7 10 38 134 215 500 1750
2025-08-08 11:00 6.13 143 8200 (1970) 0 (1934) 299 0 4 7 10 38 134 215 500 1750
2025-08-08 10:30 6.12 141 8200 (1970) 0 (1934) 299 0 4 7 10 38 134 215 500 1750
2025-08-08 10:00 6.13 143 8200 (1970) 0 (1934) 299 0 4 7 10 38 134 215 500 1750
2025-08-08 09:30 6.13 143 8200 (1970) 0 (1934) 299 0 4 7 10 38 134 215 500 1750
2025-08-08 09:00 6.11 138 8200 (1970) 0 (1934) 299 0 4 7 10 38 134 215 500 1750
2025-08-08 08:30 6.08 131 8200 (1970) 0 (1934) 299 0 4 7 10 38 134 215 500 1750
2025-08-08 08:00 6.12 141 8200 (1970) 0 (1934) 299 0 4 7 10 38 134 215 500 1750
2025-08-08 07:30 6.13 143 8200 (1970) 0 (1934) 299 0 4 7 10 38 134 215 500 1750
2025-08-08 07:00 6.13 143 8200 (1970) 0 (1934) 299 0 4 7 10 38 134 215 500 1750
2025-08-08 06:30 6.13 143 8200 (1970) 0 (1934) 299 0 4 7 10 38 134 215 500 1750
2025-08-08 06:00 6.13 143 8200 (1970) 0 (1934) 299 0 4 7 10 38 134 215 500 1750
2025-08-08 05:30 6.13 143 8200 (1970) 0 (1934) 299 0 4 7 10 38 134 215 500 1750
2025-08-08 05:00 6.13 143 8200 (1970) 0 (1934) 299 0 4 7 10 38 134 215 500 1750
2025-08-08 04:30 6.13 143 8200 (1970) 0 (1934) 299 0 4 7 10 38 134 215 500 1750
2025-08-08 04:00 6.13 143 8200 (1970) 0 (1934) 299 0 4 7 10 38 134 215 500 1750
2025-08-08 03:30 6.13 143 8200 (1970) 0 (1934) 299 0 4 7 10 38 134 215 500 1750
2025-08-08 03:00 6.13 143 8200 (1970) 0 (1934) 299 0 4 7 10 38 134 215 500 1750
2025-08-08 02:30 6.13 143 8200 (1970) 0 (1934) 299 0 4 7 10 38 134 215 500 1750
2025-08-08 02:00 6.14 146 8200 (1970) 0 (1934) 299 0 4 7 10 38 134 215 500 1750
2025-08-08 01:30 6.14 146 8200 (1970) 0 (1934) 299 0 4 7 10 38 134 215 500 1750
2025-08-08 01:00 6.14 146 8200 (1970) 0 (1934) 299 0 4 7 10 38 134 215 500 1750
2025-08-08 00:30 6.14 146 8200 (1970) 0 (1934) 299 0 4 7 10 38 134 215 500 1750
2025-08-08 00:00 6.15 148 8200 (1970) 0 (1934) 299 0 4 7 10 38 134 215 500 1750
2025-08-07 23:30 6.15 148 8200 (1970) 0 (1934) 299 0 4 7 10 38 134 215 500 1750
2025-08-07 23:00 6.15 148 8200 (1970) 0 (1934) 299 0 4 7 10 38 134 215 500 1750
2025-08-07 22:30 6.15 148 10300 (1995) 0 (1954) 266 0 4 8 10 42 120 195 751 1050
2025-08-07 22:00 6.15 148 10300 (1995) 0 (1954) 266 0 4 8 10 42 120 195 751 1050
2025-08-07 21:30 6.14 146 10300 (1995) 0 (1954) 266 0 4 8 10 42 120 195 751 1050
2025-08-07 21:00 6.14 146 10300 (1995) 0 (1954) 266 0 4 8 10 42 120 195 751 1050
2025-08-07 20:30 6.14 146 10300 (1995) 0 (1954) 266 0 4 8 10 42 120 195 751 1050
2025-08-07 20:00 6.13 143 10300 (1995) 0 (1954) 266 0 4 8 10 42 120 195 751 1050
2025-08-07 19:30 6.13 143 10300 (1995) 0 (1954) 266 0 4 8 10 42 120 195 751 1050
2025-08-07 19:00 6.13 143 10300 (1995) 0 (1954) 266 0 4 8 10 42 120 195 751 1050
2025-08-07 18:30 6.13 143 10300 (1995) 0 (1954) 266 0 4 8 10 42 120 195 751 1050
2025-08-07 18:00 6.12 141 10300 (1995) 0 (1954) 266 0 4 8 10 42 120 195 751 1050
2025-08-07 17:30 6.08 131 10300 (1995) 0 (1954) 266 0 4 8 10 42 120 195 751 1050
2025-08-07 17:00 6.13 143 10300 (1995) 0 (1954) 266 0 4 8 10 42 120 195 751 1050
2025-08-07 16:30 6.13 143 10300 (1995) 0 (1954) 266 0 4 8 10 42 120 195 751 1050
2025-08-07 16:00 6.13 143 10300 (1995) 0 (1954) 266 0 4 8 10 42 120 195 751 1050
2025-08-07 15:30 6.13 143 10300 (1995) 0 (1954) 266 0 4 8 10 42 120 195 751 1050
2025-08-07 15:00 6.13 143 10300 (1995) 0 (1954) 266 0 4 8 10 42 120 195 751 1050
2025-08-07 14:30 6.14 146 10300 (1995) 0 (1954) 266 0 4 8 10 42 120 195 751 1050
2025-08-07 14:00 6.13 143 10300 (1995) 0 (1954) 266 0 4 8 10 42 120 195 751 1050
2025-08-07 13:30 6.14 146 10300 (1995) 0 (1954) 266 0 4 8 10 42 120 195 751 1050
2025-08-07 13:00 6.14 146 10300 (1995) 0 (1954) 266 0 4 8 10 42 120 195 751 1050
2025-08-07 12:30 6.14 146 10300 (1995) 0 (1954) 266 0 4 8 10 42 120 195 751 1050
2025-08-07 12:00 6.13 143 10300 (1995) 0 (1954) 266 0 4 8 10 42 120 195 751 1050
2025-08-07 11:30 6.13 143 10300 (1995) 0 (1954) 266 0 4 8 10 42 120 195 751 1050
2025-08-07 11:00 6.14 146 10300 (1995) 0 (1954) 266 0 4 8 10 42 120 195 751 1050
2025-08-07 10:30 6.14 146 10300 (1995) 0 (1954) 266 0 4 8 10 42 120 195 751 1050
2025-08-07 10:00 6.14 146 10300 (1995) 0 (1954) 266 0 4 8 10 42 120 195 751 1050
2025-08-07 09:30 6.14 146 10300 (1995) 0 (1954) 266 0 4 8 10 42 120 195 751 1050
2025-08-07 09:00 6.14 146 10300 (1995) 0 (1954) 266 0 4 8 10 42 120 195 751 1050
2025-08-07 08:30 6.14 146 10300 (1995) 0 (1954) 266 0 4 8 10 42 120 195 751 1050
2025-08-07 08:00 6.14 146 10300 (1995) 0 (1954) 266 0 4 8 10 42 120 195 751 1050
2025-08-07 07:30 6.14 146 10300 (1995) 0 (1954) 266 0 4 8 10 42 120 195 751 1050
2025-08-07 07:00 6.15 148 10300 (1995) 0 (1954) 266 0 4 8 10 42 120 195 751 1050
2025-08-07 06:30 6.14 146 10300 (1995) 0 (1954) 266 0 4 8 10 42 120 195 751 1050
2025-08-07 06:00 6.15 148 10300 (1995) 0 (1954) 266 0 4 8 10 42 120 195 751 1050
2025-08-07 05:30 6.15 148 10300 (1995) 0 (1954) 266 0 4 8 10 42 120 195 751 1050
2025-08-07 05:00 6.15 148 10300 (1995) 0 (1954) 266 0 4 8 10 42 120 195 751 1050
2025-08-07 04:30 6.15 148 10300 (1995) 0 (1954) 266 0 4 8 10 42 120 195 751 1050
2025-08-07 04:00 6.15 148 10300 (1995) 0 (1954) 266 0 4 8 10 42 120 195 751 1050
2025-08-07 03:30 6.15 148 10300 (1995) 0 (1954) 266 0 4 8 10 42 120 195 751 1050
2025-08-07 03:00 6.15 148 10300 (1995) 0 (1954) 266 0 4 8 10 42 120 195 751 1050
2025-08-07 02:30 6.15 148 10300 (1995) 0 (1954) 266 0 4 8 10 42 120 195 751 1050
2025-08-07 02:00 6.16 151 10300 (1995) 0 (1954) 266 0 4 8 10 42 120 195 751 1050
2025-08-07 01:30 6.16 151 10300 (1995) 0 (1954) 266 0 4 8 10 42 120 195 751 1050
2025-08-07 01:00 6.16 151 10300 (1995) 0 (1954) 266 0 4 8 10 42 120 195 751 1050
2025-08-07 00:30 6.16 151 10300 (1995) 0 (1954) 266 0 4 8 10 42 120 195 751 1050
2025-08-07 00:00 6.16 151 10300 (1995) 0 (1954) 266 0 4 8 10 42 120 195 751 1050
2025-08-06 23:30 6.16 151 10300 (1995) 0 (1954) 266 0 4 8 10 42 120 195 751 1050
2025-08-06 23:00 6.16 151 10300 (1995) 0 (1954) 266 0 4 8 10 42 120 195 751 1050
2025-08-06 22:30 6.16 151 14400 (1923) 0 (1934) 436 0 5 8 11 47 105 180 745 2290
2025-08-06 22:00 6.16 151 14400 (1923) 0 (1934) 436 0 5 8 11 47 105 180 745 2290
2025-08-06 21:30 6.16 151 14400 (1923) 0 (1934) 436 0 5 8 11 47 105 180 745 2290
2025-08-06 21:00 6.16 151 14400 (1923) 0 (1934) 436 0 5 8 11 47 105 180 745 2290
2025-08-06 20:30 6.17 154 14400 (1923) 0 (1934) 436 0 5 8 11 47 105 180 745 2290
2025-08-06 20:00 6.17 154 14400 (1923) 0 (1934) 436 0 5 8 11 47 105 180 745 2290
2025-08-06 19:30 6.17 154 14400 (1923) 0 (1934) 436 0 5 8 11 47 105 180 745 2290
2025-08-06 19:00 6.17 154 14400 (1923) 0 (1934) 436 0 5 8 11 47 105 180 745 2290
2025-08-06 18:30 6.17 154 14400 (1923) 0 (1934) 436 0 5 8 11 47 105 180 745 2290
2025-08-06 18:00 6.17 154 14400 (1923) 0 (1934) 436 0 5 8 11 47 105 180 745 2290
2025-08-06 17:30 6.18 157 14400 (1923) 0 (1934) 436 0 5 8 11 47 105 180 745 2290
2025-08-06 17:00 6.18 157 14400 (1923) 0 (1934) 436 0 5 8 11 47 105 180 745 2290
2025-08-06 16:30 6.18 157 14400 (1923) 0 (1934) 436 0 5 8 11 47 105 180 745 2290
2025-08-06 16:00 6.18 157 14400 (1923) 0 (1934) 436 0 5 8 11 47 105 180 745 2290
2025-08-06 15:30 6.15 148 14400 (1923) 0 (1934) 436 0 5 8 11 47 105 180 745 2290
2025-08-06 15:00 6.18 157 14400 (1923) 0 (1934) 436 0 5 8 11 47 105 180 745 2290
2025-08-06 14:30 6.19 159 14400 (1923) 0 (1934) 436 0 5 8 11 47 105 180 745 2290
2025-08-06 14:00 6.19 159 14400 (1923) 0 (1934) 436 0 5 8 11 47 105 180 745 2290
2025-08-06 13:30 6.19 159 14400 (1923) 0 (1934) 436 0 5 8 11 47 105 180 745 2290
2025-08-06 13:00 6.19 159 14400 (1923) 0 (1934) 436 0 5 8 11 47 105 180 745 2290
2025-08-06 12:30 6.14 146 14400 (1923) 0 (1934) 436 0 5 8 11 47 105 180 745 2290
2025-08-06 12:00 6.19 159 14400 (1923) 0 (1934) 436 0 5 8 11 47 105 180 745 2290
2025-08-06 11:30 6.19 159 14400 (1923) 0 (1934) 436 0 5 8 11 47 105 180 745 2290
2025-08-06 11:00 6.19 14400 (1923) 0 (1934) 436 0 5 8 11 47 105 180 745 2290
2025-08-06 10:30 6.19 159 14400 (1923) 0 (1934) 436 0 5 8 11 47 105 180 745 2290
2025-08-06 10:00 6.20 162 14400 (1923) 0 (1934) 436 0 5 8 11 47 105 180 745 2290
2025-08-06 09:30 6.20 162 14400 (1923) 0 (1934) 436 0 5 8 11 47 105 180 745 2290
2025-08-06 09:00 6.20 162 14400 (1923) 0 (1934) 436 0 5 8 11 47 105 180 745 2290
2025-08-06 08:30 6.20 162 14400 (1923) 0 (1934) 436 0 5 8 11 47 105 180 745 2290
2025-08-06 08:00 6.20 162 14400 (1923) 0 (1934) 436 0 5 8 11 47 105 180 745 2290
2025-08-06 07:30 6.20 162 14400 (1923) 0 (1934) 436 0 5 8 11 47 105 180 745 2290
2025-08-06 07:00 6.21 165 14400 (1923) 0 (1934) 436 0 5 8 11 47 105 180 745 2290
2025-08-06 06:30 6.21 165 14400 (1923) 0 (1934) 436 0 5 8 11 47 105 180 745 2290
2025-08-06 06:00 6.21 165 14400 (1923) 0 (1934) 436 0 5 8 11 47 105 180 745 2290
2025-08-06 05:30 6.21 165 14400 (1923) 0 (1934) 436 0 5 8 11 47 105 180 745 2290
2025-08-06 05:00 6.21 165 14400 (1923) 0 (1934) 436 0 5 8 11 47 105 180 745 2290
2025-08-06 04:30 6.21 165 14400 (1923) 0 (1934) 436 0 5 8 11 47 105 180 745 2290
2025-08-06 04:00 6.21 165 14400 (1923) 0 (1934) 436 0 5 8 11 47 105 180 745 2290
2025-08-06 03:30 6.21 165 14400 (1923) 0 (1934) 436 0 5 8 11 47 105 180 745 2290
2025-08-06 03:00 6.22 168 14400 (1923) 0 (1934) 436 0 5 8 11 47 105 180 745 2290
2025-08-06 02:30 6.22 168 14400 (1923) 0 (1934) 436 0 5 8 11 47 105 180 745 2290
2025-08-06 02:00 6.22 168 14400 (1923) 0 (1934) 436 0 5 8 11 47 105 180 745 2290
2025-08-06 01:30 6.22 168 14400 (1923) 0 (1934) 436 0 5 8 11 47 105 180 745 2290
2025-08-06 01:00 6.22 168 14400 (1923) 0 (1934) 436 0 5 8 11 47 105 180 745 2290
2025-08-06 00:30 6.22 168 14400 (1923) 0 (1934) 436 0 5 8 11 47 105 180 745 2290
2025-08-06 00:00 6.22 168 14400 (1923) 0 (1934) 436 0 5 8 11 47 105 180 745 2290
2025-08-05 23:30 6.22 168 14400 (1923) 0 (1934) 436 0 5 8 11 47 105 180 745 2290
2025-08-05 23:00 6.22 168 14400 (1923) 0 (1934) 436 0 5 8 11 47 105 180 745 2290
2025-08-05 22:30 6.23 171 4510 (2016) 0 (1954) 205 0 5 8 11 50 126 153 368 1300
2025-08-05 22:00 6.22 168 4510 (2016) 0 (1954) 205 0 5 8 11 50 126 153 368 1300
2025-08-05 21:30 6.23 171 4510 (2016) 0 (1954) 205 0 5 8 11 50 126 153 368 1300
2025-08-05 21:00 6.23 171 4510 (2016) 0 (1954) 205 0 5 8 11 50 126 153 368 1300
2025-08-05 20:30 6.23 171 4510 (2016) 0 (1954) 205 0 5 8 11 50 126 153 368 1300
2025-08-05 20:00 6.23 171 4510 (2016) 0 (1954) 205 0 5 8 11 50 126 153 368 1300
2025-08-05 19:30 6.23 171 4510 (2016) 0 (1954) 205 0 5 8 11 50 126 153 368 1300
2025-08-05 19:00 6.24 174 4510 (2016) 0 (1954) 205 0 5 8 11 50 126 153 368 1300
2025-08-05 18:30 6.24 174 4510 (2016) 0 (1954) 205 0 5 8 11 50 126 153 368 1300
2025-08-05 18:00 6.24 174 4510 (2016) 0 (1954) 205 0 5 8 11 50 126 153 368 1300
2025-08-05 17:30 6.24 174 4510 (2016) 0 (1954) 205 0 5 8 11 50 126 153 368 1300
2025-08-05 17:00 6.24 174 4510 (2016) 0 (1954) 205 0 5 8 11 50 126 153 368 1300
2025-08-05 16:30 6.24 174 4510 (2016) 0 (1954) 205 0 5 8 11 50 126 153 368 1300
2025-08-05 16:00 6.22 168 4510 (2016) 0 (1954) 205 0 5 8 11 50 126 153 368 1300
2025-08-05 15:30 6.24 174 4510 (2016) 0 (1954) 205 0 5 8 11 50 126 153 368 1300
2025-08-05 15:00 6.25 177 4510 (2016) 0 (1954) 205 0 5 8 11 50 126 153 368 1300
2025-08-05 14:30 6.25 177 4510 (2016) 0 (1954) 205 0 5 8 11 50 126 153 368 1300
2025-08-05 14:00 6.25 177 4510 (2016) 0 (1954) 205 0 5 8 11 50 126 153 368 1300
2025-08-05 13:30 6.25 177 4510 (2016) 0 (1954) 205 0 5 8 11 50 126 153 368 1300
2025-08-05 13:00 6.21 165 4510 (2016) 0 (1954) 205 0 5 8 11 50 126 153 368 1300
2025-08-05 12:30 6.26 180 4510 (2016) 0 (1954) 205 0 5 8 11 50 126 153 368 1300
2025-08-05 12:00 6.25 177 4510 (2016) 0 (1954) 205 0 5 8 11 50 126 153 368 1300
2025-08-05 11:30 6.26 180 4510 (2016) 0 (1954) 205 0 5 8 11 50 126 153 368 1300
2025-08-05 11:00 6.26 180 4510 (2016) 0 (1954) 205 0 5 8 11 50 126 153 368 1300
2025-08-05 10:30 6.26 180 4510 (2016) 0 (1954) 205 0 5 8 11 50 126 153 368 1300
2025-08-05 10:00 6.26 180 4510 (2016) 0 (1954) 205 0 5 8 11 50 126 153 368 1300
2025-08-05 09:30 6.26 180 4510 (2016) 0 (1954) 205 0 5 8 11 50 126 153 368 1300
2025-08-05 09:00 6.26 180 4510 (2016) 0 (1954) 205 0 5 8 11 50 126 153 368 1300
2025-08-05 08:30 6.27 183 4510 (2016) 0 (1954) 205 0 5 8 11 50 126 153 368 1300
2025-08-05 08:00 6.27 183 4510 (2016) 0 (1954) 205 0 5 8 11 50 126 153 368 1300
2025-08-05 07:30 6.27 183 4510 (2016) 0 (1954) 205 0 5 8 11 50 126 153 368 1300
2025-08-05 07:00 6.27 183 4510 (2016) 0 (1954) 205 0 5 8 11 50 126 153 368 1300
2025-08-05 06:30 6.27 183 4510 (2016) 0 (1954) 205 0 5 8 11 50 126 153 368 1300
2025-08-05 06:00 6.27 183 4510 (2016) 0 (1954) 205 0 5 8 11 50 126 153 368 1300
2025-08-05 05:30 6.27 183 4510 (2016) 0 (1954) 205 0 5 8 11 50 126 153 368 1300
2025-08-05 05:00 6.27 183 4510 (2016) 0 (1954) 205 0 5 8 11 50 126 153 368 1300
2025-08-05 04:30 6.28 186 4510 (2016) 0 (1954) 205 0 5 8 11 50 126 153 368 1300
2025-08-05 04:00 6.28 186 4510 (2016) 0 (1954) 205 0 5 8 11 50 126 153 368 1300
2025-08-05 03:30 6.28 186 4510 (2016) 0 (1954) 205 0 5 8 11 50 126 153 368 1300
2025-08-05 03:00 6.28 186 4510 (2016) 0 (1954) 205 0 5 8 11 50 126 153 368 1300
2025-08-05 02:30 6.28 186 4510 (2016) 0 (1954) 205 0 5 8 11 50 126 153 368 1300
2025-08-05 02:00 6.28 186 4510 (2016) 0 (1954) 205 0 5 8 11 50 126 153 368 1300
2025-08-05 01:30 6.28 186 4510 (2016) 0 (1954) 205 0 5 8 11 50 126 153 368 1300
2025-08-05 01:00 6.29 189 4510 (2016) 0 (1954) 205 0 5 8 11 50 126 153 368 1300
2025-08-05 00:30 6.29 189 4510 (2016) 0 (1954) 205 0 5 8 11 50 126 153 368 1300
2025-08-05 00:00 6.29 189 4510 (2016) 0 (1954) 205 0 5 8 11 50 126 153 368 1300
2025-08-04 23:30 6.29 189 4510 (2016) 0 (1954) 205 0 5 8 11 50 126 153 368 1300
2025-08-04 23:00 6.29 189 4510 (2016) 0 (1954) 205 0 5 8 11 50 126 153 368 1300
2025-08-04 22:30 6.30 192 5760 (1968) 0 (1954) 194 0 4 8 12 35 101 135 274 613
2025-08-04 22:00 6.30 192 5760 (1968) 0 (1954) 194 0 4 8 12 35 101 135 274 613
2025-08-04 21:30 6.30 192 5760 (1968) 0 (1954) 194 0 4 8 12 35 101 135 274 613
2025-08-04 21:00 6.30 192 5760 (1968) 0 (1954) 194 0 4 8 12 35 101 135 274 613
2025-08-04 20:30 6.30 192 5760 (1968) 0 (1954) 194 0 4 8 12 35 101 135 274 613
2025-08-04 20:00 6.30 192 5760 (1968) 0 (1954) 194 0 4 8 12 35 101 135 274 613
2025-08-04 19:30 6.30 192 5760 (1968) 0 (1954) 194 0 4 8 12 35 101 135 274 613
2025-08-04 19:00 6.31 195 5760 (1968) 0 (1954) 194 0 4 8 12 35 101 135 274 613
2025-08-04 18:30 6.31 195 5760 (1968) 0 (1954) 194 0 4 8 12 35 101 135 274 613
2025-08-04 18:00 6.31 195 5760 (1968) 0 (1954) 194 0 4 8 12 35 101 135 274 613
2025-08-04 17:30 6.31 195 5760 (1968) 0 (1954) 194 0 4 8 12 35 101 135 274 613
2025-08-04 17:00 6.32 199 5760 (1968) 0 (1954) 194 0 4 8 12 35 101 135 274 613
2025-08-04 16:30 6.30 192 5760 (1968) 0 (1954) 194 0 4 8 12 35 101 135 274 613
2025-08-04 16:00 6.26 180 5760 (1968) 0 (1954) 194 0 4 8 12 35 101 135 274 613
2025-08-04 15:30 6.29 189 5760 (1968) 0 (1954) 194 0 4 8 12 35 101 135 274 613
2025-08-04 15:00 6.30 192 5760 (1968) 0 (1954) 194 0 4 8 12 35 101 135 274 613
2025-08-04 14:30 6.32 199 5760 (1968) 0 (1954) 194 0 4 8 12 35 101 135 274 613
2025-08-04 14:00 6.29 189 5760 (1968) 0 (1954) 194 0 4 8 12 35 101 135 274 613
2025-08-04 13:30 6.33 202 5760 (1968) 0 (1954) 194 0 4 8 12 35 101 135 274 613
2025-08-04 13:00 6.32 199 5760 (1968) 0 (1954) 194 0 4 8 12 35 101 135 274 613
2025-08-04 12:30 6.33 202 5760 (1968) 0 (1954) 194 0 4 8 12 35 101 135 274 613
2025-08-04 12:00 6.33 202 5760 (1968) 0 (1954) 194 0 4 8 12 35 101 135 274 613
2025-08-04 11:30 6.34 205 5760 (1968) 0 (1954) 194 0 4 8 12 35 101 135 274 613
2025-08-04 11:00 6.34 205 5760 (1968) 0 (1954) 194 0 4 8 12 35 101 135 274 613
2025-08-04 10:30 6.34 205 5760 (1968) 0 (1954) 194 0 4 8 12 35 101 135 274 613
2025-08-04 10:00 6.34 205 5760 (1968) 0 (1954) 194 0 4 8 12 35 101 135 274 613
2025-08-04 09:30 6.34 205 5760 (1968) 0 (1954) 194 0 4 8 12 35 101 135 274 613
2025-08-04 09:00 6.35 208 5760 (1968) 0 (1954) 194 0 4 8 12 35 101 135 274 613
2025-08-04 08:30 6.35 208 5760 (1968) 0 (1954) 194 0 4 8 12 35 101 135 274 613
2025-08-04 08:00 6.35 208 5760 (1968) 0 (1954) 194 0 4 8 12 35 101 135 274 613
2025-08-04 07:30 6.35 208 5760 (1968) 0 (1954) 194 0 4 8 12 35 101 135 274 613
2025-08-04 07:00 6.35 208 5760 (1968) 0 (1954) 194 0 4 8 12 35 101 135 274 613
2025-08-04 06:30 6.36 212 5760 (1968) 0 (1954) 194 0 4 8 12 35 101 135 274 613
2025-08-04 06:00 6.36 212 5760 (1968) 0 (1954) 194 0 4 8 12 35 101 135 274 613
2025-08-04 05:30 6.36 212 5760 (1968) 0 (1954) 194 0 4 8 12 35 101 135 274 613
2025-08-04 05:00 6.36 212 5760 (1968) 0 (1954) 194 0 4 8 12 35 101 135 274 613
2025-08-04 04:30 6.36 212 5760 (1968) 0 (1954) 194 0 4 8 12 35 101 135 274 613
2025-08-04 04:00 6.37 215 5760 (1968) 0 (1954) 194 0 4 8 12 35 101 135 274 613
2025-08-04 03:30 6.37 215 5760 (1968) 0 (1954) 194 0 4 8 12 35 101 135 274 613
2025-08-04 03:00 6.37 215 5760 (1968) 0 (1954) 194 0 4 8 12 35 101 135 274 613
2025-08-04 02:30 6.37 215 5760 (1968) 0 (1954) 194 0 4 8 12 35 101 135 274 613
2025-08-04 02:00 6.37 215 5760 (1968) 0 (1954) 194 0 4 8 12 35 101 135 274 613
2025-08-04 01:30 6.38 219 5760 (1968) 0 (1954) 194 0 4 8 12 35 101 135 274 613
2025-08-04 01:00 6.38 219 5760 (1968) 0 (1954) 194 0 4 8 12 35 101 135 274 613
2025-08-04 00:30 6.38 219 5760 (1968) 0 (1954) 194 0 4 8 12 35 101 135 274 613
2025-08-04 00:00 6.38 219 5760 (1968) 0 (1954) 194 0 4 8 12 35 101 135 274 613
2025-08-03 23:30 6.39 222 5760 (1968) 0 (1954) 194 0 4 8 12 35 101 135 274 613
2025-08-03 23:00 6.39 222 5760 (1968) 0 (1954) 194 0 4 8 12 35 101 135 274 613
2025-08-03 22:30 6.39 222 6150 (2016) 0 (1934) 245 1 4 8 10 39 127 168 340 880
2025-08-03 22:00 6.39 222 6150 (2016) 0 (1934) 245 1 4 8 10 39 127 168 340 880
2025-08-03 21:30 6.39 222 6150 (2016) 0 (1934) 245 1 4 8 10 39 127 168 340 880
2025-08-03 21:00 6.40 226 6150 (2016) 0 (1934) 245 1 4 8 10 39 127 168 340 880
2025-08-03 20:30 6.40 226 6150 (2016) 0 (1934) 245 1 4 8 10 39 127 168 340 880
2025-08-03 20:00 6.40 226 6150 (2016) 0 (1934) 245 1 4 8 10 39 127 168 340 880
2025-08-03 19:30 6.40 226 6150 (2016) 0 (1934) 245 1 4 8 10 39 127 168 340 880
2025-08-03 19:00 6.40 226 6150 (2016) 0 (1934) 245 1 4 8 10 39 127 168 340 880
2025-08-03 18:30 6.41 229 6150 (2016) 0 (1934) 245 1 4 8 10 39 127 168 340 880
2025-08-03 18:00 6.41 229 6150 (2016) 0 (1934) 245 1 4 8 10 39 127 168 340 880
2025-08-03 17:30 6.42 233 6150 (2016) 0 (1934) 245 1 4 8 10 39 127 168 340 880
2025-08-03 17:00 6.41 229 6150 (2016) 0 (1934) 245 1 4 8 10 39 127 168 340 880
2025-08-03 16:30 6.42 233 6150 (2016) 0 (1934) 245 1 4 8 10 39 127 168 340 880
2025-08-03 16:00 6.42 233 6150 (2016) 0 (1934) 245 1 4 8 10 39 127 168 340 880
2025-08-03 15:30 6.43 237 6150 (2016) 0 (1934) 245 1 4 8 10 39 127 168 340 880
2025-08-03 15:00 6.43 237 6150 (2016) 0 (1934) 245 1 4 8 10 39 127 168 340 880
2025-08-03 14:30 6.43 237 6150 (2016) 0 (1934) 245 1 4 8 10 39 127 168 340 880
2025-08-03 14:00 6.43 237 6150 (2016) 0 (1934) 245 1 4 8 10 39 127 168 340 880
2025-08-03 13:30 6.40 226 6150 (2016) 0 (1934) 245 1 4 8 10 39 127 168 340 880
2025-08-03 13:00 6.44 240 6150 (2016) 0 (1934) 245 1 4 8 10 39 127 168 340 880
2025-08-03 12:30 6.44 240 6150 (2016) 0 (1934) 245 1 4 8 10 39 127 168 340 880
2025-08-03 12:00 6.44 240 6150 (2016) 0 (1934) 245 1 4 8 10 39 127 168 340 880
2025-08-03 11:30 6.44 240 6150 (2016) 0 (1934) 245 1 4 8 10 39 127 168 340 880
2025-08-03 11:00 6.44 240 6150 (2016) 0 (1934) 245 1 4 8 10 39 127 168 340 880
2025-08-03 10:30 6.44 240 6150 (2016) 0 (1934) 245 1 4 8 10 39 127 168 340 880
2025-08-03 10:00 6.45 244 6150 (2016) 0 (1934) 245 1 4 8 10 39 127 168 340 880
2025-08-03 09:30 6.45 244 6150 (2016) 0 (1934) 245 1 4 8 10 39 127 168 340 880
2025-08-03 09:00 6.45 244 6150 (2016) 0 (1934) 245 1 4 8 10 39 127 168 340 880
2025-08-03 08:30 6.45 244 6150 (2016) 0 (1934) 245 1 4 8 10 39 127 168 340 880
2025-08-03 08:00 6.46 248 6150 (2016) 0 (1934) 245 1 4 8 10 39 127 168 340 880
2025-08-03 07:30 6.46 248 6150 (2016) 0 (1934) 245 1 4 8 10 39 127 168 340 880
2025-08-03 07:00 6.43 237 6150 (2016) 0 (1934) 245 1 4 8 10 39 127 168 340 880
2025-08-03 06:30 6.47 251 6150 (2016) 0 (1934) 245 1 4 8 10 39 127 168 340 880
2025-08-03 06:00 6.47 251 6150 (2016) 0 (1934) 245 1 4 8 10 39 127 168 340 880
2025-08-03 05:30 6.47 251 6150 (2016) 0 (1934) 245 1 4 8 10 39 127 168 340 880
2025-08-03 05:00 6.48 255 6150 (2016) 0 (1934) 245 1 4 8 10 39 127 168 340 880
2025-08-03 04:30 6.48 255 6150 (2016) 0 (1934) 245 1 4 8 10 39 127 168 340 880
2025-08-03 04:00 6.48 255 6150 (2016) 0 (1934) 245 1 4 8 10 39 127 168 340 880
2025-08-03 03:30 6.48 255 6150 (2016) 0 (1934) 245 1 4 8 10 39 127 168 340 880
2025-08-03 03:00 6.48 255 6150 (2016) 0 (1934) 245 1 4 8 10 39 127 168 340 880
2025-08-03 02:30 6.49 259 6150 (2016) 0 (1934) 245 1 4 8 10 39 127 168 340 880
2025-08-03 02:00 6.49 259 6150 (2016) 0 (1934) 245 1 4 8 10 39 127 168 340 880
2025-08-03 01:30 6.49 259 6150 (2016) 0 (1934) 245 1 4 8 10 39 127 168 340 880
2025-08-03 01:00 6.49 259 6150 (2016) 0 (1934) 245 1 4 8 10 39 127 168 340 880
2025-08-03 00:30 6.49 259 6150 (2016) 0 (1934) 245 1 4 8 10 39 127 168 340 880
2025-08-03 00:00 6.50 263 6150 (2016) 0 (1934) 245 1 4 8 10 39 127 168 340 880
2025-08-02 23:30 6.50 263 6150 (2016) 0 (1934) 245 1 4 8 10 39 127 168 340 880
2025-08-02 23:00 6.50 263 6150 (2016) 0 (1934) 245 1 4 8 10 39 127 168 340 880
2025-08-02 22:30 6.50 263 10100 (1958) 0 (1934) 275 1 4 8 10 37 148 173 576 907
2025-08-02 22:00 6.50 263 10100 (1958) 0 (1934) 275 1 4 8 10 37 148 173 576 907
2025-08-02 21:30 267 10100 (1958) 0 (1934) 275 1 4 8 10 37 148 173 576 907
2025-08-02 21:00 6.51 267 10100 (1958) 0 (1934) 275 1 4 8 10 37 148 173 576 907
2025-08-02 20:30 6.51 267 10100 (1958) 0 (1934) 275 1 4 8 10 37 148 173 576 907
2025-08-02 20:00 6.51 267 10100 (1958) 0 (1934) 275 1 4 8 10 37 148 173 576 907
2025-08-02 19:30 6.52 270 10100 (1958) 0 (1934) 275 1 4 8 10 37 148 173 576 907
2025-08-02 19:00 6.52 270 10100 (1958) 0 (1934) 275 1 4 8 10 37 148 173 576 907
2025-08-02 18:30 6.53 273 10100 (1958) 0 (1934) 275 1 4 8 10 37 148 173 576 907
2025-08-02 18:00 6.52 270 10100 (1958) 0 (1934) 275 1 4 8 10 37 148 173 576 907
2025-08-02 17:30 6.49 259 10100 (1958) 0 (1934) 275 1 4 8 10 37 148 173 576 907
2025-08-02 17:00 6.48 255 10100 (1958) 0 (1934) 275 1 4 8 10 37 148 173 576 907
2025-08-02 16:30 6.48 255 10100 (1958) 0 (1934) 275 1 4 8 10 37 148 173 576 907
2025-08-02 16:00 6.51 267 10100 (1958) 0 (1934) 275 1 4 8 10 37 148 173 576 907
2025-08-02 15:30 6.50 263 10100 (1958) 0 (1934) 275 1 4 8 10 37 148 173 576 907
2025-08-02 15:00 6.53 273 10100 (1958) 0 (1934) 275 1 4 8 10 37 148 173 576 907
2025-08-02 14:30 6.51 267 10100 (1958) 0 (1934) 275 1 4 8 10 37 148 173 576 907
2025-08-02 14:00 6.50 263 10100 (1958) 0 (1934) 275 1 4 8 10 37 148 173 576 907
2025-08-02 13:30 6.50 263 10100 (1958) 0 (1934) 275 1 4 8 10 37 148 173 576 907
2025-08-02 13:00 6.51 267 10100 (1958) 0 (1934) 275 1 4 8 10 37 148 173 576 907
2025-08-02 12:30 6.52 270 10100 (1958) 0 (1934) 275 1 4 8 10 37 148 173 576 907
2025-08-02 12:00 6.52 270 10100 (1958) 0 (1934) 275 1 4 8 10 37 148 173 576 907
2025-08-02 11:30 6.54 276 10100 (1958) 0 (1934) 275 1 4 8 10 37 148 173 576 907
2025-08-02 11:00 6.55 280 10100 (1958) 0 (1934) 275 1 4 8 10 37 148 173 576 907
2025-08-02 10:30 6.57 286 10100 (1958) 0 (1934) 275 1 4 8 10 37 148 173 576 907
2025-08-02 10:00 6.57 286 10100 (1958) 0 (1934) 275 1 4 8 10 37 148 173 576 907
2025-08-02 09:30 6.54 276 10100 (1958) 0 (1934) 275 1 4 8 10 37 148 173 576 907
2025-08-02 09:00 6.58 289 10100 (1958) 0 (1934) 275 1 4 8 10 37 148 173 576 907
2025-08-02 08:30 6.58 289 10100 (1958) 0 (1934) 275 1 4 8 10 37 148 173 576 907
2025-08-02 08:00 6.59 292 10100 (1958) 0 (1934) 275 1 4 8 10 37 148 173 576 907
2025-08-02 07:30 6.59 292 10100 (1958) 0 (1934) 275 1 4 8 10 37 148 173 576 907
2025-08-02 07:00 6.60 296 10100 (1958) 0 (1934) 275 1 4 8 10 37 148 173 576 907
2025-08-02 06:30 6.60 296 10100 (1958) 0 (1934) 275 1 4 8 10 37 148 173 576 907
2025-08-02 06:00 6.60 296 10100 (1958) 0 (1934) 275 1 4 8 10 37 148 173 576 907
2025-08-02 05:30 6.60 296 10100 (1958) 0 (1934) 275 1 4 8 10 37 148 173 576 907
2025-08-02 05:00 6.61 299 10100 (1958) 0 (1934) 275 1 4 8 10 37 148 173 576 907
2025-08-02 04:30 6.61 299 10100 (1958) 0 (1934) 275 1 4 8 10 37 148 173 576 907
2025-08-02 04:00 6.61 299 10100 (1958) 0 (1934) 275 1 4 8 10 37 148 173 576 907
2025-08-02 03:30 6.62 302 10100 (1958) 0 (1934) 275 1 4 8 10 37 148 173 576 907
2025-08-02 03:00 6.62 302 10100 (1958) 0 (1934) 275 1 4 8 10 37 148 173 576 907
2025-08-02 02:30 6.62 302 10100 (1958) 0 (1934) 275 1 4 8 10 37 148 173 576 907
2025-08-02 02:00 6.63 305 10100 (1958) 0 (1934) 275 1 4 8 10 37 148 173 576 907
2025-08-02 01:30 6.63 305 10100 (1958) 0 (1934) 275 1 4 8 10 37 148 173 576 907
2025-08-02 01:00 6.63 305 10100 (1958) 0 (1934) 275 1 4 8 10 37 148 173 576 907
2025-08-02 00:30 6.63 305 10100 (1958) 0 (1934) 275 1 4 8 10 37 148 173 576 907
2025-08-02 00:00 6.63 305 10100 (1958) 0 (1934) 275 1 4 8 10 37 148 173 576 907
2025-08-01 23:30 6.64 309 10100 (1958) 0 (1934) 275 1 4 8 10 37 148 173 576 907
2025-08-01 23:00 6.65 312 10100 (1958) 0 (1934) 275 1 4 8 10 37 148 173 576 907
2025-08-01 22:30 6.65 312 20900 (1958) 0 (1934) 440 1 5 9 10 34 169 234 411 1490
2025-08-01 22:00 6.65 312 20900 (1958) 0 (1934) 440 1 5 9 10 34 169 234 411 1490
2025-08-01 21:30 6.66 315 20900 (1958) 0 (1934) 440 1 5 9 10 34 169 234 411 1490
2025-08-01 21:00 6.66 315 20900 (1958) 0 (1934) 440 1 5 9 10 34 169 234 411 1490
2025-08-01 20:30 6.66 315 20900 (1958) 0 (1934) 440 1 5 9 10 34 169 234 411 1490
2025-08-01 20:00 6.66 315 20900 (1958) 0 (1934) 440 1 5 9 10 34 169 234 411 1490
2025-08-01 19:30 6.67 319 20900 (1958) 0 (1934) 440 1 5 9 10 34 169 234 411 1490
2025-08-01 19:00 6.67 319 20900 (1958) 0 (1934) 440 1 5 9 10 34 169 234 411 1490
2025-08-01 18:30 6.68 322 20900 (1958) 0 (1934) 440 1 5 9 10 34 169 234 411 1490
2025-08-01 18:00 6.68 322 20900 (1958) 0 (1934) 440 1 5 9 10 34 169 234 411 1490
2025-08-01 17:30 6.68 322 20900 (1958) 0 (1934) 440 1 5 9 10 34 169 234 411 1490
2025-08-01 17:00 6.67 319 20900 (1958) 0 (1934) 440 1 5 9 10 34 169 234 411 1490
2025-08-01 16:30 6.63 305 20900 (1958) 0 (1934) 440 1 5 9 10 34 169 234 411 1490
2025-08-01 16:00 6.64 309 20900 (1958) 0 (1934) 440 1 5 9 10 34 169 234 411 1490
2025-08-01 15:30 6.66 315 20900 (1958) 0 (1934) 440 1 5 9 10 34 169 234 411 1490
2025-08-01 15:00 6.65 312 20900 (1958) 0 (1934) 440 1 5 9 10 34 169 234 411 1490
2025-08-01 14:30 6.62 302 20900 (1958) 0 (1934) 440 1 5 9 10 34 169 234 411 1490
2025-08-01 14:00 6.68 322 20900 (1958) 0 (1934) 440 1 5 9 10 34 169 234 411 1490
2025-08-01 13:30 6.66 315 20900 (1958) 0 (1934) 440 1 5 9 10 34 169 234 411 1490
2025-08-01 13:00 6.67 319 20900 (1958) 0 (1934) 440 1 5 9 10 34 169 234 411 1490
2025-08-01 12:30 6.69 326 20900 (1958) 0 (1934) 440 1 5 9 10 34 169 234 411 1490
2025-08-01 12:00 6.67 319 20900 (1958) 0 (1934) 440 1 5 9 10 34 169 234 411 1490
2025-08-01 11:30 6.71 333 20900 (1958) 0 (1934) 440 1 5 9 10 34 169 234 411 1490
2025-08-01 11:00 6.65 312 20900 (1958) 0 (1934) 440 1 5 9 10 34 169 234 411 1490
2025-08-01 10:30 6.70 329 20900 (1958) 0 (1934) 440 1 5 9 10 34 169 234 411 1490
2025-08-01 10:00 6.74 343 20900 (1958) 0 (1934) 440 1 5 9 10 34 169 234 411 1490
2025-08-01 09:30 6.70 329 20900 (1958) 0 (1934) 440 1 5 9 10 34 169 234 411 1490
2025-08-01 09:00 6.66 315 20900 (1958) 0 (1934) 440 1 5 9 10 34 169 234 411 1490
2025-08-01 08:30 6.68 322 20900 (1958) 0 (1934) 440 1 5 9 10 34 169 234 411 1490
2025-08-01 08:00 6.75 347 20900 (1958) 0 (1934) 440 1 5 9 10 34 169 234 411 1490
2025-08-01 07:30 6.75 347 20900 (1958) 0 (1934) 440 1 5 9 10 34 169 234 411 1490
2025-08-01 07:00 6.76 350 20900 (1958) 0 (1934) 440 1 5 9 10 34 169 234 411 1490
2025-08-01 06:30 6.76 350 20900 (1958) 0 (1934) 440 1 5 9 10 34 169 234 411 1490
2025-08-01 06:00 6.76 350 20900 (1958) 0 (1934) 440 1 5 9 10 34 169 234 411 1490
2025-08-01 05:30 6.76 350 20900 (1958) 0 (1934) 440 1 5 9 10 34 169 234 411 1490
2025-08-01 05:00 6.77 354 20900 (1958) 0 (1934) 440 1 5 9 10 34 169 234 411 1490
2025-08-01 04:30 6.77 354 20900 (1958) 0 (1934) 440 1 5 9 10 34 169 234 411 1490
2025-08-01 04:00 6.77 354 20900 (1958) 0 (1934) 440 1 5 9 10 34 169 234 411 1490
2025-08-01 03:30 6.78 358 20900 (1958) 0 (1934) 440 1 5 9 10 34 169 234 411 1490
2025-08-01 03:00 6.78 358 20900 (1958) 0 (1934) 440 1 5 9 10 34 169 234 411 1490
2025-08-01 02:30 6.79 361 20900 (1958) 0 (1934) 440 1 5 9 10 34 169 234 411 1490
2025-08-01 02:00 6.79 361 20900 (1958) 0 (1934) 440 1 5 9 10 34 169 234 411 1490
2025-08-01 01:30 6.80 365 20900 (1958) 0 (1934) 440 1 5 9 10 34 169 234 411 1490
2025-08-01 01:00 6.80 365 20900 (1958) 0 (1934) 440 1 5 9 10 34 169 234 411 1490
2025-08-01 00:30 6.80 365 20900 (1958) 0 (1934) 440 1 5 9 10 34 169 234 411 1490
2025-08-01 00:00 369 20900 (1958) 0 (1934) 440 1 5 9 10 34 169 234 411 1490
2025-07-31 23:30 6.81 369 20900 (1958) 0 (1934) 440 1 5 9 10 34 169 234 411 1490
2025-07-31 23:00 6.81 369 20900 (1958) 0 (1934) 440 1 5 9 10 34 169 234 411 1490
2025-07-31 22:30 6.82 372 14400 (2008) 0 (1954) 422 1 5 9 10 35 153 179 513 1230
2025-07-31 22:00 6.82 372 14400 (2008) 0 (1954) 422 1 5 9 10 35 153 179 513 1230
2025-07-31 21:30 6.83 376 14400 (2008) 0 (1954) 422 1 5 9 10 35 153 179 513 1230
2025-07-31 21:00 6.83 376 14400 (2008) 0 (1954) 422 1 5 9 10 35 153 179 513 1230
2025-07-31 20:30 6.83 376 14400 (2008) 0 (1954) 422 1 5 9 10 35 153 179 513 1230
2025-07-31 20:00 6.84 380 14400 (2008) 0 (1954) 422 1 5 9 10 35 153 179 513 1230
2025-07-31 19:30 6.84 380 14400 (2008) 0 (1954) 422 1 5 9 10 35 153 179 513 1230
2025-07-31 19:00 6.85 384 14400 (2008) 0 (1954) 422 1 5 9 10 35 153 179 513 1230
2025-07-31 18:30 6.85 384 14400 (2008) 0 (1954) 422 1 5 9 10 35 153 179 513 1230
2025-07-31 18:00 6.84 380 14400 (2008) 0 (1954) 422 1 5 9 10 35 153 179 513 1230
2025-07-31 17:30 6.85 384 14400 (2008) 0 (1954) 422 1 5 9 10 35 153 179 513 1230
2025-07-31 17:00 6.83 376 14400 (2008) 0 (1954) 422 1 5 9 10 35 153 179 513 1230
2025-07-31 16:30 6.82 372 14400 (2008) 0 (1954) 422 1 5 9 10 35 153 179 513 1230
2025-07-31 16:00 6.86 387 14400 (2008) 0 (1954) 422 1 5 9 10 35 153 179 513 1230
2025-07-31 15:30 6.85 384 14400 (2008) 0 (1954) 422 1 5 9 10 35 153 179 513 1230
2025-07-31 15:00 6.82 372 14400 (2008) 0 (1954) 422 1 5 9 10 35 153 179 513 1230
2025-07-31 14:30 6.85 384 14400 (2008) 0 (1954) 422 1 5 9 10 35 153 179 513 1230
2025-07-31 14:00 6.88 395 14400 (2008) 0 (1954) 422 1 5 9 10 35 153 179 513 1230
2025-07-31 13:30 6.85 384 14400 (2008) 0 (1954) 422 1 5 9 10 35 153 179 513 1230
2025-07-31 13:00 6.87 391 14400 (2008) 0 (1954) 422 1 5 9 10 35 153 179 513 1230
2025-07-31 12:30 6.88 395 14400 (2008) 0 (1954) 422 1 5 9 10 35 153 179 513 1230
2025-07-31 12:00 6.88 395 14400 (2008) 0 (1954) 422 1 5 9 10 35 153 179 513 1230
2025-07-31 11:30 6.89 399 14400 (2008) 0 (1954) 422 1 5 9 10 35 153 179 513 1230
2025-07-31 11:00 6.91 407 14400 (2008) 0 (1954) 422 1 5 9 10 35 153 179 513 1230
2025-07-31 10:30 6.90 403 14400 (2008) 0 (1954) 422 1 5 9 10 35 153 179 513 1230
2025-07-31 10:00 6.93 415 14400 (2008) 0 (1954) 422 1 5 9 10 35 153 179 513 1230
2025-07-31 09:30 6.92 411 14400 (2008) 0 (1954) 422 1 5 9 10 35 153 179 513 1230
2025-07-31 09:00 6.95 423 14400 (2008) 0 (1954) 422 1 5 9 10 35 153 179 513 1230
2025-07-31 08:30 6.96 427 14400 (2008) 0 (1954) 422 1 5 9 10 35 153 179 513 1230
2025-07-31 08:00 6.93 415 14400 (2008) 0 (1954) 422 1 5 9 10 35 153 179 513 1230
2025-07-31 07:30 6.96 427 14400 (2008) 0 (1954) 422 1 5 9 10 35 153 179 513 1230
2025-07-31 07:00 6.98 435 14400 (2008) 0 (1954) 422 1 5 9 10 35 153 179 513 1230
2025-07-31 06:30 6.98 435 14400 (2008) 0 (1954) 422 1 5 9 10 35 153 179 513 1230
2025-07-31 06:00 6.99 439 14400 (2008) 0 (1954) 422 1 5 9 10 35 153 179 513 1230
2025-07-31 05:30 6.99 439 14400 (2008) 0 (1954) 422 1 5 9 10 35 153 179 513 1230
2025-07-31 05:00 7.00 443 14400 (2008) 0 (1954) 422 1 5 9 10 35 153 179 513 1230
2025-07-31 04:30 7.00 443 14400 (2008) 0 (1954) 422 1 5 9 10 35 153 179 513 1230
2025-07-31 04:00 7.01 447 14400 (2008) 0 (1954) 422 1 5 9 10 35 153 179 513 1230
2025-07-31 03:30 7.02 451 14400 (2008) 0 (1954) 422 1 5 9 10 35 153 179 513 1230
2025-07-31 03:00 7.02 451 14400 (2008) 0 (1954) 422 1 5 9 10 35 153 179 513 1230
2025-07-31 02:30 7.03 456 14400 (2008) 0 (1954) 422 1 5 9 10 35 153 179 513 1230
2025-07-31 02:00 7.03 456 14400 (2008) 0 (1954) 422 1 5 9 10 35 153 179 513 1230
2025-07-31 01:30 7.04 460 14400 (2008) 0 (1954) 422 1 5 9 10 35 153 179 513 1230
2025-07-31 01:00 7.04 460 14400 (2008) 0 (1954) 422 1 5 9 10 35 153 179 513 1230
2025-07-31 00:30 7.05 464 14400 (2008) 0 (1954) 422 1 5 9 10 35 153 179 513 1230
2025-07-31 00:00 7.06 468 14400 (2008) 0 (1954) 422 1 5 9 10 35 153 179 513 1230
2025-07-30 23:30 7.06 468 14400 (2008) 0 (1954) 422 1 5 9 10 35 153 179 513 1230
2025-07-30 23:00 7.07 473 14400 (2008) 0 (1954) 422 1 5 9 10 35 153 179 513 1230
2025-07-30 22:30 7.07 473 6240 (2008) 0 (1954) 294 1 6 10 11 38 138 184 796 2020
2025-07-30 22:00 7.08 477 6240 (2008) 0 (1954) 294 1 6 10 11 38 138 184 796 2020
2025-07-30 21:30 7.08 477 6240 (2008) 0 (1954) 294 1 6 10 11 38 138 184 796 2020
2025-07-30 21:00 7.09 481 6240 (2008) 0 (1954) 294 1 6 10 11 38 138 184 796 2020
2025-07-30 20:30 7.09 481 6240 (2008) 0 (1954) 294 1 6 10 11 38 138 184 796 2020
2025-07-30 20:00 7.10 486 6240 (2008) 0 (1954) 294 1 6 10 11 38 138 184 796 2020
2025-07-30 19:30 7.10 486 6240 (2008) 0 (1954) 294 1 6 10 11 38 138 184 796 2020
2025-07-30 19:00 7.11 490 6240 (2008) 0 (1954) 294 1 6 10 11 38 138 184 796 2020
2025-07-30 18:30 7.12 494 6240 (2008) 0 (1954) 294 1 6 10 11 38 138 184 796 2020
2025-07-30 18:00 7.12 494 6240 (2008) 0 (1954) 294 1 6 10 11 38 138 184 796 2020
2025-07-30 17:30 7.13 499 6240 (2008) 0 (1954) 294 1 6 10 11 38 138 184 796 2020
2025-07-30 17:00 7.14 503 6240 (2008) 0 (1954) 294 1 6 10 11 38 138 184 796 2020
2025-07-30 16:30 7.15 508 6240 (2008) 0 (1954) 294 1 6 10 11 38 138 184 796 2020
2025-07-30 16:00 7.16 512 6240 (2008) 0 (1954) 294 1 6 10 11 38 138 184 796 2020
2025-07-30 15:30 7.17 517 6240 (2008) 0 (1954) 294 1 6 10 11 38 138 184 796 2020
2025-07-30 15:00 521 6240 (2008) 0 (1954) 294 1 6 10 11 38 138 184 796 2020
2025-07-30 14:00 531 6240 (2008) 0 (1954) 294 1 6 10 11 38 138 184 796 2020
2025-07-30 13:30 7.21 535 6240 (2008) 0 (1954) 294 1 6 10 11 38 138 184 796 2020
2025-07-30 13:00 535 6240 (2008) 0 (1954) 294 1 6 10 11 38 138 184 796 2020
2025-07-30 11:30 7.20 6240 (2008) 0 (1954) 294 1 6 10 11 38 138 184 796 2020
2025-07-30 11:00 7.21 535 6240 (2008) 0 (1954) 294 1 6 10 11 38 138 184 796 2020
2025-07-30 10:30 7.24 549 6240 (2008) 0 (1954) 294 1 6 10 11 38 138 184 796 2020
2025-07-30 10:00 7.25 554 6240 (2008) 0 (1954) 294 1 6 10 11 38 138 184 796 2020
2025-07-30 09:30 7.26 559 6240 (2008) 0 (1954) 294 1 6 10 11 38 138 184 796 2020
2025-07-30 08:30 568 6240 (2008) 0 (1954) 294 1 6 10 11 38 138 184 796 2020
2025-07-30 07:00 7.32 588 6240 (2008) 0 (1954) 294 1 6 10 11 38 138 184 796 2020
2025-07-30 06:30 7.32 588 6240 (2008) 0 (1954) 294 1 6 10 11 38 138 184 796 2020
2025-07-30 06:00 7.33 592 6240 (2008) 0 (1954) 294 1 6 10 11 38 138 184 796 2020
2025-07-30 05:30 7.35 602 6240 (2008) 0 (1954) 294 1 6 10 11 38 138 184 796 2020
2025-07-30 05:00 7.35 602 6240 (2008) 0 (1954) 294 1 6 10 11 38 138 184 796 2020
2025-07-30 04:30 7.36 607 6240 (2008) 0 (1954) 294 1 6 10 11 38 138 184 796 2020
2025-07-30 04:00 7.38 617 6240 (2008) 0 (1954) 294 1 6 10 11 38 138 184 796 2020
2025-07-30 03:30 7.39 622 6240 (2008) 0 (1954) 294 1 6 10 11 38 138 184 796 2020
2025-07-30 03:00 7.40 627 6240 (2008) 0 (1954) 294 1 6 10 11 38 138 184 796 2020
2025-07-30 02:30 7.41 633 6240 (2008) 0 (1954) 294 1 6 10 11 38 138 184 796 2020
2025-07-30 02:00 7.42 638 6240 (2008) 0 (1954) 294 1 6 10 11 38 138 184 796 2020
2025-07-30 01:30 7.43 643 6240 (2008) 0 (1954) 294 1 6 10 11 38 138 184 796 2020
2025-07-30 01:00 7.45 653 6240 (2008) 0 (1954) 294 1 6 10 11 38 138 184 796 2020
2025-07-30 00:30 7.46 658 6240 (2008) 0 (1954) 294 1 6 10 11 38 138 184 796 2020
2025-07-30 00:00 7.47 664 6240 (2008) 0 (1954) 294 1 6 10 11 38 138 184 796 2020
2025-07-29 23:30 7.48 669 6240 (2008) 0 (1954) 294 1 6 10 11 38 138 184 796 2020
2025-07-29 23:00 7.49 674 6240 (2008) 0 (1954) 294 1 6 10 11 38 138 184 796 2020
2025-07-29 22:30 7.51 685 10300 (1981) 0 (1954) 457 2 5 10 12 44 155 223 603 2390
2025-07-29 22:00 7.52 690 10300 (1981) 0 (1954) 457 2 5 10 12 44 155 223 603 2390
2025-07-29 21:30 7.54 701 10300 (1981) 0 (1954) 457 2 5 10 12 44 155 223 603 2390
2025-07-29 21:00 7.55 706 10300 (1981) 0 (1954) 457 2 5 10 12 44 155 223 603 2390
2025-07-29 20:30 7.56 712 10300 (1981) 0 (1954) 457 2 5 10 12 44 155 223 603 2390
2025-07-29 20:00 7.58 723 10300 (1981) 0 (1954) 457 2 5 10 12 44 155 223 603 2390
2025-07-29 19:30 7.59 729 10300 (1981) 0 (1954) 457 2 5 10 12 44 155 223 603 2390
2025-07-29 19:00 7.60 734 10300 (1981) 0 (1954) 457 2 5 10 12 44 155 223 603 2390
2025-07-29 18:30 7.62 745 10300 (1981) 0 (1954) 457 2 5 10 12 44 155 223 603 2390
2025-07-29 18:00 7.64 757 10300 (1981) 0 (1954) 457 2 5 10 12 44 155 223 603 2390
2025-07-29 17:30 7.65 762 10300 (1981) 0 (1954) 457 2 5 10 12 44 155 223 603 2390
2025-07-29 17:00 7.67 774 10300 (1981) 0 (1954) 457 2 5 10 12 44 155 223 603 2390
2025-07-29 16:30 7.69 785 10300 (1981) 0 (1954) 457 2 5 10 12 44 155 223 603 2390
2025-07-29 16:00 7.71 797 10300 (1981) 0 (1954) 457 2 5 10 12 44 155 223 603 2390
2025-07-29 15:30 7.72 803 10300 (1981) 0 (1954) 457 2 5 10 12 44 155 223 603 2390
2025-07-29 15:00 7.74 815 10300 (1981) 0 (1954) 457 2 5 10 12 44 155 223 603 2390
2025-07-29 14:30 7.76 827 10300 (1981) 0 (1954) 457 2 5 10 12 44 155 223 603 2390
2025-07-29 14:00 7.77 833 10300 (1981) 0 (1954) 457 2 5 10 12 44 155 223 603 2390
2025-07-29 13:30 7.80 851 10300 (1981) 0 (1954) 457 2 5 10 12 44 155 223 603 2390
2025-07-29 13:00 7.81 857 10300 (1981) 0 (1954) 457 2 5 10 12 44 155 223 603 2390
2025-07-29 12:30 7.83 869 10300 (1981) 0 (1954) 457 2 5 10 12 44 155 223 603 2390
2025-07-29 12:00 7.86 888 10300 (1981) 0 (1954) 457 2 5 10 12 44 155 223 603 2390
2025-07-29 11:30 7.86 888 10300 (1981) 0 (1954) 457 2 5 10 12 44 155 223 603 2390
2025-07-29 11:00 7.88 900 10300 (1981) 0 (1954) 457 2 5 10 12 44 155 223 603 2390
2025-07-29 10:30 7.90 913 10300 (1981) 0 (1954) 457 2 5 10 12 44 155 223 603 2390
2025-07-29 10:00 7.92 926 10300 (1981) 0 (1954) 457 2 5 10 12 44 155 223 603 2390
2025-07-29 09:30 7.95 945 10300 (1981) 0 (1954) 457 2 5 10 12 44 155 223 603 2390
2025-07-29 09:00 7.97 958 10300 (1981) 0 (1954) 457 2 5 10 12 44 155 223 603 2390
2025-07-29 08:30 7.98 965 10300 (1981) 0 (1954) 457 2 5 10 12 44 155 223 603 2390
2025-07-29 08:00 8.01 984 10300 (1981) 0 (1954) 457 2 5 10 12 44 155 223 603 2390
2025-07-29 07:30 8.00 978 10300 (1981) 0 (1954) 457 2 5 10 12 44 155 223 603 2390
2025-07-29 07:00 8.02 991 10300 (1981) 0 (1954) 457 2 5 10 12 44 155 223 603 2390
2025-07-29 06:30 8.08 1030 10300 (1981) 0 (1954) 457 2 5 10 12 44 155 223 603 2390
2025-07-29 06:00 8.10 1050 10300 (1981) 0 (1954) 457 2 5 10 12 44 155 223 603 2390
2025-07-29 05:30 8.12 1060 10300 (1981) 0 (1954) 457 2 5 10 12 44 155 223 603 2390
2025-07-29 05:00 8.15 1080 10300 (1981) 0 (1954) 457 2 5 10 12 44 155 223 603 2390
2025-07-29 04:30 8.17 1090 10300 (1981) 0 (1954) 457 2 5 10 12 44 155 223 603 2390
2025-07-29 04:00 8.20 1120 10300 (1981) 0 (1954) 457 2 5 10 12 44 155 223 603 2390
2025-07-29 03:30 8.22 1130 10300 (1981) 0 (1954) 457 2 5 10 12 44 155 223 603 2390
2025-07-29 03:00 8.24 1140 10300 (1981) 0 (1954) 457 2 5 10 12 44 155 223 603 2390
2025-07-29 02:30 8.26 1160 10300 (1981) 0 (1954) 457 2 5 10 12 44 155 223 603 2390
2025-07-29 02:00 8.30 1190 10300 (1981) 0 (1954) 457 2 5 10 12 44 155 223 603 2390
2025-07-29 01:30 8.32 1200 10300 (1981) 0 (1954) 457 2 5 10 12 44 155 223 603 2390
2025-07-29 01:00 8.35 1230 10300 (1981) 0 (1954) 457 2 5 10 12 44 155 223 603 2390
2025-07-29 00:30 8.37 1240 10300 (1981) 0 (1954) 457 2 5 10 12 44 155 223 603 2390
2025-07-29 00:00 8.40 1260 10300 (1981) 0 (1954) 457 2 5 10 12 44 155 223 603 2390
2025-07-28 23:30 8.43 1290 10300 (1981) 0 (1954) 457 2 5 10 12 44 155 223 603 2390
2025-07-28 23:00 8.45 1300 10300 (1981) 0 (1954) 457 2 5 10 12 44 155 223 603 2390
2025-07-28 22:30 8.49 1330 19700 (1981) 0 (1934) 605 1 5 11 13 39 177 245 861 2670
2025-07-28 22:00 8.53 1370 19700 (1981) 0 (1934) 605 1 5 11 13 39 177 245 861 2670
2025-07-28 21:30 8.54 1370 19700 (1981) 0 (1934) 605 1 5 11 13 39 177 245 861 2670
2025-07-28 21:00 8.59 1420 19700 (1981) 0 (1934) 605 1 5 11 13 39 177 245 861 2670
2025-07-28 20:30 8.62 1440 19700 (1981) 0 (1934) 605 1 5 11 13 39 177 245 861 2670
2025-07-28 20:00 8.66 1470 19700 (1981) 0 (1934) 605 1 5 11 13 39 177 245 861 2670
2025-07-28 19:30 8.70 1510 19700 (1981) 0 (1934) 605 1 5 11 13 39 177 245 861 2670
2025-07-28 19:00 8.73 1530 19700 (1981) 0 (1934) 605 1 5 11 13 39 177 245 861 2670
2025-07-28 18:30 8.77 1570 19700 (1981) 0 (1934) 605 1 5 11 13 39 177 245 861 2670
2025-07-28 18:00 8.81 1600 19700 (1981) 0 (1934) 605 1 5 11 13 39 177 245 861 2670
2025-07-28 17:30 8.85 1640 19700 (1981) 0 (1934) 605 1 5 11 13 39 177 245 861 2670
2025-07-28 17:00 8.89 1680 19700 (1981) 0 (1934) 605 1 5 11 13 39 177 245 861 2670
2025-07-28 16:30 8.92 1700 19700 (1981) 0 (1934) 605 1 5 11 13 39 177 245 861 2670
2025-07-28 16:00 8.97 1750 19700 (1981) 0 (1934) 605 1 5 11 13 39 177 245 861 2670
2025-07-28 15:30 9.02 1800 19700 (1981) 0 (1934) 605 1 5 11 13 39 177 245 861 2670
2025-07-28 15:00 9.06 1830 19700 (1981) 0 (1934) 605 1 5 11 13 39 177 245 861 2670
2025-07-28 14:30 9.12 1890 19700 (1981) 0 (1934) 605 1 5 11 13 39 177 245 861 2670
2025-07-28 14:00 9.16 1930 19700 (1981) 0 (1934) 605 1 5 11 13 39 177 245 861 2670
2025-07-28 13:30 9.21 1980 19700 (1981) 0 (1934) 605 1 5 11 13 39 177 245 861 2670
2025-07-28 13:00 9.25 2020 19700 (1981) 0 (1934) 605 1 5 11 13 39 177 245 861 2670
2025-07-28 12:30 9.32 2080 19700 (1981) 0 (1934) 605 1 5 11 13 39 177 245 861 2670
2025-07-28 12:00 9.37 2110 19700 (1981) 0 (1934) 605 1 5 11 13 39 177 245 861 2670
2025-07-28 11:30 9.42 2140 19700 (1981) 0 (1934) 605 1 5 11 13 39 177 245 861 2670
2025-07-28 11:00 9.48 2180 19700 (1981) 0 (1934) 605 1 5 11 13 39 177 245 861 2670
2025-07-28 10:30 9.52 2200 19700 (1981) 0 (1934) 605 1 5 11 13 39 177 245 861 2670
2025-07-28 10:00 9.61 2260 19700 (1981) 0 (1934) 605 1 5 11 13 39 177 245 861 2670
2025-07-28 09:30 9.72 2330 19700 (1981) 0 (1934) 605 1 5 11 13 39 177 245 861 2670
2025-07-28 09:00 9.83 2400 19700 (1981) 0 (1934) 605 1 5 11 13 39 177 245 861 2670
2025-07-28 08:30 9.99 2500 19700 (1981) 0 (1934) 605 1 5 11 13 39 177 245 861 2670
2025-07-28 08:00 10.18 2630 19700 (1981) 0 (1934) 605 1 5 11 13 39 177 245 861 2670
2025-07-28 07:30 10.48 2830 19700 (1981) 0 (1934) 605 1 5 11 13 39 177 245 861 2670
2025-07-28 07:00 10.85 3080 19700 (1981) 0 (1934) 605 1 5 11 13 39 177 245 861 2670
2025-07-28 06:30 11.33 3420 19700 (1981) 0 (1934) 605 1 5 11 13 39 177 245 861 2670
2025-07-28 06:00 11.91 3850 19700 (1981) 0 (1934) 605 1 5 11 13 39 177 245 861 2670
2025-07-28 05:30 12.54 4330 19700 (1981) 0 (1934) 605 1 5 11 13 39 177 245 861 2670
2025-07-28 05:00 13.20 4850 19700 (1981) 0 (1934) 605 1 5 11 13 39 177 245 861 2670
2025-07-28 04:30 13.91 5430 19700 (1981) 0 (1934) 605 1 5 11 13 39 177 245 861 2670
2025-07-28 04:00 14.68 6090 19700 (1981) 0 (1934) 605 1 5 11 13 39 177 245 861 2670
2025-07-28 03:30 15.47 6780 19700 (1981) 0 (1934) 605 1 5 11 13 39 177 245 861 2670
2025-07-28 03:00 16.20 7440 19700 (1981) 0 (1934) 605 1 5 11 13 39 177 245 861 2670
2025-07-28 02:30 16.89 8090 19700 (1981) 0 (1934) 605 1 5 11 13 39 177 245 861 2670
2025-07-28 02:00 17.44 8610 19700 (1981) 0 (1934) 605 1 5 11 13 39 177 245 861 2670
2025-07-28 01:30 17.90 9060 19700 (1981) 0 (1934) 605 1 5 11 13 39 177 245 861 2670
2025-07-28 01:00 18.17 9320 19700 (1981) 0 (1934) 605 1 5 11 13 39 177 245 861 2670
2025-07-28 00:30 18.36 9510 19700 (1981) 0 (1934) 605 1 5 11 13 39 177 245 861 2670
2025-07-28 00:00 18.45 9600 19700 (1981) 0 (1934) 605 1 5 11 13 39 177 245 861 2670
2025-07-27 23:30 18.54 9690 19700 (1981) 0 (1934) 605 1 5 11 13 39 177 245 861 2670
2025-07-27 23:00 18.53 9680 19700 (1981) 0 (1934) 605 1 5 11 13 39 177 245 861 2670
2025-07-27 22:30 18.51 9660 17600 (2022) 0 (1936) 670 1 6 12 15 41 176 287 687 3510
2025-07-27 22:00 18.47 9620 17600 (2022) 0 (1936) 670 1 6 12 15 41 176 287 687 3510
2025-07-27 21:30 18.41 9560 17600 (2022) 0 (1936) 670 1 6 12 15 41 176 287 687 3510
2025-07-27 21:00 18.37 9520 17600 (2022) 0 (1936) 670 1 6 12 15 41 176 287 687 3510
2025-07-27 20:30 18.30 9450 17600 (2022) 0 (1936) 670 1 6 12 15 41 176 287 687 3510
2025-07-27 20:00 18.21 9360 17600 (2022) 0 (1936) 670 1 6 12 15 41 176 287 687 3510
2025-07-27 19:30 18.10 9250 17600 (2022) 0 (1936) 670 1 6 12 15 41 176 287 687 3510
2025-07-27 19:00 18.01 9160 17600 (2022) 0 (1936) 670 1 6 12 15 41 176 287 687 3510
2025-07-27 18:30 17.94 9100 17600 (2022) 0 (1936) 670 1 6 12 15 41 176 287 687 3510
2025-07-27 18:00 17.82 8980 17600 (2022) 0 (1936) 670 1 6 12 15 41 176 287 687 3510
2025-07-27 17:30 17.68 8840 17600 (2022) 0 (1936) 670 1 6 12 15 41 176 287 687 3510
2025-07-27 17:00 17.63 8790 17600 (2022) 0 (1936) 670 1 6 12 15 41 176 287 687 3510
2025-07-27 16:30 17.55 8720 17600 (2022) 0 (1936) 670 1 6 12 15 41 176 287 687 3510
2025-07-27 16:00 17.48 8650 17600 (2022) 0 (1936) 670 1 6 12 15 41 176 287 687 3510
2025-07-27 15:30 17.38 8550 17600 (2022) 0 (1936) 670 1 6 12 15 41 176 287 687 3510
2025-07-27 15:00 17.29 8470 17600 (2022) 0 (1936) 670 1 6 12 15 41 176 287 687 3510
2025-07-27 14:30 17.21 8390 17600 (2022) 0 (1936) 670 1 6 12 15 41 176 287 687 3510
2025-07-27 14:00 17.11 8290 17600 (2022) 0 (1936) 670 1 6 12 15 41 176 287 687 3510
2025-07-27 13:30 17.02 8210 17600 (2022) 0 (1936) 670 1 6 12 15 41 176 287 687 3510
2025-07-27 13:00 16.96 8150 17600 (2022) 0 (1936) 670 1 6 12 15 41 176 287 687 3510
2025-07-27 12:30 16.84 8040 17600 (2022) 0 (1936) 670 1 6 12 15 41 176 287 687 3510
2025-07-27 12:00 16.73 7930 17600 (2022) 0 (1936) 670 1 6 12 15 41 176 287 687 3510
2025-07-27 11:30 16.62 7830 17600 (2022) 0 (1936) 670 1 6 12 15 41 176 287 687 3510
2025-07-27 11:00 16.53 7750 17600 (2022) 0 (1936) 670 1 6 12 15 41 176 287 687 3510
2025-07-27 10:30 16.41 7640 17600 (2022) 0 (1936) 670 1 6 12 15 41 176 287 687 3510
2025-07-27 10:00 16.26 7500 17600 (2022) 0 (1936) 670 1 6 12 15 41 176 287 687 3510
2025-07-27 09:30 16.10 7350 17600 (2022) 0 (1936) 670 1 6 12 15 41 176 287 687 3510
2025-07-27 09:00 15.96 7220 17600 (2022) 0 (1936) 670 1 6 12 15 41 176 287 687 3510
2025-07-27 08:30 15.75 7030 17600 (2022) 0 (1936) 670 1 6 12 15 41 176 287 687 3510
2025-07-27 08:00 15.57 6870 17600 (2022) 0 (1936) 670 1 6 12 15 41 176 287 687 3510
2025-07-27 07:30 15.39 6710 17600 (2022) 0 (1936) 670 1 6 12 15 41 176 287 687 3510
2025-07-27 07:00 15.25 6580 17600 (2022) 0 (1936) 670 1 6 12 15 41 176 287 687 3510
2025-07-27 06:30 15.12 6470 17600 (2022) 0 (1936) 670 1 6 12 15 41 176 287 687 3510
2025-07-27 06:00 15.00 6360 17600 (2022) 0 (1936) 670 1 6 12 15 41 176 287 687 3510
2025-07-27 05:30 14.84 6220 17600 (2022) 0 (1936) 670 1 6 12 15 41 176 287 687 3510
2025-07-27 05:00 14.63 6040 17600 (2022) 0 (1936) 670 1 6 12 15 41 176 287 687 3510
2025-07-27 04:30 14.32 5780 17600 (2022) 0 (1936) 670 1 6 12 15 41 176 287 687 3510
2025-07-27 04:00 13.88 5410 17600 (2022) 0 (1936) 670 1 6 12 15 41 176 287 687 3510
2025-07-27 03:30 13.14 4800 17600 (2022) 0 (1936) 670 1 6 12 15 41 176 287 687 3510
2025-07-27 03:00 12.01 3920 17600 (2022) 0 (1936) 670 1 6 12 15 41 176 287 687 3510
2025-07-27 02:30 10.49 2840 17600 (2022) 0 (1936) 670 1 6 12 15 41 176 287 687 3510
2025-07-27 02:00 8.85 1640 17600 (2022) 0 (1936) 670 1 6 12 15 41 176 287 687 3510
2025-07-27 01:30 8.04 1000 17600 (2022) 0 (1936) 670 1 6 12 15 41 176 287 687 3510
2025-07-27 01:00 7.70 791 17600 (2022) 0 (1936) 670 1 6 12 15 41 176 287 687 3510
2025-07-27 00:30 7.53 696 17600 (2022) 0 (1936) 670 1 6 12 15 41 176 287 687 3510
2025-07-27 00:00 7.45 653 17600 (2022) 0 (1936) 670 1 6 12 15 41 176 287 687 3510
2025-07-26 23:30 7.49 674 17600 (2022) 0 (1936) 670 1 6 12 15 41 176 287 687 3510
2025-07-26 23:00 7.47 664 17600 (2022) 0 (1936) 670 1 6 12 15 41 176 287 687 3510
2025-07-26 22:30 7.44 648 17700 (2008) 0 (1934) 808 1 6 13 16 42 199 272 848 5260
2025-07-26 22:00 7.38 617 17700 (2008) 0 (1934) 808 1 6 13 16 42 199 272 848 5260
2025-07-26 21:30 7.33 592 17700 (2008) 0 (1934) 808 1 6 13 16 42 199 272 848 5260
2025-07-26 21:00 7.29 573 17700 (2008) 0 (1934) 808 1 6 13 16 42 199 272 848 5260
2025-07-26 20:30 7.28 568 17700 (2008) 0 (1934) 808 1 6 13 16 42 199 272 848 5260
2025-07-26 20:00 7.27 563 17700 (2008) 0 (1934) 808 1 6 13 16 42 199 272 848 5260
2025-07-26 19:30 7.28 568 17700 (2008) 0 (1934) 808 1 6 13 16 42 199 272 848 5260
2025-07-26 19:00 7.30 578 17700 (2008) 0 (1934) 808 1 6 13 16 42 199 272 848 5260
2025-07-26 18:30 7.31 583 17700 (2008) 0 (1934) 808 1 6 13 16 42 199 272 848 5260
2025-07-26 18:00 7.33 592 17700 (2008) 0 (1934) 808 1 6 13 16 42 199 272 848 5260
2025-07-26 17:30 7.35 602 17700 (2008) 0 (1934) 808 1 6 13 16 42 199 272 848 5260
2025-07-26 17:00 7.36 607 17700 (2008) 0 (1934) 808 1 6 13 16 42 199 272 848 5260
2025-07-26 16:30 7.38 617 17700 (2008) 0 (1934) 808 1 6 13 16 42 199 272 848 5260
2025-07-26 16:00 7.33 592 17700 (2008) 0 (1934) 808 1 6 13 16 42 199 272 848 5260
2025-07-26 15:30 7.40 627 17700 (2008) 0 (1934) 808 1 6 13 16 42 199 272 848 5260
2025-07-26 15:00 7.42 638 17700 (2008) 0 (1934) 808 1 6 13 16 42 199 272 848 5260
2025-07-26 14:30 7.45 653 17700 (2008) 0 (1934) 808 1 6 13 16 42 199 272 848 5260
2025-07-26 14:00 7.48 669 17700 (2008) 0 (1934) 808 1 6 13 16 42 199 272 848 5260
2025-07-26 13:30 7.50 680 17700 (2008) 0 (1934) 808 1 6 13 16 42 199 272 848 5260
2025-07-26 13:00 7.53 696 17700 (2008) 0 (1934) 808 1 6 13 16 42 199 272 848 5260
2025-07-26 12:30 7.56 712 17700 (2008) 0 (1934) 808 1 6 13 16 42 199 272 848 5260
2025-07-26 12:00 7.59 729 17700 (2008) 0 (1934) 808 1 6 13 16 42 199 272 848 5260
2025-07-26 11:30 7.63 751 17700 (2008) 0 (1934) 808 1 6 13 16 42 199 272 848 5260
2025-07-26 11:00 7.66 768 17700 (2008) 0 (1934) 808 1 6 13 16 42 199 272 848 5260
2025-07-26 10:30 7.70 791 17700 (2008) 0 (1934) 808 1 6 13 16 42 199 272 848 5260
2025-07-26 10:00 7.74 815 17700 (2008) 0 (1934) 808 1 6 13 16 42 199 272 848 5260
2025-07-26 09:30 7.77 833 17700 (2008) 0 (1934) 808 1 6 13 16 42 199 272 848 5260
2025-07-26 09:00 7.81 857 17700 (2008) 0 (1934) 808 1 6 13 16 42 199 272 848 5260
2025-07-26 08:30 7.86 888 17700 (2008) 0 (1934) 808 1 6 13 16 42 199 272 848 5260
2025-07-26 08:00 7.90 913 17700 (2008) 0 (1934) 808 1 6 13 16 42 199 272 848 5260
2025-07-26 07:30 7.95 945 17700 (2008) 0 (1934) 808 1 6 13 16 42 199 272 848 5260
2025-07-26 07:00 8.01 984 17700 (2008) 0 (1934) 808 1 6 13 16 42 199 272 848 5260
2025-07-26 06:30 8.05 1010 17700 (2008) 0 (1934) 808 1 6 13 16 42 199 272 848 5260
2025-07-26 06:00 8.11 1050 17700 (2008) 0 (1934) 808 1 6 13 16 42 199 272 848 5260
2025-07-26 05:30 8.16 1090 17700 (2008) 0 (1934) 808 1 6 13 16 42 199 272 848 5260
2025-07-26 05:00 8.23 1140 17700 (2008) 0 (1934) 808 1 6 13 16 42 199 272 848 5260
2025-07-26 04:30 8.29 1180 17700 (2008) 0 (1934) 808 1 6 13 16 42 199 272 848 5260
2025-07-26 04:00 8.35 1230 17700 (2008) 0 (1934) 808 1 6 13 16 42 199 272 848 5260
2025-07-26 03:30 8.42 1280 17700 (2008) 0 (1934) 808 1 6 13 16 42 199 272 848 5260
2025-07-26 03:00 8.49 1330 17700 (2008) 0 (1934) 808 1 6 13 16 42 199 272 848 5260
2025-07-26 02:30 8.55 1380 17700 (2008) 0 (1934) 808 1 6 13 16 42 199 272 848 5260
2025-07-26 02:00 8.61 1430 17700 (2008) 0 (1934) 808 1 6 13 16 42 199 272 848 5260
2025-07-26 01:30 8.68 1490 17700 (2008) 0 (1934) 808 1 6 13 16 42 199 272 848 5260
2025-07-26 01:00 8.73 1530 17700 (2008) 0 (1934) 808 1 6 13 16 42 199 272 848 5260
2025-07-26 00:30 8.77 1570 17700 (2008) 0 (1934) 808 1 6 13 16 42 199 272 848 5260
2025-07-26 00:00 8.80 1590 17700 (2008) 0 (1934) 808 1 6 13 16 42 199 272 848 5260
2025-07-25 23:30 8.81 1600 17700 (2008) 0 (1934) 808 1 6 13 16 42 199 272 848 5260
2025-07-25 23:00 8.75 1550 17700 (2008) 0 (1934) 808 1 6 13 16 42 199 272 848 5260
2025-07-25 22:30 8.63 1450 10000 (1981) 0 (1954) 489 1 7 11 15 38 169 378 867 3010
2025-07-25 22:00 8.37 1240 10000 (1981) 0 (1954) 489 1 7 11 15 38 169 378 867 3010
2025-07-25 21:30 7.88 900 10000 (1981) 0 (1954) 489 1 7 11 15 38 169 378 867 3010
2025-07-25 21:00 7.33 592 10000 (1981) 0 (1954) 489 1 7 11 15 38 169 378 867 3010
2025-07-25 20:30 7.08 477 10000 (1981) 0 (1954) 489 1 7 11 15 38 169 378 867 3010
2025-07-25 20:00 7.05 464 10000 (1981) 0 (1954) 489 1 7 11 15 38 169 378 867 3010
2025-07-25 19:30 7.05 464 10000 (1981) 0 (1954) 489 1 7 11 15 38 169 378 867 3010
2025-07-25 19:00 7.06 468 10000 (1981) 0 (1954) 489 1 7 11 15 38 169 378 867 3010
2025-07-25 18:30 7.07 473 10000 (1981) 0 (1954) 489 1 7 11 15 38 169 378 867 3010
2025-07-25 18:00 7.08 477 10000 (1981) 0 (1954) 489 1 7 11 15 38 169 378 867 3010
2025-07-25 17:30 7.09 481 10000 (1981) 0 (1954) 489 1 7 11 15 38 169 378 867 3010
2025-07-25 17:00 7.10 486 10000 (1981) 0 (1954) 489 1 7 11 15 38 169 378 867 3010
2025-07-25 16:30 7.10 486 10000 (1981) 0 (1954) 489 1 7 11 15 38 169 378 867 3010
2025-07-25 16:00 7.11 490 10000 (1981) 0 (1954) 489 1 7 11 15 38 169 378 867 3010
2025-07-25 15:30 7.12 494 10000 (1981) 0 (1954) 489 1 7 11 15 38 169 378 867 3010
2025-07-25 15:00 7.13 499 10000 (1981) 0 (1954) 489 1 7 11 15 38 169 378 867 3010
2025-07-25 14:30 7.14 503 10000 (1981) 0 (1954) 489 1 7 11 15 38 169 378 867 3010
2025-07-25 14:00 7.14 503 10000 (1981) 0 (1954) 489 1 7 11 15 38 169 378 867 3010
2025-07-25 13:30 7.16 512 10000 (1981) 0 (1954) 489 1 7 11 15 38 169 378 867 3010
2025-07-25 13:00 7.16 512 10000 (1981) 0 (1954) 489 1 7 11 15 38 169 378 867 3010
2025-07-25 12:30 7.18 521 10000 (1981) 0 (1954) 489 1 7 11 15 38 169 378 867 3010
2025-07-25 12:00 7.18 521 10000 (1981) 0 (1954) 489 1 7 11 15 38 169 378 867 3010
2025-07-25 11:30 7.18 521 10000 (1981) 0 (1954) 489 1 7 11 15 38 169 378 867 3010
2025-07-25 11:00 7.19 526 10000 (1981) 0 (1954) 489 1 7 11 15 38 169 378 867 3010
2025-07-25 10:30 531 10000 (1981) 0 (1954) 489 1 7 11 15 38 169 378 867 3010
2025-07-25 10:00 7.22 540 10000 (1981) 0 (1954) 489 1 7 11 15 38 169 378 867 3010
2025-07-25 09:30 7.20 531 10000 (1981) 0 (1954) 489 1 7 11 15 38 169 378 867 3010
2025-07-25 09:00 7.23 544 10000 (1981) 0 (1954) 489 1 7 11 15 38 169 378 867 3010
2025-07-25 08:30 7.25 554 10000 (1981) 0 (1954) 489 1 7 11 15 38 169 378 867 3010
2025-07-25 08:00 7.26 559 10000 (1981) 0 (1954) 489 1 7 11 15 38 169 378 867 3010
2025-07-25 07:30 7.27 563 10000 (1981) 0 (1954) 489 1 7 11 15 38 169 378 867 3010
2025-07-25 07:00 7.28 568 10000 (1981) 0 (1954) 489 1 7 11 15 38 169 378 867 3010
2025-07-25 06:30 7.29 573 10000 (1981) 0 (1954) 489 1 7 11 15 38 169 378 867 3010
2025-07-25 06:00 7.31 583 10000 (1981) 0 (1954) 489 1 7 11 15 38 169 378 867 3010
2025-07-25 05:30 7.31 583 10000 (1981) 0 (1954) 489 1 7 11 15 38 169 378 867 3010
2025-07-25 05:00 7.33 592 10000 (1981) 0 (1954) 489 1 7 11 15 38 169 378 867 3010
2025-07-25 04:30 7.34 597 10000 (1981) 0 (1954) 489 1 7 11 15 38 169 378 867 3010
2025-07-25 04:00 7.35 602 10000 (1981) 0 (1954) 489 1 7 11 15 38 169 378 867 3010
2025-07-25 03:30 7.36 607 10000 (1981) 0 (1954) 489 1 7 11 15 38 169 378 867 3010
2025-07-25 03:00 7.37 612 10000 (1981) 0 (1954) 489 1 7 11 15 38 169 378 867 3010
2025-07-25 02:30 7.39 622 10000 (1981) 0 (1954) 489 1 7 11 15 38 169 378 867 3010
2025-07-25 02:00 7.40 627 10000 (1981) 0 (1954) 489 1 7 11 15 38 169 378 867 3010
2025-07-25 01:30 7.41 633 10000 (1981) 0 (1954) 489 1 7 11 15 38 169 378 867 3010
2025-07-25 01:00 7.43 643 10000 (1981) 0 (1954) 489 1 7 11 15 38 169 378 867 3010
2025-07-25 00:30 7.44 648 10000 (1981) 0 (1954) 489 1 7 11 15 38 169 378 867 3010
2025-07-25 00:00 7.45 653 10000 (1981) 0 (1954) 489 1 7 11 15 38 169 378 867 3010
2025-07-24 23:30 7.47 664 10000 (1981) 0 (1954) 489 1 7 11 15 38 169 378 867 3010
2025-07-24 23:00 7.48 669 10000 (1981) 0 (1954) 489 1 7 11 15 38 169 378 867 3010
2025-07-24 22:30 7.50 680 19600 (1981) 0 (1954) 535 1 8 12 16 47 203 317 935 3050
2025-07-24 22:00 7.52 690 19600 (1981) 0 (1954) 535 1 8 12 16 47 203 317 935 3050
2025-07-24 21:30 7.53 696 19600 (1981) 0 (1954) 535 1 8 12 16 47 203 317 935 3050
2025-07-24 21:00 7.55 706 19600 (1981) 0 (1954) 535 1 8 12 16 47 203 317 935 3050
2025-07-24 20:30 7.56 712 19600 (1981) 0 (1954) 535 1 8 12 16 47 203 317 935 3050
2025-07-24 20:00 7.58 723 19600 (1981) 0 (1954) 535 1 8 12 16 47 203 317 935 3050
2025-07-24 19:30 7.59 729 19600 (1981) 0 (1954) 535 1 8 12 16 47 203 317 935 3050
2025-07-24 19:00 7.61 740 19600 (1981) 0 (1954) 535 1 8 12 16 47 203 317 935 3050
2025-07-24 18:30 7.63 751 19600 (1981) 0 (1954) 535 1 8 12 16 47 203 317 935 3050
2025-07-24 18:00 7.65 762 19600 (1981) 0 (1954) 535 1 8 12 16 47 203 317 935 3050
2025-07-24 17:30 7.67 774 19600 (1981) 0 (1954) 535 1 8 12 16 47 203 317 935 3050
2025-07-24 17:00 7.69 785 19600 (1981) 0 (1954) 535 1 8 12 16 47 203 317 935 3050
2025-07-24 16:30 7.71 797 19600 (1981) 0 (1954) 535 1 8 12 16 47 203 317 935 3050
2025-07-24 16:00 7.73 809 19600 (1981) 0 (1954) 535 1 8 12 16 47 203 317 935 3050
2025-07-24 15:30 7.76 827 19600 (1981) 0 (1954) 535 1 8 12 16 47 203 317 935 3050
2025-07-24 15:00 7.76 827 19600 (1981) 0 (1954) 535 1 8 12 16 47 203 317 935 3050
2025-07-24 14:30 7.80 851 19600 (1981) 0 (1954) 535 1 8 12 16 47 203 317 935 3050
2025-07-24 14:00 7.83 869 19600 (1981) 0 (1954) 535 1 8 12 16 47 203 317 935 3050
2025-07-24 13:30 7.85 882 19600 (1981) 0 (1954) 535 1 8 12 16 47 203 317 935 3050
2025-07-24 13:00 7.88 900 19600 (1981) 0 (1954) 535 1 8 12 16 47 203 317 935 3050
2025-07-24 12:30 7.90 913 19600 (1981) 0 (1954) 535 1 8 12 16 47 203 317 935 3050
2025-07-24 12:00 7.93 932 19600 (1981) 0 (1954) 535 1 8 12 16 47 203 317 935 3050
2025-07-24 11:30 7.95 945 19600 (1981) 0 (1954) 535 1 8 12 16 47 203 317 935 3050
2025-07-24 11:00 7.98 965 19600 (1981) 0 (1954) 535 1 8 12 16 47 203 317 935 3050
2025-07-24 10:30 8.01 984 19600 (1981) 0 (1954) 535 1 8 12 16 47 203 317 935 3050
2025-07-24 10:00 8.05 1010 19600 (1981) 0 (1954) 535 1 8 12 16 47 203 317 935 3050
2025-07-24 09:30 8.08 1030 19600 (1981) 0 (1954) 535 1 8 12 16 47 203 317 935 3050
2025-07-24 09:00 8.12 1060 19600 (1981) 0 (1954) 535 1 8 12 16 47 203 317 935 3050
2025-07-24 08:30 8.15 1080 19600 (1981) 0 (1954) 535 1 8 12 16 47 203 317 935 3050
2025-07-24 08:00 8.19 1110 19600 (1981) 0 (1954) 535 1 8 12 16 47 203 317 935 3050
2025-07-24 07:30 8.23 1140 19600 (1981) 0 (1954) 535 1 8 12 16 47 203 317 935 3050
2025-07-24 07:00 8.27 1170 19600 (1981) 0 (1954) 535 1 8 12 16 47 203 317 935 3050
2025-07-24 06:30 8.31 1200 19600 (1981) 0 (1954) 535 1 8 12 16 47 203 317 935 3050
2025-07-24 06:00 8.37 1240 19600 (1981) 0 (1954) 535 1 8 12 16 47 203 317 935 3050
2025-07-24 05:30 8.41 1270 19600 (1981) 0 (1954) 535 1 8 12 16 47 203 317 935 3050
2025-07-24 05:00 8.45 1300 19600 (1981) 0 (1954) 535 1 8 12 16 47 203 317 935 3050
2025-07-24 04:30 8.49 1330 19600 (1981) 0 (1954) 535 1 8 12 16 47 203 317 935 3050
2025-07-24 04:00 8.55 1380 19600 (1981) 0 (1954) 535 1 8 12 16 47 203 317 935 3050
2025-07-24 03:30 8.59 1420 19600 (1981) 0 (1954) 535 1 8 12 16 47 203 317 935 3050
2025-07-24 03:00 8.67 1480 19600 (1981) 0 (1954) 535 1 8 12 16 47 203 317 935 3050
2025-07-24 02:30 8.73 1530 19600 (1981) 0 (1954) 535 1 8 12 16 47 203 317 935 3050
2025-07-24 02:00 8.79 1590 19600 (1981) 0 (1954) 535 1 8 12 16 47 203 317 935 3050
2025-07-24 01:30 8.86 1650 19600 (1981) 0 (1954) 535 1 8 12 16 47 203 317 935 3050
2025-07-24 01:00 8.94 1720 19600 (1981) 0 (1954) 535 1 8 12 16 47 203 317 935 3050
2025-07-24 00:30 9.01 1790 19600 (1981) 0 (1954) 535 1 8 12 16 47 203 317 935 3050
2025-07-24 00:00 9.09 1860 19600 (1981) 0 (1954) 535 1 8 12 16 47 203 317 935 3050
2025-07-23 23:30 9.16 1930 19600 (1981) 0 (1954) 535 1 8 12 16 47 203 317 935 3050
2025-07-23 23:00 9.25 2020 19600 (1981) 0 (1954) 535 1 8 12 16 47 203 317 935 3050
2025-07-23 22:30 9.33 2080 10600 (1981) 0 (1934) 478 1 7 14 18 63 249 304 1080 3110
2025-07-23 22:00 9.43 2150 10600 (1981) 0 (1934) 478 1 7 14 18 63 249 304 1080 3110
2025-07-23 21:30 9.53 2210 10600 (1981) 0 (1934) 478 1 7 14 18 63 249 304 1080 3110
2025-07-23 21:00 9.61 2260 10600 (1981) 0 (1934) 478 1 7 14 18 63 249 304 1080 3110
2025-07-23 20:30 9.73 2340 10600 (1981) 0 (1934) 478 1 7 14 18 63 249 304 1080 3110
2025-07-23 20:00 9.84 2410 10600 (1981) 0 (1934) 478 1 7 14 18 63 249 304 1080 3110
2025-07-23 19:30 9.95 2480 10600 (1981) 0 (1934) 478 1 7 14 18 63 249 304 1080 3110
2025-07-23 19:00 10.05 2540 10600 (1981) 0 (1934) 478 1 7 14 18 63 249 304 1080 3110
2025-07-23 18:30 10.18 2630 10600 (1981) 0 (1934) 478 1 7 14 18 63 249 304 1080 3110
2025-07-23 18:00 10.31 2710 10600 (1981) 0 (1934) 478 1 7 14 18 63 249 304 1080 3110
2025-07-23 17:30 10.43 2800 10600 (1981) 0 (1934) 478 1 7 14 18 63 249 304 1080 3110
2025-07-23 17:00 10.54 2870 10600 (1981) 0 (1934) 478 1 7 14 18 63 249 304 1080 3110
2025-07-23 16:30 10.67 2960 10600 (1981) 0 (1934) 478 1 7 14 18 63 249 304 1080 3110
2025-07-23 16:00 10.79 3040 10600 (1981) 0 (1934) 478 1 7 14 18 63 249 304 1080 3110
2025-07-23 15:30 10.93 3140 10600 (1981) 0 (1934) 478 1 7 14 18 63 249 304 1080 3110
2025-07-23 15:00 11.07 3240 10600 (1981) 0 (1934) 478 1 7 14 18 63 249 304 1080 3110
2025-07-23 14:30 11.21 3340 10600 (1981) 0 (1934) 478 1 7 14 18 63 249 304 1080 3110
2025-07-23 14:00 11.34 3430 10600 (1981) 0 (1934) 478 1 7 14 18 63 249 304 1080 3110
2025-07-23 13:30 11.48 3530 10600 (1981) 0 (1934) 478 1 7 14 18 63 249 304 1080 3110
2025-07-23 13:00 11.63 3640 10600 (1981) 0 (1934) 478 1 7 14 18 63 249 304 1080 3110
2025-07-23 12:30 11.76 3740 10600 (1981) 0 (1934) 478 1 7 14 18 63 249 304 1080 3110
2025-07-23 12:00 11.87 3820 10600 (1981) 0 (1934) 478 1 7 14 18 63 249 304 1080 3110
2025-07-23 11:30 12.02 3930 10600 (1981) 0 (1934) 478 1 7 14 18 63 249 304 1080 3110
2025-07-23 11:00 12.16 4040 10600 (1981) 0 (1934) 478 1 7 14 18 63 249 304 1080 3110
2025-07-23 10:30 12.28 4130 10600 (1981) 0 (1934) 478 1 7 14 18 63 249 304 1080 3110
2025-07-23 10:00 12.44 4250 10600 (1981) 0 (1934) 478 1 7 14 18 63 249 304 1080 3110
2025-07-23 09:30 12.60 4380 10600 (1981) 0 (1934) 478 1 7 14 18 63 249 304 1080 3110
2025-07-23 09:00 12.78 4520 10600 (1981) 0 (1934) 478 1 7 14 18 63 249 304 1080 3110
2025-07-23 08:30 4650 10600 (1981) 0 (1934) 478 1 7 14 18 63 249 304 1080 3110
2025-07-23 08:00 13.17 4830 10600 (1981) 0 (1934) 478 1 7 14 18 63 249 304 1080 3110
2025-07-23 07:30 13.37 4990 10600 (1981) 0 (1934) 478 1 7 14 18 63 249 304 1080 3110
2025-07-23 07:00 13.63 5200 10600 (1981) 0 (1934) 478 1 7 14 18 63 249 304 1080 3110
2025-07-23 06:30 13.90 5420 10600 (1981) 0 (1934) 478 1 7 14 18 63 249 304 1080 3110
2025-07-23 06:00 14.19 5670 10600 (1981) 0 (1934) 478 1 7 14 18 63 249 304 1080 3110
2025-07-23 05:30 14.51 5940 10600 (1981) 0 (1934) 478 1 7 14 18 63 249 304 1080 3110
2025-07-23 05:00 14.84 6220 10600 (1981) 0 (1934) 478 1 7 14 18 63 249 304 1080 3110
2025-07-23 04:30 15.19 6530 10600 (1981) 0 (1934) 478 1 7 14 18 63 249 304 1080 3110
2025-07-23 04:00 15.58 6880 10600 (1981) 0 (1934) 478 1 7 14 18 63 249 304 1080 3110
2025-07-23 03:30 16.02 7280 10600 (1981) 0 (1934) 478 1 7 14 18 63 249 304 1080 3110
2025-07-23 03:00 16.44 7660 10600 (1981) 0 (1934) 478 1 7 14 18 63 249 304 1080 3110
2025-07-23 02:30 16.89 8090 10600 (1981) 0 (1934) 478 1 7 14 18 63 249 304 1080 3110
2025-07-23 02:00 17.36 8530 10600 (1981) 0 (1934) 478 1 7 14 18 63 249 304 1080 3110
2025-07-23 01:30 17.84 9000 10600 (1981) 0 (1934) 478 1 7 14 18 63 249 304 1080 3110
2025-07-23 01:00 18.32 9470 10600 (1981) 0 (1934) 478 1 7 14 18 63 249 304 1080 3110
2025-07-23 00:30 18.83 9980 10600 (1981) 0 (1934) 478 1 7 14 18 63 249 304 1080 3110
2025-07-23 00:00 19.35 10600 10600 (1981) 0 (1934) 478 1 7 14 18 63 249 304 1080 3110
2025-07-22 23:30 19.90 11400 10600 (1981) 0 (1934) 478 1 7 14 18 63 249 304 1080 3110
2025-07-22 23:00 20.43 12200 10600 (1981) 0 (1934) 478 1 7 14 18 63 249 304 1080 3110
2025-07-22 22:30 20.95 13000 28700 (2025) 0 (1934) 678 1 7 15 20 49 263 356 1490 2900
2025-07-22 22:00 21.45 13900 28700 (2025) 0 (1934) 678 1 7 15 20 49 263 356 1490 2900
2025-07-22 21:30 21.92 15000 28700 (2025) 0 (1934) 678 1 7 15 20 49 263 356 1490 2900
2025-07-22 21:00 22.36 16400 28700 (2025) 0 (1934) 678 1 7 15 20 49 263 356 1490 2900
2025-07-22 20:30 22.79 17900 28700 (2025) 0 (1934) 678 1 7 15 20 49 263 356 1490 2900
2025-07-22 20:00 23.18 19400 28700 (2025) 0 (1934) 678 1 7 15 20 49 263 356 1490 2900
2025-07-22 19:30 23.58 21000 28700 (2025) 0 (1934) 678 1 7 15 20 49 263 356 1490 2900
2025-07-22 19:00 23.93 22500 28700 (2025) 0 (1934) 678 1 7 15 20 49 263 356 1490 2900
2025-07-22 18:30 24.23 23900 28700 (2025) 0 (1934) 678 1 7 15 20 49 263 356 1490 2900
2025-07-22 18:00 24.55 25400 28700 (2025) 0 (1934) 678 1 7 15 20 49 263 356 1490 2900
2025-07-22 17:30 24.80 26600 28700 (2025) 0 (1934) 678 1 7 15 20 49 263 356 1490 2900
2025-07-22 17:00 25.05 27800 28700 (2025) 0 (1934) 678 1 7 15 20 49 263 356 1490 2900
2025-07-22 16:30 29100 28700 (2025) 0 (1934) 678 1 7 15 20 49 263 356 1490 2900
2025-07-22 16:00 25.45 29900 28700 (2025) 0 (1934) 678 1 7 15 20 49 263 356 1490 2900
2025-07-22 15:30 25.60 30800 28700 (2025) 0 (1934) 678 1 7 15 20 49 263 356 1490 2900
2025-07-22 15:00 25.73 31500 28700 (2025) 0 (1934) 678 1 7 15 20 49 263 356 1490 2900
2025-07-22 14:30 25.84 32100 28700 (2025) 0 (1934) 678 1 7 15 20 49 263 356 1490 2900
2025-07-22 14:00 25.96 32800 28700 (2025) 0 (1934) 678 1 7 15 20 49 263 356 1490 2900
2025-07-22 13:30 26.05 33300 28700 (2025) 0 (1934) 678 1 7 15 20 49 263 356 1490 2900
2025-07-22 13:00 26.09 33500 28700 (2025) 0 (1934) 678 1 7 15 20 49 263 356 1490 2900
2025-07-22 12:30 26.21 34200 28700 (2025) 0 (1934) 678 1 7 15 20 49 263 356 1490 2900
2025-07-22 12:00 26.25 34500 28700 (2025) 0 (1934) 678 1 7 15 20 49 263 356 1490 2900
2025-07-22 11:30 26.32 34900 28700 (2025) 0 (1934) 678 1 7 15 20 49 263 356 1490 2900
2025-07-22 11:00 26.40 35400 28700 (2025) 0 (1934) 678 1 7 15 20 49 263 356 1490 2900
2025-07-22 10:00 26.53 36200 28700 (2025) 0 (1934) 678 1 7 15 20 49 263 356 1490 2900
2025-07-22 09:30 26.51 36100 28700 (2025) 0 (1934) 678 1 7 15 20 49 263 356 1490 2900
2025-07-22 09:00 26.56 36400 28700 (2025) 0 (1934) 678 1 7 15 20 49 263 356 1490 2900
2025-07-22 08:30 26.54 36300 28700 (2025) 0 (1934) 678 1 7 15 20 49 263 356 1490 2900
2025-07-22 07:30 26.57 36400 28700 (2025) 0 (1934) 678 1 7 15 20 49 263 356 1490 2900
2025-07-22 07:00 26.57 36400 28700 (2025) 0 (1934) 678 1 7 15 20 49 263 356 1490 2900
2025-07-22 06:30 26.51 36100 28700 (2025) 0 (1934) 678 1 7 15 20 49 263 356 1490 2900
2025-07-22 06:00 26.51 36100 28700 (2025) 0 (1934) 678 1 7 15 20 49 263 356 1490 2900
2025-07-22 05:30 26.45 35700 28700 (2025) 0 (1934) 678 1 7 15 20 49 263 356 1490 2900
2025-07-22 05:00 26.46 35800 28700 (2025) 0 (1934) 678 1 7 15 20 49 263 356 1490 2900
2025-07-22 04:30 26.42 35500 28700 (2025) 0 (1934) 678 1 7 15 20 49 263 356 1490 2900
2025-07-22 04:00 26.39 35300 28700 (2025) 0 (1934) 678 1 7 15 20 49 263 356 1490 2900
2025-07-22 03:30 26.34 35000 28700 (2025) 0 (1934) 678 1 7 15 20 49 263 356 1490 2900
2025-07-22 03:00 26.28 34700 28700 (2025) 0 (1934) 678 1 7 15 20 49 263 356 1490 2900
2025-07-22 02:30 26.23 34400 28700 (2025) 0 (1934) 678 1 7 15 20 49 263 356 1490 2900
2025-07-22 02:00 26.17 34000 28700 (2025) 0 (1934) 678 1 7 15 20 49 263 356 1490 2900
2025-07-22 01:30 26.14 33800 28700 (2025) 0 (1934) 678 1 7 15 20 49 263 356 1490 2900
2025-07-22 01:00 26.09 33500 28700 (2025) 0 (1934) 678 1 7 15 20 49 263 356 1490 2900
2025-07-22 00:30 26.06 33400 28700 (2025) 0 (1934) 678 1 7 15 20 49 263 356 1490 2900
2025-07-22 00:00 25.93 32600 28700 (2025) 0 (1934) 678 1 7 15 20 49 263 356 1490 2900
2025-07-21 23:30 25.83 32000 28700 (2025) 0 (1934) 678 1 7 15 20 49 263 356 1490 2900
2025-07-21 23:00 25.78 31800 28700 (2025) 0 (1934) 678 1 7 15 20 49 263 356 1490 2900
2025-07-21 22:30 25.64 31000 18100 (1949) 0 (1934) 1020 2 6 15 18 46 245 368 2540 7030
2025-07-21 22:00 25.59 30700 18100 (1949) 0 (1934) 1020 2 6 15 18 46 245 368 2540 7030
2025-07-21 21:30 25.46 30000 18100 (1949) 0 (1934) 1020 2 6 15 18 46 245 368 2540 7030
2025-07-21 21:00 25.31 29200 18100 (1949) 0 (1934) 1020 2 6 15 18 46 245 368 2540 7030
2025-07-21 20:30 25.19 28600 18100 (1949) 0 (1934) 1020 2 6 15 18 46 245 368 2540 7030
2025-07-21 20:00 25.08 28000 18100 (1949) 0 (1934) 1020 2 6 15 18 46 245 368 2540 7030
2025-07-21 19:30 24.95 27300 18100 (1949) 0 (1934) 1020 2 6 15 18 46 245 368 2540 7030
2025-07-21 19:00 24.80 26600 18100 (1949) 0 (1934) 1020 2 6 15 18 46 245 368 2540 7030
2025-07-21 18:30 24.65 25800 18100 (1949) 0 (1934) 1020 2 6 15 18 46 245 368 2540 7030
2025-07-21 18:00 24.48 25000 18100 (1949) 0 (1934) 1020 2 6 15 18 46 245 368 2540 7030
2025-07-21 17:30 24.34 24400 18100 (1949) 0 (1934) 1020 2 6 15 18 46 245 368 2540 7030
2025-07-21 17:00 24.14 23500 18100 (1949) 0 (1934) 1020 2 6 15 18 46 245 368 2540 7030
2025-07-21 16:30 23.99 22800 18100 (1949) 0 (1934) 1020 2 6 15 18 46 245 368 2540 7030
2025-07-21 16:00 23.74 21700 18100 (1949) 0 (1934) 1020 2 6 15 18 46 245 368 2540 7030
2025-07-21 15:30 23.55 20900 18100 (1949) 0 (1934) 1020 2 6 15 18 46 245 368 2540 7030
2025-07-21 15:00 23.38 20200 18100 (1949) 0 (1934) 1020 2 6 15 18 46 245 368 2540 7030
2025-07-21 14:30 23.14 19300 18100 (1949) 0 (1934) 1020 2 6 15 18 46 245 368 2540 7030
2025-07-21 14:00 22.92 18400 18100 (1949) 0 (1934) 1020 2 6 15 18 46 245 368 2540 7030
2025-07-21 13:30 22.67 17500 18100 (1949) 0 (1934) 1020 2 6 15 18 46 245 368 2540 7030
2025-07-21 13:00 22.38 16500 18100 (1949) 0 (1934) 1020 2 6 15 18 46 245 368 2540 7030
2025-07-21 12:30 22.09 15500 18100 (1949) 0 (1934) 1020 2 6 15 18 46 245 368 2540 7030
2025-07-21 12:00 21.76 14500 18100 (1949) 0 (1934) 1020 2 6 15 18 46 245 368 2540 7030
2025-07-21 11:30 21.44 13900 18100 (1949) 0 (1934) 1020 2 6 15 18 46 245 368 2540 7030
2025-07-21 11:00 21.01 13100 18100 (1949) 0 (1934) 1020 2 6 15 18 46 245 368 2540 7030
2025-07-21 10:30 20.49 12300 18100 (1949) 0 (1934) 1020 2 6 15 18 46 245 368 2540 7030
2025-07-21 10:00 19.87 11300 18100 (1949) 0 (1934) 1020 2 6 15 18 46 245 368 2540 7030
2025-07-21 09:30 19.09 10200 18100 (1949) 0 (1934) 1020 2 6 15 18 46 245 368 2540 7030
2025-07-21 09:00 18.27 9420 18100 (1949) 0 (1934) 1020 2 6 15 18 46 245 368 2540 7030
2025-07-21 08:30 17.43 8600 18100 (1949) 0 (1934) 1020 2 6 15 18 46 245 368 2540 7030
2025-07-21 08:00 16.77 7970 18100 (1949) 0 (1934) 1020 2 6 15 18 46 245 368 2540 7030
2025-07-21 07:30 16.31 7540 18100 (1949) 0 (1934) 1020 2 6 15 18 46 245 368 2540 7030
2025-07-21 07:00 16.16 7410 18100 (1949) 0 (1934) 1020 2 6 15 18 46 245 368 2540 7030
2025-07-21 06:30 16.15 7400 18100 (1949) 0 (1934) 1020 2 6 15 18 46 245 368 2540 7030
2025-07-21 06:00 16.19 7430 18100 (1949) 0 (1934) 1020 2 6 15 18 46 245 368 2540 7030
2025-07-21 05:30 16.07 7320 18100 (1949) 0 (1934) 1020 2 6 15 18 46 245 368 2540 7030
2025-07-21 05:00 15.84 7110 18100 (1949) 0 (1934) 1020 2 6 15 18 46 245 368 2540 7030
2025-07-21 04:30 15.45 6760 18100 (1949) 0 (1934) 1020 2 6 15 18 46 245 368 2540 7030
2025-07-21 04:00 14.86 6240 18100 (1949) 0 (1934) 1020 2 6 15 18 46 245 368 2540 7030
2025-07-21 03:30 13.90 5420 18100 (1949) 0 (1934) 1020 2 6 15 18 46 245 368 2540 7030
2025-07-21 03:00 12.40 4220 18100 (1949) 0 (1934) 1020 2 6 15 18 46 245 368 2540 7030
2025-07-21 02:30 10.37 2750 18100 (1949) 0 (1934) 1020 2 6 15 18 46 245 368 2540 7030
2025-07-21 02:00 7.89 907 18100 (1949) 0 (1934) 1020 2 6 15 18 46 245 368 2540 7030
2025-07-21 01:30 6.59 292 18100 (1949) 0 (1934) 1020 2 6 15 18 46 245 368 2540 7030
2025-07-21 01:00 6.33 202 18100 (1949) 0 (1934) 1020 2 6 15 18 46 245 368 2540 7030
2025-07-21 00:30 6.22 168 18100 (1949) 0 (1934) 1020 2 6 15 18 46 245 368 2540 7030
2025-07-21 00:00 6.21 165 18100 (1949) 0 (1934) 1020 2 6 15 18 46 245 368 2540 7030
2025-07-20 23:30 6.22 168 18100 (1949) 0 (1934) 1020 2 6 15 18 46 245 368 2540 7030
2025-07-20 23:00 6.28 186 18100 (1949) 0 (1934) 1020 2 6 15 18 46 245 368 2540 7030
2025-07-20 22:30 6.29 189 19000 (1958) 0 (1954) 865 2 6 13 16 48 354 496 1310 5770
2025-07-20 22:00 6.30 192 19000 (1958) 0 (1954) 865 2 6 13 16 48 354 496 1310 5770
2025-07-20 21:30 6.31 195 19000 (1958) 0 (1954) 865 2 6 13 16 48 354 496 1310 5770
2025-07-20 21:00 6.32 199 19000 (1958) 0 (1954) 865 2 6 13 16 48 354 496 1310 5770
2025-07-20 20:30 6.32 199 19000 (1958) 0 (1954) 865 2 6 13 16 48 354 496 1310 5770
2025-07-20 20:00 6.34 205 19000 (1958) 0 (1954) 865 2 6 13 16 48 354 496 1310 5770
2025-07-20 19:30 6.35 208 19000 (1958) 0 (1954) 865 2 6 13 16 48 354 496 1310 5770
2025-07-20 19:00 6.36 212 19000 (1958) 0 (1954) 865 2 6 13 16 48 354 496 1310 5770
2025-07-20 18:30 6.37 215 19000 (1958) 0 (1954) 865 2 6 13 16 48 354 496 1310 5770
2025-07-20 18:00 6.38 219 19000 (1958) 0 (1954) 865 2 6 13 16 48 354 496 1310 5770
2025-07-20 17:30 6.39 222 19000 (1958) 0 (1954) 865 2 6 13 16 48 354 496 1310 5770
2025-07-20 17:00 6.40 226 19000 (1958) 0 (1954) 865 2 6 13 16 48 354 496 1310 5770
2025-07-20 16:30 6.42 233 19000 (1958) 0 (1954) 865 2 6 13 16 48 354 496 1310 5770
2025-07-20 16:00 6.43 237 19000 (1958) 0 (1954) 865 2 6 13 16 48 354 496 1310 5770
2025-07-20 15:30 6.44 240 19000 (1958) 0 (1954) 865 2 6 13 16 48 354 496 1310 5770
2025-07-20 15:00 6.46 248 19000 (1958) 0 (1954) 865 2 6 13 16 48 354 496 1310 5770
2025-07-20 14:30 6.47 251 19000 (1958) 0 (1954) 865 2 6 13 16 48 354 496 1310 5770
2025-07-20 14:00 6.48 255 19000 (1958) 0 (1954) 865 2 6 13 16 48 354 496 1310 5770
2025-07-20 13:30 6.50 263 19000 (1958) 0 (1954) 865 2 6 13 16 48 354 496 1310 5770
2025-07-20 13:00 6.51 267 19000 (1958) 0 (1954) 865 2 6 13 16 48 354 496 1310 5770
2025-07-20 12:30 6.52 270 19000 (1958) 0 (1954) 865 2 6 13 16 48 354 496 1310 5770
2025-07-20 12:00 6.54 276 19000 (1958) 0 (1954) 865 2 6 13 16 48 354 496 1310 5770
2025-07-20 11:30 6.55 280 19000 (1958) 0 (1954) 865 2 6 13 16 48 354 496 1310 5770
2025-07-20 11:00 6.57 286 19000 (1958) 0 (1954) 865 2 6 13 16 48 354 496 1310 5770
2025-07-20 10:30 6.57 286 19000 (1958) 0 (1954) 865 2 6 13 16 48 354 496 1310 5770
2025-07-20 10:00 6.59 292 19000 (1958) 0 (1954) 865 2 6 13 16 48 354 496 1310 5770
2025-07-20 09:30 6.60 296 19000 (1958) 0 (1954) 865 2 6 13 16 48 354 496 1310 5770
2025-07-20 09:00 6.60 296 19000 (1958) 0 (1954) 865 2 6 13 16 48 354 496 1310 5770
2025-07-20 08:30 6.60 296 19000 (1958) 0 (1954) 865 2 6 13 16 48 354 496 1310 5770
2025-07-20 08:00 6.59 292 19000 (1958) 0 (1954) 865 2 6 13 16 48 354 496 1310 5770
2025-07-20 07:30 6.59 292 19000 (1958) 0 (1954) 865 2 6 13 16 48 354 496 1310 5770
2025-07-20 07:00 6.58 289 19000 (1958) 0 (1954) 865 2 6 13 16 48 354 496 1310 5770
2025-07-20 06:30 6.56 283 19000 (1958) 0 (1954) 865 2 6 13 16 48 354 496 1310 5770
2025-07-20 06:00 6.54 276 19000 (1958) 0 (1954) 865 2 6 13 16 48 354 496 1310 5770
2025-07-20 05:30 6.53 273 19000 (1958) 0 (1954) 865 2 6 13 16 48 354 496 1310 5770
2025-07-20 05:00 6.52 270 19000 (1958) 0 (1954) 865 2 6 13 16 48 354 496 1310 5770
2025-07-20 04:30 6.51 267 19000 (1958) 0 (1954) 865 2 6 13 16 48 354 496 1310 5770
2025-07-20 04:00 6.51 267 19000 (1958) 0 (1954) 865 2 6 13 16 48 354 496 1310 5770
2025-07-20 03:30 6.52 270 19000 (1958) 0 (1954) 865 2 6 13 16 48 354 496 1310 5770
2025-07-20 03:00 6.53 273 19000 (1958) 0 (1954) 865 2 6 13 16 48 354 496 1310 5770
2025-07-20 02:30 6.54 276 19000 (1958) 0 (1954) 865 2 6 13 16 48 354 496 1310 5770
2025-07-20 02:00 6.56 283 19000 (1958) 0 (1954) 865 2 6 13 16 48 354 496 1310 5770
2025-07-20 01:30 6.57 286 19000 (1958) 0 (1954) 865 2 6 13 16 48 354 496 1310 5770
2025-07-20 01:00 6.59 292 19000 (1958) 0 (1954) 865 2 6 13 16 48 354 496 1310 5770
2025-07-20 00:30 6.61 299 19000 (1958) 0 (1954) 865 2 6 13 16 48 354 496 1310 5770
2025-07-20 00:00 6.63 305 19000 (1958) 0 (1954) 865 2 6 13 16 48 354 496 1310 5770
2025-07-19 23:30 6.65 312 19000 (1958) 0 (1954) 865 2 6 13 16 48 354 496 1310 5770
2025-07-19 23:00 6.68 322 19000 (1958) 0 (1954) 865 2 6 13 16 48 354 496 1310 5770
2025-07-19 22:30 6.70 329 8100 (1968) 0 (1934) 412 2 6 14 18 50 161 295 1300 1770
2025-07-19 22:00 6.72 336 8100 (1968) 0 (1934) 412 2 6 14 18 50 161 295 1300 1770
2025-07-19 21:30 6.73 340 8100 (1968) 0 (1934) 412 2 6 14 18 50 161 295 1300 1770
2025-07-19 21:00 6.75 347 8100 (1968) 0 (1934) 412 2 6 14 18 50 161 295 1300 1770
2025-07-19 20:30 6.76 350 8100 (1968) 0 (1934) 412 2 6 14 18 50 161 295 1300 1770
2025-07-19 20:00 6.76 350 8100 (1968) 0 (1934) 412 2 6 14 18 50 161 295 1300 1770
2025-07-19 19:30 6.77 354 8100 (1968) 0 (1934) 412 2 6 14 18 50 161 295 1300 1770
2025-07-19 19:00 6.77 354 8100 (1968) 0 (1934) 412 2 6 14 18 50 161 295 1300 1770
2025-07-19 18:30 6.77 354 8100 (1968) 0 (1934) 412 2 6 14 18 50 161 295 1300 1770
2025-07-19 18:00 6.77 354 8100 (1968) 0 (1934) 412 2 6 14 18 50 161 295 1300 1770
2025-07-19 17:30 6.77 354 8100 (1968) 0 (1934) 412 2 6 14 18 50 161 295 1300 1770
2025-07-19 17:00 6.77 354 8100 (1968) 0 (1934) 412 2 6 14 18 50 161 295 1300 1770
2025-07-19 16:30 6.75 347 8100 (1968) 0 (1934) 412 2 6 14 18 50 161 295 1300 1770
2025-07-19 16:00 6.70 329 8100 (1968) 0 (1934) 412 2 6 14 18 50 161 295 1300 1770
2025-07-19 15:30 6.67 319 8100 (1968) 0 (1934) 412 2 6 14 18 50 161 295 1300 1770
2025-07-19 15:00 6.59 292 8100 (1968) 0 (1934) 412 2 6 14 18 50 161 295 1300 1770
2025-07-19 14:30 6.45 244 8100 (1968) 0 (1934) 412 2 6 14 18 50 161 295 1300 1770
2025-07-19 14:00 6.32 199 8100 (1968) 0 (1934) 412 2 6 14 18 50 161 295 1300 1770
2025-07-19 13:30 6.23 171 8100 (1968) 0 (1934) 412 2 6 14 18 50 161 295 1300 1770
2025-07-19 13:00 6.21 165 8100 (1968) 0 (1934) 412 2 6 14 18 50 161 295 1300 1770
2025-07-19 12:30 6.23 171 8100 (1968) 0 (1934) 412 2 6 14 18 50 161 295 1300 1770
2025-07-19 12:00 6.23 171 8100 (1968) 0 (1934) 412 2 6 14 18 50 161 295 1300 1770
2025-07-19 11:30 6.23 171 8100 (1968) 0 (1934) 412 2 6 14 18 50 161 295 1300 1770
2025-07-19 11:00 6.22 168 8100 (1968) 0 (1934) 412 2 6 14 18 50 161 295 1300 1770
2025-07-19 10:30 6.20 162 8100 (1968) 0 (1934) 412 2 6 14 18 50 161 295 1300 1770
2025-07-19 10:00 6.15 148 8100 (1968) 0 (1934) 412 2 6 14 18 50 161 295 1300 1770
2025-07-19 09:30 6.17 154 8100 (1968) 0 (1934) 412 2 6 14 18 50 161 295 1300 1770
2025-07-19 09:00 6.17 154 8100 (1968) 0 (1934) 412 2 6 14 18 50 161 295 1300 1770
2025-07-19 08:30 6.16 151 8100 (1968) 0 (1934) 412 2 6 14 18 50 161 295 1300 1770
2025-07-19 08:00 6.18 157 8100 (1968) 0 (1934) 412 2 6 14 18 50 161 295 1300 1770
2025-07-19 07:30 6.18 157 8100 (1968) 0 (1934) 412 2 6 14 18 50 161 295 1300 1770
2025-07-19 07:00 6.19 159 8100 (1968) 0 (1934) 412 2 6 14 18 50 161 295 1300 1770
2025-07-19 06:30 6.19 159 8100 (1968) 0 (1934) 412 2 6 14 18 50 161 295 1300 1770
2025-07-19 06:00 6.20 162 8100 (1968) 0 (1934) 412 2 6 14 18 50 161 295 1300 1770
2025-07-19 05:30 6.21 165 8100 (1968) 0 (1934) 412 2 6 14 18 50 161 295 1300 1770
2025-07-19 05:00 6.22 168 8100 (1968) 0 (1934) 412 2 6 14 18 50 161 295 1300 1770
2025-07-19 04:30 6.22 168 8100 (1968) 0 (1934) 412 2 6 14 18 50 161 295 1300 1770
2025-07-19 04:00 6.23 171 8100 (1968) 0 (1934) 412 2 6 14 18 50 161 295 1300 1770
2025-07-19 03:30 6.23 171 8100 (1968) 0 (1934) 412 2 6 14 18 50 161 295 1300 1770
2025-07-19 03:00 6.24 174 8100 (1968) 0 (1934) 412 2 6 14 18 50 161 295 1300 1770
2025-07-19 02:30 6.25 177 8100 (1968) 0 (1934) 412 2 6 14 18 50 161 295 1300 1770
2025-07-19 02:00 6.25 177 8100 (1968) 0 (1934) 412 2 6 14 18 50 161 295 1300 1770
2025-07-19 01:30 6.26 180 8100 (1968) 0 (1934) 412 2 6 14 18 50 161 295 1300 1770
2025-07-19 01:00 183 8100 (1968) 0 (1934) 412 2 6 14 18 50 161 295 1300 1770
2025-07-19 00:30 6.27 183 8100 (1968) 0 (1934) 412 2 6 14 18 50 161 295 1300 1770
2025-07-19 00:00 186 8100 (1968) 0 (1934) 412 2 6 14 18 50 161 295 1300 1770
2025-07-18 23:30 6.28 186 8100 (1968) 0 (1934) 412 2 6 14 18 50 161 295 1300 1770
2025-07-18 23:00 6.28 186 8100 (1968) 0 (1934) 412 2 6 14 18 50 161 295 1300 1770
2025-07-18 22:30 6.28 186 11400 (1968) 0 (1934) 423 3 6 12 20 53 179 265 618 1810
2025-07-18 22:00 6.28 186 11400 (1968) 0 (1934) 423 3 6 12 20 53 179 265 618 1810
2025-07-18 21:30 6.28 186 11400 (1968) 0 (1934) 423 3 6 12 20 53 179 265 618 1810
2025-07-18 21:00 6.28 186 11400 (1968) 0 (1934) 423 3 6 12 20 53 179 265 618 1810
2025-07-18 20:30 6.28 186 11400 (1968) 0 (1934) 423 3 6 12 20 53 179 265 618 1810
2025-07-18 20:00 6.28 186 11400 (1968) 0 (1934) 423 3 6 12 20 53 179 265 618 1810
2025-07-18 19:30 6.28 186 11400 (1968) 0 (1934) 423 3 6 12 20 53 179 265 618 1810
2025-07-18 19:00 6.28 186 11400 (1968) 0 (1934) 423 3 6 12 20 53 179 265 618 1810
2025-07-18 18:30 6.28 186 11400 (1968) 0 (1934) 423 3 6 12 20 53 179 265 618 1810
2025-07-18 18:00 6.29 189 11400 (1968) 0 (1934) 423 3 6 12 20 53 179 265 618 1810
2025-07-18 17:30 6.29 189 11400 (1968) 0 (1934) 423 3 6 12 20 53 179 265 618 1810
2025-07-18 17:00 6.29 189 11400 (1968) 0 (1934) 423 3 6 12 20 53 179 265 618 1810
2025-07-18 16:30 6.30 192 11400 (1968) 0 (1934) 423 3 6 12 20 53 179 265 618 1810
2025-07-18 16:00 6.30 192 11400 (1968) 0 (1934) 423 3 6 12 20 53 179 265 618 1810
2025-07-18 15:30 6.31 195 11400 (1968) 0 (1934) 423 3 6 12 20 53 179 265 618 1810
2025-07-18 15:00 6.31 195 11400 (1968) 0 (1934) 423 3 6 12 20 53 179 265 618 1810
2025-07-18 14:30 6.33 202 11400 (1968) 0 (1934) 423 3 6 12 20 53 179 265 618 1810
2025-07-18 14:00 6.33 202 11400 (1968) 0 (1934) 423 3 6 12 20 53 179 265 618 1810
2025-07-18 13:30 6.34 205 11400 (1968) 0 (1934) 423 3 6 12 20 53 179 265 618 1810
2025-07-18 13:00 6.34 205 11400 (1968) 0 (1934) 423 3 6 12 20 53 179 265 618 1810
2025-07-18 12:30 6.35 208 11400 (1968) 0 (1934) 423 3 6 12 20 53 179 265 618 1810
2025-07-18 12:00 6.34 205 11400 (1968) 0 (1934) 423 3 6 12 20 53 179 265 618 1810
2025-07-18 11:30 6.34 205 11400 (1968) 0 (1934) 423 3 6 12 20 53 179 265 618 1810
2025-07-18 11:00 6.33 202 11400 (1968) 0 (1934) 423 3 6 12 20 53 179 265 618 1810
2025-07-18 10:30 6.32 199 11400 (1968) 0 (1934) 423 3 6 12 20 53 179 265 618 1810
2025-07-18 10:00 6.29 189 11400 (1968) 0 (1934) 423 3 6 12 20 53 179 265 618 1810
2025-07-18 09:30 6.26 180 11400 (1968) 0 (1934) 423 3 6 12 20 53 179 265 618 1810
2025-07-18 09:00 6.23 171 11400 (1968) 0 (1934) 423 3 6 12 20 53 179 265 618 1810
2025-07-18 08:30 6.20 162 11400 (1968) 0 (1934) 423 3 6 12 20 53 179 265 618 1810
2025-07-18 08:00 6.18 157 11400 (1968) 0 (1934) 423 3 6 12 20 53 179 265 618 1810
2025-07-18 07:30 6.16 151 11400 (1968) 0 (1934) 423 3 6 12 20 53 179 265 618 1810
2025-07-18 07:00 6.16 151 11400 (1968) 0 (1934) 423 3 6 12 20 53 179 265 618 1810
2025-07-18 06:30 6.16 151 11400 (1968) 0 (1934) 423 3 6 12 20 53 179 265 618 1810
2025-07-18 06:00 6.17 154 11400 (1968) 0 (1934) 423 3 6 12 20 53 179 265 618 1810
2025-07-18 05:30 6.17 154 11400 (1968) 0 (1934) 423 3 6 12 20 53 179 265 618 1810
2025-07-18 05:00 6.18 157 11400 (1968) 0 (1934) 423 3 6 12 20 53 179 265 618 1810
2025-07-18 04:30 6.19 159 11400 (1968) 0 (1934) 423 3 6 12 20 53 179 265 618 1810
2025-07-18 04:00 6.20 162 11400 (1968) 0 (1934) 423 3 6 12 20 53 179 265 618 1810
2025-07-18 03:30 6.20 162 11400 (1968) 0 (1934) 423 3 6 12 20 53 179 265 618 1810
2025-07-18 03:00 6.21 165 11400 (1968) 0 (1934) 423 3 6 12 20 53 179 265 618 1810
2025-07-18 02:30 6.21 165 11400 (1968) 0 (1934) 423 3 6 12 20 53 179 265 618 1810
2025-07-18 02:00 6.22 168 11400 (1968) 0 (1934) 423 3 6 12 20 53 179 265 618 1810
2025-07-18 01:30 6.22 168 11400 (1968) 0 (1934) 423 3 6 12 20 53 179 265 618 1810
2025-07-18 01:00 6.23 171 11400 (1968) 0 (1934) 423 3 6 12 20 53 179 265 618 1810
2025-07-18 00:30 6.23 171 11400 (1968) 0 (1934) 423 3 6 12 20 53 179 265 618 1810
2025-07-18 00:00 6.23 171 11400 (1968) 0 (1934) 423 3 6 12 20 53 179 265 618 1810
2025-07-17 23:30 6.23 171 11400 (1968) 0 (1934) 423 3 6 12 20 53 179 265 618 1810
2025-07-17 23:00 6.23 171 11400 (1968) 0 (1934) 423 3 6 12 20 53 179 265 618 1810
2025-07-17 22:30 6.23 171 6920 (1993) 0 (1934) 446 4 7 12 19 58 220 326 996 3860
2025-07-17 22:00 6.23 171 6920 (1993) 0 (1934) 446 4 7 12 19 58 220 326 996 3860
2025-07-17 21:30 6.22 168 6920 (1993) 0 (1934) 446 4 7 12 19 58 220 326 996 3860
2025-07-17 21:00 6.23 171 6920 (1993) 0 (1934) 446 4 7 12 19 58 220 326 996 3860
2025-07-17 20:30 6.23 171 6920 (1993) 0 (1934) 446 4 7 12 19 58 220 326 996 3860
2025-07-17 20:00 6.24 174 6920 (1993) 0 (1934) 446 4 7 12 19 58 220 326 996 3860
2025-07-17 19:30 6.24 174 6920 (1993) 0 (1934) 446 4 7 12 19 58 220 326 996 3860
2025-07-17 19:00 6.25 177 6920 (1993) 0 (1934) 446 4 7 12 19 58 220 326 996 3860
2025-07-17 18:30 6.25 177 6920 (1993) 0 (1934) 446 4 7 12 19 58 220 326 996 3860
2025-07-17 18:00 6.26 180 6920 (1993) 0 (1934) 446 4 7 12 19 58 220 326 996 3860
2025-07-17 17:30 6.27 183 6920 (1993) 0 (1934) 446 4 7 12 19 58 220 326 996 3860
2025-07-17 17:00 6.28 186 6920 (1993) 0 (1934) 446 4 7 12 19 58 220 326 996 3860
2025-07-17 16:30 6.29 189 6920 (1993) 0 (1934) 446 4 7 12 19 58 220 326 996 3860
2025-07-17 16:00 6.30 192 6920 (1993) 0 (1934) 446 4 7 12 19 58 220 326 996 3860
2025-07-17 15:30 6.30 192 6920 (1993) 0 (1934) 446 4 7 12 19 58 220 326 996 3860
2025-07-17 15:00 6.31 195 6920 (1993) 0 (1934) 446 4 7 12 19 58 220 326 996 3860
2025-07-17 14:30 6.31 195 6920 (1993) 0 (1934) 446 4 7 12 19 58 220 326 996 3860
2025-07-17 14:00 6.32 199 6920 (1993) 0 (1934) 446 4 7 12 19 58 220 326 996 3860
2025-07-17 13:30 6.32 199 6920 (1993) 0 (1934) 446 4 7 12 19 58 220 326 996 3860
2025-07-17 13:00 6.32 199 6920 (1993) 0 (1934) 446 4 7 12 19 58 220 326 996 3860
2025-07-17 12:30 6.32 199 6920 (1993) 0 (1934) 446 4 7 12 19 58 220 326 996 3860
2025-07-17 12:00 6.33 202 6920 (1993) 0 (1934) 446 4 7 12 19 58 220 326 996 3860
2025-07-17 11:30 6.33 202 6920 (1993) 0 (1934) 446 4 7 12 19 58 220 326 996 3860
2025-07-17 11:00 6.33 202 6920 (1993) 0 (1934) 446 4 7 12 19 58 220 326 996 3860
2025-07-17 10:30 6.34 205 6920 (1993) 0 (1934) 446 4 7 12 19 58 220 326 996 3860
2025-07-17 10:00 6.36 212 6920 (1993) 0 (1934) 446 4 7 12 19 58 220 326 996 3860
2025-07-17 09:30 6.37 215 6920 (1993) 0 (1934) 446 4 7 12 19 58 220 326 996 3860
2025-07-17 09:00 6.39 222 6920 (1993) 0 (1934) 446 4 7 12 19 58 220 326 996 3860
2025-07-17 08:30 6.41 229 6920 (1993) 0 (1934) 446 4 7 12 19 58 220 326 996 3860
2025-07-17 08:00 6.44 240 6920 (1993) 0 (1934) 446 4 7 12 19 58 220 326 996 3860
2025-07-17 07:30 6.48 255 6920 (1993) 0 (1934) 446 4 7 12 19 58 220 326 996 3860
2025-07-17 07:00 6.52 270 6920 (1993) 0 (1934) 446 4 7 12 19 58 220 326 996 3860
2025-07-17 06:30 6.56 283 6920 (1993) 0 (1934) 446 4 7 12 19 58 220 326 996 3860
2025-07-17 06:00 6.62 302 6920 (1993) 0 (1934) 446 4 7 12 19 58 220 326 996 3860
2025-07-17 05:30 6.69 326 6920 (1993) 0 (1934) 446 4 7 12 19 58 220 326 996 3860
2025-07-17 05:00 6.76 350 6920 (1993) 0 (1934) 446 4 7 12 19 58 220 326 996 3860
2025-07-17 04:30 6.83 376 6920 (1993) 0 (1934) 446 4 7 12 19 58 220 326 996 3860
2025-07-17 04:00 6.80 365 6920 (1993) 0 (1934) 446 4 7 12 19 58 220 326 996 3860
2025-07-17 03:30 6.50 263 6920 (1993) 0 (1934) 446 4 7 12 19 58 220 326 996 3860
2025-07-17 03:00 6.51 267 6920 (1993) 0 (1934) 446 4 7 12 19 58 220 326 996 3860
2025-07-17 02:30 6.53 273 6920 (1993) 0 (1934) 446 4 7 12 19 58 220 326 996 3860
2025-07-17 02:00 6.55 280 6920 (1993) 0 (1934) 446 4 7 12 19 58 220 326 996 3860
2025-07-17 01:30 6.54 276 6920 (1993) 0 (1934) 446 4 7 12 19 58 220 326 996 3860
2025-07-17 01:00 6.54 276 6920 (1993) 0 (1934) 446 4 7 12 19 58 220 326 996 3860
2025-07-17 00:30 6.56 283 6920 (1993) 0 (1934) 446 4 7 12 19 58 220 326 996 3860
2025-07-17 00:00 6.56 283 6920 (1993) 0 (1934) 446 4 7 12 19 58 220 326 996 3860
2025-07-16 23:30 6.57 286 6920 (1993) 0 (1934) 446 4 7 12 19 58 220 326 996 3860
2025-07-16 23:00 6.60 296 6920 (1993) 0 (1934) 446 4 7 12 19 58 220 326 996 3860
2025-07-16 22:30 6.65 312 26300 (1993) 0 (1934) 749 4 7 12 18 71 232 415 903 3900
2025-07-16 22:00 6.72 336 26300 (1993) 0 (1934) 749 4 7 12 18 71 232 415 903 3900
2025-07-16 21:30 6.80 365 26300 (1993) 0 (1934) 749 4 7 12 18 71 232 415 903 3900
2025-07-16 21:00 6.85 384 26300 (1993) 0 (1934) 749 4 7 12 18 71 232 415 903 3900
2025-07-16 20:30 6.77 354 26300 (1993) 0 (1934) 749 4 7 12 18 71 232 415 903 3900
2025-07-16 20:00 6.41 229 26300 (1993) 0 (1934) 749 4 7 12 18 71 232 415 903 3900
2025-07-16 19:30 6.21 165 26300 (1993) 0 (1934) 749 4 7 12 18 71 232 415 903 3900
2025-07-16 19:00 6.05 123 26300 (1993) 0 (1934) 749 4 7 12 18 71 232 415 903 3900
2025-07-16 18:30 5.94 100 26300 (1993) 0 (1934) 749 4 7 12 18 71 232 415 903 3900
2025-07-16 18:00 5.98 108 26300 (1993) 0 (1934) 749 4 7 12 18 71 232 415 903 3900
2025-07-16 17:30 5.92 96 26300 (1993) 0 (1934) 749 4 7 12 18 71 232 415 903 3900
2025-07-16 17:00 5.88 88 26300 (1993) 0 (1934) 749 4 7 12 18 71 232 415 903 3900
2025-07-16 16:30 5.94 100 26300 (1993) 0 (1934) 749 4 7 12 18 71 232 415 903 3900
2025-07-16 16:00 5.92 96 26300 (1993) 0 (1934) 749 4 7 12 18 71 232 415 903 3900
2025-07-16 15:30 5.93 98 26300 (1993) 0 (1934) 749 4 7 12 18 71 232 415 903 3900
2025-07-16 15:00 5.90 92 26300 (1993) 0 (1934) 749 4 7 12 18 71 232 415 903 3900
2025-07-16 14:30 5.97 106 26300 (1993) 0 (1934) 749 4 7 12 18 71 232 415 903 3900
2025-07-16 14:00 5.92 96 26300 (1993) 0 (1934) 749 4 7 12 18 71 232 415 903 3900
2025-07-16 13:30 5.94 100 26300 (1993) 0 (1934) 749 4 7 12 18 71 232 415 903 3900
2025-07-16 13:00 6.00 112 26300 (1993) 0 (1934) 749 4 7 12 18 71 232 415 903 3900
2025-07-16 12:30 6.01 114 26300 (1993) 0 (1934) 749 4 7 12 18 71 232 415 903 3900
2025-07-16 12:00 5.99 110 26300 (1993) 0 (1934) 749 4 7 12 18 71 232 415 903 3900
2025-07-16 11:30 5.97 106 26300 (1993) 0 (1934) 749 4 7 12 18 71 232 415 903 3900
2025-07-16 11:00 6.01 114 26300 (1993) 0 (1934) 749 4 7 12 18 71 232 415 903 3900
2025-07-16 10:30 6.01 114 26300 (1993) 0 (1934) 749 4 7 12 18 71 232 415 903 3900
2025-07-16 10:00 6.02 117 26300 (1993) 0 (1934) 749 4 7 12 18 71 232 415 903 3900
2025-07-16 09:30 6.08 131 26300 (1993) 0 (1934) 749 4 7 12 18 71 232 415 903 3900
2025-07-16 09:00 6.11 138 26300 (1993) 0 (1934) 749 4 7 12 18 71 232 415 903 3900
2025-07-16 08:30 6.14 146 26300 (1993) 0 (1934) 749 4 7 12 18 71 232 415 903 3900
2025-07-16 08:00 6.16 151 26300 (1993) 0 (1934) 749 4 7 12 18 71 232 415 903 3900
2025-07-16 07:30 6.19 159 26300 (1993) 0 (1934) 749 4 7 12 18 71 232 415 903 3900
2025-07-16 07:00 6.22 168 26300 (1993) 0 (1934) 749 4 7 12 18 71 232 415 903 3900
2025-07-16 06:30 6.25 177 26300 (1993) 0 (1934) 749 4 7 12 18 71 232 415 903 3900
2025-07-16 06:00 6.27 183 26300 (1993) 0 (1934) 749 4 7 12 18 71 232 415 903 3900
2025-07-16 05:30 6.30 192 26300 (1993) 0 (1934) 749 4 7 12 18 71 232 415 903 3900
2025-07-16 05:00 6.31 195 26300 (1993) 0 (1934) 749 4 7 12 18 71 232 415 903 3900
2025-07-16 04:30 6.31 195 26300 (1993) 0 (1934) 749 4 7 12 18 71 232 415 903 3900
2025-07-16 04:00 6.29 189 26300 (1993) 0 (1934) 749 4 7 12 18 71 232 415 903 3900
2025-07-16 03:30 6.24 174 26300 (1993) 0 (1934) 749 4 7 12 18 71 232 415 903 3900
2025-07-16 03:00 6.18 157 26300 (1993) 0 (1934) 749 4 7 12 18 71 232 415 903 3900
2025-07-16 02:30 6.11 138 26300 (1993) 0 (1934) 749 4 7 12 18 71 232 415 903 3900
2025-07-16 02:00 6.05 123 26300 (1993) 0 (1934) 749 4 7 12 18 71 232 415 903 3900
2025-07-16 01:30 5.99 110 26300 (1993) 0 (1934) 749 4 7 12 18 71 232 415 903 3900
2025-07-16 01:00 5.93 98 26300 (1993) 0 (1934) 749 4 7 12 18 71 232 415 903 3900
2025-07-16 00:30 5.89 90 26300 (1993) 0 (1934) 749 4 7 12 18 71 232 415 903 3900
2025-07-16 00:00 5.87 86 26300 (1993) 0 (1934) 749 4 7 12 18 71 232 415 903 3900
2025-07-15 23:30 5.86 84 26300 (1993) 0 (1934) 749 4 7 12 18 71 232 415 903 3900
2025-07-15 23:00 5.84 81 26300 (1993) 0 (1934) 749 4 7 12 18 71 232 415 903 3900
2025-07-15 22:30 5.84 81 9330 (1993) 0 (1934) 449 5 8 14 19 63 216 349 837 2070
2025-07-15 22:00 5.83 79 9330 (1993) 0 (1934) 449 5 8 14 19 63 216 349 837 2070
2025-07-15 21:30 5.83 79 9330 (1993) 0 (1934) 449 5 8 14 19 63 216 349 837 2070
2025-07-15 21:00 5.83 79 9330 (1993) 0 (1934) 449 5 8 14 19 63 216 349 837 2070
2025-07-15 20:30 5.82 77 9330 (1993) 0 (1934) 449 5 8 14 19 63 216 349 837 2070
2025-07-15 20:00 5.82 77 9330 (1993) 0 (1934) 449 5 8 14 19 63 216 349 837 2070
2025-07-15 19:30 5.82 77 9330 (1993) 0 (1934) 449 5 8 14 19 63 216 349 837 2070
2025-07-15 19:00 5.82 77 9330 (1993) 0 (1934) 449 5 8 14 19 63 216 349 837 2070
2025-07-15 18:30 5.82 77 9330 (1993) 0 (1934) 449 5 8 14 19 63 216 349 837 2070
2025-07-15 18:00 5.82 77 9330 (1993) 0 (1934) 449 5 8 14 19 63 216 349 837 2070
2025-07-15 17:30 5.82 77 9330 (1993) 0 (1934) 449 5 8 14 19 63 216 349 837 2070
2025-07-15 17:00 5.82 77 9330 (1993) 0 (1934) 449 5 8 14 19 63 216 349 837 2070
2025-07-15 16:30 5.83 79 9330 (1993) 0 (1934) 449 5 8 14 19 63 216 349 837 2070
2025-07-15 16:00 5.83 79 9330 (1993) 0 (1934) 449 5 8 14 19 63 216 349 837 2070
2025-07-15 15:30 5.83 79 9330 (1993) 0 (1934) 449 5 8 14 19 63 216 349 837 2070
2025-07-15 15:00 5.84 81 9330 (1993) 0 (1934) 449 5 8 14 19 63 216 349 837 2070
2025-07-15 14:30 5.83 79 9330 (1993) 0 (1934) 449 5 8 14 19 63 216 349 837 2070
2025-07-15 14:00 5.84 81 9330 (1993) 0 (1934) 449 5 8 14 19 63 216 349 837 2070
2025-07-15 13:30 5.84 81 9330 (1993) 0 (1934) 449 5 8 14 19 63 216 349 837 2070
2025-07-15 13:00 5.84 81 9330 (1993) 0 (1934) 449 5 8 14 19 63 216 349 837 2070
2025-07-15 12:30 5.84 81 9330 (1993) 0 (1934) 449 5 8 14 19 63 216 349 837 2070
2025-07-15 12:00 5.84 81 9330 (1993) 0 (1934) 449 5 8 14 19 63 216 349 837 2070
2025-07-15 11:30 5.84 81 9330 (1993) 0 (1934) 449 5 8 14 19 63 216 349 837 2070
2025-07-15 11:00 5.84 81 9330 (1993) 0 (1934) 449 5 8 14 19 63 216 349 837 2070
2025-07-15 10:30 5.85 83 9330 (1993) 0 (1934) 449 5 8 14 19 63 216 349 837 2070
2025-07-15 10:00 5.85 83 9330 (1993) 0 (1934) 449 5 8 14 19 63 216 349 837 2070
2025-07-15 09:30 5.85 83 9330 (1993) 0 (1934) 449 5 8 14 19 63 216 349 837 2070
2025-07-15 09:00 5.92 96 9330 (1993) 0 (1934) 449 5 8 14 19 63 216 349 837 2070
2025-07-15 08:30 5.92 96 9330 (1993) 0 (1934) 449 5 8 14 19 63 216 349 837 2070
2025-07-15 08:00 5.93 98 9330 (1993) 0 (1934) 449 5 8 14 19 63 216 349 837 2070
2025-07-15 07:30 5.93 98 9330 (1993) 0 (1934) 449 5 8 14 19 63 216 349 837 2070
2025-07-15 07:00 5.93 98 9330 (1993) 0 (1934) 449 5 8 14 19 63 216 349 837 2070
2025-07-15 06:30 5.94 100 9330 (1993) 0 (1934) 449 5 8 14 19 63 216 349 837 2070
2025-07-15 06:00 5.94 100 9330 (1993) 0 (1934) 449 5 8 14 19 63 216 349 837 2070
2025-07-15 05:30 5.94 100 9330 (1993) 0 (1934) 449 5 8 14 19 63 216 349 837 2070
2025-07-15 05:00 5.94 100 9330 (1993) 0 (1934) 449 5 8 14 19 63 216 349 837 2070
2025-07-15 04:30 5.94 100 9330 (1993) 0 (1934) 449 5 8 14 19 63 216 349 837 2070
2025-07-15 04:00 5.95 102 9330 (1993) 0 (1934) 449 5 8 14 19 63 216 349 837 2070
2025-07-15 03:30 5.95 102 9330 (1993) 0 (1934) 449 5 8 14 19 63 216 349 837 2070
2025-07-15 03:00 5.95 102 9330 (1993) 0 (1934) 449 5 8 14 19 63 216 349 837 2070
2025-07-15 02:30 5.95 102 9330 (1993) 0 (1934) 449 5 8 14 19 63 216 349 837 2070
2025-07-15 02:00 5.96 104 9330 (1993) 0 (1934) 449 5 8 14 19 63 216 349 837 2070
2025-07-15 01:30 5.96 104 9330 (1993) 0 (1934) 449 5 8 14 19 63 216 349 837 2070
2025-07-15 01:00 5.96 104 9330 (1993) 0 (1934) 449 5 8 14 19 63 216 349 837 2070
2025-07-15 00:30 5.96 104 9330 (1993) 0 (1934) 449 5 8 14 19 63 216 349 837 2070
2025-07-15 00:00 5.96 104 9330 (1993) 0 (1934) 449 5 8 14 19 63 216 349 837 2070
2025-07-14 23:30 5.97 106 9330 (1993) 0 (1934) 449 5 8 14 19 63 216 349 837 2070
2025-07-14 23:00 5.97 106 9330 (1993) 0 (1934) 449 5 8 14 19 63 216 349 837 2070
2025-07-14 22:30 5.97 106 4870 (1955) 0 (1934) 335 5 7 14 20 72 354 446 944 1450
2025-07-14 22:00 5.97 106 4870 (1955) 0 (1934) 335 5 7 14 20 72 354 446 944 1450
2025-07-14 21:30 5.97 106 4870 (1955) 0 (1934) 335 5 7 14 20 72 354 446 944 1450
2025-07-14 21:00 5.97 106 4870 (1955) 0 (1934) 335 5 7 14 20 72 354 446 944 1450
2025-07-14 20:30 5.97 106 4870 (1955) 0 (1934) 335 5 7 14 20 72 354 446 944 1450
2025-07-14 20:00 5.98 108 4870 (1955) 0 (1934) 335 5 7 14 20 72 354 446 944 1450
2025-07-14 19:30 5.98 108 4870 (1955) 0 (1934) 335 5 7 14 20 72 354 446 944 1450
2025-07-14 19:00 5.98 108 4870 (1955) 0 (1934) 335 5 7 14 20 72 354 446 944 1450
2025-07-14 18:30 5.98 108 4870 (1955) 0 (1934) 335 5 7 14 20 72 354 446 944 1450
2025-07-14 18:00 5.98 108 4870 (1955) 0 (1934) 335 5 7 14 20 72 354 446 944 1450
2025-07-14 17:30 5.99 110 4870 (1955) 0 (1934) 335 5 7 14 20 72 354 446 944 1450
2025-07-14 17:00 5.99 110 4870 (1955) 0 (1934) 335 5 7 14 20 72 354 446 944 1450
2025-07-14 16:30 6.00 112 4870 (1955) 0 (1934) 335 5 7 14 20 72 354 446 944 1450
2025-07-14 16:00 6.00 112 4870 (1955) 0 (1934) 335 5 7 14 20 72 354 446 944 1450
2025-07-14 15:30 6.01 114 4870 (1955) 0 (1934) 335 5 7 14 20 72 354 446 944 1450
2025-07-14 15:00 6.01 114 4870 (1955) 0 (1934) 335 5 7 14 20 72 354 446 944 1450
2025-07-14 14:30 5.96 104 4870 (1955) 0 (1934) 335 5 7 14 20 72 354 446 944 1450
2025-07-14 14:00 6.01 114 4870 (1955) 0 (1934) 335 5 7 14 20 72 354 446 944 1450
2025-07-14 13:30 6.01 114 4870 (1955) 0 (1934) 335 5 7 14 20 72 354 446 944 1450
2025-07-14 13:00 6.02 117 4870 (1955) 0 (1934) 335 5 7 14 20 72 354 446 944 1450
2025-07-14 12:30 6.00 112 4870 (1955) 0 (1934) 335 5 7 14 20 72 354 446 944 1450
2025-07-14 12:00 6.02 117 4870 (1955) 0 (1934) 335 5 7 14 20 72 354 446 944 1450
2025-07-14 11:30 6.02 117 4870 (1955) 0 (1934) 335 5 7 14 20 72 354 446 944 1450
2025-07-14 11:00 6.03 119 4870 (1955) 0 (1934) 335 5 7 14 20 72 354 446 944 1450
2025-07-14 10:30 5.97 106 4870 (1955) 0 (1934) 335 5 7 14 20 72 354 446 944 1450
2025-07-14 10:00 5.97 106 4870 (1955) 0 (1934) 335 5 7 14 20 72 354 446 944 1450
2025-07-14 09:30 5.96 104 4870 (1955) 0 (1934) 335 5 7 14 20 72 354 446 944 1450
2025-07-14 09:00 6.04 121 4870 (1955) 0 (1934) 335 5 7 14 20 72 354 446 944 1450
2025-07-14 08:30 6.04 121 4870 (1955) 0 (1934) 335 5 7 14 20 72 354 446 944 1450
2025-07-14 08:00 6.04 121 4870 (1955) 0 (1934) 335 5 7 14 20 72 354 446 944 1450
2025-07-14 07:30 6.04 121 4870 (1955) 0 (1934) 335 5 7 14 20 72 354 446 944 1450
2025-07-14 07:00 6.03 119 4870 (1955) 0 (1934) 335 5 7 14 20 72 354 446 944 1450
2025-07-14 06:30 6.03 119 4870 (1955) 0 (1934) 335 5 7 14 20 72 354 446 944 1450
2025-07-14 06:00 6.02 117 4870 (1955) 0 (1934) 335 5 7 14 20 72 354 446 944 1450
2025-07-14 05:30 6.00 112 4870 (1955) 0 (1934) 335 5 7 14 20 72 354 446 944 1450
2025-07-14 05:00 5.99 110 4870 (1955) 0 (1934) 335 5 7 14 20 72 354 446 944 1450
2025-07-14 04:30 5.97 106 4870 (1955) 0 (1934) 335 5 7 14 20 72 354 446 944 1450
2025-07-14 04:00 5.95 102 4870 (1955) 0 (1934) 335 5 7 14 20 72 354 446 944 1450
2025-07-14 03:30 5.93 98 4870 (1955) 0 (1934) 335 5 7 14 20 72 354 446 944 1450
2025-07-14 03:00 5.91 94 4870 (1955) 0 (1934) 335 5 7 14 20 72 354 446 944 1450
2025-07-14 02:30 5.90 92 4870 (1955) 0 (1934) 335 5 7 14 20 72 354 446 944 1450
2025-07-14 02:00 5.90 92 4870 (1955) 0 (1934) 335 5 7 14 20 72 354 446 944 1450
2025-07-14 01:30 5.89 90 4870 (1955) 0 (1934) 335 5 7 14 20 72 354 446 944 1450
2025-07-14 01:00 5.89 90 4870 (1955) 0 (1934) 335 5 7 14 20 72 354 446 944 1450
2025-07-14 00:30 5.89 90 4870 (1955) 0 (1934) 335 5 7 14 20 72 354 446 944 1450
2025-07-14 00:00 5.89 90 4870 (1955) 0 (1934) 335 5 7 14 20 72 354 446 944 1450
2025-07-13 23:30 5.89 90 4870 (1955) 0 (1934) 335 5 7 14 20 72 354 446 944 1450
2025-07-13 23:00 5.89 90 4870 (1955) 0 (1934) 335 5 7 14 20 72 354 446 944 1450
2025-07-13 22:30 5.89 90 6110 (2021) 0 (1934) 344 6 7 15 21 71 316 423 926 1540
2025-07-13 22:00 5.89 90 6110 (2021) 0 (1934) 344 6 7 15 21 71 316 423 926 1540
2025-07-13 21:30 5.89 90 6110 (2021) 0 (1934) 344 6 7 15 21 71 316 423 926 1540
2025-07-13 21:00 5.90 92 6110 (2021) 0 (1934) 344 6 7 15 21 71 316 423 926 1540
2025-07-13 20:30 5.90 92 6110 (2021) 0 (1934) 344 6 7 15 21 71 316 423 926 1540
2025-07-13 20:00 5.90 92 6110 (2021) 0 (1934) 344 6 7 15 21 71 316 423 926 1540
2025-07-13 19:30 5.90 92 6110 (2021) 0 (1934) 344 6 7 15 21 71 316 423 926 1540
2025-07-13 19:00 5.90 92 6110 (2021) 0 (1934) 344 6 7 15 21 71 316 423 926 1540
2025-07-13 18:30 5.90 92 6110 (2021) 0 (1934) 344 6 7 15 21 71 316 423 926 1540
2025-07-13 18:00 5.86 84 6110 (2021) 0 (1934) 344 6 7 15 21 71 316 423 926 1540
2025-07-13 17:30 5.90 92 6110 (2021) 0 (1934) 344 6 7 15 21 71 316 423 926 1540
2025-07-13 17:00 5.90 92 6110 (2021) 0 (1934) 344 6 7 15 21 71 316 423 926 1540
2025-07-13 16:30 5.90 92 6110 (2021) 0 (1934) 344 6 7 15 21 71 316 423 926 1540
2025-07-13 16:00 5.90 92 6110 (2021) 0 (1934) 344 6 7 15 21 71 316 423 926 1540
2025-07-13 15:30 5.90 92 6110 (2021) 0 (1934) 344 6 7 15 21 71 316 423 926 1540
2025-07-13 15:00 5.86 84 6110 (2021) 0 (1934) 344 6 7 15 21 71 316 423 926 1540
2025-07-13 14:30 5.91 94 6110 (2021) 0 (1934) 344 6 7 15 21 71 316 423 926 1540
2025-07-13 14:00 5.89 90 6110 (2021) 0 (1934) 344 6 7 15 21 71 316 423 926 1540
2025-07-13 13:30 5.90 92 6110 (2021) 0 (1934) 344 6 7 15 21 71 316 423 926 1540
2025-07-13 13:00 5.90 92 6110 (2021) 0 (1934) 344 6 7 15 21 71 316 423 926 1540
2025-07-13 12:30 5.91 94 6110 (2021) 0 (1934) 344 6 7 15 21 71 316 423 926 1540
2025-07-13 12:00 5.84 81 6110 (2021) 0 (1934) 344 6 7 15 21 71 316 423 926 1540
2025-07-13 11:30 5.91 94 6110 (2021) 0 (1934) 344 6 7 15 21 71 316 423 926 1540
2025-07-13 11:00 5.90 92 6110 (2021) 0 (1934) 344 6 7 15 21 71 316 423 926 1540
2025-07-13 10:30 5.91 94 6110 (2021) 0 (1934) 344 6 7 15 21 71 316 423 926 1540
2025-07-13 10:00 5.91 94 6110 (2021) 0 (1934) 344 6 7 15 21 71 316 423 926 1540
2025-07-13 09:30 5.91 94 6110 (2021) 0 (1934) 344 6 7 15 21 71 316 423 926 1540
2025-07-13 09:00 5.91 94 6110 (2021) 0 (1934) 344 6 7 15 21 71 316 423 926 1540
2025-07-13 08:30 5.91 94 6110 (2021) 0 (1934) 344 6 7 15 21 71 316 423 926 1540
2025-07-13 08:00 5.91 94 6110 (2021) 0 (1934) 344 6 7 15 21 71 316 423 926 1540
2025-07-13 07:30 5.92 96 6110 (2021) 0 (1934) 344 6 7 15 21 71 316 423 926 1540
2025-07-13 07:00 5.92 96 6110 (2021) 0 (1934) 344 6 7 15 21 71 316 423 926 1540
2025-07-13 06:30 5.92 96 6110 (2021) 0 (1934) 344 6 7 15 21 71 316 423 926 1540
2025-07-13 06:00 5.92 96 6110 (2021) 0 (1934) 344 6 7 15 21 71 316 423 926 1540
2025-07-13 05:30 5.92 96 6110 (2021) 0 (1934) 344 6 7 15 21 71 316 423 926 1540
2025-07-13 05:00 5.92 96 6110 (2021) 0 (1934) 344 6 7 15 21 71 316 423 926 1540
2025-07-13 04:30 5.93 98 6110 (2021) 0 (1934) 344 6 7 15 21 71 316 423 926 1540
2025-07-13 04:00 5.93 98 6110 (2021) 0 (1934) 344 6 7 15 21 71 316 423 926 1540
2025-07-13 03:30 5.93 98 6110 (2021) 0 (1934) 344 6 7 15 21 71 316 423 926 1540
2025-07-13 03:00 5.93 98 6110 (2021) 0 (1934) 344 6 7 15 21 71 316 423 926 1540
2025-07-13 02:30 5.93 98 6110 (2021) 0 (1934) 344 6 7 15 21 71 316 423 926 1540
2025-07-13 02:00 5.93 98 6110 (2021) 0 (1934) 344 6 7 15 21 71 316 423 926 1540
2025-07-13 01:30 5.94 100 6110 (2021) 0 (1934) 344 6 7 15 21 71 316 423 926 1540
2025-07-13 01:00 5.94 100 6110 (2021) 0 (1934) 344 6 7 15 21 71 316 423 926 1540
2025-07-13 00:30 5.94 100 6110 (2021) 0 (1934) 344 6 7 15 21 71 316 423 926 1540
2025-07-13 00:00 5.94 100 6110 (2021) 0 (1934) 344 6 7 15 21 71 316 423 926 1540
2025-07-12 23:30 5.95 102 6110 (2021) 0 (1934) 344 6 7 15 21 71 316 423 926 1540
2025-07-12 23:00 5.95 102 6110 (2021) 0 (1934) 344 6 7 15 21 71 316 423 926 1540
2025-07-12 22:30 5.95 102 12300 (1991) 0 (1934) 510 6 8 15 24 78 325 500 1080 3010
2025-07-12 22:00 5.95 102 12300 (1991) 0 (1934) 510 6 8 15 24 78 325 500 1080 3010
2025-07-12 21:30 5.95 102 12300 (1991) 0 (1934) 510 6 8 15 24 78 325 500 1080 3010
2025-07-12 21:00 5.96 104 12300 (1991) 0 (1934) 510 6 8 15 24 78 325 500 1080 3010
2025-07-12 20:30 5.96 104 12300 (1991) 0 (1934) 510 6 8 15 24 78 325 500 1080 3010
2025-07-12 20:00 5.96 104 12300 (1991) 0 (1934) 510 6 8 15 24 78 325 500 1080 3010
2025-07-12 19:30 5.97 106 12300 (1991) 0 (1934) 510 6 8 15 24 78 325 500 1080 3010
2025-07-12 19:00 5.97 106 12300 (1991) 0 (1934) 510 6 8 15 24 78 325 500 1080 3010
2025-07-12 18:30 5.97 106 12300 (1991) 0 (1934) 510 6 8 15 24 78 325 500 1080 3010
2025-07-12 18:00 5.98 108 12300 (1991) 0 (1934) 510 6 8 15 24 78 325 500 1080 3010
2025-07-12 17:30 5.98 108 12300 (1991) 0 (1934) 510 6 8 15 24 78 325 500 1080 3010
2025-07-12 17:00 5.99 110 12300 (1991) 0 (1934) 510 6 8 15 24 78 325 500 1080 3010
2025-07-12 16:30 5.97 106 12300 (1991) 0 (1934) 510 6 8 15 24 78 325 500 1080 3010
2025-07-12 16:00 5.93 98 12300 (1991) 0 (1934) 510 6 8 15 24 78 325 500 1080 3010
2025-07-12 15:30 5.99 110 12300 (1991) 0 (1934) 510 6 8 15 24 78 325 500 1080 3010
2025-07-12 15:00 5.97 106 12300 (1991) 0 (1934) 510 6 8 15 24 78 325 500 1080 3010
2025-07-12 14:30 6.00 112 12300 (1991) 0 (1934) 510 6 8 15 24 78 325 500 1080 3010
2025-07-12 14:00 5.96 104 12300 (1991) 0 (1934) 510 6 8 15 24 78 325 500 1080 3010
2025-07-12 13:30 5.95 102 12300 (1991) 0 (1934) 510 6 8 15 24 78 325 500 1080 3010
2025-07-12 13:00 6.00 112 12300 (1991) 0 (1934) 510 6 8 15 24 78 325 500 1080 3010
2025-07-12 12:30 6.00 112 12300 (1991) 0 (1934) 510 6 8 15 24 78 325 500 1080 3010
2025-07-12 12:00 6.01 114 12300 (1991) 0 (1934) 510 6 8 15 24 78 325 500 1080 3010
2025-07-12 11:30 5.96 104 12300 (1991) 0 (1934) 510 6 8 15 24 78 325 500 1080 3010
2025-07-12 11:00 6.00 112 12300 (1991) 0 (1934) 510 6 8 15 24 78 325 500 1080 3010
2025-07-12 10:30 6.01 114 12300 (1991) 0 (1934) 510 6 8 15 24 78 325 500 1080 3010
2025-07-12 10:00 6.00 112 12300 (1991) 0 (1934) 510 6 8 15 24 78 325 500 1080 3010
2025-07-12 09:30 6.02 117 12300 (1991) 0 (1934) 510 6 8 15 24 78 325 500 1080 3010
2025-07-12 09:00 6.03 119 12300 (1991) 0 (1934) 510 6 8 15 24 78 325 500 1080 3010
2025-07-12 08:30 6.04 121 12300 (1991) 0 (1934) 510 6 8 15 24 78 325 500 1080 3010
2025-07-12 08:00 6.04 121 12300 (1991) 0 (1934) 510 6 8 15 24 78 325 500 1080 3010
2025-07-12 07:30 6.05 123 12300 (1991) 0 (1934) 510 6 8 15 24 78 325 500 1080 3010
2025-07-12 07:00 6.05 123 12300 (1991) 0 (1934) 510 6 8 15 24 78 325 500 1080 3010
2025-07-12 06:30 6.06 126 12300 (1991) 0 (1934) 510 6 8 15 24 78 325 500 1080 3010
2025-07-12 06:00 6.06 126 12300 (1991) 0 (1934) 510 6 8 15 24 78 325 500 1080 3010
2025-07-12 05:30 6.07 128 12300 (1991) 0 (1934) 510 6 8 15 24 78 325 500 1080 3010
2025-07-12 05:00 6.08 131 12300 (1991) 0 (1934) 510 6 8 15 24 78 325 500 1080 3010
2025-07-12 04:30 6.08 131 12300 (1991) 0 (1934) 510 6 8 15 24 78 325 500 1080 3010
2025-07-12 04:00 6.08 131 12300 (1991) 0 (1934) 510 6 8 15 24 78 325 500 1080 3010
2025-07-12 03:30 6.08 131 12300 (1991) 0 (1934) 510 6 8 15 24 78 325 500 1080 3010
2025-07-12 03:00 6.05 123 12300 (1991) 0 (1934) 510 6 8 15 24 78 325 500 1080 3010
2025-07-12 02:30 6.07 128 12300 (1991) 0 (1934) 510 6 8 15 24 78 325 500 1080 3010
2025-07-12 02:00 6.00 112 12300 (1991) 0 (1934) 510 6 8 15 24 78 325 500 1080 3010
2025-07-12 01:30 6.03 119 12300 (1991) 0 (1934) 510 6 8 15 24 78 325 500 1080 3010
2025-07-12 01:00 114 12300 (1991) 0 (1934) 510 6 8 15 24 78 325 500 1080 3010
2025-07-12 00:30 112 12300 (1991) 0 (1934) 510 6 8 15 24 78 325 500 1080 3010
2025-07-12 00:00 102 12300 (1991) 0 (1934) 510 6 8 15 24 78 325 500 1080 3010
2025-07-11 23:30 5.94 100 12300 (1991) 0 (1934) 510 6 8 15 24 78 325 500 1080 3010
2025-07-11 23:00 112 12300 (1991) 0 (1934) 510 6 8 15 24 78 325 500 1080 3010
2025-07-11 22:30 6.00 112 25000 (1991) 1 (1934) 815 6 9 16 22 78 263 394 1460 2750
2025-07-11 22:00 6.00 112 25000 (1991) 1 (1934) 815 6 9 16 22 78 263 394 1460 2750
2025-07-11 21:30 6.01 114 25000 (1991) 1 (1934) 815 6 9 16 22 78 263 394 1460 2750
2025-07-11 21:00 6.01 114 25000 (1991) 1 (1934) 815 6 9 16 22 78 263 394 1460 2750
2025-07-11 20:30 6.01 114 25000 (1991) 1 (1934) 815 6 9 16 22 78 263 394 1460 2750
2025-07-11 20:00 6.00 112 25000 (1991) 1 (1934) 815 6 9 16 22 78 263 394 1460 2750
2025-07-11 19:30 6.02 117 25000 (1991) 1 (1934) 815 6 9 16 22 78 263 394 1460 2750
2025-07-11 19:00 6.01 114 25000 (1991) 1 (1934) 815 6 9 16 22 78 263 394 1460 2750
2025-07-11 18:30 6.02 117 25000 (1991) 1 (1934) 815 6 9 16 22 78 263 394 1460 2750
2025-07-11 18:00 6.03 119 25000 (1991) 1 (1934) 815 6 9 16 22 78 263 394 1460 2750
2025-07-11 17:30 6.01 114 25000 (1991) 1 (1934) 815 6 9 16 22 78 263 394 1460 2750
2025-07-11 17:00 6.03 119 25000 (1991) 1 (1934) 815 6 9 16 22 78 263 394 1460 2750
2025-07-11 16:30 6.04 121 25000 (1991) 1 (1934) 815 6 9 16 22 78 263 394 1460 2750
2025-07-11 16:00 6.04 121 25000 (1991) 1 (1934) 815 6 9 16 22 78 263 394 1460 2750
2025-07-11 15:30 5.99 110 25000 (1991) 1 (1934) 815 6 9 16 22 78 263 394 1460 2750
2025-07-11 15:00 6.05 123 25000 (1991) 1 (1934) 815 6 9 16 22 78 263 394 1460 2750
2025-07-11 14:30 6.03 119 25000 (1991) 1 (1934) 815 6 9 16 22 78 263 394 1460 2750
2025-07-11 14:00 6.06 126 25000 (1991) 1 (1934) 815 6 9 16 22 78 263 394 1460 2750
2025-07-11 13:30 6.04 121 25000 (1991) 1 (1934) 815 6 9 16 22 78 263 394 1460 2750
2025-07-11 13:00 6.07 128 25000 (1991) 1 (1934) 815 6 9 16 22 78 263 394 1460 2750
2025-07-11 12:30 6.07 128 25000 (1991) 1 (1934) 815 6 9 16 22 78 263 394 1460 2750
2025-07-11 12:00 6.07 128 25000 (1991) 1 (1934) 815 6 9 16 22 78 263 394 1460 2750
2025-07-11 11:30 6.07 128 25000 (1991) 1 (1934) 815 6 9 16 22 78 263 394 1460 2750
2025-07-11 11:00 6.08 131 25000 (1991) 1 (1934) 815 6 9 16 22 78 263 394 1460 2750
2025-07-11 10:30 6.08 131 25000 (1991) 1 (1934) 815 6 9 16 22 78 263 394 1460 2750
2025-07-11 10:00 6.08 131 25000 (1991) 1 (1934) 815 6 9 16 22 78 263 394 1460 2750
2025-07-11 09:30 6.08 131 25000 (1991) 1 (1934) 815 6 9 16 22 78 263 394 1460 2750
2025-07-11 09:00 6.09 133 25000 (1991) 1 (1934) 815 6 9 16 22 78 263 394 1460 2750
2025-07-11 08:30 6.09 133 25000 (1991) 1 (1934) 815 6 9 16 22 78 263 394 1460 2750
2025-07-11 08:00 6.10 136 25000 (1991) 1 (1934) 815 6 9 16 22 78 263 394 1460 2750
2025-07-11 07:30 6.10 136 25000 (1991) 1 (1934) 815 6 9 16 22 78 263 394 1460 2750
2025-07-11 07:00 6.11 138 25000 (1991) 1 (1934) 815 6 9 16 22 78 263 394 1460 2750
2025-07-11 06:30 6.11 138 25000 (1991) 1 (1934) 815 6 9 16 22 78 263 394 1460 2750
2025-07-11 06:00 6.12 141 25000 (1991) 1 (1934) 815 6 9 16 22 78 263 394 1460 2750
2025-07-11 05:30 6.12 141 25000 (1991) 1 (1934) 815 6 9 16 22 78 263 394 1460 2750
2025-07-11 05:00 6.12 141 25000 (1991) 1 (1934) 815 6 9 16 22 78 263 394 1460 2750
2025-07-11 04:30 6.13 143 25000 (1991) 1 (1934) 815 6 9 16 22 78 263 394 1460 2750
2025-07-11 04:00 6.13 143 25000 (1991) 1 (1934) 815 6 9 16 22 78 263 394 1460 2750
2025-07-11 03:30 6.14 146 25000 (1991) 1 (1934) 815 6 9 16 22 78 263 394 1460 2750
2025-07-11 03:00 6.14 146 25000 (1991) 1 (1934) 815 6 9 16 22 78 263 394 1460 2750
2025-07-11 02:30 148 25000 (1991) 1 (1934) 815 6 9 16 22 78 263 394 1460 2750
2025-07-11 02:00 6.15 148 25000 (1991) 1 (1934) 815 6 9 16 22 78 263 394 1460 2750
2025-07-11 01:30 6.16 151 25000 (1991) 1 (1934) 815 6 9 16 22 78 263 394 1460 2750
2025-07-11 01:00 6.16 151 25000 (1991) 1 (1934) 815 6 9 16 22 78 263 394 1460 2750
2025-07-11 00:30 6.17 154 25000 (1991) 1 (1934) 815 6 9 16 22 78 263 394 1460 2750
2025-07-11 00:00 6.17 154 25000 (1991) 1 (1934) 815 6 9 16 22 78 263 394 1460 2750
2025-07-10 23:30 6.18 157 25000 (1991) 1 (1934) 815 6 9 16 22 78 263 394 1460 2750
2025-07-10 23:00 6.18 157 25000 (1991) 1 (1934) 815 6 9 16 22 78 263 394 1460 2750
2025-07-10 22:30 6.19 159 17400 (1969) 1 (1934) 900 5 10 15 23 71 260 372 2540 5850
2025-07-10 22:00 6.19 159 17400 (1969) 1 (1934) 900 5 10 15 23 71 260 372 2540 5850
2025-07-10 21:30 6.20 162 17400 (1969) 1 (1934) 900 5 10 15 23 71 260 372 2540 5850
2025-07-10 21:00 6.20 162 17400 (1969) 1 (1934) 900 5 10 15 23 71 260 372 2540 5850
2025-07-10 20:30 6.21 165 17400 (1969) 1 (1934) 900 5 10 15 23 71 260 372 2540 5850
2025-07-10 20:00 6.22 168 17400 (1969) 1 (1934) 900 5 10 15 23 71 260 372 2540 5850
2025-07-10 19:30 6.22 168 17400 (1969) 1 (1934) 900 5 10 15 23 71 260 372 2540 5850
2025-07-10 19:00 6.23 171 17400 (1969) 1 (1934) 900 5 10 15 23 71 260 372 2540 5850
2025-07-10 18:30 6.24 174 17400 (1969) 1 (1934) 900 5 10 15 23 71 260 372 2540 5850
2025-07-10 18:00 6.24 174 17400 (1969) 1 (1934) 900 5 10 15 23 71 260 372 2540 5850
2025-07-10 17:30 6.25 177 17400 (1969) 1 (1934) 900 5 10 15 23 71 260 372 2540 5850
2025-07-10 17:00 6.26 180 17400 (1969) 1 (1934) 900 5 10 15 23 71 260 372 2540 5850
2025-07-10 16:30 6.27 183 17400 (1969) 1 (1934) 900 5 10 15 23 71 260 372 2540 5850
2025-07-10 16:00 6.27 183 17400 (1969) 1 (1934) 900 5 10 15 23 71 260 372 2540 5850
2025-07-10 15:30 6.28 186 17400 (1969) 1 (1934) 900 5 10 15 23 71 260 372 2540 5850
2025-07-10 15:00 6.29 189 17400 (1969) 1 (1934) 900 5 10 15 23 71 260 372 2540 5850
2025-07-10 14:30 6.30 192 17400 (1969) 1 (1934) 900 5 10 15 23 71 260 372 2540 5850
2025-07-10 14:00 6.29 189 17400 (1969) 1 (1934) 900 5 10 15 23 71 260 372 2540 5850
2025-07-10 13:30 6.31 195 17400 (1969) 1 (1934) 900 5 10 15 23 71 260 372 2540 5850
2025-07-10 13:00 6.32 199 17400 (1969) 1 (1934) 900 5 10 15 23 71 260 372 2540 5850
2025-07-10 12:30 6.33 202 17400 (1969) 1 (1934) 900 5 10 15 23 71 260 372 2540 5850
2025-07-10 12:00 6.33 202 17400 (1969) 1 (1934) 900 5 10 15 23 71 260 372 2540 5850
2025-07-10 11:30 6.34 205 17400 (1969) 1 (1934) 900 5 10 15 23 71 260 372 2540 5850
2025-07-10 11:00 6.35 208 17400 (1969) 1 (1934) 900 5 10 15 23 71 260 372 2540 5850
2025-07-10 10:30 6.36 212 17400 (1969) 1 (1934) 900 5 10 15 23 71 260 372 2540 5850
2025-07-10 10:00 6.37 215 17400 (1969) 1 (1934) 900 5 10 15 23 71 260 372 2540 5850
2025-07-10 09:30 6.38 219 17400 (1969) 1 (1934) 900 5 10 15 23 71 260 372 2540 5850
2025-07-10 09:00 6.38 219 17400 (1969) 1 (1934) 900 5 10 15 23 71 260 372 2540 5850
2025-07-10 08:30 6.39 222 17400 (1969) 1 (1934) 900 5 10 15 23 71 260 372 2540 5850
2025-07-10 08:00 6.41 229 17400 (1969) 1 (1934) 900 5 10 15 23 71 260 372 2540 5850
2025-07-10 07:30 6.42 233 17400 (1969) 1 (1934) 900 5 10 15 23 71 260 372 2540 5850
2025-07-10 07:00 6.43 237 17400 (1969) 1 (1934) 900 5 10 15 23 71 260 372 2540 5850
2025-07-10 06:30 6.44 240 17400 (1969) 1 (1934) 900 5 10 15 23 71 260 372 2540 5850
2025-07-10 06:00 6.45 244 17400 (1969) 1 (1934) 900 5 10 15 23 71 260 372 2540 5850
2025-07-10 05:30 6.46 248 17400 (1969) 1 (1934) 900 5 10 15 23 71 260 372 2540 5850
2025-07-10 05:00 6.47 251 17400 (1969) 1 (1934) 900 5 10 15 23 71 260 372 2540 5850
2025-07-10 04:30 6.48 255 17400 (1969) 1 (1934) 900 5 10 15 23 71 260 372 2540 5850
2025-07-10 04:00 6.50 263 17400 (1969) 1 (1934) 900 5 10 15 23 71 260 372 2540 5850
2025-07-10 03:30 6.51 267 17400 (1969) 1 (1934) 900 5 10 15 23 71 260 372 2540 5850
2025-07-10 03:00 6.52 270 17400 (1969) 1 (1934) 900 5 10 15 23 71 260 372 2540 5850
2025-07-10 02:30 6.53 273 17400 (1969) 1 (1934) 900 5 10 15 23 71 260 372 2540 5850
2025-07-10 02:00 6.55 280 17400 (1969) 1 (1934) 900 5 10 15 23 71 260 372 2540 5850
2025-07-10 01:30 6.56 283 17400 (1969) 1 (1934) 900 5 10 15 23 71 260 372 2540 5850
2025-07-10 01:00 6.57 286 17400 (1969) 1 (1934) 900 5 10 15 23 71 260 372 2540 5850
2025-07-10 00:30 6.59 292 17400 (1969) 1 (1934) 900 5 10 15 23 71 260 372 2540 5850
2025-07-10 00:00 6.60 296 17400 (1969) 1 (1934) 900 5 10 15 23 71 260 372 2540 5850
2025-07-09 23:30 6.62 302 17400 (1969) 1 (1934) 900 5 10 15 23 71 260 372 2540 5850
2025-07-09 23:00 6.63 305 17400 (1969) 1 (1934) 900 5 10 15 23 71 260 372 2540 5850
2025-07-09 22:30 6.65 312 16100 (2015) 0 (1934) 666 5 10 16 20 69 235 320 1060 4500
2025-07-09 22:00 6.66 315 16100 (2015) 0 (1934) 666 5 10 16 20 69 235 320 1060 4500
2025-07-09 21:30 6.68 322 16100 (2015) 0 (1934) 666 5 10 16 20 69 235 320 1060 4500
2025-07-09 21:00 6.69 326 16100 (2015) 0 (1934) 666 5 10 16 20 69 235 320 1060 4500
2025-07-09 20:30 6.71 333 16100 (2015) 0 (1934) 666 5 10 16 20 69 235 320 1060 4500
2025-07-09 20:00 6.73 340 16100 (2015) 0 (1934) 666 5 10 16 20 69 235 320 1060 4500
2025-07-09 19:30 6.75 347 16100 (2015) 0 (1934) 666 5 10 16 20 69 235 320 1060 4500
2025-07-09 19:00 6.78 358 16100 (2015) 0 (1934) 666 5 10 16 20 69 235 320 1060 4500
2025-07-09 18:30 6.80 365 16100 (2015) 0 (1934) 666 5 10 16 20 69 235 320 1060 4500
2025-07-09 18:00 6.82 372 16100 (2015) 0 (1934) 666 5 10 16 20 69 235 320 1060 4500
2025-07-09 17:30 6.85 384 16100 (2015) 0 (1934) 666 5 10 16 20 69 235 320 1060 4500
2025-07-09 17:00 6.87 391 16100 (2015) 0 (1934) 666 5 10 16 20 69 235 320 1060 4500
2025-07-09 16:30 6.89 399 16100 (2015) 0 (1934) 666 5 10 16 20 69 235 320 1060 4500
2025-07-09 16:00 6.92 411 16100 (2015) 0 (1934) 666 5 10 16 20 69 235 320 1060 4500
2025-07-09 15:30 6.95 423 16100 (2015) 0 (1934) 666 5 10 16 20 69 235 320 1060 4500
2025-07-09 15:00 6.98 435 16100 (2015) 0 (1934) 666 5 10 16 20 69 235 320 1060 4500
2025-07-09 14:30 7.01 447 16100 (2015) 0 (1934) 666 5 10 16 20 69 235 320 1060 4500
2025-07-09 14:00 7.03 456 16100 (2015) 0 (1934) 666 5 10 16 20 69 235 320 1060 4500
2025-07-09 13:30 7.07 473 16100 (2015) 0 (1934) 666 5 10 16 20 69 235 320 1060 4500
2025-07-09 13:00 7.10 486 16100 (2015) 0 (1934) 666 5 10 16 20 69 235 320 1060 4500
2025-07-09 12:30 7.13 499 16100 (2015) 0 (1934) 666 5 10 16 20 69 235 320 1060 4500
2025-07-09 12:00 7.17 517 16100 (2015) 0 (1934) 666 5 10 16 20 69 235 320 1060 4500
2025-07-09 11:30 7.20 531 16100 (2015) 0 (1934) 666 5 10 16 20 69 235 320 1060 4500
2025-07-09 11:00 7.24 549 16100 (2015) 0 (1934) 666 5 10 16 20 69 235 320 1060 4500
2025-07-09 10:30 7.28 568 16100 (2015) 0 (1934) 666 5 10 16 20 69 235 320 1060 4500
2025-07-09 10:00 7.32 588 16100 (2015) 0 (1934) 666 5 10 16 20 69 235 320 1060 4500
2025-07-09 09:30 7.37 612 16100 (2015) 0 (1934) 666 5 10 16 20 69 235 320 1060 4500
2025-07-09 09:00 7.42 638 16100 (2015) 0 (1934) 666 5 10 16 20 69 235 320 1060 4500
2025-07-09 08:00 7.54 701 16100 (2015) 0 (1934) 666 5 10 16 20 69 235 320 1060 4500
2025-07-09 07:30 7.59 729 16100 (2015) 0 (1934) 666 5 10 16 20 69 235 320 1060 4500
2025-07-09 07:00 7.67 774 16100 (2015) 0 (1934) 666 5 10 16 20 69 235 320 1060 4500
2025-07-09 06:30 7.75 821 16100 (2015) 0 (1934) 666 5 10 16 20 69 235 320 1060 4500
2025-07-09 06:00 7.84 875 16100 (2015) 0 (1934) 666 5 10 16 20 69 235 320 1060 4500
2025-07-09 05:30 7.92 926 16100 (2015) 0 (1934) 666 5 10 16 20 69 235 320 1060 4500
2025-07-09 05:00 8.04 1000 16100 (2015) 0 (1934) 666 5 10 16 20 69 235 320 1060 4500
2025-07-09 04:30 8.14 1070 16100 (2015) 0 (1934) 666 5 10 16 20 69 235 320 1060 4500
2025-07-09 04:00 8.24 1140 16100 (2015) 0 (1934) 666 5 10 16 20 69 235 320 1060 4500
2025-07-09 03:30 8.33 1210 16100 (2015) 0 (1934) 666 5 10 16 20 69 235 320 1060 4500
2025-07-09 03:00 8.40 1260 16100 (2015) 0 (1934) 666 5 10 16 20 69 235 320 1060 4500
2025-07-09 02:30 8.40 1260 16100 (2015) 0 (1934) 666 5 10 16 20 69 235 320 1060 4500
2025-07-09 02:00 8.25 1150 16100 (2015) 0 (1934) 666 5 10 16 20 69 235 320 1060 4500
2025-07-09 01:30 7.69 785 16100 (2015) 0 (1934) 666 5 10 16 20 69 235 320 1060 4500
2025-07-09 01:00 6.61 299 16100 (2015) 0 (1934) 666 5 10 16 20 69 235 320 1060 4500
2025-07-09 00:30 6.33 202 16100 (2015) 0 (1934) 666 5 10 16 20 69 235 320 1060 4500
2025-07-09 00:00 6.33 202 16100 (2015) 0 (1934) 666 5 10 16 20 69 235 320 1060 4500
2025-07-08 23:30 6.35 208 16100 (2015) 0 (1934) 666 5 10 16 20 69 235 320 1060 4500
2025-07-08 23:00 6.37 215 16100 (2015) 0 (1934) 666 5 10 16 20 69 235 320 1060 4500
2025-07-08 22:30 6.40 226 23400 (1993) 1 (1934) 740 5 10 17 20 71 245 348 664 4370
2025-07-08 22:00 6.43 237 23400 (1993) 1 (1934) 740 5 10 17 20 71 245 348 664 4370
2025-07-08 21:30 6.46 248 23400 (1993) 1 (1934) 740 5 10 17 20 71 245 348 664 4370
2025-07-08 21:00 6.51 267 23400 (1993) 1 (1934) 740 5 10 17 20 71 245 348 664 4370
2025-07-08 20:30 6.55 280 23400 (1993) 1 (1934) 740 5 10 17 20 71 245 348 664 4370
2025-07-08 20:00 6.61 299 23400 (1993) 1 (1934) 740 5 10 17 20 71 245 348 664 4370
2025-07-08 19:30 6.66 315 23400 (1993) 1 (1934) 740 5 10 17 20 71 245 348 664 4370
2025-07-08 19:00 6.73 340 23400 (1993) 1 (1934) 740 5 10 17 20 71 245 348 664 4370
2025-07-08 18:30 6.82 372 23400 (1993) 1 (1934) 740 5 10 17 20 71 245 348 664 4370
2025-07-08 18:00 6.93 415 23400 (1993) 1 (1934) 740 5 10 17 20 71 245 348 664 4370
2025-07-08 17:30 7.07 473 23400 (1993) 1 (1934) 740 5 10 17 20 71 245 348 664 4370
2025-07-08 17:00 7.15 508 23400 (1993) 1 (1934) 740 5 10 17 20 71 245 348 664 4370
2025-07-08 16:30 7.04 460 23400 (1993) 1 (1934) 740 5 10 17 20 71 245 348 664 4370
2025-07-08 16:00 6.49 259 23400 (1993) 1 (1934) 740 5 10 17 20 71 245 348 664 4370
2025-07-08 15:30 6.37 215 23400 (1993) 1 (1934) 740 5 10 17 20 71 245 348 664 4370
2025-07-08 15:00 192 23400 (1993) 1 (1934) 740 5 10 17 20 71 245 348 664 4370
2025-07-08 14:30 6.24 174 23400 (1993) 1 (1934) 740 5 10 17 20 71 245 348 664 4370
2025-07-08 14:00 157 23400 (1993) 1 (1934) 740 5 10 17 20 71 245 348 664 4370
2025-07-08 13:30 6.24 174 23400 (1993) 1 (1934) 740 5 10 17 20 71 245 348 664 4370
2025-07-08 13:00 171 23400 (1993) 1 (1934) 740 5 10 17 20 71 245 348 664 4370
2025-07-08 12:30 6.25 177 23400 (1993) 1 (1934) 740 5 10 17 20 71 245 348 664 4370
2025-07-08 12:00 6.25 177 23400 (1993) 1 (1934) 740 5 10 17 20 71 245 348 664 4370
2025-07-08 11:30 6.25 177 23400 (1993) 1 (1934) 740 5 10 17 20 71 245 348 664 4370
2025-07-08 11:00 6.27 183 23400 (1993) 1 (1934) 740 5 10 17 20 71 245 348 664 4370
2025-07-08 10:30 6.23 171 23400 (1993) 1 (1934) 740 5 10 17 20 71 245 348 664 4370
2025-07-08 10:00 6.28 186 23400 (1993) 1 (1934) 740 5 10 17 20 71 245 348 664 4370
2025-07-08 09:30 6.29 189 23400 (1993) 1 (1934) 740 5 10 17 20 71 245 348 664 4370
2025-07-08 09:00 6.29 189 23400 (1993) 1 (1934) 740 5 10 17 20 71 245 348 664 4370
2025-07-08 08:30 6.30 192 23400 (1993) 1 (1934) 740 5 10 17 20 71 245 348 664 4370
2025-07-08 08:00 6.31 195 23400 (1993) 1 (1934) 740 5 10 17 20 71 245 348 664 4370
2025-07-08 07:30 6.31 195 23400 (1993) 1 (1934) 740 5 10 17 20 71 245 348 664 4370
2025-07-08 07:00 6.32 199 23400 (1993) 1 (1934) 740 5 10 17 20 71 245 348 664 4370
2025-07-08 06:30 6.32 199 23400 (1993) 1 (1934) 740 5 10 17 20 71 245 348 664 4370
2025-07-08 06:00 6.33 202 23400 (1993) 1 (1934) 740 5 10 17 20 71 245 348 664 4370
2025-07-08 05:30 6.33 202 23400 (1993) 1 (1934) 740 5 10 17 20 71 245 348 664 4370
2025-07-08 05:00 6.33 202 23400 (1993) 1 (1934) 740 5 10 17 20 71 245 348 664 4370
2025-07-08 04:30 6.32 199 23400 (1993) 1 (1934) 740 5 10 17 20 71 245 348 664 4370
2025-07-08 04:00 6.32 199 23400 (1993) 1 (1934) 740 5 10 17 20 71 245 348 664 4370
2025-07-08 03:30 6.31 195 23400 (1993) 1 (1934) 740 5 10 17 20 71 245 348 664 4370
2025-07-08 03:00 6.29 189 23400 (1993) 1 (1934) 740 5 10 17 20 71 245 348 664 4370
2025-07-08 02:30 6.27 183 23400 (1993) 1 (1934) 740 5 10 17 20 71 245 348 664 4370
2025-07-08 02:00 6.23 171 23400 (1993) 1 (1934) 740 5 10 17 20 71 245 348 664 4370
2025-07-08 01:30 6.20 162 23400 (1993) 1 (1934) 740 5 10 17 20 71 245 348 664 4370
2025-07-08 01:00 6.16 151 23400 (1993) 1 (1934) 740 5 10 17 20 71 245 348 664 4370
2025-07-08 00:30 6.12 141 23400 (1993) 1 (1934) 740 5 10 17 20 71 245 348 664 4370
2025-07-08 00:00 136 23400 (1993) 1 (1934) 740 5 10 17 20 71 245 348 664 4370
2025-07-07 23:30 6.08 131 23400 (1993) 1 (1934) 740 5 10 17 20 71 245 348 664 4370
2025-07-07 23:00 6.06 126 23400 (1993) 1 (1934) 740 5 10 17 20 71 245 348 664 4370
2025-07-07 22:30 6.06 126 9450 (1969) 1 (1936) 593 5 11 18 22 82 305 532 1080 5380
2025-07-07 21:30 123 9450 (1969) 1 (1936) 593 5 11 18 22 82 305 532 1080 5380
2025-07-07 21:00 6.04 121 9450 (1969) 1 (1936) 593 5 11 18 22 82 305 532 1080 5380
2025-07-07 15:00 5.89 90 9450 (1969) 1 (1936) 593 5 11 18 22 82 305 532 1080 5380
2025-07-07 14:30 5.94 100 9450 (1969) 1 (1936) 593 5 11 18 22 82 305 532 1080 5380
2025-07-07 14:00 5.89 90 9450 (1969) 1 (1936) 593 5 11 18 22 82 305 532 1080 5380
2025-07-07 13:30 5.89 90 9450 (1969) 1 (1936) 593 5 11 18 22 82 305 532 1080 5380
2025-07-07 13:00 5.90 92 9450 (1969) 1 (1936) 593 5 11 18 22 82 305 532 1080 5380
2025-07-07 12:30 5.95 102 9450 (1969) 1 (1936) 593 5 11 18 22 82 305 532 1080 5380
2025-07-07 12:00 5.95 102 9450 (1969) 1 (1936) 593 5 11 18 22 82 305 532 1080 5380
2025-07-07 11:30 5.94 100 9450 (1969) 1 (1936) 593 5 11 18 22 82 305 532 1080 5380
2025-07-07 11:00 5.95 102 9450 (1969) 1 (1936) 593 5 11 18 22 82 305 532 1080 5380
2025-07-07 10:30 5.95 102 9450 (1969) 1 (1936) 593 5 11 18 22 82 305 532 1080 5380
2025-07-07 10:00 5.95 102 9450 (1969) 1 (1936) 593 5 11 18 22 82 305 532 1080 5380
2025-07-07 09:30 5.95 102 9450 (1969) 1 (1936) 593 5 11 18 22 82 305 532 1080 5380
2025-07-07 09:00 5.95 102 9450 (1969) 1 (1936) 593 5 11 18 22 82 305 532 1080 5380
2025-07-07 08:30 5.95 102 9450 (1969) 1 (1936) 593 5 11 18 22 82 305 532 1080 5380
2025-07-07 08:00 5.95 102 9450 (1969) 1 (1936) 593 5 11 18 22 82 305 532 1080 5380
2025-07-07 07:30 5.95 102 9450 (1969) 1 (1936) 593 5 11 18 22 82 305 532 1080 5380
2025-07-07 07:00 5.95 102 9450 (1969) 1 (1936) 593 5 11 18 22 82 305 532 1080 5380
2025-07-07 06:30 5.95 102 9450 (1969) 1 (1936) 593 5 11 18 22 82 305 532 1080 5380
2025-07-07 06:00 5.95 102 9450 (1969) 1 (1936) 593 5 11 18 22 82 305 532 1080 5380
2025-07-07 05:30 5.95 102 9450 (1969) 1 (1936) 593 5 11 18 22 82 305 532 1080 5380
2025-07-07 05:00 5.95 102 9450 (1969) 1 (1936) 593 5 11 18 22 82 305 532 1080 5380
2025-07-07 04:30 5.95 102 9450 (1969) 1 (1936) 593 5 11 18 22 82 305 532 1080 5380
2025-07-07 04:00 5.95 102 9450 (1969) 1 (1936) 593 5 11 18 22 82 305 532 1080 5380
2025-07-07 03:30 5.95 102 9450 (1969) 1 (1936) 593 5 11 18 22 82 305 532 1080 5380
2025-07-07 03:00 5.95 102 9450 (1969) 1 (1936) 593 5 11 18 22 82 305 532 1080 5380
2025-07-07 02:30 5.95 102 9450 (1969) 1 (1936) 593 5 11 18 22 82 305 532 1080 5380
2025-07-07 02:00 5.95 102 9450 (1969) 1 (1936) 593 5 11 18 22 82 305 532 1080 5380
2025-07-07 01:30 5.95 102 9450 (1969) 1 (1936) 593 5 11 18 22 82 305 532 1080 5380
2025-07-07 01:00 5.96 104 9450 (1969) 1 (1936) 593 5 11 18 22 82 305 532 1080 5380
2025-07-07 00:30 5.96 104 9450 (1969) 1 (1936) 593 5 11 18 22 82 305 532 1080 5380
2025-07-07 00:00 5.96 104 9450 (1969) 1 (1936) 593 5 11 18 22 82 305 532 1080 5380
2025-07-06 23:30 5.96 104 9450 (1969) 1 (1936) 593 5 11 18 22 82 305 532 1080 5380
2025-07-06 23:00 5.96 104 9450 (1969) 1 (1936) 593 5 11 18 22 82 305 532 1080 5380
2025-07-06 22:30 5.96 104 5740 (1998) 1 (1934) 457 5 11 20 25 82 359 485 1640 2350
2025-07-06 22:00 5.96 104 5740 (1998) 1 (1934) 457 5 11 20 25 82 359 485 1640 2350
2025-07-06 21:30 5.96 104 5740 (1998) 1 (1934) 457 5 11 20 25 82 359 485 1640 2350
2025-07-06 21:00 5.97 106 5740 (1998) 1 (1934) 457 5 11 20 25 82 359 485 1640 2350
2025-07-06 20:30 5.94 100 5740 (1998) 1 (1934) 457 5 11 20 25 82 359 485 1640 2350
2025-07-06 20:00 5.92 96 5740 (1998) 1 (1934) 457 5 11 20 25 82 359 485 1640 2350
2025-07-06 19:30 5.97 106 5740 (1998) 1 (1934) 457 5 11 20 25 82 359 485 1640 2350
2025-07-06 19:00 5.97 106 5740 (1998) 1 (1934) 457 5 11 20 25 82 359 485 1640 2350
2025-07-06 18:30 5.97 106 5740 (1998) 1 (1934) 457 5 11 20 25 82 359 485 1640 2350
2025-07-06 18:00 5.96 104 5740 (1998) 1 (1934) 457 5 11 20 25 82 359 485 1640 2350
2025-07-06 17:30 5.96 104 5740 (1998) 1 (1934) 457 5 11 20 25 82 359 485 1640 2350
2025-07-06 17:00 5.94 100 5740 (1998) 1 (1934) 457 5 11 20 25 82 359 485 1640 2350
2025-07-06 16:30 5.96 104 5740 (1998) 1 (1934) 457 5 11 20 25 82 359 485 1640 2350
2025-07-06 16:00 5.98 108 5740 (1998) 1 (1934) 457 5 11 20 25 82 359 485 1640 2350
2025-07-06 15:30 5.98 108 5740 (1998) 1 (1934) 457 5 11 20 25 82 359 485 1640 2350
2025-07-06 15:00 5.98 108 5740 (1998) 1 (1934) 457 5 11 20 25 82 359 485 1640 2350
2025-07-06 14:30 5.98 108 5740 (1998) 1 (1934) 457 5 11 20 25 82 359 485 1640 2350
2025-07-06 14:00 5.98 108 5740 (1998) 1 (1934) 457 5 11 20 25 82 359 485 1640 2350
2025-07-06 13:30 5.99 110 5740 (1998) 1 (1934) 457 5 11 20 25 82 359 485 1640 2350
2025-07-06 13:00 5.99 110 5740 (1998) 1 (1934) 457 5 11 20 25 82 359 485 1640 2350
2025-07-06 12:30 5.97 106 5740 (1998) 1 (1934) 457 5 11 20 25 82 359 485 1640 2350
2025-07-06 12:00 5.99 110 5740 (1998) 1 (1934) 457 5 11 20 25 82 359 485 1640 2350
2025-07-06 11:30 5.99 110 5740 (1998) 1 (1934) 457 5 11 20 25 82 359 485 1640 2350
2025-07-06 11:00 5.99 110 5740 (1998) 1 (1934) 457 5 11 20 25 82 359 485 1640 2350
2025-07-06 10:30 5.99 110 5740 (1998) 1 (1934) 457 5 11 20 25 82 359 485 1640 2350
2025-07-06 10:00 5.99 110 5740 (1998) 1 (1934) 457 5 11 20 25 82 359 485 1640 2350
2025-07-06 09:30 5.96 104 5740 (1998) 1 (1934) 457 5 11 20 25 82 359 485 1640 2350
2025-07-06 09:00 6.00 112 5740 (1998) 1 (1934) 457 5 11 20 25 82 359 485 1640 2350
2025-07-06 08:30 6.00 112 5740 (1998) 1 (1934) 457 5 11 20 25 82 359 485 1640 2350
2025-07-06 08:00 6.00 112 5740 (1998) 1 (1934) 457 5 11 20 25 82 359 485 1640 2350
2025-07-06 07:30 6.00 112 5740 (1998) 1 (1934) 457 5 11 20 25 82 359 485 1640 2350
2025-07-06 07:00 6.01 114 5740 (1998) 1 (1934) 457 5 11 20 25 82 359 485 1640 2350
2025-07-06 06:30 6.01 114 5740 (1998) 1 (1934) 457 5 11 20 25 82 359 485 1640 2350
2025-07-06 06:00 6.01 114 5740 (1998) 1 (1934) 457 5 11 20 25 82 359 485 1640 2350
2025-07-06 05:30 6.01 114 5740 (1998) 1 (1934) 457 5 11 20 25 82 359 485 1640 2350
2025-07-06 05:00 6.01 114 5740 (1998) 1 (1934) 457 5 11 20 25 82 359 485 1640 2350
2025-07-06 04:30 6.01 114 5740 (1998) 1 (1934) 457 5 11 20 25 82 359 485 1640 2350
2025-07-06 04:00 6.02 117 5740 (1998) 1 (1934) 457 5 11 20 25 82 359 485 1640 2350
2025-07-06 03:30 6.02 117 5740 (1998) 1 (1934) 457 5 11 20 25 82 359 485 1640 2350
2025-07-06 03:00 6.02 117 5740 (1998) 1 (1934) 457 5 11 20 25 82 359 485 1640 2350
2025-07-06 02:30 6.02 117 5740 (1998) 1 (1934) 457 5 11 20 25 82 359 485 1640 2350
2025-07-06 02:00 6.02 117 5740 (1998) 1 (1934) 457 5 11 20 25 82 359 485 1640 2350
2025-07-06 01:30 6.03 119 5740 (1998) 1 (1934) 457 5 11 20 25 82 359 485 1640 2350
2025-07-06 01:00 6.03 119 5740 (1998) 1 (1934) 457 5 11 20 25 82 359 485 1640 2350
2025-07-06 00:30 6.03 119 5740 (1998) 1 (1934) 457 5 11 20 25 82 359 485 1640 2350
2025-07-06 00:00 6.03 119 5740 (1998) 1 (1934) 457 5 11 20 25 82 359 485 1640 2350
2025-07-05 23:30 6.03 119 5740 (1998) 1 (1934) 457 5 11 20 25 82 359 485 1640 2350
2025-07-05 23:00 6.03 119 5740 (1998) 1 (1934) 457 5 11 20 25 82 359 485 1640 2350
2025-07-05 22:30 6.02 117 18000 (1998) 1 (1934) 928 5 12 21 29 86 390 650 2360 7430
2025-07-05 22:00 6.04 121 18000 (1998) 1 (1934) 928 5 12 21 29 86 390 650 2360 7430
2025-07-05 21:30 6.04 121 18000 (1998) 1 (1934) 928 5 12 21 29 86 390 650 2360 7430
2025-07-05 21:00 6.05 123 18000 (1998) 1 (1934) 928 5 12 21 29 86 390 650 2360 7430
2025-07-05 20:30 6.05 123 18000 (1998) 1 (1934) 928 5 12 21 29 86 390 650 2360 7430
2025-07-05 20:00 6.05 123 18000 (1998) 1 (1934) 928 5 12 21 29 86 390 650 2360 7430
2025-07-05 19:30 6.05 123 18000 (1998) 1 (1934) 928 5 12 21 29 86 390 650 2360 7430
2025-07-05 19:00 6.06 126 18000 (1998) 1 (1934) 928 5 12 21 29 86 390 650 2360 7430
2025-07-05 18:30 6.06 126 18000 (1998) 1 (1934) 928 5 12 21 29 86 390 650 2360 7430
2025-07-05 18:00 6.07 128 18000 (1998) 1 (1934) 928 5 12 21 29 86 390 650 2360 7430
2025-07-05 17:30 6.06 126 18000 (1998) 1 (1934) 928 5 12 21 29 86 390 650 2360 7430
2025-07-05 17:00 6.07 128 18000 (1998) 1 (1934) 928 5 12 21 29 86 390 650 2360 7430
2025-07-05 16:30 6.01 114 18000 (1998) 1 (1934) 928 5 12 21 29 86 390 650 2360 7430
2025-07-05 16:00 6.07 128 18000 (1998) 1 (1934) 928 5 12 21 29 86 390 650 2360 7430
2025-07-05 15:30 6.08 131 18000 (1998) 1 (1934) 928 5 12 21 29 86 390 650 2360 7430
2025-07-05 15:00 6.06 126 18000 (1998) 1 (1934) 928 5 12 21 29 86 390 650 2360 7430
2025-07-05 14:30 6.08 131 18000 (1998) 1 (1934) 928 5 12 21 29 86 390 650 2360 7430
2025-07-05 14:00 6.07 128 18000 (1998) 1 (1934) 928 5 12 21 29 86 390 650 2360 7430
2025-07-05 13:30 6.06 126 18000 (1998) 1 (1934) 928 5 12 21 29 86 390 650 2360 7430
2025-07-05 13:00 6.09 133 18000 (1998) 1 (1934) 928 5 12 21 29 86 390 650 2360 7430
2025-07-05 12:30 6.10 136 18000 (1998) 1 (1934) 928 5 12 21 29 86 390 650 2360 7430
2025-07-05 12:00 6.10 136 18000 (1998) 1 (1934) 928 5 12 21 29 86 390 650 2360 7430
2025-07-05 11:30 6.06 126 18000 (1998) 1 (1934) 928 5 12 21 29 86 390 650 2360 7430
2025-07-05 11:00 6.06 126 18000 (1998) 1 (1934) 928 5 12 21 29 86 390 650 2360 7430
2025-07-05 10:30 6.10 136 18000 (1998) 1 (1934) 928 5 12 21 29 86 390 650 2360 7430
2025-07-05 10:00 6.10 136 18000 (1998) 1 (1934) 928 5 12 21 29 86 390 650 2360 7430
2025-07-05 09:30 6.09 133 18000 (1998) 1 (1934) 928 5 12 21 29 86 390 650 2360 7430
2025-07-05 09:00 6.11 138 18000 (1998) 1 (1934) 928 5 12 21 29 86 390 650 2360 7430
2025-07-05 08:30 6.12 141 18000 (1998) 1 (1934) 928 5 12 21 29 86 390 650 2360 7430
2025-07-05 08:00 6.12 141 18000 (1998) 1 (1934) 928 5 12 21 29 86 390 650 2360 7430
2025-07-05 07:30 6.10 136 18000 (1998) 1 (1934) 928 5 12 21 29 86 390 650 2360 7430
2025-07-05 07:00 6.13 143 18000 (1998) 1 (1934) 928 5 12 21 29 86 390 650 2360 7430
2025-07-05 06:30 6.13 143 18000 (1998) 1 (1934) 928 5 12 21 29 86 390 650 2360 7430
2025-07-05 06:00 6.14 146 18000 (1998) 1 (1934) 928 5 12 21 29 86 390 650 2360 7430
2025-07-05 05:30 6.14 146 18000 (1998) 1 (1934) 928 5 12 21 29 86 390 650 2360 7430
2025-07-05 05:00 6.14 146 18000 (1998) 1 (1934) 928 5 12 21 29 86 390 650 2360 7430
2025-07-05 04:30 6.14 146 18000 (1998) 1 (1934) 928 5 12 21 29 86 390 650 2360 7430
2025-07-05 04:00 6.15 148 18000 (1998) 1 (1934) 928 5 12 21 29 86 390 650 2360 7430
2025-07-05 03:30 6.15 148 18000 (1998) 1 (1934) 928 5 12 21 29 86 390 650 2360 7430
2025-07-05 03:00 6.15 148 18000 (1998) 1 (1934) 928 5 12 21 29 86 390 650 2360 7430
2025-07-05 02:30 6.16 151 18000 (1998) 1 (1934) 928 5 12 21 29 86 390 650 2360 7430
2025-07-05 02:00 6.16 151 18000 (1998) 1 (1934) 928 5 12 21 29 86 390 650 2360 7430
2025-07-05 01:30 6.16 151 18000 (1998) 1 (1934) 928 5 12 21 29 86 390 650 2360 7430
2025-07-05 01:00 6.17 154 18000 (1998) 1 (1934) 928 5 12 21 29 86 390 650 2360 7430
2025-07-05 00:30 6.17 154 18000 (1998) 1 (1934) 928 5 12 21 29 86 390 650 2360 7430
2025-07-05 00:00 6.18 157 18000 (1998) 1 (1934) 928 5 12 21 29 86 390 650 2360 7430
2025-07-04 23:30 6.18 157 18000 (1998) 1 (1934) 928 5 12 21 29 86 390 650 2360 7430
2025-07-04 23:00 6.18 157 18000 (1998) 1 (1934) 928 5 12 21 29 86 390 650 2360 7430
2025-07-04 22:30 6.19 159 35000 (1980) 1 (1934) 1090 5 10 24 32 98 444 641 2700 5670
2025-07-04 22:00 6.19 159 35000 (1980) 1 (1934) 1090 5 10 24 32 98 444 641 2700 5670
2025-07-04 21:30 6.20 162 35000 (1980) 1 (1934) 1090 5 10 24 32 98 444 641 2700 5670
2025-07-04 21:00 6.20 162 35000 (1980) 1 (1934) 1090 5 10 24 32 98 444 641 2700 5670
2025-07-04 20:30 6.20 162 35000 (1980) 1 (1934) 1090 5 10 24 32 98 444 641 2700 5670
2025-07-04 20:00 6.21 165 35000 (1980) 1 (1934) 1090 5 10 24 32 98 444 641 2700 5670
2025-07-04 19:30 6.21 165 35000 (1980) 1 (1934) 1090 5 10 24 32 98 444 641 2700 5670
2025-07-04 19:00 6.22 168 35000 (1980) 1 (1934) 1090 5 10 24 32 98 444 641 2700 5670
2025-07-04 18:30 6.23 171 35000 (1980) 1 (1934) 1090 5 10 24 32 98 444 641 2700 5670
2025-07-04 18:00 6.23 171 35000 (1980) 1 (1934) 1090 5 10 24 32 98 444 641 2700 5670
2025-07-04 17:30 6.23 171 35000 (1980) 1 (1934) 1090 5 10 24 32 98 444 641 2700 5670
2025-07-04 17:00 6.24 174 35000 (1980) 1 (1934) 1090 5 10 24 32 98 444 641 2700 5670
2025-07-04 16:30 6.24 174 35000 (1980) 1 (1934) 1090 5 10 24 32 98 444 641 2700 5670
2025-07-04 16:00 6.25 177 35000 (1980) 1 (1934) 1090 5 10 24 32 98 444 641 2700 5670
2025-07-04 15:30 6.25 177 35000 (1980) 1 (1934) 1090 5 10 24 32 98 444 641 2700 5670
2025-07-04 15:00 6.25 177 35000 (1980) 1 (1934) 1090 5 10 24 32 98 444 641 2700 5670
2025-07-04 14:30 6.26 180 35000 (1980) 1 (1934) 1090 5 10 24 32 98 444 641 2700 5670
2025-07-04 14:00 6.27 183 35000 (1980) 1 (1934) 1090 5 10 24 32 98 444 641 2700 5670
2025-07-04 13:30 6.27 183 35000 (1980) 1 (1934) 1090 5 10 24 32 98 444 641 2700 5670
2025-07-04 13:00 6.28 186 35000 (1980) 1 (1934) 1090 5 10 24 32 98 444 641 2700 5670
2025-07-04 12:30 6.28 186 35000 (1980) 1 (1934) 1090 5 10 24 32 98 444 641 2700 5670
2025-07-04 12:00 6.28 186 35000 (1980) 1 (1934) 1090 5 10 24 32 98 444 641 2700 5670
2025-07-04 11:30 6.29 189 35000 (1980) 1 (1934) 1090 5 10 24 32 98 444 641 2700 5670
2025-07-04 11:00 6.30 192 35000 (1980) 1 (1934) 1090 5 10 24 32 98 444 641 2700 5670
2025-07-04 10:30 6.30 192 35000 (1980) 1 (1934) 1090 5 10 24 32 98 444 641 2700 5670
2025-07-04 10:00 6.31 195 35000 (1980) 1 (1934) 1090 5 10 24 32 98 444 641 2700 5670
2025-07-04 09:30 6.31 195 35000 (1980) 1 (1934) 1090 5 10 24 32 98 444 641 2700 5670
2025-07-04 09:00 6.31 195 35000 (1980) 1 (1934) 1090 5 10 24 32 98 444 641 2700 5670
2025-07-04 08:30 6.32 199 35000 (1980) 1 (1934) 1090 5 10 24 32 98 444 641 2700 5670
2025-07-04 08:00 6.32 199 35000 (1980) 1 (1934) 1090 5 10 24 32 98 444 641 2700 5670
2025-07-04 07:30 6.33 202 35000 (1980) 1 (1934) 1090 5 10 24 32 98 444 641 2700 5670
2025-07-04 07:00 6.34 205 35000 (1980) 1 (1934) 1090 5 10 24 32 98 444 641 2700 5670
2025-07-04 06:30 6.35 208 35000 (1980) 1 (1934) 1090 5 10 24 32 98 444 641 2700 5670
2025-07-04 06:00 6.35 208 35000 (1980) 1 (1934) 1090 5 10 24 32 98 444 641 2700 5670
2025-07-04 05:30 6.36 212 35000 (1980) 1 (1934) 1090 5 10 24 32 98 444 641 2700 5670
2025-07-04 05:00 6.36 212 35000 (1980) 1 (1934) 1090 5 10 24 32 98 444 641 2700 5670
2025-07-04 04:30 6.36 212 35000 (1980) 1 (1934) 1090 5 10 24 32 98 444 641 2700 5670
2025-07-04 04:00 6.37 215 35000 (1980) 1 (1934) 1090 5 10 24 32 98 444 641 2700 5670
2025-07-04 03:30 6.37 215 35000 (1980) 1 (1934) 1090 5 10 24 32 98 444 641 2700 5670
2025-07-04 03:00 6.37 215 35000 (1980) 1 (1934) 1090 5 10 24 32 98 444 641 2700 5670
2025-07-04 02:30 6.38 219 35000 (1980) 1 (1934) 1090 5 10 24 32 98 444 641 2700 5670
2025-07-04 02:00 6.38 219 35000 (1980) 1 (1934) 1090 5 10 24 32 98 444 641 2700 5670
2025-07-04 01:30 6.38 219 35000 (1980) 1 (1934) 1090 5 10 24 32 98 444 641 2700 5670
2025-07-04 01:00 6.38 219 35000 (1980) 1 (1934) 1090 5 10 24 32 98 444 641 2700 5670
2025-07-04 00:30 6.37 215 35000 (1980) 1 (1934) 1090 5 10 24 32 98 444 641 2700 5670
2025-07-04 00:00 6.37 215 35000 (1980) 1 (1934) 1090 5 10 24 32 98 444 641 2700 5670
2025-07-03 23:30 6.36 212 35000 (1980) 1 (1934) 1090 5 10 24 32 98 444 641 2700 5670
2025-07-03 23:00 6.35 208 35000 (1980) 1 (1934) 1090 5 10 24 32 98 444 641 2700 5670
2025-07-03 22:30 6.34 205 13600 (1969) 1 (1934) 671 7 11 26 35 97 316 579 2000 3590
2025-07-03 22:00 6.33 202 13600 (1969) 1 (1934) 671 7 11 26 35 97 316 579 2000 3590
2025-07-03 21:30 6.32 199 13600 (1969) 1 (1934) 671 7 11 26 35 97 316 579 2000 3590
2025-07-03 21:00 6.32 199 13600 (1969) 1 (1934) 671 7 11 26 35 97 316 579 2000 3590
2025-07-03 20:30 6.31 195 13600 (1969) 1 (1934) 671 7 11 26 35 97 316 579 2000 3590
2025-07-03 20:00 6.32 199 13600 (1969) 1 (1934) 671 7 11 26 35 97 316 579 2000 3590
2025-07-03 19:30 6.32 199 13600 (1969) 1 (1934) 671 7 11 26 35 97 316 579 2000 3590
2025-07-03 19:00 6.32 199 13600 (1969) 1 (1934) 671 7 11 26 35 97 316 579 2000 3590
2025-07-03 18:30 6.33 202 13600 (1969) 1 (1934) 671 7 11 26 35 97 316 579 2000 3590
2025-07-03 18:00 6.33 202 13600 (1969) 1 (1934) 671 7 11 26 35 97 316 579 2000 3590
2025-07-03 17:30 6.34 205 13600 (1969) 1 (1934) 671 7 11 26 35 97 316 579 2000 3590
2025-07-03 17:00 6.35 208 13600 (1969) 1 (1934) 671 7 11 26 35 97 316 579 2000 3590
2025-07-03 16:30 6.35 208 13600 (1969) 1 (1934) 671 7 11 26 35 97 316 579 2000 3590
2025-07-03 16:00 6.36 212 13600 (1969) 1 (1934) 671 7 11 26 35 97 316 579 2000 3590
2025-07-03 15:30 6.37 215 13600 (1969) 1 (1934) 671 7 11 26 35 97 316 579 2000 3590
2025-07-03 15:00 6.37 215 13600 (1969) 1 (1934) 671 7 11 26 35 97 316 579 2000 3590
2025-07-03 14:30 6.38 219 13600 (1969) 1 (1934) 671 7 11 26 35 97 316 579 2000 3590
2025-07-03 14:00 6.39 222 13600 (1969) 1 (1934) 671 7 11 26 35 97 316 579 2000 3590
2025-07-03 13:30 6.40 226 13600 (1969) 1 (1934) 671 7 11 26 35 97 316 579 2000 3590
2025-07-03 13:00 6.40 226 13600 (1969) 1 (1934) 671 7 11 26 35 97 316 579 2000 3590
2025-07-03 12:30 6.41 229 13600 (1969) 1 (1934) 671 7 11 26 35 97 316 579 2000 3590
2025-07-03 12:00 6.42 233 13600 (1969) 1 (1934) 671 7 11 26 35 97 316 579 2000 3590
2025-07-03 11:30 6.42 233 13600 (1969) 1 (1934) 671 7 11 26 35 97 316 579 2000 3590
2025-07-03 11:00 6.43 237 13600 (1969) 1 (1934) 671 7 11 26 35 97 316 579 2000 3590
2025-07-03 10:30 6.43 237 13600 (1969) 1 (1934) 671 7 11 26 35 97 316 579 2000 3590
2025-07-03 10:00 6.44 240 13600 (1969) 1 (1934) 671 7 11 26 35 97 316 579 2000 3590
2025-07-03 09:30 6.45 244 13600 (1969) 1 (1934) 671 7 11 26 35 97 316 579 2000 3590
2025-07-03 09:00 6.46 248 13600 (1969) 1 (1934) 671 7 11 26 35 97 316 579 2000 3590
2025-07-03 08:30 6.47 251 13600 (1969) 1 (1934) 671 7 11 26 35 97 316 579 2000 3590
2025-07-03 08:00 6.48 255 13600 (1969) 1 (1934) 671 7 11 26 35 97 316 579 2000 3590
2025-07-03 07:30 6.48 255 13600 (1969) 1 (1934) 671 7 11 26 35 97 316 579 2000 3590
2025-07-03 07:00 6.49 259 13600 (1969) 1 (1934) 671 7 11 26 35 97 316 579 2000 3590
2025-07-03 06:30 6.50 263 13600 (1969) 1 (1934) 671 7 11 26 35 97 316 579 2000 3590
2025-07-03 06:00 6.51 267 13600 (1969) 1 (1934) 671 7 11 26 35 97 316 579 2000 3590
2025-07-03 05:30 6.52 270 13600 (1969) 1 (1934) 671 7 11 26 35 97 316 579 2000 3590
2025-07-03 05:00 6.53 273 13600 (1969) 1 (1934) 671 7 11 26 35 97 316 579 2000 3590
2025-07-03 04:30 6.54 276 13600 (1969) 1 (1934) 671 7 11 26 35 97 316 579 2000 3590
2025-07-03 04:00 6.55 280 13600 (1969) 1 (1934) 671 7 11 26 35 97 316 579 2000 3590
2025-07-03 03:30 6.56 283 13600 (1969) 1 (1934) 671 7 11 26 35 97 316 579 2000 3590
2025-07-03 03:00 6.57 286 13600 (1969) 1 (1934) 671 7 11 26 35 97 316 579 2000 3590
2025-07-03 02:30 6.58 289 13600 (1969) 1 (1934) 671 7 11 26 35 97 316 579 2000 3590
2025-07-03 02:00 6.59 292 13600 (1969) 1 (1934) 671 7 11 26 35 97 316 579 2000 3590
2025-07-03 01:30 6.60 296 13600 (1969) 1 (1934) 671 7 11 26 35 97 316 579 2000 3590
2025-07-03 01:00 6.61 299 13600 (1969) 1 (1934) 671 7 11 26 35 97 316 579 2000 3590
2025-07-03 00:30 6.62 302 13600 (1969) 1 (1934) 671 7 11 26 35 97 316 579 2000 3590
2025-07-03 00:00 6.63 305 13600 (1969) 1 (1934) 671 7 11 26 35 97 316 579 2000 3590
2025-07-02 23:30 6.64 309 13600 (1969) 1 (1934) 671 7 11 26 35 97 316 579 2000 3590
2025-07-02 23:00 6.66 315 13600 (1969) 1 (1934) 671 7 11 26 35 97 316 579 2000 3590
2025-07-02 22:30 6.67 319 11900 (1969) 1 (1934) 636 7 12 28 36 80 267 319 1690 4320
2025-07-02 22:00 6.68 322 11900 (1969) 1 (1934) 636 7 12 28 36 80 267 319 1690 4320
2025-07-02 21:30 6.69 326 11900 (1969) 1 (1934) 636 7 12 28 36 80 267 319 1690 4320
2025-07-02 21:00 6.71 333 11900 (1969) 1 (1934) 636 7 12 28 36 80 267 319 1690 4320
2025-07-02 20:30 6.72 336 11900 (1969) 1 (1934) 636 7 12 28 36 80 267 319 1690 4320
2025-07-02 20:00 6.74 343 11900 (1969) 1 (1934) 636 7 12 28 36 80 267 319 1690 4320
2025-07-02 19:30 6.75 347 11900 (1969) 1 (1934) 636 7 12 28 36 80 267 319 1690 4320
2025-07-02 19:00 6.77 354 11900 (1969) 1 (1934) 636 7 12 28 36 80 267 319 1690 4320
2025-07-02 18:30 6.79 361 11900 (1969) 1 (1934) 636 7 12 28 36 80 267 319 1690 4320
2025-07-02 18:00 6.81 369 11900 (1969) 1 (1934) 636 7 12 28 36 80 267 319 1690 4320
2025-07-02 17:30 6.83 376 11900 (1969) 1 (1934) 636 7 12 28 36 80 267 319 1690 4320
2025-07-02 17:00 6.84 380 11900 (1969) 1 (1934) 636 7 12 28 36 80 267 319 1690 4320
2025-07-02 16:30 6.87 391 11900 (1969) 1 (1934) 636 7 12 28 36 80 267 319 1690 4320
2025-07-02 16:00 6.89 399 11900 (1969) 1 (1934) 636 7 12 28 36 80 267 319 1690 4320
2025-07-02 15:30 6.91 407 11900 (1969) 1 (1934) 636 7 12 28 36 80 267 319 1690 4320
2025-07-02 15:00 6.93 415 11900 (1969) 1 (1934) 636 7 12 28 36 80 267 319 1690 4320
2025-07-02 14:30 6.95 423 11900 (1969) 1 (1934) 636 7 12 28 36 80 267 319 1690 4320
2025-07-02 14:00 6.98 435 11900 (1969) 1 (1934) 636 7 12 28 36 80 267 319 1690 4320
2025-07-02 13:30 7.00 443 11900 (1969) 1 (1934) 636 7 12 28 36 80 267 319 1690 4320
2025-07-02 13:00 7.03 456 11900 (1969) 1 (1934) 636 7 12 28 36 80 267 319 1690 4320
2025-07-02 12:30 7.05 464 11900 (1969) 1 (1934) 636 7 12 28 36 80 267 319 1690 4320
2025-07-02 12:00 7.08 477 11900 (1969) 1 (1934) 636 7 12 28 36 80 267 319 1690 4320
2025-07-02 11:30 7.11 490 11900 (1969) 1 (1934) 636 7 12 28 36 80 267 319 1690 4320
2025-07-02 11:00 7.14 503 11900 (1969) 1 (1934) 636 7 12 28 36 80 267 319 1690 4320
2025-07-02 10:30 7.18 521 11900 (1969) 1 (1934) 636 7 12 28 36 80 267 319 1690 4320
2025-07-02 10:00 7.21 535 11900 (1969) 1 (1934) 636 7 12 28 36 80 267 319 1690 4320
2025-07-02 09:30 7.25 554 11900 (1969) 1 (1934) 636 7 12 28 36 80 267 319 1690 4320
2025-07-02 09:00 7.30 578 11900 (1969) 1 (1934) 636 7 12 28 36 80 267 319 1690 4320
2025-07-02 08:30 7.34 597 11900 (1969) 1 (1934) 636 7 12 28 36 80 267 319 1690 4320
2025-07-02 08:00 7.39 622 11900 (1969) 1 (1934) 636 7 12 28 36 80 267 319 1690 4320
2025-07-02 07:30 7.45 653 11900 (1969) 1 (1934) 636 7 12 28 36 80 267 319 1690 4320
2025-07-02 07:00 7.50 680 11900 (1969) 1 (1934) 636 7 12 28 36 80 267 319 1690 4320
2025-07-02 06:30 7.56 712 11900 (1969) 1 (1934) 636 7 12 28 36 80 267 319 1690 4320
2025-07-02 06:00 7.63 751 11900 (1969) 1 (1934) 636 7 12 28 36 80 267 319 1690 4320
2025-07-02 05:30 7.69 785 11900 (1969) 1 (1934) 636 7 12 28 36 80 267 319 1690 4320
2025-07-02 05:00 7.78 839 11900 (1969) 1 (1934) 636 7 12 28 36 80 267 319 1690 4320
2025-07-02 04:30 7.84 875 11900 (1969) 1 (1934) 636 7 12 28 36 80 267 319 1690 4320
2025-07-02 04:00 7.94 939 11900 (1969) 1 (1934) 636 7 12 28 36 80 267 319 1690 4320
2025-07-02 03:30 8.05 1010 11900 (1969) 1 (1934) 636 7 12 28 36 80 267 319 1690 4320
2025-07-02 03:00 8.14 1070 11900 (1969) 1 (1934) 636 7 12 28 36 80 267 319 1690 4320
2025-07-02 02:30 8.26 1160 11900 (1969) 1 (1934) 636 7 12 28 36 80 267 319 1690 4320
2025-07-02 02:00 8.39 1260 11900 (1969) 1 (1934) 636 7 12 28 36 80 267 319 1690 4320
2025-07-02 01:30 8.51 1350 11900 (1969) 1 (1934) 636 7 12 28 36 80 267 319 1690 4320
2025-07-02 01:00 8.66 1470 11900 (1969) 1 (1934) 636 7 12 28 36 80 267 319 1690 4320
2025-07-02 00:30 8.81 1600 11900 (1969) 1 (1934) 636 7 12 28 36 80 267 319 1690 4320
2025-07-01 23:30 9.12 1890 11900 (1969) 1 (1934) 636 7 12 28 36 80 267 319 1690 4320
2025-07-01 23:00 9.29 2060 11900 (1969) 1 (1934) 636 7 12 28 36 80 267 319 1690 4320
2025-07-01 22:30 9.43 2150 17900 (2021) 2 (1934) 862 7 12 23 37 91 270 393 1460 7220
2025-07-01 22:00 9.59 2250 17900 (2021) 2 (1934) 862 7 12 23 37 91 270 393 1460 7220
2025-07-01 21:30 9.75 2350 17900 (2021) 2 (1934) 862 7 12 23 37 91 270 393 1460 7220
2025-07-01 21:00 9.88 2430 17900 (2021) 2 (1934) 862 7 12 23 37 91 270 393 1460 7220
2025-07-01 20:30 9.98 2500 17900 (2021) 2 (1934) 862 7 12 23 37 91 270 393 1460 7220
2025-07-01 20:00 10.08 2560 17900 (2021) 2 (1934) 862 7 12 23 37 91 270 393 1460 7220
2025-07-01 19:30 10.17 2620 17900 (2021) 2 (1934) 862 7 12 23 37 91 270 393 1460 7220
2025-07-01 19:00 10.24 2670 17900 (2021) 2 (1934) 862 7 12 23 37 91 270 393 1460 7220
2025-07-01 18:30 10.28 2690 17900 (2021) 2 (1934) 862 7 12 23 37 91 270 393 1460 7220
2025-07-01 18:00 10.32 2720 17900 (2021) 2 (1934) 862 7 12 23 37 91 270 393 1460 7220
2025-07-01 17:30 10.33 2730 17900 (2021) 2 (1934) 862 7 12 23 37 91 270 393 1460 7220
2025-07-01 17:00 10.36 2750 17900 (2021) 2 (1934) 862 7 12 23 37 91 270 393 1460 7220
2025-07-01 16:30 10.35 2740 17900 (2021) 2 (1934) 862 7 12 23 37 91 270 393 1460 7220
2025-07-01 16:00 10.34 2730 17900 (2021) 2 (1934) 862 7 12 23 37 91 270 393 1460 7220
2025-07-01 15:30 10.32 2720 17900 (2021) 2 (1934) 862 7 12 23 37 91 270 393 1460 7220
2025-07-01 15:00 10.27 2690 17900 (2021) 2 (1934) 862 7 12 23 37 91 270 393 1460 7220
2025-07-01 14:30 10.23 2660 17900 (2021) 2 (1934) 862 7 12 23 37 91 270 393 1460 7220
2025-07-01 14:00 10.13 2600 17900 (2021) 2 (1934) 862 7 12 23 37 91 270 393 1460 7220
2025-07-01 13:30 10.04 2540 17900 (2021) 2 (1934) 862 7 12 23 37 91 270 393 1460 7220
2025-07-01 13:00 9.89 2440 17900 (2021) 2 (1934) 862 7 12 23 37 91 270 393 1460 7220
2025-07-01 12:30 9.71 2320 17900 (2021) 2 (1934) 862 7 12 23 37 91 270 393 1460 7220
2025-07-01 12:00 9.44 2150 17900 (2021) 2 (1934) 862 7 12 23 37 91 270 393 1460 7220
2025-07-01 11:30 9.04 1810 17900 (2021) 2 (1934) 862 7 12 23 37 91 270 393 1460 7220
2025-07-01 11:00 8.41 1270 17900 (2021) 2 (1934) 862 7 12 23 37 91 270 393 1460 7220
2025-07-01 10:30 7.21 535 17900 (2021) 2 (1934) 862 7 12 23 37 91 270 393 1460 7220
2025-07-01 10:00 6.08 131 17900 (2021) 2 (1934) 862 7 12 23 37 91 270 393 1460 7220
2025-07-01 09:30 6.05 123 17900 (2021) 2 (1934) 862 7 12 23 37 91 270 393 1460 7220
2025-07-01 09:00 6.01 114 17900 (2021) 2 (1934) 862 7 12 23 37 91 270 393 1460 7220
2025-07-01 08:30 6.05 123 17900 (2021) 2 (1934) 862 7 12 23 37 91 270 393 1460 7220
2025-07-01 08:00 6.04 121 17900 (2021) 2 (1934) 862 7 12 23 37 91 270 393 1460 7220
2025-07-01 07:30 6.06 126 17900 (2021) 2 (1934) 862 7 12 23 37 91 270 393 1460 7220
2025-07-01 07:00 6.06 126 17900 (2021) 2 (1934) 862 7 12 23 37 91 270 393 1460 7220
2025-07-01 06:30 6.06 126 17900 (2021) 2 (1934) 862 7 12 23 37 91 270 393 1460 7220
2025-07-01 06:00 6.06 126 17900 (2021) 2 (1934) 862 7 12 23 37 91 270 393 1460 7220
2025-07-01 05:30 6.06 126 17900 (2021) 2 (1934) 862 7 12 23 37 91 270 393 1460 7220
2025-07-01 05:00 6.06 126 17900 (2021) 2 (1934) 862 7 12 23 37 91 270 393 1460 7220
2025-07-01 04:30 6.06 126 17900 (2021) 2 (1934) 862 7 12 23 37 91 270 393 1460 7220
2025-07-01 04:00 6.06 126 17900 (2021) 2 (1934) 862 7 12 23 37 91 270 393 1460 7220
2025-07-01 03:30 6.06 126 17900 (2021) 2 (1934) 862 7 12 23 37 91 270 393 1460 7220
2025-07-01 03:00 6.06 126 17900 (2021) 2 (1934) 862 7 12 23 37 91 270 393 1460 7220
2025-07-01 02:30 6.06 126 17900 (2021) 2 (1934) 862 7 12 23 37 91 270 393 1460 7220
2025-07-01 01:30 6.06 126 17900 (2021) 2 (1934) 862 7 12 23 37 91 270 393 1460 7220
2025-07-01 01:00 6.06 126 17900 (2021) 2 (1934) 862 7 12 23 37 91 270 393 1460 7220
2025-07-01 00:30 6.06 126 17900 (2021) 2 (1934) 862 7 12 23 37 91 270 393 1460 7220
2025-07-01 00:00 6.06 126 17900 (2021) 2 (1934) 862 7 12 23 37 91 270 393 1460 7220
2025-06-30 23:30 6.06 126 17900 (2021) 2 (1934) 862 7 12 23 37 91 270 393 1460 7220
2025-06-30 23:00 6.06 126 17900 (2021) 2 (1934) 862 7 12 23 37 91 270 393 1460 7220
2025-06-30 22:30 6.07 128 19700 (2021) 2 (1934) 679 7 11 21 34 96 247 339 912 2970
2025-06-30 22:00 6.06 126 19700 (2021) 2 (1934) 679 7 11 21 34 96 247 339 912 2970
2025-06-30 21:30 6.06 126 19700 (2021) 2 (1934) 679 7 11 21 34 96 247 339 912 2970
2025-06-30 21:00 6.05 123 19700 (2021) 2 (1934) 679 7 11 21 34 96 247 339 912 2970
2025-06-30 20:30 6.04 121 19700 (2021) 2 (1934) 679 7 11 21 34 96 247 339 912 2970
2025-06-30 20:00 6.03 119 19700 (2021) 2 (1934) 679 7 11 21 34 96 247 339 912 2970
2025-06-30 19:30 6.06 126 19700 (2021) 2 (1934) 679 7 11 21 34 96 247 339 912 2970
2025-06-30 19:00 6.07 128 19700 (2021) 2 (1934) 679 7 11 21 34 96 247 339 912 2970
2025-06-30 18:30 6.08 131 19700 (2021) 2 (1934) 679 7 11 21 34 96 247 339 912 2970
2025-06-30 18:00 6.08 131 19700 (2021) 2 (1934) 679 7 11 21 34 96 247 339 912 2970
2025-06-30 17:30 6.08 131 19700 (2021) 2 (1934) 679 7 11 21 34 96 247 339 912 2970
2025-06-30 17:00 6.08 131 19700 (2021) 2 (1934) 679 7 11 21 34 96 247 339 912 2970
2025-06-30 16:30 6.08 131 19700 (2021) 2 (1934) 679 7 11 21 34 96 247 339 912 2970
2025-06-30 16:00 6.09 133 19700 (2021) 2 (1934) 679 7 11 21 34 96 247 339 912 2970
2025-06-30 15:30 6.09 133 19700 (2021) 2 (1934) 679 7 11 21 34 96 247 339 912 2970
2025-06-30 15:00 6.10 136 19700 (2021) 2 (1934) 679 7 11 21 34 96 247 339 912 2970
2025-06-30 14:30 6.10 136 19700 (2021) 2 (1934) 679 7 11 21 34 96 247 339 912 2970
2025-06-30 14:00 6.10 136 19700 (2021) 2 (1934) 679 7 11 21 34 96 247 339 912 2970
2025-06-30 13:30 6.09 133 19700 (2021) 2 (1934) 679 7 11 21 34 96 247 339 912 2970
2025-06-30 13:00 6.08 131 19700 (2021) 2 (1934) 679 7 11 21 34 96 247 339 912 2970
2025-06-30 12:30 6.10 136 19700 (2021) 2 (1934) 679 7 11 21 34 96 247 339 912 2970
2025-06-30 12:00 6.11 138 19700 (2021) 2 (1934) 679 7 11 21 34 96 247 339 912 2970
2025-06-30 11:30 6.11 138 19700 (2021) 2 (1934) 679 7 11 21 34 96 247 339 912 2970
2025-06-30 11:00 6.12 141 19700 (2021) 2 (1934) 679 7 11 21 34 96 247 339 912 2970
2025-06-30 10:30 6.12 141 19700 (2021) 2 (1934) 679 7 11 21 34 96 247 339 912 2970
2025-06-30 10:00 6.12 141 19700 (2021) 2 (1934) 679 7 11 21 34 96 247 339 912 2970
2025-06-30 09:30 6.12 141 19700 (2021) 2 (1934) 679 7 11 21 34 96 247 339 912 2970
2025-06-30 09:00 6.12 141 19700 (2021) 2 (1934) 679 7 11 21 34 96 247 339 912 2970
2025-06-30 08:30 6.13 143 19700 (2021) 2 (1934) 679 7 11 21 34 96 247 339 912 2970
2025-06-30 08:00 6.13 143 19700 (2021) 2 (1934) 679 7 11 21 34 96 247 339 912 2970
2025-06-30 07:30 6.13 143 19700 (2021) 2 (1934) 679 7 11 21 34 96 247 339 912 2970
2025-06-30 07:00 6.14 146 19700 (2021) 2 (1934) 679 7 11 21 34 96 247 339 912 2970
2025-06-30 06:30 6.14 146 19700 (2021) 2 (1934) 679 7 11 21 34 96 247 339 912 2970
2025-06-30 06:00 6.14 146 19700 (2021) 2 (1934) 679 7 11 21 34 96 247 339 912 2970
2025-06-30 05:30 6.14 146 19700 (2021) 2 (1934) 679 7 11 21 34 96 247 339 912 2970
2025-06-30 05:00 6.14 146 19700 (2021) 2 (1934) 679 7 11 21 34 96 247 339 912 2970
2025-06-30 04:30 6.15 148 19700 (2021) 2 (1934) 679 7 11 21 34 96 247 339 912 2970
2025-06-30 04:00 6.15 148 19700 (2021) 2 (1934) 679 7 11 21 34 96 247 339 912 2970
2025-06-30 03:30 6.15 148 19700 (2021) 2 (1934) 679 7 11 21 34 96 247 339 912 2970
2025-06-30 03:00 6.15 148 19700 (2021) 2 (1934) 679 7 11 21 34 96 247 339 912 2970
2025-06-30 02:30 6.16 151 19700 (2021) 2 (1934) 679 7 11 21 34 96 247 339 912 2970
2025-06-30 02:00 6.16 151 19700 (2021) 2 (1934) 679 7 11 21 34 96 247 339 912 2970
2025-06-30 01:30 6.16 151 19700 (2021) 2 (1934) 679 7 11 21 34 96 247 339 912 2970
2025-06-30 00:30 6.17 154 19700 (2021) 2 (1934) 679 7 11 21 34 96 247 339 912 2970
2025-06-30 00:00 6.17 154 19700 (2021) 2 (1934) 679 7 11 21 34 96 247 339 912 2970
2025-06-29 23:30 6.18 157 19700 (2021) 2 (1934) 679 7 11 21 34 96 247 339 912 2970
2025-06-29 23:00 6.18 157 19700 (2021) 2 (1934) 679 7 11 21 34 96 247 339 912 2970
2025-06-29 22:30 6.19 159 17100 (1969) 2 (1934) 667 7 10 20 26 132 383 564 1090 3060
2025-06-29 22:00 6.19 159 17100 (1969) 2 (1934) 667 7 10 20 26 132 383 564 1090 3060
2025-06-29 21:30 6.20 162 17100 (1969) 2 (1934) 667 7 10 20 26 132 383 564 1090 3060
2025-06-29 21:00 6.20 162 17100 (1969) 2 (1934) 667 7 10 20 26 132 383 564 1090 3060
2025-06-29 20:30 6.20 162 17100 (1969) 2 (1934) 667 7 10 20 26 132 383 564 1090 3060
2025-06-29 20:00 6.21 165 17100 (1969) 2 (1934) 667 7 10 20 26 132 383 564 1090 3060
2025-06-29 19:30 6.22 168 17100 (1969) 2 (1934) 667 7 10 20 26 132 383 564 1090 3060
2025-06-29 19:00 6.22 168 17100 (1969) 2 (1934) 667 7 10 20 26 132 383 564 1090 3060
2025-06-29 18:30 6.23 171 17100 (1969) 2 (1934) 667 7 10 20 26 132 383 564 1090 3060
2025-06-29 18:00 6.24 174 17100 (1969) 2 (1934) 667 7 10 20 26 132 383 564 1090 3060
2025-06-29 17:30 6.25 177 17100 (1969) 2 (1934) 667 7 10 20 26 132 383 564 1090 3060
2025-06-29 17:00 6.25 177 17100 (1969) 2 (1934) 667 7 10 20 26 132 383 564 1090 3060
2025-06-29 16:30 6.26 180 17100 (1969) 2 (1934) 667 7 10 20 26 132 383 564 1090 3060
2025-06-29 16:00 6.27 183 17100 (1969) 2 (1934) 667 7 10 20 26 132 383 564 1090 3060
2025-06-29 15:30 6.28 186 17100 (1969) 2 (1934) 667 7 10 20 26 132 383 564 1090 3060
2025-06-29 15:00 6.28 186 17100 (1969) 2 (1934) 667 7 10 20 26 132 383 564 1090 3060
2025-06-29 14:30 6.29 189 17100 (1969) 2 (1934) 667 7 10 20 26 132 383 564 1090 3060
2025-06-29 14:00 6.27 183 17100 (1969) 2 (1934) 667 7 10 20 26 132 383 564 1090 3060
2025-06-29 13:30 6.31 195 17100 (1969) 2 (1934) 667 7 10 20 26 132 383 564 1090 3060
2025-06-29 13:00 6.32 199 17100 (1969) 2 (1934) 667 7 10 20 26 132 383 564 1090 3060
2025-06-29 12:00 6.33 202 17100 (1969) 2 (1934) 667 7 10 20 26 132 383 564 1090 3060
2025-06-29 11:30 6.34 205 17100 (1969) 2 (1934) 667 7 10 20 26 132 383 564 1090 3060
2025-06-29 11:00 6.35 208 17100 (1969) 2 (1934) 667 7 10 20 26 132 383 564 1090 3060
2025-06-29 10:30 6.36 212 17100 (1969) 2 (1934) 667 7 10 20 26 132 383 564 1090 3060
2025-06-29 10:00 6.36 212 17100 (1969) 2 (1934) 667 7 10 20 26 132 383 564 1090 3060
2025-06-29 09:30 6.37 215 17100 (1969) 2 (1934) 667 7 10 20 26 132 383 564 1090 3060
2025-06-29 09:00 6.38 219 17100 (1969) 2 (1934) 667 7 10 20 26 132 383 564 1090 3060
2025-06-29 08:30 6.39 222 17100 (1969) 2 (1934) 667 7 10 20 26 132 383 564 1090 3060
2025-06-29 08:00 6.40 226 17100 (1969) 2 (1934) 667 7 10 20 26 132 383 564 1090 3060
2025-06-29 07:30 6.42 233 17100 (1969) 2 (1934) 667 7 10 20 26 132 383 564 1090 3060
2025-06-29 07:00 6.43 237 17100 (1969) 2 (1934) 667 7 10 20 26 132 383 564 1090 3060
2025-06-29 06:30 6.44 240 17100 (1969) 2 (1934) 667 7 10 20 26 132 383 564 1090 3060
2025-06-29 06:00 6.45 244 17100 (1969) 2 (1934) 667 7 10 20 26 132 383 564 1090 3060
2025-06-29 05:30 6.47 251 17100 (1969) 2 (1934) 667 7 10 20 26 132 383 564 1090 3060
2025-06-29 05:00 6.48 255 17100 (1969) 2 (1934) 667 7 10 20 26 132 383 564 1090 3060
2025-06-29 04:30 6.49 259 17100 (1969) 2 (1934) 667 7 10 20 26 132 383 564 1090 3060
2025-06-29 04:00 6.51 267 17100 (1969) 2 (1934) 667 7 10 20 26 132 383 564 1090 3060
2025-06-29 03:30 6.52 270 17100 (1969) 2 (1934) 667 7 10 20 26 132 383 564 1090 3060
2025-06-29 03:00 6.54 276 17100 (1969) 2 (1934) 667 7 10 20 26 132 383 564 1090 3060
2025-06-29 02:30 6.55 280 17100 (1969) 2 (1934) 667 7 10 20 26 132 383 564 1090 3060
2025-06-29 02:00 6.57 286 17100 (1969) 2 (1934) 667 7 10 20 26 132 383 564 1090 3060
2025-06-29 01:30 6.58 289 17100 (1969) 2 (1934) 667 7 10 20 26 132 383 564 1090 3060
2025-06-29 01:00 6.60 296 17100 (1969) 2 (1934) 667 7 10 20 26 132 383 564 1090 3060
2025-06-29 00:30 6.62 302 17100 (1969) 2 (1934) 667 7 10 20 26 132 383 564 1090 3060
2025-06-29 00:00 6.64 309 17100 (1969) 2 (1934) 667 7 10 20 26 132 383 564 1090 3060
2025-06-28 23:30 6.66 315 17100 (1969) 2 (1934) 667 7 10 20 26 132 383 564 1090 3060
2025-06-28 23:00 6.68 322 17100 (1969) 2 (1934) 667 7 10 20 26 132 383 564 1090 3060
2025-06-28 22:30 6.70 329 8930 (2021) 2 (1934) 553 8 11 21 32 154 494 581 1260 3860
2025-06-28 22:00 6.72 336 8930 (2021) 2 (1934) 553 8 11 21 32 154 494 581 1260 3860
2025-06-28 21:30 6.75 347 8930 (2021) 2 (1934) 553 8 11 21 32 154 494 581 1260 3860
2025-06-28 21:00 6.78 358 8930 (2021) 2 (1934) 553 8 11 21 32 154 494 581 1260 3860
2025-06-28 20:30 6.80 365 8930 (2021) 2 (1934) 553 8 11 21 32 154 494 581 1260 3860
2025-06-28 20:00 376 8930 (2021) 2 (1934) 553 8 11 21 32 154 494 581 1260 3860
2025-06-28 19:30 6.86 387 8930 (2021) 2 (1934) 553 8 11 21 32 154 494 581 1260 3860
2025-06-28 19:00 6.90 403 8930 (2021) 2 (1934) 553 8 11 21 32 154 494 581 1260 3860
2025-06-28 18:30 6.92 411 8930 (2021) 2 (1934) 553 8 11 21 32 154 494 581 1260 3860
2025-06-28 18:00 6.96 427 8930 (2021) 2 (1934) 553 8 11 21 32 154 494 581 1260 3860
2025-06-28 17:30 7.00 443 8930 (2021) 2 (1934) 553 8 11 21 32 154 494 581 1260 3860
2025-06-28 17:00 7.03 456 8930 (2021) 2 (1934) 553 8 11 21 32 154 494 581 1260 3860
2025-06-28 16:30 7.08 477 8930 (2021) 2 (1934) 553 8 11 21 32 154 494 581 1260 3860
2025-06-28 16:00 7.12 494 8930 (2021) 2 (1934) 553 8 11 21 32 154 494 581 1260 3860
2025-06-28 15:30 7.17 517 8930 (2021) 2 (1934) 553 8 11 21 32 154 494 581 1260 3860
2025-06-28 15:00 7.22 540 8930 (2021) 2 (1934) 553 8 11 21 32 154 494 581 1260 3860
2025-06-28 14:30 7.27 563 8930 (2021) 2 (1934) 553 8 11 21 32 154 494 581 1260 3860
2025-06-28 14:00 7.33 592 8930 (2021) 2 (1934) 553 8 11 21 32 154 494 581 1260 3860
2025-06-28 13:30 7.39 622 8930 (2021) 2 (1934) 553 8 11 21 32 154 494 581 1260 3860
2025-06-28 13:00 7.46 658 8930 (2021) 2 (1934) 553 8 11 21 32 154 494 581 1260 3860
2025-06-28 12:30 7.53 696 8930 (2021) 2 (1934) 553 8 11 21 32 154 494 581 1260 3860
2025-06-28 12:00 7.61 740 8930 (2021) 2 (1934) 553 8 11 21 32 154 494 581 1260 3860
2025-06-28 11:00 7.77 833 8930 (2021) 2 (1934) 553 8 11 21 32 154 494 581 1260 3860
2025-06-28 10:30 7.85 882 8930 (2021) 2 (1934) 553 8 11 21 32 154 494 581 1260 3860
2025-06-28 10:00 7.94 939 8930 (2021) 2 (1934) 553 8 11 21 32 154 494 581 1260 3860
2025-06-28 09:30 8.02 991 8930 (2021) 2 (1934) 553 8 11 21 32 154 494 581 1260 3860
2025-06-28 09:00 8.09 1040 8930 (2021) 2 (1934) 553 8 11 21 32 154 494 581 1260 3860
2025-06-28 08:30 8.16 1090 8930 (2021) 2 (1934) 553 8 11 21 32 154 494 581 1260 3860
2025-06-28 08:00 8.21 1120 8930 (2021) 2 (1934) 553 8 11 21 32 154 494 581 1260 3860
2025-06-28 07:00 8.21 1120 8930 (2021) 2 (1934) 553 8 11 21 32 154 494 581 1260 3860
2025-06-28 06:30 8.15 1080 8930 (2021) 2 (1934) 553 8 11 21 32 154 494 581 1260 3860
2025-06-28 06:00 7.99 971 8930 (2021) 2 (1934) 553 8 11 21 32 154 494 581 1260 3860
2025-06-28 05:30 7.69 785 8930 (2021) 2 (1934) 553 8 11 21 32 154 494 581 1260 3860
2025-06-28 05:00 7.26 559 8930 (2021) 2 (1934) 553 8 11 21 32 154 494 581 1260 3860
2025-06-28 04:30 6.95 423 8930 (2021) 2 (1934) 553 8 11 21 32 154 494 581 1260 3860
2025-06-28 04:00 6.87 391 8930 (2021) 2 (1934) 553 8 11 21 32 154 494 581 1260 3860
2025-06-28 03:30 6.85 384 8930 (2021) 2 (1934) 553 8 11 21 32 154 494 581 1260 3860
2025-06-28 03:00 6.83 376 8930 (2021) 2 (1934) 553 8 11 21 32 154 494 581 1260 3860
2025-06-28 02:30 6.74 343 8930 (2021) 2 (1934) 553 8 11 21 32 154 494 581 1260 3860
2025-06-28 02:00 6.56 283 8930 (2021) 2 (1934) 553 8 11 21 32 154 494 581 1260 3860
2025-06-28 01:30 6.37 215 8930 (2021) 2 (1934) 553 8 11 21 32 154 494 581 1260 3860
2025-06-28 01:00 6.30 192 8930 (2021) 2 (1934) 553 8 11 21 32 154 494 581 1260 3860
2025-06-28 00:30 6.29 189 8930 (2021) 2 (1934) 553 8 11 21 32 154 494 581 1260 3860
2025-06-28 00:00 6.25 177 8930 (2021) 2 (1934) 553 8 11 21 32 154 494 581 1260 3860
2025-06-27 23:30 6.21 165 8930 (2021) 2 (1934) 553 8 11 21 32 154 494 581 1260 3860
2025-06-27 23:00 6.17 154 8930 (2021) 2 (1934) 553 8 11 21 32 154 494 581 1260 3860
2025-06-27 22:30 6.16 151 19700 (2021) 3 (1936) 960 8 12 24 27 111 558 666 2080 5130
2025-06-27 22:00 6.16 151 19700 (2021) 3 (1936) 960 8 12 24 27 111 558 666 2080 5130
2025-06-27 21:30 6.15 148 19700 (2021) 3 (1936) 960 8 12 24 27 111 558 666 2080 5130
2025-06-27 21:00 6.13 143 19700 (2021) 3 (1936) 960 8 12 24 27 111 558 666 2080 5130
2025-06-27 20:30 6.11 138 19700 (2021) 3 (1936) 960 8 12 24 27 111 558 666 2080 5130
2025-06-27 20:00 6.08 131 19700 (2021) 3 (1936) 960 8 12 24 27 111 558 666 2080 5130
2025-06-27 19:30 6.07 128 19700 (2021) 3 (1936) 960 8 12 24 27 111 558 666 2080 5130
2025-06-27 19:00 6.03 119 19700 (2021) 3 (1936) 960 8 12 24 27 111 558 666 2080 5130
2025-06-27 18:30 5.96 104 19700 (2021) 3 (1936) 960 8 12 24 27 111 558 666 2080 5130
2025-06-27 18:00 5.99 110 19700 (2021) 3 (1936) 960 8 12 24 27 111 558 666 2080 5130
2025-06-27 17:30 5.94 100 19700 (2021) 3 (1936) 960 8 12 24 27 111 558 666 2080 5130
2025-06-27 17:00 5.93 98 19700 (2021) 3 (1936) 960 8 12 24 27 111 558 666 2080 5130
2025-06-27 16:30 6.00 112 19700 (2021) 3 (1936) 960 8 12 24 27 111 558 666 2080 5130
2025-06-27 16:00 6.00 112 19700 (2021) 3 (1936) 960 8 12 24 27 111 558 666 2080 5130
2025-06-27 15:30 5.98 108 19700 (2021) 3 (1936) 960 8 12 24 27 111 558 666 2080 5130
2025-06-27 15:00 6.00 112 19700 (2021) 3 (1936) 960 8 12 24 27 111 558 666 2080 5130
2025-06-27 14:30 5.97 106 19700 (2021) 3 (1936) 960 8 12 24 27 111 558 666 2080 5130
2025-06-27 14:00 5.95 102 19700 (2021) 3 (1936) 960 8 12 24 27 111 558 666 2080 5130
2025-06-27 13:30 5.94 100 19700 (2021) 3 (1936) 960 8 12 24 27 111 558 666 2080 5130
2025-06-27 13:00 5.99 110 19700 (2021) 3 (1936) 960 8 12 24 27 111 558 666 2080 5130
2025-06-27 12:30 6.00 112 19700 (2021) 3 (1936) 960 8 12 24 27 111 558 666 2080 5130
2025-06-27 12:00 5.96 104 19700 (2021) 3 (1936) 960 8 12 24 27 111 558 666 2080 5130
2025-06-27 11:30 5.99 110 19700 (2021) 3 (1936) 960 8 12 24 27 111 558 666 2080 5130
2025-06-27 11:00 5.96 104 19700 (2021) 3 (1936) 960 8 12 24 27 111 558 666 2080 5130
2025-06-27 10:30 5.99 110 19700 (2021) 3 (1936) 960 8 12 24 27 111 558 666 2080 5130
2025-06-27 10:00 6.00 112 19700 (2021) 3 (1936) 960 8 12 24 27 111 558 666 2080 5130
2025-06-27 09:30 6.00 112 19700 (2021) 3 (1936) 960 8 12 24 27 111 558 666 2080 5130
2025-06-27 09:00 6.00 112 19700 (2021) 3 (1936) 960 8 12 24 27 111 558 666 2080 5130
2025-06-27 08:30 6.00 112 19700 (2021) 3 (1936) 960 8 12 24 27 111 558 666 2080 5130
2025-06-27 08:00 6.01 114 19700 (2021) 3 (1936) 960 8 12 24 27 111 558 666 2080 5130
2025-06-27 07:30 6.00 112 19700 (2021) 3 (1936) 960 8 12 24 27 111 558 666 2080 5130
2025-06-27 07:00 6.00 112 19700 (2021) 3 (1936) 960 8 12 24 27 111 558 666 2080 5130
2025-06-27 06:30 6.01 114 19700 (2021) 3 (1936) 960 8 12 24 27 111 558 666 2080 5130
2025-06-27 06:00 6.01 114 19700 (2021) 3 (1936) 960 8 12 24 27 111 558 666 2080 5130
2025-06-27 05:30 6.01 114 19700 (2021) 3 (1936) 960 8 12 24 27 111 558 666 2080 5130
2025-06-27 05:00 6.01 114 19700 (2021) 3 (1936) 960 8 12 24 27 111 558 666 2080 5130
2025-06-27 04:30 6.01 114 19700 (2021) 3 (1936) 960 8 12 24 27 111 558 666 2080 5130
2025-06-27 04:00 6.01 114 19700 (2021) 3 (1936) 960 8 12 24 27 111 558 666 2080 5130
2025-06-27 03:30 6.01 114 19700 (2021) 3 (1936) 960 8 12 24 27 111 558 666 2080 5130
2025-06-27 03:00 6.01 114 19700 (2021) 3 (1936) 960 8 12 24 27 111 558 666 2080 5130
2025-06-27 02:30 6.01 114 19700 (2021) 3 (1936) 960 8 12 24 27 111 558 666 2080 5130
2025-06-27 02:00 6.01 114 19700 (2021) 3 (1936) 960 8 12 24 27 111 558 666 2080 5130
2025-06-27 01:30 6.02 117 19700 (2021) 3 (1936) 960 8 12 24 27 111 558 666 2080 5130
2025-06-27 01:00 6.02 117 19700 (2021) 3 (1936) 960 8 12 24 27 111 558 666 2080 5130
2025-06-27 00:30 6.01 114 19700 (2021) 3 (1936) 960 8 12 24 27 111 558 666 2080 5130
2025-06-27 00:00 6.01 114 19700 (2021) 3 (1936) 960 8 12 24 27 111 558 666 2080 5130
2025-06-26 23:30 6.02 117 19700 (2021) 3 (1936) 960 8 12 24 27 111 558 666 2080 5130
2025-06-26 23:00 6.02 117 19700 (2021) 3 (1936) 960 8 12 24 27 111 558 666 2080 5130
2025-06-26 22:30 6.02 117 42100 (2021) 3 (1936) 1500 6 12 22 29 102 391 621 1950 8550
2025-06-26 22:00 6.02 117 42100 (2021) 3 (1936) 1500 6 12 22 29 102 391 621 1950 8550
2025-06-26 21:30 6.02 117 42100 (2021) 3 (1936) 1500 6 12 22 29 102 391 621 1950 8550
2025-06-26 21:00 6.02 117 42100 (2021) 3 (1936) 1500 6 12 22 29 102 391 621 1950 8550
2025-06-26 20:30 6.02 117 42100 (2021) 3 (1936) 1500 6 12 22 29 102 391 621 1950 8550
2025-06-26 20:00 6.03 119 42100 (2021) 3 (1936) 1500 6 12 22 29 102 391 621 1950 8550
2025-06-26 19:30 6.03 119 42100 (2021) 3 (1936) 1500 6 12 22 29 102 391 621 1950 8550
2025-06-26 19:00 6.03 119 42100 (2021) 3 (1936) 1500 6 12 22 29 102 391 621 1950 8550
2025-06-26 18:30 6.03 119 42100 (2021) 3 (1936) 1500 6 12 22 29 102 391 621 1950 8550
2025-06-26 18:00 6.03 119 42100 (2021) 3 (1936) 1500 6 12 22 29 102 391 621 1950 8550
2025-06-26 17:30 6.03 119 42100 (2021) 3 (1936) 1500 6 12 22 29 102 391 621 1950 8550
2025-06-26 17:00 6.04 121 42100 (2021) 3 (1936) 1500 6 12 22 29 102 391 621 1950 8550
2025-06-26 16:30 6.03 119 42100 (2021) 3 (1936) 1500 6 12 22 29 102 391 621 1950 8550
2025-06-26 16:00 6.04 121 42100 (2021) 3 (1936) 1500 6 12 22 29 102 391 621 1950 8550
2025-06-26 15:30 6.04 121 42100 (2021) 3 (1936) 1500 6 12 22 29 102 391 621 1950 8550
2025-06-26 15:00 6.04 121 42100 (2021) 3 (1936) 1500 6 12 22 29 102 391 621 1950 8550
2025-06-26 14:30 6.05 123 42100 (2021) 3 (1936) 1500 6 12 22 29 102 391 621 1950 8550
2025-06-26 14:00 6.00 112 42100 (2021) 3 (1936) 1500 6 12 22 29 102 391 621 1950 8550
2025-06-26 13:30 6.05 123 42100 (2021) 3 (1936) 1500 6 12 22 29 102 391 621 1950 8550
2025-06-26 13:00 6.03 119 42100 (2021) 3 (1936) 1500 6 12 22 29 102 391 621 1950 8550
2025-06-26 12:30 6.05 123 42100 (2021) 3 (1936) 1500 6 12 22 29 102 391 621 1950 8550
2025-06-26 12:00 6.05 123 42100 (2021) 3 (1936) 1500 6 12 22 29 102 391 621 1950 8550
2025-06-26 11:30 6.05 123 42100 (2021) 3 (1936) 1500 6 12 22 29 102 391 621 1950 8550
2025-06-26 11:00 5.99 110 42100 (2021) 3 (1936) 1500 6 12 22 29 102 391 621 1950 8550
2025-06-26 10:30 6.04 121 42100 (2021) 3 (1936) 1500 6 12 22 29 102 391 621 1950 8550
2025-06-26 10:00 6.04 121 42100 (2021) 3 (1936) 1500 6 12 22 29 102 391 621 1950 8550
2025-06-26 09:30 6.05 123 42100 (2021) 3 (1936) 1500 6 12 22 29 102 391 621 1950 8550
2025-06-26 09:00 6.05 123 42100 (2021) 3 (1936) 1500 6 12 22 29 102 391 621 1950 8550
2025-06-26 08:30 6.06 126 42100 (2021) 3 (1936) 1500 6 12 22 29 102 391 621 1950 8550
2025-06-26 08:00 6.06 126 42100 (2021) 3 (1936) 1500 6 12 22 29 102 391 621 1950 8550
2025-06-26 07:30 6.06 126 42100 (2021) 3 (1936) 1500 6 12 22 29 102 391 621 1950 8550
2025-06-26 07:00 6.06 126 42100 (2021) 3 (1936) 1500 6 12 22 29 102 391 621 1950 8550
2025-06-26 06:30 6.06 126 42100 (2021) 3 (1936) 1500 6 12 22 29 102 391 621 1950 8550
2025-06-26 06:00 6.06 126 42100 (2021) 3 (1936) 1500 6 12 22 29 102 391 621 1950 8550
2025-06-26 05:30 6.07 128 42100 (2021) 3 (1936) 1500 6 12 22 29 102 391 621 1950 8550
2025-06-26 05:00 6.07 128 42100 (2021) 3 (1936) 1500 6 12 22 29 102 391 621 1950 8550
2025-06-26 04:30 6.07 128 42100 (2021) 3 (1936) 1500 6 12 22 29 102 391 621 1950 8550
2025-06-26 04:00 6.07 128 42100 (2021) 3 (1936) 1500 6 12 22 29 102 391 621 1950 8550
2025-06-26 03:30 6.07 128 42100 (2021) 3 (1936) 1500 6 12 22 29 102 391 621 1950 8550
2025-06-26 03:00 6.07 128 42100 (2021) 3 (1936) 1500 6 12 22 29 102 391 621 1950 8550
2025-06-26 02:30 6.07 128 42100 (2021) 3 (1936) 1500 6 12 22 29 102 391 621 1950 8550
2025-06-26 02:00 6.07 128 42100 (2021) 3 (1936) 1500 6 12 22 29 102 391 621 1950 8550
2025-06-26 01:30 6.08 131 42100 (2021) 3 (1936) 1500 6 12 22 29 102 391 621 1950 8550
2025-06-26 01:00 6.08 131 42100 (2021) 3 (1936) 1500 6 12 22 29 102 391 621 1950 8550
2025-06-26 00:30 6.08 131 42100 (2021) 3 (1936) 1500 6 12 22 29 102 391 621 1950 8550
2025-06-26 00:00 6.08 131 42100 (2021) 3 (1936) 1500 6 12 22 29 102 391 621 1950 8550
2025-06-25 23:30 6.08 131 42100 (2021) 3 (1936) 1500 6 12 22 29 102 391 621 1950 8550
2025-06-25 23:00 6.08 131 42100 (2021) 3 (1936) 1500 6 12 22 29 102 391 621 1950 8550
2025-06-25 22:30 6.08 131 17500 (2021) 4 (1936) 667 9 12 19 30 96 423 672 1410 3270
2025-06-25 22:00 6.08 131 17500 (2021) 4 (1936) 667 9 12 19 30 96 423 672 1410 3270
2025-06-25 21:30 6.09 133 17500 (2021) 4 (1936) 667 9 12 19 30 96 423 672 1410 3270
2025-06-25 21:00 6.09 133 17500 (2021) 4 (1936) 667 9 12 19 30 96 423 672 1410 3270
2025-06-25 20:30 6.09 133 17500 (2021) 4 (1936) 667 9 12 19 30 96 423 672 1410 3270
2025-06-25 20:00 6.09 133 17500 (2021) 4 (1936) 667 9 12 19 30 96 423 672 1410 3270
2025-06-25 19:30 6.09 133 17500 (2021) 4 (1936) 667 9 12 19 30 96 423 672 1410 3270
2025-06-25 19:00 6.09 133 17500 (2021) 4 (1936) 667 9 12 19 30 96 423 672 1410 3270
2025-06-25 18:30 6.10 136 17500 (2021) 4 (1936) 667 9 12 19 30 96 423 672 1410 3270
2025-06-25 18:00 6.10 136 17500 (2021) 4 (1936) 667 9 12 19 30 96 423 672 1410 3270
2025-06-25 17:30 6.10 136 17500 (2021) 4 (1936) 667 9 12 19 30 96 423 672 1410 3270
2025-06-25 17:00 6.10 136 17500 (2021) 4 (1936) 667 9 12 19 30 96 423 672 1410 3270
2025-06-25 16:30 138 17500 (2021) 4 (1936) 667 9 12 19 30 96 423 672 1410 3270
2025-06-25 16:00 6.11 138 17500 (2021) 4 (1936) 667 9 12 19 30 96 423 672 1410 3270
2025-06-25 15:30 6.11 138 17500 (2021) 4 (1936) 667 9 12 19 30 96 423 672 1410 3270
2025-06-25 15:00 6.11 138 17500 (2021) 4 (1936) 667 9 12 19 30 96 423 672 1410 3270
2025-06-25 14:30 6.11 138 17500 (2021) 4 (1936) 667 9 12 19 30 96 423 672 1410 3270
2025-06-25 14:00 6.12 141 17500 (2021) 4 (1936) 667 9 12 19 30 96 423 672 1410 3270
2025-06-25 13:30 6.11 138 17500 (2021) 4 (1936) 667 9 12 19 30 96 423 672 1410 3270
2025-06-25 13:00 6.12 141 17500 (2021) 4 (1936) 667 9 12 19 30 96 423 672 1410 3270
2025-06-25 12:30 6.12 141 17500 (2021) 4 (1936) 667 9 12 19 30 96 423 672 1410 3270
2025-06-25 12:00 6.12 141 17500 (2021) 4 (1936) 667 9 12 19 30 96 423 672 1410 3270
2025-06-25 11:30 6.12 141 17500 (2021) 4 (1936) 667 9 12 19 30 96 423 672 1410 3270
2025-06-25 11:00 6.11 138 17500 (2021) 4 (1936) 667 9 12 19 30 96 423 672 1410 3270
2025-06-25 10:30 6.13 143 17500 (2021) 4 (1936) 667 9 12 19 30 96 423 672 1410 3270
2025-06-25 10:00 6.13 143 17500 (2021) 4 (1936) 667 9 12 19 30 96 423 672 1410 3270
2025-06-25 09:30 6.13 143 17500 (2021) 4 (1936) 667 9 12 19 30 96 423 672 1410 3270
2025-06-25 09:00 6.13 143 17500 (2021) 4 (1936) 667 9 12 19 30 96 423 672 1410 3270
2025-06-25 08:30 6.13 143 17500 (2021) 4 (1936) 667 9 12 19 30 96 423 672 1410 3270
2025-06-25 08:00 6.13 143 17500 (2021) 4 (1936) 667 9 12 19 30 96 423 672 1410 3270
2025-06-25 07:30 6.13 143 17500 (2021) 4 (1936) 667 9 12 19 30 96 423 672 1410 3270
2025-06-25 07:00 6.14 146 17500 (2021) 4 (1936) 667 9 12 19 30 96 423 672 1410 3270
2025-06-25 06:30 6.14 146 17500 (2021) 4 (1936) 667 9 12 19 30 96 423 672 1410 3270
2025-06-25 06:00 6.14 146 17500 (2021) 4 (1936) 667 9 12 19 30 96 423 672 1410 3270
2025-06-25 05:30 6.14 146 17500 (2021) 4 (1936) 667 9 12 19 30 96 423 672 1410 3270
2025-06-25 05:00 6.14 146 17500 (2021) 4 (1936) 667 9 12 19 30 96 423 672 1410 3270
2025-06-25 04:30 6.14 146 17500 (2021) 4 (1936) 667 9 12 19 30 96 423 672 1410 3270
2025-06-25 04:00 6.14 146 17500 (2021) 4 (1936) 667 9 12 19 30 96 423 672 1410 3270
2025-06-25 03:30 6.14 146 17500 (2021) 4 (1936) 667 9 12 19 30 96 423 672 1410 3270
2025-06-25 03:00 6.15 148 17500 (2021) 4 (1936) 667 9 12 19 30 96 423 672 1410 3270
2025-06-25 02:30 6.15 148 17500 (2021) 4 (1936) 667 9 12 19 30 96 423 672 1410 3270
2025-06-25 02:00 6.15 148 17500 (2021) 4 (1936) 667 9 12 19 30 96 423 672 1410 3270
2025-06-25 01:30 6.15 148 17500 (2021) 4 (1936) 667 9 12 19 30 96 423 672 1410 3270
2025-06-25 01:00 6.15 148 17500 (2021) 4 (1936) 667 9 12 19 30 96 423 672 1410 3270
2025-06-25 00:30 6.16 151 17500 (2021) 4 (1936) 667 9 12 19 30 96 423 672 1410 3270
2025-06-25 00:00 6.16 151 17500 (2021) 4 (1936) 667 9 12 19 30 96 423 672 1410 3270
2025-06-24 23:30 6.16 151 17500 (2021) 4 (1936) 667 9 12 19 30 96 423 672 1410 3270
2025-06-24 23:00 6.16 151 17500 (2021) 4 (1936) 667 9 12 19 30 96 423 672 1410 3270
2025-06-24 22:30 6.16 151 8550 (2000) 4 (1936) 563 10 13 20 29 94 298 523 1410 3030
2025-06-24 22:00 6.16 151 8550 (2000) 4 (1936) 563 10 13 20 29 94 298 523 1410 3030
2025-06-24 21:30 6.17 154 8550 (2000) 4 (1936) 563 10 13 20 29 94 298 523 1410 3030
2025-06-24 21:00 6.17 154 8550 (2000) 4 (1936) 563 10 13 20 29 94 298 523 1410 3030
2025-06-24 20:30 6.17 154 8550 (2000) 4 (1936) 563 10 13 20 29 94 298 523 1410 3030
2025-06-24 20:00 6.17 154 8550 (2000) 4 (1936) 563 10 13 20 29 94 298 523 1410 3030
2025-06-24 19:30 6.17 154 8550 (2000) 4 (1936) 563 10 13 20 29 94 298 523 1410 3030
2025-06-24 19:00 6.18 157 8550 (2000) 4 (1936) 563 10 13 20 29 94 298 523 1410 3030
2025-06-24 18:30 6.18 157 8550 (2000) 4 (1936) 563 10 13 20 29 94 298 523 1410 3030
2025-06-24 18:00 6.18 157 8550 (2000) 4 (1936) 563 10 13 20 29 94 298 523 1410 3030
2025-06-24 17:30 6.19 159 8550 (2000) 4 (1936) 563 10 13 20 29 94 298 523 1410 3030
2025-06-24 17:00 6.18 157 8550 (2000) 4 (1936) 563 10 13 20 29 94 298 523 1410 3030
2025-06-24 16:30 6.19 159 8550 (2000) 4 (1936) 563 10 13 20 29 94 298 523 1410 3030
2025-06-24 16:00 6.19 159 8550 (2000) 4 (1936) 563 10 13 20 29 94 298 523 1410 3030
2025-06-24 15:30 6.20 162 8550 (2000) 4 (1936) 563 10 13 20 29 94 298 523 1410 3030
2025-06-24 15:00 6.20 162 8550 (2000) 4 (1936) 563 10 13 20 29 94 298 523 1410 3030
2025-06-24 14:30 6.20 162 8550 (2000) 4 (1936) 563 10 13 20 29 94 298 523 1410 3030
2025-06-24 14:00 6.20 162 8550 (2000) 4 (1936) 563 10 13 20 29 94 298 523 1410 3030
2025-06-24 13:30 6.21 165 8550 (2000) 4 (1936) 563 10 13 20 29 94 298 523 1410 3030
2025-06-24 13:00 6.21 165 8550 (2000) 4 (1936) 563 10 13 20 29 94 298 523 1410 3030
2025-06-24 12:30 6.21 165 8550 (2000) 4 (1936) 563 10 13 20 29 94 298 523 1410 3030
2025-06-24 12:00 6.21 165 8550 (2000) 4 (1936) 563 10 13 20 29 94 298 523 1410 3030
2025-06-24 11:30 6.20 162 8550 (2000) 4 (1936) 563 10 13 20 29 94 298 523 1410 3030
2025-06-24 11:00 6.17 154 8550 (2000) 4 (1936) 563 10 13 20 29 94 298 523 1410 3030
2025-06-24 10:30 6.19 159 8550 (2000) 4 (1936) 563 10 13 20 29 94 298 523 1410 3030
2025-06-24 10:00 6.21 165 8550 (2000) 4 (1936) 563 10 13 20 29 94 298 523 1410 3030
2025-06-24 09:30 6.22 168 8550 (2000) 4 (1936) 563 10 13 20 29 94 298 523 1410 3030
2025-06-24 09:00 6.23 171 8550 (2000) 4 (1936) 563 10 13 20 29 94 298 523 1410 3030
2025-06-24 08:30 6.23 171 8550 (2000) 4 (1936) 563 10 13 20 29 94 298 523 1410 3030
2025-06-24 08:00 6.23 171 8550 (2000) 4 (1936) 563 10 13 20 29 94 298 523 1410 3030
2025-06-24 07:30 6.24 174 8550 (2000) 4 (1936) 563 10 13 20 29 94 298 523 1410 3030
2025-06-24 07:00 6.24 174 8550 (2000) 4 (1936) 563 10 13 20 29 94 298 523 1410 3030
2025-06-24 06:30 6.25 177 8550 (2000) 4 (1936) 563 10 13 20 29 94 298 523 1410 3030
2025-06-24 06:00 6.25 177 8550 (2000) 4 (1936) 563 10 13 20 29 94 298 523 1410 3030
2025-06-24 05:30 6.25 177 8550 (2000) 4 (1936) 563 10 13 20 29 94 298 523 1410 3030
2025-06-24 05:00 6.25 177 8550 (2000) 4 (1936) 563 10 13 20 29 94 298 523 1410 3030
2025-06-24 04:30 6.25 177 8550 (2000) 4 (1936) 563 10 13 20 29 94 298 523 1410 3030
2025-06-24 04:00 6.25 177 8550 (2000) 4 (1936) 563 10 13 20 29 94 298 523 1410 3030
2025-06-24 03:30 6.25 177 8550 (2000) 4 (1936) 563 10 13 20 29 94 298 523 1410 3030
2025-06-24 03:00 6.25 177 8550 (2000) 4 (1936) 563 10 13 20 29 94 298 523 1410 3030
2025-06-24 02:30 6.25 177 8550 (2000) 4 (1936) 563 10 13 20 29 94 298 523 1410 3030
2025-06-24 02:00 6.26 180 8550 (2000) 4 (1936) 563 10 13 20 29 94 298 523 1410 3030
2025-06-24 01:30 6.26 180 8550 (2000) 4 (1936) 563 10 13 20 29 94 298 523 1410 3030
2025-06-24 01:00 6.26 180 8550 (2000) 4 (1936) 563 10 13 20 29 94 298 523 1410 3030
2025-06-24 00:30 6.27 183 8550 (2000) 4 (1936) 563 10 13 20 29 94 298 523 1410 3030
2025-06-24 00:00 6.27 183 8550 (2000) 4 (1936) 563 10 13 20 29 94 298 523 1410 3030
2025-06-23 23:30 6.27 183 8550 (2000) 4 (1936) 563 10 13 20 29 94 298 523 1410 3030
2025-06-23 23:00 6.27 183 8550 (2000) 4 (1936) 563 10 13 20 29 94 298 523 1410 3030
2025-06-23 22:30 6.28 186 15200 (2015) 4 (1936) 762 12 14 22 32 89 271 426 1720 4560
2025-06-23 22:00 6.28 186 15200 (2015) 4 (1936) 762 12 14 22 32 89 271 426 1720 4560
2025-06-23 21:30 6.28 186 15200 (2015) 4 (1936) 762 12 14 22 32 89 271 426 1720 4560
2025-06-23 21:00 6.29 189 15200 (2015) 4 (1936) 762 12 14 22 32 89 271 426 1720 4560
2025-06-23 20:30 6.29 189 15200 (2015) 4 (1936) 762 12 14 22 32 89 271 426 1720 4560
2025-06-23 20:00 6.29 189 15200 (2015) 4 (1936) 762 12 14 22 32 89 271 426 1720 4560
2025-06-23 19:30 6.29 189 15200 (2015) 4 (1936) 762 12 14 22 32 89 271 426 1720 4560
2025-06-23 19:00 6.30 192 15200 (2015) 4 (1936) 762 12 14 22 32 89 271 426 1720 4560
2025-06-23 18:30 6.30 192 15200 (2015) 4 (1936) 762 12 14 22 32 89 271 426 1720 4560
2025-06-23 18:00 6.30 192 15200 (2015) 4 (1936) 762 12 14 22 32 89 271 426 1720 4560
2025-06-23 17:30 6.31 195 15200 (2015) 4 (1936) 762 12 14 22 32 89 271 426 1720 4560
2025-06-23 17:00 6.31 195 15200 (2015) 4 (1936) 762 12 14 22 32 89 271 426 1720 4560
2025-06-23 16:30 6.32 199 15200 (2015) 4 (1936) 762 12 14 22 32 89 271 426 1720 4560
2025-06-23 16:00 6.32 199 15200 (2015) 4 (1936) 762 12 14 22 32 89 271 426 1720 4560
2025-06-23 15:30 6.32 199 15200 (2015) 4 (1936) 762 12 14 22 32 89 271 426 1720 4560
2025-06-23 15:00 6.33 202 15200 (2015) 4 (1936) 762 12 14 22 32 89 271 426 1720 4560
2025-06-23 14:30 6.33 202 15200 (2015) 4 (1936) 762 12 14 22 32 89 271 426 1720 4560
2025-06-23 14:00 6.29 189 15200 (2015) 4 (1936) 762 12 14 22 32 89 271 426 1720 4560
2025-06-23 13:30 6.33 202 15200 (2015) 4 (1936) 762 12 14 22 32 89 271 426 1720 4560
2025-06-23 13:00 6.34 205 15200 (2015) 4 (1936) 762 12 14 22 32 89 271 426 1720 4560
2025-06-23 12:30 6.35 208 15200 (2015) 4 (1936) 762 12 14 22 32 89 271 426 1720 4560
2025-06-23 12:00 6.33 202 15200 (2015) 4 (1936) 762 12 14 22 32 89 271 426 1720 4560
2025-06-23 11:30 6.35 208 15200 (2015) 4 (1936) 762 12 14 22 32 89 271 426 1720 4560
2025-06-23 11:00 6.33 202 15200 (2015) 4 (1936) 762 12 14 22 32 89 271 426 1720 4560
2025-06-23 10:30 6.36 212 15200 (2015) 4 (1936) 762 12 14 22 32 89 271 426 1720 4560
2025-06-23 10:00 6.33 202 15200 (2015) 4 (1936) 762 12 14 22 32 89 271 426 1720 4560
2025-06-23 09:30 6.36 212 15200 (2015) 4 (1936) 762 12 14 22 32 89 271 426 1720 4560
2025-06-23 09:00 6.36 212 15200 (2015) 4 (1936) 762 12 14 22 32 89 271 426 1720 4560
2025-06-23 08:30 6.37 215 15200 (2015) 4 (1936) 762 12 14 22 32 89 271 426 1720 4560
2025-06-23 08:00 6.38 219 15200 (2015) 4 (1936) 762 12 14 22 32 89 271 426 1720 4560
2025-06-23 07:30 6.38 219 15200 (2015) 4 (1936) 762 12 14 22 32 89 271 426 1720 4560
2025-06-23 07:00 6.38 219 15200 (2015) 4 (1936) 762 12 14 22 32 89 271 426 1720 4560
2025-06-23 06:30 6.39 222 15200 (2015) 4 (1936) 762 12 14 22 32 89 271 426 1720 4560
2025-06-23 06:00 6.39 222 15200 (2015) 4 (1936) 762 12 14 22 32 89 271 426 1720 4560
2025-06-23 05:30 6.40 226 15200 (2015) 4 (1936) 762 12 14 22 32 89 271 426 1720 4560
2025-06-23 05:00 6.40 226 15200 (2015) 4 (1936) 762 12 14 22 32 89 271 426 1720 4560
2025-06-23 04:30 6.40 226 15200 (2015) 4 (1936) 762 12 14 22 32 89 271 426 1720 4560
2025-06-23 04:00 6.41 229 15200 (2015) 4 (1936) 762 12 14 22 32 89 271 426 1720 4560
2025-06-23 03:30 6.41 229 15200 (2015) 4 (1936) 762 12 14 22 32 89 271 426 1720 4560
2025-06-23 03:00 6.42 233 15200 (2015) 4 (1936) 762 12 14 22 32 89 271 426 1720 4560
2025-06-23 02:30 6.42 233 15200 (2015) 4 (1936) 762 12 14 22 32 89 271 426 1720 4560
2025-06-23 02:00 6.43 237 15200 (2015) 4 (1936) 762 12 14 22 32 89 271 426 1720 4560
2025-06-23 01:30 6.43 237 15200 (2015) 4 (1936) 762 12 14 22 32 89 271 426 1720 4560
2025-06-23 01:00 6.43 237 15200 (2015) 4 (1936) 762 12 14 22 32 89 271 426 1720 4560
2025-06-23 00:30 6.44 240 15200 (2015) 4 (1936) 762 12 14 22 32 89 271 426 1720 4560
2025-06-23 00:00 6.44 240 15200 (2015) 4 (1936) 762 12 14 22 32 89 271 426 1720 4560
2025-06-22 23:30 6.44 240 15200 (2015) 4 (1936) 762 12 14 22 32 89 271 426 1720 4560
2025-06-22 23:00 6.45 244 15200 (2015) 4 (1936) 762 12 14 22 32 89 271 426 1720 4560
2025-06-22 22:30 6.46 248 47400 (2015) 8 (1936) 1190 12 16 23 31 82 321 488 1980 4610
2025-06-22 22:00 6.45 244 47400 (2015) 8 (1936) 1190 12 16 23 31 82 321 488 1980 4610
2025-06-22 21:30 6.46 248 47400 (2015) 8 (1936) 1190 12 16 23 31 82 321 488 1980 4610
2025-06-22 21:00 6.47 251 47400 (2015) 8 (1936) 1190 12 16 23 31 82 321 488 1980 4610
2025-06-22 20:30 6.47 251 47400 (2015) 8 (1936) 1190 12 16 23 31 82 321 488 1980 4610
2025-06-22 20:00 6.48 255 47400 (2015) 8 (1936) 1190 12 16 23 31 82 321 488 1980 4610
2025-06-22 19:30 6.48 255 47400 (2015) 8 (1936) 1190 12 16 23 31 82 321 488 1980 4610
2025-06-22 19:00 6.49 259 47400 (2015) 8 (1936) 1190 12 16 23 31 82 321 488 1980 4610
2025-06-22 18:30 6.49 259 47400 (2015) 8 (1936) 1190 12 16 23 31 82 321 488 1980 4610
2025-06-22 18:00 6.50 263 47400 (2015) 8 (1936) 1190 12 16 23 31 82 321 488 1980 4610
2025-06-22 17:30 6.51 267 47400 (2015) 8 (1936) 1190 12 16 23 31 82 321 488 1980 4610
2025-06-22 17:00 6.51 267 47400 (2015) 8 (1936) 1190 12 16 23 31 82 321 488 1980 4610
2025-06-22 16:30 6.52 270 47400 (2015) 8 (1936) 1190 12 16 23 31 82 321 488 1980 4610
2025-06-22 16:00 6.51 267 47400 (2015) 8 (1936) 1190 12 16 23 31 82 321 488 1980 4610
2025-06-22 15:30 6.53 273 47400 (2015) 8 (1936) 1190 12 16 23 31 82 321 488 1980 4610
2025-06-22 15:00 6.53 273 47400 (2015) 8 (1936) 1190 12 16 23 31 82 321 488 1980 4610
2025-06-22 14:30 6.50 263 47400 (2015) 8 (1936) 1190 12 16 23 31 82 321 488 1980 4610
2025-06-22 14:00 6.55 280 47400 (2015) 8 (1936) 1190 12 16 23 31 82 321 488 1980 4610
2025-06-22 13:30 6.55 280 47400 (2015) 8 (1936) 1190 12 16 23 31 82 321 488 1980 4610
2025-06-22 13:00 6.56 283 47400 (2015) 8 (1936) 1190 12 16 23 31 82 321 488 1980 4610
2025-06-22 12:30 6.55 280 47400 (2015) 8 (1936) 1190 12 16 23 31 82 321 488 1980 4610
2025-06-22 12:00 6.51 267 47400 (2015) 8 (1936) 1190 12 16 23 31 82 321 488 1980 4610
2025-06-22 11:30 6.57 286 47400 (2015) 8 (1936) 1190 12 16 23 31 82 321 488 1980 4610
2025-06-22 11:00 6.58 289 47400 (2015) 8 (1936) 1190 12 16 23 31 82 321 488 1980 4610
2025-06-22 10:30 6.58 289 47400 (2015) 8 (1936) 1190 12 16 23 31 82 321 488 1980 4610
2025-06-22 10:00 6.59 292 47400 (2015) 8 (1936) 1190 12 16 23 31 82 321 488 1980 4610
2025-06-22 09:30 6.58 289 47400 (2015) 8 (1936) 1190 12 16 23 31 82 321 488 1980 4610
2025-06-22 09:00 6.60 296 47400 (2015) 8 (1936) 1190 12 16 23 31 82 321 488 1980 4610
2025-06-22 08:30 6.61 299 47400 (2015) 8 (1936) 1190 12 16 23 31 82 321 488 1980 4610
2025-06-22 08:00 6.61 299 47400 (2015) 8 (1936) 1190 12 16 23 31 82 321 488 1980 4610
2025-06-22 07:30 6.62 302 47400 (2015) 8 (1936) 1190 12 16 23 31 82 321 488 1980 4610
2025-06-22 07:00 6.63 305 47400 (2015) 8 (1936) 1190 12 16 23 31 82 321 488 1980 4610
2025-06-22 06:30 6.64 309 47400 (2015) 8 (1936) 1190 12 16 23 31 82 321 488 1980 4610
2025-06-22 06:00 6.64 309 47400 (2015) 8 (1936) 1190 12 16 23 31 82 321 488 1980 4610
2025-06-22 05:30 6.65 312 47400 (2015) 8 (1936) 1190 12 16 23 31 82 321 488 1980 4610
2025-06-22 05:00 6.66 315 47400 (2015) 8 (1936) 1190 12 16 23 31 82 321 488 1980 4610
2025-06-22 04:30 6.66 315 47400 (2015) 8 (1936) 1190 12 16 23 31 82 321 488 1980 4610
2025-06-22 04:00 6.67 319 47400 (2015) 8 (1936) 1190 12 16 23 31 82 321 488 1980 4610
2025-06-22 03:30 6.68 322 47400 (2015) 8 (1936) 1190 12 16 23 31 82 321 488 1980 4610
2025-06-22 03:00 6.68 322 47400 (2015) 8 (1936) 1190 12 16 23 31 82 321 488 1980 4610
2025-06-22 02:30 6.69 326 47400 (2015) 8 (1936) 1190 12 16 23 31 82 321 488 1980 4610
2025-06-22 02:00 6.70 329 47400 (2015) 8 (1936) 1190 12 16 23 31 82 321 488 1980 4610
2025-06-22 01:30 6.70 329 47400 (2015) 8 (1936) 1190 12 16 23 31 82 321 488 1980 4610
2025-06-22 01:00 6.71 333 47400 (2015) 8 (1936) 1190 12 16 23 31 82 321 488 1980 4610
2025-06-22 00:30 6.72 336 47400 (2015) 8 (1936) 1190 12 16 23 31 82 321 488 1980 4610
2025-06-22 00:00 6.73 340 47400 (2015) 8 (1936) 1190 12 16 23 31 82 321 488 1980 4610
2025-06-21 23:30 6.73 340 47400 (2015) 8 (1936) 1190 12 16 23 31 82 321 488 1980 4610
2025-06-21 23:00 6.74 343 47400 (2015) 8 (1936) 1190 12 16 23 31 82 321 488 1980 4610
2025-06-21 22:30 6.75 347 29500 (2015) 4 (1936) 1280 13 19 24 31 100 439 653 2490 7950
2025-06-21 22:00 6.76 350 29500 (2015) 4 (1936) 1280 13 19 24 31 100 439 653 2490 7950
2025-06-21 21:30 6.77 354 29500 (2015) 4 (1936) 1280 13 19 24 31 100 439 653 2490 7950
2025-06-21 21:00 6.78 358 29500 (2015) 4 (1936) 1280 13 19 24 31 100 439 653 2490 7950
2025-06-21 20:30 6.79 361 29500 (2015) 4 (1936) 1280 13 19 24 31 100 439 653 2490 7950
2025-06-21 20:00 6.79 361 29500 (2015) 4 (1936) 1280 13 19 24 31 100 439 653 2490 7950
2025-06-21 19:30 6.80 365 29500 (2015) 4 (1936) 1280 13 19 24 31 100 439 653 2490 7950
2025-06-21 19:00 6.81 369 29500 (2015) 4 (1936) 1280 13 19 24 31 100 439 653 2490 7950
2025-06-21 18:30 6.78 358 29500 (2015) 4 (1936) 1280 13 19 24 31 100 439 653 2490 7950
2025-06-21 18:00 6.83 376 29500 (2015) 4 (1936) 1280 13 19 24 31 100 439 653 2490 7950
2025-06-21 17:30 6.80 365 29500 (2015) 4 (1936) 1280 13 19 24 31 100 439 653 2490 7950
2025-06-21 17:00 6.81 369 29500 (2015) 4 (1936) 1280 13 19 24 31 100 439 653 2490 7950
2025-06-21 16:30 6.86 387 29500 (2015) 4 (1936) 1280 13 19 24 31 100 439 653 2490 7950
2025-06-21 16:00 6.87 391 29500 (2015) 4 (1936) 1280 13 19 24 31 100 439 653 2490 7950
2025-06-21 15:30 6.88 395 29500 (2015) 4 (1936) 1280 13 19 24 31 100 439 653 2490 7950
2025-06-21 15:00 6.86 387 29500 (2015) 4 (1936) 1280 13 19 24 31 100 439 653 2490 7950
2025-06-21 14:30 6.87 391 29500 (2015) 4 (1936) 1280 13 19 24 31 100 439 653 2490 7950
2025-06-21 14:00 6.92 411 29500 (2015) 4 (1936) 1280 13 19 24 31 100 439 653 2490 7950
2025-06-21 13:30 6.89 399 29500 (2015) 4 (1936) 1280 13 19 24 31 100 439 653 2490 7950
2025-06-21 13:00 6.94 419 29500 (2015) 4 (1936) 1280 13 19 24 31 100 439 653 2490 7950
2025-06-21 12:30 6.93 415 29500 (2015) 4 (1936) 1280 13 19 24 31 100 439 653 2490 7950
2025-06-21 12:00 6.93 415 29500 (2015) 4 (1936) 1280 13 19 24 31 100 439 653 2490 7950
2025-06-21 11:30 6.96 427 29500 (2015) 4 (1936) 1280 13 19 24 31 100 439 653 2490 7950
2025-06-21 11:00 6.98 435 29500 (2015) 4 (1936) 1280 13 19 24 31 100 439 653 2490 7950
2025-06-21 10:30 6.98 435 29500 (2015) 4 (1936) 1280 13 19 24 31 100 439 653 2490 7950
2025-06-21 10:00 6.99 439 29500 (2015) 4 (1936) 1280 13 19 24 31 100 439 653 2490 7950
2025-06-21 09:30 6.90 403 29500 (2015) 4 (1936) 1280 13 19 24 31 100 439 653 2490 7950
2025-06-21 09:00 7.01 447 29500 (2015) 4 (1936) 1280 13 19 24 31 100 439 653 2490 7950
2025-06-21 08:30 7.03 456 29500 (2015) 4 (1936) 1280 13 19 24 31 100 439 653 2490 7950
2025-06-21 08:00 7.04 460 29500 (2015) 4 (1936) 1280 13 19 24 31 100 439 653 2490 7950
2025-06-21 07:30 7.05 464 29500 (2015) 4 (1936) 1280 13 19 24 31 100 439 653 2490 7950
2025-06-21 07:00 7.07 473 29500 (2015) 4 (1936) 1280 13 19 24 31 100 439 653 2490 7950
2025-06-21 06:30 7.08 477 29500 (2015) 4 (1936) 1280 13 19 24 31 100 439 653 2490 7950
2025-06-21 06:00 7.10 486 29500 (2015) 4 (1936) 1280 13 19 24 31 100 439 653 2490 7950
2025-06-21 05:30 7.11 490 29500 (2015) 4 (1936) 1280 13 19 24 31 100 439 653 2490 7950
2025-06-21 05:00 7.12 494 29500 (2015) 4 (1936) 1280 13 19 24 31 100 439 653 2490 7950
2025-06-21 04:30 7.14 503 29500 (2015) 4 (1936) 1280 13 19 24 31 100 439 653 2490 7950
2025-06-21 04:00 7.15 508 29500 (2015) 4 (1936) 1280 13 19 24 31 100 439 653 2490 7950
2025-06-21 03:30 7.17 517 29500 (2015) 4 (1936) 1280 13 19 24 31 100 439 653 2490 7950
2025-06-21 03:00 521 29500 (2015) 4 (1936) 1280 13 19 24 31 100 439 653 2490 7950
2025-06-21 02:30 526 29500 (2015) 4 (1936) 1280 13 19 24 31 100 439 653 2490 7950
2025-06-21 02:00 535 29500 (2015) 4 (1936) 1280 13 19 24 31 100 439 653 2490 7950
2025-06-21 01:30 540 29500 (2015) 4 (1936) 1280 13 19 24 31 100 439 653 2490 7950
2025-06-21 01:00 544 29500 (2015) 4 (1936) 1280 13 19 24 31 100 439 653 2490 7950
2025-06-21 00:30 554 29500 (2015) 4 (1936) 1280 13 19 24 31 100 439 653 2490 7950
2025-06-21 00:00 563 29500 (2015) 4 (1936) 1280 13 19 24 31 100 439 653 2490 7950
2025-06-20 23:30 568 29500 (2015) 4 (1936) 1280 13 19 24 31 100 439 653 2490 7950
2025-06-20 23:00 7.29 573 29500 (2015) 4 (1936) 1280 13 19 24 31 100 439 653 2490 7950
2025-06-20 22:30 588 32700 (1928) 7 (1936) 902 13 17 27 33 106 344 522 2150 3620
2025-06-20 22:00 7.33 592 32700 (1928) 7 (1936) 902 13 17 27 33 106 344 522 2150 3620
2025-06-20 21:30 602 32700 (1928) 7 (1936) 902 13 17 27 33 106 344 522 2150 3620
2025-06-20 21:00 7.36 607 32700 (1928) 7 (1936) 902 13 17 27 33 106 344 522 2150 3620
2025-06-20 20:30 7.39 622 32700 (1928) 7 (1936) 902 13 17 27 33 106 344 522 2150 3620
2025-06-20 20:00 7.40 627 32700 (1928) 7 (1936) 902 13 17 27 33 106 344 522 2150 3620
2025-06-20 19:30 7.42 638 32700 (1928) 7 (1936) 902 13 17 27 33 106 344 522 2150 3620
2025-06-20 19:00 7.44 648 32700 (1928) 7 (1936) 902 13 17 27 33 106 344 522 2150 3620
2025-06-20 18:30 7.46 658 32700 (1928) 7 (1936) 902 13 17 27 33 106 344 522 2150 3620
2025-06-20 18:00 7.44 648 32700 (1928) 7 (1936) 902 13 17 27 33 106 344 522 2150 3620
2025-06-20 17:30 7.44 648 32700 (1928) 7 (1936) 902 13 17 27 33 106 344 522 2150 3620
2025-06-20 17:00 7.52 690 32700 (1928) 7 (1936) 902 13 17 27 33 106 344 522 2150 3620
2025-06-20 16:30 7.53 696 32700 (1928) 7 (1936) 902 13 17 27 33 106 344 522 2150 3620
2025-06-20 16:00 7.49 674 32700 (1928) 7 (1936) 902 13 17 27 33 106 344 522 2150 3620
2025-06-20 15:30 7.56 712 32700 (1928) 7 (1936) 902 13 17 27 33 106 344 522 2150 3620
2025-06-20 15:00 7.59 729 32700 (1928) 7 (1936) 902 13 17 27 33 106 344 522 2150 3620
2025-06-20 14:30 7.60 734 32700 (1928) 7 (1936) 902 13 17 27 33 106 344 522 2150 3620
2025-06-20 14:00 7.62 745 32700 (1928) 7 (1936) 902 13 17 27 33 106 344 522 2150 3620
2025-06-20 13:30 7.63 751 32700 (1928) 7 (1936) 902 13 17 27 33 106 344 522 2150 3620
2025-06-20 13:00 7.64 757 32700 (1928) 7 (1936) 902 13 17 27 33 106 344 522 2150 3620
2025-06-20 12:30 7.66 768 32700 (1928) 7 (1936) 902 13 17 27 33 106 344 522 2150 3620
2025-06-20 12:00 7.66 768 32700 (1928) 7 (1936) 902 13 17 27 33 106 344 522 2150 3620
2025-06-20 11:30 7.67 774 32700 (1928) 7 (1936) 902 13 17 27 33 106 344 522 2150 3620
2025-06-20 11:00 7.68 780 32700 (1928) 7 (1936) 902 13 17 27 33 106 344 522 2150 3620
2025-06-20 10:30 7.69 785 32700 (1928) 7 (1936) 902 13 17 27 33 106 344 522 2150 3620
2025-06-20 10:00 7.70 791 32700 (1928) 7 (1936) 902 13 17 27 33 106 344 522 2150 3620
2025-06-20 09:30 7.71 797 32700 (1928) 7 (1936) 902 13 17 27 33 106 344 522 2150 3620
2025-06-20 09:00 7.72 803 32700 (1928) 7 (1936) 902 13 17 27 33 106 344 522 2150 3620
2025-06-20 08:30 7.74 815 32700 (1928) 7 (1936) 902 13 17 27 33 106 344 522 2150 3620
2025-06-20 08:00 7.77 833 32700 (1928) 7 (1936) 902 13 17 27 33 106 344 522 2150 3620
2025-06-20 07:30 7.79 845 32700 (1928) 7 (1936) 902 13 17 27 33 106 344 522 2150 3620
2025-06-20 07:00 7.81 857 32700 (1928) 7 (1936) 902 13 17 27 33 106 344 522 2150 3620
2025-06-20 06:30 7.85 882 32700 (1928) 7 (1936) 902 13 17 27 33 106 344 522 2150 3620
2025-06-20 06:00 7.90 913 32700 (1928) 7 (1936) 902 13 17 27 33 106 344 522 2150 3620
2025-06-20 05:30 7.94 939 32700 (1928) 7 (1936) 902 13 17 27 33 106 344 522 2150 3620
2025-06-20 05:00 7.97 958 32700 (1928) 7 (1936) 902 13 17 27 33 106 344 522 2150 3620
2025-06-20 04:30 8.02 991 32700 (1928) 7 (1936) 902 13 17 27 33 106 344 522 2150 3620
2025-06-20 04:00 8.06 1020 32700 (1928) 7 (1936) 902 13 17 27 33 106 344 522 2150 3620
2025-06-20 03:30 8.11 1050 32700 (1928) 7 (1936) 902 13 17 27 33 106 344 522 2150 3620
2025-06-20 03:00 8.16 1090 32700 (1928) 7 (1936) 902 13 17 27 33 106 344 522 2150 3620
2025-06-20 02:30 1120 32700 (1928) 7 (1936) 902 13 17 27 33 106 344 522 2150 3620
2025-06-20 02:00 1150 32700 (1928) 7 (1936) 902 13 17 27 33 106 344 522 2150 3620
2025-06-20 01:30 8.28 1170 32700 (1928) 7 (1936) 902 13 17 27 33 106 344 522 2150 3620
2025-06-20 01:00 8.30 1190 32700 (1928) 7 (1936) 902 13 17 27 33 106 344 522 2150 3620
2025-06-20 00:30 1210 32700 (1928) 7 (1936) 902 13 17 27 33 106 344 522 2150 3620
2025-06-20 00:00 8.33 1210 32700 (1928) 7 (1936) 902 13 17 27 33 106 344 522 2150 3620
2025-06-19 23:30 8.31 1200 32700 (1928) 7 (1936) 902 13 17 27 33 106 344 522 2150 3620
2025-06-19 23:00 8.30 1190 32700 (1928) 7 (1936) 902 13 17 27 33 106 344 522 2150 3620
2025-06-19 22:30 8.29 1180 35900 (2015) 8 (1936) 697 13 19 30 39 94 336 459 760 2350
2025-06-19 22:00 8.30 1190 35900 (2015) 8 (1936) 697 13 19 30 39 94 336 459 760 2350
2025-06-19 21:30 8.35 1230 35900 (2015) 8 (1936) 697 13 19 30 39 94 336 459 760 2350
2025-06-19 21:00 8.38 1250 35900 (2015) 8 (1936) 697 13 19 30 39 94 336 459 760 2350
2025-06-19 20:30 8.41 1270 35900 (2015) 8 (1936) 697 13 19 30 39 94 336 459 760 2350
2025-06-19 20:00 8.45 1300 35900 (2015) 8 (1936) 697 13 19 30 39 94 336 459 760 2350
2025-06-19 19:30 8.47 1320 35900 (2015) 8 (1936) 697 13 19 30 39 94 336 459 760 2350
2025-06-19 19:00 8.49 1330 35900 (2015) 8 (1936) 697 13 19 30 39 94 336 459 760 2350
2025-06-19 18:30 8.53 1370 35900 (2015) 8 (1936) 697 13 19 30 39 94 336 459 760 2350
2025-06-19 18:00 8.54 1370 35900 (2015) 8 (1936) 697 13 19 30 39 94 336 459 760 2350
2025-06-19 17:30 8.57 1400 35900 (2015) 8 (1936) 697 13 19 30 39 94 336 459 760 2350
2025-06-19 17:00 8.57 1400 35900 (2015) 8 (1936) 697 13 19 30 39 94 336 459 760 2350
2025-06-19 16:30 8.57 1400 35900 (2015) 8 (1936) 697 13 19 30 39 94 336 459 760 2350
2025-06-19 16:00 8.56 1390 35900 (2015) 8 (1936) 697 13 19 30 39 94 336 459 760 2350
2025-06-19 15:30 8.55 1380 35900 (2015) 8 (1936) 697 13 19 30 39 94 336 459 760 2350
2025-06-19 15:00 8.51 1350 35900 (2015) 8 (1936) 697 13 19 30 39 94 336 459 760 2350
2025-06-19 14:30 8.42 1280 35900 (2015) 8 (1936) 697 13 19 30 39 94 336 459 760 2350
2025-06-19 14:00 8.32 1200 35900 (2015) 8 (1936) 697 13 19 30 39 94 336 459 760 2350
2025-06-19 13:30 8.19 1110 35900 (2015) 8 (1936) 697 13 19 30 39 94 336 459 760 2350
2025-06-19 13:00 8.04 1000 35900 (2015) 8 (1936) 697 13 19 30 39 94 336 459 760 2350
2025-06-19 12:30 7.88 900 35900 (2015) 8 (1936) 697 13 19 30 39 94 336 459 760 2350
2025-06-19 12:00 7.63 751 35900 (2015) 8 (1936) 697 13 19 30 39 94 336 459 760 2350
2025-06-19 11:30 7.36 607 35900 (2015) 8 (1936) 697 13 19 30 39 94 336 459 760 2350
2025-06-19 11:00 7.18 521 35900 (2015) 8 (1936) 697 13 19 30 39 94 336 459 760 2350
2025-06-19 10:30 7.08 477 35900 (2015) 8 (1936) 697 13 19 30 39 94 336 459 760 2350
2025-06-19 10:00 7.02 451 35900 (2015) 8 (1936) 697 13 19 30 39 94 336 459 760 2350
2025-06-19 09:30 6.98 435 35900 (2015) 8 (1936) 697 13 19 30 39 94 336 459 760 2350
2025-06-19 09:00 6.96 427 35900 (2015) 8 (1936) 697 13 19 30 39 94 336 459 760 2350
2025-06-19 08:30 6.94 419 35900 (2015) 8 (1936) 697 13 19 30 39 94 336 459 760 2350
2025-06-19 08:00 6.94 419 35900 (2015) 8 (1936) 697 13 19 30 39 94 336 459 760 2350
2025-06-19 07:30 6.95 423 35900 (2015) 8 (1936) 697 13 19 30 39 94 336 459 760 2350
2025-06-19 07:00 6.95 423 35900 (2015) 8 (1936) 697 13 19 30 39 94 336 459 760 2350
2025-06-19 06:30 6.96 427 35900 (2015) 8 (1936) 697 13 19 30 39 94 336 459 760 2350
2025-06-19 06:00 6.97 431 35900 (2015) 8 (1936) 697 13 19 30 39 94 336 459 760 2350
2025-06-19 05:30 6.98 435 35900 (2015) 8 (1936) 697 13 19 30 39 94 336 459 760 2350
2025-06-19 05:00 6.98 435 35900 (2015) 8 (1936) 697 13 19 30 39 94 336 459 760 2350
2025-06-19 04:30 6.98 435 35900 (2015) 8 (1936) 697 13 19 30 39 94 336 459 760 2350
2025-06-19 04:00 6.97 431 35900 (2015) 8 (1936) 697 13 19 30 39 94 336 459 760 2350
2025-06-19 03:30 423 35900 (2015) 8 (1936) 697 13 19 30 39 94 336 459 760 2350
2025-06-19 03:00 6.93 415 35900 (2015) 8 (1936) 697 13 19 30 39 94 336 459 760 2350
2025-06-19 02:30 6.90 403 35900 (2015) 8 (1936) 697 13 19 30 39 94 336 459 760 2350
2025-06-19 02:00 403 35900 (2015) 8 (1936) 697 13 19 30 39 94 336 459 760 2350
2025-06-19 01:30 6.90 403 35900 (2015) 8 (1936) 697 13 19 30 39 94 336 459 760 2350
2025-06-19 01:00 6.93 415 35900 (2015) 8 (1936) 697 13 19 30 39 94 336 459 760 2350
2025-06-19 00:30 427 35900 (2015) 8 (1936) 697 13 19 30 39 94 336 459 760 2350
2025-06-19 00:00 7.00 443 35900 (2015) 8 (1936) 697 13 19 30 39 94 336 459 760 2350
2025-06-18 23:30 7.04 460 35900 (2015) 8 (1936) 697 13 19 30 39 94 336 459 760 2350
2025-06-18 23:00 7.06 468 35900 (2015) 8 (1936) 697 13 19 30 39 94 336 459 760 2350
2025-06-18 22:30 7.07 473 14600 (1924) 9 (1965) 665 14 22 34 50 112 439 624 1300 2580
2025-06-18 22:00 7.08 477 14600 (1924) 9 (1965) 665 14 22 34 50 112 439 624 1300 2580
2025-06-18 21:30 7.15 508 14600 (1924) 9 (1965) 665 14 22 34 50 112 439 624 1300 2580
2025-06-18 21:00 7.28 568 14600 (1924) 9 (1965) 665 14 22 34 50 112 439 624 1300 2580
2025-06-18 20:30 7.38 617 14600 (1924) 9 (1965) 665 14 22 34 50 112 439 624 1300 2580
2025-06-18 20:00 7.19 526 14600 (1924) 9 (1965) 665 14 22 34 50 112 439 624 1300 2580
2025-06-18 19:30 6.93 415 14600 (1924) 9 (1965) 665 14 22 34 50 112 439 624 1300 2580
2025-06-18 19:00 6.67 319 14600 (1924) 9 (1965) 665 14 22 34 50 112 439 624 1300 2580
2025-06-18 18:30 6.50 263 14600 (1924) 9 (1965) 665 14 22 34 50 112 439 624 1300 2580
2025-06-18 18:00 6.50 263 14600 (1924) 9 (1965) 665 14 22 34 50 112 439 624 1300 2580
2025-06-18 17:30 6.49 259 14600 (1924) 9 (1965) 665 14 22 34 50 112 439 624 1300 2580
2025-06-18 17:00 6.49 259 14600 (1924) 9 (1965) 665 14 22 34 50 112 439 624 1300 2580
2025-06-18 16:30 6.49 259 14600 (1924) 9 (1965) 665 14 22 34 50 112 439 624 1300 2580
2025-06-18 16:00 6.50 263 14600 (1924) 9 (1965) 665 14 22 34 50 112 439 624 1300 2580
2025-06-18 15:30 6.48 255 14600 (1924) 9 (1965) 665 14 22 34 50 112 439 624 1300 2580
2025-06-18 15:00 6.50 263 14600 (1924) 9 (1965) 665 14 22 34 50 112 439 624 1300 2580
2025-06-18 14:30 6.52 270 14600 (1924) 9 (1965) 665 14 22 34 50 112 439 624 1300 2580
2025-06-18 14:00 6.50 263 14600 (1924) 9 (1965) 665 14 22 34 50 112 439 624 1300 2580
2025-06-18 13:30 6.52 270 14600 (1924) 9 (1965) 665 14 22 34 50 112 439 624 1300 2580
2025-06-18 13:00 6.52 270 14600 (1924) 9 (1965) 665 14 22 34 50 112 439 624 1300 2580
2025-06-18 12:30 6.53 273 14600 (1924) 9 (1965) 665 14 22 34 50 112 439 624 1300 2580
2025-06-18 12:00 6.53 273 14600 (1924) 9 (1965) 665 14 22 34 50 112 439 624 1300 2580
2025-06-18 11:30 6.53 273 14600 (1924) 9 (1965) 665 14 22 34 50 112 439 624 1300 2580
2025-06-18 11:00 6.53 273 14600 (1924) 9 (1965) 665 14 22 34 50 112 439 624 1300 2580
2025-06-18 10:30 6.53 273 14600 (1924) 9 (1965) 665 14 22 34 50 112 439 624 1300 2580
2025-06-18 10:00 6.59 292 14600 (1924) 9 (1965) 665 14 22 34 50 112 439 624 1300 2580
2025-06-18 09:30 6.59 292 14600 (1924) 9 (1965) 665 14 22 34 50 112 439 624 1300 2580
2025-06-18 09:00 6.60 296 14600 (1924) 9 (1965) 665 14 22 34 50 112 439 624 1300 2580
2025-06-18 08:30 6.60 296 14600 (1924) 9 (1965) 665 14 22 34 50 112 439 624 1300 2580
2025-06-18 08:00 6.60 296 14600 (1924) 9 (1965) 665 14 22 34 50 112 439 624 1300 2580
2025-06-18 07:30 6.60 296 14600 (1924) 9 (1965) 665 14 22 34 50 112 439 624 1300 2580
2025-06-18 07:00 6.61 299 14600 (1924) 9 (1965) 665 14 22 34 50 112 439 624 1300 2580
2025-06-18 06:30 6.61 299 14600 (1924) 9 (1965) 665 14 22 34 50 112 439 624 1300 2580
2025-06-18 06:00 6.61 299 14600 (1924) 9 (1965) 665 14 22 34 50 112 439 624 1300 2580
2025-06-18 05:30 6.61 299 14600 (1924) 9 (1965) 665 14 22 34 50 112 439 624 1300 2580
2025-06-18 05:00 6.62 302 14600 (1924) 9 (1965) 665 14 22 34 50 112 439 624 1300 2580
2025-06-18 04:30 6.62 302 14600 (1924) 9 (1965) 665 14 22 34 50 112 439 624 1300 2580
2025-06-18 04:00 6.63 305 14600 (1924) 9 (1965) 665 14 22 34 50 112 439 624 1300 2580
2025-06-18 03:30 6.63 305 14600 (1924) 9 (1965) 665 14 22 34 50 112 439 624 1300 2580
2025-06-18 03:00 6.63 305 14600 (1924) 9 (1965) 665 14 22 34 50 112 439 624 1300 2580
2025-06-18 02:30 6.64 309 14600 (1924) 9 (1965) 665 14 22 34 50 112 439 624 1300 2580
2025-06-18 02:00 6.64 309 14600 (1924) 9 (1965) 665 14 22 34 50 112 439 624 1300 2580
2025-06-18 01:30 6.65 312 14600 (1924) 9 (1965) 665 14 22 34 50 112 439 624 1300 2580
2025-06-18 01:00 6.65 312 14600 (1924) 9 (1965) 665 14 22 34 50 112 439 624 1300 2580
2025-06-18 00:30 6.66 315 14600 (1924) 9 (1965) 665 14 22 34 50 112 439 624 1300 2580
2025-06-18 00:00 6.66 315 14600 (1924) 9 (1965) 665 14 22 34 50 112 439 624 1300 2580
2025-06-17 23:30 6.67 319 14600 (1924) 9 (1965) 665 14 22 34 50 112 439 624 1300 2580
2025-06-17 23:00 6.68 322 14600 (1924) 9 (1965) 665 14 22 34 50 112 439 624 1300 2580
2025-06-17 22:30 6.68 322 8160 (2015) 10 (1965) 531 16 21 36 46 137 463 640 1170 2100
2025-06-17 22:00 6.68 322 8160 (2015) 10 (1965) 531 16 21 36 46 137 463 640 1170 2100
2025-06-17 21:30 6.67 319 8160 (2015) 10 (1965) 531 16 21 36 46 137 463 640 1170 2100
2025-06-17 21:00 6.67 319 8160 (2015) 10 (1965) 531 16 21 36 46 137 463 640 1170 2100
2025-06-17 20:30 6.65 312 8160 (2015) 10 (1965) 531 16 21 36 46 137 463 640 1170 2100
2025-06-17 20:00 6.67 319 8160 (2015) 10 (1965) 531 16 21 36 46 137 463 640 1170 2100
2025-06-17 19:30 6.67 319 8160 (2015) 10 (1965) 531 16 21 36 46 137 463 640 1170 2100
2025-06-17 19:00 6.68 322 8160 (2015) 10 (1965) 531 16 21 36 46 137 463 640 1170 2100
2025-06-17 18:30 6.69 326 8160 (2015) 10 (1965) 531 16 21 36 46 137 463 640 1170 2100
2025-06-17 18:00 326 8160 (2015) 10 (1965) 531 16 21 36 46 137 463 640 1170 2100
2025-06-17 17:30 6.69 326 8160 (2015) 10 (1965) 531 16 21 36 46 137 463 640 1170 2100
2025-06-17 17:00 6.70 329 8160 (2015) 10 (1965) 531 16 21 36 46 137 463 640 1170 2100
2025-06-17 16:30 6.70 329 8160 (2015) 10 (1965) 531 16 21 36 46 137 463 640 1170 2100
2025-06-17 16:00 6.71 333 8160 (2015) 10 (1965) 531 16 21 36 46 137 463 640 1170 2100
2025-06-17 15:30 6.72 336 8160 (2015) 10 (1965) 531 16 21 36 46 137 463 640 1170 2100
2025-06-17 15:00 6.72 336 8160 (2015) 10 (1965) 531 16 21 36 46 137 463 640 1170 2100
2025-06-17 14:30 6.73 340 8160 (2015) 10 (1965) 531 16 21 36 46 137 463 640 1170 2100
2025-06-17 14:00 6.73 340 8160 (2015) 10 (1965) 531 16 21 36 46 137 463 640 1170 2100
2025-06-17 13:30 6.74 343 8160 (2015) 10 (1965) 531 16 21 36 46 137 463 640 1170 2100
2025-06-17 13:00 6.74 343 8160 (2015) 10 (1965) 531 16 21 36 46 137 463 640 1170 2100
2025-06-17 12:30 6.74 343 8160 (2015) 10 (1965) 531 16 21 36 46 137 463 640 1170 2100
2025-06-17 12:00 6.75 347 8160 (2015) 10 (1965) 531 16 21 36 46 137 463 640 1170 2100
2025-06-17 11:30 6.76 350 8160 (2015) 10 (1965) 531 16 21 36 46 137 463 640 1170 2100
2025-06-17 11:00 6.76 350 8160 (2015) 10 (1965) 531 16 21 36 46 137 463 640 1170 2100
2025-06-17 10:30 6.76 350 8160 (2015) 10 (1965) 531 16 21 36 46 137 463 640 1170 2100
2025-06-17 10:00 6.77 354 8160 (2015) 10 (1965) 531 16 21 36 46 137 463 640 1170 2100
2025-06-17 09:30 6.78 358 8160 (2015) 10 (1965) 531 16 21 36 46 137 463 640 1170 2100
2025-06-17 09:00 6.78 358 8160 (2015) 10 (1965) 531 16 21 36 46 137 463 640 1170 2100
2025-06-17 08:30 6.78 358 8160 (2015) 10 (1965) 531 16 21 36 46 137 463 640 1170 2100
2025-06-17 08:00 6.80 365 8160 (2015) 10 (1965) 531 16 21 36 46 137 463 640 1170 2100
2025-06-17 07:30 6.80 365 8160 (2015) 10 (1965) 531 16 21 36 46 137 463 640 1170 2100
2025-06-17 07:00 6.81 369 8160 (2015) 10 (1965) 531 16 21 36 46 137 463 640 1170 2100
2025-06-17 06:30 6.81 369 8160 (2015) 10 (1965) 531 16 21 36 46 137 463 640 1170 2100
2025-06-17 06:00 6.82 372 8160 (2015) 10 (1965) 531 16 21 36 46 137 463 640 1170 2100
2025-06-17 05:30 6.82 372 8160 (2015) 10 (1965) 531 16 21 36 46 137 463 640 1170 2100
2025-06-17 05:00 6.83 376 8160 (2015) 10 (1965) 531 16 21 36 46 137 463 640 1170 2100
2025-06-17 04:30 6.83 376 8160 (2015) 10 (1965) 531 16 21 36 46 137 463 640 1170 2100
2025-06-17 04:00 6.84 380 8160 (2015) 10 (1965) 531 16 21 36 46 137 463 640 1170 2100
2025-06-17 03:30 6.84 380 8160 (2015) 10 (1965) 531 16 21 36 46 137 463 640 1170 2100
2025-06-17 03:00 6.85 384 8160 (2015) 10 (1965) 531 16 21 36 46 137 463 640 1170 2100
2025-06-17 02:30 6.86 387 8160 (2015) 10 (1965) 531 16 21 36 46 137 463 640 1170 2100
2025-06-17 02:00 6.86 387 8160 (2015) 10 (1965) 531 16 21 36 46 137 463 640 1170 2100
2025-06-17 01:30 6.87 391 8160 (2015) 10 (1965) 531 16 21 36 46 137 463 640 1170 2100
2025-06-17 01:00 6.87 391 8160 (2015) 10 (1965) 531 16 21 36 46 137 463 640 1170 2100
2025-06-17 00:30 6.88 395 8160 (2015) 10 (1965) 531 16 21 36 46 137 463 640 1170 2100
2025-06-17 00:00 6.89 399 8160 (2015) 10 (1965) 531 16 21 36 46 137 463 640 1170 2100
2025-06-16 23:30 6.89 399 8160 (2015) 10 (1965) 531 16 21 36 46 137 463 640 1170 2100
2025-06-16 23:00 6.90 403 8160 (2015) 10 (1965) 531 16 21 36 46 137 463 640 1170 2100
2025-06-16 22:30 6.90 403 10700 (2009) 11 (1925) 601 15 23 38 47 149 517 769 1610 2070
2025-06-16 22:00 6.91 407 10700 (2009) 11 (1925) 601 15 23 38 47 149 517 769 1610 2070
2025-06-16 21:30 6.92 411 10700 (2009) 11 (1925) 601 15 23 38 47 149 517 769 1610 2070
2025-06-16 21:00 6.92 411 10700 (2009) 11 (1925) 601 15 23 38 47 149 517 769 1610 2070
2025-06-16 20:30 6.92 411 10700 (2009) 11 (1925) 601 15 23 38 47 149 517 769 1610 2070
2025-06-16 20:00 6.93 415 10700 (2009) 11 (1925) 601 15 23 38 47 149 517 769 1610 2070
2025-06-16 19:30 6.94 419 10700 (2009) 11 (1925) 601 15 23 38 47 149 517 769 1610 2070
2025-06-16 19:00 6.94 419 10700 (2009) 11 (1925) 601 15 23 38 47 149 517 769 1610 2070
2025-06-16 18:30 6.95 423 10700 (2009) 11 (1925) 601 15 23 38 47 149 517 769 1610 2070
2025-06-16 18:00 6.96 427 10700 (2009) 11 (1925) 601 15 23 38 47 149 517 769 1610 2070
2025-06-16 17:30 6.96 427 10700 (2009) 11 (1925) 601 15 23 38 47 149 517 769 1610 2070
2025-06-16 17:00 6.97 431 10700 (2009) 11 (1925) 601 15 23 38 47 149 517 769 1610 2070
2025-06-16 16:30 6.98 435 10700 (2009) 11 (1925) 601 15 23 38 47 149 517 769 1610 2070
2025-06-16 16:00 6.98 435 10700 (2009) 11 (1925) 601 15 23 38 47 149 517 769 1610 2070
2025-06-16 15:30 6.99 439 10700 (2009) 11 (1925) 601 15 23 38 47 149 517 769 1610 2070
2025-06-16 15:00 7.00 443 10700 (2009) 11 (1925) 601 15 23 38 47 149 517 769 1610 2070
2025-06-16 14:30 7.01 447 10700 (2009) 11 (1925) 601 15 23 38 47 149 517 769 1610 2070
2025-06-16 14:00 7.02 451 10700 (2009) 11 (1925) 601 15 23 38 47 149 517 769 1610 2070
2025-06-16 13:30 7.03 456 10700 (2009) 11 (1925) 601 15 23 38 47 149 517 769 1610 2070
2025-06-16 13:00 7.03 456 10700 (2009) 11 (1925) 601 15 23 38 47 149 517 769 1610 2070
2025-06-16 12:30 7.05 464 10700 (2009) 11 (1925) 601 15 23 38 47 149 517 769 1610 2070
2025-06-16 12:00 7.05 464 10700 (2009) 11 (1925) 601 15 23 38 47 149 517 769 1610 2070
2025-06-16 11:30 7.06 468 10700 (2009) 11 (1925) 601 15 23 38 47 149 517 769 1610 2070
2025-06-16 11:00 7.07 473 10700 (2009) 11 (1925) 601 15 23 38 47 149 517 769 1610 2070
2025-06-16 10:30 7.08 477 10700 (2009) 11 (1925) 601 15 23 38 47 149 517 769 1610 2070
2025-06-16 10:00 7.09 481 10700 (2009) 11 (1925) 601 15 23 38 47 149 517 769 1610 2070
2025-06-16 09:30 7.10 486 10700 (2009) 11 (1925) 601 15 23 38 47 149 517 769 1610 2070
2025-06-16 09:00 7.11 490 10700 (2009) 11 (1925) 601 15 23 38 47 149 517 769 1610 2070
2025-06-16 08:30 7.12 494 10700 (2009) 11 (1925) 601 15 23 38 47 149 517 769 1610 2070
2025-06-16 08:00 7.13 499 10700 (2009) 11 (1925) 601 15 23 38 47 149 517 769 1610 2070
2025-06-16 07:30 7.14 503 10700 (2009) 11 (1925) 601 15 23 38 47 149 517 769 1610 2070
2025-06-16 07:00 7.15 508 10700 (2009) 11 (1925) 601 15 23 38 47 149 517 769 1610 2070
2025-06-16 06:30 7.16 512 10700 (2009) 11 (1925) 601 15 23 38 47 149 517 769 1610 2070
2025-06-16 06:00 7.17 517 10700 (2009) 11 (1925) 601 15 23 38 47 149 517 769 1610 2070
2025-06-16 05:30 7.19 526 10700 (2009) 11 (1925) 601 15 23 38 47 149 517 769 1610 2070
2025-06-16 05:00 7.19 526 10700 (2009) 11 (1925) 601 15 23 38 47 149 517 769 1610 2070
2025-06-16 04:30 7.21 535 10700 (2009) 11 (1925) 601 15 23 38 47 149 517 769 1610 2070
2025-06-16 04:00 7.22 540 10700 (2009) 11 (1925) 601 15 23 38 47 149 517 769 1610 2070
2025-06-16 03:30 7.23 544 10700 (2009) 11 (1925) 601 15 23 38 47 149 517 769 1610 2070
2025-06-16 03:00 7.24 549 10700 (2009) 11 (1925) 601 15 23 38 47 149 517 769 1610 2070
2025-06-16 02:30 7.25 554 10700 (2009) 11 (1925) 601 15 23 38 47 149 517 769 1610 2070
2025-06-16 02:00 7.27 563 10700 (2009) 11 (1925) 601 15 23 38 47 149 517 769 1610 2070
2025-06-16 01:30 7.27 563 10700 (2009) 11 (1925) 601 15 23 38 47 149 517 769 1610 2070
2025-06-16 01:00 7.28 568 10700 (2009) 11 (1925) 601 15 23 38 47 149 517 769 1610 2070
2025-06-16 00:30 7.30 578 10700 (2009) 11 (1925) 601 15 23 38 47 149 517 769 1610 2070
2025-06-16 00:00 7.31 583 10700 (2009) 11 (1925) 601 15 23 38 47 149 517 769 1610 2070
2025-06-15 23:30 7.32 588 10700 (2009) 11 (1925) 601 15 23 38 47 149 517 769 1610 2070
2025-06-15 23:00 7.34 597 10700 (2009) 11 (1925) 601 15 23 38 47 149 517 769 1610 2070
2025-06-15 22:30 7.35 602 9050 (1970) 12 (1925) 821 15 24 40 57 178 582 841 2350 5950
2025-06-15 22:00 7.36 607 9050 (1970) 12 (1925) 821 15 24 40 57 178 582 841 2350 5950
2025-06-15 21:30 7.38 617 9050 (1970) 12 (1925) 821 15 24 40 57 178 582 841 2350 5950
2025-06-15 21:00 7.39 622 9050 (1970) 12 (1925) 821 15 24 40 57 178 582 841 2350 5950
2025-06-15 20:30 7.40 627 9050 (1970) 12 (1925) 821 15 24 40 57 178 582 841 2350 5950
2025-06-15 20:00 7.41 633 9050 (1970) 12 (1925) 821 15 24 40 57 178 582 841 2350 5950
2025-06-15 19:30 7.43 643 9050 (1970) 12 (1925) 821 15 24 40 57 178 582 841 2350 5950
2025-06-15 19:00 7.44 648 9050 (1970) 12 (1925) 821 15 24 40 57 178 582 841 2350 5950
2025-06-15 18:30 7.46 658 9050 (1970) 12 (1925) 821 15 24 40 57 178 582 841 2350 5950
2025-06-15 18:00 7.47 664 9050 (1970) 12 (1925) 821 15 24 40 57 178 582 841 2350 5950
2025-06-15 17:30 7.49 674 9050 (1970) 12 (1925) 821 15 24 40 57 178 582 841 2350 5950
2025-06-15 17:00 7.50 680 9050 (1970) 12 (1925) 821 15 24 40 57 178 582 841 2350 5950
2025-06-15 16:30 7.51 685 9050 (1970) 12 (1925) 821 15 24 40 57 178 582 841 2350 5950
2025-06-15 16:00 7.54 701 9050 (1970) 12 (1925) 821 15 24 40 57 178 582 841 2350 5950
2025-06-15 15:30 7.55 706 9050 (1970) 12 (1925) 821 15 24 40 57 178 582 841 2350 5950
2025-06-15 15:00 7.57 717 9050 (1970) 12 (1925) 821 15 24 40 57 178 582 841 2350 5950
2025-06-15 14:30 7.59 729 9050 (1970) 12 (1925) 821 15 24 40 57 178 582 841 2350 5950
2025-06-15 14:00 7.60 734 9050 (1970) 12 (1925) 821 15 24 40 57 178 582 841 2350 5950
2025-06-15 13:30 7.62 745 9050 (1970) 12 (1925) 821 15 24 40 57 178 582 841 2350 5950
2025-06-15 13:00 7.64 757 9050 (1970) 12 (1925) 821 15 24 40 57 178 582 841 2350 5950
2025-06-15 12:30 7.66 768 9050 (1970) 12 (1925) 821 15 24 40 57 178 582 841 2350 5950
2025-06-15 12:00 7.69 785 9050 (1970) 12 (1925) 821 15 24 40 57 178 582 841 2350 5950
2025-06-15 11:30 7.71 797 9050 (1970) 12 (1925) 821 15 24 40 57 178 582 841 2350 5950
2025-06-15 11:00 7.73 809 9050 (1970) 12 (1925) 821 15 24 40 57 178 582 841 2350 5950
2025-06-15 10:30 7.75 821 9050 (1970) 12 (1925) 821 15 24 40 57 178 582 841 2350 5950
2025-06-15 10:00 7.77 833 9050 (1970) 12 (1925) 821 15 24 40 57 178 582 841 2350 5950
2025-06-15 09:30 7.80 851 9050 (1970) 12 (1925) 821 15 24 40 57 178 582 841 2350 5950
2025-06-15 09:00 7.82 863 9050 (1970) 12 (1925) 821 15 24 40 57 178 582 841 2350 5950
2025-06-15 08:30 7.85 882 9050 (1970) 12 (1925) 821 15 24 40 57 178 582 841 2350 5950
2025-06-15 08:00 7.87 894 9050 (1970) 12 (1925) 821 15 24 40 57 178 582 841 2350 5950
2025-06-15 07:30 7.91 919 9050 (1970) 12 (1925) 821 15 24 40 57 178 582 841 2350 5950
2025-06-15 07:00 7.94 939 9050 (1970) 12 (1925) 821 15 24 40 57 178 582 841 2350 5950
2025-06-15 06:30 7.96 952 9050 (1970) 12 (1925) 821 15 24 40 57 178 582 841 2350 5950
2025-06-15 06:00 7.99 971 9050 (1970) 12 (1925) 821 15 24 40 57 178 582 841 2350 5950
2025-06-15 05:30 8.02 991 9050 (1970) 12 (1925) 821 15 24 40 57 178 582 841 2350 5950
2025-06-15 05:00 8.07 1020 9050 (1970) 12 (1925) 821 15 24 40 57 178 582 841 2350 5950
2025-06-15 04:30 8.08 1030 9050 (1970) 12 (1925) 821 15 24 40 57 178 582 841 2350 5950
2025-06-15 04:00 8.13 1070 9050 (1970) 12 (1925) 821 15 24 40 57 178 582 841 2350 5950
2025-06-15 03:30 8.17 1090 9050 (1970) 12 (1925) 821 15 24 40 57 178 582 841 2350 5950
2025-06-15 03:00 8.21 1120 9050 (1970) 12 (1925) 821 15 24 40 57 178 582 841 2350 5950
2025-06-15 02:30 8.24 1140 9050 (1970) 12 (1925) 821 15 24 40 57 178 582 841 2350 5950
2025-06-15 02:00 8.28 1170 9050 (1970) 12 (1925) 821 15 24 40 57 178 582 841 2350 5950
2025-06-15 01:30 8.31 1200 9050 (1970) 12 (1925) 821 15 24 40 57 178 582 841 2350 5950
2025-06-15 01:00 8.37 1240 9050 (1970) 12 (1925) 821 15 24 40 57 178 582 841 2350 5950
2025-06-15 00:30 8.40 1260 9050 (1970) 12 (1925) 821 15 24 40 57 178 582 841 2350 5950
2025-06-15 00:00 8.46 1310 9050 (1970) 12 (1925) 821 15 24 40 57 178 582 841 2350 5950
2025-06-14 23:30 8.50 1340 9050 (1970) 12 (1925) 821 15 24 40 57 178 582 841 2350 5950
2025-06-14 23:00 8.55 1380 9050 (1970) 12 (1925) 821 15 24 40 57 178 582 841 2350 5950
2025-06-14 22:30 8.61 1430 20900 (1970) 13 (1925) 906 16 25 38 45 170 502 749 2240 4480
2025-06-14 22:00 8.66 1470 20900 (1970) 13 (1925) 906 16 25 38 45 170 502 749 2240 4480
2025-06-14 21:30 8.72 1530 20900 (1970) 13 (1925) 906 16 25 38 45 170 502 749 2240 4480
2025-06-14 21:00 8.77 1570 20900 (1970) 13 (1925) 906 16 25 38 45 170 502 749 2240 4480
2025-06-14 20:30 8.85 1640 20900 (1970) 13 (1925) 906 16 25 38 45 170 502 749 2240 4480
2025-06-14 20:00 8.91 1690 20900 (1970) 13 (1925) 906 16 25 38 45 170 502 749 2240 4480
2025-06-14 19:30 8.98 1760 20900 (1970) 13 (1925) 906 16 25 38 45 170 502 749 2240 4480
2025-06-14 19:00 9.04 1810 20900 (1970) 13 (1925) 906 16 25 38 45 170 502 749 2240 4480
2025-06-14 18:30 9.11 1880 20900 (1970) 13 (1925) 906 16 25 38 45 170 502 749 2240 4480
2025-06-14 18:00 9.19 1960 20900 (1970) 13 (1925) 906 16 25 38 45 170 502 749 2240 4480
2025-06-14 17:30 9.23 2000 20900 (1970) 13 (1925) 906 16 25 38 45 170 502 749 2240 4480
2025-06-14 17:00 9.32 2080 20900 (1970) 13 (1925) 906 16 25 38 45 170 502 749 2240 4480
2025-06-14 16:30 9.38 2120 20900 (1970) 13 (1925) 906 16 25 38 45 170 502 749 2240 4480
2025-06-14 16:00 9.45 2160 20900 (1970) 13 (1925) 906 16 25 38 45 170 502 749 2240 4480
2025-06-14 15:30 9.52 2200 20900 (1970) 13 (1925) 906 16 25 38 45 170 502 749 2240 4480
2025-06-14 15:00 9.56 2230 20900 (1970) 13 (1925) 906 16 25 38 45 170 502 749 2240 4480
2025-06-14 14:30 9.61 2260 20900 (1970) 13 (1925) 906 16 25 38 45 170 502 749 2240 4480
2025-06-14 14:00 9.65 2280 20900 (1970) 13 (1925) 906 16 25 38 45 170 502 749 2240 4480
2025-06-14 13:30 9.62 2270 20900 (1970) 13 (1925) 906 16 25 38 45 170 502 749 2240 4480
2025-06-14 13:00 9.58 2240 20900 (1970) 13 (1925) 906 16 25 38 45 170 502 749 2240 4480
2025-06-14 12:30 9.45 2160 20900 (1970) 13 (1925) 906 16 25 38 45 170 502 749 2240 4480
2025-06-14 12:00 9.29 2060 20900 (1970) 13 (1925) 906 16 25 38 45 170 502 749 2240 4480
2025-06-14 11:30 9.17 1940 20900 (1970) 13 (1925) 906 16 25 38 45 170 502 749 2240 4480
2025-06-14 11:00 9.17 1940 20900 (1970) 13 (1925) 906 16 25 38 45 170 502 749 2240 4480
2025-06-14 10:30 9.26 2030 20900 (1970) 13 (1925) 906 16 25 38 45 170 502 749 2240 4480
2025-06-14 10:00 9.35 2100 20900 (1970) 13 (1925) 906 16 25 38 45 170 502 749 2240 4480
2025-06-14 09:30 9.43 2150 20900 (1970) 13 (1925) 906 16 25 38 45 170 502 749 2240 4480
2025-06-14 09:00 9.53 2210 20900 (1970) 13 (1925) 906 16 25 38 45 170 502 749 2240 4480
2025-06-14 08:30 9.56 2230 20900 (1970) 13 (1925) 906 16 25 38 45 170 502 749 2240 4480
2025-06-14 08:00 9.60 2250 20900 (1970) 13 (1925) 906 16 25 38 45 170 502 749 2240 4480
2025-06-14 07:30 9.61 2260 20900 (1970) 13 (1925) 906 16 25 38 45 170 502 749 2240 4480
2025-06-14 07:00 9.55 2220 20900 (1970) 13 (1925) 906 16 25 38 45 170 502 749 2240 4480
2025-06-14 06:30 9.46 2160 20900 (1970) 13 (1925) 906 16 25 38 45 170 502 749 2240 4480
2025-06-14 06:00 9.29 2060 20900 (1970) 13 (1925) 906 16 25 38 45 170 502 749 2240 4480
2025-06-14 05:30 8.94 1720 20900 (1970) 13 (1925) 906 16 25 38 45 170 502 749 2240 4480
2025-06-14 05:00 8.27 1170 20900 (1970) 13 (1925) 906 16 25 38 45 170 502 749 2240 4480
2025-06-14 04:30 7.13 499 20900 (1970) 13 (1925) 906 16 25 38 45 170 502 749 2240 4480
2025-06-14 04:00 6.70 329 20900 (1970) 13 (1925) 906 16 25 38 45 170 502 749 2240 4480
2025-06-14 03:30 6.69 326 20900 (1970) 13 (1925) 906 16 25 38 45 170 502 749 2240 4480
2025-06-14 03:00 6.69 326 20900 (1970) 13 (1925) 906 16 25 38 45 170 502 749 2240 4480
2025-06-14 02:30 6.69 326 20900 (1970) 13 (1925) 906 16 25 38 45 170 502 749 2240 4480
2025-06-14 02:00 326 20900 (1970) 13 (1925) 906 16 25 38 45 170 502 749 2240 4480
2025-06-14 01:30 6.69 326 20900 (1970) 13 (1925) 906 16 25 38 45 170 502 749 2240 4480
2025-06-14 01:00 326 20900 (1970) 13 (1925) 906 16 25 38 45 170 502 749 2240 4480
2025-06-14 00:30 6.69 326 20900 (1970) 13 (1925) 906 16 25 38 45 170 502 749 2240 4480
2025-06-14 00:00 6.69 326 20900 (1970) 13 (1925) 906 16 25 38 45 170 502 749 2240 4480
2025-06-13 23:30 6.69 326 20900 (1970) 13 (1925) 906 16 25 38 45 170 502 749 2240 4480
2025-06-13 23:00 6.69 326 20900 (1970) 13 (1925) 906 16 25 38 45 170 502 749 2240 4480
2025-06-13 22:30 6.70 329 24700 (1970) 11 (1925) 1210 17 27 42 47 187 539 592 1310 7520
2025-06-13 22:00 6.70 329 24700 (1970) 11 (1925) 1210 17 27 42 47 187 539 592 1310 7520
2025-06-13 21:30 6.70 329 24700 (1970) 11 (1925) 1210 17 27 42 47 187 539 592 1310 7520
2025-06-13 21:00 6.70 329 24700 (1970) 11 (1925) 1210 17 27 42 47 187 539 592 1310 7520
2025-06-13 20:30 6.70 329 24700 (1970) 11 (1925) 1210 17 27 42 47 187 539 592 1310 7520
2025-06-13 20:00 6.70 329 24700 (1970) 11 (1925) 1210 17 27 42 47 187 539 592 1310 7520
2025-06-13 19:30 6.70 329 24700 (1970) 11 (1925) 1210 17 27 42 47 187 539 592 1310 7520
2025-06-13 19:00 6.70 329 24700 (1970) 11 (1925) 1210 17 27 42 47 187 539 592 1310 7520
2025-06-13 18:30 6.69 326 24700 (1970) 11 (1925) 1210 17 27 42 47 187 539 592 1310 7520
2025-06-13 18:00 6.64 309 24700 (1970) 11 (1925) 1210 17 27 42 47 187 539 592 1310 7520
2025-06-13 17:30 6.70 329 24700 (1970) 11 (1925) 1210 17 27 42 47 187 539 592 1310 7520
2025-06-13 17:00 6.70 329 24700 (1970) 11 (1925) 1210 17 27 42 47 187 539 592 1310 7520
2025-06-13 16:30 6.69 326 24700 (1970) 11 (1925) 1210 17 27 42 47 187 539 592 1310 7520
2025-06-13 16:00 6.69 326 24700 (1970) 11 (1925) 1210 17 27 42 47 187 539 592 1310 7520
2025-06-13 15:30 6.66 315 24700 (1970) 11 (1925) 1210 17 27 42 47 187 539 592 1310 7520
2025-06-13 15:00 6.66 315 24700 (1970) 11 (1925) 1210 17 27 42 47 187 539 592 1310 7520
2025-06-13 14:30 6.72 336 24700 (1970) 11 (1925) 1210 17 27 42 47 187 539 592 1310 7520
2025-06-13 14:00 6.68 322 24700 (1970) 11 (1925) 1210 17 27 42 47 187 539 592 1310 7520
2025-06-13 13:30 6.68 322 24700 (1970) 11 (1925) 1210 17 27 42 47 187 539 592 1310 7520
2025-06-13 13:00 6.71 333 24700 (1970) 11 (1925) 1210 17 27 42 47 187 539 592 1310 7520
2025-06-13 12:30 6.73 340 24700 (1970) 11 (1925) 1210 17 27 42 47 187 539 592 1310 7520
2025-06-13 12:00 6.73 340 24700 (1970) 11 (1925) 1210 17 27 42 47 187 539 592 1310 7520
2025-06-13 11:30 6.73 340 24700 (1970) 11 (1925) 1210 17 27 42 47 187 539 592 1310 7520
2025-06-13 11:00 6.74 343 24700 (1970) 11 (1925) 1210 17 27 42 47 187 539 592 1310 7520
2025-06-13 10:30 6.73 340 24700 (1970) 11 (1925) 1210 17 27 42 47 187 539 592 1310 7520
2025-06-13 10:00 6.72 336 24700 (1970) 11 (1925) 1210 17 27 42 47 187 539 592 1310 7520
2025-06-13 09:30 6.74 343 24700 (1970) 11 (1925) 1210 17 27 42 47 187 539 592 1310 7520
2025-06-13 09:00 6.74 343 24700 (1970) 11 (1925) 1210 17 27 42 47 187 539 592 1310 7520
2025-06-13 08:30 6.75 347 24700 (1970) 11 (1925) 1210 17 27 42 47 187 539 592 1310 7520
2025-06-13 08:00 6.75 347 24700 (1970) 11 (1925) 1210 17 27 42 47 187 539 592 1310 7520
2025-06-13 07:30 6.75 347 24700 (1970) 11 (1925) 1210 17 27 42 47 187 539 592 1310 7520
2025-06-13 07:00 6.75 347 24700 (1970) 11 (1925) 1210 17 27 42 47 187 539 592 1310 7520
2025-06-13 06:30 6.76 350 24700 (1970) 11 (1925) 1210 17 27 42 47 187 539 592 1310 7520
2025-06-13 06:00 6.76 350 24700 (1970) 11 (1925) 1210 17 27 42 47 187 539 592 1310 7520
2025-06-13 05:30 6.76 350 24700 (1970) 11 (1925) 1210 17 27 42 47 187 539 592 1310 7520
2025-06-13 05:00 6.77 354 24700 (1970) 11 (1925) 1210 17 27 42 47 187 539 592 1310 7520
2025-06-13 04:30 6.77 354 24700 (1970) 11 (1925) 1210 17 27 42 47 187 539 592 1310 7520
2025-06-13 04:00 6.77 354 24700 (1970) 11 (1925) 1210 17 27 42 47 187 539 592 1310 7520
2025-06-13 03:30 6.78 358 24700 (1970) 11 (1925) 1210 17 27 42 47 187 539 592 1310 7520
2025-06-13 03:00 6.78 358 24700 (1970) 11 (1925) 1210 17 27 42 47 187 539 592 1310 7520
2025-06-13 02:30 6.78 358 24700 (1970) 11 (1925) 1210 17 27 42 47 187 539 592 1310 7520
2025-06-13 02:00 6.79 361 24700 (1970) 11 (1925) 1210 17 27 42 47 187 539 592 1310 7520
2025-06-13 01:30 6.80 365 24700 (1970) 11 (1925) 1210 17 27 42 47 187 539 592 1310 7520
2025-06-13 01:00 6.80 365 24700 (1970) 11 (1925) 1210 17 27 42 47 187 539 592 1310 7520
2025-06-13 00:30 6.80 365 24700 (1970) 11 (1925) 1210 17 27 42 47 187 539 592 1310 7520
2025-06-13 00:00 6.81 369 24700 (1970) 11 (1925) 1210 17 27 42 47 187 539 592 1310 7520
2025-06-12 23:30 6.81 369 24700 (1970) 11 (1925) 1210 17 27 42 47 187 539 592 1310 7520
2025-06-12 23:00 6.82 372 24700 (1970) 11 (1925) 1210 17 27 42 47 187 539 592 1310 7520
2025-06-12 22:30 6.82 372 12500 (2002) 9 (1925) 822 20 28 41 51 212 698 918 2550 4140
2025-06-12 22:00 6.82 372 12500 (2002) 9 (1925) 822 20 28 41 51 212 698 918 2550 4140
2025-06-12 21:30 6.83 376 12500 (2002) 9 (1925) 822 20 28 41 51 212 698 918 2550 4140
2025-06-12 21:00 6.84 380 12500 (2002) 9 (1925) 822 20 28 41 51 212 698 918 2550 4140
2025-06-12 20:30 6.84 380 12500 (2002) 9 (1925) 822 20 28 41 51 212 698 918 2550 4140
2025-06-12 20:00 6.85 384 12500 (2002) 9 (1925) 822 20 28 41 51 212 698 918 2550 4140
2025-06-12 19:30 6.85 384 12500 (2002) 9 (1925) 822 20 28 41 51 212 698 918 2550 4140
2025-06-12 19:00 6.86 387 12500 (2002) 9 (1925) 822 20 28 41 51 212 698 918 2550 4140
2025-06-12 18:30 6.86 387 12500 (2002) 9 (1925) 822 20 28 41 51 212 698 918 2550 4140
2025-06-12 18:00 6.87 391 12500 (2002) 9 (1925) 822 20 28 41 51 212 698 918 2550 4140
2025-06-12 17:30 6.88 395 12500 (2002) 9 (1925) 822 20 28 41 51 212 698 918 2550 4140
2025-06-12 17:00 6.88 395 12500 (2002) 9 (1925) 822 20 28 41 51 212 698 918 2550 4140
2025-06-12 16:30 6.89 399 12500 (2002) 9 (1925) 822 20 28 41 51 212 698 918 2550 4140
2025-06-12 16:00 6.89 399 12500 (2002) 9 (1925) 822 20 28 41 51 212 698 918 2550 4140
2025-06-12 15:30 6.90 403 12500 (2002) 9 (1925) 822 20 28 41 51 212 698 918 2550 4140
2025-06-12 15:00 6.91 407 12500 (2002) 9 (1925) 822 20 28 41 51 212 698 918 2550 4140
2025-06-12 14:30 6.91 407 12500 (2002) 9 (1925) 822 20 28 41 51 212 698 918 2550 4140
2025-06-12 14:00 6.92 411 12500 (2002) 9 (1925) 822 20 28 41 51 212 698 918 2550 4140
2025-06-12 13:30 6.92 411 12500 (2002) 9 (1925) 822 20 28 41 51 212 698 918 2550 4140
2025-06-12 13:00 6.93 415 12500 (2002) 9 (1925) 822 20 28 41 51 212 698 918 2550 4140
2025-06-12 12:30 6.94 419 12500 (2002) 9 (1925) 822 20 28 41 51 212 698 918 2550 4140
2025-06-12 12:00 6.94 419 12500 (2002) 9 (1925) 822 20 28 41 51 212 698 918 2550 4140
2025-06-12 11:30 6.95 423 12500 (2002) 9 (1925) 822 20 28 41 51 212 698 918 2550 4140
2025-06-12 11:00 6.96 427 12500 (2002) 9 (1925) 822 20 28 41 51 212 698 918 2550 4140
2025-06-12 10:30 6.96 427 12500 (2002) 9 (1925) 822 20 28 41 51 212 698 918 2550 4140
2025-06-12 10:00 6.97 431 12500 (2002) 9 (1925) 822 20 28 41 51 212 698 918 2550 4140
2025-06-12 07:30 7.00 443 12500 (2002) 9 (1925) 822 20 28 41 51 212 698 918 2550 4140
2025-06-12 07:00 7.01 447 12500 (2002) 9 (1925) 822 20 28 41 51 212 698 918 2550 4140
2025-06-12 06:30 7.01 447 12500 (2002) 9 (1925) 822 20 28 41 51 212 698 918 2550 4140
2025-06-12 06:00 7.02 451 12500 (2002) 9 (1925) 822 20 28 41 51 212 698 918 2550 4140
2025-06-12 05:30 7.03 456 12500 (2002) 9 (1925) 822 20 28 41 51 212 698 918 2550 4140
2025-06-12 05:00 7.04 460 12500 (2002) 9 (1925) 822 20 28 41 51 212 698 918 2550 4140
2025-06-12 04:30 7.05 464 12500 (2002) 9 (1925) 822 20 28 41 51 212 698 918 2550 4140
2025-06-12 04:00 7.05 464 12500 (2002) 9 (1925) 822 20 28 41 51 212 698 918 2550 4140
2025-06-12 03:30 7.06 468 12500 (2002) 9 (1925) 822 20 28 41 51 212 698 918 2550 4140
2025-06-12 03:00 7.06 468 12500 (2002) 9 (1925) 822 20 28 41 51 212 698 918 2550 4140
2025-06-12 02:30 7.07 473 12500 (2002) 9 (1925) 822 20 28 41 51 212 698 918 2550 4140
2025-06-12 02:00 7.08 477 12500 (2002) 9 (1925) 822 20 28 41 51 212 698 918 2550 4140
2025-06-12 01:30 7.09 481 12500 (2002) 9 (1925) 822 20 28 41 51 212 698 918 2550 4140
2025-06-12 01:00 7.10 486 12500 (2002) 9 (1925) 822 20 28 41 51 212 698 918 2550 4140
2025-06-12 00:30 7.11 490 12500 (2002) 9 (1925) 822 20 28 41 51 212 698 918 2550 4140
2025-06-12 00:00 7.12 494 12500 (2002) 9 (1925) 822 20 28 41 51 212 698 918 2550 4140
2025-06-11 23:30 7.12 494 12500 (2002) 9 (1925) 822 20 28 41 51 212 698 918 2550 4140
2025-06-11 22:30 7.14 503 6040 (1938) 10 (1925) 700 20 27 47 57 175 712 859 2510 3400
2025-06-11 22:00 7.15 508 6040 (1938) 10 (1925) 700 20 27 47 57 175 712 859 2510 3400
2025-06-11 21:30 7.15 508 6040 (1938) 10 (1925) 700 20 27 47 57 175 712 859 2510 3400
2025-06-11 21:00 7.16 512 6040 (1938) 10 (1925) 700 20 27 47 57 175 712 859 2510 3400
2025-06-11 20:30 7.18 521 6040 (1938) 10 (1925) 700 20 27 47 57 175 712 859 2510 3400
2025-06-11 20:00 7.18 521 6040 (1938) 10 (1925) 700 20 27 47 57 175 712 859 2510 3400
2025-06-11 19:30 7.19 526 6040 (1938) 10 (1925) 700 20 27 47 57 175 712 859 2510 3400
2025-06-11 19:00 7.20 531 6040 (1938) 10 (1925) 700 20 27 47 57 175 712 859 2510 3400
2025-06-11 18:30 7.21 535 6040 (1938) 10 (1925) 700 20 27 47 57 175 712 859 2510 3400
2025-06-11 18:00 7.22 540 6040 (1938) 10 (1925) 700 20 27 47 57 175 712 859 2510 3400
2025-06-11 17:30 7.23 544 6040 (1938) 10 (1925) 700 20 27 47 57 175 712 859 2510 3400
2025-06-11 17:00 7.24 549 6040 (1938) 10 (1925) 700 20 27 47 57 175 712 859 2510 3400
2025-06-11 16:30 7.25 554 6040 (1938) 10 (1925) 700 20 27 47 57 175 712 859 2510 3400
2025-06-11 16:00 7.26 559 6040 (1938) 10 (1925) 700 20 27 47 57 175 712 859 2510 3400
2025-06-11 15:30 7.27 563 6040 (1938) 10 (1925) 700 20 27 47 57 175 712 859 2510 3400
2025-06-11 15:00 7.28 568 6040 (1938) 10 (1925) 700 20 27 47 57 175 712 859 2510 3400
2025-06-11 14:30 7.29 573 6040 (1938) 10 (1925) 700 20 27 47 57 175 712 859 2510 3400
2025-06-11 14:00 7.30 578 6040 (1938) 10 (1925) 700 20 27 47 57 175 712 859 2510 3400
2025-06-11 13:30 7.31 583 6040 (1938) 10 (1925) 700 20 27 47 57 175 712 859 2510 3400
2025-06-11 13:00 7.32 588 6040 (1938) 10 (1925) 700 20 27 47 57 175 712 859 2510 3400
2025-06-11 12:30 7.33 592 6040 (1938) 10 (1925) 700 20 27 47 57 175 712 859 2510 3400
2025-06-11 12:00 7.34 597 6040 (1938) 10 (1925) 700 20 27 47 57 175 712 859 2510 3400
2025-06-11 11:30 7.35 602 6040 (1938) 10 (1925) 700 20 27 47 57 175 712 859 2510 3400
2025-06-11 11:00 7.36 607 6040 (1938) 10 (1925) 700 20 27 47 57 175 712 859 2510 3400
2025-06-11 10:30 7.37 612 6040 (1938) 10 (1925) 700 20 27 47 57 175 712 859 2510 3400
2025-06-11 10:00 7.38 617 6040 (1938) 10 (1925) 700 20 27 47 57 175 712 859 2510 3400
2025-06-11 09:30 7.39 622 6040 (1938) 10 (1925) 700 20 27 47 57 175 712 859 2510 3400
2025-06-11 09:00 7.39 622 6040 (1938) 10 (1925) 700 20 27 47 57 175 712 859 2510 3400
2025-06-11 08:30 7.40 627 6040 (1938) 10 (1925) 700 20 27 47 57 175 712 859 2510 3400
2025-06-11 08:00 7.42 638 6040 (1938) 10 (1925) 700 20 27 47 57 175 712 859 2510 3400
2025-06-11 07:30 7.44 648 6040 (1938) 10 (1925) 700 20 27 47 57 175 712 859 2510 3400
2025-06-11 07:00 7.44 648 6040 (1938) 10 (1925) 700 20 27 47 57 175 712 859 2510 3400
2025-06-11 06:30 7.46 658 6040 (1938) 10 (1925) 700 20 27 47 57 175 712 859 2510 3400
2025-06-11 06:00 7.46 658 6040 (1938) 10 (1925) 700 20 27 47 57 175 712 859 2510 3400
2025-06-11 05:30 7.47 664 6040 (1938) 10 (1925) 700 20 27 47 57 175 712 859 2510 3400
2025-06-11 05:00 7.48 669 6040 (1938) 10 (1925) 700 20 27 47 57 175 712 859 2510 3400
2025-06-11 04:30 7.49 674 6040 (1938) 10 (1925) 700 20 27 47 57 175 712 859 2510 3400
2025-06-11 04:00 7.50 680 6040 (1938) 10 (1925) 700 20 27 47 57 175 712 859 2510 3400
2025-06-11 03:30 7.51 685 6040 (1938) 10 (1925) 700 20 27 47 57 175 712 859 2510 3400
2025-06-11 03:00 7.52 690 6040 (1938) 10 (1925) 700 20 27 47 57 175 712 859 2510 3400
2025-06-11 02:30 7.53 696 6040 (1938) 10 (1925) 700 20 27 47 57 175 712 859 2510 3400
2025-06-11 02:00 7.54 701 6040 (1938) 10 (1925) 700 20 27 47 57 175 712 859 2510 3400
2025-06-11 01:30 7.54 701 6040 (1938) 10 (1925) 700 20 27 47 57 175 712 859 2510 3400
2025-06-11 01:00 7.56 712 6040 (1938) 10 (1925) 700 20 27 47 57 175 712 859 2510 3400
2025-06-11 00:30 7.56 712 6040 (1938) 10 (1925) 700 20 27 47 57 175 712 859 2510 3400
2025-06-11 00:00 7.57 717 6040 (1938) 10 (1925) 700 20 27 47 57 175 712 859 2510 3400
2025-06-10 23:30 7.58 723 6040 (1938) 10 (1925) 700 20 27 47 57 175 712 859 2510 3400
2025-06-10 23:00 7.59 729 6040 (1938) 10 (1925) 700 20 27 47 57 175 712 859 2510 3400
2025-06-10 22:30 7.60 734 11700 (1982) 10 (1925) 731 21 28 36 51 106 634 934 2220 3330
2025-06-10 22:00 7.60 734 11700 (1982) 10 (1925) 731 21 28 36 51 106 634 934 2220 3330
2025-06-10 21:30 7.61 740 11700 (1982) 10 (1925) 731 21 28 36 51 106 634 934 2220 3330
2025-06-10 21:00 7.63 751 11700 (1982) 10 (1925) 731 21 28 36 51 106 634 934 2220 3330
2025-06-10 20:30 7.63 751 11700 (1982) 10 (1925) 731 21 28 36 51 106 634 934 2220 3330
2025-06-10 20:00 7.64 757 11700 (1982) 10 (1925) 731 21 28 36 51 106 634 934 2220 3330
2025-06-10 19:30 7.66 768 11700 (1982) 10 (1925) 731 21 28 36 51 106 634 934 2220 3330
2025-06-10 19:00 7.67 774 11700 (1982) 10 (1925) 731 21 28 36 51 106 634 934 2220 3330
2025-06-10 18:30 7.69 785 11700 (1982) 10 (1925) 731 21 28 36 51 106 634 934 2220 3330
2025-06-10 18:00 7.70 791 11700 (1982) 10 (1925) 731 21 28 36 51 106 634 934 2220 3330
2025-06-10 17:30 7.72 803 11700 (1982) 10 (1925) 731 21 28 36 51 106 634 934 2220 3330
2025-06-10 17:00 7.74 815 11700 (1982) 10 (1925) 731 21 28 36 51 106 634 934 2220 3330
2025-06-10 16:30 7.76 827 11700 (1982) 10 (1925) 731 21 28 36 51 106 634 934 2220 3330
2025-06-10 16:00 7.77 833 11700 (1982) 10 (1925) 731 21 28 36 51 106 634 934 2220 3330
2025-06-10 15:30 7.79 845 11700 (1982) 10 (1925) 731 21 28 36 51 106 634 934 2220 3330
2025-06-10 15:00 7.81 857 11700 (1982) 10 (1925) 731 21 28 36 51 106 634 934 2220 3330
2025-06-10 14:30 7.83 869 11700 (1982) 10 (1925) 731 21 28 36 51 106 634 934 2220 3330
2025-06-10 14:00 7.85 882 11700 (1982) 10 (1925) 731 21 28 36 51 106 634 934 2220 3330
2025-06-10 13:30 7.88 900 11700 (1982) 10 (1925) 731 21 28 36 51 106 634 934 2220 3330
2025-06-10 13:00 7.90 913 11700 (1982) 10 (1925) 731 21 28 36 51 106 634 934 2220 3330
2025-06-10 12:30 7.93 932 11700 (1982) 10 (1925) 731 21 28 36 51 106 634 934 2220 3330
2025-06-10 12:00 7.95 945 11700 (1982) 10 (1925) 731 21 28 36 51 106 634 934 2220 3330
2025-06-10 11:30 7.97 958 11700 (1982) 10 (1925) 731 21 28 36 51 106 634 934 2220 3330
2025-06-10 10:30 8.02 991 11700 (1982) 10 (1925) 731 21 28 36 51 106 634 934 2220 3330
2025-06-10 10:00 8.05 1010 11700 (1982) 10 (1925) 731 21 28 36 51 106 634 934 2220 3330
2025-06-10 09:30 8.07 1020 11700 (1982) 10 (1925) 731 21 28 36 51 106 634 934 2220 3330
2025-06-10 09:00 8.09 1040 11700 (1982) 10 (1925) 731 21 28 36 51 106 634 934 2220 3330
2025-06-10 08:30 8.12 1060 11700 (1982) 10 (1925) 731 21 28 36 51 106 634 934 2220 3330
2025-06-10 08:00 8.15 1080 11700 (1982) 10 (1925) 731 21 28 36 51 106 634 934 2220 3330
2025-06-10 07:30 8.17 1090 11700 (1982) 10 (1925) 731 21 28 36 51 106 634 934 2220 3330
2025-06-10 07:00 8.21 1120 11700 (1982) 10 (1925) 731 21 28 36 51 106 634 934 2220 3330
2025-06-10 06:30 8.24 1140 11700 (1982) 10 (1925) 731 21 28 36 51 106 634 934 2220 3330
2025-06-10 06:00 8.26 1160 11700 (1982) 10 (1925) 731 21 28 36 51 106 634 934 2220 3330
2025-06-10 05:30 8.29 1180 11700 (1982) 10 (1925) 731 21 28 36 51 106 634 934 2220 3330
2025-06-10 05:00 8.32 1200 11700 (1982) 10 (1925) 731 21 28 36 51 106 634 934 2220 3330
2025-06-10 04:30 8.35 1230 11700 (1982) 10 (1925) 731 21 28 36 51 106 634 934 2220 3330
2025-06-10 04:00 8.38 1250 11700 (1982) 10 (1925) 731 21 28 36 51 106 634 934 2220 3330
2025-06-10 03:30 8.39 1260 11700 (1982) 10 (1925) 731 21 28 36 51 106 634 934 2220 3330
2025-06-10 03:00 8.43 1290 11700 (1982) 10 (1925) 731 21 28 36 51 106 634 934 2220 3330
2025-06-10 02:30 8.45 1300 11700 (1982) 10 (1925) 731 21 28 36 51 106 634 934 2220 3330
2025-06-10 02:00 8.46 1310 11700 (1982) 10 (1925) 731 21 28 36 51 106 634 934 2220 3330
2025-06-10 01:30 8.49 1330 11700 (1982) 10 (1925) 731 21 28 36 51 106 634 934 2220 3330
2025-06-10 01:00 8.51 1350 11700 (1982) 10 (1925) 731 21 28 36 51 106 634 934 2220 3330
2025-06-10 00:30 8.53 1370 11700 (1982) 10 (1925) 731 21 28 36 51 106 634 934 2220 3330
2025-06-10 00:00 8.55 1380 11700 (1982) 10 (1925) 731 21 28 36 51 106 634 934 2220 3330
2025-06-09 23:30 8.58 1410 11700 (1982) 10 (1925) 731 21 28 36 51 106 634 934 2220 3330
2025-06-09 23:00 8.60 1420 11700 (1982) 10 (1925) 731 21 28 36 51 106 634 934 2220 3330
2025-06-09 22:30 8.61 1430 13500 (1982) 3 (1934) 898 17 29 37 53 110 432 848 2940 5650
2025-06-09 22:00 8.62 1440 13500 (1982) 3 (1934) 898 17 29 37 53 110 432 848 2940 5650
2025-06-09 21:30 8.62 1440 13500 (1982) 3 (1934) 898 17 29 37 53 110 432 848 2940 5650
2025-06-09 21:00 8.65 1470 13500 (1982) 3 (1934) 898 17 29 37 53 110 432 848 2940 5650
2025-06-09 20:30 8.65 1470 13500 (1982) 3 (1934) 898 17 29 37 53 110 432 848 2940 5650
2025-06-09 20:00 8.65 1470 13500 (1982) 3 (1934) 898 17 29 37 53 110 432 848 2940 5650
2025-06-09 19:30 8.65 1470 13500 (1982) 3 (1934) 898 17 29 37 53 110 432 848 2940 5650
2025-06-09 19:00 8.64 1460 13500 (1982) 3 (1934) 898 17 29 37 53 110 432 848 2940 5650
2025-06-09 18:30 8.62 1440 13500 (1982) 3 (1934) 898 17 29 37 53 110 432 848 2940 5650
2025-06-09 18:00 8.63 1450 13500 (1982) 3 (1934) 898 17 29 37 53 110 432 848 2940 5650
2025-06-09 17:30 8.61 1430 13500 (1982) 3 (1934) 898 17 29 37 53 110 432 848 2940 5650
2025-06-09 17:00 8.63 1450 13500 (1982) 3 (1934) 898 17 29 37 53 110 432 848 2940 5650
2025-06-09 16:30 8.63 1450 13500 (1982) 3 (1934) 898 17 29 37 53 110 432 848 2940 5650
2025-06-09 16:00 8.62 1440 13500 (1982) 3 (1934) 898 17 29 37 53 110 432 848 2940 5650
2025-06-09 15:30 8.63 1450 13500 (1982) 3 (1934) 898 17 29 37 53 110 432 848 2940 5650
2025-06-09 15:00 8.64 1460 13500 (1982) 3 (1934) 898 17 29 37 53 110 432 848 2940 5650
2025-06-09 14:30 8.66 1470 13500 (1982) 3 (1934) 898 17 29 37 53 110 432 848 2940 5650
2025-06-09 14:00 8.66 1470 13500 (1982) 3 (1934) 898 17 29 37 53 110 432 848 2940 5650
2025-06-09 13:30 8.63 1450 13500 (1982) 3 (1934) 898 17 29 37 53 110 432 848 2940 5650
2025-06-09 13:00 8.62 1440 13500 (1982) 3 (1934) 898 17 29 37 53 110 432 848 2940 5650
2025-06-09 12:00 8.59 1420 13500 (1982) 3 (1934) 898 17 29 37 53 110 432 848 2940 5650
2025-06-09 11:30 8.57 1400 13500 (1982) 3 (1934) 898 17 29 37 53 110 432 848 2940 5650
2025-06-09 11:00 8.52 1360 13500 (1982) 3 (1934) 898 17 29 37 53 110 432 848 2940 5650
2025-06-09 10:30 8.54 1370 13500 (1982) 3 (1934) 898 17 29 37 53 110 432 848 2940 5650
2025-06-09 10:00 8.52 1360 13500 (1982) 3 (1934) 898 17 29 37 53 110 432 848 2940 5650
2025-06-09 09:30 8.55 1380 13500 (1982) 3 (1934) 898 17 29 37 53 110 432 848 2940 5650
2025-06-09 09:00 8.56 1390 13500 (1982) 3 (1934) 898 17 29 37 53 110 432 848 2940 5650
2025-06-09 08:30 8.59 1420 13500 (1982) 3 (1934) 898 17 29 37 53 110 432 848 2940 5650
2025-06-09 08:00 8.60 1420 13500 (1982) 3 (1934) 898 17 29 37 53 110 432 848 2940 5650
2025-06-09 07:30 8.61 1430 13500 (1982) 3 (1934) 898 17 29 37 53 110 432 848 2940 5650
2025-06-09 07:00 8.59 1420 13500 (1982) 3 (1934) 898 17 29 37 53 110 432 848 2940 5650
2025-06-09 06:30 8.60 1420 13500 (1982) 3 (1934) 898 17 29 37 53 110 432 848 2940 5650
2025-06-09 06:00 8.60 1420 13500 (1982) 3 (1934) 898 17 29 37 53 110 432 848 2940 5650
2025-06-09 05:30 8.58 1410 13500 (1982) 3 (1934) 898 17 29 37 53 110 432 848 2940 5650
2025-06-09 05:00 8.60 1420 13500 (1982) 3 (1934) 898 17 29 37 53 110 432 848 2940 5650
2025-06-09 04:30 8.63 1450 13500 (1982) 3 (1934) 898 17 29 37 53 110 432 848 2940 5650
2025-06-09 04:00 8.65 1470 13500 (1982) 3 (1934) 898 17 29 37 53 110 432 848 2940 5650
2025-06-09 03:30 8.69 1500 13500 (1982) 3 (1934) 898 17 29 37 53 110 432 848 2940 5650
2025-06-09 03:00 8.73 1530 13500 (1982) 3 (1934) 898 17 29 37 53 110 432 848 2940 5650
2025-06-09 02:30 8.77 1570 13500 (1982) 3 (1934) 898 17 29 37 53 110 432 848 2940 5650
2025-06-09 02:00 8.81 1600 13500 (1982) 3 (1934) 898 17 29 37 53 110 432 848 2940 5650
2025-06-09 01:30 8.87 1660 13500 (1982) 3 (1934) 898 17 29 37 53 110 432 848 2940 5650
2025-06-09 01:00 8.93 1710 13500 (1982) 3 (1934) 898 17 29 37 53 110 432 848 2940 5650
2025-06-09 00:30 8.97 1750 13500 (1982) 3 (1934) 898 17 29 37 53 110 432 848 2940 5650
2025-06-09 00:00 9.02 1800 13500 (1982) 3 (1934) 898 17 29 37 53 110 432 848 2940 5650
2025-06-08 23:30 9.08 1850 13500 (1982) 3 (1934) 898 17 29 37 53 110 432 848 2940 5650
2025-06-08 23:00 9.15 1920 13500 (1982) 3 (1934) 898 17 29 37 53 110 432 848 2940 5650
2025-06-08 22:30 9.23 2000 22400 (1990) 2 (1934) 952 13 29 40 46 122 391 683 2240 4860
2025-06-08 22:00 9.29 2060 22400 (1990) 2 (1934) 952 13 29 40 46 122 391 683 2240 4860
2025-06-08 21:30 9.36 2100 22400 (1990) 2 (1934) 952 13 29 40 46 122 391 683 2240 4860
2025-06-08 21:00 9.41 2130 22400 (1990) 2 (1934) 952 13 29 40 46 122 391 683 2240 4860
2025-06-08 20:30 9.48 2180 22400 (1990) 2 (1934) 952 13 29 40 46 122 391 683 2240 4860
2025-06-08 20:00 9.58 2240 22400 (1990) 2 (1934) 952 13 29 40 46 122 391 683 2240 4860
2025-06-08 19:30 9.66 2290 22400 (1990) 2 (1934) 952 13 29 40 46 122 391 683 2240 4860
2025-06-08 19:00 9.73 2340 22400 (1990) 2 (1934) 952 13 29 40 46 122 391 683 2240 4860
2025-06-08 18:30 9.82 2390 22400 (1990) 2 (1934) 952 13 29 40 46 122 391 683 2240 4860
2025-06-08 18:00 9.89 2440 22400 (1990) 2 (1934) 952 13 29 40 46 122 391 683 2240 4860
2025-06-08 17:30 9.99 2500 22400 (1990) 2 (1934) 952 13 29 40 46 122 391 683 2240 4860
2025-06-08 17:00 10.08 2560 22400 (1990) 2 (1934) 952 13 29 40 46 122 391 683 2240 4860
2025-06-08 16:30 10.17 2620 22400 (1990) 2 (1934) 952 13 29 40 46 122 391 683 2240 4860
2025-06-08 16:00 10.25 2670 22400 (1990) 2 (1934) 952 13 29 40 46 122 391 683 2240 4860
2025-06-08 15:30 10.32 2720 22400 (1990) 2 (1934) 952 13 29 40 46 122 391 683 2240 4860
2025-06-08 15:00 10.36 2750 22400 (1990) 2 (1934) 952 13 29 40 46 122 391 683 2240 4860
2025-06-08 14:30 10.38 2760 22400 (1990) 2 (1934) 952 13 29 40 46 122 391 683 2240 4860
2025-06-08 14:00 10.39 2770 22400 (1990) 2 (1934) 952 13 29 40 46 122 391 683 2240 4860
2025-06-08 13:30 10.37 2750 22400 (1990) 2 (1934) 952 13 29 40 46 122 391 683 2240 4860
2025-06-08 13:00 10.33 2730 22400 (1990) 2 (1934) 952 13 29 40 46 122 391 683 2240 4860
2025-06-08 12:30 10.32 2720 22400 (1990) 2 (1934) 952 13 29 40 46 122 391 683 2240 4860
2025-06-08 12:00 10.33 2730 22400 (1990) 2 (1934) 952 13 29 40 46 122 391 683 2240 4860
2025-06-08 11:30 10.35 2740 22400 (1990) 2 (1934) 952 13 29 40 46 122 391 683 2240 4860
2025-06-08 11:00 10.39 2770 22400 (1990) 2 (1934) 952 13 29 40 46 122 391 683 2240 4860
2025-06-08 10:30 10.41 2780 22400 (1990) 2 (1934) 952 13 29 40 46 122 391 683 2240 4860
2025-06-08 10:00 10.44 2800 22400 (1990) 2 (1934) 952 13 29 40 46 122 391 683 2240 4860
2025-06-08 09:30 10.43 2800 22400 (1990) 2 (1934) 952 13 29 40 46 122 391 683 2240 4860
2025-06-08 09:00 10.37 2750 22400 (1990) 2 (1934) 952 13 29 40 46 122 391 683 2240 4860
2025-06-08 08:30 10.30 2710 22400 (1990) 2 (1934) 952 13 29 40 46 122 391 683 2240 4860
2025-06-08 08:00 10.19 2630 22400 (1990) 2 (1934) 952 13 29 40 46 122 391 683 2240 4860
2025-06-08 07:30 10.07 2560 22400 (1990) 2 (1934) 952 13 29 40 46 122 391 683 2240 4860
2025-06-08 07:00 9.82 2390 22400 (1990) 2 (1934) 952 13 29 40 46 122 391 683 2240 4860
2025-06-08 06:30 9.50 2190 22400 (1990) 2 (1934) 952 13 29 40 46 122 391 683 2240 4860
2025-06-08 06:00 9.13 1900 22400 (1990) 2 (1934) 952 13 29 40 46 122 391 683 2240 4860
2025-06-08 05:30 8.79 1590 22400 (1990) 2 (1934) 952 13 29 40 46 122 391 683 2240 4860
2025-06-08 05:00 8.63 1450 22400 (1990) 2 (1934) 952 13 29 40 46 122 391 683 2240 4860
2025-06-08 04:30 8.53 1370 22400 (1990) 2 (1934) 952 13 29 40 46 122 391 683 2240 4860
2025-06-08 04:00 8.46 1310 22400 (1990) 2 (1934) 952 13 29 40 46 122 391 683 2240 4860
2025-06-08 03:30 8.39 1260 22400 (1990) 2 (1934) 952 13 29 40 46 122 391 683 2240 4860
2025-06-08 03:00 8.35 1230 22400 (1990) 2 (1934) 952 13 29 40 46 122 391 683 2240 4860
2025-06-08 02:30 8.31 1200 22400 (1990) 2 (1934) 952 13 29 40 46 122 391 683 2240 4860
2025-06-08 02:00 1170 22400 (1990) 2 (1934) 952 13 29 40 46 122 391 683 2240 4860
2025-06-08 01:30 8.22 1130 22400 (1990) 2 (1934) 952 13 29 40 46 122 391 683 2240 4860
2025-06-08 01:00 8.15 1080 22400 (1990) 2 (1934) 952 13 29 40 46 122 391 683 2240 4860
2025-06-08 00:30 8.10 1050 22400 (1990) 2 (1934) 952 13 29 40 46 122 391 683 2240 4860
2025-06-08 00:00 8.05 1010 22400 (1990) 2 (1934) 952 13 29 40 46 122 391 683 2240 4860
2025-06-07 23:30 8.03 998 22400 (1990) 2 (1934) 952 13 29 40 46 122 391 683 2240 4860
2025-06-07 23:00 8.03 998 22400 (1990) 2 (1934) 952 13 29 40 46 122 391 683 2240 4860
2025-06-07 22:30 8.06 1020 15800 (1990) 4 (1934) 690 15 29 41 52 135 421 512 1230 3880
2025-06-07 22:00 8.06 1020 15800 (1990) 4 (1934) 690 15 29 41 52 135 421 512 1230 3880
2025-06-07 21:30 8.07 1020 15800 (1990) 4 (1934) 690 15 29 41 52 135 421 512 1230 3880
2025-06-07 21:00 8.09 1040 15800 (1990) 4 (1934) 690 15 29 41 52 135 421 512 1230 3880
2025-06-07 20:30 8.09 1040 15800 (1990) 4 (1934) 690 15 29 41 52 135 421 512 1230 3880
2025-06-07 20:00 8.09 1040 15800 (1990) 4 (1934) 690 15 29 41 52 135 421 512 1230 3880
2025-06-07 19:30 8.10 1050 15800 (1990) 4 (1934) 690 15 29 41 52 135 421 512 1230 3880
2025-06-07 19:00 8.13 1070 15800 (1990) 4 (1934) 690 15 29 41 52 135 421 512 1230 3880
2025-06-07 18:30 8.14 1070 15800 (1990) 4 (1934) 690 15 29 41 52 135 421 512 1230 3880
2025-06-07 18:00 8.15 1080 15800 (1990) 4 (1934) 690 15 29 41 52 135 421 512 1230 3880
2025-06-07 17:30 8.17 1090 15800 (1990) 4 (1934) 690 15 29 41 52 135 421 512 1230 3880
2025-06-07 17:00 8.16 1090 15800 (1990) 4 (1934) 690 15 29 41 52 135 421 512 1230 3880
2025-06-07 16:30 8.22 1130 15800 (1990) 4 (1934) 690 15 29 41 52 135 421 512 1230 3880
2025-06-07 16:00 8.22 1130 15800 (1990) 4 (1934) 690 15 29 41 52 135 421 512 1230 3880
2025-06-07 15:30 8.25 1150 15800 (1990) 4 (1934) 690 15 29 41 52 135 421 512 1230 3880
2025-06-07 15:00 8.27 1170 15800 (1990) 4 (1934) 690 15 29 41 52 135 421 512 1230 3880
2025-06-07 14:30 8.28 1170 15800 (1990) 4 (1934) 690 15 29 41 52 135 421 512 1230 3880
2025-06-07 14:00 8.26 1160 15800 (1990) 4 (1934) 690 15 29 41 52 135 421 512 1230 3880
2025-06-07 13:30 8.33 1210 15800 (1990) 4 (1934) 690 15 29 41 52 135 421 512 1230 3880
2025-06-07 13:00 8.34 1220 15800 (1990) 4 (1934) 690 15 29 41 52 135 421 512 1230 3880
2025-06-07 12:30 8.36 1230 15800 (1990) 4 (1934) 690 15 29 41 52 135 421 512 1230 3880
2025-06-07 11:30 8.39 1260 15800 (1990) 4 (1934) 690 15 29 41 52 135 421 512 1230 3880
2025-06-07 11:00 8.39 1260 15800 (1990) 4 (1934) 690 15 29 41 52 135 421 512 1230 3880
2025-06-07 10:30 8.39 1260 15800 (1990) 4 (1934) 690 15 29 41 52 135 421 512 1230 3880
2025-06-07 10:00 8.41 1270 15800 (1990) 4 (1934) 690 15 29 41 52 135 421 512 1230 3880
2025-06-07 09:30 8.39 1260 15800 (1990) 4 (1934) 690 15 29 41 52 135 421 512 1230 3880
2025-06-07 09:00 8.38 1250 15800 (1990) 4 (1934) 690 15 29 41 52 135 421 512 1230 3880
2025-06-07 08:30 8.36 1230 15800 (1990) 4 (1934) 690 15 29 41 52 135 421 512 1230 3880
2025-06-07 08:00 8.36 1230 15800 (1990) 4 (1934) 690 15 29 41 52 135 421 512 1230 3880
2025-06-07 07:30 8.35 1230 15800 (1990) 4 (1934) 690 15 29 41 52 135 421 512 1230 3880
2025-06-07 07:00 8.37 1240 15800 (1990) 4 (1934) 690 15 29 41 52 135 421 512 1230 3880
2025-06-07 06:30 8.39 1260 15800 (1990) 4 (1934) 690 15 29 41 52 135 421 512 1230 3880
2025-06-07 06:00 8.41 1270 15800 (1990) 4 (1934) 690 15 29 41 52 135 421 512 1230 3880
2025-06-07 05:30 8.44 1300 15800 (1990) 4 (1934) 690 15 29 41 52 135 421 512 1230 3880
2025-06-07 05:00 8.48 1330 15800 (1990) 4 (1934) 690 15 29 41 52 135 421 512 1230 3880
2025-06-07 04:30 8.51 1350 15800 (1990) 4 (1934) 690 15 29 41 52 135 421 512 1230 3880
2025-06-07 04:00 1370 15800 (1990) 4 (1934) 690 15 29 41 52 135 421 512 1230 3880
2025-06-07 03:30 8.58 1410 15800 (1990) 4 (1934) 690 15 29 41 52 135 421 512 1230 3880
2025-06-07 03:00 1440 15800 (1990) 4 (1934) 690 15 29 41 52 135 421 512 1230 3880
2025-06-07 02:30 1480 15800 (1990) 4 (1934) 690 15 29 41 52 135 421 512 1230 3880
2025-06-07 02:00 1500 15800 (1990) 4 (1934) 690 15 29 41 52 135 421 512 1230 3880
2025-06-07 01:00 1590 15800 (1990) 4 (1934) 690 15 29 41 52 135 421 512 1230 3880
2025-06-07 00:30 1630 15800 (1990) 4 (1934) 690 15 29 41 52 135 421 512 1230 3880
2025-06-07 00:00 8.88 1670 15800 (1990) 4 (1934) 690 15 29 41 52 135 421 512 1230 3880
2025-06-06 23:30 1730 15800 (1990) 4 (1934) 690 15 29 41 52 135 421 512 1230 3880
2025-06-06 23:00 8.98 1760 15800 (1990) 4 (1934) 690 15 29 41 52 135 421 512 1230 3880
2025-06-06 22:30 1820 9880 (1943) 3 (1934) 683 15 30 48 53 122 510 639 1470 5300
2025-06-06 22:00 9.09 1860 9880 (1943) 3 (1934) 683 15 30 48 53 122 510 639 1470 5300
2025-06-06 21:30 1930 9880 (1943) 3 (1934) 683 15 30 48 53 122 510 639 1470 5300
2025-06-06 21:00 2000 9880 (1943) 3 (1934) 683 15 30 48 53 122 510 639 1470 5300
2025-06-06 20:00 9.37 2110 9880 (1943) 3 (1934) 683 15 30 48 53 122 510 639 1470 5300
2025-06-06 19:30 9.43 2150 9880 (1943) 3 (1934) 683 15 30 48 53 122 510 639 1470 5300
2025-06-06 19:00 9.51 2200 9880 (1943) 3 (1934) 683 15 30 48 53 122 510 639 1470 5300
2025-06-06 18:30 9.58 2240 9880 (1943) 3 (1934) 683 15 30 48 53 122 510 639 1470 5300
2025-06-06 18:00 9.64 2280 9880 (1943) 3 (1934) 683 15 30 48 53 122 510 639 1470 5300
2025-06-06 17:30 9.70 2320 9880 (1943) 3 (1934) 683 15 30 48 53 122 510 639 1470 5300
2025-06-06 17:00 9.75 2350 9880 (1943) 3 (1934) 683 15 30 48 53 122 510 639 1470 5300
2025-06-06 16:30 9.84 2410 9880 (1943) 3 (1934) 683 15 30 48 53 122 510 639 1470 5300
2025-06-06 16:00 9.92 2460 9880 (1943) 3 (1934) 683 15 30 48 53 122 510 639 1470 5300
2025-06-06 15:30 9.99 2500 9880 (1943) 3 (1934) 683 15 30 48 53 122 510 639 1470 5300
2025-06-06 15:00 10.06 2550 9880 (1943) 3 (1934) 683 15 30 48 53 122 510 639 1470 5300
2025-06-06 14:30 10.10 2580 9880 (1943) 3 (1934) 683 15 30 48 53 122 510 639 1470 5300
2025-06-06 14:00 10.20 2640 9880 (1943) 3 (1934) 683 15 30 48 53 122 510 639 1470 5300
2025-06-06 13:30 10.25 2670 9880 (1943) 3 (1934) 683 15 30 48 53 122 510 639 1470 5300
2025-06-06 13:00 10.31 2710 9880 (1943) 3 (1934) 683 15 30 48 53 122 510 639 1470 5300
2025-06-06 12:30 10.39 2770 9880 (1943) 3 (1934) 683 15 30 48 53 122 510 639 1470 5300
2025-06-06 12:00 10.42 2790 9880 (1943) 3 (1934) 683 15 30 48 53 122 510 639 1470 5300
2025-06-06 11:30 10.50 2840 9880 (1943) 3 (1934) 683 15 30 48 53 122 510 639 1470 5300
2025-06-06 11:00 10.56 2880 9880 (1943) 3 (1934) 683 15 30 48 53 122 510 639 1470 5300
2025-06-06 10:30 10.65 2950 9880 (1943) 3 (1934) 683 15 30 48 53 122 510 639 1470 5300
2025-06-06 10:00 3000 9880 (1943) 3 (1934) 683 15 30 48 53 122 510 639 1470 5300
2025-06-06 09:30 10.79 3040 9880 (1943) 3 (1934) 683 15 30 48 53 122 510 639 1470 5300
2025-06-06 09:00 3080 9880 (1943) 3 (1934) 683 15 30 48 53 122 510 639 1470 5300
2025-06-06 08:30 10.91 3130 9880 (1943) 3 (1934) 683 15 30 48 53 122 510 639 1470 5300
2025-06-06 08:00 3170 9880 (1943) 3 (1934) 683 15 30 48 53 122 510 639 1470 5300
2025-06-06 07:30 11.02 3200 9880 (1943) 3 (1934) 683 15 30 48 53 122 510 639 1470 5300
2025-06-06 07:00 11.07 3240 9880 (1943) 3 (1934) 683 15 30 48 53 122 510 639 1470 5300
2025-06-06 06:30 11.12 3270 9880 (1943) 3 (1934) 683 15 30 48 53 122 510 639 1470 5300
2025-06-06 06:00 11.18 3320 9880 (1943) 3 (1934) 683 15 30 48 53 122 510 639 1470 5300
2025-06-06 05:30 11.21 3340 9880 (1943) 3 (1934) 683 15 30 48 53 122 510 639 1470 5300
2025-06-06 05:00 11.27 3380 9880 (1943) 3 (1934) 683 15 30 48 53 122 510 639 1470 5300
2025-06-06 04:30 11.29 3400 9880 (1943) 3 (1934) 683 15 30 48 53 122 510 639 1470 5300
2025-06-06 04:00 3410 9880 (1943) 3 (1934) 683 15 30 48 53 122 510 639 1470 5300
2025-06-06 03:30 11.39 3470 9880 (1943) 3 (1934) 683 15 30 48 53 122 510 639 1470 5300
2025-06-06 03:00 11.42 3490 9880 (1943) 3 (1934) 683 15 30 48 53 122 510 639 1470 5300
2025-06-06 02:30 3530 9880 (1943) 3 (1934) 683 15 30 48 53 122 510 639 1470 5300
2025-06-06 02:00 11.53 3570 9880 (1943) 3 (1934) 683 15 30 48 53 122 510 639 1470 5300
2025-06-06 01:30 3610 9880 (1943) 3 (1934) 683 15 30 48 53 122 510 639 1470 5300
2025-06-06 01:00 11.64 3650 9880 (1943) 3 (1934) 683 15 30 48 53 122 510 639 1470 5300
2025-06-06 00:30 3670 9880 (1943) 3 (1934) 683 15 30 48 53 122 510 639 1470 5300
2025-06-06 00:00 11.69 3690 9880 (1943) 3 (1934) 683 15 30 48 53 122 510 639 1470 5300
2025-06-05 23:30 11.76 3740 9880 (1943) 3 (1934) 683 15 30 48 53 122 510 639 1470 5300
2025-06-05 23:00 11.82 3780 9880 (1943) 3 (1934) 683 15 30 48 53 122 510 639 1470 5300
2025-06-05 22:30 11.91 3850 12100 (2001) 2 (1934) 747 16 30 52 57 145 517 655 1390 3390
2025-06-05 22:00 11.96 3890 12100 (2001) 2 (1934) 747 16 30 52 57 145 517 655 1390 3390
2025-06-05 21:30 12.05 3950 12100 (2001) 2 (1934) 747 16 30 52 57 145 517 655 1390 3390
2025-06-05 21:00 12.13 4020 12100 (2001) 2 (1934) 747 16 30 52 57 145 517 655 1390 3390
2025-06-05 20:30 12.26 4110 12100 (2001) 2 (1934) 747 16 30 52 57 145 517 655 1390 3390
2025-06-05 20:00 12.33 4170 12100 (2001) 2 (1934) 747 16 30 52 57 145 517 655 1390 3390
2025-06-05 19:30 12.48 4280 12100 (2001) 2 (1934) 747 16 30 52 57 145 517 655 1390 3390
2025-06-05 19:00 12.61 4380 12100 (2001) 2 (1934) 747 16 30 52 57 145 517 655 1390 3390
2025-06-05 18:30 12.78 4520 12100 (2001) 2 (1934) 747 16 30 52 57 145 517 655 1390 3390
2025-06-05 18:00 12.94 4640 12100 (2001) 2 (1934) 747 16 30 52 57 145 517 655 1390 3390
2025-06-05 17:30 13.15 4810 12100 (2001) 2 (1934) 747 16 30 52 57 145 517 655 1390 3390
2025-06-05 17:00 13.36 4980 12100 (2001) 2 (1934) 747 16 30 52 57 145 517 655 1390 3390
2025-06-05 16:30 13.63 5200 12100 (2001) 2 (1934) 747 16 30 52 57 145 517 655 1390 3390
2025-06-05 16:00 13.95 5470 12100 (2001) 2 (1934) 747 16 30 52 57 145 517 655 1390 3390
2025-06-05 15:30 14.28 5740 12100 (2001) 2 (1934) 747 16 30 52 57 145 517 655 1390 3390
2025-06-05 15:00 14.69 6090 12100 (2001) 2 (1934) 747 16 30 52 57 145 517 655 1390 3390
2025-06-05 14:30 15.12 6470 12100 (2001) 2 (1934) 747 16 30 52 57 145 517 655 1390 3390
2025-06-05 14:00 15.59 6890 12100 (2001) 2 (1934) 747 16 30 52 57 145 517 655 1390 3390
2025-06-05 13:30 16.07 7320 12100 (2001) 2 (1934) 747 16 30 52 57 145 517 655 1390 3390
2025-06-05 13:00 16.61 7820 12100 (2001) 2 (1934) 747 16 30 52 57 145 517 655 1390 3390
2025-06-05 12:30 17.19 8370 12100 (2001) 2 (1934) 747 16 30 52 57 145 517 655 1390 3390
2025-06-05 12:00 17.76 8920 12100 (2001) 2 (1934) 747 16 30 52 57 145 517 655 1390 3390
2025-06-05 11:30 18.35 9500 12100 (2001) 2 (1934) 747 16 30 52 57 145 517 655 1390 3390
2025-06-05 11:00 18.94 10100 12100 (2001) 2 (1934) 747 16 30 52 57 145 517 655 1390 3390
2025-06-05 10:30 19.56 10900 12100 (2001) 2 (1934) 747 16 30 52 57 145 517 655 1390 3390
2025-06-05 10:00 20.21 11900 12100 (2001) 2 (1934) 747 16 30 52 57 145 517 655 1390 3390
2025-06-05 09:30 20.76 12700 12100 (2001) 2 (1934) 747 16 30 52 57 145 517 655 1390 3390
2025-06-05 09:00 21.28 13600 12100 (2001) 2 (1934) 747 16 30 52 57 145 517 655 1390 3390
2025-06-05 08:30 21.80 14700 12100 (2001) 2 (1934) 747 16 30 52 57 145 517 655 1390 3390
2025-06-05 08:00 22.22 15900 12100 (2001) 2 (1934) 747 16 30 52 57 145 517 655 1390 3390
2025-06-05 07:30 22.64 17400 12100 (2001) 2 (1934) 747 16 30 52 57 145 517 655 1390 3390
2025-06-05 07:00 22.99 18700 12100 (2001) 2 (1934) 747 16 30 52 57 145 517 655 1390 3390
2025-06-05 06:30 23.31 19900 12100 (2001) 2 (1934) 747 16 30 52 57 145 517 655 1390 3390
2025-06-05 06:00 23.61 21200 12100 (2001) 2 (1934) 747 16 30 52 57 145 517 655 1390 3390
2025-06-05 05:30 23.84 22100 12100 (2001) 2 (1934) 747 16 30 52 57 145 517 655 1390 3390
2025-06-05 05:00 24.09 23200 12100 (2001) 2 (1934) 747 16 30 52 57 145 517 655 1390 3390
2025-06-05 04:30 24.28 24100 12100 (2001) 2 (1934) 747 16 30 52 57 145 517 655 1390 3390
2025-06-05 04:00 24.43 24800 12100 (2001) 2 (1934) 747 16 30 52 57 145 517 655 1390 3390
2025-06-05 03:30 24.48 25000 12100 (2001) 2 (1934) 747 16 30 52 57 145 517 655 1390 3390
2025-06-05 03:00 25400 12100 (2001) 2 (1934) 747 16 30 52 57 145 517 655 1390 3390
2025-06-05 02:30 24.66 25900 12100 (2001) 2 (1934) 747 16 30 52 57 145 517 655 1390 3390
2025-06-05 02:00 24.71 26100 12100 (2001) 2 (1934) 747 16 30 52 57 145 517 655 1390 3390
2025-06-05 01:30 26100 12100 (2001) 2 (1934) 747 16 30 52 57 145 517 655 1390 3390
2025-06-05 01:00 24.70 26100 12100 (2001) 2 (1934) 747 16 30 52 57 145 517 655 1390 3390
2025-06-05 00:30 24.70 26100 12100 (2001) 2 (1934) 747 16 30 52 57 145 517 655 1390 3390
2025-06-05 00:00 24.62 25700 12100 (2001) 2 (1934) 747 16 30 52 57 145 517 655 1390 3390
2025-06-04 23:30 24.56 25400 12100 (2001) 2 (1934) 747 16 30 52 57 145 517 655 1390 3390
2025-06-04 23:00 24.52 25200 12100 (2001) 2 (1934) 747 16 30 52 57 145 517 655 1390 3390
2025-06-04 22:30 24.47 25000 13500 (2025) 3 (1934) 929 17 30 54 64 151 486 812 1910 5740
2025-06-04 22:00 24.37 24500 13500 (2025) 3 (1934) 929 17 30 54 64 151 486 812 1910 5740
2025-06-04 21:30 24.31 24200 13500 (2025) 3 (1934) 929 17 30 54 64 151 486 812 1910 5740
2025-06-04 21:00 24.20 23700 13500 (2025) 3 (1934) 929 17 30 54 64 151 486 812 1910 5740
2025-06-04 20:30 24.15 23500 13500 (2025) 3 (1934) 929 17 30 54 64 151 486 812 1910 5740
2025-06-04 20:00 23.97 22700 13500 (2025) 3 (1934) 929 17 30 54 64 151 486 812 1910 5740
2025-06-04 19:30 23.88 22300 13500 (2025) 3 (1934) 929 17 30 54 64 151 486 812 1910 5740
2025-06-04 19:00 23.78 21900 13500 (2025) 3 (1934) 929 17 30 54 64 151 486 812 1910 5740
2025-06-04 18:30 23.65 21300 13500 (2025) 3 (1934) 929 17 30 54 64 151 486 812 1910 5740
2025-06-04 18:00 23.52 20800 13500 (2025) 3 (1934) 929 17 30 54 64 151 486 812 1910 5740
2025-06-04 17:30 23.41 20300 13500 (2025) 3 (1934) 929 17 30 54 64 151 486 812 1910 5740
2025-06-04 17:00 23.24 19700 13500 (2025) 3 (1934) 929 17 30 54 64 151 486 812 1910 5740
2025-06-04 16:30 23.08 19000 13500 (2025) 3 (1934) 929 17 30 54 64 151 486 812 1910 5740
2025-06-04 16:00 22.91 18400 13500 (2025) 3 (1934) 929 17 30 54 64 151 486 812 1910 5740
2025-06-04 15:30 22.72 17700 13500 (2025) 3 (1934) 929 17 30 54 64 151 486 812 1910 5740
2025-06-04 15:00 22.50 16900 13500 (2025) 3 (1934) 929 17 30 54 64 151 486 812 1910 5740
2025-06-04 14:30 22.21 15900 13500 (2025) 3 (1934) 929 17 30 54 64 151 486 812 1910 5740
2025-06-04 14:00 22.04 15300 13500 (2025) 3 (1934) 929 17 30 54 64 151 486 812 1910 5740
2025-06-04 13:30 21.79 14600 13500 (2025) 3 (1934) 929 17 30 54 64 151 486 812 1910 5740
2025-06-04 13:00 21.53 14000 13500 (2025) 3 (1934) 929 17 30 54 64 151 486 812 1910 5740
2025-06-04 12:30 21.25 13500 13500 (2025) 3 (1934) 929 17 30 54 64 151 486 812 1910 5740
2025-06-04 12:00 20.93 13000 13500 (2025) 3 (1934) 929 17 30 54 64 151 486 812 1910 5740
2025-06-04 11:30 20.55 12400 13500 (2025) 3 (1934) 929 17 30 54 64 151 486 812 1910 5740
2025-06-04 11:00 20.18 11800 13500 (2025) 3 (1934) 929 17 30 54 64 151 486 812 1910 5740
2025-06-04 10:30 19.71 11100 13500 (2025) 3 (1934) 929 17 30 54 64 151 486 812 1910 5740
2025-06-04 10:00 19.23 10400 13500 (2025) 3 (1934) 929 17 30 54 64 151 486 812 1910 5740
2025-06-04 09:30 18.75 9900 13500 (2025) 3 (1934) 929 17 30 54 64 151 486 812 1910 5740
2025-06-04 09:00 18.19 9340 13500 (2025) 3 (1934) 929 17 30 54 64 151 486 812 1910 5740
2025-06-04 08:30 17.60 8760 13500 (2025) 3 (1934) 929 17 30 54 64 151 486 812 1910 5740
2025-06-04 08:00 16.93 8120 13500 (2025) 3 (1934) 929 17 30 54 64 151 486 812 1910 5740
2025-06-04 07:30 16.08 7330 13500 (2025) 3 (1934) 929 17 30 54 64 151 486 812 1910 5740
2025-06-04 07:00 14.99 6360 13500 (2025) 3 (1934) 929 17 30 54 64 151 486 812 1910 5740
2025-06-04 06:30 13.29 4920 13500 (2025) 3 (1934) 929 17 30 54 64 151 486 812 1910 5740
2025-06-04 06:00 10.73 3000 13500 (2025) 3 (1934) 929 17 30 54 64 151 486 812 1910 5740
2025-06-04 05:30 8.23 1140 13500 (2025) 3 (1934) 929 17 30 54 64 151 486 812 1910 5740
2025-06-04 05:00 5.84 81 13500 (2025) 3 (1934) 929 17 30 54 64 151 486 812 1910 5740
2025-06-04 04:30 5.83 79 13500 (2025) 3 (1934) 929 17 30 54 64 151 486 812 1910 5740
2025-06-04 04:00 5.82 77 13500 (2025) 3 (1934) 929 17 30 54 64 151 486 812 1910 5740
2025-06-04 03:30 5.82 77 13500 (2025) 3 (1934) 929 17 30 54 64 151 486 812 1910 5740
2025-06-04 03:00 77 13500 (2025) 3 (1934) 929 17 30 54 64 151 486 812 1910 5740
2025-06-04 02:30 5.80 74 13500 (2025) 3 (1934) 929 17 30 54 64 151 486 812 1910 5740
2025-06-04 02:00 5.78 71 13500 (2025) 3 (1934) 929 17 30 54 64 151 486 812 1910 5740
2025-06-04 01:30 5.82 77 13500 (2025) 3 (1934) 929 17 30 54 64 151 486 812 1910 5740
2025-06-04 01:00 5.77 69 13500 (2025) 3 (1934) 929 17 30 54 64 151 486 812 1910 5740
2025-06-04 00:30 69 13500 (2025) 3 (1934) 929 17 30 54 64 151 486 812 1910 5740
2025-06-04 00:00 5.77 69 13500 (2025) 3 (1934) 929 17 30 54 64 151 486 812 1910 5740
2025-06-03 23:30 5.77 69 13500 (2025) 3 (1934) 929 17 30 54 64 151 486 812 1910 5740
2025-06-03 23:00 5.76 68 13500 (2025) 3 (1934) 929 17 30 54 64 151 486 812 1910 5740
2025-06-03 22:30 5.70 59 11700 (1949) 2 (1934) 617 19 30 49 62 163 432 614 1530 2480
2025-06-03 22:00 5.77 69 11700 (1949) 2 (1934) 617 19 30 49 62 163 432 614 1530 2480
2025-06-03 21:30 5.74 65 11700 (1949) 2 (1934) 617 19 30 49 62 163 432 614 1530 2480
2025-06-03 21:00 5.73 63 11700 (1949) 2 (1934) 617 19 30 49 62 163 432 614 1530 2480
2025-06-03 20:30 5.74 65 11700 (1949) 2 (1934) 617 19 30 49 62 163 432 614 1530 2480
2025-06-03 20:00 5.77 69 11700 (1949) 2 (1934) 617 19 30 49 62 163 432 614 1530 2480
2025-06-03 19:30 5.77 69 11700 (1949) 2 (1934) 617 19 30 49 62 163 432 614 1530 2480
2025-06-03 19:00 5.76 68 11700 (1949) 2 (1934) 617 19 30 49 62 163 432 614 1530 2480
2025-06-03 18:30 5.77 69 11700 (1949) 2 (1934) 617 19 30 49 62 163 432 614 1530 2480
2025-06-03 18:00 5.75 66 11700 (1949) 2 (1934) 617 19 30 49 62 163 432 614 1530 2480
2025-06-03 17:30 5.73 63 11700 (1949) 2 (1934) 617 19 30 49 62 163 432 614 1530 2480
2025-06-03 17:00 5.72 62 11700 (1949) 2 (1934) 617 19 30 49 62 163 432 614 1530 2480
2025-06-03 16:30 5.77 69 11700 (1949) 2 (1934) 617 19 30 49 62 163 432 614 1530 2480
2025-06-03 16:00 5.77 69 11700 (1949) 2 (1934) 617 19 30 49 62 163 432 614 1530 2480
2025-06-03 15:30 5.78 71 11700 (1949) 2 (1934) 617 19 30 49 62 163 432 614 1530 2480
2025-06-03 15:00 5.77 69 11700 (1949) 2 (1934) 617 19 30 49 62 163 432 614 1530 2480
2025-06-03 14:30 5.75 66 11700 (1949) 2 (1934) 617 19 30 49 62 163 432 614 1530 2480
2025-06-03 14:00 5.78 71 11700 (1949) 2 (1934) 617 19 30 49 62 163 432 614 1530 2480
2025-06-03 13:30 5.79 72 11700 (1949) 2 (1934) 617 19 30 49 62 163 432 614 1530 2480
2025-06-03 13:00 5.78 71 11700 (1949) 2 (1934) 617 19 30 49 62 163 432 614 1530 2480
2025-06-03 12:30 5.78 71 11700 (1949) 2 (1934) 617 19 30 49 62 163 432 614 1530 2480
2025-06-03 12:00 5.78 71 11700 (1949) 2 (1934) 617 19 30 49 62 163 432 614 1530 2480
2025-06-03 11:30 5.76 68 11700 (1949) 2 (1934) 617 19 30 49 62 163 432 614 1530 2480
2025-06-03 11:00 5.74 65 11700 (1949) 2 (1934) 617 19 30 49 62 163 432 614 1530 2480
2025-06-03 10:30 5.78 71 11700 (1949) 2 (1934) 617 19 30 49 62 163 432 614 1530 2480
2025-06-03 10:00 5.79 72 11700 (1949) 2 (1934) 617 19 30 49 62 163 432 614 1530 2480
2025-06-03 09:30 5.72 62 11700 (1949) 2 (1934) 617 19 30 49 62 163 432 614 1530 2480
2025-06-03 09:00 5.78 71 11700 (1949) 2 (1934) 617 19 30 49 62 163 432 614 1530 2480
2025-06-03 08:30 5.79 72 11700 (1949) 2 (1934) 617 19 30 49 62 163 432 614 1530 2480
2025-06-03 08:00 5.79 72 11700 (1949) 2 (1934) 617 19 30 49 62 163 432 614 1530 2480
2025-06-03 07:30 5.79 72 11700 (1949) 2 (1934) 617 19 30 49 62 163 432 614 1530 2480
2025-06-03 07:00 5.80 74 11700 (1949) 2 (1934) 617 19 30 49 62 163 432 614 1530 2480
2025-06-03 06:30 5.80 74 11700 (1949) 2 (1934) 617 19 30 49 62 163 432 614 1530 2480
2025-06-03 06:00 5.80 74 11700 (1949) 2 (1934) 617 19 30 49 62 163 432 614 1530 2480
2025-06-03 05:30 5.79 72 11700 (1949) 2 (1934) 617 19 30 49 62 163 432 614 1530 2480
2025-06-03 05:00 5.80 74 11700 (1949) 2 (1934) 617 19 30 49 62 163 432 614 1530 2480
2025-06-03 04:30 5.80 74 11700 (1949) 2 (1934) 617 19 30 49 62 163 432 614 1530 2480
2025-06-03 04:00 5.80 74 11700 (1949) 2 (1934) 617 19 30 49 62 163 432 614 1530 2480
2025-06-03 03:30 5.80 74 11700 (1949) 2 (1934) 617 19 30 49 62 163 432 614 1530 2480
2025-06-03 03:00 5.80 74 11700 (1949) 2 (1934) 617 19 30 49 62 163 432 614 1530 2480
2025-06-03 02:30 5.80 74 11700 (1949) 2 (1934) 617 19 30 49 62 163 432 614 1530 2480
2025-06-03 02:00 5.80 74 11700 (1949) 2 (1934) 617 19 30 49 62 163 432 614 1530 2480
2025-06-03 01:30 5.80 74 11700 (1949) 2 (1934) 617 19 30 49 62 163 432 614 1530 2480
2025-06-03 01:00 5.80 74 11700 (1949) 2 (1934) 617 19 30 49 62 163 432 614 1530 2480
2025-06-03 00:30 5.80 74 11700 (1949) 2 (1934) 617 19 30 49 62 163 432 614 1530 2480
2025-06-03 00:00 5.80 74 11700 (1949) 2 (1934) 617 19 30 49 62 163 432 614 1530 2480
2025-06-02 23:30 5.81 76 11700 (1949) 2 (1934) 617 19 30 49 62 163 432 614 1530 2480
2025-06-02 23:00 5.81 76 11700 (1949) 2 (1934) 617 19 30 49 62 163 432 614 1530 2480
2025-06-02 22:30 5.81 76 23600 (1970) 3 (1934) 847 20 32 50 63 157 501 644 1350 4040
2025-06-02 22:00 5.81 76 23600 (1970) 3 (1934) 847 20 32 50 63 157 501 644 1350 4040
2025-06-02 21:30 5.81 76 23600 (1970) 3 (1934) 847 20 32 50 63 157 501 644 1350 4040
2025-06-02 21:00 5.81 76 23600 (1970) 3 (1934) 847 20 32 50 63 157 501 644 1350 4040
2025-06-02 20:30 5.81 76 23600 (1970) 3 (1934) 847 20 32 50 63 157 501 644 1350 4040
2025-06-02 20:00 5.81 76 23600 (1970) 3 (1934) 847 20 32 50 63 157 501 644 1350 4040
2025-06-02 19:30 5.81 76 23600 (1970) 3 (1934) 847 20 32 50 63 157 501 644 1350 4040
2025-06-02 19:00 5.81 76 23600 (1970) 3 (1934) 847 20 32 50 63 157 501 644 1350 4040
2025-06-02 18:30 5.81 76 23600 (1970) 3 (1934) 847 20 32 50 63 157 501 644 1350 4040
2025-06-02 18:00 5.81 76 23600 (1970) 3 (1934) 847 20 32 50 63 157 501 644 1350 4040
2025-06-02 17:30 5.81 76 23600 (1970) 3 (1934) 847 20 32 50 63 157 501 644 1350 4040
2025-06-02 17:00 5.80 74 23600 (1970) 3 (1934) 847 20 32 50 63 157 501 644 1350 4040
2025-06-02 16:30 5.81 76 23600 (1970) 3 (1934) 847 20 32 50 63 157 501 644 1350 4040
2025-06-02 16:00 5.82 77 23600 (1970) 3 (1934) 847 20 32 50 63 157 501 644 1350 4040
2025-06-02 15:30 5.82 77 23600 (1970) 3 (1934) 847 20 32 50 63 157 501 644 1350 4040
2025-06-02 15:00 5.82 77 23600 (1970) 3 (1934) 847 20 32 50 63 157 501 644 1350 4040
2025-06-02 14:30 5.81 76 23600 (1970) 3 (1934) 847 20 32 50 63 157 501 644 1350 4040
2025-06-02 14:00 5.82 77 23600 (1970) 3 (1934) 847 20 32 50 63 157 501 644 1350 4040
2025-06-02 13:30 5.82 77 23600 (1970) 3 (1934) 847 20 32 50 63 157 501 644 1350 4040
2025-06-02 13:00 5.82 77 23600 (1970) 3 (1934) 847 20 32 50 63 157 501 644 1350 4040
2025-06-02 12:30 5.82 77 23600 (1970) 3 (1934) 847 20 32 50 63 157 501 644 1350 4040
2025-06-02 12:00 5.76 68 23600 (1970) 3 (1934) 847 20 32 50 63 157 501 644 1350 4040
2025-06-02 11:30 5.76 68 23600 (1970) 3 (1934) 847 20 32 50 63 157 501 644 1350 4040
2025-06-02 11:00 5.78 71 23600 (1970) 3 (1934) 847 20 32 50 63 157 501 644 1350 4040
2025-06-02 10:30 5.81 49 23600 (1970) 3 (1934) 847 20 32 50 63 157 501 644 1350 4040
2025-06-02 10:00 5.76 43 23600 (1970) 3 (1934) 847 20 32 50 63 157 501 644 1350 4040
2025-06-02 09:30 5.83 52 23600 (1970) 3 (1934) 847 20 32 50 63 157 501 644 1350 4040
2025-06-02 09:00 5.79 47 23600 (1970) 3 (1934) 847 20 32 50 63 157 501 644 1350 4040
2025-06-02 08:30 5.72 39 23600 (1970) 3 (1934) 847 20 32 50 63 157 501 644 1350 4040
2025-06-02 08:00 5.74 41 23600 (1970) 3 (1934) 847 20 32 50 63 157 501 644 1350 4040
2025-06-02 07:30 5.75 42 23600 (1970) 3 (1934) 847 20 32 50 63 157 501 644 1350 4040
2025-06-02 07:00 5.75 42 23600 (1970) 3 (1934) 847 20 32 50 63 157 501 644 1350 4040
2025-06-02 06:30 5.75 42 23600 (1970) 3 (1934) 847 20 32 50 63 157 501 644 1350 4040
2025-06-02 06:00 5.75 42 23600 (1970) 3 (1934) 847 20 32 50 63 157 501 644 1350 4040
2025-06-02 05:30 5.75 42 23600 (1970) 3 (1934) 847 20 32 50 63 157 501 644 1350 4040
2025-06-02 05:00 5.75 42 23600 (1970) 3 (1934) 847 20 32 50 63 157 501 644 1350 4040
2025-06-02 04:30 5.75 42 23600 (1970) 3 (1934) 847 20 32 50 63 157 501 644 1350 4040
2025-06-02 04:00 5.75 42 23600 (1970) 3 (1934) 847 20 32 50 63 157 501 644 1350 4040
2025-06-02 03:30 5.75 42 23600 (1970) 3 (1934) 847 20 32 50 63 157 501 644 1350 4040
2025-06-02 03:00 5.75 42 23600 (1970) 3 (1934) 847 20 32 50 63 157 501 644 1350 4040
2025-06-02 02:30 5.75 42 23600 (1970) 3 (1934) 847 20 32 50 63 157 501 644 1350 4040
2025-06-02 02:00 5.76 43 23600 (1970) 3 (1934) 847 20 32 50 63 157 501 644 1350 4040
2025-06-02 01:30 5.76 43 23600 (1970) 3 (1934) 847 20 32 50 63 157 501 644 1350 4040
2025-06-02 01:00 5.76 43 23600 (1970) 3 (1934) 847 20 32 50 63 157 501 644 1350 4040
2025-06-02 00:30 5.76 43 23600 (1970) 3 (1934) 847 20 32 50 63 157 501 644 1350 4040
2025-06-02 00:00 43 23600 (1970) 3 (1934) 847 20 32 50 63 157 501 644 1350 4040
2025-06-01 23:30 5.76 43 23600 (1970) 3 (1934) 847 20 32 50 63 157 501 644 1350 4040
2025-06-01 23:00 5.76 43 23600 (1970) 3 (1934) 847 20 32 50 63 157 501 644 1350 4040
2025-06-01 22:30 5.76 43 37400 (2013) 3 (1934) 1070 20 26 53 64 163 472 601 2110 4570
2025-06-01 22:00 5.76 43 37400 (2013) 3 (1934) 1070 20 26 53 64 163 472 601 2110 4570
2025-06-01 21:30 5.76 43 37400 (2013) 3 (1934) 1070 20 26 53 64 163 472 601 2110 4570
2025-06-01 21:00 5.76 43 37400 (2013) 3 (1934) 1070 20 26 53 64 163 472 601 2110 4570
2025-06-01 20:30 5.76 43 37400 (2013) 3 (1934) 1070 20 26 53 64 163 472 601 2110 4570
2025-06-01 20:00 5.76 43 37400 (2013) 3 (1934) 1070 20 26 53 64 163 472 601 2110 4570
2025-06-01 19:30 5.76 43 37400 (2013) 3 (1934) 1070 20 26 53 64 163 472 601 2110 4570
2025-06-01 19:00 5.77 45 37400 (2013) 3 (1934) 1070 20 26 53 64 163 472 601 2110 4570
2025-06-01 18:30 5.77 45 37400 (2013) 3 (1934) 1070 20 26 53 64 163 472 601 2110 4570
2025-06-01 18:00 5.77 45 37400 (2013) 3 (1934) 1070 20 26 53 64 163 472 601 2110 4570
2025-06-01 17:30 5.77 45 37400 (2013) 3 (1934) 1070 20 26 53 64 163 472 601 2110 4570
2025-06-01 17:00 5.77 45 37400 (2013) 3 (1934) 1070 20 26 53 64 163 472 601 2110 4570
2025-06-01 16:30 5.77 45 37400 (2013) 3 (1934) 1070 20 26 53 64 163 472 601 2110 4570
2025-06-01 16:00 5.77 45 37400 (2013) 3 (1934) 1070 20 26 53 64 163 472 601 2110 4570
2025-06-01 15:30 5.77 45 37400 (2013) 3 (1934) 1070 20 26 53 64 163 472 601 2110 4570
2025-06-01 15:00 5.78 46 37400 (2013) 3 (1934) 1070 20 26 53 64 163 472 601 2110 4570
2025-06-01 14:30 5.78 46 37400 (2013) 3 (1934) 1070 20 26 53 64 163 472 601 2110 4570
2025-06-01 14:00 5.78 46 37400 (2013) 3 (1934) 1070 20 26 53 64 163 472 601 2110 4570
2025-06-01 13:30 5.78 46 37400 (2013) 3 (1934) 1070 20 26 53 64 163 472 601 2110 4570
2025-06-01 13:00 5.78 46 37400 (2013) 3 (1934) 1070 20 26 53 64 163 472 601 2110 4570
2025-06-01 12:30 5.78 46 37400 (2013) 3 (1934) 1070 20 26 53 64 163 472 601 2110 4570
2025-06-01 12:00 5.78 46 37400 (2013) 3 (1934) 1070 20 26 53 64 163 472 601 2110 4570
2025-06-01 11:30 5.78 46 37400 (2013) 3 (1934) 1070 20 26 53 64 163 472 601 2110 4570
2025-06-01 11:00 5.78 46 37400 (2013) 3 (1934) 1070 20 26 53 64 163 472 601 2110 4570
2025-06-01 10:30 5.78 46 37400 (2013) 3 (1934) 1070 20 26 53 64 163 472 601 2110 4570
2025-06-01 10:00 5.78 46 37400 (2013) 3 (1934) 1070 20 26 53 64 163 472 601 2110 4570
2025-06-01 09:30 5.74 41 37400 (2013) 3 (1934) 1070 20 26 53 64 163 472 601 2110 4570
2025-06-01 09:00 5.77 45 37400 (2013) 3 (1934) 1070 20 26 53 64 163 472 601 2110 4570
2025-06-01 08:30 5.75 42 37400 (2013) 3 (1934) 1070 20 26 53 64 163 472 601 2110 4570
2025-06-01 08:00 5.79 47 37400 (2013) 3 (1934) 1070 20 26 53 64 163 472 601 2110 4570
2025-06-01 07:30 5.79 47 37400 (2013) 3 (1934) 1070 20 26 53 64 163 472 601 2110 4570
2025-06-01 07:00 5.79 47 37400 (2013) 3 (1934) 1070 20 26 53 64 163 472 601 2110 4570
2025-06-01 06:30 5.80 48 37400 (2013) 3 (1934) 1070 20 26 53 64 163 472 601 2110 4570
2025-06-01 06:00 5.80 48 37400 (2013) 3 (1934) 1070 20 26 53 64 163 472 601 2110 4570
2025-06-01 05:30 5.80 48 37400 (2013) 3 (1934) 1070 20 26 53 64 163 472 601 2110 4570
2025-06-01 05:00 5.80 48 37400 (2013) 3 (1934) 1070 20 26 53 64 163 472 601 2110 4570
2025-06-01 04:30 5.80 48 37400 (2013) 3 (1934) 1070 20 26 53 64 163 472 601 2110 4570
2025-06-01 04:00 5.80 48 37400 (2013) 3 (1934) 1070 20 26 53 64 163 472 601 2110 4570
2025-06-01 03:30 5.80 48 37400 (2013) 3 (1934) 1070 20 26 53 64 163 472 601 2110 4570
2025-06-01 03:00 5.80 48 37400 (2013) 3 (1934) 1070 20 26 53 64 163 472 601 2110 4570
2025-06-01 02:30 5.80 48 37400 (2013) 3 (1934) 1070 20 26 53 64 163 472 601 2110 4570
2025-06-01 02:00 5.80 48 37400 (2013) 3 (1934) 1070 20 26 53 64 163 472 601 2110 4570
2025-06-01 01:30 5.80 48 37400 (2013) 3 (1934) 1070 20 26 53 64 163 472 601 2110 4570
2025-06-01 01:00 5.80 48 37400 (2013) 3 (1934) 1070 20 26 53 64 163 472 601 2110 4570
2025-06-01 00:30 5.80 48 37400 (2013) 3 (1934) 1070 20 26 53 64 163 472 601 2110 4570
2025-06-01 00:00 5.80 48 37400 (2013) 3 (1934) 1070 20 26 53 64 163 472 601 2110 4570
2025-05-31 23:30 5.80 48 37400 (2013) 3 (1934) 1070 20 26 53 64 163 472 601 2110 4570
2025-05-31 23:00 5.81 49 37400 (2013) 3 (1934) 1070 20 26 53 64 163 472 601 2110 4570
2025-05-31 22:30 5.81 49 15600 (2013) 2 (1934) 688 19 27 53 68 179 465 643 964 3200
2025-05-31 22:00 5.81 49 15600 (2013) 2 (1934) 688 19 27 53 68 179 465 643 964 3200
2025-05-31 21:30 5.81 49 15600 (2013) 2 (1934) 688 19 27 53 68 179 465 643 964 3200
2025-05-31 21:00 5.81 49 15600 (2013) 2 (1934) 688 19 27 53 68 179 465 643 964 3200
2025-05-31 20:30 5.81 49 15600 (2013) 2 (1934) 688 19 27 53 68 179 465 643 964 3200
2025-05-31 20:00 5.81 49 15600 (2013) 2 (1934) 688 19 27 53 68 179 465 643 964 3200
2025-05-31 19:30 5.81 49 15600 (2013) 2 (1934) 688 19 27 53 68 179 465 643 964 3200
2025-05-31 19:00 5.81 49 15600 (2013) 2 (1934) 688 19 27 53 68 179 465 643 964 3200
2025-05-31 18:30 5.79 47 15600 (2013) 2 (1934) 688 19 27 53 68 179 465 643 964 3200
2025-05-31 18:00 5.77 45 15600 (2013) 2 (1934) 688 19 27 53 68 179 465 643 964 3200
2025-05-31 17:30 5.82 51 15600 (2013) 2 (1934) 688 19 27 53 68 179 465 643 964 3200
2025-05-31 17:00 5.76 43 15600 (2013) 2 (1934) 688 19 27 53 68 179 465 643 964 3200
2025-05-31 16:30 5.79 47 15600 (2013) 2 (1934) 688 19 27 53 68 179 465 643 964 3200
2025-05-31 16:00 5.82 51 15600 (2013) 2 (1934) 688 19 27 53 68 179 465 643 964 3200
2025-05-31 15:30 5.82 51 15600 (2013) 2 (1934) 688 19 27 53 68 179 465 643 964 3200
2025-05-31 14:30 5.82 51 15600 (2013) 2 (1934) 688 19 27 53 68 179 465 643 964 3200
2025-05-31 14:00 5.80 48 15600 (2013) 2 (1934) 688 19 27 53 68 179 465 643 964 3200
2025-05-31 13:30 5.80 48 15600 (2013) 2 (1934) 688 19 27 53 68 179 465 643 964 3200
2025-05-31 13:00 5.83 52 15600 (2013) 2 (1934) 688 19 27 53 68 179 465 643 964 3200
2025-05-31 12:30 5.83 52 15600 (2013) 2 (1934) 688 19 27 53 68 179 465 643 964 3200
2025-05-31 12:00 5.80 48 15600 (2013) 2 (1934) 688 19 27 53 68 179 465 643 964 3200
2025-05-31 11:30 5.83 52 15600 (2013) 2 (1934) 688 19 27 53 68 179 465 643 964 3200
2025-05-31 11:00 5.80 48 15600 (2013) 2 (1934) 688 19 27 53 68 179 465 643 964 3200
2025-05-31 10:30 5.83 52 15600 (2013) 2 (1934) 688 19 27 53 68 179 465 643 964 3200
2025-05-31 10:00 5.83 52 15600 (2013) 2 (1934) 688 19 27 53 68 179 465 643 964 3200
2025-05-31 09:30 5.83 52 15600 (2013) 2 (1934) 688 19 27 53 68 179 465 643 964 3200
2025-05-31 09:00 5.84 53 15600 (2013) 2 (1934) 688 19 27 53 68 179 465 643 964 3200
2025-05-31 08:30 5.84 53 15600 (2013) 2 (1934) 688 19 27 53 68 179 465 643 964 3200
2025-05-31 08:00 5.84 53 15600 (2013) 2 (1934) 688 19 27 53 68 179 465 643 964 3200
2025-05-31 07:30 5.84 53 15600 (2013) 2 (1934) 688 19 27 53 68 179 465 643 964 3200
2025-05-31 07:00 5.85 55 15600 (2013) 2 (1934) 688 19 27 53 68 179 465 643 964 3200
2025-05-31 06:30 5.85 55 15600 (2013) 2 (1934) 688 19 27 53 68 179 465 643 964 3200
2025-05-31 06:00 5.85 55 15600 (2013) 2 (1934) 688 19 27 53 68 179 465 643 964 3200
2025-05-31 05:30 5.85 55 15600 (2013) 2 (1934) 688 19 27 53 68 179 465 643 964 3200
2025-05-31 05:00 5.85 55 15600 (2013) 2 (1934) 688 19 27 53 68 179 465 643 964 3200
2025-05-31 04:30 5.85 55 15600 (2013) 2 (1934) 688 19 27 53 68 179 465 643 964 3200
2025-05-31 04:00 5.85 55 15600 (2013) 2 (1934) 688 19 27 53 68 179 465 643 964 3200
2025-05-31 03:30 5.85 55 15600 (2013) 2 (1934) 688 19 27 53 68 179 465 643 964 3200
2025-05-31 03:00 5.85 55 15600 (2013) 2 (1934) 688 19 27 53 68 179 465 643 964 3200
2025-05-31 02:30 5.85 55 15600 (2013) 2 (1934) 688 19 27 53 68 179 465 643 964 3200
2025-05-31 02:00 5.85 55 15600 (2013) 2 (1934) 688 19 27 53 68 179 465 643 964 3200
2025-05-31 01:30 5.85 55 15600 (2013) 2 (1934) 688 19 27 53 68 179 465 643 964 3200
2025-05-31 01:00 5.86 56 15600 (2013) 2 (1934) 688 19 27 53 68 179 465 643 964 3200
2025-05-31 00:30 5.85 55 15600 (2013) 2 (1934) 688 19 27 53 68 179 465 643 964 3200
2025-05-31 00:00 5.85 55 15600 (2013) 2 (1934) 688 19 27 53 68 179 465 643 964 3200
2025-05-30 23:30 5.86 56 15600 (2013) 2 (1934) 688 19 27 53 68 179 465 643 964 3200
2025-05-30 23:00 5.86 56 15600 (2013) 2 (1934) 688 19 27 53 68 179 465 643 964 3200
2025-05-30 22:30 5.86 56 6090 (2015) 4 (1934) 503 22 28 50 65 164 611 761 1460 2000
2025-05-30 22:00 5.86 56 6090 (2015) 4 (1934) 503 22 28 50 65 164 611 761 1460 2000
2025-05-30 21:30 5.86 56 6090 (2015) 4 (1934) 503 22 28 50 65 164 611 761 1460 2000
2025-05-30 21:00 5.86 56 6090 (2015) 4 (1934) 503 22 28 50 65 164 611 761 1460 2000
2025-05-30 20:30 5.86 56 6090 (2015) 4 (1934) 503 22 28 50 65 164 611 761 1460 2000
2025-05-30 20:00 5.86 56 6090 (2015) 4 (1934) 503 22 28 50 65 164 611 761 1460 2000
2025-05-30 19:30 5.86 56 6090 (2015) 4 (1934) 503 22 28 50 65 164 611 761 1460 2000
2025-05-30 19:00 5.87 57 6090 (2015) 4 (1934) 503 22 28 50 65 164 611 761 1460 2000
2025-05-30 18:30 5.86 56 6090 (2015) 4 (1934) 503 22 28 50 65 164 611 761 1460 2000
2025-05-30 18:00 5.81 49 6090 (2015) 4 (1934) 503 22 28 50 65 164 611 761 1460 2000
2025-05-30 17:30 5.85 55 6090 (2015) 4 (1934) 503 22 28 50 65 164 611 761 1460 2000
2025-05-30 17:00 5.80 48 6090 (2015) 4 (1934) 503 22 28 50 65 164 611 761 1460 2000
2025-05-30 16:30 5.82 51 6090 (2015) 4 (1934) 503 22 28 50 65 164 611 761 1460 2000
2025-05-30 16:00 5.84 53 6090 (2015) 4 (1934) 503 22 28 50 65 164 611 761 1460 2000
2025-05-30 15:30 5.82 51 6090 (2015) 4 (1934) 503 22 28 50 65 164 611 761 1460 2000
2025-05-30 15:00 5.81 49 6090 (2015) 4 (1934) 503 22 28 50 65 164 611 761 1460 2000
2025-05-30 14:30 5.83 52 6090 (2015) 4 (1934) 503 22 28 50 65 164 611 761 1460 2000
2025-05-30 14:00 5.84 53 6090 (2015) 4 (1934) 503 22 28 50 65 164 611 761 1460 2000
2025-05-30 13:30 5.84 53 6090 (2015) 4 (1934) 503 22 28 50 65 164 611 761 1460 2000
2025-05-30 13:00 5.84 53 6090 (2015) 4 (1934) 503 22 28 50 65 164 611 761 1460 2000
2025-05-30 12:30 5.83 52 6090 (2015) 4 (1934) 503 22 28 50 65 164 611 761 1460 2000
2025-05-30 12:00 5.83 52 6090 (2015) 4 (1934) 503 22 28 50 65 164 611 761 1460 2000
2025-05-30 11:30 5.81 49 6090 (2015) 4 (1934) 503 22 28 50 65 164 611 761 1460 2000
2025-05-30 11:00 5.89 60 6090 (2015) 4 (1934) 503 22 28 50 65 164 611 761 1460 2000
2025-05-30 10:30 5.83 52 6090 (2015) 4 (1934) 503 22 28 50 65 164 611 761 1460 2000
2025-05-30 10:00 5.82 51 6090 (2015) 4 (1934) 503 22 28 50 65 164 611 761 1460 2000
2025-05-30 09:30 5.84 53 6090 (2015) 4 (1934) 503 22 28 50 65 164 611 761 1460 2000
2025-05-30 09:00 5.85 55 6090 (2015) 4 (1934) 503 22 28 50 65 164 611 761 1460 2000
2025-05-30 08:30 5.87 57 6090 (2015) 4 (1934) 503 22 28 50 65 164 611 761 1460 2000
2025-05-30 08:00 5.87 57 6090 (2015) 4 (1934) 503 22 28 50 65 164 611 761 1460 2000
2025-05-30 07:30 5.86 56 6090 (2015) 4 (1934) 503 22 28 50 65 164 611 761 1460 2000
2025-05-30 07:00 5.90 62 6090 (2015) 4 (1934) 503 22 28 50 65 164 611 761 1460 2000
2025-05-30 06:30 5.86 56 6090 (2015) 4 (1934) 503 22 28 50 65 164 611 761 1460 2000
2025-05-30 06:00 5.90 62 6090 (2015) 4 (1934) 503 22 28 50 65 164 611 761 1460 2000
2025-05-30 05:30 5.90 62 6090 (2015) 4 (1934) 503 22 28 50 65 164 611 761 1460 2000
2025-05-30 05:00 5.90 62 6090 (2015) 4 (1934) 503 22 28 50 65 164 611 761 1460 2000
2025-05-30 04:30 5.90 62 6090 (2015) 4 (1934) 503 22 28 50 65 164 611 761 1460 2000
2025-05-30 04:00 5.90 62 6090 (2015) 4 (1934) 503 22 28 50 65 164 611 761 1460 2000
2025-05-30 03:30 5.90 62 6090 (2015) 4 (1934) 503 22 28 50 65 164 611 761 1460 2000
2025-05-30 03:00 5.91 63 6090 (2015) 4 (1934) 503 22 28 50 65 164 611 761 1460 2000
2025-05-30 02:30 5.91 63 6090 (2015) 4 (1934) 503 22 28 50 65 164 611 761 1460 2000
2025-05-30 02:00 5.91 63 6090 (2015) 4 (1934) 503 22 28 50 65 164 611 761 1460 2000
2025-05-30 01:30 5.91 63 6090 (2015) 4 (1934) 503 22 28 50 65 164 611 761 1460 2000
2025-05-30 01:00 5.91 63 6090 (2015) 4 (1934) 503 22 28 50 65 164 611 761 1460 2000
2025-05-30 00:30 5.91 63 6090 (2015) 4 (1934) 503 22 28 50 65 164 611 761 1460 2000
2025-05-30 00:00 5.91 63 6090 (2015) 4 (1934) 503 22 28 50 65 164 611 761 1460 2000
2025-05-29 23:30 5.90 62 6090 (2015) 4 (1934) 503 22 28 50 65 164 611 761 1460 2000
2025-05-29 23:00 5.91 63 6090 (2015) 4 (1934) 503 22 28 50 65 164 611 761 1460 2000
2025-05-29 22:30 5.90 62 11300 (1989) 3 (1934) 718 22 30 51 63 187 724 956 1870 2980
2025-05-29 22:00 5.90 62 11300 (1989) 3 (1934) 718 22 30 51 63 187 724 956 1870 2980
2025-05-29 21:30 5.90 62 11300 (1989) 3 (1934) 718 22 30 51 63 187 724 956 1870 2980
2025-05-29 21:00 5.90 62 11300 (1989) 3 (1934) 718 22 30 51 63 187 724 956 1870 2980
2025-05-29 20:30 5.90 62 11300 (1989) 3 (1934) 718 22 30 51 63 187 724 956 1870 2980
2025-05-29 20:00 5.90 62 11300 (1989) 3 (1934) 718 22 30 51 63 187 724 956 1870 2980
2025-05-29 19:30 5.90 62 11300 (1989) 3 (1934) 718 22 30 51 63 187 724 956 1870 2980
2025-05-29 19:00 5.89 60 11300 (1989) 3 (1934) 718 22 30 51 63 187 724 956 1870 2980
2025-05-29 18:30 5.89 60 11300 (1989) 3 (1934) 718 22 30 51 63 187 724 956 1870 2980
2025-05-29 18:00 5.88 59 11300 (1989) 3 (1934) 718 22 30 51 63 187 724 956 1870 2980
2025-05-29 17:30 5.88 59 11300 (1989) 3 (1934) 718 22 30 51 63 187 724 956 1870 2980
2025-05-29 17:00 5.87 57 11300 (1989) 3 (1934) 718 22 30 51 63 187 724 956 1870 2980
2025-05-29 16:30 5.88 59 11300 (1989) 3 (1934) 718 22 30 51 63 187 724 956 1870 2980
2025-05-29 16:00 5.88 59 11300 (1989) 3 (1934) 718 22 30 51 63 187 724 956 1870 2980
2025-05-29 15:30 5.88 59 11300 (1989) 3 (1934) 718 22 30 51 63 187 724 956 1870 2980
2025-05-29 15:00 5.88 59 11300 (1989) 3 (1934) 718 22 30 51 63 187 724 956 1870 2980
2025-05-29 14:30 5.88 59 11300 (1989) 3 (1934) 718 22 30 51 63 187 724 956 1870 2980
2025-05-29 14:00 5.88 59 11300 (1989) 3 (1934) 718 22 30 51 63 187 724 956 1870 2980
2025-05-29 13:30 5.89 60 11300 (1989) 3 (1934) 718 22 30 51 63 187 724 956 1870 2980
2025-05-29 13:00 5.89 60 11300 (1989) 3 (1934) 718 22 30 51 63 187 724 956 1870 2980
2025-05-29 12:30 5.89 60 11300 (1989) 3 (1934) 718 22 30 51 63 187 724 956 1870 2980
2025-05-29 12:00 5.89 60 11300 (1989) 3 (1934) 718 22 30 51 63 187 724 956 1870 2980
2025-05-29 11:30 5.89 60 11300 (1989) 3 (1934) 718 22 30 51 63 187 724 956 1870 2980
2025-05-29 11:00 5.89 60 11300 (1989) 3 (1934) 718 22 30 51 63 187 724 956 1870 2980
2025-05-29 10:30 5.89 60 11300 (1989) 3 (1934) 718 22 30 51 63 187 724 956 1870 2980
2025-05-29 10:00 5.89 60 11300 (1989) 3 (1934) 718 22 30 51 63 187 724 956 1870 2980
2025-05-29 09:30 5.89 60 11300 (1989) 3 (1934) 718 22 30 51 63 187 724 956 1870 2980
2025-05-29 09:00 5.89 60 11300 (1989) 3 (1934) 718 22 30 51 63 187 724 956 1870 2980
2025-05-29 08:30 5.89 60 11300 (1989) 3 (1934) 718 22 30 51 63 187 724 956 1870 2980
2025-05-29 08:00 5.90 62 11300 (1989) 3 (1934) 718 22 30 51 63 187 724 956 1870 2980
2025-05-29 07:30 5.90 62 11300 (1989) 3 (1934) 718 22 30 51 63 187 724 956 1870 2980
2025-05-29 07:00 5.90 62 11300 (1989) 3 (1934) 718 22 30 51 63 187 724 956 1870 2980
2025-05-29 06:30 5.90 62 11300 (1989) 3 (1934) 718 22 30 51 63 187 724 956 1870 2980
2025-05-29 06:00 5.90 62 11300 (1989) 3 (1934) 718 22 30 51 63 187 724 956 1870 2980
2025-05-29 05:30 5.90 62 11300 (1989) 3 (1934) 718 22 30 51 63 187 724 956 1870 2980
2025-05-29 05:00 5.90 62 11300 (1989) 3 (1934) 718 22 30 51 63 187 724 956 1870 2980
2025-05-29 04:30 5.90 62 11300 (1989) 3 (1934) 718 22 30 51 63 187 724 956 1870 2980
2025-05-29 04:00 5.90 62 11300 (1989) 3 (1934) 718 22 30 51 63 187 724 956 1870 2980
2025-05-29 03:30 5.90 62 11300 (1989) 3 (1934) 718 22 30 51 63 187 724 956 1870 2980
2025-05-29 03:00 5.90 62 11300 (1989) 3 (1934) 718 22 30 51 63 187 724 956 1870 2980
2025-05-29 02:30 5.91 63 11300 (1989) 3 (1934) 718 22 30 51 63 187 724 956 1870 2980
2025-05-29 02:00 5.91 63 11300 (1989) 3 (1934) 718 22 30 51 63 187 724 956 1870 2980
2025-05-29 01:30 5.91 63 11300 (1989) 3 (1934) 718 22 30 51 63 187 724 956 1870 2980
2025-05-29 01:00 5.91 63 11300 (1989) 3 (1934) 718 22 30 51 63 187 724 956 1870 2980
2025-05-29 00:30 5.91 63 11300 (1989) 3 (1934) 718 22 30 51 63 187 724 956 1870 2980
2025-05-29 00:00 5.91 63 11300 (1989) 3 (1934) 718 22 30 51 63 187 724 956 1870 2980
2025-05-28 23:30 5.91 63 11300 (1989) 3 (1934) 718 22 30 51 63 187 724 956 1870 2980
2025-05-28 23:00 5.91 63 11300 (1989) 3 (1934) 718 22 30 51 63 187 724 956 1870 2980
2025-05-28 22:30 5.91 63 12800 (2004) 3 (1934) 824 24 32 55 61 180 722 934 1780 3400
2025-05-28 22:00 5.91 63 12800 (2004) 3 (1934) 824 24 32 55 61 180 722 934 1780 3400
2025-05-28 21:30 5.91 63 12800 (2004) 3 (1934) 824 24 32 55 61 180 722 934 1780 3400
2025-05-28 21:00 5.91 63 12800 (2004) 3 (1934) 824 24 32 55 61 180 722 934 1780 3400
2025-05-28 20:30 5.91 63 12800 (2004) 3 (1934) 824 24 32 55 61 180 722 934 1780 3400
2025-05-28 20:00 5.91 63 12800 (2004) 3 (1934) 824 24 32 55 61 180 722 934 1780 3400
2025-05-28 19:30 5.91 63 12800 (2004) 3 (1934) 824 24 32 55 61 180 722 934 1780 3400
2025-05-28 19:00 5.91 63 12800 (2004) 3 (1934) 824 24 32 55 61 180 722 934 1780 3400
2025-05-28 18:30 5.91 63 12800 (2004) 3 (1934) 824 24 32 55 61 180 722 934 1780 3400
2025-05-28 18:00 5.91 63 12800 (2004) 3 (1934) 824 24 32 55 61 180 722 934 1780 3400
2025-05-28 17:30 5.92 65 12800 (2004) 3 (1934) 824 24 32 55 61 180 722 934 1780 3400
2025-05-28 17:00 5.92 65 12800 (2004) 3 (1934) 824 24 32 55 61 180 722 934 1780 3400
2025-05-28 16:30 5.92 65 12800 (2004) 3 (1934) 824 24 32 55 61 180 722 934 1780 3400
2025-05-28 16:00 5.92 65 12800 (2004) 3 (1934) 824 24 32 55 61 180 722 934 1780 3400
2025-05-28 15:30 5.92 65 12800 (2004) 3 (1934) 824 24 32 55 61 180 722 934 1780 3400
2025-05-28 15:00 5.91 63 12800 (2004) 3 (1934) 824 24 32 55 61 180 722 934 1780 3400
2025-05-28 14:30 5.92 65 12800 (2004) 3 (1934) 824 24 32 55 61 180 722 934 1780 3400
2025-05-28 14:00 5.92 65 12800 (2004) 3 (1934) 824 24 32 55 61 180 722 934 1780 3400
2025-05-28 13:30 5.90 62 12800 (2004) 3 (1934) 824 24 32 55 61 180 722 934 1780 3400
2025-05-28 13:00 5.93 66 12800 (2004) 3 (1934) 824 24 32 55 61 180 722 934 1780 3400
2025-05-28 12:30 5.92 65 12800 (2004) 3 (1934) 824 24 32 55 61 180 722 934 1780 3400
2025-05-28 12:00 5.93 66 12800 (2004) 3 (1934) 824 24 32 55 61 180 722 934 1780 3400
2025-05-28 11:30 5.93 66 12800 (2004) 3 (1934) 824 24 32 55 61 180 722 934 1780 3400
2025-05-28 11:00 5.92 65 12800 (2004) 3 (1934) 824 24 32 55 61 180 722 934 1780 3400
2025-05-28 10:30 5.91 63 12800 (2004) 3 (1934) 824 24 32 55 61 180 722 934 1780 3400
2025-05-28 10:00 5.93 66 12800 (2004) 3 (1934) 824 24 32 55 61 180 722 934 1780 3400
2025-05-28 09:30 5.89 60 12800 (2004) 3 (1934) 824 24 32 55 61 180 722 934 1780 3400
2025-05-28 09:00 5.93 66 12800 (2004) 3 (1934) 824 24 32 55 61 180 722 934 1780 3400
2025-05-28 08:30 5.89 60 12800 (2004) 3 (1934) 824 24 32 55 61 180 722 934 1780 3400
2025-05-28 08:00 5.93 66 12800 (2004) 3 (1934) 824 24 32 55 61 180 722 934 1780 3400
2025-05-28 07:30 5.93 66 12800 (2004) 3 (1934) 824 24 32 55 61 180 722 934 1780 3400
2025-05-28 07:00 5.94 68 12800 (2004) 3 (1934) 824 24 32 55 61 180 722 934 1780 3400
2025-05-28 06:30 5.94 68 12800 (2004) 3 (1934) 824 24 32 55 61 180 722 934 1780 3400
2025-05-28 06:00 5.94 68 12800 (2004) 3 (1934) 824 24 32 55 61 180 722 934 1780 3400
2025-05-28 05:30 5.94 68 12800 (2004) 3 (1934) 824 24 32 55 61 180 722 934 1780 3400
2025-05-28 05:00 5.95 69 12800 (2004) 3 (1934) 824 24 32 55 61 180 722 934 1780 3400
2025-05-28 04:30 5.94 68 12800 (2004) 3 (1934) 824 24 32 55 61 180 722 934 1780 3400
2025-05-28 04:00 5.95 69 12800 (2004) 3 (1934) 824 24 32 55 61 180 722 934 1780 3400
2025-05-28 03:30 5.95 69 12800 (2004) 3 (1934) 824 24 32 55 61 180 722 934 1780 3400
2025-05-28 03:00 5.95 69 12800 (2004) 3 (1934) 824 24 32 55 61 180 722 934 1780 3400
2025-05-28 02:30 5.93 66 12800 (2004) 3 (1934) 824 24 32 55 61 180 722 934 1780 3400
2025-05-28 02:00 5.95 69 12800 (2004) 3 (1934) 824 24 32 55 61 180 722 934 1780 3400
2025-05-28 01:30 5.94 68 12800 (2004) 3 (1934) 824 24 32 55 61 180 722 934 1780 3400
2025-05-28 01:00 5.95 69 12800 (2004) 3 (1934) 824 24 32 55 61 180 722 934 1780 3400
2025-05-28 00:30 5.94 68 12800 (2004) 3 (1934) 824 24 32 55 61 180 722 934 1780 3400
2025-05-28 00:00 5.94 68 12800 (2004) 3 (1934) 824 24 32 55 61 180 722 934 1780 3400
2025-05-27 23:30 5.93 66 12800 (2004) 3 (1934) 824 24 32 55 61 180 722 934 1780 3400
2025-05-27 23:00 5.93 66 12800 (2004) 3 (1934) 824 24 32 55 61 180 722 934 1780 3400
2025-05-27 22:30 5.93 66 10400 (1996) 4 (1934) 801 27 34 54 69 184 664 936 2700 4130
2025-05-27 22:00 5.94 68 10400 (1996) 4 (1934) 801 27 34 54 69 184 664 936 2700 4130
2025-05-27 21:30 5.94 68 10400 (1996) 4 (1934) 801 27 34 54 69 184 664 936 2700 4130
2025-05-27 21:00 5.94 68 10400 (1996) 4 (1934) 801 27 34 54 69 184 664 936 2700 4130
2025-05-27 20:30 5.94 68 10400 (1996) 4 (1934) 801 27 34 54 69 184 664 936 2700 4130
2025-05-27 20:00 5.94 68 10400 (1996) 4 (1934) 801 27 34 54 69 184 664 936 2700 4130
2025-05-27 19:30 5.94 68 10400 (1996) 4 (1934) 801 27 34 54 69 184 664 936 2700 4130
2025-05-27 19:00 5.94 68 10400 (1996) 4 (1934) 801 27 34 54 69 184 664 936 2700 4130
2025-05-27 18:30 5.95 69 10400 (1996) 4 (1934) 801 27 34 54 69 184 664 936 2700 4130
2025-05-27 18:00 5.95 69 10400 (1996) 4 (1934) 801 27 34 54 69 184 664 936 2700 4130
2025-05-27 17:30 5.95 69 10400 (1996) 4 (1934) 801 27 34 54 69 184 664 936 2700 4130
2025-05-27 17:00 5.95 69 10400 (1996) 4 (1934) 801 27 34 54 69 184 664 936 2700 4130
2025-05-27 16:30 5.95 69 10400 (1996) 4 (1934) 801 27 34 54 69 184 664 936 2700 4130
2025-05-27 16:00 5.96 71 10400 (1996) 4 (1934) 801 27 34 54 69 184 664 936 2700 4130
2025-05-27 15:30 5.96 71 10400 (1996) 4 (1934) 801 27 34 54 69 184 664 936 2700 4130
2025-05-27 15:00 5.96 71 10400 (1996) 4 (1934) 801 27 34 54 69 184 664 936 2700 4130
2025-05-27 14:30 5.96 71 10400 (1996) 4 (1934) 801 27 34 54 69 184 664 936 2700 4130
2025-05-27 14:00 5.96 71 10400 (1996) 4 (1934) 801 27 34 54 69 184 664 936 2700 4130
2025-05-27 13:30 5.96 71 10400 (1996) 4 (1934) 801 27 34 54 69 184 664 936 2700 4130
2025-05-27 13:00 5.96 71 10400 (1996) 4 (1934) 801 27 34 54 69 184 664 936 2700 4130
2025-05-27 12:30 5.96 71 10400 (1996) 4 (1934) 801 27 34 54 69 184 664 936 2700 4130
2025-05-27 12:00 5.91 63 10400 (1996) 4 (1934) 801 27 34 54 69 184 664 936 2700 4130
2025-05-27 11:30 5.94 68 10400 (1996) 4 (1934) 801 27 34 54 69 184 664 936 2700 4130
2025-05-27 11:00 5.97 72 10400 (1996) 4 (1934) 801 27 34 54 69 184 664 936 2700 4130
2025-05-27 10:30 5.93 66 10400 (1996) 4 (1934) 801 27 34 54 69 184 664 936 2700 4130
2025-05-27 10:00 5.93 66 10400 (1996) 4 (1934) 801 27 34 54 69 184 664 936 2700 4130
2025-05-27 09:30 5.89 60 10400 (1996) 4 (1934) 801 27 34 54 69 184 664 936 2700 4130
2025-05-27 09:00 5.91 63 10400 (1996) 4 (1934) 801 27 34 54 69 184 664 936 2700 4130
2025-05-27 08:30 5.92 65 10400 (1996) 4 (1934) 801 27 34 54 69 184 664 936 2700 4130
2025-05-27 08:00 5.94 68 10400 (1996) 4 (1934) 801 27 34 54 69 184 664 936 2700 4130
2025-05-27 07:30 5.92 65 10400 (1996) 4 (1934) 801 27 34 54 69 184 664 936 2700 4130
2025-05-27 07:00 5.94 68 10400 (1996) 4 (1934) 801 27 34 54 69 184 664 936 2700 4130
2025-05-27 06:30 5.91 63 10400 (1996) 4 (1934) 801 27 34 54 69 184 664 936 2700 4130
2025-05-27 06:00 5.94 68 10400 (1996) 4 (1934) 801 27 34 54 69 184 664 936 2700 4130
2025-05-27 05:30 5.98 74 10400 (1996) 4 (1934) 801 27 34 54 69 184 664 936 2700 4130
2025-05-27 05:00 5.99 76 10400 (1996) 4 (1934) 801 27 34 54 69 184 664 936 2700 4130
2025-05-27 04:30 5.99 76 10400 (1996) 4 (1934) 801 27 34 54 69 184 664 936 2700 4130
2025-05-27 04:00 5.95 69 10400 (1996) 4 (1934) 801 27 34 54 69 184 664 936 2700 4130
2025-05-27 03:30 5.97 72 10400 (1996) 4 (1934) 801 27 34 54 69 184 664 936 2700 4130
2025-05-27 03:00 5.99 76 10400 (1996) 4 (1934) 801 27 34 54 69 184 664 936 2700 4130
2025-05-27 02:30 5.99 76 10400 (1996) 4 (1934) 801 27 34 54 69 184 664 936 2700 4130
2025-05-27 02:00 5.99 76 10400 (1996) 4 (1934) 801 27 34 54 69 184 664 936 2700 4130
2025-05-27 01:30 6.00 77 10400 (1996) 4 (1934) 801 27 34 54 69 184 664 936 2700 4130
2025-05-27 01:00 6.00 77 10400 (1996) 4 (1934) 801 27 34 54 69 184 664 936 2700 4130
2025-05-27 00:30 6.00 77 10400 (1996) 4 (1934) 801 27 34 54 69 184 664 936 2700 4130
2025-05-27 00:00 6.00 77 10400 (1996) 4 (1934) 801 27 34 54 69 184 664 936 2700 4130
2025-05-26 23:30 6.00 77 10400 (1996) 4 (1934) 801 27 34 54 69 184 664 936 2700 4130
2025-05-26 23:00 6.00 77 10400 (1996) 4 (1934) 801 27 34 54 69 184 664 936 2700 4130
2025-05-26 22:30 6.00 77 13700 (2011) 3 (1934) 1070 28 30 45 64 186 679 949 3250 7010
2025-05-26 22:00 6.00 77 13700 (2011) 3 (1934) 1070 28 30 45 64 186 679 949 3250 7010
2025-05-26 21:30 6.01 79 13700 (2011) 3 (1934) 1070 28 30 45 64 186 679 949 3250 7010
2025-05-26 21:00 6.01 79 13700 (2011) 3 (1934) 1070 28 30 45 64 186 679 949 3250 7010
2025-05-26 20:30 6.01 79 13700 (2011) 3 (1934) 1070 28 30 45 64 186 679 949 3250 7010
2025-05-26 20:00 6.01 79 13700 (2011) 3 (1934) 1070 28 30 45 64 186 679 949 3250 7010
2025-05-26 19:30 6.01 79 13700 (2011) 3 (1934) 1070 28 30 45 64 186 679 949 3250 7010
2025-05-26 19:00 6.01 79 13700 (2011) 3 (1934) 1070 28 30 45 64 186 679 949 3250 7010
2025-05-26 18:30 6.02 81 13700 (2011) 3 (1934) 1070 28 30 45 64 186 679 949 3250 7010
2025-05-26 18:00 5.99 76 13700 (2011) 3 (1934) 1070 28 30 45 64 186 679 949 3250 7010
2025-05-26 17:30 5.97 72 13700 (2011) 3 (1934) 1070 28 30 45 64 186 679 949 3250 7010
2025-05-26 17:00 5.97 72 13700 (2011) 3 (1934) 1070 28 30 45 64 186 679 949 3250 7010
2025-05-26 16:30 5.96 71 13700 (2011) 3 (1934) 1070 28 30 45 64 186 679 949 3250 7010
2025-05-26 16:00 5.97 72 13700 (2011) 3 (1934) 1070 28 30 45 64 186 679 949 3250 7010
2025-05-26 15:30 5.94 68 13700 (2011) 3 (1934) 1070 28 30 45 64 186 679 949 3250 7010
2025-05-26 15:00 5.96 71 13700 (2011) 3 (1934) 1070 28 30 45 64 186 679 949 3250 7010
2025-05-26 14:30 5.96 71 13700 (2011) 3 (1934) 1070 28 30 45 64 186 679 949 3250 7010
2025-05-26 14:00 5.96 71 13700 (2011) 3 (1934) 1070 28 30 45 64 186 679 949 3250 7010
2025-05-26 13:30 5.96 71 13700 (2011) 3 (1934) 1070 28 30 45 64 186 679 949 3250 7010
2025-05-26 13:00 5.97 72 13700 (2011) 3 (1934) 1070 28 30 45 64 186 679 949 3250 7010
2025-05-26 12:30 5.94 68 13700 (2011) 3 (1934) 1070 28 30 45 64 186 679 949 3250 7010
2025-05-26 12:00 5.96 71 13700 (2011) 3 (1934) 1070 28 30 45 64 186 679 949 3250 7010
2025-05-26 11:30 5.95 69 13700 (2011) 3 (1934) 1070 28 30 45 64 186 679 949 3250 7010
2025-05-26 11:00 5.96 71 13700 (2011) 3 (1934) 1070 28 30 45 64 186 679 949 3250 7010
2025-05-26 10:30 5.96 71 13700 (2011) 3 (1934) 1070 28 30 45 64 186 679 949 3250 7010
2025-05-26 10:00 5.98 74 13700 (2011) 3 (1934) 1070 28 30 45 64 186 679 949 3250 7010
2025-05-26 09:30 5.97 72 13700 (2011) 3 (1934) 1070 28 30 45 64 186 679 949 3250 7010
2025-05-26 09:00 5.97 72 13700 (2011) 3 (1934) 1070 28 30 45 64 186 679 949 3250 7010
2025-05-26 08:30 6.00 77 13700 (2011) 3 (1934) 1070 28 30 45 64 186 679 949 3250 7010
2025-05-26 08:00 6.02 81 13700 (2011) 3 (1934) 1070 28 30 45 64 186 679 949 3250 7010
2025-05-26 07:30 6.03 83 13700 (2011) 3 (1934) 1070 28 30 45 64 186 679 949 3250 7010
2025-05-26 07:00 6.06 88 13700 (2011) 3 (1934) 1070 28 30 45 64 186 679 949 3250 7010
2025-05-26 06:30 6.07 90 13700 (2011) 3 (1934) 1070 28 30 45 64 186 679 949 3250 7010
2025-05-26 06:00 6.07 90 13700 (2011) 3 (1934) 1070 28 30 45 64 186 679 949 3250 7010
2025-05-26 05:30 6.07 90 13700 (2011) 3 (1934) 1070 28 30 45 64 186 679 949 3250 7010
2025-05-26 05:00 6.07 90 13700 (2011) 3 (1934) 1070 28 30 45 64 186 679 949 3250 7010
2025-05-26 04:30 6.08 92 13700 (2011) 3 (1934) 1070 28 30 45 64 186 679 949 3250 7010
2025-05-26 04:00 6.07 90 13700 (2011) 3 (1934) 1070 28 30 45 64 186 679 949 3250 7010
2025-05-26 03:30 6.08 92 13700 (2011) 3 (1934) 1070 28 30 45 64 186 679 949 3250 7010
2025-05-26 03:00 6.08 92 13700 (2011) 3 (1934) 1070 28 30 45 64 186 679 949 3250 7010
2025-05-26 02:30 6.08 92 13700 (2011) 3 (1934) 1070 28 30 45 64 186 679 949 3250 7010
2025-05-26 02:00 6.09 94 13700 (2011) 3 (1934) 1070 28 30 45 64 186 679 949 3250 7010
2025-05-26 01:30 6.08 92 13700 (2011) 3 (1934) 1070 28 30 45 64 186 679 949 3250 7010
2025-05-26 01:00 6.09 94 13700 (2011) 3 (1934) 1070 28 30 45 64 186 679 949 3250 7010
2025-05-26 00:30 6.09 94 13700 (2011) 3 (1934) 1070 28 30 45 64 186 679 949 3250 7010
2025-05-26 00:00 6.09 94 13700 (2011) 3 (1934) 1070 28 30 45 64 186 679 949 3250 7010
2025-05-25 23:30 6.09 94 13700 (2011) 3 (1934) 1070 28 30 45 64 186 679 949 3250 7010
2025-05-25 23:00 6.09 94 13700 (2011) 3 (1934) 1070 28 30 45 64 186 679 949 3250 7010
2025-05-25 22:30 6.10 96 22000 (1927) 3 (1934) 892 22 32 47 61 161 496 747 1780 4450
2025-05-25 22:00 6.10 96 22000 (1927) 3 (1934) 892 22 32 47 61 161 496 747 1780 4450
2025-05-25 21:30 6.10 96 22000 (1927) 3 (1934) 892 22 32 47 61 161 496 747 1780 4450
2025-05-25 21:00 6.11 98 22000 (1927) 3 (1934) 892 22 32 47 61 161 496 747 1780 4450
2025-05-25 20:30 6.11 98 22000 (1927) 3 (1934) 892 22 32 47 61 161 496 747 1780 4450
2025-05-25 20:00 6.11 98 22000 (1927) 3 (1934) 892 22 32 47 61 161 496 747 1780 4450
2025-05-25 19:30 6.11 98 22000 (1927) 3 (1934) 892 22 32 47 61 161 496 747 1780 4450
2025-05-25 19:00 6.12 100 22000 (1927) 3 (1934) 892 22 32 47 61 161 496 747 1780 4450
2025-05-25 18:30 6.12 100 22000 (1927) 3 (1934) 892 22 32 47 61 161 496 747 1780 4450
2025-05-25 18:00 6.09 94 22000 (1927) 3 (1934) 892 22 32 47 61 161 496 747 1780 4450
2025-05-25 17:30 6.13 102 22000 (1927) 3 (1934) 892 22 32 47 61 161 496 747 1780 4450
2025-05-25 17:00 6.10 96 22000 (1927) 3 (1934) 892 22 32 47 61 161 496 747 1780 4450
2025-05-25 16:30 6.10 96 22000 (1927) 3 (1934) 892 22 32 47 61 161 496 747 1780 4450
2025-05-25 16:00 6.07 90 22000 (1927) 3 (1934) 892 22 32 47 61 161 496 747 1780 4450
2025-05-25 15:30 6.13 102 22000 (1927) 3 (1934) 892 22 32 47 61 161 496 747 1780 4450
2025-05-25 15:00 6.08 92 22000 (1927) 3 (1934) 892 22 32 47 61 161 496 747 1780 4450
2025-05-25 14:30 6.08 92 22000 (1927) 3 (1934) 892 22 32 47 61 161 496 747 1780 4450
2025-05-25 14:00 6.09 94 22000 (1927) 3 (1934) 892 22 32 47 61 161 496 747 1780 4450
2025-05-25 13:30 6.09 94 22000 (1927) 3 (1934) 892 22 32 47 61 161 496 747 1780 4450
2025-05-25 13:00 6.10 96 22000 (1927) 3 (1934) 892 22 32 47 61 161 496 747 1780 4450
2025-05-25 12:30 6.13 102 22000 (1927) 3 (1934) 892 22 32 47 61 161 496 747 1780 4450
2025-05-25 12:00 6.14 104 22000 (1927) 3 (1934) 892 22 32 47 61 161 496 747 1780 4450
2025-05-25 11:30 6.15 106 22000 (1927) 3 (1934) 892 22 32 47 61 161 496 747 1780 4450
2025-05-25 11:00 6.15 106 22000 (1927) 3 (1934) 892 22 32 47 61 161 496 747 1780 4450
2025-05-25 10:30 6.16 108 22000 (1927) 3 (1934) 892 22 32 47 61 161 496 747 1780 4450
2025-05-25 10:00 6.16 108 22000 (1927) 3 (1934) 892 22 32 47 61 161 496 747 1780 4450
2025-05-25 09:30 6.16 108 22000 (1927) 3 (1934) 892 22 32 47 61 161 496 747 1780 4450
2025-05-25 09:00 6.16 108 22000 (1927) 3 (1934) 892 22 32 47 61 161 496 747 1780 4450
2025-05-25 08:30 6.16 108 22000 (1927) 3 (1934) 892 22 32 47 61 161 496 747 1780 4450
2025-05-25 08:00 6.16 108 22000 (1927) 3 (1934) 892 22 32 47 61 161 496 747 1780 4450
2025-05-25 07:30 6.17 110 22000 (1927) 3 (1934) 892 22 32 47 61 161 496 747 1780 4450
2025-05-25 07:00 6.17 110 22000 (1927) 3 (1934) 892 22 32 47 61 161 496 747 1780 4450
2025-05-25 06:30 6.17 110 22000 (1927) 3 (1934) 892 22 32 47 61 161 496 747 1780 4450
2025-05-25 06:00 6.18 112 22000 (1927) 3 (1934) 892 22 32 47 61 161 496 747 1780 4450
2025-05-25 05:30 6.18 112 22000 (1927) 3 (1934) 892 22 32 47 61 161 496 747 1780 4450
2025-05-25 05:00 6.18 112 22000 (1927) 3 (1934) 892 22 32 47 61 161 496 747 1780 4450
2025-05-25 04:30 6.19 114 22000 (1927) 3 (1934) 892 22 32 47 61 161 496 747 1780 4450
2025-05-25 04:00 6.19 114 22000 (1927) 3 (1934) 892 22 32 47 61 161 496 747 1780 4450
2025-05-25 03:30 6.19 114 22000 (1927) 3 (1934) 892 22 32 47 61 161 496 747 1780 4450
2025-05-25 03:00 6.20 117 22000 (1927) 3 (1934) 892 22 32 47 61 161 496 747 1780 4450
2025-05-25 02:30 6.20 117 22000 (1927) 3 (1934) 892 22 32 47 61 161 496 747 1780 4450
2025-05-25 02:00 6.20 117 22000 (1927) 3 (1934) 892 22 32 47 61 161 496 747 1780 4450
2025-05-25 01:30 6.20 117 22000 (1927) 3 (1934) 892 22 32 47 61 161 496 747 1780 4450
2025-05-25 01:00 6.21 119 22000 (1927) 3 (1934) 892 22 32 47 61 161 496 747 1780 4450
2025-05-25 00:30 6.21 119 22000 (1927) 3 (1934) 892 22 32 47 61 161 496 747 1780 4450
2025-05-25 00:00 6.21 119 22000 (1927) 3 (1934) 892 22 32 47 61 161 496 747 1780 4450
2025-05-24 23:30 6.22 121 22000 (1927) 3 (1934) 892 22 32 47 61 161 496 747 1780 4450
2025-05-24 23:00 6.22 121 22000 (1927) 3 (1934) 892 22 32 47 61 161 496 747 1780 4450
2025-05-24 22:30 6.22 121 7060 (1968) 4 (1934) 607 25 35 59 68 183 522 675 1680 3460
2025-05-24 22:00 6.23 123 7060 (1968) 4 (1934) 607 25 35 59 68 183 522 675 1680 3460
2025-05-24 21:30 6.23 123 7060 (1968) 4 (1934) 607 25 35 59 68 183 522 675 1680 3460
2025-05-24 21:00 6.23 123 7060 (1968) 4 (1934) 607 25 35 59 68 183 522 675 1680 3460
2025-05-24 20:30 6.24 126 7060 (1968) 4 (1934) 607 25 35 59 68 183 522 675 1680 3460
2025-05-24 20:00 6.24 126 7060 (1968) 4 (1934) 607 25 35 59 68 183 522 675 1680 3460
2025-05-24 19:30 6.24 126 7060 (1968) 4 (1934) 607 25 35 59 68 183 522 675 1680 3460
2025-05-24 19:00 6.25 128 7060 (1968) 4 (1934) 607 25 35 59 68 183 522 675 1680 3460
2025-05-24 18:30 6.25 128 7060 (1968) 4 (1934) 607 25 35 59 68 183 522 675 1680 3460
2025-05-24 18:00 6.26 131 7060 (1968) 4 (1934) 607 25 35 59 68 183 522 675 1680 3460
2025-05-24 17:30 6.26 131 7060 (1968) 4 (1934) 607 25 35 59 68 183 522 675 1680 3460
2025-05-24 17:00 6.26 131 7060 (1968) 4 (1934) 607 25 35 59 68 183 522 675 1680 3460
2025-05-24 16:30 6.21 119 7060 (1968) 4 (1934) 607 25 35 59 68 183 522 675 1680 3460
2025-05-24 16:00 6.23 123 7060 (1968) 4 (1934) 607 25 35 59 68 183 522 675 1680 3460
2025-05-24 15:30 6.22 121 7060 (1968) 4 (1934) 607 25 35 59 68 183 522 675 1680 3460
2025-05-24 15:00 6.19 114 7060 (1968) 4 (1934) 607 25 35 59 68 183 522 675 1680 3460
2025-05-24 14:30 6.22 121 7060 (1968) 4 (1934) 607 25 35 59 68 183 522 675 1680 3460
2025-05-24 14:00 6.28 136 7060 (1968) 4 (1934) 607 25 35 59 68 183 522 675 1680 3460
2025-05-24 13:30 6.28 136 7060 (1968) 4 (1934) 607 25 35 59 68 183 522 675 1680 3460
2025-05-24 13:00 6.25 128 7060 (1968) 4 (1934) 607 25 35 59 68 183 522 675 1680 3460
2025-05-24 12:30 6.28 136 7060 (1968) 4 (1934) 607 25 35 59 68 183 522 675 1680 3460
2025-05-24 12:00 6.30 141 7060 (1968) 4 (1934) 607 25 35 59 68 183 522 675 1680 3460
2025-05-24 11:30 6.31 143 7060 (1968) 4 (1934) 607 25 35 59 68 183 522 675 1680 3460
2025-05-24 11:00 6.32 146 7060 (1968) 4 (1934) 607 25 35 59 68 183 522 675 1680 3460
2025-05-24 10:30 6.32 146 7060 (1968) 4 (1934) 607 25 35 59 68 183 522 675 1680 3460
2025-05-24 10:00 6.32 146 7060 (1968) 4 (1934) 607 25 35 59 68 183 522 675 1680 3460
2025-05-24 09:30 6.33 148 7060 (1968) 4 (1934) 607 25 35 59 68 183 522 675 1680 3460
2025-05-24 09:00 6.33 148 7060 (1968) 4 (1934) 607 25 35 59 68 183 522 675 1680 3460
2025-05-24 08:30 6.34 151 7060 (1968) 4 (1934) 607 25 35 59 68 183 522 675 1680 3460
2025-05-24 08:00 6.34 151 7060 (1968) 4 (1934) 607 25 35 59 68 183 522 675 1680 3460
2025-05-24 07:30 6.35 154 7060 (1968) 4 (1934) 607 25 35 59 68 183 522 675 1680 3460
2025-05-24 07:00 6.35 154 7060 (1968) 4 (1934) 607 25 35 59 68 183 522 675 1680 3460
2025-05-24 06:30 6.35 154 7060 (1968) 4 (1934) 607 25 35 59 68 183 522 675 1680 3460
2025-05-24 06:00 6.36 157 7060 (1968) 4 (1934) 607 25 35 59 68 183 522 675 1680 3460
2025-05-24 05:30 6.37 159 7060 (1968) 4 (1934) 607 25 35 59 68 183 522 675 1680 3460
2025-05-24 05:00 6.37 159 7060 (1968) 4 (1934) 607 25 35 59 68 183 522 675 1680 3460
2025-05-24 04:30 6.38 162 7060 (1968) 4 (1934) 607 25 35 59 68 183 522 675 1680 3460
2025-05-24 04:00 6.38 162 7060 (1968) 4 (1934) 607 25 35 59 68 183 522 675 1680 3460
2025-05-24 03:30 6.38 162 7060 (1968) 4 (1934) 607 25 35 59 68 183 522 675 1680 3460
2025-05-24 03:00 6.39 165 7060 (1968) 4 (1934) 607 25 35 59 68 183 522 675 1680 3460
2025-05-24 02:30 6.40 168 7060 (1968) 4 (1934) 607 25 35 59 68 183 522 675 1680 3460
2025-05-24 02:00 6.40 168 7060 (1968) 4 (1934) 607 25 35 59 68 183 522 675 1680 3460
2025-05-24 01:30 6.41 171 7060 (1968) 4 (1934) 607 25 35 59 68 183 522 675 1680 3460
2025-05-24 01:00 6.41 171 7060 (1968) 4 (1934) 607 25 35 59 68 183 522 675 1680 3460
2025-05-24 00:30 6.42 174 7060 (1968) 4 (1934) 607 25 35 59 68 183 522 675 1680 3460
2025-05-24 00:00 6.42 174 7060 (1968) 4 (1934) 607 25 35 59 68 183 522 675 1680 3460
2025-05-23 23:30 6.43 177 7060 (1968) 4 (1934) 607 25 35 59 68 183 522 675 1680 3460
2025-05-23 23:00 6.43 177 7060 (1968) 4 (1934) 607 25 35 59 68 183 522 675 1680 3460
2025-05-23 22:30 6.44 180 9280 (2019) 6 (1954) 671 24 35 70 77 189 605 762 1170 3890
2025-05-23 22:00 6.45 183 9280 (2019) 6 (1954) 671 24 35 70 77 189 605 762 1170 3890
2025-05-23 21:30 6.45 183 9280 (2019) 6 (1954) 671 24 35 70 77 189 605 762 1170 3890
2025-05-23 21:00 6.46 186 9280 (2019) 6 (1954) 671 24 35 70 77 189 605 762 1170 3890
2025-05-23 20:30 6.46 186 9280 (2019) 6 (1954) 671 24 35 70 77 189 605 762 1170 3890
2025-05-23 20:00 6.47 189 9280 (2019) 6 (1954) 671 24 35 70 77 189 605 762 1170 3890
2025-05-23 19:30 6.48 192 9280 (2019) 6 (1954) 671 24 35 70 77 189 605 762 1170 3890
2025-05-23 19:00 6.48 192 9280 (2019) 6 (1954) 671 24 35 70 77 189 605 762 1170 3890
2025-05-23 18:30 6.49 195 9280 (2019) 6 (1954) 671 24 35 70 77 189 605 762 1170 3890
2025-05-23 18:00 6.50 199 9280 (2019) 6 (1954) 671 24 35 70 77 189 605 762 1170 3890
2025-05-23 17:30 6.50 199 9280 (2019) 6 (1954) 671 24 35 70 77 189 605 762 1170 3890
2025-05-23 17:00 6.51 202 9280 (2019) 6 (1954) 671 24 35 70 77 189 605 762 1170 3890
2025-05-23 16:30 6.52 205 9280 (2019) 6 (1954) 671 24 35 70 77 189 605 762 1170 3890
2025-05-23 16:00 6.52 205 9280 (2019) 6 (1954) 671 24 35 70 77 189 605 762 1170 3890
2025-05-23 15:30 6.53 208 9280 (2019) 6 (1954) 671 24 35 70 77 189 605 762 1170 3890
2025-05-23 15:00 6.54 212 9280 (2019) 6 (1954) 671 24 35 70 77 189 605 762 1170 3890
2025-05-23 14:30 6.55 215 9280 (2019) 6 (1954) 671 24 35 70 77 189 605 762 1170 3890
2025-05-23 14:00 6.53 208 9280 (2019) 6 (1954) 671 24 35 70 77 189 605 762 1170 3890
2025-05-23 13:30 6.56 219 9280 (2019) 6 (1954) 671 24 35 70 77 189 605 762 1170 3890
2025-05-23 13:00 6.57 222 9280 (2019) 6 (1954) 671 24 35 70 77 189 605 762 1170 3890
2025-05-23 12:30 6.58 226 9280 (2019) 6 (1954) 671 24 35 70 77 189 605 762 1170 3890
2025-05-23 12:00 6.58 226 9280 (2019) 6 (1954) 671 24 35 70 77 189 605 762 1170 3890
2025-05-23 11:30 6.59 229 9280 (2019) 6 (1954) 671 24 35 70 77 189 605 762 1170 3890
2025-05-23 11:00 6.59 229 9280 (2019) 6 (1954) 671 24 35 70 77 189 605 762 1170 3890
2025-05-23 10:30 6.60 233 9280 (2019) 6 (1954) 671 24 35 70 77 189 605 762 1170 3890
2025-05-23 10:00 6.60 233 9280 (2019) 6 (1954) 671 24 35 70 77 189 605 762 1170 3890
2025-05-23 09:30 6.62 240 9280 (2019) 6 (1954) 671 24 35 70 77 189 605 762 1170 3890
2025-05-23 09:00 6.63 244 9280 (2019) 6 (1954) 671 24 35 70 77 189 605 762 1170 3890
2025-05-23 08:30 6.63 244 9280 (2019) 6 (1954) 671 24 35 70 77 189 605 762 1170 3890
2025-05-23 08:00 6.65 251 9280 (2019) 6 (1954) 671 24 35 70 77 189 605 762 1170 3890
2025-05-23 07:30 6.65 251 9280 (2019) 6 (1954) 671 24 35 70 77 189 605 762 1170 3890
2025-05-23 07:00 6.67 259 9280 (2019) 6 (1954) 671 24 35 70 77 189 605 762 1170 3890
2025-05-23 06:30 6.67 259 9280 (2019) 6 (1954) 671 24 35 70 77 189 605 762 1170 3890
2025-05-23 06:00 6.68 263 9280 (2019) 6 (1954) 671 24 35 70 77 189 605 762 1170 3890
2025-05-23 05:30 6.69 267 9280 (2019) 6 (1954) 671 24 35 70 77 189 605 762 1170 3890
2025-05-23 05:00 6.70 270 9280 (2019) 6 (1954) 671 24 35 70 77 189 605 762 1170 3890
2025-05-23 04:30 6.71 273 9280 (2019) 6 (1954) 671 24 35 70 77 189 605 762 1170 3890
2025-05-23 04:00 6.72 276 9280 (2019) 6 (1954) 671 24 35 70 77 189 605 762 1170 3890
2025-05-23 03:30 6.73 280 9280 (2019) 6 (1954) 671 24 35 70 77 189 605 762 1170 3890
2025-05-23 03:00 6.74 283 9280 (2019) 6 (1954) 671 24 35 70 77 189 605 762 1170 3890
2025-05-23 02:30 6.75 286 9280 (2019) 6 (1954) 671 24 35 70 77 189 605 762 1170 3890
2025-05-23 02:00 6.76 289 9280 (2019) 6 (1954) 671 24 35 70 77 189 605 762 1170 3890
2025-05-23 01:30 6.77 292 9280 (2019) 6 (1954) 671 24 35 70 77 189 605 762 1170 3890
2025-05-23 01:00 6.78 296 9280 (2019) 6 (1954) 671 24 35 70 77 189 605 762 1170 3890
2025-05-23 00:30 6.79 299 9280 (2019) 6 (1954) 671 24 35 70 77 189 605 762 1170 3890
2025-05-23 00:00 6.80 302 9280 (2019) 6 (1954) 671 24 35 70 77 189 605 762 1170 3890
2025-05-22 23:30 6.81 305 9280 (2019) 6 (1954) 671 24 35 70 77 189 605 762 1170 3890
2025-05-22 23:00 6.81 305 9280 (2019) 6 (1954) 671 24 35 70 77 189 605 762 1170 3890
2025-05-22 22:30 6.82 309 10800 (1983) 5 (1954) 666 22 32 57 80 190 542 940 1810 2730
2025-05-22 22:00 6.83 312 10800 (1983) 5 (1954) 666 22 32 57 80 190 542 940 1810 2730
2025-05-22 21:30 6.85 319 10800 (1983) 5 (1954) 666 22 32 57 80 190 542 940 1810 2730
2025-05-22 21:00 6.86 322 10800 (1983) 5 (1954) 666 22 32 57 80 190 542 940 1810 2730
2025-05-22 20:30 6.87 326 10800 (1983) 5 (1954) 666 22 32 57 80 190 542 940 1810 2730
2025-05-22 20:00 6.88 329 10800 (1983) 5 (1954) 666 22 32 57 80 190 542 940 1810 2730
2025-05-22 19:30 6.89 333 10800 (1983) 5 (1954) 666 22 32 57 80 190 542 940 1810 2730
2025-05-22 19:00 6.91 340 10800 (1983) 5 (1954) 666 22 32 57 80 190 542 940 1810 2730
2025-05-22 18:30 6.92 343 10800 (1983) 5 (1954) 666 22 32 57 80 190 542 940 1810 2730
2025-05-22 18:00 6.93 347 10800 (1983) 5 (1954) 666 22 32 57 80 190 542 940 1810 2730
2025-05-22 17:30 6.95 354 10800 (1983) 5 (1954) 666 22 32 57 80 190 542 940 1810 2730
2025-05-22 17:00 6.96 358 10800 (1983) 5 (1954) 666 22 32 57 80 190 542 940 1810 2730
2025-05-22 16:30 6.98 365 10800 (1983) 5 (1954) 666 22 32 57 80 190 542 940 1810 2730
2025-05-22 16:00 6.99 369 10800 (1983) 5 (1954) 666 22 32 57 80 190 542 940 1810 2730
2025-05-22 15:30 7.00 372 10800 (1983) 5 (1954) 666 22 32 57 80 190 542 940 1810 2730
2025-05-22 15:00 7.01 376 10800 (1983) 5 (1954) 666 22 32 57 80 190 542 940 1810 2730
2025-05-22 14:30 7.03 384 10800 (1983) 5 (1954) 666 22 32 57 80 190 542 940 1810 2730
2025-05-22 14:00 7.01 376 10800 (1983) 5 (1954) 666 22 32 57 80 190 542 940 1810 2730
2025-05-22 13:30 6.99 369 10800 (1983) 5 (1954) 666 22 32 57 80 190 542 940 1810 2730
2025-05-22 13:00 7.01 376 10800 (1983) 5 (1954) 666 22 32 57 80 190 542 940 1810 2730
2025-05-22 12:30 7.08 403 10800 (1983) 5 (1954) 666 22 32 57 80 190 542 940 1810 2730
2025-05-22 12:00 7.10 411 10800 (1983) 5 (1954) 666 22 32 57 80 190 542 940 1810 2730
2025-05-22 11:30 7.10 411 10800 (1983) 5 (1954) 666 22 32 57 80 190 542 940 1810 2730
2025-05-22 11:00 7.11 415 10800 (1983) 5 (1954) 666 22 32 57 80 190 542 940 1810 2730
2025-05-22 10:30 7.10 411 10800 (1983) 5 (1954) 666 22 32 57 80 190 542 940 1810 2730
2025-05-22 10:00 7.16 435 10800 (1983) 5 (1954) 666 22 32 57 80 190 542 940 1810 2730
2025-05-22 09:30 7.14 427 10800 (1983) 5 (1954) 666 22 32 57 80 190 542 940 1810 2730
2025-05-22 09:00 7.19 447 10800 (1983) 5 (1954) 666 22 32 57 80 190 542 940 1810 2730
2025-05-22 08:30 7.21 456 10800 (1983) 5 (1954) 666 22 32 57 80 190 542 940 1810 2730
2025-05-22 08:00 7.23 464 10800 (1983) 5 (1954) 666 22 32 57 80 190 542 940 1810 2730
2025-05-22 07:30 7.25 473 10800 (1983) 5 (1954) 666 22 32 57 80 190 542 940 1810 2730
2025-05-22 07:00 7.27 481 10800 (1983) 5 (1954) 666 22 32 57 80 190 542 940 1810 2730
2025-05-22 06:30 7.28 486 10800 (1983) 5 (1954) 666 22 32 57 80 190 542 940 1810 2730
2025-05-22 06:00 7.30 494 10800 (1983) 5 (1954) 666 22 32 57 80 190 542 940 1810 2730
2025-05-22 05:30 7.32 503 10800 (1983) 5 (1954) 666 22 32 57 80 190 542 940 1810 2730
2025-05-22 05:00 7.34 512 10800 (1983) 5 (1954) 666 22 32 57 80 190 542 940 1810 2730
2025-05-22 04:30 7.37 526 10800 (1983) 5 (1954) 666 22 32 57 80 190 542 940 1810 2730
2025-05-22 04:00 7.39 535 10800 (1983) 5 (1954) 666 22 32 57 80 190 542 940 1810 2730
2025-05-22 03:30 7.39 535 10800 (1983) 5 (1954) 666 22 32 57 80 190 542 940 1810 2730
2025-05-22 03:00 7.42 549 10800 (1983) 5 (1954) 666 22 32 57 80 190 542 940 1810 2730
2025-05-22 02:30 7.44 559 10800 (1983) 5 (1954) 666 22 32 57 80 190 542 940 1810 2730
2025-05-22 02:00 7.46 568 10800 (1983) 5 (1954) 666 22 32 57 80 190 542 940 1810 2730
2025-05-22 01:30 7.49 583 10800 (1983) 5 (1954) 666 22 32 57 80 190 542 940 1810 2730
2025-05-22 01:00 7.52 597 10800 (1983) 5 (1954) 666 22 32 57 80 190 542 940 1810 2730
2025-05-22 00:30 7.53 602 10800 (1983) 5 (1954) 666 22 32 57 80 190 542 940 1810 2730
2025-05-22 00:00 7.56 617 10800 (1983) 5 (1954) 666 22 32 57 80 190 542 940 1810 2730
2025-05-21 23:30 7.58 627 10800 (1983) 5 (1954) 666 22 32 57 80 190 542 940 1810 2730
2025-05-21 23:00 7.60 638 10800 (1983) 5 (1954) 666 22 32 57 80 190 542 940 1810 2730
2025-05-21 22:30 7.62 648 11900 (2017) 5 (1954) 862 24 35 62 90 222 560 857 2180 5790
2025-05-21 22:00 7.65 664 11900 (2017) 5 (1954) 862 24 35 62 90 222 560 857 2180 5790
2025-05-21 21:30 7.67 674 11900 (2017) 5 (1954) 862 24 35 62 90 222 560 857 2180 5790
2025-05-21 21:00 7.71 696 11900 (2017) 5 (1954) 862 24 35 62 90 222 560 857 2180 5790
2025-05-21 20:30 7.72 701 11900 (2017) 5 (1954) 862 24 35 62 90 222 560 857 2180 5790
2025-05-21 20:00 7.75 717 11900 (2017) 5 (1954) 862 24 35 62 90 222 560 857 2180 5790
2025-05-21 19:30 7.79 740 11900 (2017) 5 (1954) 862 24 35 62 90 222 560 857 2180 5790
2025-05-21 19:00 7.80 745 11900 (2017) 5 (1954) 862 24 35 62 90 222 560 857 2180 5790
2025-05-21 18:30 7.84 768 11900 (2017) 5 (1954) 862 24 35 62 90 222 560 857 2180 5790
2025-05-21 18:00 7.85 774 11900 (2017) 5 (1954) 862 24 35 62 90 222 560 857 2180 5790
2025-05-21 17:30 7.89 797 11900 (2017) 5 (1954) 862 24 35 62 90 222 560 857 2180 5790
2025-05-21 17:00 7.92 815 11900 (2017) 5 (1954) 862 24 35 62 90 222 560 857 2180 5790
2025-05-21 16:30 7.96 839 11900 (2017) 5 (1954) 862 24 35 62 90 222 560 857 2180 5790
2025-05-21 16:00 7.95 833 11900 (2017) 5 (1954) 862 24 35 62 90 222 560 857 2180 5790
2025-05-21 15:30 8.01 869 11900 (2017) 5 (1954) 862 24 35 62 90 222 560 857 2180 5790
2025-05-21 15:00 8.04 888 11900 (2017) 5 (1954) 862 24 35 62 90 222 560 857 2180 5790
2025-05-21 14:30 8.05 894 11900 (2017) 5 (1954) 862 24 35 62 90 222 560 857 2180 5790
2025-05-21 14:00 8.09 919 11900 (2017) 5 (1954) 862 24 35 62 90 222 560 857 2180 5790
2025-05-21 13:30 8.13 945 11900 (2017) 5 (1954) 862 24 35 62 90 222 560 857 2180 5790
2025-05-21 13:00 8.12 939 11900 (2017) 5 (1954) 862 24 35 62 90 222 560 857 2180 5790
2025-05-21 12:30 8.20 991 11900 (2017) 5 (1954) 862 24 35 62 90 222 560 857 2180 5790
2025-05-21 12:00 8.24 1020 11900 (2017) 5 (1954) 862 24 35 62 90 222 560 857 2180 5790
2025-05-21 11:30 8.23 1010 11900 (2017) 5 (1954) 862 24 35 62 90 222 560 857 2180 5790
2025-05-21 11:00 8.30 1060 11900 (2017) 5 (1954) 862 24 35 62 90 222 560 857 2180 5790
2025-05-21 10:30 8.37 1110 11900 (2017) 5 (1954) 862 24 35 62 90 222 560 857 2180 5790
2025-05-21 10:00 8.43 1150 11900 (2017) 5 (1954) 862 24 35 62 90 222 560 857 2180 5790
2025-05-21 09:30 8.48 1190 11900 (2017) 5 (1954) 862 24 35 62 90 222 560 857 2180 5790
2025-05-21 09:00 8.54 1230 11900 (2017) 5 (1954) 862 24 35 62 90 222 560 857 2180 5790
2025-05-21 08:30 8.60 1280 11900 (2017) 5 (1954) 862 24 35 62 90 222 560 857 2180 5790
2025-05-21 08:00 8.66 1330 11900 (2017) 5 (1954) 862 24 35 62 90 222 560 857 2180 5790
2025-05-21 07:30 8.75 1400 11900 (2017) 5 (1954) 862 24 35 62 90 222 560 857 2180 5790
2025-05-21 07:00 8.84 1470 11900 (2017) 5 (1954) 862 24 35 62 90 222 560 857 2180 5790
2025-05-21 06:30 8.92 1540 11900 (2017) 5 (1954) 862 24 35 62 90 222 560 857 2180 5790
2025-05-21 06:00 9.02 1630 11900 (2017) 5 (1954) 862 24 35 62 90 222 560 857 2180 5790
2025-05-21 05:30 9.10 1700 11900 (2017) 5 (1954) 862 24 35 62 90 222 560 857 2180 5790
2025-05-21 05:00 9.22 1810 11900 (2017) 5 (1954) 862 24 35 62 90 222 560 857 2180 5790
2025-05-21 04:30 9.29 1880 11900 (2017) 5 (1954) 862 24 35 62 90 222 560 857 2180 5790
2025-05-21 04:00 9.44 2030 11900 (2017) 5 (1954) 862 24 35 62 90 222 560 857 2180 5790
2025-05-21 03:30 9.56 2120 11900 (2017) 5 (1954) 862 24 35 62 90 222 560 857 2180 5790
2025-05-21 03:00 9.69 2200 11900 (2017) 5 (1954) 862 24 35 62 90 222 560 857 2180 5790
2025-05-21 02:30 9.86 2310 11900 (2017) 5 (1954) 862 24 35 62 90 222 560 857 2180 5790
2025-05-21 02:00 10.02 2410 11900 (2017) 5 (1954) 862 24 35 62 90 222 560 857 2180 5790
2025-05-21 01:30 10.18 2520 11900 (2017) 5 (1954) 862 24 35 62 90 222 560 857 2180 5790
2025-05-21 01:00 10.35 2630 11900 (2017) 5 (1954) 862 24 35 62 90 222 560 857 2180 5790
2025-05-21 00:30 10.54 2760 11900 (2017) 5 (1954) 862 24 35 62 90 222 560 857 2180 5790
2025-05-21 00:00 10.74 2900 11900 (2017) 5 (1954) 862 24 35 62 90 222 560 857 2180 5790
2025-05-20 23:30 10.93 3030 11900 (2017) 5 (1954) 862 24 35 62 90 222 560 857 2180 5790
2025-05-20 23:00 11.18 3210 11900 (2017) 5 (1954) 862 24 35 62 90 222 560 857 2180 5790
2025-05-20 22:30 11.39 3360 11600 (2017) 6 (1954) 939 26 36 62 90 278 609 800 2680 5120
2025-05-20 22:00 11.65 3550 11600 (2017) 6 (1954) 939 26 36 62 90 278 609 800 2680 5120
2025-05-20 21:30 11.89 3730 11600 (2017) 6 (1954) 939 26 36 62 90 278 609 800 2680 5120
2025-05-20 21:00 12.15 3930 11600 (2017) 6 (1954) 939 26 36 62 90 278 609 800 2680 5120
2025-05-20 20:30 12.42 4130 11600 (2017) 6 (1954) 939 26 36 62 90 278 609 800 2680 5120
2025-05-20 20:00 12.67 4330 11600 (2017) 6 (1954) 939 26 36 62 90 278 609 800 2680 5120
2025-05-20 19:30 12.93 4540 11600 (2017) 6 (1954) 939 26 36 62 90 278 609 800 2680 5120
2025-05-20 19:00 13.22 4770 11600 (2017) 6 (1954) 939 26 36 62 90 278 609 800 2680 5120
2025-05-20 18:30 13.51 5010 11600 (2017) 6 (1954) 939 26 36 62 90 278 609 800 2680 5120
2025-05-20 18:00 13.81 5260 11600 (2017) 6 (1954) 939 26 36 62 90 278 609 800 2680 5120
2025-05-20 17:30 14.11 5510 11600 (2017) 6 (1954) 939 26 36 62 90 278 609 800 2680 5120
2025-05-20 17:00 14.44 5790 11600 (2017) 6 (1954) 939 26 36 62 90 278 609 800 2680 5120
2025-05-20 16:30 14.73 6040 11600 (2017) 6 (1954) 939 26 36 62 90 278 609 800 2680 5120
2025-05-20 16:00 15.05 6330 11600 (2017) 6 (1954) 939 26 36 62 90 278 609 800 2680 5120
2025-05-20 15:30 15.31 6560 11600 (2017) 6 (1954) 939 26 36 62 90 278 609 800 2680 5120
2025-05-20 15:00 15.56 6780 11600 (2017) 6 (1954) 939 26 36 62 90 278 609 800 2680 5120
2025-05-20 14:30 15.75 6960 11600 (2017) 6 (1954) 939 26 36 62 90 278 609 800 2680 5120
2025-05-20 14:00 15.90 7090 11600 (2017) 6 (1954) 939 26 36 62 90 278 609 800 2680 5120
2025-05-20 13:30 15.94 7130 11600 (2017) 6 (1954) 939 26 36 62 90 278 609 800 2680 5120
2025-05-20 13:00 15.93 7120 11600 (2017) 6 (1954) 939 26 36 62 90 278 609 800 2680 5120
2025-05-20 12:30 15.87 7070 11600 (2017) 6 (1954) 939 26 36 62 90 278 609 800 2680 5120
2025-05-20 12:00 15.70 6910 11600 (2017) 6 (1954) 939 26 36 62 90 278 609 800 2680 5120
2025-05-20 11:30 15.48 6710 11600 (2017) 6 (1954) 939 26 36 62 90 278 609 800 2680 5120
2025-05-20 11:00 15.14 6410 11600 (2017) 6 (1954) 939 26 36 62 90 278 609 800 2680 5120
2025-05-20 10:30 14.62 5950 11600 (2017) 6 (1954) 939 26 36 62 90 278 609 800 2680 5120
2025-05-20 10:00 13.81 5260 11600 (2017) 6 (1954) 939 26 36 62 90 278 609 800 2680 5120
2025-05-20 09:30 12.67 4330 11600 (2017) 6 (1954) 939 26 36 62 90 278 609 800 2680 5120
2025-05-20 09:00 11.13 3170 11600 (2017) 6 (1954) 939 26 36 62 90 278 609 800 2680 5120
2025-05-20 08:30 9.25 1840 11600 (2017) 6 (1954) 939 26 36 62 90 278 609 800 2680 5120
2025-05-20 08:00 5.91 63 11600 (2017) 6 (1954) 939 26 36 62 90 278 609 800 2680 5120
2025-05-20 07:30 5.90 62 11600 (2017) 6 (1954) 939 26 36 62 90 278 609 800 2680 5120
2025-05-20 07:00 5.90 62 11600 (2017) 6 (1954) 939 26 36 62 90 278 609 800 2680 5120
2025-05-20 06:30 5.90 62 11600 (2017) 6 (1954) 939 26 36 62 90 278 609 800 2680 5120
2025-05-20 06:00 5.90 62 11600 (2017) 6 (1954) 939 26 36 62 90 278 609 800 2680 5120
2025-05-20 05:30 5.90 62 11600 (2017) 6 (1954) 939 26 36 62 90 278 609 800 2680 5120
2025-05-20 05:00 5.90 62 11600 (2017) 6 (1954) 939 26 36 62 90 278 609 800 2680 5120
2025-05-20 04:30 5.90 62 11600 (2017) 6 (1954) 939 26 36 62 90 278 609 800 2680 5120
2025-05-20 04:00 5.90 62 11600 (2017) 6 (1954) 939 26 36 62 90 278 609 800 2680 5120
2025-05-20 03:30 5.90 62 11600 (2017) 6 (1954) 939 26 36 62 90 278 609 800 2680 5120
2025-05-20 03:00 5.89 60 11600 (2017) 6 (1954) 939 26 36 62 90 278 609 800 2680 5120
2025-05-20 02:30 5.89 60 11600 (2017) 6 (1954) 939 26 36 62 90 278 609 800 2680 5120
2025-05-20 02:00 5.88 59 11600 (2017) 6 (1954) 939 26 36 62 90 278 609 800 2680 5120
2025-05-20 01:30 5.85 55 11600 (2017) 6 (1954) 939 26 36 62 90 278 609 800 2680 5120
2025-05-20 01:00 5.79 47 11600 (2017) 6 (1954) 939 26 36 62 90 278 609 800 2680 5120
2025-05-20 00:30 5.78 46 11600 (2017) 6 (1954) 939 26 36 62 90 278 609 800 2680 5120
2025-05-20 00:00 5.76 43 11600 (2017) 6 (1954) 939 26 36 62 90 278 609 800 2680 5120
2025-05-19 23:30 5.72 39 11600 (2017) 6 (1954) 939 26 36 62 90 278 609 800 2680 5120
2025-05-19 23:00 5.77 45 11600 (2017) 6 (1954) 939 26 36 62 90 278 609 800 2680 5120
2025-05-19 22:30 5.73 40 32700 (1929) 7 (1954) 1690 29 41 70 91 257 835 1200 3130 10900
2025-05-19 22:00 5.73 40 32700 (1929) 7 (1954) 1690 29 41 70 91 257 835 1200 3130 10900
2025-05-19 21:30 5.74 41 32700 (1929) 7 (1954) 1690 29 41 70 91 257 835 1200 3130 10900
2025-05-19 21:00 5.73 40 32700 (1929) 7 (1954) 1690 29 41 70 91 257 835 1200 3130 10900
2025-05-19 20:30 5.76 43 32700 (1929) 7 (1954) 1690 29 41 70 91 257 835 1200 3130 10900
2025-05-19 20:00 5.73 40 32700 (1929) 7 (1954) 1690 29 41 70 91 257 835 1200 3130 10900
2025-05-19 19:30 5.72 39 32700 (1929) 7 (1954) 1690 29 41 70 91 257 835 1200 3130 10900
2025-05-19 19:00 5.73 40 32700 (1929) 7 (1954) 1690 29 41 70 91 257 835 1200 3130 10900
2025-05-19 18:30 5.76 43 32700 (1929) 7 (1954) 1690 29 41 70 91 257 835 1200 3130 10900
2025-05-19 18:00 5.75 42 32700 (1929) 7 (1954) 1690 29 41 70 91 257 835 1200 3130 10900
2025-05-19 17:30 5.71 38 32700 (1929) 7 (1954) 1690 29 41 70 91 257 835 1200 3130 10900
2025-05-19 17:00 5.75 42 32700 (1929) 7 (1954) 1690 29 41 70 91 257 835 1200 3130 10900
2025-05-19 16:30 5.72 39 32700 (1929) 7 (1954) 1690 29 41 70 91 257 835 1200 3130 10900
2025-05-19 16:00 5.68 35 32700 (1929) 7 (1954) 1690 29 41 70 91 257 835 1200 3130 10900
2025-05-19 15:30 5.72 39 32700 (1929) 7 (1954) 1690 29 41 70 91 257 835 1200 3130 10900
2025-05-19 15:00 5.70 37 32700 (1929) 7 (1954) 1690 29 41 70 91 257 835 1200 3130 10900
2025-05-19 14:30 5.69 36 32700 (1929) 7 (1954) 1690 29 41 70 91 257 835 1200 3130 10900
2025-05-19 14:00 5.70 37 32700 (1929) 7 (1954) 1690 29 41 70 91 257 835 1200 3130 10900
2025-05-19 13:30 5.75 42 32700 (1929) 7 (1954) 1690 29 41 70 91 257 835 1200 3130 10900
2025-05-19 13:00 5.74 41 32700 (1929) 7 (1954) 1690 29 41 70 91 257 835 1200 3130 10900
2025-05-19 12:30 5.74 41 32700 (1929) 7 (1954) 1690 29 41 70 91 257 835 1200 3130 10900
2025-05-19 12:00 5.72 39 32700 (1929) 7 (1954) 1690 29 41 70 91 257 835 1200 3130 10900
2025-05-19 11:30 5.71 38 32700 (1929) 7 (1954) 1690 29 41 70 91 257 835 1200 3130 10900
2025-05-19 11:00 5.73 40 32700 (1929) 7 (1954) 1690 29 41 70 91 257 835 1200 3130 10900
2025-05-19 10:30 5.74 41 32700 (1929) 7 (1954) 1690 29 41 70 91 257 835 1200 3130 10900
2025-05-19 10:00 5.78 46 32700 (1929) 7 (1954) 1690 29 41 70 91 257 835 1200 3130 10900
2025-05-19 09:30 5.73 40 32700 (1929) 7 (1954) 1690 29 41 70 91 257 835 1200 3130 10900
2025-05-19 09:00 5.74 41 32700 (1929) 7 (1954) 1690 29 41 70 91 257 835 1200 3130 10900
2025-05-19 08:30 5.75 42 32700 (1929) 7 (1954) 1690 29 41 70 91 257 835 1200 3130 10900
2025-05-19 08:00 5.79 47 32700 (1929) 7 (1954) 1690 29 41 70 91 257 835 1200 3130 10900
2025-05-19 07:30 5.80 48 32700 (1929) 7 (1954) 1690 29 41 70 91 257 835 1200 3130 10900
2025-05-19 07:00 5.80 48 32700 (1929) 7 (1954) 1690 29 41 70 91 257 835 1200 3130 10900
2025-05-19 06:30 5.79 47 32700 (1929) 7 (1954) 1690 29 41 70 91 257 835 1200 3130 10900
2025-05-19 06:00 5.76 43 32700 (1929) 7 (1954) 1690 29 41 70 91 257 835 1200 3130 10900
2025-05-19 05:30 5.79 47 32700 (1929) 7 (1954) 1690 29 41 70 91 257 835 1200 3130 10900
2025-05-19 05:00 5.78 46 32700 (1929) 7 (1954) 1690 29 41 70 91 257 835 1200 3130 10900
2025-05-19 04:30 5.78 46 32700 (1929) 7 (1954) 1690 29 41 70 91 257 835 1200 3130 10900
2025-05-19 04:00 5.79 47 32700 (1929) 7 (1954) 1690 29 41 70 91 257 835 1200 3130 10900
2025-05-19 03:30 5.78 46 32700 (1929) 7 (1954) 1690 29 41 70 91 257 835 1200 3130 10900
2025-05-19 03:00 5.79 47 32700 (1929) 7 (1954) 1690 29 41 70 91 257 835 1200 3130 10900
2025-05-19 02:30 5.79 47 32700 (1929) 7 (1954) 1690 29 41 70 91 257 835 1200 3130 10900
2025-05-19 02:00 5.79 47 32700 (1929) 7 (1954) 1690 29 41 70 91 257 835 1200 3130 10900
2025-05-19 01:30 5.79 47 32700 (1929) 7 (1954) 1690 29 41 70 91 257 835 1200 3130 10900
2025-05-19 01:00 5.79 47 32700 (1929) 7 (1954) 1690 29 41 70 91 257 835 1200 3130 10900
2025-05-19 00:30 5.79 47 32700 (1929) 7 (1954) 1690 29 41 70 91 257 835 1200 3130 10900
2025-05-19 00:00 5.79 47 32700 (1929) 7 (1954) 1690 29 41 70 91 257 835 1200 3130 10900
2025-05-18 23:30 5.79 47 32700 (1929) 7 (1954) 1690 29 41 70 91 257 835 1200 3130 10900
2025-05-18 23:00 5.80 48 32700 (1929) 7 (1954) 1690 29 41 70 91 257 835 1200 3130 10900
2025-05-18 22:30 5.79 47 59600 (1995) 6 (1954) 2330 31 39 69 81 242 1160 1390 4650 10700
2025-05-18 22:00 5.80 48 59600 (1995) 6 (1954) 2330 31 39 69 81 242 1160 1390 4650 10700
2025-05-18 21:30 5.80 48 59600 (1995) 6 (1954) 2330 31 39 69 81 242 1160 1390 4650 10700
2025-05-18 21:00 5.80 48 59600 (1995) 6 (1954) 2330 31 39 69 81 242 1160 1390 4650 10700
2025-05-18 20:30 5.80 48 59600 (1995) 6 (1954) 2330 31 39 69 81 242 1160 1390 4650 10700
2025-05-18 20:00 5.79 47 59600 (1995) 6 (1954) 2330 31 39 69 81 242 1160 1390 4650 10700
2025-05-18 19:30 5.80 48 59600 (1995) 6 (1954) 2330 31 39 69 81 242 1160 1390 4650 10700
2025-05-18 19:00 5.80 48 59600 (1995) 6 (1954) 2330 31 39 69 81 242 1160 1390 4650 10700
2025-05-18 18:30 5.80 48 59600 (1995) 6 (1954) 2330 31 39 69 81 242 1160 1390 4650 10700
2025-05-18 18:00 5.79 47 59600 (1995) 6 (1954) 2330 31 39 69 81 242 1160 1390 4650 10700
2025-05-18 17:30 5.80 48 59600 (1995) 6 (1954) 2330 31 39 69 81 242 1160 1390 4650 10700
2025-05-18 17:00 5.78 46 59600 (1995) 6 (1954) 2330 31 39 69 81 242 1160 1390 4650 10700
2025-05-18 16:30 5.78 46 59600 (1995) 6 (1954) 2330 31 39 69 81 242 1160 1390 4650 10700
2025-05-18 16:00 5.81 49 59600 (1995) 6 (1954) 2330 31 39 69 81 242 1160 1390 4650 10700
2025-05-18 15:30 5.81 49 59600 (1995) 6 (1954) 2330 31 39 69 81 242 1160 1390 4650 10700
2025-05-18 15:00 5.82 51 59600 (1995) 6 (1954) 2330 31 39 69 81 242 1160 1390 4650 10700
2025-05-18 14:30 5.82 51 59600 (1995) 6 (1954) 2330 31 39 69 81 242 1160 1390 4650 10700
2025-05-18 14:00 5.82 51 59600 (1995) 6 (1954) 2330 31 39 69 81 242 1160 1390 4650 10700
2025-05-18 13:30 5.82 51 59600 (1995) 6 (1954) 2330 31 39 69 81 242 1160 1390 4650 10700
2025-05-18 13:00 5.82 51 59600 (1995) 6 (1954) 2330 31 39 69 81 242 1160 1390 4650 10700
2025-05-18 12:30 5.82 51 59600 (1995) 6 (1954) 2330 31 39 69 81 242 1160 1390 4650 10700
2025-05-18 12:00 5.82 51 59600 (1995) 6 (1954) 2330 31 39 69 81 242 1160 1390 4650 10700
2025-05-18 11:30 5.80 48 59600 (1995) 6 (1954) 2330 31 39 69 81 242 1160 1390 4650 10700
2025-05-18 11:00 5.82 51 59600 (1995) 6 (1954) 2330 31 39 69 81 242 1160 1390 4650 10700
2025-05-18 10:30 5.82 51 59600 (1995) 6 (1954) 2330 31 39 69 81 242 1160 1390 4650 10700
2025-05-18 10:00 5.82 51 59600 (1995) 6 (1954) 2330 31 39 69 81 242 1160 1390 4650 10700
2025-05-18 09:30 5.82 51 59600 (1995) 6 (1954) 2330 31 39 69 81 242 1160 1390 4650 10700
2025-05-18 09:00 5.83 52 59600 (1995) 6 (1954) 2330 31 39 69 81 242 1160 1390 4650 10700
2025-05-18 08:30 5.77 45 59600 (1995) 6 (1954) 2330 31 39 69 81 242 1160 1390 4650 10700
2025-05-18 08:00 5.80 48 59600 (1995) 6 (1954) 2330 31 39 69 81 242 1160 1390 4650 10700
2025-05-18 07:30 5.83 52 59600 (1995) 6 (1954) 2330 31 39 69 81 242 1160 1390 4650 10700
2025-05-18 07:00 5.83 52 59600 (1995) 6 (1954) 2330 31 39 69 81 242 1160 1390 4650 10700
2025-05-18 06:30 5.83 52 59600 (1995) 6 (1954) 2330 31 39 69 81 242 1160 1390 4650 10700
2025-05-18 06:00 5.83 52 59600 (1995) 6 (1954) 2330 31 39 69 81 242 1160 1390 4650 10700
2025-05-18 05:30 5.83 52 59600 (1995) 6 (1954) 2330 31 39 69 81 242 1160 1390 4650 10700
2025-05-18 05:00 5.84 53 59600 (1995) 6 (1954) 2330 31 39 69 81 242 1160 1390 4650 10700
2025-05-18 04:30 5.84 53 59600 (1995) 6 (1954) 2330 31 39 69 81 242 1160 1390 4650 10700
2025-05-18 04:00 5.84 53 59600 (1995) 6 (1954) 2330 31 39 69 81 242 1160 1390 4650 10700
2025-05-18 03:30 5.84 53 59600 (1995) 6 (1954) 2330 31 39 69 81 242 1160 1390 4650 10700
2025-05-18 03:00 5.84 53 59600 (1995) 6 (1954) 2330 31 39 69 81 242 1160 1390 4650 10700
2025-05-18 02:30 5.84 53 59600 (1995) 6 (1954) 2330 31 39 69 81 242 1160 1390 4650 10700
2025-05-18 02:00 5.84 53 59600 (1995) 6 (1954) 2330 31 39 69 81 242 1160 1390 4650 10700
2025-05-18 01:30 5.84 53 59600 (1995) 6 (1954) 2330 31 39 69 81 242 1160 1390 4650 10700
2025-05-18 01:00 5.84 53 59600 (1995) 6 (1954) 2330 31 39 69 81 242 1160 1390 4650 10700
2025-05-18 00:30 53 59600 (1995) 6 (1954) 2330 31 39 69 81 242 1160 1390 4650 10700
2025-05-18 00:00 5.84 53 59600 (1995) 6 (1954) 2330 31 39 69 81 242 1160 1390 4650 10700
2025-05-17 23:30 5.84 53 59600 (1995) 6 (1954) 2330 31 39 69 81 242 1160 1390 4650 10700
2025-05-17 23:00 5.83 52 59600 (1995) 6 (1954) 2330 31 39 69 81 242 1160 1390 4650 10700
2025-05-17 22:30 5.84 53 41900 (1990) 7 (1954) 1900 28 42 67 72 166 1090 1570 4130 11300
2025-05-17 22:00 5.83 52 41900 (1990) 7 (1954) 1900 28 42 67 72 166 1090 1570 4130 11300
2025-05-17 21:30 5.84 53 41900 (1990) 7 (1954) 1900 28 42 67 72 166 1090 1570 4130 11300
2025-05-17 21:00 5.84 53 41900 (1990) 7 (1954) 1900 28 42 67 72 166 1090 1570 4130 11300
2025-05-17 20:30 5.83 52 41900 (1990) 7 (1954) 1900 28 42 67 72 166 1090 1570 4130 11300
2025-05-17 20:00 5.83 52 41900 (1990) 7 (1954) 1900 28 42 67 72 166 1090 1570 4130 11300
2025-05-17 19:30 5.83 52 41900 (1990) 7 (1954) 1900 28 42 67 72 166 1090 1570 4130 11300
2025-05-17 19:00 5.79 47 41900 (1990) 7 (1954) 1900 28 42 67 72 166 1090 1570 4130 11300
2025-05-17 18:30 5.77 45 41900 (1990) 7 (1954) 1900 28 42 67 72 166 1090 1570 4130 11300
2025-05-17 18:00 5.79 47 41900 (1990) 7 (1954) 1900 28 42 67 72 166 1090 1570 4130 11300
2025-05-17 17:30 5.77 45 41900 (1990) 7 (1954) 1900 28 42 67 72 166 1090 1570 4130 11300
2025-05-17 17:00 5.78 46 41900 (1990) 7 (1954) 1900 28 42 67 72 166 1090 1570 4130 11300
2025-05-17 16:30 5.78 46 41900 (1990) 7 (1954) 1900 28 42 67 72 166 1090 1570 4130 11300
2025-05-17 16:00 5.78 46 41900 (1990) 7 (1954) 1900 28 42 67 72 166 1090 1570 4130 11300
2025-05-17 15:30 5.75 42 41900 (1990) 7 (1954) 1900 28 42 67 72 166 1090 1570 4130 11300
2025-05-17 15:00 5.76 43 41900 (1990) 7 (1954) 1900 28 42 67 72 166 1090 1570 4130 11300
2025-05-17 14:30 5.76 43 41900 (1990) 7 (1954) 1900 28 42 67 72 166 1090 1570 4130 11300
2025-05-17 14:00 5.78 46 41900 (1990) 7 (1954) 1900 28 42 67 72 166 1090 1570 4130 11300
2025-05-17 13:30 5.80 48 41900 (1990) 7 (1954) 1900 28 42 67 72 166 1090 1570 4130 11300
2025-05-17 13:00 5.76 43 41900 (1990) 7 (1954) 1900 28 42 67 72 166 1090 1570 4130 11300
2025-05-17 12:30 5.79 47 41900 (1990) 7 (1954) 1900 28 42 67 72 166 1090 1570 4130 11300
2025-05-17 12:00 5.83 52 41900 (1990) 7 (1954) 1900 28 42 67 72 166 1090 1570 4130 11300
2025-05-17 11:30 5.80 48 41900 (1990) 7 (1954) 1900 28 42 67 72 166 1090 1570 4130 11300
2025-05-17 11:00 5.78 46 41900 (1990) 7 (1954) 1900 28 42 67 72 166 1090 1570 4130 11300
2025-05-17 10:30 5.80 48 41900 (1990) 7 (1954) 1900 28 42 67 72 166 1090 1570 4130 11300
2025-05-17 10:00 5.78 46 41900 (1990) 7 (1954) 1900 28 42 67 72 166 1090 1570 4130 11300
2025-05-17 09:30 5.77 45 41900 (1990) 7 (1954) 1900 28 42 67 72 166 1090 1570 4130 11300
2025-05-17 09:00 5.77 45 41900 (1990) 7 (1954) 1900 28 42 67 72 166 1090 1570 4130 11300
2025-05-17 08:30 5.78 46 41900 (1990) 7 (1954) 1900 28 42 67 72 166 1090 1570 4130 11300
2025-05-17 08:00 5.77 45 41900 (1990) 7 (1954) 1900 28 42 67 72 166 1090 1570 4130 11300
2025-05-17 07:30 5.79 47 41900 (1990) 7 (1954) 1900 28 42 67 72 166 1090 1570 4130 11300
2025-05-17 07:00 5.80 48 41900 (1990) 7 (1954) 1900 28 42 67 72 166 1090 1570 4130 11300
2025-05-17 06:30 5.83 52 41900 (1990) 7 (1954) 1900 28 42 67 72 166 1090 1570 4130 11300
2025-05-17 06:00 5.83 52 41900 (1990) 7 (1954) 1900 28 42 67 72 166 1090 1570 4130 11300
2025-05-17 05:30 5.85 55 41900 (1990) 7 (1954) 1900 28 42 67 72 166 1090 1570 4130 11300
2025-05-17 05:00 5.81 49 41900 (1990) 7 (1954) 1900 28 42 67 72 166 1090 1570 4130 11300
2025-05-17 04:30 5.81 49 41900 (1990) 7 (1954) 1900 28 42 67 72 166 1090 1570 4130 11300
2025-05-17 04:00 5.84 53 41900 (1990) 7 (1954) 1900 28 42 67 72 166 1090 1570 4130 11300
2025-05-17 03:30 5.80 48 41900 (1990) 7 (1954) 1900 28 42 67 72 166 1090 1570 4130 11300
2025-05-17 03:00 5.83 52 41900 (1990) 7 (1954) 1900 28 42 67 72 166 1090 1570 4130 11300
2025-05-17 02:30 5.87 57 41900 (1990) 7 (1954) 1900 28 42 67 72 166 1090 1570 4130 11300
2025-05-17 02:00 5.82 51 41900 (1990) 7 (1954) 1900 28 42 67 72 166 1090 1570 4130 11300
2025-05-17 01:30 5.82 51 41900 (1990) 7 (1954) 1900 28 42 67 72 166 1090 1570 4130 11300
2025-05-17 01:00 5.83 52 41900 (1990) 7 (1954) 1900 28 42 67 72 166 1090 1570 4130 11300
2025-05-17 00:30 5.83 52 41900 (1990) 7 (1954) 1900 28 42 67 72 166 1090 1570 4130 11300
2025-05-17 00:00 5.87 57 41900 (1990) 7 (1954) 1900 28 42 67 72 166 1090 1570 4130 11300
2025-05-16 23:30 5.81 49 41900 (1990) 7 (1954) 1900 28 42 67 72 166 1090 1570 4130 11300
2025-05-16 23:00 5.81 49 41900 (1990) 7 (1954) 1900 28 42 67 72 166 1090 1570 4130 11300
2025-05-16 22:30 5.82 51 50300 (1990) 7 (1954) 1570 34 42 72 82 204 861 1220 2970 6640
2025-05-16 22:00 5.88 59 50300 (1990) 7 (1954) 1570 34 42 72 82 204 861 1220 2970 6640
2025-05-16 21:30 5.88 59 50300 (1990) 7 (1954) 1570 34 42 72 82 204 861 1220 2970 6640
2025-05-16 21:00 5.83 52 50300 (1990) 7 (1954) 1570 34 42 72 82 204 861 1220 2970 6640
2025-05-16 20:30 5.82 51 50300 (1990) 7 (1954) 1570 34 42 72 82 204 861 1220 2970 6640
2025-05-16 20:00 5.82 51 50300 (1990) 7 (1954) 1570 34 42 72 82 204 861 1220 2970 6640
2025-05-16 19:30 5.81 49 50300 (1990) 7 (1954) 1570 34 42 72 82 204 861 1220 2970 6640
2025-05-16 19:00 5.82 51 50300 (1990) 7 (1954) 1570 34 42 72 82 204 861 1220 2970 6640
2025-05-16 18:30 5.80 48 50300 (1990) 7 (1954) 1570 34 42 72 82 204 861 1220 2970 6640
2025-05-16 18:00 5.82 51 50300 (1990) 7 (1954) 1570 34 42 72 82 204 861 1220 2970 6640
2025-05-16 17:30 5.83 52 50300 (1990) 7 (1954) 1570 34 42 72 82 204 861 1220 2970 6640
2025-05-16 17:00 5.82 51 50300 (1990) 7 (1954) 1570 34 42 72 82 204 861 1220 2970 6640
2025-05-16 16:30 5.81 49 50300 (1990) 7 (1954) 1570 34 42 72 82 204 861 1220 2970 6640
2025-05-16 16:00 5.81 49 50300 (1990) 7 (1954) 1570 34 42 72 82 204 861 1220 2970 6640
2025-05-16 15:30 5.89 60 50300 (1990) 7 (1954) 1570 34 42 72 82 204 861 1220 2970 6640
2025-05-16 15:00 5.89 60 50300 (1990) 7 (1954) 1570 34 42 72 82 204 861 1220 2970 6640
2025-05-16 14:30 5.90 62 50300 (1990) 7 (1954) 1570 34 42 72 82 204 861 1220 2970 6640
2025-05-16 14:00 5.90 62 50300 (1990) 7 (1954) 1570 34 42 72 82 204 861 1220 2970 6640
2025-05-16 13:30 5.90 62 50300 (1990) 7 (1954) 1570 34 42 72 82 204 861 1220 2970 6640
2025-05-16 13:00 5.91 63 50300 (1990) 7 (1954) 1570 34 42 72 82 204 861 1220 2970 6640
2025-05-16 12:30 5.89 60 50300 (1990) 7 (1954) 1570 34 42 72 82 204 861 1220 2970 6640
2025-05-16 12:00 5.88 59 50300 (1990) 7 (1954) 1570 34 42 72 82 204 861 1220 2970 6640
2025-05-16 11:30 5.90 62 50300 (1990) 7 (1954) 1570 34 42 72 82 204 861 1220 2970 6640
2025-05-16 11:00 5.87 57 50300 (1990) 7 (1954) 1570 34 42 72 82 204 861 1220 2970 6640
2025-05-16 10:30 5.91 63 50300 (1990) 7 (1954) 1570 34 42 72 82 204 861 1220 2970 6640
2025-05-16 10:00 5.91 63 50300 (1990) 7 (1954) 1570 34 42 72 82 204 861 1220 2970 6640
2025-05-16 09:30 5.90 62 50300 (1990) 7 (1954) 1570 34 42 72 82 204 861 1220 2970 6640
2025-05-16 09:00 5.90 62 50300 (1990) 7 (1954) 1570 34 42 72 82 204 861 1220 2970 6640
2025-05-16 08:30 5.91 63 50300 (1990) 7 (1954) 1570 34 42 72 82 204 861 1220 2970 6640
2025-05-16 08:00 5.91 63 50300 (1990) 7 (1954) 1570 34 42 72 82 204 861 1220 2970 6640
2025-05-16 07:30 5.91 63 50300 (1990) 7 (1954) 1570 34 42 72 82 204 861 1220 2970 6640
2025-05-16 07:00 5.91 63 50300 (1990) 7 (1954) 1570 34 42 72 82 204 861 1220 2970 6640
2025-05-16 06:30 5.91 63 50300 (1990) 7 (1954) 1570 34 42 72 82 204 861 1220 2970 6640
2025-05-16 06:00 5.91 63 50300 (1990) 7 (1954) 1570 34 42 72 82 204 861 1220 2970 6640
2025-05-16 05:30 5.91 63 50300 (1990) 7 (1954) 1570 34 42 72 82 204 861 1220 2970 6640
2025-05-16 05:00 5.92 65 50300 (1990) 7 (1954) 1570 34 42 72 82 204 861 1220 2970 6640
2025-05-16 04:30 5.92 65 50300 (1990) 7 (1954) 1570 34 42 72 82 204 861 1220 2970 6640
2025-05-16 04:00 5.92 65 50300 (1990) 7 (1954) 1570 34 42 72 82 204 861 1220 2970 6640
2025-05-16 03:30 5.92 65 50300 (1990) 7 (1954) 1570 34 42 72 82 204 861 1220 2970 6640
2025-05-16 03:00 5.92 65 50300 (1990) 7 (1954) 1570 34 42 72 82 204 861 1220 2970 6640
2025-05-16 02:30 5.92 65 50300 (1990) 7 (1954) 1570 34 42 72 82 204 861 1220 2970 6640
2025-05-16 02:00 5.92 65 50300 (1990) 7 (1954) 1570 34 42 72 82 204 861 1220 2970 6640
2025-05-16 01:30 5.92 65 50300 (1990) 7 (1954) 1570 34 42 72 82 204 861 1220 2970 6640
2025-05-16 01:00 5.92 65 50300 (1990) 7 (1954) 1570 34 42 72 82 204 861 1220 2970 6640
2025-05-16 00:30 5.92 65 50300 (1990) 7 (1954) 1570 34 42 72 82 204 861 1220 2970 6640
2025-05-16 00:00 5.93 66 50300 (1990) 7 (1954) 1570 34 42 72 82 204 861 1220 2970 6640
2025-05-15 23:30 5.92 65 50300 (1990) 7 (1954) 1570 34 42 72 82 204 861 1220 2970 6640
2025-05-15 23:00 5.92 65 50300 (1990) 7 (1954) 1570 34 42 72 82 204 861 1220 2970 6640
2025-05-15 22:30 5.93 66 17600 (1970) 8 (1954) 1170 33 45 74 83 168 679 828 2250 6670
2025-05-15 22:00 5.93 66 17600 (1970) 8 (1954) 1170 33 45 74 83 168 679 828 2250 6670
2025-05-15 21:30 5.93 66 17600 (1970) 8 (1954) 1170 33 45 74 83 168 679 828 2250 6670
2025-05-15 21:00 5.93 66 17600 (1970) 8 (1954) 1170 33 45 74 83 168 679 828 2250 6670
2025-05-15 20:30 5.93 66 17600 (1970) 8 (1954) 1170 33 45 74 83 168 679 828 2250 6670
2025-05-15 20:00 5.92 65 17600 (1970) 8 (1954) 1170 33 45 74 83 168 679 828 2250 6670
2025-05-15 19:30 5.91 63 17600 (1970) 8 (1954) 1170 33 45 74 83 168 679 828 2250 6670
2025-05-15 19:00 5.90 62 17600 (1970) 8 (1954) 1170 33 45 74 83 168 679 828 2250 6670
2025-05-15 18:30 5.87 57 17600 (1970) 8 (1954) 1170 33 45 74 83 168 679 828 2250 6670
2025-05-15 18:00 5.88 59 17600 (1970) 8 (1954) 1170 33 45 74 83 168 679 828 2250 6670
2025-05-15 17:30 5.86 56 17600 (1970) 8 (1954) 1170 33 45 74 83 168 679 828 2250 6670
2025-05-15 17:00 5.90 62 17600 (1970) 8 (1954) 1170 33 45 74 83 168 679 828 2250 6670
2025-05-15 16:30 5.90 62 17600 (1970) 8 (1954) 1170 33 45 74 83 168 679 828 2250 6670
2025-05-15 16:00 5.93 66 17600 (1970) 8 (1954) 1170 33 45 74 83 168 679 828 2250 6670
2025-05-15 15:30 5.92 65 17600 (1970) 8 (1954) 1170 33 45 74 83 168 679 828 2250 6670
2025-05-15 15:00 5.94 68 17600 (1970) 8 (1954) 1170 33 45 74 83 168 679 828 2250 6670
2025-05-15 14:30 5.92 65 17600 (1970) 8 (1954) 1170 33 45 74 83 168 679 828 2250 6670
2025-05-15 14:00 5.94 68 17600 (1970) 8 (1954) 1170 33 45 74 83 168 679 828 2250 6670
2025-05-15 13:30 5.93 66 17600 (1970) 8 (1954) 1170 33 45 74 83 168 679 828 2250 6670
2025-05-15 13:00 5.95 69 17600 (1970) 8 (1954) 1170 33 45 74 83 168 679 828 2250 6670
2025-05-15 12:30 5.94 68 17600 (1970) 8 (1954) 1170 33 45 74 83 168 679 828 2250 6670
2025-05-15 12:00 5.95 69 17600 (1970) 8 (1954) 1170 33 45 74 83 168 679 828 2250 6670
2025-05-15 11:30 5.95 69 17600 (1970) 8 (1954) 1170 33 45 74 83 168 679 828 2250 6670
2025-05-15 11:00 5.95 69 17600 (1970) 8 (1954) 1170 33 45 74 83 168 679 828 2250 6670
2025-05-15 10:30 5.95 69 17600 (1970) 8 (1954) 1170 33 45 74 83 168 679 828 2250 6670
2025-05-15 10:00 5.90 62 17600 (1970) 8 (1954) 1170 33 45 74 83 168 679 828 2250 6670
2025-05-15 09:30 5.92 65 17600 (1970) 8 (1954) 1170 33 45 74 83 168 679 828 2250 6670
2025-05-15 09:00 5.95 69 17600 (1970) 8 (1954) 1170 33 45 74 83 168 679 828 2250 6670
2025-05-15 08:30 5.96 71 17600 (1970) 8 (1954) 1170 33 45 74 83 168 679 828 2250 6670
2025-05-15 08:00 5.96 71 17600 (1970) 8 (1954) 1170 33 45 74 83 168 679 828 2250 6670
2025-05-15 07:30 5.96 71 17600 (1970) 8 (1954) 1170 33 45 74 83 168 679 828 2250 6670
2025-05-15 07:00 5.96 71 17600 (1970) 8 (1954) 1170 33 45 74 83 168 679 828 2250 6670
2025-05-15 06:30 5.96 71 17600 (1970) 8 (1954) 1170 33 45 74 83 168 679 828 2250 6670
2025-05-15 06:00 5.96 71 17600 (1970) 8 (1954) 1170 33 45 74 83 168 679 828 2250 6670
2025-05-15 05:30 5.96 71 17600 (1970) 8 (1954) 1170 33 45 74 83 168 679 828 2250 6670
2025-05-15 05:00 5.96 71 17600 (1970) 8 (1954) 1170 33 45 74 83 168 679 828 2250 6670
2025-05-15 04:30 5.96 71 17600 (1970) 8 (1954) 1170 33 45 74 83 168 679 828 2250 6670
2025-05-15 04:00 5.96 71 17600 (1970) 8 (1954) 1170 33 45 74 83 168 679 828 2250 6670
2025-05-15 03:30 5.96 71 17600 (1970) 8 (1954) 1170 33 45 74 83 168 679 828 2250 6670
2025-05-15 03:00 5.96 71 17600 (1970) 8 (1954) 1170 33 45 74 83 168 679 828 2250 6670
2025-05-15 02:30 5.96 71 17600 (1970) 8 (1954) 1170 33 45 74 83 168 679 828 2250 6670
2025-05-15 02:00 5.96 71 17600 (1970) 8 (1954) 1170 33 45 74 83 168 679 828 2250 6670
2025-05-15 01:30 5.97 72 17600 (1970) 8 (1954) 1170 33 45 74 83 168 679 828 2250 6670
2025-05-15 01:00 5.97 72 17600 (1970) 8 (1954) 1170 33 45 74 83 168 679 828 2250 6670
2025-05-15 00:30 5.97 72 17600 (1970) 8 (1954) 1170 33 45 74 83 168 679 828 2250 6670
2025-05-15 00:00 5.97 72 17600 (1970) 8 (1954) 1170 33 45 74 83 168 679 828 2250 6670
2025-05-14 23:30 5.97 72 17600 (1970) 8 (1954) 1170 33 45 74 83 168 679 828 2250 6670
2025-05-14 23:00 5.97 72 17600 (1970) 8 (1954) 1170 33 45 74 83 168 679 828 2250 6670
2025-05-14 22:30 5.97 72 15200 (1929) 8 (1954) 1060 35 49 77 90 189 686 982 2670 6340
2025-05-14 22:00 5.97 72 15200 (1929) 8 (1954) 1060 35 49 77 90 189 686 982 2670 6340
2025-05-14 21:30 5.97 72 15200 (1929) 8 (1954) 1060 35 49 77 90 189 686 982 2670 6340
2025-05-14 21:00 5.97 72 15200 (1929) 8 (1954) 1060 35 49 77 90 189 686 982 2670 6340
2025-05-14 20:30 5.97 72 15200 (1929) 8 (1954) 1060 35 49 77 90 189 686 982 2670 6340
2025-05-14 20:00 5.97 72 15200 (1929) 8 (1954) 1060 35 49 77 90 189 686 982 2670 6340
2025-05-14 19:30 5.97 72 15200 (1929) 8 (1954) 1060 35 49 77 90 189 686 982 2670 6340
2025-05-14 19:00 5.98 74 15200 (1929) 8 (1954) 1060 35 49 77 90 189 686 982 2670 6340
2025-05-14 18:30 5.98 74 15200 (1929) 8 (1954) 1060 35 49 77 90 189 686 982 2670 6340
2025-05-14 18:00 5.92 65 15200 (1929) 8 (1954) 1060 35 49 77 90 189 686 982 2670 6340
2025-05-14 17:30 5.92 65 15200 (1929) 8 (1954) 1060 35 49 77 90 189 686 982 2670 6340
2025-05-14 17:00 5.95 69 15200 (1929) 8 (1954) 1060 35 49 77 90 189 686 982 2670 6340
2025-05-14 16:30 5.93 66 15200 (1929) 8 (1954) 1060 35 49 77 90 189 686 982 2670 6340
2025-05-14 16:00 5.93 66 15200 (1929) 8 (1954) 1060 35 49 77 90 189 686 982 2670 6340
2025-05-14 15:30 5.92 65 15200 (1929) 8 (1954) 1060 35 49 77 90 189 686 982 2670 6340
2025-05-14 15:00 5.90 62 15200 (1929) 8 (1954) 1060 35 49 77 90 189 686 982 2670 6340
2025-05-14 14:30 5.90 62 15200 (1929) 8 (1954) 1060 35 49 77 90 189 686 982 2670 6340
2025-05-14 14:00 5.91 63 15200 (1929) 8 (1954) 1060 35 49 77 90 189 686 982 2670 6340
2025-05-14 13:30 5.96 71 15200 (1929) 8 (1954) 1060 35 49 77 90 189 686 982 2670 6340
2025-05-14 13:00 5.91 63 15200 (1929) 8 (1954) 1060 35 49 77 90 189 686 982 2670 6340
2025-05-14 12:30 5.92 65 15200 (1929) 8 (1954) 1060 35 49 77 90 189 686 982 2670 6340
2025-05-14 12:00 5.92 65 15200 (1929) 8 (1954) 1060 35 49 77 90 189 686 982 2670 6340
2025-05-14 11:30 5.93 66 15200 (1929) 8 (1954) 1060 35 49 77 90 189 686 982 2670 6340
2025-05-14 11:00 5.93 66 15200 (1929) 8 (1954) 1060 35 49 77 90 189 686 982 2670 6340
2025-05-14 10:30 5.90 62 15200 (1929) 8 (1954) 1060 35 49 77 90 189 686 982 2670 6340
2025-05-14 10:00 5.92 65 15200 (1929) 8 (1954) 1060 35 49 77 90 189 686 982 2670 6340
2025-05-14 09:30 5.93 66 15200 (1929) 8 (1954) 1060 35 49 77 90 189 686 982 2670 6340
2025-05-14 09:00 5.94 68 15200 (1929) 8 (1954) 1060 35 49 77 90 189 686 982 2670 6340
2025-05-14 08:30 5.99 76 15200 (1929) 8 (1954) 1060 35 49 77 90 189 686 982 2670 6340
2025-05-14 08:00 5.99 76 15200 (1929) 8 (1954) 1060 35 49 77 90 189 686 982 2670 6340
2025-05-14 07:30 5.99 76 15200 (1929) 8 (1954) 1060 35 49 77 90 189 686 982 2670 6340
2025-05-14 07:00 5.99 76 15200 (1929) 8 (1954) 1060 35 49 77 90 189 686 982 2670 6340
2025-05-14 06:30 5.99 76 15200 (1929) 8 (1954) 1060 35 49 77 90 189 686 982 2670 6340
2025-05-14 06:00 5.99 76 15200 (1929) 8 (1954) 1060 35 49 77 90 189 686 982 2670 6340
2025-05-14 05:30 5.99 76 15200 (1929) 8 (1954) 1060 35 49 77 90 189 686 982 2670 6340
2025-05-14 05:00 5.99 76 15200 (1929) 8 (1954) 1060 35 49 77 90 189 686 982 2670 6340
2025-05-14 04:30 6.00 77 15200 (1929) 8 (1954) 1060 35 49 77 90 189 686 982 2670 6340
2025-05-14 04:00 6.00 77 15200 (1929) 8 (1954) 1060 35 49 77 90 189 686 982 2670 6340
2025-05-14 03:30 6.00 77 15200 (1929) 8 (1954) 1060 35 49 77 90 189 686 982 2670 6340
2025-05-14 03:00 6.00 77 15200 (1929) 8 (1954) 1060 35 49 77 90 189 686 982 2670 6340
2025-05-14 02:30 6.00 77 15200 (1929) 8 (1954) 1060 35 49 77 90 189 686 982 2670 6340
2025-05-14 02:00 6.00 77 15200 (1929) 8 (1954) 1060 35 49 77 90 189 686 982 2670 6340
2025-05-14 01:30 6.00 77 15200 (1929) 8 (1954) 1060 35 49 77 90 189 686 982 2670 6340
2025-05-14 01:00 6.00 77 15200 (1929) 8 (1954) 1060 35 49 77 90 189 686 982 2670 6340
2025-05-14 00:30 6.00 77 15200 (1929) 8 (1954) 1060 35 49 77 90 189 686 982 2670 6340
2025-05-14 00:00 6.00 77 15200 (1929) 8 (1954) 1060 35 49 77 90 189 686 982 2670 6340
2025-05-13 23:30 6.00 77 15200 (1929) 8 (1954) 1060 35 49 77 90 189 686 982 2670 6340
2025-05-13 23:00 6.00 77 15200 (1929) 8 (1954) 1060 35 49 77 90 189 686 982 2670 6340
2025-05-13 22:30 6.00 77 22400 (2002) 10 (1954) 1310 38 54 85 101 215 557 756 2070 7850
2025-05-13 22:00 6.00 77 22400 (2002) 10 (1954) 1310 38 54 85 101 215 557 756 2070 7850
2025-05-13 21:30 6.00 77 22400 (2002) 10 (1954) 1310 38 54 85 101 215 557 756 2070 7850
2025-05-13 21:00 6.00 77 22400 (2002) 10 (1954) 1310 38 54 85 101 215 557 756 2070 7850
2025-05-13 20:30 6.00 77 22400 (2002) 10 (1954) 1310 38 54 85 101 215 557 756 2070 7850
2025-05-13 20:00 6.01 79 22400 (2002) 10 (1954) 1310 38 54 85 101 215 557 756 2070 7850
2025-05-13 19:30 6.01 79 22400 (2002) 10 (1954) 1310 38 54 85 101 215 557 756 2070 7850
2025-05-13 19:00 6.01 79 22400 (2002) 10 (1954) 1310 38 54 85 101 215 557 756 2070 7850
2025-05-13 18:30 6.01 79 22400 (2002) 10 (1954) 1310 38 54 85 101 215 557 756 2070 7850
2025-05-13 18:00 6.01 79 22400 (2002) 10 (1954) 1310 38 54 85 101 215 557 756 2070 7850
2025-05-13 17:30 6.01 79 22400 (2002) 10 (1954) 1310 38 54 85 101 215 557 756 2070 7850
2025-05-13 17:00 6.01 79 22400 (2002) 10 (1954) 1310 38 54 85 101 215 557 756 2070 7850
2025-05-13 16:30 6.02 81 22400 (2002) 10 (1954) 1310 38 54 85 101 215 557 756 2070 7850
2025-05-13 16:00 6.02 81 22400 (2002) 10 (1954) 1310 38 54 85 101 215 557 756 2070 7850
2025-05-13 15:30 5.98 74 22400 (2002) 10 (1954) 1310 38 54 85 101 215 557 756 2070 7850
2025-05-13 15:00 6.02 81 22400 (2002) 10 (1954) 1310 38 54 85 101 215 557 756 2070 7850
2025-05-13 14:30 6.00 77 22400 (2002) 10 (1954) 1310 38 54 85 101 215 557 756 2070 7850
2025-05-13 14:00 6.02 81 22400 (2002) 10 (1954) 1310 38 54 85 101 215 557 756 2070 7850
2025-05-13 13:30 6.02 81 22400 (2002) 10 (1954) 1310 38 54 85 101 215 557 756 2070 7850
2025-05-13 13:00 6.02 81 22400 (2002) 10 (1954) 1310 38 54 85 101 215 557 756 2070 7850
2025-05-13 12:30 6.02 81 22400 (2002) 10 (1954) 1310 38 54 85 101 215 557 756 2070 7850
2025-05-13 12:00 6.02 81 22400 (2002) 10 (1954) 1310 38 54 85 101 215 557 756 2070 7850
2025-05-13 11:30 6.02 81 22400 (2002) 10 (1954) 1310 38 54 85 101 215 557 756 2070 7850
2025-05-13 11:00 6.02 81 22400 (2002) 10 (1954) 1310 38 54 85 101 215 557 756 2070 7850
2025-05-13 10:30 6.02 81 22400 (2002) 10 (1954) 1310 38 54 85 101 215 557 756 2070 7850
2025-05-13 10:00 6.02 81 22400 (2002) 10 (1954) 1310 38 54 85 101 215 557 756 2070 7850
2025-05-13 09:30 6.02 81 22400 (2002) 10 (1954) 1310 38 54 85 101 215 557 756 2070 7850
2025-05-13 09:00 6.02 81 22400 (2002) 10 (1954) 1310 38 54 85 101 215 557 756 2070 7850
2025-05-13 08:30 6.02 81 22400 (2002) 10 (1954) 1310 38 54 85 101 215 557 756 2070 7850
2025-05-13 08:00 6.03 83 22400 (2002) 10 (1954) 1310 38 54 85 101 215 557 756 2070 7850
2025-05-13 07:30 6.03 83 22400 (2002) 10 (1954) 1310 38 54 85 101 215 557 756 2070 7850
2025-05-13 07:00 6.03 83 22400 (2002) 10 (1954) 1310 38 54 85 101 215 557 756 2070 7850
2025-05-13 06:30 6.03 83 22400 (2002) 10 (1954) 1310 38 54 85 101 215 557 756 2070 7850
2025-05-13 06:00 6.02 81 22400 (2002) 10 (1954) 1310 38 54 85 101 215 557 756 2070 7850
2025-05-13 05:30 6.03 83 22400 (2002) 10 (1954) 1310 38 54 85 101 215 557 756 2070 7850
2025-05-13 05:00 6.03 83 22400 (2002) 10 (1954) 1310 38 54 85 101 215 557 756 2070 7850
2025-05-13 04:30 6.03 83 22400 (2002) 10 (1954) 1310 38 54 85 101 215 557 756 2070 7850
2025-05-13 04:00 6.03 83 22400 (2002) 10 (1954) 1310 38 54 85 101 215 557 756 2070 7850
2025-05-13 03:30 6.03 83 22400 (2002) 10 (1954) 1310 38 54 85 101 215 557 756 2070 7850
2025-05-13 03:00 6.03 83 22400 (2002) 10 (1954) 1310 38 54 85 101 215 557 756 2070 7850
2025-05-13 02:30 6.03 83 22400 (2002) 10 (1954) 1310 38 54 85 101 215 557 756 2070 7850
2025-05-13 02:00 6.03 83 22400 (2002) 10 (1954) 1310 38 54 85 101 215 557 756 2070 7850
2025-05-13 01:30 6.03 83 22400 (2002) 10 (1954) 1310 38 54 85 101 215 557 756 2070 7850
2025-05-13 01:00 6.03 83 22400 (2002) 10 (1954) 1310 38 54 85 101 215 557 756 2070 7850
2025-05-13 00:30 6.03 83 22400 (2002) 10 (1954) 1310 38 54 85 101 215 557 756 2070 7850
2025-05-13 00:00 6.03 83 22400 (2002) 10 (1954) 1310 38 54 85 101 215 557 756 2070 7850
2025-05-12 23:30 6.03 83 22400 (2002) 10 (1954) 1310 38 54 85 101 215 557 756 2070 7850
2025-05-12 23:00 6.04 84 22400 (2002) 10 (1954) 1310 38 54 85 101 215 557 756 2070 7850
2025-05-12 22:30 6.03 83 14400 (1929) 12 (1954) 1250 41 58 86 98 216 657 834 5680 8280
2025-05-12 22:00 6.03 83 14400 (1929) 12 (1954) 1250 41 58 86 98 216 657 834 5680 8280
2025-05-12 21:30 6.03 83 14400 (1929) 12 (1954) 1250 41 58 86 98 216 657 834 5680 8280
2025-05-12 21:00 6.03 83 14400 (1929) 12 (1954) 1250 41 58 86 98 216 657 834 5680 8280
2025-05-12 20:30 6.03 83 14400 (1929) 12 (1954) 1250 41 58 86 98 216 657 834 5680 8280
2025-05-12 20:00 6.03 83 14400 (1929) 12 (1954) 1250 41 58 86 98 216 657 834 5680 8280
2025-05-12 19:30 6.04 84 14400 (1929) 12 (1954) 1250 41 58 86 98 216 657 834 5680 8280
2025-05-12 19:00 6.04 84 14400 (1929) 12 (1954) 1250 41 58 86 98 216 657 834 5680 8280
2025-05-12 18:30 6.04 84 14400 (1929) 12 (1954) 1250 41 58 86 98 216 657 834 5680 8280
2025-05-12 18:00 6.04 84 14400 (1929) 12 (1954) 1250 41 58 86 98 216 657 834 5680 8280
2025-05-12 17:30 6.04 84 14400 (1929) 12 (1954) 1250 41 58 86 98 216 657 834 5680 8280
2025-05-12 17:00 6.04 84 14400 (1929) 12 (1954) 1250 41 58 86 98 216 657 834 5680 8280
2025-05-12 16:30 6.05 86 14400 (1929) 12 (1954) 1250 41 58 86 98 216 657 834 5680 8280
2025-05-12 16:00 6.05 86 14400 (1929) 12 (1954) 1250 41 58 86 98 216 657 834 5680 8280
2025-05-12 15:30 6.05 86 14400 (1929) 12 (1954) 1250 41 58 86 98 216 657 834 5680 8280
2025-05-12 15:00 6.04 84 14400 (1929) 12 (1954) 1250 41 58 86 98 216 657 834 5680 8280
2025-05-12 14:30 6.05 86 14400 (1929) 12 (1954) 1250 41 58 86 98 216 657 834 5680 8280
2025-05-12 14:00 6.04 84 14400 (1929) 12 (1954) 1250 41 58 86 98 216 657 834 5680 8280
2025-05-12 13:30 6.04 84 14400 (1929) 12 (1954) 1250 41 58 86 98 216 657 834 5680 8280
2025-05-12 13:00 6.04 84 14400 (1929) 12 (1954) 1250 41 58 86 98 216 657 834 5680 8280
2025-05-12 12:30 6.05 86 14400 (1929) 12 (1954) 1250 41 58 86 98 216 657 834 5680 8280
2025-05-12 12:00 6.05 86 14400 (1929) 12 (1954) 1250 41 58 86 98 216 657 834 5680 8280
2025-05-12 11:30 6.05 86 14400 (1929) 12 (1954) 1250 41 58 86 98 216 657 834 5680 8280
2025-05-12 11:00 6.05 86 14400 (1929) 12 (1954) 1250 41 58 86 98 216 657 834 5680 8280
2025-05-12 10:30 6.05 86 14400 (1929) 12 (1954) 1250 41 58 86 98 216 657 834 5680 8280
2025-05-12 10:00 6.05 86 14400 (1929) 12 (1954) 1250 41 58 86 98 216 657 834 5680 8280
2025-05-12 09:30 6.05 86 14400 (1929) 12 (1954) 1250 41 58 86 98 216 657 834 5680 8280
2025-05-12 09:00 6.05 86 14400 (1929) 12 (1954) 1250 41 58 86 98 216 657 834 5680 8280
2025-05-12 08:30 6.05 86 14400 (1929) 12 (1954) 1250 41 58 86 98 216 657 834 5680 8280
2025-05-12 08:00 6.05 86 14400 (1929) 12 (1954) 1250 41 58 86 98 216 657 834 5680 8280
2025-05-12 07:30 6.05 86 14400 (1929) 12 (1954) 1250 41 58 86 98 216 657 834 5680 8280
2025-05-12 07:00 6.05 86 14400 (1929) 12 (1954) 1250 41 58 86 98 216 657 834 5680 8280
2025-05-12 06:30 6.06 88 14400 (1929) 12 (1954) 1250 41 58 86 98 216 657 834 5680 8280
2025-05-12 06:00 6.06 88 14400 (1929) 12 (1954) 1250 41 58 86 98 216 657 834 5680 8280
2025-05-12 05:30 6.05 86 14400 (1929) 12 (1954) 1250 41 58 86 98 216 657 834 5680 8280
2025-05-12 05:00 6.06 88 14400 (1929) 12 (1954) 1250 41 58 86 98 216 657 834 5680 8280
2025-05-12 04:30 6.06 88 14400 (1929) 12 (1954) 1250 41 58 86 98 216 657 834 5680 8280
2025-05-12 04:00 6.06 88 14400 (1929) 12 (1954) 1250 41 58 86 98 216 657 834 5680 8280
2025-05-12 03:30 6.06 88 14400 (1929) 12 (1954) 1250 41 58 86 98 216 657 834 5680 8280
2025-05-12 03:00 6.06 88 14400 (1929) 12 (1954) 1250 41 58 86 98 216 657 834 5680 8280
2025-05-12 02:30 6.06 88 14400 (1929) 12 (1954) 1250 41 58 86 98 216 657 834 5680 8280
2025-05-12 02:00 88 14400 (1929) 12 (1954) 1250 41 58 86 98 216 657 834 5680 8280
2025-05-12 01:30 6.06 88 14400 (1929) 12 (1954) 1250 41 58 86 98 216 657 834 5680 8280
2025-05-12 01:00 6.06 88 14400 (1929) 12 (1954) 1250 41 58 86 98 216 657 834 5680 8280
2025-05-12 00:30 6.06 88 14400 (1929) 12 (1954) 1250 41 58 86 98 216 657 834 5680 8280
2025-05-12 00:00 6.06 88 14400 (1929) 12 (1954) 1250 41 58 86 98 216 657 834 5680 8280
2025-05-11 23:30 6.06 88 14400 (1929) 12 (1954) 1250 41 58 86 98 216 657 834 5680 8280
2025-05-11 23:00 6.06 88 14400 (1929) 12 (1954) 1250 41 58 86 98 216 657 834 5680 8280
2025-05-11 22:30 6.06 88 31300 (2003) 17 (1954) 1310 31 55 72 87 235 540 799 2730 8750
2025-05-11 22:00 6.06 88 31300 (2003) 17 (1954) 1310 31 55 72 87 235 540 799 2730 8750
2025-05-11 21:30 6.06 88 31300 (2003) 17 (1954) 1310 31 55 72 87 235 540 799 2730 8750
2025-05-11 21:00 6.07 90 31300 (2003) 17 (1954) 1310 31 55 72 87 235 540 799 2730 8750
2025-05-11 20:30 6.07 90 31300 (2003) 17 (1954) 1310 31 55 72 87 235 540 799 2730 8750
2025-05-11 20:00 6.07 90 31300 (2003) 17 (1954) 1310 31 55 72 87 235 540 799 2730 8750
2025-05-11 19:30 6.07 90 31300 (2003) 17 (1954) 1310 31 55 72 87 235 540 799 2730 8750
2025-05-11 19:00 6.07 90 31300 (2003) 17 (1954) 1310 31 55 72 87 235 540 799 2730 8750
2025-05-11 18:30 6.07 90 31300 (2003) 17 (1954) 1310 31 55 72 87 235 540 799 2730 8750
2025-05-11 18:00 6.05 86 31300 (2003) 17 (1954) 1310 31 55 72 87 235 540 799 2730 8750
2025-05-11 17:30 6.00 77 31300 (2003) 17 (1954) 1310 31 55 72 87 235 540 799 2730 8750
2025-05-11 17:00 6.04 84 31300 (2003) 17 (1954) 1310 31 55 72 87 235 540 799 2730 8750
2025-05-11 16:30 6.06 88 31300 (2003) 17 (1954) 1310 31 55 72 87 235 540 799 2730 8750
2025-05-11 16:00 6.01 79 31300 (2003) 17 (1954) 1310 31 55 72 87 235 540 799 2730 8750
2025-05-11 15:30 6.03 83 31300 (2003) 17 (1954) 1310 31 55 72 87 235 540 799 2730 8750
2025-05-11 15:00 6.03 83 31300 (2003) 17 (1954) 1310 31 55 72 87 235 540 799 2730 8750
2025-05-11 14:30 6.04 84 31300 (2003) 17 (1954) 1310 31 55 72 87 235 540 799 2730 8750
2025-05-11 14:00 6.02 81 31300 (2003) 17 (1954) 1310 31 55 72 87 235 540 799 2730 8750
2025-05-11 13:30 6.02 81 31300 (2003) 17 (1954) 1310 31 55 72 87 235 540 799 2730 8750
2025-05-11 13:00 6.04 84 31300 (2003) 17 (1954) 1310 31 55 72 87 235 540 799 2730 8750
2025-05-11 12:30 6.05 86 31300 (2003) 17 (1954) 1310 31 55 72 87 235 540 799 2730 8750
2025-05-11 12:00 6.09 94 31300 (2003) 17 (1954) 1310 31 55 72 87 235 540 799 2730 8750
2025-05-11 11:30 6.05 86 31300 (2003) 17 (1954) 1310 31 55 72 87 235 540 799 2730 8750
2025-05-11 11:00 6.10 96 31300 (2003) 17 (1954) 1310 31 55 72 87 235 540 799 2730 8750
2025-05-11 10:30 6.10 96 31300 (2003) 17 (1954) 1310 31 55 72 87 235 540 799 2730 8750
2025-05-11 10:00 6.10 96 31300 (2003) 17 (1954) 1310 31 55 72 87 235 540 799 2730 8750
2025-05-11 09:30 6.10 96 31300 (2003) 17 (1954) 1310 31 55 72 87 235 540 799 2730 8750
2025-05-11 09:00 6.10 96 31300 (2003) 17 (1954) 1310 31 55 72 87 235 540 799 2730 8750
2025-05-11 08:30 6.10 96 31300 (2003) 17 (1954) 1310 31 55 72 87 235 540 799 2730 8750
2025-05-11 08:00 6.10 96 31300 (2003) 17 (1954) 1310 31 55 72 87 235 540 799 2730 8750
2025-05-11 07:30 6.11 98 31300 (2003) 17 (1954) 1310 31 55 72 87 235 540 799 2730 8750
2025-05-11 07:00 6.11 98 31300 (2003) 17 (1954) 1310 31 55 72 87 235 540 799 2730 8750
2025-05-11 06:30 6.11 98 31300 (2003) 17 (1954) 1310 31 55 72 87 235 540 799 2730 8750
2025-05-11 06:00 6.11 98 31300 (2003) 17 (1954) 1310 31 55 72 87 235 540 799 2730 8750
2025-05-11 05:30 6.11 98 31300 (2003) 17 (1954) 1310 31 55 72 87 235 540 799 2730 8750
2025-05-11 05:00 6.11 98 31300 (2003) 17 (1954) 1310 31 55 72 87 235 540 799 2730 8750
2025-05-11 04:30 6.11 98 31300 (2003) 17 (1954) 1310 31 55 72 87 235 540 799 2730 8750
2025-05-11 04:00 6.11 98 31300 (2003) 17 (1954) 1310 31 55 72 87 235 540 799 2730 8750
2025-05-11 03:30 6.11 98 31300 (2003) 17 (1954) 1310 31 55 72 87 235 540 799 2730 8750
2025-05-11 03:00 6.12 100 31300 (2003) 17 (1954) 1310 31 55 72 87 235 540 799 2730 8750
2025-05-11 02:30 6.12 100 31300 (2003) 17 (1954) 1310 31 55 72 87 235 540 799 2730 8750
2025-05-11 02:00 6.12 100 31300 (2003) 17 (1954) 1310 31 55 72 87 235 540 799 2730 8750
2025-05-11 01:30 6.12 100 31300 (2003) 17 (1954) 1310 31 55 72 87 235 540 799 2730 8750
2025-05-11 01:00 6.12 100 31300 (2003) 17 (1954) 1310 31 55 72 87 235 540 799 2730 8750
2025-05-11 00:30 6.12 100 31300 (2003) 17 (1954) 1310 31 55 72 87 235 540 799 2730 8750
2025-05-11 00:00 6.12 100 31300 (2003) 17 (1954) 1310 31 55 72 87 235 540 799 2730 8750
2025-05-10 23:30 6.12 100 31300 (2003) 17 (1954) 1310 31 55 72 87 235 540 799 2730 8750
2025-05-10 23:00 6.12 100 31300 (2003) 17 (1954) 1310 31 55 72 87 235 540 799 2730 8750
2025-05-10 22:30 6.12 100 14200 (1927) 22 (1954) 909 39 53 76 89 219 677 835 1840 4050
2025-05-10 22:00 6.12 100 14200 (1927) 22 (1954) 909 39 53 76 89 219 677 835 1840 4050
2025-05-10 21:30 6.12 100 14200 (1927) 22 (1954) 909 39 53 76 89 219 677 835 1840 4050
2025-05-10 21:00 6.12 100 14200 (1927) 22 (1954) 909 39 53 76 89 219 677 835 1840 4050
2025-05-10 20:30 6.13 102 14200 (1927) 22 (1954) 909 39 53 76 89 219 677 835 1840 4050
2025-05-10 20:00 6.13 102 14200 (1927) 22 (1954) 909 39 53 76 89 219 677 835 1840 4050
2025-05-10 19:30 6.13 102 14200 (1927) 22 (1954) 909 39 53 76 89 219 677 835 1840 4050
2025-05-10 19:00 6.13 102 14200 (1927) 22 (1954) 909 39 53 76 89 219 677 835 1840 4050
2025-05-10 18:30 6.13 102 14200 (1927) 22 (1954) 909 39 53 76 89 219 677 835 1840 4050
2025-05-10 18:00 6.14 104 14200 (1927) 22 (1954) 909 39 53 76 89 219 677 835 1840 4050
2025-05-10 17:30 6.14 104 14200 (1927) 22 (1954) 909 39 53 76 89 219 677 835 1840 4050
2025-05-10 17:00 6.14 104 14200 (1927) 22 (1954) 909 39 53 76 89 219 677 835 1840 4050
2025-05-10 16:30 6.14 104 14200 (1927) 22 (1954) 909 39 53 76 89 219 677 835 1840 4050
2025-05-10 16:00 6.15 106 14200 (1927) 22 (1954) 909 39 53 76 89 219 677 835 1840 4050
2025-05-10 15:30 6.13 102 14200 (1927) 22 (1954) 909 39 53 76 89 219 677 835 1840 4050
2025-05-10 15:00 6.15 106 14200 (1927) 22 (1954) 909 39 53 76 89 219 677 835 1840 4050
2025-05-10 14:30 6.14 104 14200 (1927) 22 (1954) 909 39 53 76 89 219 677 835 1840 4050
2025-05-10 14:00 6.15 106 14200 (1927) 22 (1954) 909 39 53 76 89 219 677 835 1840 4050
2025-05-10 13:30 6.15 106 14200 (1927) 22 (1954) 909 39 53 76 89 219 677 835 1840 4050
2025-05-10 13:00 6.15 106 14200 (1927) 22 (1954) 909 39 53 76 89 219 677 835 1840 4050
2025-05-10 12:30 6.14 104 14200 (1927) 22 (1954) 909 39 53 76 89 219 677 835 1840 4050
2025-05-10 12:00 6.16 108 14200 (1927) 22 (1954) 909 39 53 76 89 219 677 835 1840 4050
2025-05-10 11:30 6.16 108 14200 (1927) 22 (1954) 909 39 53 76 89 219 677 835 1840 4050
2025-05-10 11:00 6.13 102 14200 (1927) 22 (1954) 909 39 53 76 89 219 677 835 1840 4050
2025-05-10 10:30 6.10 96 14200 (1927) 22 (1954) 909 39 53 76 89 219 677 835 1840 4050
2025-05-10 10:00 6.16 108 14200 (1927) 22 (1954) 909 39 53 76 89 219 677 835 1840 4050
2025-05-10 09:30 6.16 108 14200 (1927) 22 (1954) 909 39 53 76 89 219 677 835 1840 4050
2025-05-10 09:00 6.16 108 14200 (1927) 22 (1954) 909 39 53 76 89 219 677 835 1840 4050
2025-05-10 08:30 6.13 102 14200 (1927) 22 (1954) 909 39 53 76 89 219 677 835 1840 4050
2025-05-10 08:00 6.11 98 14200 (1927) 22 (1954) 909 39 53 76 89 219 677 835 1840 4050
2025-05-10 07:30 6.13 102 14200 (1927) 22 (1954) 909 39 53 76 89 219 677 835 1840 4050
2025-05-10 07:00 6.16 108 14200 (1927) 22 (1954) 909 39 53 76 89 219 677 835 1840 4050
2025-05-10 06:30 6.16 108 14200 (1927) 22 (1954) 909 39 53 76 89 219 677 835 1840 4050
2025-05-10 06:00 6.18 112 14200 (1927) 22 (1954) 909 39 53 76 89 219 677 835 1840 4050
2025-05-10 05:30 6.18 112 14200 (1927) 22 (1954) 909 39 53 76 89 219 677 835 1840 4050
2025-05-10 05:00 6.18 112 14200 (1927) 22 (1954) 909 39 53 76 89 219 677 835 1840 4050
2025-05-10 04:30 6.18 112 14200 (1927) 22 (1954) 909 39 53 76 89 219 677 835 1840 4050
2025-05-10 04:00 6.18 112 14200 (1927) 22 (1954) 909 39 53 76 89 219 677 835 1840 4050
2025-05-10 03:30 6.18 112 14200 (1927) 22 (1954) 909 39 53 76 89 219 677 835 1840 4050
2025-05-10 03:00 6.18 112 14200 (1927) 22 (1954) 909 39 53 76 89 219 677 835 1840 4050
2025-05-10 02:30 6.18 112 14200 (1927) 22 (1954) 909 39 53 76 89 219 677 835 1840 4050
2025-05-10 02:00 6.19 114 14200 (1927) 22 (1954) 909 39 53 76 89 219 677 835 1840 4050
2025-05-10 01:30 6.19 114 14200 (1927) 22 (1954) 909 39 53 76 89 219 677 835 1840 4050
2025-05-10 01:00 6.19 114 14200 (1927) 22 (1954) 909 39 53 76 89 219 677 835 1840 4050
2025-05-10 00:30 6.18 112 14200 (1927) 22 (1954) 909 39 53 76 89 219 677 835 1840 4050
2025-05-10 00:00 6.19 114 14200 (1927) 22 (1954) 909 39 53 76 89 219 677 835 1840 4050
2025-05-09 23:30 6.19 114 14200 (1927) 22 (1954) 909 39 53 76 89 219 677 835 1840 4050
2025-05-09 23:00 6.19 114 14200 (1927) 22 (1954) 909 39 53 76 89 219 677 835 1840 4050
2025-05-09 22:30 6.19 114 16300 (1961) 23 (1934) 1190 37 50 75 86 217 645 977 3700 7480
2025-05-09 22:00 6.19 114 16300 (1961) 23 (1934) 1190 37 50 75 86 217 645 977 3700 7480
2025-05-09 21:30 6.19 114 16300 (1961) 23 (1934) 1190 37 50 75 86 217 645 977 3700 7480
2025-05-09 21:00 6.19 114 16300 (1961) 23 (1934) 1190 37 50 75 86 217 645 977 3700 7480
2025-05-09 20:30 6.20 117 16300 (1961) 23 (1934) 1190 37 50 75 86 217 645 977 3700 7480
2025-05-09 20:00 6.20 117 16300 (1961) 23 (1934) 1190 37 50 75 86 217 645 977 3700 7480
2025-05-09 19:30 6.20 117 16300 (1961) 23 (1934) 1190 37 50 75 86 217 645 977 3700 7480
2025-05-09 19:00 6.20 117 16300 (1961) 23 (1934) 1190 37 50 75 86 217 645 977 3700 7480
2025-05-09 18:30 6.20 117 16300 (1961) 23 (1934) 1190 37 50 75 86 217 645 977 3700 7480
2025-05-09 18:00 6.21 119 16300 (1961) 23 (1934) 1190 37 50 75 86 217 645 977 3700 7480
2025-05-09 17:30 6.20 117 16300 (1961) 23 (1934) 1190 37 50 75 86 217 645 977 3700 7480
2025-05-09 17:00 6.21 119 16300 (1961) 23 (1934) 1190 37 50 75 86 217 645 977 3700 7480
2025-05-09 16:30 6.21 119 16300 (1961) 23 (1934) 1190 37 50 75 86 217 645 977 3700 7480
2025-05-09 16:00 6.22 121 16300 (1961) 23 (1934) 1190 37 50 75 86 217 645 977 3700 7480
2025-05-09 15:30 6.22 121 16300 (1961) 23 (1934) 1190 37 50 75 86 217 645 977 3700 7480
2025-05-09 15:00 6.20 117 16300 (1961) 23 (1934) 1190 37 50 75 86 217 645 977 3700 7480
2025-05-09 14:30 6.22 121 16300 (1961) 23 (1934) 1190 37 50 75 86 217 645 977 3700 7480
2025-05-09 14:00 6.22 121 16300 (1961) 23 (1934) 1190 37 50 75 86 217 645 977 3700 7480
2025-05-09 13:30 6.22 121 16300 (1961) 23 (1934) 1190 37 50 75 86 217 645 977 3700 7480
2025-05-09 13:00 6.19 114 16300 (1961) 23 (1934) 1190 37 50 75 86 217 645 977 3700 7480
2025-05-09 12:30 6.21 119 16300 (1961) 23 (1934) 1190 37 50 75 86 217 645 977 3700 7480
2025-05-09 12:00 6.16 108 16300 (1961) 23 (1934) 1190 37 50 75 86 217 645 977 3700 7480
2025-05-09 11:30 6.22 121 16300 (1961) 23 (1934) 1190 37 50 75 86 217 645 977 3700 7480
2025-05-09 11:00 6.23 123 16300 (1961) 23 (1934) 1190 37 50 75 86 217 645 977 3700 7480
2025-05-09 10:30 6.21 119 16300 (1961) 23 (1934) 1190 37 50 75 86 217 645 977 3700 7480
2025-05-09 10:00 6.22 121 16300 (1961) 23 (1934) 1190 37 50 75 86 217 645 977 3700 7480
2025-05-09 09:30 6.23 123 16300 (1961) 23 (1934) 1190 37 50 75 86 217 645 977 3700 7480
2025-05-09 09:00 6.23 123 16300 (1961) 23 (1934) 1190 37 50 75 86 217 645 977 3700 7480
2025-05-09 08:30 6.22 121 16300 (1961) 23 (1934) 1190 37 50 75 86 217 645 977 3700 7480
2025-05-09 08:00 6.24 126 16300 (1961) 23 (1934) 1190 37 50 75 86 217 645 977 3700 7480
2025-05-09 07:30 6.24 126 16300 (1961) 23 (1934) 1190 37 50 75 86 217 645 977 3700 7480
2025-05-09 07:00 6.25 128 16300 (1961) 23 (1934) 1190 37 50 75 86 217 645 977 3700 7480
2025-05-09 06:30 6.25 128 16300 (1961) 23 (1934) 1190 37 50 75 86 217 645 977 3700 7480
2025-05-09 06:00 6.25 128 16300 (1961) 23 (1934) 1190 37 50 75 86 217 645 977 3700 7480
2025-05-09 05:30 6.25 128 16300 (1961) 23 (1934) 1190 37 50 75 86 217 645 977 3700 7480
2025-05-09 05:00 6.26 131 16300 (1961) 23 (1934) 1190 37 50 75 86 217 645 977 3700 7480
2025-05-09 04:30 6.26 131 16300 (1961) 23 (1934) 1190 37 50 75 86 217 645 977 3700 7480
2025-05-09 04:00 6.26 131 16300 (1961) 23 (1934) 1190 37 50 75 86 217 645 977 3700 7480
2025-05-09 03:30 6.26 131 16300 (1961) 23 (1934) 1190 37 50 75 86 217 645 977 3700 7480
2025-05-09 03:00 6.26 131 16300 (1961) 23 (1934) 1190 37 50 75 86 217 645 977 3700 7480
2025-05-09 02:30 6.26 131 16300 (1961) 23 (1934) 1190 37 50 75 86 217 645 977 3700 7480
2025-05-09 02:00 6.26 131 16300 (1961) 23 (1934) 1190 37 50 75 86 217 645 977 3700 7480
2025-05-09 01:30 6.26 131 16300 (1961) 23 (1934) 1190 37 50 75 86 217 645 977 3700 7480
2025-05-09 01:00 6.26 131 16300 (1961) 23 (1934) 1190 37 50 75 86 217 645 977 3700 7480
2025-05-09 00:30 6.24 126 16300 (1961) 23 (1934) 1190 37 50 75 86 217 645 977 3700 7480
2025-05-09 00:00 6.24 126 16300 (1961) 23 (1934) 1190 37 50 75 86 217 645 977 3700 7480
2025-05-08 23:30 6.26 131 16300 (1961) 23 (1934) 1190 37 50 75 86 217 645 977 3700 7480
2025-05-08 23:00 6.26 131 16300 (1961) 23 (1934) 1190 37 50 75 86 217 645 977 3700 7480
2025-05-08 22:30 6.26 131 21000 (2002) 18 (1981) 1580 36 48 74 88 233 703 1470 3100 13300
2025-05-08 22:00 6.26 131 21000 (2002) 18 (1981) 1580 36 48 74 88 233 703 1470 3100 13300
2025-05-08 21:30 6.26 131 21000 (2002) 18 (1981) 1580 36 48 74 88 233 703 1470 3100 13300
2025-05-08 21:00 6.27 133 21000 (2002) 18 (1981) 1580 36 48 74 88 233 703 1470 3100 13300
2025-05-08 20:30 6.27 133 21000 (2002) 18 (1981) 1580 36 48 74 88 233 703 1470 3100 13300
2025-05-08 20:00 6.27 133 21000 (2002) 18 (1981) 1580 36 48 74 88 233 703 1470 3100 13300
2025-05-08 19:30 6.27 133 21000 (2002) 18 (1981) 1580 36 48 74 88 233 703 1470 3100 13300
2025-05-08 19:00 6.27 133 21000 (2002) 18 (1981) 1580 36 48 74 88 233 703 1470 3100 13300
2025-05-08 18:30 6.27 133 21000 (2002) 18 (1981) 1580 36 48 74 88 233 703 1470 3100 13300
2025-05-08 18:00 6.27 133 21000 (2002) 18 (1981) 1580 36 48 74 88 233 703 1470 3100 13300
2025-05-08 17:30 6.27 133 21000 (2002) 18 (1981) 1580 36 48 74 88 233 703 1470 3100 13300
2025-05-08 17:00 6.26 131 21000 (2002) 18 (1981) 1580 36 48 74 88 233 703 1470 3100 13300
2025-05-08 16:30 6.27 133 21000 (2002) 18 (1981) 1580 36 48 74 88 233 703 1470 3100 13300
2025-05-08 16:00 6.28 136 21000 (2002) 18 (1981) 1580 36 48 74 88 233 703 1470 3100 13300
2025-05-08 15:30 6.28 136 21000 (2002) 18 (1981) 1580 36 48 74 88 233 703 1470 3100 13300
2025-05-08 15:00 6.27 133 21000 (2002) 18 (1981) 1580 36 48 74 88 233 703 1470 3100 13300
2025-05-08 14:30 6.28 136 21000 (2002) 18 (1981) 1580 36 48 74 88 233 703 1470 3100 13300
2025-05-08 14:00 6.28 136 21000 (2002) 18 (1981) 1580 36 48 74 88 233 703 1470 3100 13300
2025-05-08 13:30 6.28 136 21000 (2002) 18 (1981) 1580 36 48 74 88 233 703 1470 3100 13300
2025-05-08 13:00 6.23 123 21000 (2002) 18 (1981) 1580 36 48 74 88 233 703 1470 3100 13300
2025-05-08 12:30 6.28 136 21000 (2002) 18 (1981) 1580 36 48 74 88 233 703 1470 3100 13300
2025-05-08 12:00 6.29 138 21000 (2002) 18 (1981) 1580 36 48 74 88 233 703 1470 3100 13300
2025-05-08 11:30 6.29 138 21000 (2002) 18 (1981) 1580 36 48 74 88 233 703 1470 3100 13300
2025-05-08 11:00 6.29 138 21000 (2002) 18 (1981) 1580 36 48 74 88 233 703 1470 3100 13300
2025-05-08 10:30 6.29 138 21000 (2002) 18 (1981) 1580 36 48 74 88 233 703 1470 3100 13300
2025-05-08 10:00 6.29 138 21000 (2002) 18 (1981) 1580 36 48 74 88 233 703 1470 3100 13300
2025-05-08 09:30 6.29 138 21000 (2002) 18 (1981) 1580 36 48 74 88 233 703 1470 3100 13300
2025-05-08 09:00 6.29 138 21000 (2002) 18 (1981) 1580 36 48 74 88 233 703 1470 3100 13300
2025-05-08 08:30 6.30 141 21000 (2002) 18 (1981) 1580 36 48 74 88 233 703 1470 3100 13300
2025-05-08 08:00 6.30 141 21000 (2002) 18 (1981) 1580 36 48 74 88 233 703 1470 3100 13300
2025-05-08 07:30 6.30 141 21000 (2002) 18 (1981) 1580 36 48 74 88 233 703 1470 3100 13300
2025-05-08 07:00 6.29 138 21000 (2002) 18 (1981) 1580 36 48 74 88 233 703 1470 3100 13300
2025-05-08 06:30 6.28 136 21000 (2002) 18 (1981) 1580 36 48 74 88 233 703 1470 3100 13300
2025-05-08 06:00 6.31 143 21000 (2002) 18 (1981) 1580 36 48 74 88 233 703 1470 3100 13300
2025-05-08 05:30 6.31 143 21000 (2002) 18 (1981) 1580 36 48 74 88 233 703 1470 3100 13300
2025-05-08 05:00 6.31 143 21000 (2002) 18 (1981) 1580 36 48 74 88 233 703 1470 3100 13300
2025-05-08 04:30 6.31 143 21000 (2002) 18 (1981) 1580 36 48 74 88 233 703 1470 3100 13300
2025-05-08 04:00 6.31 143 21000 (2002) 18 (1981) 1580 36 48 74 88 233 703 1470 3100 13300
2025-05-08 03:30 6.31 143 21000 (2002) 18 (1981) 1580 36 48 74 88 233 703 1470 3100 13300
2025-05-08 03:00 6.31 143 21000 (2002) 18 (1981) 1580 36 48 74 88 233 703 1470 3100 13300
2025-05-08 02:30 6.31 143 21000 (2002) 18 (1981) 1580 36 48 74 88 233 703 1470 3100 13300
2025-05-08 02:00 6.31 143 21000 (2002) 18 (1981) 1580 36 48 74 88 233 703 1470 3100 13300
2025-05-08 01:30 6.32 146 21000 (2002) 18 (1981) 1580 36 48 74 88 233 703 1470 3100 13300
2025-05-08 01:00 6.32 146 21000 (2002) 18 (1981) 1580 36 48 74 88 233 703 1470 3100 13300
2025-05-08 00:30 6.32 146 21000 (2002) 18 (1981) 1580 36 48 74 88 233 703 1470 3100 13300
2025-05-08 00:00 6.32 146 21000 (2002) 18 (1981) 1580 36 48 74 88 233 703 1470 3100 13300
2025-05-07 23:30 6.32 146 21000 (2002) 18 (1981) 1580 36 48 74 88 233 703 1470 3100 13300
2025-05-07 23:00 6.33 148 21000 (2002) 18 (1981) 1580 36 48 74 88 233 703 1470 3100 13300
2025-05-07 22:30 6.32 146 36600 (2002) 20 (1934) 1300 43 54 76 89 248 816 996 1920 7070
2025-05-07 22:00 6.33 148 36600 (2002) 20 (1934) 1300 43 54 76 89 248 816 996 1920 7070
2025-05-07 21:30 6.33 148 36600 (2002) 20 (1934) 1300 43 54 76 89 248 816 996 1920 7070
2025-05-07 21:00 6.33 148 36600 (2002) 20 (1934) 1300 43 54 76 89 248 816 996 1920 7070
2025-05-07 20:30 6.32 146 36600 (2002) 20 (1934) 1300 43 54 76 89 248 816 996 1920 7070
2025-05-07 20:00 6.33 148 36600 (2002) 20 (1934) 1300 43 54 76 89 248 816 996 1920 7070
2025-05-07 19:30 6.31 143 36600 (2002) 20 (1934) 1300 43 54 76 89 248 816 996 1920 7070
2025-05-07 19:00 6.33 148 36600 (2002) 20 (1934) 1300 43 54 76 89 248 816 996 1920 7070
2025-05-07 18:30 6.33 148 36600 (2002) 20 (1934) 1300 43 54 76 89 248 816 996 1920 7070
2025-05-07 18:00 6.34 151 36600 (2002) 20 (1934) 1300 43 54 76 89 248 816 996 1920 7070
2025-05-07 17:30 6.34 151 36600 (2002) 20 (1934) 1300 43 54 76 89 248 816 996 1920 7070
2025-05-07 17:00 6.34 151 36600 (2002) 20 (1934) 1300 43 54 76 89 248 816 996 1920 7070
2025-05-07 16:30 6.31 143 36600 (2002) 20 (1934) 1300 43 54 76 89 248 816 996 1920 7070
2025-05-07 16:00 6.29 138 36600 (2002) 20 (1934) 1300 43 54 76 89 248 816 996 1920 7070
2025-05-07 15:30 6.30 141 36600 (2002) 20 (1934) 1300 43 54 76 89 248 816 996 1920 7070
2025-05-07 15:00 6.28 136 36600 (2002) 20 (1934) 1300 43 54 76 89 248 816 996 1920 7070
2025-05-07 14:30 6.28 136 36600 (2002) 20 (1934) 1300 43 54 76 89 248 816 996 1920 7070
2025-05-07 14:00 6.30 141 36600 (2002) 20 (1934) 1300 43 54 76 89 248 816 996 1920 7070
2025-05-07 13:30 6.28 136 36600 (2002) 20 (1934) 1300 43 54 76 89 248 816 996 1920 7070
2025-05-07 13:00 6.27 133 36600 (2002) 20 (1934) 1300 43 54 76 89 248 816 996 1920 7070
2025-05-07 12:30 6.27 133 36600 (2002) 20 (1934) 1300 43 54 76 89 248 816 996 1920 7070
2025-05-07 12:00 6.28 136 36600 (2002) 20 (1934) 1300 43 54 76 89 248 816 996 1920 7070
2025-05-07 11:30 6.30 141 36600 (2002) 20 (1934) 1300 43 54 76 89 248 816 996 1920 7070
2025-05-07 11:00 6.28 136 36600 (2002) 20 (1934) 1300 43 54 76 89 248 816 996 1920 7070
2025-05-07 10:30 6.36 157 36600 (2002) 20 (1934) 1300 43 54 76 89 248 816 996 1920 7070
2025-05-07 10:00 6.37 159 36600 (2002) 20 (1934) 1300 43 54 76 89 248 816 996 1920 7070
2025-05-07 09:30 6.36 157 36600 (2002) 20 (1934) 1300 43 54 76 89 248 816 996 1920 7070
2025-05-07 09:00 6.37 159 36600 (2002) 20 (1934) 1300 43 54 76 89 248 816 996 1920 7070
2025-05-07 08:30 6.37 159 36600 (2002) 20 (1934) 1300 43 54 76 89 248 816 996 1920 7070
2025-05-07 08:00 6.38 162 36600 (2002) 20 (1934) 1300 43 54 76 89 248 816 996 1920 7070
2025-05-07 07:30 6.38 162 36600 (2002) 20 (1934) 1300 43 54 76 89 248 816 996 1920 7070
2025-05-07 07:00 6.38 162 36600 (2002) 20 (1934) 1300 43 54 76 89 248 816 996 1920 7070
2025-05-07 06:30 6.38 162 36600 (2002) 20 (1934) 1300 43 54 76 89 248 816 996 1920 7070
2025-05-07 06:00 6.39 165 36600 (2002) 20 (1934) 1300 43 54 76 89 248 816 996 1920 7070
2025-05-07 05:30 6.39 165 36600 (2002) 20 (1934) 1300 43 54 76 89 248 816 996 1920 7070
2025-05-07 05:00 6.39 165 36600 (2002) 20 (1934) 1300 43 54 76 89 248 816 996 1920 7070
2025-05-07 04:30 6.39 165 36600 (2002) 20 (1934) 1300 43 54 76 89 248 816 996 1920 7070
2025-05-07 04:00 6.39 165 36600 (2002) 20 (1934) 1300 43 54 76 89 248 816 996 1920 7070
2025-05-07 03:30 6.39 165 36600 (2002) 20 (1934) 1300 43 54 76 89 248 816 996 1920 7070
2025-05-07 03:00 6.39 165 36600 (2002) 20 (1934) 1300 43 54 76 89 248 816 996 1920 7070
2025-05-07 02:30 6.39 165 36600 (2002) 20 (1934) 1300 43 54 76 89 248 816 996 1920 7070
2025-05-07 02:00 6.40 168 36600 (2002) 20 (1934) 1300 43 54 76 89 248 816 996 1920 7070
2025-05-07 01:30 6.40 168 36600 (2002) 20 (1934) 1300 43 54 76 89 248 816 996 1920 7070
2025-05-07 01:00 6.40 168 36600 (2002) 20 (1934) 1300 43 54 76 89 248 816 996 1920 7070
2025-05-07 00:30 6.40 168 36600 (2002) 20 (1934) 1300 43 54 76 89 248 816 996 1920 7070
2025-05-07 00:00 6.40 168 36600 (2002) 20 (1934) 1300 43 54 76 89 248 816 996 1920 7070
2025-05-06 23:30 6.40 168 36600 (2002) 20 (1934) 1300 43 54 76 89 248 816 996 1920 7070
2025-05-06 23:00 6.41 171 36600 (2002) 20 (1934) 1300 43 54 76 89 248 816 996 1920 7070
2025-05-06 22:30 6.41 171 16600 (2022) 13 (2000) 1110 42 57 77 94 245 746 1180 2790 4870
2025-05-06 22:00 6.41 171 16600 (2022) 13 (2000) 1110 42 57 77 94 245 746 1180 2790 4870
2025-05-06 21:30 6.41 171 16600 (2022) 13 (2000) 1110 42 57 77 94 245 746 1180 2790 4870
2025-05-06 21:00 6.41 171 16600 (2022) 13 (2000) 1110 42 57 77 94 245 746 1180 2790 4870
2025-05-06 20:30 6.41 171 16600 (2022) 13 (2000) 1110 42 57 77 94 245 746 1180 2790 4870
2025-05-06 20:00 6.42 174 16600 (2022) 13 (2000) 1110 42 57 77 94 245 746 1180 2790 4870
2025-05-06 19:30 6.42 174 16600 (2022) 13 (2000) 1110 42 57 77 94 245 746 1180 2790 4870
2025-05-06 19:00 6.42 174 16600 (2022) 13 (2000) 1110 42 57 77 94 245 746 1180 2790 4870
2025-05-06 18:30 6.42 174 16600 (2022) 13 (2000) 1110 42 57 77 94 245 746 1180 2790 4870
2025-05-06 18:00 6.42 174 16600 (2022) 13 (2000) 1110 42 57 77 94 245 746 1180 2790 4870
2025-05-06 17:30 6.43 177 16600 (2022) 13 (2000) 1110 42 57 77 94 245 746 1180 2790 4870
2025-05-06 17:00 6.43 177 16600 (2022) 13 (2000) 1110 42 57 77 94 245 746 1180 2790 4870
2025-05-06 16:30 6.42 174 16600 (2022) 13 (2000) 1110 42 57 77 94 245 746 1180 2790 4870
2025-05-06 16:00 6.44 180 16600 (2022) 13 (2000) 1110 42 57 77 94 245 746 1180 2790 4870
2025-05-06 15:30 6.44 180 16600 (2022) 13 (2000) 1110 42 57 77 94 245 746 1180 2790 4870
2025-05-06 15:00 6.44 180 16600 (2022) 13 (2000) 1110 42 57 77 94 245 746 1180 2790 4870
2025-05-06 14:30 6.45 183 16600 (2022) 13 (2000) 1110 42 57 77 94 245 746 1180 2790 4870
2025-05-06 14:00 6.45 183 16600 (2022) 13 (2000) 1110 42 57 77 94 245 746 1180 2790 4870
2025-05-06 13:30 6.45 183 16600 (2022) 13 (2000) 1110 42 57 77 94 245 746 1180 2790 4870
2025-05-06 13:00 6.45 183 16600 (2022) 13 (2000) 1110 42 57 77 94 245 746 1180 2790 4870
2025-05-06 12:30 6.46 186 16600 (2022) 13 (2000) 1110 42 57 77 94 245 746 1180 2790 4870
2025-05-06 12:00 6.46 186 16600 (2022) 13 (2000) 1110 42 57 77 94 245 746 1180 2790 4870
2025-05-06 11:30 6.46 186 16600 (2022) 13 (2000) 1110 42 57 77 94 245 746 1180 2790 4870
2025-05-06 11:00 6.46 186 16600 (2022) 13 (2000) 1110 42 57 77 94 245 746 1180 2790 4870
2025-05-06 10:30 6.43 177 16600 (2022) 13 (2000) 1110 42 57 77 94 245 746 1180 2790 4870
2025-05-06 10:00 6.46 186 16600 (2022) 13 (2000) 1110 42 57 77 94 245 746 1180 2790 4870
2025-05-06 09:30 6.47 189 16600 (2022) 13 (2000) 1110 42 57 77 94 245 746 1180 2790 4870
2025-05-06 09:00 6.47 189 16600 (2022) 13 (2000) 1110 42 57 77 94 245 746 1180 2790 4870
2025-05-06 08:30 6.47 189 16600 (2022) 13 (2000) 1110 42 57 77 94 245 746 1180 2790 4870
2025-05-06 08:00 6.48 192 16600 (2022) 13 (2000) 1110 42 57 77 94 245 746 1180 2790 4870
2025-05-06 07:30 6.48 192 16600 (2022) 13 (2000) 1110 42 57 77 94 245 746 1180 2790 4870
2025-05-06 07:00 6.49 195 16600 (2022) 13 (2000) 1110 42 57 77 94 245 746 1180 2790 4870
2025-05-06 06:30 6.49 195 16600 (2022) 13 (2000) 1110 42 57 77 94 245 746 1180 2790 4870
2025-05-06 06:00 6.49 195 16600 (2022) 13 (2000) 1110 42 57 77 94 245 746 1180 2790 4870
2025-05-06 05:30 6.49 195 16600 (2022) 13 (2000) 1110 42 57 77 94 245 746 1180 2790 4870
2025-05-06 05:00 6.49 195 16600 (2022) 13 (2000) 1110 42 57 77 94 245 746 1180 2790 4870
2025-05-06 04:30 6.50 199 16600 (2022) 13 (2000) 1110 42 57 77 94 245 746 1180 2790 4870
2025-05-06 04:00 6.50 199 16600 (2022) 13 (2000) 1110 42 57 77 94 245 746 1180 2790 4870
2025-05-06 03:30 6.50 199 16600 (2022) 13 (2000) 1110 42 57 77 94 245 746 1180 2790 4870
2025-05-06 03:00 6.50 199 16600 (2022) 13 (2000) 1110 42 57 77 94 245 746 1180 2790 4870
2025-05-06 02:30 6.50 199 16600 (2022) 13 (2000) 1110 42 57 77 94 245 746 1180 2790 4870
2025-05-06 02:00 6.50 199 16600 (2022) 13 (2000) 1110 42 57 77 94 245 746 1180 2790 4870
2025-05-06 01:30 6.51 202 16600 (2022) 13 (2000) 1110 42 57 77 94 245 746 1180 2790 4870
2025-05-06 01:00 6.51 202 16600 (2022) 13 (2000) 1110 42 57 77 94 245 746 1180 2790 4870
2025-05-06 00:30 6.51 202 16600 (2022) 13 (2000) 1110 42 57 77 94 245 746 1180 2790 4870
2025-05-06 00:00 6.51 202 16600 (2022) 13 (2000) 1110 42 57 77 94 245 746 1180 2790 4870
2025-05-05 23:30 6.52 205 16600 (2022) 13 (2000) 1110 42 57 77 94 245 746 1180 2790 4870
2025-05-05 23:00 6.52 205 16600 (2022) 13 (2000) 1110 42 57 77 94 245 746 1180 2790 4870

A total of 17403 rows are displayed for years 1922 through 2025.